<?xml version="1.0" encoding="UTF-8" standalone="no" ?>
<gpx xmlns="http://www.topografix.com/GPX/1/1" xmlns:xsi="http://www.w3.org/2001/XMLSchema-instance" xsi:schemaLocation="http://www.topografix.com/GPX/1/1 http://www.topografix.com/GPX/1/1/gpx.xsd" version="1.1" creator="VisuGPX - https://www.visugpx.com">
  <metadata>
    <name>Jolie sortie a mercues espère</name>
  </metadata>
  <trk>
    <name><![CDATA[Jolie sortie a mercues espère_1]]></name>
    <trkseg>
      <trkpt lat="44.49704" lon="1.38648">
        <ele>149.7</ele>
        <time>2021-09-05T12:08:01Z</time>
      </trkpt>
      <trkpt lat="44.49704" lon="1.38647">
        <ele>149.6</ele>
        <time>2021-09-05T12:08:06Z</time>
      </trkpt>
      <trkpt lat="44.49705" lon="1.38648">
        <ele>149.6</ele>
        <time>2021-09-05T12:08:08Z</time>
      </trkpt>
      <trkpt lat="44.49705" lon="1.38653">
        <ele>149.7</ele>
        <time>2021-09-05T12:08:10Z</time>
      </trkpt>
      <trkpt lat="44.49705" lon="1.38658">
        <ele>149.8</ele>
        <time>2021-09-05T12:08:11Z</time>
      </trkpt>
      <trkpt lat="44.49704" lon="1.38664">
        <ele>149.9</ele>
        <time>2021-09-05T12:08:12Z</time>
      </trkpt>
      <trkpt lat="44.49703" lon="1.38671">
        <ele>150</ele>
        <time>2021-09-05T12:08:14Z</time>
      </trkpt>
      <trkpt lat="44.49698" lon="1.38697">
        <ele>150.7</ele>
        <time>2021-09-05T12:08:15Z</time>
      </trkpt>
      <trkpt lat="44.49696" lon="1.38703">
        <ele>150.8</ele>
        <time>2021-09-05T12:08:17Z</time>
      </trkpt>
      <trkpt lat="44.49695" lon="1.38704">
        <ele>150.8</ele>
        <time>2021-09-05T12:08:19Z</time>
      </trkpt>
      <trkpt lat="44.49695" lon="1.38704">
        <ele>150.9</ele>
        <time>2021-09-05T12:08:21Z</time>
      </trkpt>
      <trkpt lat="44.49697" lon="1.38705">
        <ele>150.9</ele>
        <time>2021-09-05T12:10:45Z</time>
      </trkpt>
      <trkpt lat="44.49699" lon="1.38708">
        <ele>151</ele>
        <time>2021-09-05T12:10:46Z</time>
      </trkpt>
      <trkpt lat="44.497" lon="1.38714">
        <ele>151.2</ele>
        <time>2021-09-05T12:10:48Z</time>
      </trkpt>
      <trkpt lat="44.49699" lon="1.38717">
        <ele>151.2</ele>
        <time>2021-09-05T12:10:49Z</time>
      </trkpt>
      <trkpt lat="44.49698" lon="1.38722">
        <ele>151.3</ele>
        <time>2021-09-05T12:10:50Z</time>
      </trkpt>
      <trkpt lat="44.49698" lon="1.38723">
        <ele>151.4</ele>
        <time>2021-09-05T12:10:51Z</time>
      </trkpt>
      <trkpt lat="44.49698" lon="1.38728">
        <ele>151.5</ele>
        <time>2021-09-05T12:10:52Z</time>
      </trkpt>
      <trkpt lat="44.49697" lon="1.38729">
        <ele>151.5</ele>
        <time>2021-09-05T12:10:53Z</time>
      </trkpt>
      <trkpt lat="44.49697" lon="1.38731">
        <ele>151.5</ele>
        <time>2021-09-05T12:10:54Z</time>
      </trkpt>
      <trkpt lat="44.49696" lon="1.38733">
        <ele>151.6</ele>
        <time>2021-09-05T12:10:56Z</time>
      </trkpt>
      <trkpt lat="44.49698" lon="1.38736">
        <ele>151.7</ele>
        <time>2021-09-05T12:10:57Z</time>
      </trkpt>
      <trkpt lat="44.49698" lon="1.38739">
        <ele>151.7</ele>
        <time>2021-09-05T12:10:59Z</time>
      </trkpt>
      <trkpt lat="44.49699" lon="1.38742">
        <ele>151.8</ele>
        <time>2021-09-05T12:11:00Z</time>
      </trkpt>
      <trkpt lat="44.497" lon="1.38747">
        <ele>151.8</ele>
        <time>2021-09-05T12:11:02Z</time>
      </trkpt>
      <trkpt lat="44.49701" lon="1.38752">
        <ele>151.8</ele>
        <time>2021-09-05T12:11:04Z</time>
      </trkpt>
      <trkpt lat="44.49702" lon="1.38756">
        <ele>151.8</ele>
        <time>2021-09-05T12:11:06Z</time>
      </trkpt>
      <trkpt lat="44.49702" lon="1.38759">
        <ele>151.8</ele>
        <time>2021-09-05T12:11:07Z</time>
      </trkpt>
      <trkpt lat="44.49701" lon="1.38761">
        <ele>151.8</ele>
        <time>2021-09-05T12:11:08Z</time>
      </trkpt>
      <trkpt lat="44.497" lon="1.38766">
        <ele>151.9</ele>
        <time>2021-09-05T12:11:10Z</time>
      </trkpt>
      <trkpt lat="44.49699" lon="1.38771">
        <ele>151.9</ele>
        <time>2021-09-05T12:11:12Z</time>
      </trkpt>
      <trkpt lat="44.49699" lon="1.38773">
        <ele>151.9</ele>
        <time>2021-09-05T12:11:13Z</time>
      </trkpt>
      <trkpt lat="44.49697" lon="1.38777">
        <ele>151.9</ele>
        <time>2021-09-05T12:11:15Z</time>
      </trkpt>
      <trkpt lat="44.49696" lon="1.38781">
        <ele>151.9</ele>
        <time>2021-09-05T12:11:17Z</time>
      </trkpt>
      <trkpt lat="44.49696" lon="1.38786">
        <ele>152</ele>
        <time>2021-09-05T12:11:19Z</time>
      </trkpt>
      <trkpt lat="44.49695" lon="1.38791">
        <ele>152</ele>
        <time>2021-09-05T12:11:21Z</time>
      </trkpt>
      <trkpt lat="44.49695" lon="1.38794">
        <ele>152.1</ele>
        <time>2021-09-05T12:11:22Z</time>
      </trkpt>
      <trkpt lat="44.49695" lon="1.38796">
        <ele>152.1</ele>
        <time>2021-09-05T12:11:23Z</time>
      </trkpt>
      <trkpt lat="44.49694" lon="1.38798">
        <ele>152.1</ele>
        <time>2021-09-05T12:11:24Z</time>
      </trkpt>
      <trkpt lat="44.49694" lon="1.38801">
        <ele>152.1</ele>
        <time>2021-09-05T12:11:25Z</time>
      </trkpt>
      <trkpt lat="44.49694" lon="1.38807">
        <ele>152.2</ele>
        <time>2021-09-05T12:11:27Z</time>
      </trkpt>
      <trkpt lat="44.49693" lon="1.38809">
        <ele>152.3</ele>
        <time>2021-09-05T12:11:28Z</time>
      </trkpt>
      <trkpt lat="44.49693" lon="1.38811">
        <ele>152.3</ele>
        <time>2021-09-05T12:11:29Z</time>
      </trkpt>
      <trkpt lat="44.49692" lon="1.38813">
        <ele>152.3</ele>
        <time>2021-09-05T12:11:31Z</time>
      </trkpt>
      <trkpt lat="44.49691" lon="1.38815">
        <ele>152.3</ele>
        <time>2021-09-05T12:11:32Z</time>
      </trkpt>
      <trkpt lat="44.49691" lon="1.38817">
        <ele>152.4</ele>
        <time>2021-09-05T12:11:33Z</time>
      </trkpt>
      <trkpt lat="44.4969" lon="1.38819">
        <ele>152.4</ele>
        <time>2021-09-05T12:11:34Z</time>
      </trkpt>
      <trkpt lat="44.4969" lon="1.38822">
        <ele>152.5</ele>
        <time>2021-09-05T12:11:35Z</time>
      </trkpt>
      <trkpt lat="44.4969" lon="1.38824">
        <ele>152.5</ele>
        <time>2021-09-05T12:11:36Z</time>
      </trkpt>
      <trkpt lat="44.49688" lon="1.38829">
        <ele>152.6</ele>
        <time>2021-09-05T12:11:38Z</time>
      </trkpt>
      <trkpt lat="44.49688" lon="1.3883">
        <ele>152.6</ele>
        <time>2021-09-05T12:11:39Z</time>
      </trkpt>
      <trkpt lat="44.49688" lon="1.38835">
        <ele>152.7</ele>
        <time>2021-09-05T12:11:40Z</time>
      </trkpt>
      <trkpt lat="44.49688" lon="1.38837">
        <ele>152.7</ele>
        <time>2021-09-05T12:11:41Z</time>
      </trkpt>
      <trkpt lat="44.49687" lon="1.3884">
        <ele>152.8</ele>
        <time>2021-09-05T12:11:42Z</time>
      </trkpt>
      <trkpt lat="44.49686" lon="1.38842">
        <ele>152.8</ele>
        <time>2021-09-05T12:11:44Z</time>
      </trkpt>
      <trkpt lat="44.49686" lon="1.38845">
        <ele>152.9</ele>
        <time>2021-09-05T12:11:45Z</time>
      </trkpt>
      <trkpt lat="44.49686" lon="1.38847">
        <ele>152.9</ele>
        <time>2021-09-05T12:11:46Z</time>
      </trkpt>
      <trkpt lat="44.49686" lon="1.38848">
        <ele>152.9</ele>
        <time>2021-09-05T12:11:47Z</time>
      </trkpt>
      <trkpt lat="44.49686" lon="1.38852">
        <ele>153</ele>
        <time>2021-09-05T12:11:49Z</time>
      </trkpt>
      <trkpt lat="44.49686" lon="1.38854">
        <ele>153.1</ele>
        <time>2021-09-05T12:11:50Z</time>
      </trkpt>
      <trkpt lat="44.49685" lon="1.38859">
        <ele>153.1</ele>
        <time>2021-09-05T12:11:51Z</time>
      </trkpt>
      <trkpt lat="44.49685" lon="1.3886">
        <ele>153.2</ele>
        <time>2021-09-05T12:11:52Z</time>
      </trkpt>
      <trkpt lat="44.49682" lon="1.38864">
        <ele>153.3</ele>
        <time>2021-09-05T12:11:54Z</time>
      </trkpt>
      <trkpt lat="44.49681" lon="1.38865">
        <ele>153.3</ele>
        <time>2021-09-05T12:11:55Z</time>
      </trkpt>
      <trkpt lat="44.49681" lon="1.38872">
        <ele>153.4</ele>
        <time>2021-09-05T12:11:57Z</time>
      </trkpt>
      <trkpt lat="44.4968" lon="1.38874">
        <ele>153.5</ele>
        <time>2021-09-05T12:11:59Z</time>
      </trkpt>
      <trkpt lat="44.4968" lon="1.38876">
        <ele>153.5</ele>
        <time>2021-09-05T12:12:00Z</time>
      </trkpt>
      <trkpt lat="44.4968" lon="1.3888">
        <ele>153.6</ele>
        <time>2021-09-05T12:12:01Z</time>
      </trkpt>
      <trkpt lat="44.4968" lon="1.38882">
        <ele>153.6</ele>
        <time>2021-09-05T12:12:02Z</time>
      </trkpt>
      <trkpt lat="44.4968" lon="1.38886">
        <ele>153.7</ele>
        <time>2021-09-05T12:12:03Z</time>
      </trkpt>
      <trkpt lat="44.4968" lon="1.38887">
        <ele>153.7</ele>
        <time>2021-09-05T12:12:05Z</time>
      </trkpt>
      <trkpt lat="44.4968" lon="1.38892">
        <ele>153.8</ele>
        <time>2021-09-05T12:12:06Z</time>
      </trkpt>
      <trkpt lat="44.4968" lon="1.38893">
        <ele>153.8</ele>
        <time>2021-09-05T12:12:07Z</time>
      </trkpt>
      <trkpt lat="44.4968" lon="1.38895">
        <ele>153.9</ele>
        <time>2021-09-05T12:12:09Z</time>
      </trkpt>
      <trkpt lat="44.49679" lon="1.389">
        <ele>153.9</ele>
        <time>2021-09-05T12:12:11Z</time>
      </trkpt>
      <trkpt lat="44.49678" lon="1.38902">
        <ele>153.9</ele>
        <time>2021-09-05T12:12:12Z</time>
      </trkpt>
      <trkpt lat="44.49678" lon="1.38904">
        <ele>153.9</ele>
        <time>2021-09-05T12:12:13Z</time>
      </trkpt>
      <trkpt lat="44.49677" lon="1.38907">
        <ele>154</ele>
        <time>2021-09-05T12:12:14Z</time>
      </trkpt>
      <trkpt lat="44.49677" lon="1.38912">
        <ele>154</ele>
        <time>2021-09-05T12:12:16Z</time>
      </trkpt>
      <trkpt lat="44.49676" lon="1.38918">
        <ele>154.1</ele>
        <time>2021-09-05T12:12:18Z</time>
      </trkpt>
      <trkpt lat="44.49675" lon="1.38921">
        <ele>154.1</ele>
        <time>2021-09-05T12:12:19Z</time>
      </trkpt>
      <trkpt lat="44.49675" lon="1.38927">
        <ele>154.2</ele>
        <time>2021-09-05T12:12:21Z</time>
      </trkpt>
      <trkpt lat="44.49674" lon="1.38931">
        <ele>154.3</ele>
        <time>2021-09-05T12:12:22Z</time>
      </trkpt>
      <trkpt lat="44.49674" lon="1.38932">
        <ele>154.4</ele>
        <time>2021-09-05T12:12:23Z</time>
      </trkpt>
      <trkpt lat="44.49673" lon="1.38938">
        <ele>154.5</ele>
        <time>2021-09-05T12:12:25Z</time>
      </trkpt>
      <trkpt lat="44.49673" lon="1.38943">
        <ele>154.6</ele>
        <time>2021-09-05T12:12:27Z</time>
      </trkpt>
      <trkpt lat="44.49672" lon="1.38948">
        <ele>154.8</ele>
        <time>2021-09-05T12:12:29Z</time>
      </trkpt>
      <trkpt lat="44.49671" lon="1.3895">
        <ele>154.8</ele>
        <time>2021-09-05T12:12:30Z</time>
      </trkpt>
      <trkpt lat="44.4967" lon="1.38952">
        <ele>154.9</ele>
        <time>2021-09-05T12:12:31Z</time>
      </trkpt>
      <trkpt lat="44.4967" lon="1.38959">
        <ele>155.1</ele>
        <time>2021-09-05T12:12:33Z</time>
      </trkpt>
      <trkpt lat="44.49669" lon="1.38961">
        <ele>155.1</ele>
        <time>2021-09-05T12:12:35Z</time>
      </trkpt>
      <trkpt lat="44.49669" lon="1.38964">
        <ele>155.2</ele>
        <time>2021-09-05T12:12:36Z</time>
      </trkpt>
      <trkpt lat="44.49668" lon="1.38966">
        <ele>155.3</ele>
        <time>2021-09-05T12:12:37Z</time>
      </trkpt>
      <trkpt lat="44.49667" lon="1.3897">
        <ele>155.4</ele>
        <time>2021-09-05T12:12:39Z</time>
      </trkpt>
      <trkpt lat="44.49667" lon="1.38973">
        <ele>155.5</ele>
        <time>2021-09-05T12:12:40Z</time>
      </trkpt>
      <trkpt lat="44.49667" lon="1.38977">
        <ele>155.6</ele>
        <time>2021-09-05T12:12:42Z</time>
      </trkpt>
      <trkpt lat="44.49666" lon="1.3898">
        <ele>155.7</ele>
        <time>2021-09-05T12:12:43Z</time>
      </trkpt>
      <trkpt lat="44.49666" lon="1.38984">
        <ele>155.8</ele>
        <time>2021-09-05T12:12:45Z</time>
      </trkpt>
      <trkpt lat="44.49665" lon="1.38989">
        <ele>155.9</ele>
        <time>2021-09-05T12:12:47Z</time>
      </trkpt>
      <trkpt lat="44.49664" lon="1.38994">
        <ele>156.1</ele>
        <time>2021-09-05T12:12:49Z</time>
      </trkpt>
      <trkpt lat="44.49664" lon="1.38996">
        <ele>156.2</ele>
        <time>2021-09-05T12:12:50Z</time>
      </trkpt>
      <trkpt lat="44.49663" lon="1.38998">
        <ele>156.2</ele>
        <time>2021-09-05T12:12:51Z</time>
      </trkpt>
      <trkpt lat="44.49663" lon="1.39">
        <ele>156.3</ele>
        <time>2021-09-05T12:12:52Z</time>
      </trkpt>
      <trkpt lat="44.49661" lon="1.39004">
        <ele>156.5</ele>
        <time>2021-09-05T12:12:54Z</time>
      </trkpt>
      <trkpt lat="44.49659" lon="1.39007">
        <ele>156.6</ele>
        <time>2021-09-05T12:12:56Z</time>
      </trkpt>
      <trkpt lat="44.49658" lon="1.39009">
        <ele>156.7</ele>
        <time>2021-09-05T12:12:57Z</time>
      </trkpt>
      <trkpt lat="44.49658" lon="1.39011">
        <ele>156.8</ele>
        <time>2021-09-05T12:12:58Z</time>
      </trkpt>
      <trkpt lat="44.49655" lon="1.39018">
        <ele>157.2</ele>
        <time>2021-09-05T12:13:00Z</time>
      </trkpt>
      <trkpt lat="44.49655" lon="1.39021">
        <ele>157.3</ele>
        <time>2021-09-05T12:13:02Z</time>
      </trkpt>
      <trkpt lat="44.49654" lon="1.39023">
        <ele>157.4</ele>
        <time>2021-09-05T12:13:03Z</time>
      </trkpt>
      <trkpt lat="44.49653" lon="1.39026">
        <ele>157.6</ele>
        <time>2021-09-05T12:13:04Z</time>
      </trkpt>
      <trkpt lat="44.49653" lon="1.39031">
        <ele>157.8</ele>
        <time>2021-09-05T12:13:06Z</time>
      </trkpt>
      <trkpt lat="44.49654" lon="1.39033">
        <ele>158</ele>
        <time>2021-09-05T12:13:07Z</time>
      </trkpt>
      <trkpt lat="44.49654" lon="1.39036">
        <ele>158.1</ele>
        <time>2021-09-05T12:13:08Z</time>
      </trkpt>
      <trkpt lat="44.49654" lon="1.39038">
        <ele>158.2</ele>
        <time>2021-09-05T12:13:09Z</time>
      </trkpt>
      <trkpt lat="44.49654" lon="1.3904">
        <ele>158.3</ele>
        <time>2021-09-05T12:13:10Z</time>
      </trkpt>
      <trkpt lat="44.49654" lon="1.39042">
        <ele>158.4</ele>
        <time>2021-09-05T12:13:12Z</time>
      </trkpt>
      <trkpt lat="44.49653" lon="1.39047">
        <ele>158.7</ele>
        <time>2021-09-05T12:13:14Z</time>
      </trkpt>
      <trkpt lat="44.49652" lon="1.39052">
        <ele>158.9</ele>
        <time>2021-09-05T12:13:16Z</time>
      </trkpt>
      <trkpt lat="44.49651" lon="1.39057">
        <ele>159.2</ele>
        <time>2021-09-05T12:13:18Z</time>
      </trkpt>
      <trkpt lat="44.49649" lon="1.39062">
        <ele>159.5</ele>
        <time>2021-09-05T12:13:20Z</time>
      </trkpt>
      <trkpt lat="44.49648" lon="1.39066">
        <ele>159.8</ele>
        <time>2021-09-05T12:13:22Z</time>
      </trkpt>
      <trkpt lat="44.49646" lon="1.3907">
        <ele>160.1</ele>
        <time>2021-09-05T12:13:24Z</time>
      </trkpt>
      <trkpt lat="44.49645" lon="1.39075">
        <ele>160.5</ele>
        <time>2021-09-05T12:13:26Z</time>
      </trkpt>
      <trkpt lat="44.49643" lon="1.39079">
        <ele>160.8</ele>
        <time>2021-09-05T12:13:28Z</time>
      </trkpt>
      <trkpt lat="44.49642" lon="1.39083">
        <ele>161.1</ele>
        <time>2021-09-05T12:13:30Z</time>
      </trkpt>
      <trkpt lat="44.4964" lon="1.39088">
        <ele>161.5</ele>
        <time>2021-09-05T12:13:32Z</time>
      </trkpt>
      <trkpt lat="44.49639" lon="1.39091">
        <ele>161.7</ele>
        <time>2021-09-05T12:13:34Z</time>
      </trkpt>
      <trkpt lat="44.49639" lon="1.39095">
        <ele>162</ele>
        <time>2021-09-05T12:13:36Z</time>
      </trkpt>
      <trkpt lat="44.49638" lon="1.39099">
        <ele>162.3</ele>
        <time>2021-09-05T12:13:37Z</time>
      </trkpt>
      <trkpt lat="44.49638" lon="1.39101">
        <ele>162.5</ele>
        <time>2021-09-05T12:13:38Z</time>
      </trkpt>
      <trkpt lat="44.49638" lon="1.39104">
        <ele>162.7</ele>
        <time>2021-09-05T12:13:39Z</time>
      </trkpt>
      <trkpt lat="44.49638" lon="1.39107">
        <ele>162.9</ele>
        <time>2021-09-05T12:13:41Z</time>
      </trkpt>
      <trkpt lat="44.49637" lon="1.39111">
        <ele>163.2</ele>
        <time>2021-09-05T12:13:43Z</time>
      </trkpt>
      <trkpt lat="44.49635" lon="1.39114">
        <ele>163.4</ele>
        <time>2021-09-05T12:13:44Z</time>
      </trkpt>
      <trkpt lat="44.49635" lon="1.39116">
        <ele>163.6</ele>
        <time>2021-09-05T12:13:45Z</time>
      </trkpt>
      <trkpt lat="44.49634" lon="1.39119">
        <ele>163.7</ele>
        <time>2021-09-05T12:13:46Z</time>
      </trkpt>
      <trkpt lat="44.49634" lon="1.39121">
        <ele>163.9</ele>
        <time>2021-09-05T12:13:48Z</time>
      </trkpt>
      <trkpt lat="44.49633" lon="1.39124">
        <ele>164.1</ele>
        <time>2021-09-05T12:13:49Z</time>
      </trkpt>
      <trkpt lat="44.49633" lon="1.39125">
        <ele>164.2</ele>
        <time>2021-09-05T12:13:50Z</time>
      </trkpt>
      <trkpt lat="44.49632" lon="1.39127">
        <ele>164.3</ele>
        <time>2021-09-05T12:13:52Z</time>
      </trkpt>
      <trkpt lat="44.49632" lon="1.39128">
        <ele>164.4</ele>
        <time>2021-09-05T12:13:53Z</time>
      </trkpt>
      <trkpt lat="44.49631" lon="1.3913">
        <ele>164.5</ele>
        <time>2021-09-05T12:13:56Z</time>
      </trkpt>
      <trkpt lat="44.49631" lon="1.39131">
        <ele>164.6</ele>
        <time>2021-09-05T12:13:57Z</time>
      </trkpt>
      <trkpt lat="44.49631" lon="1.39132">
        <ele>164.7</ele>
        <time>2021-09-05T12:13:58Z</time>
      </trkpt>
      <trkpt lat="44.49631" lon="1.39134">
        <ele>164.8</ele>
        <time>2021-09-05T12:14:00Z</time>
      </trkpt>
      <trkpt lat="44.4963" lon="1.39135">
        <ele>164.9</ele>
        <time>2021-09-05T12:14:02Z</time>
      </trkpt>
      <trkpt lat="44.4963" lon="1.39137">
        <ele>165</ele>
        <time>2021-09-05T12:14:03Z</time>
      </trkpt>
      <trkpt lat="44.4963" lon="1.39138">
        <ele>165.1</ele>
        <time>2021-09-05T12:14:05Z</time>
      </trkpt>
      <trkpt lat="44.4963" lon="1.3914">
        <ele>165.2</ele>
        <time>2021-09-05T12:14:07Z</time>
      </trkpt>
      <trkpt lat="44.49629" lon="1.39141">
        <ele>165.3</ele>
        <time>2021-09-05T12:15:27Z</time>
      </trkpt>
      <trkpt lat="44.49629" lon="1.39143">
        <ele>165.4</ele>
        <time>2021-09-05T12:15:28Z</time>
      </trkpt>
      <trkpt lat="44.49627" lon="1.39148">
        <ele>165.8</ele>
        <time>2021-09-05T12:15:29Z</time>
      </trkpt>
      <trkpt lat="44.49626" lon="1.39153">
        <ele>166.1</ele>
        <time>2021-09-05T12:15:31Z</time>
      </trkpt>
      <trkpt lat="44.49625" lon="1.3916">
        <ele>166.6</ele>
        <time>2021-09-05T12:15:32Z</time>
      </trkpt>
      <trkpt lat="44.49624" lon="1.39165">
        <ele>167</ele>
        <time>2021-09-05T12:15:33Z</time>
      </trkpt>
      <trkpt lat="44.49623" lon="1.39167">
        <ele>167.1</ele>
        <time>2021-09-05T12:15:34Z</time>
      </trkpt>
      <trkpt lat="44.49622" lon="1.39171">
        <ele>167.4</ele>
        <time>2021-09-05T12:15:35Z</time>
      </trkpt>
      <trkpt lat="44.49621" lon="1.39174">
        <ele>167.7</ele>
        <time>2021-09-05T12:15:36Z</time>
      </trkpt>
      <trkpt lat="44.4962" lon="1.39177">
        <ele>167.9</ele>
        <time>2021-09-05T12:15:38Z</time>
      </trkpt>
      <trkpt lat="44.49619" lon="1.39181">
        <ele>168.2</ele>
        <time>2021-09-05T12:15:39Z</time>
      </trkpt>
      <trkpt lat="44.49619" lon="1.39184">
        <ele>168.5</ele>
        <time>2021-09-05T12:15:40Z</time>
      </trkpt>
      <trkpt lat="44.49618" lon="1.39188">
        <ele>168.8</ele>
        <time>2021-09-05T12:15:42Z</time>
      </trkpt>
      <trkpt lat="44.49617" lon="1.39191">
        <ele>169</ele>
        <time>2021-09-05T12:15:43Z</time>
      </trkpt>
      <trkpt lat="44.49616" lon="1.39197">
        <ele>169.6</ele>
        <time>2021-09-05T12:15:45Z</time>
      </trkpt>
      <trkpt lat="44.49615" lon="1.39201">
        <ele>170.1</ele>
        <time>2021-09-05T12:15:46Z</time>
      </trkpt>
      <trkpt lat="44.49614" lon="1.39203">
        <ele>169.3</ele>
        <time>2021-09-05T12:15:47Z</time>
      </trkpt>
      <trkpt lat="44.49613" lon="1.39207">
        <ele>169.8</ele>
        <time>2021-09-05T12:15:49Z</time>
      </trkpt>
      <trkpt lat="44.49613" lon="1.39209">
        <ele>170.4</ele>
        <time>2021-09-05T12:15:50Z</time>
      </trkpt>
      <trkpt lat="44.49614" lon="1.39213">
        <ele>171.4</ele>
        <time>2021-09-05T12:15:52Z</time>
      </trkpt>
      <trkpt lat="44.49614" lon="1.39214">
        <ele>172</ele>
        <time>2021-09-05T12:15:53Z</time>
      </trkpt>
      <trkpt lat="44.49614" lon="1.39216">
        <ele>172</ele>
        <time>2021-09-05T12:15:54Z</time>
      </trkpt>
      <trkpt lat="44.49615" lon="1.39218">
        <ele>172.6</ele>
        <time>2021-09-05T12:15:55Z</time>
      </trkpt>
      <trkpt lat="44.49616" lon="1.3922">
        <ele>172.7</ele>
        <time>2021-09-05T12:15:57Z</time>
      </trkpt>
      <trkpt lat="44.49617" lon="1.39222">
        <ele>173.6</ele>
        <time>2021-09-05T12:15:58Z</time>
      </trkpt>
      <trkpt lat="44.49618" lon="1.39223">
        <ele>174.2</ele>
        <time>2021-09-05T12:15:59Z</time>
      </trkpt>
      <trkpt lat="44.49619" lon="1.39225">
        <ele>174.3</ele>
        <time>2021-09-05T12:16:00Z</time>
      </trkpt>
      <trkpt lat="44.49621" lon="1.39226">
        <ele>175.6</ele>
        <time>2021-09-05T12:16:02Z</time>
      </trkpt>
      <trkpt lat="44.49622" lon="1.39227">
        <ele>175.7</ele>
        <time>2021-09-05T12:16:03Z</time>
      </trkpt>
      <trkpt lat="44.49625" lon="1.39228">
        <ele>176.3</ele>
        <time>2021-09-05T12:16:05Z</time>
      </trkpt>
      <trkpt lat="44.49626" lon="1.39229">
        <ele>176.8</ele>
        <time>2021-09-05T12:16:07Z</time>
      </trkpt>
      <trkpt lat="44.49628" lon="1.3923">
        <ele>176.9</ele>
        <time>2021-09-05T12:16:08Z</time>
      </trkpt>
      <trkpt lat="44.49628" lon="1.39231">
        <ele>177.5</ele>
        <time>2021-09-05T12:16:09Z</time>
      </trkpt>
      <trkpt lat="44.49628" lon="1.39231">
        <ele>177.6</ele>
        <time>2021-09-05T12:16:10Z</time>
      </trkpt>
      <trkpt lat="44.49628" lon="1.39231">
        <ele>177.7</ele>
        <time>2021-09-05T12:16:11Z</time>
      </trkpt>
      <trkpt lat="44.49628" lon="1.3923">
        <ele>177.8</ele>
        <time>2021-09-05T12:16:13Z</time>
      </trkpt>
      <trkpt lat="44.49628" lon="1.3923">
        <ele>177.3</ele>
        <time>2021-09-05T12:16:15Z</time>
      </trkpt>
      <trkpt lat="44.49627" lon="1.3923">
        <ele>177.4</ele>
        <time>2021-09-05T12:16:16Z</time>
      </trkpt>
      <trkpt lat="44.49627" lon="1.39229">
        <ele>177.5</ele>
        <time>2021-09-05T12:16:17Z</time>
      </trkpt>
      <trkpt lat="44.49626" lon="1.39229">
        <ele>177.6</ele>
        <time>2021-09-05T12:16:18Z</time>
      </trkpt>
      <trkpt lat="44.49626" lon="1.39229">
        <ele>177.3</ele>
        <time>2021-09-05T12:16:21Z</time>
      </trkpt>
      <trkpt lat="44.49626" lon="1.39229">
        <ele>177.4</ele>
        <time>2021-09-05T12:16:22Z</time>
      </trkpt>
      <trkpt lat="44.49626" lon="1.39229">
        <ele>177.5</ele>
        <time>2021-09-05T12:16:24Z</time>
      </trkpt>
      <trkpt lat="44.49632" lon="1.39231">
        <ele>179</ele>
        <time>2021-09-05T12:20:00Z</time>
      </trkpt>
      <trkpt lat="44.49633" lon="1.39232">
        <ele>179.1</ele>
        <time>2021-09-05T12:20:01Z</time>
      </trkpt>
      <trkpt lat="44.49635" lon="1.39234">
        <ele>179.2</ele>
        <time>2021-09-05T12:20:02Z</time>
      </trkpt>
      <trkpt lat="44.49638" lon="1.39239">
        <ele>180</ele>
        <time>2021-09-05T12:20:04Z</time>
      </trkpt>
      <trkpt lat="44.49639" lon="1.3924">
        <ele>180.8</ele>
        <time>2021-09-05T12:20:05Z</time>
      </trkpt>
      <trkpt lat="44.4964" lon="1.39242">
        <ele>180.9</ele>
        <time>2021-09-05T12:20:06Z</time>
      </trkpt>
      <trkpt lat="44.49642" lon="1.39245">
        <ele>181.7</ele>
        <time>2021-09-05T12:20:07Z</time>
      </trkpt>
      <trkpt lat="44.49642" lon="1.39246">
        <ele>181.7</ele>
        <time>2021-09-05T12:20:08Z</time>
      </trkpt>
      <trkpt lat="44.49643" lon="1.39249">
        <ele>182.5</ele>
        <time>2021-09-05T12:20:09Z</time>
      </trkpt>
      <trkpt lat="44.49645" lon="1.39251">
        <ele>182.6</ele>
        <time>2021-09-05T12:20:11Z</time>
      </trkpt>
      <trkpt lat="44.49646" lon="1.39252">
        <ele>183.4</ele>
        <time>2021-09-05T12:20:12Z</time>
      </trkpt>
      <trkpt lat="44.49647" lon="1.39254">
        <ele>183.5</ele>
        <time>2021-09-05T12:20:13Z</time>
      </trkpt>
      <trkpt lat="44.49648" lon="1.39257">
        <ele>184.2</ele>
        <time>2021-09-05T12:20:14Z</time>
      </trkpt>
      <trkpt lat="44.49649" lon="1.39259">
        <ele>184.3</ele>
        <time>2021-09-05T12:20:16Z</time>
      </trkpt>
      <trkpt lat="44.4965" lon="1.3926">
        <ele>185.1</ele>
        <time>2021-09-05T12:20:17Z</time>
      </trkpt>
      <trkpt lat="44.49651" lon="1.39262">
        <ele>185</ele>
        <time>2021-09-05T12:20:19Z</time>
      </trkpt>
      <trkpt lat="44.49653" lon="1.39264">
        <ele>185.1</ele>
        <time>2021-09-05T12:20:20Z</time>
      </trkpt>
      <trkpt lat="44.49654" lon="1.39265">
        <ele>185.8</ele>
        <time>2021-09-05T12:20:22Z</time>
      </trkpt>
      <trkpt lat="44.49656" lon="1.39267">
        <ele>185.9</ele>
        <time>2021-09-05T12:20:23Z</time>
      </trkpt>
      <trkpt lat="44.49657" lon="1.39269">
        <ele>186.6</ele>
        <time>2021-09-05T12:20:25Z</time>
      </trkpt>
      <trkpt lat="44.49658" lon="1.39272">
        <ele>186.6</ele>
        <time>2021-09-05T12:20:26Z</time>
      </trkpt>
      <trkpt lat="44.4966" lon="1.39277">
        <ele>187.3</ele>
        <time>2021-09-05T12:20:28Z</time>
      </trkpt>
      <trkpt lat="44.49661" lon="1.39278">
        <ele>188.1</ele>
        <time>2021-09-05T12:20:29Z</time>
      </trkpt>
      <trkpt lat="44.49664" lon="1.39283">
        <ele>188.8</ele>
        <time>2021-09-05T12:20:31Z</time>
      </trkpt>
      <trkpt lat="44.49665" lon="1.39284">
        <ele>188.9</ele>
        <time>2021-09-05T12:20:32Z</time>
      </trkpt>
      <trkpt lat="44.49666" lon="1.39285">
        <ele>188.8</ele>
        <time>2021-09-05T12:20:33Z</time>
      </trkpt>
      <trkpt lat="44.49669" lon="1.39288">
        <ele>189.6</ele>
        <time>2021-09-05T12:20:35Z</time>
      </trkpt>
      <trkpt lat="44.4967" lon="1.3929">
        <ele>189.4</ele>
        <time>2021-09-05T12:20:36Z</time>
      </trkpt>
      <trkpt lat="44.49671" lon="1.39291">
        <ele>190.2</ele>
        <time>2021-09-05T12:20:38Z</time>
      </trkpt>
      <trkpt lat="44.49673" lon="1.39293">
        <ele>190</ele>
        <time>2021-09-05T12:20:39Z</time>
      </trkpt>
      <trkpt lat="44.49674" lon="1.39296">
        <ele>190.9</ele>
        <time>2021-09-05T12:20:40Z</time>
      </trkpt>
      <trkpt lat="44.49675" lon="1.39299">
        <ele>190.6</ele>
        <time>2021-09-05T12:20:41Z</time>
      </trkpt>
      <trkpt lat="44.49677" lon="1.39301">
        <ele>191.4</ele>
        <time>2021-09-05T12:20:43Z</time>
      </trkpt>
      <trkpt lat="44.49678" lon="1.39303">
        <ele>192.3</ele>
        <time>2021-09-05T12:20:44Z</time>
      </trkpt>
      <trkpt lat="44.49678" lon="1.39305">
        <ele>192</ele>
        <time>2021-09-05T12:20:45Z</time>
      </trkpt>
      <trkpt lat="44.4968" lon="1.39309">
        <ele>192.9</ele>
        <time>2021-09-05T12:20:47Z</time>
      </trkpt>
      <trkpt lat="44.4968" lon="1.3931">
        <ele>193</ele>
        <time>2021-09-05T12:20:48Z</time>
      </trkpt>
      <trkpt lat="44.4968" lon="1.39314">
        <ele>193.8</ele>
        <time>2021-09-05T12:20:49Z</time>
      </trkpt>
      <trkpt lat="44.4968" lon="1.39315">
        <ele>193.9</ele>
        <time>2021-09-05T12:20:50Z</time>
      </trkpt>
      <trkpt lat="44.49681" lon="1.3932">
        <ele>194.7</ele>
        <time>2021-09-05T12:20:51Z</time>
      </trkpt>
      <trkpt lat="44.49681" lon="1.39321">
        <ele>195.1</ele>
        <time>2021-09-05T12:20:52Z</time>
      </trkpt>
      <trkpt lat="44.49682" lon="1.39325">
        <ele>195.9</ele>
        <time>2021-09-05T12:20:54Z</time>
      </trkpt>
      <trkpt lat="44.49683" lon="1.39327">
        <ele>196</ele>
        <time>2021-09-05T12:20:55Z</time>
      </trkpt>
      <trkpt lat="44.49684" lon="1.3933">
        <ele>196.8</ele>
        <time>2021-09-05T12:20:57Z</time>
      </trkpt>
      <trkpt lat="44.49685" lon="1.39332">
        <ele>196.5</ele>
        <time>2021-09-05T12:20:58Z</time>
      </trkpt>
      <trkpt lat="44.49686" lon="1.39336">
        <ele>197.3</ele>
        <time>2021-09-05T12:20:59Z</time>
      </trkpt>
      <trkpt lat="44.49686" lon="1.39337">
        <ele>197.4</ele>
        <time>2021-09-05T12:21:00Z</time>
      </trkpt>
      <trkpt lat="44.49687" lon="1.39341">
        <ele>198.3</ele>
        <time>2021-09-05T12:21:02Z</time>
      </trkpt>
      <trkpt lat="44.49688" lon="1.39343">
        <ele>198.7</ele>
        <time>2021-09-05T12:21:04Z</time>
      </trkpt>
      <trkpt lat="44.49688" lon="1.39345">
        <ele>198.8</ele>
        <time>2021-09-05T12:21:05Z</time>
      </trkpt>
      <trkpt lat="44.49689" lon="1.39349">
        <ele>199.7</ele>
        <time>2021-09-05T12:21:07Z</time>
      </trkpt>
      <trkpt lat="44.49689" lon="1.3935">
        <ele>199.7</ele>
        <time>2021-09-05T12:21:08Z</time>
      </trkpt>
      <trkpt lat="44.49689" lon="1.39354">
        <ele>200.6</ele>
        <time>2021-09-05T12:21:09Z</time>
      </trkpt>
      <trkpt lat="44.4969" lon="1.39355">
        <ele>200.7</ele>
        <time>2021-09-05T12:21:11Z</time>
      </trkpt>
      <trkpt lat="44.4969" lon="1.39356">
        <ele>201.5</ele>
        <time>2021-09-05T12:21:12Z</time>
      </trkpt>
      <trkpt lat="44.49691" lon="1.39357">
        <ele>201.1</ele>
        <time>2021-09-05T12:21:14Z</time>
      </trkpt>
      <trkpt lat="44.49691" lon="1.39358">
        <ele>201.2</ele>
        <time>2021-09-05T12:21:15Z</time>
      </trkpt>
      <trkpt lat="44.49693" lon="1.3936">
        <ele>202</ele>
        <time>2021-09-05T12:21:16Z</time>
      </trkpt>
      <trkpt lat="44.49694" lon="1.39361">
        <ele>201.5</ele>
        <time>2021-09-05T12:21:18Z</time>
      </trkpt>
      <trkpt lat="44.49694" lon="1.39364">
        <ele>202.4</ele>
        <time>2021-09-05T12:21:19Z</time>
      </trkpt>
      <trkpt lat="44.49694" lon="1.39364">
        <ele>202.4</ele>
        <time>2021-09-05T12:21:20Z</time>
      </trkpt>
      <trkpt lat="44.49693" lon="1.39367">
        <ele>203.1</ele>
        <time>2021-09-05T12:21:22Z</time>
      </trkpt>
      <trkpt lat="44.49693" lon="1.3937">
        <ele>203.9</ele>
        <time>2021-09-05T12:21:23Z</time>
      </trkpt>
      <trkpt lat="44.49693" lon="1.39371">
        <ele>204</ele>
        <time>2021-09-05T12:21:24Z</time>
      </trkpt>
      <trkpt lat="44.49693" lon="1.39372">
        <ele>204.8</ele>
        <time>2021-09-05T12:21:25Z</time>
      </trkpt>
      <trkpt lat="44.49693" lon="1.39376">
        <ele>204.9</ele>
        <time>2021-09-05T12:21:27Z</time>
      </trkpt>
      <trkpt lat="44.49694" lon="1.39378">
        <ele>205.1</ele>
        <time>2021-09-05T12:21:28Z</time>
      </trkpt>
      <trkpt lat="44.49694" lon="1.3938">
        <ele>205.2</ele>
        <time>2021-09-05T12:21:29Z</time>
      </trkpt>
      <trkpt lat="44.49694" lon="1.39382">
        <ele>206</ele>
        <time>2021-09-05T12:21:30Z</time>
      </trkpt>
      <trkpt lat="44.49695" lon="1.39386">
        <ele>206.9</ele>
        <time>2021-09-05T12:21:32Z</time>
      </trkpt>
      <trkpt lat="44.49696" lon="1.3939">
        <ele>207.7</ele>
        <time>2021-09-05T12:21:34Z</time>
      </trkpt>
      <trkpt lat="44.49696" lon="1.39391">
        <ele>207.8</ele>
        <time>2021-09-05T12:21:35Z</time>
      </trkpt>
      <trkpt lat="44.49696" lon="1.39394">
        <ele>208.6</ele>
        <time>2021-09-05T12:21:37Z</time>
      </trkpt>
      <trkpt lat="44.49696" lon="1.39395">
        <ele>208.7</ele>
        <time>2021-09-05T12:21:38Z</time>
      </trkpt>
      <trkpt lat="44.49697" lon="1.39398">
        <ele>208.9</ele>
        <time>2021-09-05T12:21:40Z</time>
      </trkpt>
      <trkpt lat="44.49698" lon="1.39403">
        <ele>209.6</ele>
        <time>2021-09-05T12:21:42Z</time>
      </trkpt>
      <trkpt lat="44.49698" lon="1.39407">
        <ele>210.2</ele>
        <time>2021-09-05T12:21:44Z</time>
      </trkpt>
      <trkpt lat="44.49699" lon="1.39415">
        <ele>211.3</ele>
        <time>2021-09-05T12:21:46Z</time>
      </trkpt>
      <trkpt lat="44.49699" lon="1.39421">
        <ele>211.9</ele>
        <time>2021-09-05T12:21:49Z</time>
      </trkpt>
      <trkpt lat="44.497" lon="1.39427">
        <ele>212.1</ele>
        <time>2021-09-05T12:21:50Z</time>
      </trkpt>
      <trkpt lat="44.497" lon="1.3943">
        <ele>212.2</ele>
        <time>2021-09-05T12:21:51Z</time>
      </trkpt>
      <trkpt lat="44.497" lon="1.39434">
        <ele>212.4</ele>
        <time>2021-09-05T12:21:53Z</time>
      </trkpt>
      <trkpt lat="44.49701" lon="1.39439">
        <ele>212.5</ele>
        <time>2021-09-05T12:21:54Z</time>
      </trkpt>
      <trkpt lat="44.49701" lon="1.39441">
        <ele>212.6</ele>
        <time>2021-09-05T12:21:55Z</time>
      </trkpt>
      <trkpt lat="44.49702" lon="1.39445">
        <ele>212.7</ele>
        <time>2021-09-05T12:21:57Z</time>
      </trkpt>
      <trkpt lat="44.49702" lon="1.39447">
        <ele>212.7</ele>
        <time>2021-09-05T12:21:58Z</time>
      </trkpt>
      <trkpt lat="44.49704" lon="1.39453">
        <ele>212.9</ele>
        <time>2021-09-05T12:21:59Z</time>
      </trkpt>
      <trkpt lat="44.49704" lon="1.39456">
        <ele>212.9</ele>
        <time>2021-09-05T12:22:00Z</time>
      </trkpt>
      <trkpt lat="44.49705" lon="1.39461">
        <ele>213</ele>
        <time>2021-09-05T12:22:02Z</time>
      </trkpt>
      <trkpt lat="44.49706" lon="1.39465">
        <ele>213.1</ele>
        <time>2021-09-05T12:22:03Z</time>
      </trkpt>
      <trkpt lat="44.49706" lon="1.39469">
        <ele>213.2</ele>
        <time>2021-09-05T12:22:05Z</time>
      </trkpt>
      <trkpt lat="44.49707" lon="1.39473">
        <ele>213.3</ele>
        <time>2021-09-05T12:22:06Z</time>
      </trkpt>
      <trkpt lat="44.49707" lon="1.39475">
        <ele>213.3</ele>
        <time>2021-09-05T12:22:07Z</time>
      </trkpt>
      <trkpt lat="44.49708" lon="1.3948">
        <ele>213.5</ele>
        <time>2021-09-05T12:22:08Z</time>
      </trkpt>
      <trkpt lat="44.49708" lon="1.39482">
        <ele>213.5</ele>
        <time>2021-09-05T12:22:09Z</time>
      </trkpt>
      <trkpt lat="44.49708" lon="1.39486">
        <ele>213.6</ele>
        <time>2021-09-05T12:22:10Z</time>
      </trkpt>
      <trkpt lat="44.49709" lon="1.39489">
        <ele>213.7</ele>
        <time>2021-09-05T12:22:12Z</time>
      </trkpt>
      <trkpt lat="44.49709" lon="1.39494">
        <ele>213.8</ele>
        <time>2021-09-05T12:22:13Z</time>
      </trkpt>
      <trkpt lat="44.49709" lon="1.39495">
        <ele>213.8</ele>
        <time>2021-09-05T12:22:14Z</time>
      </trkpt>
      <trkpt lat="44.49709" lon="1.39498">
        <ele>213.9</ele>
        <time>2021-09-05T12:22:15Z</time>
      </trkpt>
      <trkpt lat="44.49709" lon="1.39501">
        <ele>214</ele>
        <time>2021-09-05T12:22:17Z</time>
      </trkpt>
      <trkpt lat="44.4971" lon="1.39504">
        <ele>214.1</ele>
        <time>2021-09-05T12:22:18Z</time>
      </trkpt>
      <trkpt lat="44.4971" lon="1.39506">
        <ele>214.2</ele>
        <time>2021-09-05T12:22:19Z</time>
      </trkpt>
      <trkpt lat="44.49709" lon="1.3951">
        <ele>214.3</ele>
        <time>2021-09-05T12:22:20Z</time>
      </trkpt>
      <trkpt lat="44.49709" lon="1.39512">
        <ele>214.4</ele>
        <time>2021-09-05T12:22:21Z</time>
      </trkpt>
      <trkpt lat="44.49709" lon="1.39517">
        <ele>214.6</ele>
        <time>2021-09-05T12:22:23Z</time>
      </trkpt>
      <trkpt lat="44.49709" lon="1.39519">
        <ele>214.7</ele>
        <time>2021-09-05T12:22:24Z</time>
      </trkpt>
      <trkpt lat="44.49709" lon="1.39524">
        <ele>214.8</ele>
        <time>2021-09-05T12:22:26Z</time>
      </trkpt>
      <trkpt lat="44.49708" lon="1.39525">
        <ele>214.9</ele>
        <time>2021-09-05T12:22:27Z</time>
      </trkpt>
      <trkpt lat="44.49708" lon="1.3953">
        <ele>215.1</ele>
        <time>2021-09-05T12:22:28Z</time>
      </trkpt>
      <trkpt lat="44.49708" lon="1.39532">
        <ele>215.2</ele>
        <time>2021-09-05T12:22:29Z</time>
      </trkpt>
      <trkpt lat="44.49708" lon="1.39535">
        <ele>215.3</ele>
        <time>2021-09-05T12:22:30Z</time>
      </trkpt>
      <trkpt lat="44.49707" lon="1.39538">
        <ele>215.5</ele>
        <time>2021-09-05T12:22:32Z</time>
      </trkpt>
      <trkpt lat="44.49706" lon="1.39541">
        <ele>215.6</ele>
        <time>2021-09-05T12:22:33Z</time>
      </trkpt>
      <trkpt lat="44.49705" lon="1.39544">
        <ele>215.8</ele>
        <time>2021-09-05T12:22:35Z</time>
      </trkpt>
      <trkpt lat="44.49706" lon="1.39546">
        <ele>215.9</ele>
        <time>2021-09-05T12:22:36Z</time>
      </trkpt>
      <trkpt lat="44.49706" lon="1.39548">
        <ele>216</ele>
        <time>2021-09-05T12:22:38Z</time>
      </trkpt>
      <trkpt lat="44.49704" lon="1.39551">
        <ele>216.2</ele>
        <time>2021-09-05T12:22:39Z</time>
      </trkpt>
      <trkpt lat="44.49704" lon="1.39552">
        <ele>216.3</ele>
        <time>2021-09-05T12:22:40Z</time>
      </trkpt>
      <trkpt lat="44.49703" lon="1.39554">
        <ele>216.4</ele>
        <time>2021-09-05T12:22:42Z</time>
      </trkpt>
      <trkpt lat="44.49702" lon="1.39556">
        <ele>216.6</ele>
        <time>2021-09-05T12:22:44Z</time>
      </trkpt>
      <trkpt lat="44.49701" lon="1.39557">
        <ele>216.7</ele>
        <time>2021-09-05T12:22:45Z</time>
      </trkpt>
      <trkpt lat="44.497" lon="1.39559">
        <ele>216.9</ele>
        <time>2021-09-05T12:22:47Z</time>
      </trkpt>
      <trkpt lat="44.49698" lon="1.39561">
        <ele>217.1</ele>
        <time>2021-09-05T12:22:49Z</time>
      </trkpt>
      <trkpt lat="44.49698" lon="1.39563">
        <ele>217.2</ele>
        <time>2021-09-05T12:22:50Z</time>
      </trkpt>
      <trkpt lat="44.49698" lon="1.39564">
        <ele>217.4</ele>
        <time>2021-09-05T12:22:51Z</time>
      </trkpt>
      <trkpt lat="44.49696" lon="1.39568">
        <ele>217.7</ele>
        <time>2021-09-05T12:22:53Z</time>
      </trkpt>
      <trkpt lat="44.49696" lon="1.39569">
        <ele>217.8</ele>
        <time>2021-09-05T12:22:54Z</time>
      </trkpt>
      <trkpt lat="44.49695" lon="1.39573">
        <ele>218.1</ele>
        <time>2021-09-05T12:22:56Z</time>
      </trkpt>
      <trkpt lat="44.49694" lon="1.39574">
        <ele>218.2</ele>
        <time>2021-09-05T12:22:57Z</time>
      </trkpt>
      <trkpt lat="44.49693" lon="1.39575">
        <ele>218.3</ele>
        <time>2021-09-05T12:22:58Z</time>
      </trkpt>
      <trkpt lat="44.49692" lon="1.39577">
        <ele>218.5</ele>
        <time>2021-09-05T12:22:59Z</time>
      </trkpt>
      <trkpt lat="44.49691" lon="1.39579">
        <ele>218.6</ele>
        <time>2021-09-05T12:23:01Z</time>
      </trkpt>
      <trkpt lat="44.49691" lon="1.3958">
        <ele>218.7</ele>
        <time>2021-09-05T12:23:02Z</time>
      </trkpt>
      <trkpt lat="44.49689" lon="1.39581">
        <ele>218.9</ele>
        <time>2021-09-05T12:23:03Z</time>
      </trkpt>
      <trkpt lat="44.49688" lon="1.39582">
        <ele>219</ele>
        <time>2021-09-05T12:23:04Z</time>
      </trkpt>
      <trkpt lat="44.49687" lon="1.39584">
        <ele>219.1</ele>
        <time>2021-09-05T12:23:05Z</time>
      </trkpt>
      <trkpt lat="44.49686" lon="1.39587">
        <ele>219.2</ele>
        <time>2021-09-05T12:23:06Z</time>
      </trkpt>
      <trkpt lat="44.49684" lon="1.39591">
        <ele>219.5</ele>
        <time>2021-09-05T12:23:09Z</time>
      </trkpt>
      <trkpt lat="44.49682" lon="1.39592">
        <ele>219.5</ele>
        <time>2021-09-05T12:23:10Z</time>
      </trkpt>
      <trkpt lat="44.49681" lon="1.39593">
        <ele>219.4</ele>
        <time>2021-09-05T12:23:11Z</time>
      </trkpt>
      <trkpt lat="44.49679" lon="1.39595">
        <ele>219.4</ele>
        <time>2021-09-05T12:23:12Z</time>
      </trkpt>
      <trkpt lat="44.49677" lon="1.39597">
        <ele>219.3</ele>
        <time>2021-09-05T12:23:14Z</time>
      </trkpt>
      <trkpt lat="44.49675" lon="1.396">
        <ele>219.1</ele>
        <time>2021-09-05T12:23:15Z</time>
      </trkpt>
      <trkpt lat="44.49674" lon="1.39601">
        <ele>219.1</ele>
        <time>2021-09-05T12:23:16Z</time>
      </trkpt>
      <trkpt lat="44.49672" lon="1.39605">
        <ele>218.9</ele>
        <time>2021-09-05T12:23:18Z</time>
      </trkpt>
      <trkpt lat="44.49671" lon="1.39606">
        <ele>218.8</ele>
        <time>2021-09-05T12:23:19Z</time>
      </trkpt>
      <trkpt lat="44.49669" lon="1.39609">
        <ele>218.7</ele>
        <time>2021-09-05T12:23:20Z</time>
      </trkpt>
      <trkpt lat="44.49667" lon="1.39613">
        <ele>218.5</ele>
        <time>2021-09-05T12:23:22Z</time>
      </trkpt>
      <trkpt lat="44.49664" lon="1.39618">
        <ele>218.2</ele>
        <time>2021-09-05T12:23:23Z</time>
      </trkpt>
      <trkpt lat="44.49662" lon="1.3962">
        <ele>218</ele>
        <time>2021-09-05T12:23:24Z</time>
      </trkpt>
      <trkpt lat="44.4966" lon="1.39623">
        <ele>217.8</ele>
        <time>2021-09-05T12:23:25Z</time>
      </trkpt>
      <trkpt lat="44.49657" lon="1.39628">
        <ele>217.4</ele>
        <time>2021-09-05T12:23:27Z</time>
      </trkpt>
      <trkpt lat="44.49654" lon="1.39635">
        <ele>217</ele>
        <time>2021-09-05T12:23:29Z</time>
      </trkpt>
      <trkpt lat="44.49649" lon="1.39645">
        <ele>216.2</ele>
        <time>2021-09-05T12:23:31Z</time>
      </trkpt>
      <trkpt lat="44.49644" lon="1.39653">
        <ele>215.5</ele>
        <time>2021-09-05T12:23:32Z</time>
      </trkpt>
      <trkpt lat="44.49639" lon="1.39662">
        <ele>214.8</ele>
        <time>2021-09-05T12:23:33Z</time>
      </trkpt>
      <trkpt lat="44.49632" lon="1.39676">
        <ele>213.6</ele>
        <time>2021-09-05T12:23:35Z</time>
      </trkpt>
      <trkpt lat="44.49623" lon="1.39694">
        <ele>212.1</ele>
        <time>2021-09-05T12:23:36Z</time>
      </trkpt>
      <trkpt lat="44.49618" lon="1.39702">
        <ele>211.5</ele>
        <time>2021-09-05T12:23:38Z</time>
      </trkpt>
      <trkpt lat="44.49614" lon="1.39711">
        <ele>210.7</ele>
        <time>2021-09-05T12:23:39Z</time>
      </trkpt>
      <trkpt lat="44.49605" lon="1.39732">
        <ele>209.1</ele>
        <time>2021-09-05T12:23:41Z</time>
      </trkpt>
      <trkpt lat="44.49595" lon="1.39754">
        <ele>207.3</ele>
        <time>2021-09-05T12:23:43Z</time>
      </trkpt>
      <trkpt lat="44.49589" lon="1.39766">
        <ele>206.5</ele>
        <time>2021-09-05T12:23:44Z</time>
      </trkpt>
      <trkpt lat="44.49579" lon="1.39789">
        <ele>205</ele>
        <time>2021-09-05T12:23:46Z</time>
      </trkpt>
      <trkpt lat="44.49574" lon="1.398">
        <ele>204.4</ele>
        <time>2021-09-05T12:23:47Z</time>
      </trkpt>
      <trkpt lat="44.49562" lon="1.39822">
        <ele>203.7</ele>
        <time>2021-09-05T12:23:49Z</time>
      </trkpt>
      <trkpt lat="44.49559" lon="1.39832">
        <ele>203.6</ele>
        <time>2021-09-05T12:23:50Z</time>
      </trkpt>
      <trkpt lat="44.49556" lon="1.39854">
        <ele>203.5</ele>
        <time>2021-09-05T12:23:52Z</time>
      </trkpt>
      <trkpt lat="44.49554" lon="1.39864">
        <ele>203.6</ele>
        <time>2021-09-05T12:23:53Z</time>
      </trkpt>
      <trkpt lat="44.49553" lon="1.39872">
        <ele>204.2</ele>
        <time>2021-09-05T12:23:54Z</time>
      </trkpt>
      <trkpt lat="44.49551" lon="1.39882">
        <ele>204.8</ele>
        <time>2021-09-05T12:23:56Z</time>
      </trkpt>
      <trkpt lat="44.49549" lon="1.39891">
        <ele>205.2</ele>
        <time>2021-09-05T12:23:58Z</time>
      </trkpt>
      <trkpt lat="44.49547" lon="1.39901">
        <ele>205.7</ele>
        <time>2021-09-05T12:24:00Z</time>
      </trkpt>
      <trkpt lat="44.49547" lon="1.39908">
        <ele>205.9</ele>
        <time>2021-09-05T12:24:01Z</time>
      </trkpt>
      <trkpt lat="44.49547" lon="1.39913">
        <ele>206.2</ele>
        <time>2021-09-05T12:24:02Z</time>
      </trkpt>
      <trkpt lat="44.49546" lon="1.3992">
        <ele>206.4</ele>
        <time>2021-09-05T12:24:04Z</time>
      </trkpt>
      <trkpt lat="44.49544" lon="1.39927">
        <ele>206.6</ele>
        <time>2021-09-05T12:24:05Z</time>
      </trkpt>
      <trkpt lat="44.49544" lon="1.39933">
        <ele>206.7</ele>
        <time>2021-09-05T12:24:06Z</time>
      </trkpt>
      <trkpt lat="44.49543" lon="1.39938">
        <ele>206.8</ele>
        <time>2021-09-05T12:24:07Z</time>
      </trkpt>
      <trkpt lat="44.49541" lon="1.39944">
        <ele>206.8</ele>
        <time>2021-09-05T12:24:09Z</time>
      </trkpt>
      <trkpt lat="44.49539" lon="1.39948">
        <ele>206.9</ele>
        <time>2021-09-05T12:24:10Z</time>
      </trkpt>
      <trkpt lat="44.49537" lon="1.39952">
        <ele>207</ele>
        <time>2021-09-05T12:24:11Z</time>
      </trkpt>
      <trkpt lat="44.49535" lon="1.39956">
        <ele>207</ele>
        <time>2021-09-05T12:24:12Z</time>
      </trkpt>
      <trkpt lat="44.49534" lon="1.39963">
        <ele>207.1</ele>
        <time>2021-09-05T12:24:14Z</time>
      </trkpt>
      <trkpt lat="44.49534" lon="1.39965">
        <ele>207.2</ele>
        <time>2021-09-05T12:24:15Z</time>
      </trkpt>
      <trkpt lat="44.49534" lon="1.39967">
        <ele>207.2</ele>
        <time>2021-09-05T12:24:16Z</time>
      </trkpt>
      <trkpt lat="44.49533" lon="1.39973">
        <ele>207.2</ele>
        <time>2021-09-05T12:24:17Z</time>
      </trkpt>
      <trkpt lat="44.49532" lon="1.39975">
        <ele>207.3</ele>
        <time>2021-09-05T12:24:18Z</time>
      </trkpt>
      <trkpt lat="44.49531" lon="1.39979">
        <ele>207.3</ele>
        <time>2021-09-05T12:24:19Z</time>
      </trkpt>
      <trkpt lat="44.49529" lon="1.39986">
        <ele>207.4</ele>
        <time>2021-09-05T12:24:21Z</time>
      </trkpt>
      <trkpt lat="44.49526" lon="1.39991">
        <ele>207.4</ele>
        <time>2021-09-05T12:24:23Z</time>
      </trkpt>
      <trkpt lat="44.49525" lon="1.39992">
        <ele>207.5</ele>
        <time>2021-09-05T12:24:24Z</time>
      </trkpt>
      <trkpt lat="44.49524" lon="1.39994">
        <ele>207.5</ele>
        <time>2021-09-05T12:24:25Z</time>
      </trkpt>
      <trkpt lat="44.49521" lon="1.39998">
        <ele>207.5</ele>
        <time>2021-09-05T12:24:27Z</time>
      </trkpt>
      <trkpt lat="44.49519" lon="1.40001">
        <ele>207.5</ele>
        <time>2021-09-05T12:24:28Z</time>
      </trkpt>
      <trkpt lat="44.49517" lon="1.40004">
        <ele>207.6</ele>
        <time>2021-09-05T12:24:29Z</time>
      </trkpt>
      <trkpt lat="44.49513" lon="1.40008">
        <ele>207.6</ele>
        <time>2021-09-05T12:24:30Z</time>
      </trkpt>
      <trkpt lat="44.49511" lon="1.4001">
        <ele>207.6</ele>
        <time>2021-09-05T12:24:32Z</time>
      </trkpt>
      <trkpt lat="44.49507" lon="1.40015">
        <ele>207.6</ele>
        <time>2021-09-05T12:24:33Z</time>
      </trkpt>
      <trkpt lat="44.49507" lon="1.40019">
        <ele>207.6</ele>
        <time>2021-09-05T12:24:35Z</time>
      </trkpt>
      <trkpt lat="44.49507" lon="1.40023">
        <ele>207.7</ele>
        <time>2021-09-05T12:24:36Z</time>
      </trkpt>
      <trkpt lat="44.49507" lon="1.40027">
        <ele>207.7</ele>
        <time>2021-09-05T12:24:37Z</time>
      </trkpt>
      <trkpt lat="44.49507" lon="1.40032">
        <ele>207.7</ele>
        <time>2021-09-05T12:24:38Z</time>
      </trkpt>
      <trkpt lat="44.49507" lon="1.40038">
        <ele>207.8</ele>
        <time>2021-09-05T12:24:39Z</time>
      </trkpt>
      <trkpt lat="44.49506" lon="1.4004">
        <ele>207.8</ele>
        <time>2021-09-05T12:24:40Z</time>
      </trkpt>
      <trkpt lat="44.49505" lon="1.40046">
        <ele>207.9</ele>
        <time>2021-09-05T12:24:42Z</time>
      </trkpt>
      <trkpt lat="44.49505" lon="1.40049">
        <ele>208</ele>
        <time>2021-09-05T12:24:43Z</time>
      </trkpt>
      <trkpt lat="44.49503" lon="1.40052">
        <ele>208</ele>
        <time>2021-09-05T12:24:45Z</time>
      </trkpt>
      <trkpt lat="44.49501" lon="1.40056">
        <ele>208.1</ele>
        <time>2021-09-05T12:24:46Z</time>
      </trkpt>
      <trkpt lat="44.49499" lon="1.4006">
        <ele>208.2</ele>
        <time>2021-09-05T12:24:47Z</time>
      </trkpt>
      <trkpt lat="44.49498" lon="1.40063">
        <ele>208.3</ele>
        <time>2021-09-05T12:24:49Z</time>
      </trkpt>
      <trkpt lat="44.49497" lon="1.40064">
        <ele>208.3</ele>
        <time>2021-09-05T12:24:50Z</time>
      </trkpt>
      <trkpt lat="44.49494" lon="1.40068">
        <ele>208.4</ele>
        <time>2021-09-05T12:24:51Z</time>
      </trkpt>
      <trkpt lat="44.49493" lon="1.40069">
        <ele>208.5</ele>
        <time>2021-09-05T12:24:52Z</time>
      </trkpt>
      <trkpt lat="44.49491" lon="1.40072">
        <ele>208.6</ele>
        <time>2021-09-05T12:24:53Z</time>
      </trkpt>
      <trkpt lat="44.49489" lon="1.40076">
        <ele>208.7</ele>
        <time>2021-09-05T12:24:54Z</time>
      </trkpt>
      <trkpt lat="44.49487" lon="1.40081">
        <ele>208.9</ele>
        <time>2021-09-05T12:24:56Z</time>
      </trkpt>
      <trkpt lat="44.49486" lon="1.40083">
        <ele>208.9</ele>
        <time>2021-09-05T12:24:57Z</time>
      </trkpt>
      <trkpt lat="44.49487" lon="1.4009">
        <ele>209.2</ele>
        <time>2021-09-05T12:24:59Z</time>
      </trkpt>
      <trkpt lat="44.49488" lon="1.40095">
        <ele>209.3</ele>
        <time>2021-09-05T12:25:00Z</time>
      </trkpt>
      <trkpt lat="44.49489" lon="1.40096">
        <ele>209.4</ele>
        <time>2021-09-05T12:25:01Z</time>
      </trkpt>
      <trkpt lat="44.49489" lon="1.40101">
        <ele>209.6</ele>
        <time>2021-09-05T12:25:02Z</time>
      </trkpt>
      <trkpt lat="44.49489" lon="1.40106">
        <ele>209.8</ele>
        <time>2021-09-05T12:25:04Z</time>
      </trkpt>
      <trkpt lat="44.49489" lon="1.40108">
        <ele>209.8</ele>
        <time>2021-09-05T12:25:05Z</time>
      </trkpt>
      <trkpt lat="44.49488" lon="1.40113">
        <ele>210</ele>
        <time>2021-09-05T12:25:07Z</time>
      </trkpt>
      <trkpt lat="44.49487" lon="1.40115">
        <ele>210.1</ele>
        <time>2021-09-05T12:25:08Z</time>
      </trkpt>
      <trkpt lat="44.49486" lon="1.40118">
        <ele>210.2</ele>
        <time>2021-09-05T12:25:09Z</time>
      </trkpt>
      <trkpt lat="44.49486" lon="1.40123">
        <ele>210.4</ele>
        <time>2021-09-05T12:25:11Z</time>
      </trkpt>
      <trkpt lat="44.49485" lon="1.40129">
        <ele>210.6</ele>
        <time>2021-09-05T12:25:12Z</time>
      </trkpt>
      <trkpt lat="44.49483" lon="1.40134">
        <ele>210.8</ele>
        <time>2021-09-05T12:25:14Z</time>
      </trkpt>
      <trkpt lat="44.49481" lon="1.40138">
        <ele>211</ele>
        <time>2021-09-05T12:25:15Z</time>
      </trkpt>
      <trkpt lat="44.4948" lon="1.4014">
        <ele>211.1</ele>
        <time>2021-09-05T12:25:17Z</time>
      </trkpt>
      <trkpt lat="44.49478" lon="1.40141">
        <ele>211.1</ele>
        <time>2021-09-05T12:25:18Z</time>
      </trkpt>
      <trkpt lat="44.49477" lon="1.40144">
        <ele>211.2</ele>
        <time>2021-09-05T12:25:19Z</time>
      </trkpt>
      <trkpt lat="44.49475" lon="1.40148">
        <ele>211.4</ele>
        <time>2021-09-05T12:25:21Z</time>
      </trkpt>
      <trkpt lat="44.49471" lon="1.40153">
        <ele>211.6</ele>
        <time>2021-09-05T12:25:22Z</time>
      </trkpt>
      <trkpt lat="44.49469" lon="1.40157">
        <ele>211.7</ele>
        <time>2021-09-05T12:25:23Z</time>
      </trkpt>
      <trkpt lat="44.49469" lon="1.40159">
        <ele>211.8</ele>
        <time>2021-09-05T12:25:24Z</time>
      </trkpt>
      <trkpt lat="44.49468" lon="1.40164">
        <ele>211.9</ele>
        <time>2021-09-05T12:25:26Z</time>
      </trkpt>
      <trkpt lat="44.49468" lon="1.40168">
        <ele>212</ele>
        <time>2021-09-05T12:25:27Z</time>
      </trkpt>
      <trkpt lat="44.49468" lon="1.40173">
        <ele>212.2</ele>
        <time>2021-09-05T12:25:28Z</time>
      </trkpt>
      <trkpt lat="44.49466" lon="1.40178">
        <ele>212.3</ele>
        <time>2021-09-05T12:25:30Z</time>
      </trkpt>
      <trkpt lat="44.49465" lon="1.4018">
        <ele>212.4</ele>
        <time>2021-09-05T12:25:31Z</time>
      </trkpt>
      <trkpt lat="44.49461" lon="1.40184">
        <ele>212.6</ele>
        <time>2021-09-05T12:25:32Z</time>
      </trkpt>
      <trkpt lat="44.49459" lon="1.40186">
        <ele>212.7</ele>
        <time>2021-09-05T12:25:33Z</time>
      </trkpt>
      <trkpt lat="44.49456" lon="1.40189">
        <ele>212.9</ele>
        <time>2021-09-05T12:25:35Z</time>
      </trkpt>
      <trkpt lat="44.49454" lon="1.40192">
        <ele>213.1</ele>
        <time>2021-09-05T12:25:36Z</time>
      </trkpt>
      <trkpt lat="44.49452" lon="1.40196">
        <ele>213.3</ele>
        <time>2021-09-05T12:25:37Z</time>
      </trkpt>
      <trkpt lat="44.49449" lon="1.40203">
        <ele>213.6</ele>
        <time>2021-09-05T12:25:39Z</time>
      </trkpt>
      <trkpt lat="44.49448" lon="1.40205">
        <ele>213.7</ele>
        <time>2021-09-05T12:25:40Z</time>
      </trkpt>
      <trkpt lat="44.49447" lon="1.40207">
        <ele>213.9</ele>
        <time>2021-09-05T12:25:41Z</time>
      </trkpt>
      <trkpt lat="44.49445" lon="1.40211">
        <ele>214.1</ele>
        <time>2021-09-05T12:25:42Z</time>
      </trkpt>
      <trkpt lat="44.49444" lon="1.40214">
        <ele>214.3</ele>
        <time>2021-09-05T12:25:43Z</time>
      </trkpt>
      <trkpt lat="44.49444" lon="1.40217">
        <ele>214.5</ele>
        <time>2021-09-05T12:25:45Z</time>
      </trkpt>
      <trkpt lat="44.49444" lon="1.40222">
        <ele>214.9</ele>
        <time>2021-09-05T12:25:46Z</time>
      </trkpt>
      <trkpt lat="44.49444" lon="1.40228">
        <ele>215.4</ele>
        <time>2021-09-05T12:25:47Z</time>
      </trkpt>
      <trkpt lat="44.49445" lon="1.4023">
        <ele>215.3</ele>
        <time>2021-09-05T12:25:48Z</time>
      </trkpt>
      <trkpt lat="44.49446" lon="1.40233">
        <ele>216.8</ele>
        <time>2021-09-05T12:25:49Z</time>
      </trkpt>
      <trkpt lat="44.49446" lon="1.40235">
        <ele>216.9</ele>
        <time>2021-09-05T12:25:51Z</time>
      </trkpt>
      <trkpt lat="44.49445" lon="1.4024">
        <ele>215.5</ele>
        <time>2021-09-05T12:25:53Z</time>
      </trkpt>
      <trkpt lat="44.49444" lon="1.40241">
        <ele>215.5</ele>
        <time>2021-09-05T12:25:55Z</time>
      </trkpt>
      <trkpt lat="44.49443" lon="1.40242">
        <ele>215.4</ele>
        <time>2021-09-05T12:25:56Z</time>
      </trkpt>
      <trkpt lat="44.49443" lon="1.40244">
        <ele>215.4</ele>
        <time>2021-09-05T12:25:58Z</time>
      </trkpt>
      <trkpt lat="44.49442" lon="1.40245">
        <ele>214</ele>
        <time>2021-09-05T12:26:00Z</time>
      </trkpt>
      <trkpt lat="44.49441" lon="1.40247">
        <ele>214</ele>
        <time>2021-09-05T12:26:01Z</time>
      </trkpt>
      <trkpt lat="44.4944" lon="1.40248">
        <ele>214</ele>
        <time>2021-09-05T12:26:03Z</time>
      </trkpt>
      <trkpt lat="44.4944" lon="1.4025">
        <ele>213.9</ele>
        <time>2021-09-05T12:26:17Z</time>
      </trkpt>
      <trkpt lat="44.49439" lon="1.40251">
        <ele>212.6</ele>
        <time>2021-09-05T12:26:18Z</time>
      </trkpt>
      <trkpt lat="44.49436" lon="1.40257">
        <ele>211.5</ele>
        <time>2021-09-05T12:26:20Z</time>
      </trkpt>
      <trkpt lat="44.49434" lon="1.40268">
        <ele>211.5</ele>
        <time>2021-09-05T12:26:21Z</time>
      </trkpt>
      <trkpt lat="44.49434" lon="1.40273">
        <ele>211.5</ele>
        <time>2021-09-05T12:26:22Z</time>
      </trkpt>
      <trkpt lat="44.49431" lon="1.40276">
        <ele>210.4</ele>
        <time>2021-09-05T12:26:23Z</time>
      </trkpt>
      <trkpt lat="44.49431" lon="1.40278">
        <ele>210.2</ele>
        <time>2021-09-05T12:26:24Z</time>
      </trkpt>
      <trkpt lat="44.4943" lon="1.40282">
        <ele>209.1</ele>
        <time>2021-09-05T12:26:26Z</time>
      </trkpt>
      <trkpt lat="44.49426" lon="1.40287">
        <ele>208</ele>
        <time>2021-09-05T12:26:27Z</time>
      </trkpt>
      <trkpt lat="44.4942" lon="1.40291">
        <ele>205.5</ele>
        <time>2021-09-05T12:26:28Z</time>
      </trkpt>
      <trkpt lat="44.4942" lon="1.40295">
        <ele>205.4</ele>
        <time>2021-09-05T12:26:30Z</time>
      </trkpt>
      <trkpt lat="44.4942" lon="1.40301">
        <ele>205.2</ele>
        <time>2021-09-05T12:26:31Z</time>
      </trkpt>
      <trkpt lat="44.49418" lon="1.40307">
        <ele>205</ele>
        <time>2021-09-05T12:26:32Z</time>
      </trkpt>
      <trkpt lat="44.49409" lon="1.40316">
        <ele>200.5</ele>
        <time>2021-09-05T12:26:34Z</time>
      </trkpt>
      <trkpt lat="44.49404" lon="1.40322">
        <ele>199.5</ele>
        <time>2021-09-05T12:26:36Z</time>
      </trkpt>
      <trkpt lat="44.494" lon="1.40326">
        <ele>198.4</ele>
        <time>2021-09-05T12:26:37Z</time>
      </trkpt>
      <trkpt lat="44.49396" lon="1.40334">
        <ele>196.2</ele>
        <time>2021-09-05T12:26:39Z</time>
      </trkpt>
      <trkpt lat="44.49395" lon="1.40337">
        <ele>196.1</ele>
        <time>2021-09-05T12:26:40Z</time>
      </trkpt>
      <trkpt lat="44.49392" lon="1.40345">
        <ele>194.9</ele>
        <time>2021-09-05T12:26:41Z</time>
      </trkpt>
      <trkpt lat="44.49388" lon="1.40351">
        <ele>193.5</ele>
        <time>2021-09-05T12:26:42Z</time>
      </trkpt>
      <trkpt lat="44.49389" lon="1.4036">
        <ele>193.2</ele>
        <time>2021-09-05T12:26:44Z</time>
      </trkpt>
      <trkpt lat="44.49389" lon="1.40365">
        <ele>193</ele>
        <time>2021-09-05T12:26:45Z</time>
      </trkpt>
      <trkpt lat="44.49388" lon="1.40371">
        <ele>192.8</ele>
        <time>2021-09-05T12:26:47Z</time>
      </trkpt>
      <trkpt lat="44.49386" lon="1.40378">
        <ele>191.4</ele>
        <time>2021-09-05T12:26:48Z</time>
      </trkpt>
      <trkpt lat="44.49381" lon="1.40381">
        <ele>190.2</ele>
        <time>2021-09-05T12:26:49Z</time>
      </trkpt>
      <trkpt lat="44.49378" lon="1.40384">
        <ele>189.3</ele>
        <time>2021-09-05T12:26:50Z</time>
      </trkpt>
      <trkpt lat="44.49373" lon="1.40389">
        <ele>187</ele>
        <time>2021-09-05T12:26:52Z</time>
      </trkpt>
      <trkpt lat="44.49371" lon="1.40391">
        <ele>185.9</ele>
        <time>2021-09-05T12:26:53Z</time>
      </trkpt>
      <trkpt lat="44.49366" lon="1.40396">
        <ele>183.4</ele>
        <time>2021-09-05T12:26:55Z</time>
      </trkpt>
      <trkpt lat="44.49362" lon="1.40404">
        <ele>182</ele>
        <time>2021-09-05T12:26:57Z</time>
      </trkpt>
      <trkpt lat="44.49359" lon="1.40411">
        <ele>180.6</ele>
        <time>2021-09-05T12:26:58Z</time>
      </trkpt>
      <trkpt lat="44.49356" lon="1.40414">
        <ele>179.4</ele>
        <time>2021-09-05T12:26:59Z</time>
      </trkpt>
      <trkpt lat="44.49353" lon="1.40417">
        <ele>178.3</ele>
        <time>2021-09-05T12:27:01Z</time>
      </trkpt>
      <trkpt lat="44.49353" lon="1.40423">
        <ele>178.2</ele>
        <time>2021-09-05T12:27:02Z</time>
      </trkpt>
      <trkpt lat="44.49353" lon="1.40429">
        <ele>178</ele>
        <time>2021-09-05T12:27:04Z</time>
      </trkpt>
      <trkpt lat="44.4935" lon="1.40435">
        <ele>176.9</ele>
        <time>2021-09-05T12:27:05Z</time>
      </trkpt>
      <trkpt lat="44.49346" lon="1.40439">
        <ele>175.8</ele>
        <time>2021-09-05T12:27:07Z</time>
      </trkpt>
      <trkpt lat="44.49345" lon="1.40444">
        <ele>175.6</ele>
        <time>2021-09-05T12:27:08Z</time>
      </trkpt>
      <trkpt lat="44.49344" lon="1.40448">
        <ele>174.5</ele>
        <time>2021-09-05T12:27:09Z</time>
      </trkpt>
      <trkpt lat="44.49344" lon="1.40451">
        <ele>174.3</ele>
        <time>2021-09-05T12:27:11Z</time>
      </trkpt>
      <trkpt lat="44.49344" lon="1.40451">
        <ele>174.3</ele>
        <time>2021-09-05T12:27:12Z</time>
      </trkpt>
      <trkpt lat="44.49344" lon="1.40451">
        <ele>174.2</ele>
        <time>2021-09-05T12:27:14Z</time>
      </trkpt>
      <trkpt lat="44.49344" lon="1.40451">
        <ele>174.1</ele>
        <time>2021-09-05T12:27:15Z</time>
      </trkpt>
      <trkpt lat="44.49343" lon="1.40451">
        <ele>174.1</ele>
        <time>2021-09-05T12:27:16Z</time>
      </trkpt>
      <trkpt lat="44.49342" lon="1.40453">
        <ele>174</ele>
        <time>2021-09-05T12:27:18Z</time>
      </trkpt>
      <trkpt lat="44.49338" lon="1.40457">
        <ele>171.9</ele>
        <time>2021-09-05T12:27:19Z</time>
      </trkpt>
      <trkpt lat="44.49334" lon="1.40463">
        <ele>170.5</ele>
        <time>2021-09-05T12:27:20Z</time>
      </trkpt>
      <trkpt lat="44.49332" lon="1.4047">
        <ele>169.2</ele>
        <time>2021-09-05T12:27:21Z</time>
      </trkpt>
      <trkpt lat="44.4933" lon="1.40474">
        <ele>168.9</ele>
        <time>2021-09-05T12:27:23Z</time>
      </trkpt>
      <trkpt lat="44.49326" lon="1.40475">
        <ele>166.7</ele>
        <time>2021-09-05T12:27:25Z</time>
      </trkpt>
      <trkpt lat="44.49326" lon="1.4048">
        <ele>166.4</ele>
        <time>2021-09-05T12:27:26Z</time>
      </trkpt>
      <trkpt lat="44.49323" lon="1.40485">
        <ele>166.2</ele>
        <time>2021-09-05T12:27:27Z</time>
      </trkpt>
      <trkpt lat="44.49323" lon="1.40487">
        <ele>165.4</ele>
        <time>2021-09-05T12:27:28Z</time>
      </trkpt>
      <trkpt lat="44.49324" lon="1.40491">
        <ele>165.8</ele>
        <time>2021-09-05T12:27:29Z</time>
      </trkpt>
      <trkpt lat="44.49325" lon="1.40494">
        <ele>165.6</ele>
        <time>2021-09-05T12:27:30Z</time>
      </trkpt>
      <trkpt lat="44.49326" lon="1.40497">
        <ele>166.1</ele>
        <time>2021-09-05T12:27:32Z</time>
      </trkpt>
      <trkpt lat="44.49328" lon="1.405">
        <ele>166</ele>
        <time>2021-09-05T12:27:33Z</time>
      </trkpt>
      <trkpt lat="44.4933" lon="1.40503">
        <ele>166.6</ele>
        <time>2021-09-05T12:27:34Z</time>
      </trkpt>
      <trkpt lat="44.49333" lon="1.40506">
        <ele>167.1</ele>
        <time>2021-09-05T12:27:35Z</time>
      </trkpt>
      <trkpt lat="44.49335" lon="1.40511">
        <ele>166.8</ele>
        <time>2021-09-05T12:27:37Z</time>
      </trkpt>
      <trkpt lat="44.49337" lon="1.40515">
        <ele>167.1</ele>
        <time>2021-09-05T12:27:38Z</time>
      </trkpt>
      <trkpt lat="44.49339" lon="1.4052">
        <ele>167.4</ele>
        <time>2021-09-05T12:27:40Z</time>
      </trkpt>
      <trkpt lat="44.49341" lon="1.40523">
        <ele>166.9</ele>
        <time>2021-09-05T12:27:41Z</time>
      </trkpt>
      <trkpt lat="44.49344" lon="1.40524">
        <ele>167.5</ele>
        <time>2021-09-05T12:27:42Z</time>
      </trkpt>
      <trkpt lat="44.49347" lon="1.4053">
        <ele>167.7</ele>
        <time>2021-09-05T12:27:44Z</time>
      </trkpt>
      <trkpt lat="44.49348" lon="1.40532">
        <ele>167.8</ele>
        <time>2021-09-05T12:27:45Z</time>
      </trkpt>
      <trkpt lat="44.49349" lon="1.40534">
        <ele>167.8</ele>
        <time>2021-09-05T12:27:46Z</time>
      </trkpt>
      <trkpt lat="44.49349" lon="1.40538">
        <ele>167.3</ele>
        <time>2021-09-05T12:27:48Z</time>
      </trkpt>
      <trkpt lat="44.4935" lon="1.40543">
        <ele>166.9</ele>
        <time>2021-09-05T12:27:50Z</time>
      </trkpt>
      <trkpt lat="44.49351" lon="1.40551">
        <ele>166.6</ele>
        <time>2021-09-05T12:27:51Z</time>
      </trkpt>
      <trkpt lat="44.49351" lon="1.40553">
        <ele>166</ele>
        <time>2021-09-05T12:27:52Z</time>
      </trkpt>
      <trkpt lat="44.49351" lon="1.40557">
        <ele>165.4</ele>
        <time>2021-09-05T12:27:54Z</time>
      </trkpt>
      <trkpt lat="44.49351" lon="1.40562">
        <ele>164.8</ele>
        <time>2021-09-05T12:27:55Z</time>
      </trkpt>
      <trkpt lat="44.4935" lon="1.40568">
        <ele>163.8</ele>
        <time>2021-09-05T12:27:56Z</time>
      </trkpt>
      <trkpt lat="44.4935" lon="1.40574">
        <ele>162.8</ele>
        <time>2021-09-05T12:27:58Z</time>
      </trkpt>
      <trkpt lat="44.49351" lon="1.40579">
        <ele>162.6</ele>
        <time>2021-09-05T12:27:59Z</time>
      </trkpt>
      <trkpt lat="44.49354" lon="1.40578">
        <ele>162.5</ele>
        <time>2021-09-05T12:28:00Z</time>
      </trkpt>
      <trkpt lat="44.49354" lon="1.40576">
        <ele>163.4</ele>
        <time>2021-09-05T12:28:02Z</time>
      </trkpt>
      <trkpt lat="44.49355" lon="1.40574">
        <ele>163.3</ele>
        <time>2021-09-05T12:28:03Z</time>
      </trkpt>
      <trkpt lat="44.49356" lon="1.40571">
        <ele>163.8</ele>
        <time>2021-09-05T12:28:04Z</time>
      </trkpt>
      <trkpt lat="44.49357" lon="1.40569">
        <ele>164.7</ele>
        <time>2021-09-05T12:28:07Z</time>
      </trkpt>
      <trkpt lat="44.49358" lon="1.40567">
        <ele>164.7</ele>
        <time>2021-09-05T12:28:08Z</time>
      </trkpt>
      <trkpt lat="44.49359" lon="1.40564">
        <ele>165.2</ele>
        <time>2021-09-05T12:28:10Z</time>
      </trkpt>
      <trkpt lat="44.4936" lon="1.40562">
        <ele>165.5</ele>
        <time>2021-09-05T12:28:11Z</time>
      </trkpt>
      <trkpt lat="44.49361" lon="1.40559">
        <ele>166.1</ele>
        <time>2021-09-05T12:28:12Z</time>
      </trkpt>
      <trkpt lat="44.49362" lon="1.40557">
        <ele>166</ele>
        <time>2021-09-05T12:33:22Z</time>
      </trkpt>
      <trkpt lat="44.49363" lon="1.40555">
        <ele>167</ele>
        <time>2021-09-05T12:33:23Z</time>
      </trkpt>
      <trkpt lat="44.49367" lon="1.40556">
        <ele>167.3</ele>
        <time>2021-09-05T12:33:25Z</time>
      </trkpt>
      <trkpt lat="44.4937" lon="1.40556">
        <ele>167.6</ele>
        <time>2021-09-05T12:33:26Z</time>
      </trkpt>
      <trkpt lat="44.49374" lon="1.40555">
        <ele>167.8</ele>
        <time>2021-09-05T12:33:27Z</time>
      </trkpt>
      <trkpt lat="44.49378" lon="1.40554">
        <ele>168</ele>
        <time>2021-09-05T12:33:29Z</time>
      </trkpt>
      <trkpt lat="44.49381" lon="1.40555">
        <ele>168.2</ele>
        <time>2021-09-05T12:33:30Z</time>
      </trkpt>
      <trkpt lat="44.49382" lon="1.40554">
        <ele>168.4</ele>
        <time>2021-09-05T12:33:31Z</time>
      </trkpt>
      <trkpt lat="44.49384" lon="1.40553">
        <ele>168.6</ele>
        <time>2021-09-05T12:33:33Z</time>
      </trkpt>
      <trkpt lat="44.49387" lon="1.40553">
        <ele>168.6</ele>
        <time>2021-09-05T12:33:34Z</time>
      </trkpt>
      <trkpt lat="44.4939" lon="1.40553">
        <ele>168.8</ele>
        <time>2021-09-05T12:33:36Z</time>
      </trkpt>
      <trkpt lat="44.49393" lon="1.40551">
        <ele>169.7</ele>
        <time>2021-09-05T12:33:37Z</time>
      </trkpt>
      <trkpt lat="44.49395" lon="1.40548">
        <ele>169.8</ele>
        <time>2021-09-05T12:33:38Z</time>
      </trkpt>
      <trkpt lat="44.49396" lon="1.40547">
        <ele>170.5</ele>
        <time>2021-09-05T12:33:39Z</time>
      </trkpt>
      <trkpt lat="44.49398" lon="1.40543">
        <ele>171.3</ele>
        <time>2021-09-05T12:33:41Z</time>
      </trkpt>
      <trkpt lat="44.49399" lon="1.40541">
        <ele>171.2</ele>
        <time>2021-09-05T12:33:42Z</time>
      </trkpt>
      <trkpt lat="44.49402" lon="1.40536">
        <ele>171.9</ele>
        <time>2021-09-05T12:33:43Z</time>
      </trkpt>
      <trkpt lat="44.49403" lon="1.40533">
        <ele>172.6</ele>
        <time>2021-09-05T12:33:44Z</time>
      </trkpt>
      <trkpt lat="44.49405" lon="1.40529">
        <ele>173.1</ele>
        <time>2021-09-05T12:33:46Z</time>
      </trkpt>
      <trkpt lat="44.49405" lon="1.40528">
        <ele>173.1</ele>
        <time>2021-09-05T12:33:47Z</time>
      </trkpt>
      <trkpt lat="44.49406" lon="1.40526">
        <ele>173.7</ele>
        <time>2021-09-05T12:33:48Z</time>
      </trkpt>
      <trkpt lat="44.49408" lon="1.40524">
        <ele>173.6</ele>
        <time>2021-09-05T12:33:50Z</time>
      </trkpt>
      <trkpt lat="44.49408" lon="1.40522">
        <ele>173.5</ele>
        <time>2021-09-05T12:33:51Z</time>
      </trkpt>
      <trkpt lat="44.49409" lon="1.4052">
        <ele>174.1</ele>
        <time>2021-09-05T12:33:52Z</time>
      </trkpt>
      <trkpt lat="44.4941" lon="1.40517">
        <ele>174.7</ele>
        <time>2021-09-05T12:33:53Z</time>
      </trkpt>
      <trkpt lat="44.49412" lon="1.40513">
        <ele>175.3</ele>
        <time>2021-09-05T12:33:55Z</time>
      </trkpt>
      <trkpt lat="44.49413" lon="1.4051">
        <ele>175.2</ele>
        <time>2021-09-05T12:33:57Z</time>
      </trkpt>
      <trkpt lat="44.49414" lon="1.40507">
        <ele>175.8</ele>
        <time>2021-09-05T12:33:59Z</time>
      </trkpt>
      <trkpt lat="44.49415" lon="1.40503">
        <ele>176.4</ele>
        <time>2021-09-05T12:34:00Z</time>
      </trkpt>
      <trkpt lat="44.49416" lon="1.40502">
        <ele>176.3</ele>
        <time>2021-09-05T12:34:01Z</time>
      </trkpt>
      <trkpt lat="44.49417" lon="1.40497">
        <ele>176.8</ele>
        <time>2021-09-05T12:34:03Z</time>
      </trkpt>
      <trkpt lat="44.49418" lon="1.40496">
        <ele>177.3</ele>
        <time>2021-09-05T12:34:04Z</time>
      </trkpt>
      <trkpt lat="44.49418" lon="1.40494">
        <ele>177.3</ele>
        <time>2021-09-05T12:34:06Z</time>
      </trkpt>
      <trkpt lat="44.49418" lon="1.40493">
        <ele>177.3</ele>
        <time>2021-09-05T12:34:07Z</time>
      </trkpt>
      <trkpt lat="44.49418" lon="1.40492">
        <ele>177.7</ele>
        <time>2021-09-05T12:34:08Z</time>
      </trkpt>
      <trkpt lat="44.49419" lon="1.40489">
        <ele>177.7</ele>
        <time>2021-09-05T12:34:09Z</time>
      </trkpt>
      <trkpt lat="44.4942" lon="1.40485">
        <ele>178.1</ele>
        <time>2021-09-05T12:34:11Z</time>
      </trkpt>
      <trkpt lat="44.49421" lon="1.40482">
        <ele>178.7</ele>
        <time>2021-09-05T12:34:12Z</time>
      </trkpt>
      <trkpt lat="44.49423" lon="1.4048">
        <ele>178.6</ele>
        <time>2021-09-05T12:34:14Z</time>
      </trkpt>
      <trkpt lat="44.49424" lon="1.40478">
        <ele>179.2</ele>
        <time>2021-09-05T12:34:16Z</time>
      </trkpt>
      <trkpt lat="44.49425" lon="1.40477">
        <ele>179.1</ele>
        <time>2021-09-05T12:34:18Z</time>
      </trkpt>
      <trkpt lat="44.49426" lon="1.40476">
        <ele>179.1</ele>
        <time>2021-09-05T12:34:19Z</time>
      </trkpt>
      <trkpt lat="44.49427" lon="1.40475">
        <ele>179</ele>
        <time>2021-09-05T12:34:21Z</time>
      </trkpt>
      <trkpt lat="44.49428" lon="1.40474">
        <ele>179.6</ele>
        <time>2021-09-05T12:34:23Z</time>
      </trkpt>
      <trkpt lat="44.49428" lon="1.40473">
        <ele>179.6</ele>
        <time>2021-09-05T12:34:25Z</time>
      </trkpt>
      <trkpt lat="44.49429" lon="1.40471">
        <ele>179.5</ele>
        <time>2021-09-05T12:47:28Z</time>
      </trkpt>
      <trkpt lat="44.4943" lon="1.4047">
        <ele>180</ele>
        <time>2021-09-05T12:47:29Z</time>
      </trkpt>
      <trkpt lat="44.4943" lon="1.40469">
        <ele>180</ele>
        <time>2021-09-05T12:47:30Z</time>
      </trkpt>
      <trkpt lat="44.4943" lon="1.40469">
        <ele>180</ele>
        <time>2021-09-05T12:47:31Z</time>
      </trkpt>
      <trkpt lat="44.4943" lon="1.40469">
        <ele>179.9</ele>
        <time>2021-09-05T12:47:33Z</time>
      </trkpt>
      <trkpt lat="44.49432" lon="1.40466">
        <ele>180.5</ele>
        <time>2021-09-05T12:47:35Z</time>
      </trkpt>
      <trkpt lat="44.49433" lon="1.40464">
        <ele>180.5</ele>
        <time>2021-09-05T12:47:36Z</time>
      </trkpt>
      <trkpt lat="44.49436" lon="1.40458">
        <ele>181</ele>
        <time>2021-09-05T12:47:38Z</time>
      </trkpt>
      <trkpt lat="44.49438" lon="1.40456">
        <ele>181.6</ele>
        <time>2021-09-05T12:47:40Z</time>
      </trkpt>
      <trkpt lat="44.49439" lon="1.40452">
        <ele>182.1</ele>
        <time>2021-09-05T12:47:41Z</time>
      </trkpt>
      <trkpt lat="44.4944" lon="1.40451">
        <ele>182.3</ele>
        <time>2021-09-05T12:47:42Z</time>
      </trkpt>
      <trkpt lat="44.49442" lon="1.40447">
        <ele>182.8</ele>
        <time>2021-09-05T12:47:43Z</time>
      </trkpt>
      <trkpt lat="44.49444" lon="1.40443">
        <ele>183.5</ele>
        <time>2021-09-05T12:47:45Z</time>
      </trkpt>
      <trkpt lat="44.49446" lon="1.40439">
        <ele>184.3</ele>
        <time>2021-09-05T12:47:47Z</time>
      </trkpt>
      <trkpt lat="44.49447" lon="1.40437">
        <ele>184.2</ele>
        <time>2021-09-05T12:47:48Z</time>
      </trkpt>
      <trkpt lat="44.49448" lon="1.40435">
        <ele>184.7</ele>
        <time>2021-09-05T12:47:49Z</time>
      </trkpt>
      <trkpt lat="44.4945" lon="1.40433">
        <ele>184.9</ele>
        <time>2021-09-05T12:47:50Z</time>
      </trkpt>
      <trkpt lat="44.49451" lon="1.40432">
        <ele>185.4</ele>
        <time>2021-09-05T12:47:51Z</time>
      </trkpt>
      <trkpt lat="44.49452" lon="1.4043">
        <ele>185.5</ele>
        <time>2021-09-05T12:47:53Z</time>
      </trkpt>
      <trkpt lat="44.49454" lon="1.40428">
        <ele>185.5</ele>
        <time>2021-09-05T12:47:54Z</time>
      </trkpt>
      <trkpt lat="44.49456" lon="1.40424">
        <ele>186.2</ele>
        <time>2021-09-05T12:47:56Z</time>
      </trkpt>
      <trkpt lat="44.49457" lon="1.40422">
        <ele>186.8</ele>
        <time>2021-09-05T12:47:57Z</time>
      </trkpt>
      <trkpt lat="44.49458" lon="1.40419">
        <ele>187.6</ele>
        <time>2021-09-05T12:47:59Z</time>
      </trkpt>
      <trkpt lat="44.49458" lon="1.40417">
        <ele>187.6</ele>
        <time>2021-09-05T12:48:00Z</time>
      </trkpt>
      <trkpt lat="44.4946" lon="1.40414">
        <ele>188.2</ele>
        <time>2021-09-05T12:48:01Z</time>
      </trkpt>
      <trkpt lat="44.49462" lon="1.4041">
        <ele>189</ele>
        <time>2021-09-05T12:48:02Z</time>
      </trkpt>
      <trkpt lat="44.49465" lon="1.40406">
        <ele>189.9</ele>
        <time>2021-09-05T12:48:04Z</time>
      </trkpt>
      <trkpt lat="44.49466" lon="1.40404">
        <ele>189.8</ele>
        <time>2021-09-05T12:48:06Z</time>
      </trkpt>
      <trkpt lat="44.49467" lon="1.40403">
        <ele>190</ele>
        <time>2021-09-05T12:48:07Z</time>
      </trkpt>
      <trkpt lat="44.49469" lon="1.404">
        <ele>190.7</ele>
        <time>2021-09-05T12:48:08Z</time>
      </trkpt>
      <trkpt lat="44.4947" lon="1.40398">
        <ele>190.6</ele>
        <time>2021-09-05T12:48:10Z</time>
      </trkpt>
      <trkpt lat="44.49472" lon="1.40395">
        <ele>191.6</ele>
        <time>2021-09-05T12:48:11Z</time>
      </trkpt>
      <trkpt lat="44.49474" lon="1.40392">
        <ele>192.5</ele>
        <time>2021-09-05T12:48:13Z</time>
      </trkpt>
      <trkpt lat="44.49476" lon="1.4039">
        <ele>192.5</ele>
        <time>2021-09-05T12:48:14Z</time>
      </trkpt>
      <trkpt lat="44.49478" lon="1.40388">
        <ele>193.5</ele>
        <time>2021-09-05T12:48:16Z</time>
      </trkpt>
      <trkpt lat="44.49479" lon="1.40387">
        <ele>193.7</ele>
        <time>2021-09-05T12:48:17Z</time>
      </trkpt>
      <trkpt lat="44.49481" lon="1.40385">
        <ele>193.6</ele>
        <time>2021-09-05T12:48:19Z</time>
      </trkpt>
      <trkpt lat="44.49483" lon="1.40384">
        <ele>194.5</ele>
        <time>2021-09-05T12:48:20Z</time>
      </trkpt>
      <trkpt lat="44.49484" lon="1.40383">
        <ele>194.5</ele>
        <time>2021-09-05T12:48:21Z</time>
      </trkpt>
      <trkpt lat="44.49486" lon="1.40381">
        <ele>194.6</ele>
        <time>2021-09-05T12:48:22Z</time>
      </trkpt>
      <trkpt lat="44.49487" lon="1.40379">
        <ele>195.3</ele>
        <time>2021-09-05T12:48:24Z</time>
      </trkpt>
      <trkpt lat="44.49489" lon="1.40377">
        <ele>195.5</ele>
        <time>2021-09-05T12:48:25Z</time>
      </trkpt>
      <trkpt lat="44.4949" lon="1.40376">
        <ele>196.1</ele>
        <time>2021-09-05T12:48:26Z</time>
      </trkpt>
      <trkpt lat="44.49491" lon="1.40375">
        <ele>196.1</ele>
        <time>2021-09-05T12:48:27Z</time>
      </trkpt>
      <trkpt lat="44.49491" lon="1.40374">
        <ele>196</ele>
        <time>2021-09-05T12:48:29Z</time>
      </trkpt>
      <trkpt lat="44.49492" lon="1.40373">
        <ele>196.2</ele>
        <time>2021-09-05T12:48:30Z</time>
      </trkpt>
      <trkpt lat="44.49493" lon="1.40372">
        <ele>196.1</ele>
        <time>2021-09-05T12:48:31Z</time>
      </trkpt>
      <trkpt lat="44.49495" lon="1.40371">
        <ele>197.1</ele>
        <time>2021-09-05T12:48:33Z</time>
      </trkpt>
      <trkpt lat="44.49495" lon="1.40371">
        <ele>197</ele>
        <time>2021-09-05T12:48:34Z</time>
      </trkpt>
      <trkpt lat="44.49499" lon="1.4037">
        <ele>197.2</ele>
        <time>2021-09-05T12:48:36Z</time>
      </trkpt>
      <trkpt lat="44.495" lon="1.4037">
        <ele>197.2</ele>
        <time>2021-09-05T12:48:37Z</time>
      </trkpt>
      <trkpt lat="44.49501" lon="1.40369">
        <ele>197.5</ele>
        <time>2021-09-05T12:48:38Z</time>
      </trkpt>
      <trkpt lat="44.49505" lon="1.40369">
        <ele>197.8</ele>
        <time>2021-09-05T12:48:40Z</time>
      </trkpt>
      <trkpt lat="44.49508" lon="1.4037">
        <ele>198.1</ele>
        <time>2021-09-05T12:48:41Z</time>
      </trkpt>
      <trkpt lat="44.49512" lon="1.40372">
        <ele>197.7</ele>
        <time>2021-09-05T12:48:42Z</time>
      </trkpt>
      <trkpt lat="44.49514" lon="1.40375">
        <ele>198</ele>
        <time>2021-09-05T12:48:44Z</time>
      </trkpt>
      <trkpt lat="44.49515" lon="1.40377">
        <ele>197.2</ele>
        <time>2021-09-05T12:48:45Z</time>
      </trkpt>
      <trkpt lat="44.49517" lon="1.4038">
        <ele>197.6</ele>
        <time>2021-09-05T12:48:46Z</time>
      </trkpt>
      <trkpt lat="44.49517" lon="1.40382">
        <ele>196.8</ele>
        <time>2021-09-05T12:48:47Z</time>
      </trkpt>
      <trkpt lat="44.49517" lon="1.40385">
        <ele>196.8</ele>
        <time>2021-09-05T12:48:48Z</time>
      </trkpt>
      <trkpt lat="44.49518" lon="1.40387">
        <ele>196</ele>
        <time>2021-09-05T12:48:50Z</time>
      </trkpt>
      <trkpt lat="44.49518" lon="1.40391">
        <ele>195.4</ele>
        <time>2021-09-05T12:48:51Z</time>
      </trkpt>
      <trkpt lat="44.49517" lon="1.40396">
        <ele>194.8</ele>
        <time>2021-09-05T12:48:52Z</time>
      </trkpt>
      <trkpt lat="44.49516" lon="1.40398">
        <ele>194.2</ele>
        <time>2021-09-05T12:48:54Z</time>
      </trkpt>
      <trkpt lat="44.49516" lon="1.40399">
        <ele>193.7</ele>
        <time>2021-09-05T12:48:55Z</time>
      </trkpt>
      <trkpt lat="44.49515" lon="1.40401">
        <ele>193.6</ele>
        <time>2021-09-05T12:48:56Z</time>
      </trkpt>
      <trkpt lat="44.49514" lon="1.40404">
        <ele>193.1</ele>
        <time>2021-09-05T12:48:57Z</time>
      </trkpt>
      <trkpt lat="44.49514" lon="1.40406">
        <ele>192.6</ele>
        <time>2021-09-05T12:48:59Z</time>
      </trkpt>
      <trkpt lat="44.49513" lon="1.40411">
        <ele>191.7</ele>
        <time>2021-09-05T12:49:00Z</time>
      </trkpt>
      <trkpt lat="44.49512" lon="1.40413">
        <ele>191.6</ele>
        <time>2021-09-05T12:49:01Z</time>
      </trkpt>
      <trkpt lat="44.49512" lon="1.40415">
        <ele>191.2</ele>
        <time>2021-09-05T12:49:02Z</time>
      </trkpt>
      <trkpt lat="44.49512" lon="1.40418">
        <ele>191.1</ele>
        <time>2021-09-05T12:49:04Z</time>
      </trkpt>
      <trkpt lat="44.49511" lon="1.40422">
        <ele>190.7</ele>
        <time>2021-09-05T12:49:05Z</time>
      </trkpt>
      <trkpt lat="44.49511" lon="1.40424">
        <ele>190.2</ele>
        <time>2021-09-05T12:49:06Z</time>
      </trkpt>
      <trkpt lat="44.49511" lon="1.40427">
        <ele>190.2</ele>
        <time>2021-09-05T12:49:07Z</time>
      </trkpt>
      <trkpt lat="44.49511" lon="1.4043">
        <ele>189.8</ele>
        <time>2021-09-05T12:49:09Z</time>
      </trkpt>
      <trkpt lat="44.49511" lon="1.40434">
        <ele>189.5</ele>
        <time>2021-09-05T12:49:10Z</time>
      </trkpt>
      <trkpt lat="44.49511" lon="1.40436">
        <ele>189.4</ele>
        <time>2021-09-05T12:49:11Z</time>
      </trkpt>
      <trkpt lat="44.4951" lon="1.40441">
        <ele>188.9</ele>
        <time>2021-09-05T12:49:13Z</time>
      </trkpt>
      <trkpt lat="44.4951" lon="1.40443">
        <ele>188.8</ele>
        <time>2021-09-05T12:49:14Z</time>
      </trkpt>
      <trkpt lat="44.4951" lon="1.40446">
        <ele>188.5</ele>
        <time>2021-09-05T12:49:16Z</time>
      </trkpt>
      <trkpt lat="44.4951" lon="1.40449">
        <ele>187.7</ele>
        <time>2021-09-05T12:49:17Z</time>
      </trkpt>
      <trkpt lat="44.49509" lon="1.40452">
        <ele>187.4</ele>
        <time>2021-09-05T12:49:19Z</time>
      </trkpt>
      <trkpt lat="44.49509" lon="1.40456">
        <ele>187.1</ele>
        <time>2021-09-05T12:49:20Z</time>
      </trkpt>
      <trkpt lat="44.49509" lon="1.40459">
        <ele>186.8</ele>
        <time>2021-09-05T12:49:22Z</time>
      </trkpt>
      <trkpt lat="44.49508" lon="1.40464">
        <ele>186.5</ele>
        <time>2021-09-05T12:49:23Z</time>
      </trkpt>
      <trkpt lat="44.49508" lon="1.40465">
        <ele>186.5</ele>
        <time>2021-09-05T12:49:24Z</time>
      </trkpt>
      <trkpt lat="44.49507" lon="1.4047">
        <ele>186.1</ele>
        <time>2021-09-05T12:49:26Z</time>
      </trkpt>
      <trkpt lat="44.49507" lon="1.40471">
        <ele>185.8</ele>
        <time>2021-09-05T12:49:27Z</time>
      </trkpt>
      <trkpt lat="44.49507" lon="1.40474">
        <ele>185.7</ele>
        <time>2021-09-05T12:49:28Z</time>
      </trkpt>
      <trkpt lat="44.49507" lon="1.40477">
        <ele>184.5</ele>
        <time>2021-09-05T12:49:30Z</time>
      </trkpt>
      <trkpt lat="44.49506" lon="1.4048">
        <ele>184.1</ele>
        <time>2021-09-05T12:49:31Z</time>
      </trkpt>
      <trkpt lat="44.49506" lon="1.40481">
        <ele>184</ele>
        <time>2021-09-05T12:49:32Z</time>
      </trkpt>
      <trkpt lat="44.49506" lon="1.40482">
        <ele>184</ele>
        <time>2021-09-05T12:49:33Z</time>
      </trkpt>
      <trkpt lat="44.49506" lon="1.40486">
        <ele>183.6</ele>
        <time>2021-09-05T12:49:34Z</time>
      </trkpt>
      <trkpt lat="44.49506" lon="1.40487">
        <ele>183.6</ele>
        <time>2021-09-05T12:49:35Z</time>
      </trkpt>
      <trkpt lat="44.49506" lon="1.40489">
        <ele>183.3</ele>
        <time>2021-09-05T12:49:36Z</time>
      </trkpt>
      <trkpt lat="44.49507" lon="1.40493">
        <ele>182.9</ele>
        <time>2021-09-05T12:49:38Z</time>
      </trkpt>
      <trkpt lat="44.49507" lon="1.40497">
        <ele>183.5</ele>
        <time>2021-09-05T12:49:39Z</time>
      </trkpt>
      <trkpt lat="44.49507" lon="1.405">
        <ele>183.5</ele>
        <time>2021-09-05T12:49:41Z</time>
      </trkpt>
      <trkpt lat="44.49507" lon="1.40502">
        <ele>183.1</ele>
        <time>2021-09-05T12:49:43Z</time>
      </trkpt>
      <trkpt lat="44.49508" lon="1.40505">
        <ele>182.7</ele>
        <time>2021-09-05T12:49:44Z</time>
      </trkpt>
      <trkpt lat="44.49508" lon="1.40507">
        <ele>182.7</ele>
        <time>2021-09-05T12:49:45Z</time>
      </trkpt>
      <trkpt lat="44.49509" lon="1.4051">
        <ele>182.2</ele>
        <time>2021-09-05T12:49:46Z</time>
      </trkpt>
      <trkpt lat="44.4951" lon="1.40515">
        <ele>181.8</ele>
        <time>2021-09-05T12:49:49Z</time>
      </trkpt>
      <trkpt lat="44.49511" lon="1.40518">
        <ele>182.3</ele>
        <time>2021-09-05T12:49:50Z</time>
      </trkpt>
      <trkpt lat="44.49512" lon="1.40519">
        <ele>182.3</ele>
        <time>2021-09-05T12:49:51Z</time>
      </trkpt>
      <trkpt lat="44.49513" lon="1.40522">
        <ele>183.1</ele>
        <time>2021-09-05T12:49:52Z</time>
      </trkpt>
      <trkpt lat="44.49514" lon="1.40524">
        <ele>182.7</ele>
        <time>2021-09-05T12:49:54Z</time>
      </trkpt>
      <trkpt lat="44.49517" lon="1.40525">
        <ele>183.5</ele>
        <time>2021-09-05T12:49:56Z</time>
      </trkpt>
      <trkpt lat="44.49518" lon="1.40524">
        <ele>183.5</ele>
        <time>2021-09-05T12:49:57Z</time>
      </trkpt>
      <trkpt lat="44.4952" lon="1.40523">
        <ele>184.4</ele>
        <time>2021-09-05T12:49:58Z</time>
      </trkpt>
      <trkpt lat="44.4952" lon="1.4052">
        <ele>184.6</ele>
        <time>2021-09-05T12:49:59Z</time>
      </trkpt>
      <trkpt lat="44.4952" lon="1.40518">
        <ele>184.9</ele>
        <time>2021-09-05T12:50:01Z</time>
      </trkpt>
      <trkpt lat="44.49519" lon="1.40514">
        <ele>183.9</ele>
        <time>2021-09-05T12:50:02Z</time>
      </trkpt>
      <trkpt lat="44.49518" lon="1.40512">
        <ele>184.2</ele>
        <time>2021-09-05T12:50:04Z</time>
      </trkpt>
      <trkpt lat="44.49517" lon="1.40507">
        <ele>184.5</ele>
        <time>2021-09-05T12:50:05Z</time>
      </trkpt>
      <trkpt lat="44.49517" lon="1.40506">
        <ele>184.4</ele>
        <time>2021-09-05T12:50:06Z</time>
      </trkpt>
      <trkpt lat="44.49517" lon="1.40502">
        <ele>184.7</ele>
        <time>2021-09-05T12:50:07Z</time>
      </trkpt>
      <trkpt lat="44.49517" lon="1.405">
        <ele>184.9</ele>
        <time>2021-09-05T12:50:08Z</time>
      </trkpt>
      <trkpt lat="44.49517" lon="1.40495">
        <ele>185.1</ele>
        <time>2021-09-05T12:50:10Z</time>
      </trkpt>
      <trkpt lat="44.49517" lon="1.40493">
        <ele>185.1</ele>
        <time>2021-09-05T12:50:11Z</time>
      </trkpt>
      <trkpt lat="44.49518" lon="1.4049">
        <ele>185.2</ele>
        <time>2021-09-05T12:50:12Z</time>
      </trkpt>
      <trkpt lat="44.49519" lon="1.40486">
        <ele>186.3</ele>
        <time>2021-09-05T12:50:14Z</time>
      </trkpt>
      <trkpt lat="44.49521" lon="1.40482">
        <ele>186.4</ele>
        <time>2021-09-05T12:50:16Z</time>
      </trkpt>
      <trkpt lat="44.49521" lon="1.40481">
        <ele>186.4</ele>
        <time>2021-09-05T12:50:17Z</time>
      </trkpt>
      <trkpt lat="44.49522" lon="1.40479">
        <ele>187.2</ele>
        <time>2021-09-05T12:50:18Z</time>
      </trkpt>
      <trkpt lat="44.49522" lon="1.40477">
        <ele>187.4</ele>
        <time>2021-09-05T12:50:20Z</time>
      </trkpt>
      <trkpt lat="44.49523" lon="1.40474">
        <ele>187.5</ele>
        <time>2021-09-05T12:50:22Z</time>
      </trkpt>
      <trkpt lat="44.49524" lon="1.40469">
        <ele>187.7</ele>
        <time>2021-09-05T12:50:23Z</time>
      </trkpt>
      <trkpt lat="44.49524" lon="1.40467">
        <ele>187.6</ele>
        <time>2021-09-05T12:50:24Z</time>
      </trkpt>
      <trkpt lat="44.49525" lon="1.40463">
        <ele>188.7</ele>
        <time>2021-09-05T12:50:26Z</time>
      </trkpt>
      <trkpt lat="44.49526" lon="1.40462">
        <ele>188.8</ele>
        <time>2021-09-05T12:50:27Z</time>
      </trkpt>
      <trkpt lat="44.49527" lon="1.40458">
        <ele>188.8</ele>
        <time>2021-09-05T12:50:28Z</time>
      </trkpt>
      <trkpt lat="44.49528" lon="1.40456">
        <ele>188.9</ele>
        <time>2021-09-05T12:50:29Z</time>
      </trkpt>
      <trkpt lat="44.49528" lon="1.40454">
        <ele>189.8</ele>
        <time>2021-09-05T12:50:30Z</time>
      </trkpt>
      <trkpt lat="44.49529" lon="1.40451">
        <ele>189.9</ele>
        <time>2021-09-05T12:50:31Z</time>
      </trkpt>
      <trkpt lat="44.4953" lon="1.40449">
        <ele>189.8</ele>
        <time>2021-09-05T12:50:32Z</time>
      </trkpt>
      <trkpt lat="44.4953" lon="1.40448">
        <ele>189.9</ele>
        <time>2021-09-05T12:50:34Z</time>
      </trkpt>
      <trkpt lat="44.49532" lon="1.40445">
        <ele>190.9</ele>
        <time>2021-09-05T12:50:35Z</time>
      </trkpt>
      <trkpt lat="44.49533" lon="1.40442">
        <ele>190.9</ele>
        <time>2021-09-05T12:50:36Z</time>
      </trkpt>
      <trkpt lat="44.49535" lon="1.40439">
        <ele>192</ele>
        <time>2021-09-05T12:50:38Z</time>
      </trkpt>
      <trkpt lat="44.49536" lon="1.40438">
        <ele>192</ele>
        <time>2021-09-05T12:50:39Z</time>
      </trkpt>
      <trkpt lat="44.49538" lon="1.40435">
        <ele>193</ele>
        <time>2021-09-05T12:50:40Z</time>
      </trkpt>
      <trkpt lat="44.49539" lon="1.40433">
        <ele>192.9</ele>
        <time>2021-09-05T12:50:41Z</time>
      </trkpt>
      <trkpt lat="44.4954" lon="1.40429">
        <ele>193</ele>
        <time>2021-09-05T12:50:43Z</time>
      </trkpt>
      <trkpt lat="44.49541" lon="1.40428">
        <ele>193.9</ele>
        <time>2021-09-05T12:50:44Z</time>
      </trkpt>
      <trkpt lat="44.49542" lon="1.40426">
        <ele>194.1</ele>
        <time>2021-09-05T12:50:45Z</time>
      </trkpt>
      <trkpt lat="44.49543" lon="1.40424">
        <ele>194</ele>
        <time>2021-09-05T12:50:46Z</time>
      </trkpt>
      <trkpt lat="44.49545" lon="1.40421">
        <ele>195.1</ele>
        <time>2021-09-05T12:50:47Z</time>
      </trkpt>
      <trkpt lat="44.49546" lon="1.4042">
        <ele>195.1</ele>
        <time>2021-09-05T12:50:49Z</time>
      </trkpt>
      <trkpt lat="44.49548" lon="1.40416">
        <ele>196.3</ele>
        <time>2021-09-05T12:50:50Z</time>
      </trkpt>
      <trkpt lat="44.49548" lon="1.40415">
        <ele>196.5</ele>
        <time>2021-09-05T12:50:51Z</time>
      </trkpt>
      <trkpt lat="44.49551" lon="1.40412">
        <ele>197.6</ele>
        <time>2021-09-05T12:50:53Z</time>
      </trkpt>
      <trkpt lat="44.49552" lon="1.40411">
        <ele>197.5</ele>
        <time>2021-09-05T12:50:54Z</time>
      </trkpt>
      <trkpt lat="44.49553" lon="1.40409">
        <ele>198.9</ele>
        <time>2021-09-05T12:50:55Z</time>
      </trkpt>
      <trkpt lat="44.49555" lon="1.40407">
        <ele>198.8</ele>
        <time>2021-09-05T12:50:57Z</time>
      </trkpt>
      <trkpt lat="44.49557" lon="1.40404">
        <ele>200.1</ele>
        <time>2021-09-05T12:50:58Z</time>
      </trkpt>
      <trkpt lat="44.49559" lon="1.40402">
        <ele>200.2</ele>
        <time>2021-09-05T12:51:00Z</time>
      </trkpt>
      <trkpt lat="44.49561" lon="1.404">
        <ele>201.3</ele>
        <time>2021-09-05T12:51:01Z</time>
      </trkpt>
      <trkpt lat="44.49563" lon="1.40399">
        <ele>202.4</ele>
        <time>2021-09-05T12:51:03Z</time>
      </trkpt>
      <trkpt lat="44.49566" lon="1.40396">
        <ele>203.7</ele>
        <time>2021-09-05T12:51:04Z</time>
      </trkpt>
      <trkpt lat="44.49567" lon="1.40395">
        <ele>203.6</ele>
        <time>2021-09-05T12:51:05Z</time>
      </trkpt>
      <trkpt lat="44.4957" lon="1.40393">
        <ele>204.8</ele>
        <time>2021-09-05T12:51:07Z</time>
      </trkpt>
      <trkpt lat="44.49571" lon="1.40392">
        <ele>204.8</ele>
        <time>2021-09-05T12:51:08Z</time>
      </trkpt>
      <trkpt lat="44.49573" lon="1.4039">
        <ele>205.9</ele>
        <time>2021-09-05T12:51:10Z</time>
      </trkpt>
      <trkpt lat="44.49575" lon="1.40389">
        <ele>207.3</ele>
        <time>2021-09-05T12:51:12Z</time>
      </trkpt>
      <trkpt lat="44.49578" lon="1.40387">
        <ele>208.6</ele>
        <time>2021-09-05T12:51:13Z</time>
      </trkpt>
      <trkpt lat="44.49579" lon="1.40385">
        <ele>208.5</ele>
        <time>2021-09-05T12:51:14Z</time>
      </trkpt>
      <trkpt lat="44.4958" lon="1.40384">
        <ele>210</ele>
        <time>2021-09-05T12:51:15Z</time>
      </trkpt>
      <trkpt lat="44.49582" lon="1.40383">
        <ele>210</ele>
        <time>2021-09-05T12:51:16Z</time>
      </trkpt>
      <trkpt lat="44.49584" lon="1.40381">
        <ele>211.3</ele>
        <time>2021-09-05T12:51:17Z</time>
      </trkpt>
      <trkpt lat="44.49586" lon="1.4038">
        <ele>211.5</ele>
        <time>2021-09-05T12:51:19Z</time>
      </trkpt>
      <trkpt lat="44.49589" lon="1.40378">
        <ele>212.9</ele>
        <time>2021-09-05T12:51:20Z</time>
      </trkpt>
      <trkpt lat="44.49589" lon="1.40378">
        <ele>212.8</ele>
        <time>2021-09-05T12:51:21Z</time>
      </trkpt>
      <trkpt lat="44.49592" lon="1.40375">
        <ele>214.4</ele>
        <time>2021-09-05T12:51:23Z</time>
      </trkpt>
      <trkpt lat="44.49593" lon="1.40374">
        <ele>215.8</ele>
        <time>2021-09-05T12:51:24Z</time>
      </trkpt>
      <trkpt lat="44.49595" lon="1.4037">
        <ele>216</ele>
        <time>2021-09-05T12:51:25Z</time>
      </trkpt>
      <trkpt lat="44.49596" lon="1.40369">
        <ele>217.3</ele>
        <time>2021-09-05T12:51:26Z</time>
      </trkpt>
      <trkpt lat="44.49597" lon="1.40366">
        <ele>217.5</ele>
        <time>2021-09-05T12:51:27Z</time>
      </trkpt>
      <trkpt lat="44.49598" lon="1.40365">
        <ele>217.4</ele>
        <time>2021-09-05T12:51:29Z</time>
      </trkpt>
      <trkpt lat="44.49598" lon="1.4036">
        <ele>217.6</ele>
        <time>2021-09-05T12:51:30Z</time>
      </trkpt>
      <trkpt lat="44.49598" lon="1.40359">
        <ele>217.8</ele>
        <time>2021-09-05T12:51:31Z</time>
      </trkpt>
      <trkpt lat="44.49599" lon="1.40356">
        <ele>219.1</ele>
        <time>2021-09-05T12:51:32Z</time>
      </trkpt>
      <trkpt lat="44.49598" lon="1.40352">
        <ele>218</ele>
        <time>2021-09-05T12:51:34Z</time>
      </trkpt>
      <trkpt lat="44.49596" lon="1.40348">
        <ele>218.2</ele>
        <time>2021-09-05T12:51:35Z</time>
      </trkpt>
      <trkpt lat="44.49595" lon="1.40346">
        <ele>216.8</ele>
        <time>2021-09-05T12:51:36Z</time>
      </trkpt>
      <trkpt lat="44.49593" lon="1.40343">
        <ele>217.1</ele>
        <time>2021-09-05T12:51:37Z</time>
      </trkpt>
      <trkpt lat="44.49592" lon="1.40341">
        <ele>216.1</ele>
        <time>2021-09-05T12:51:38Z</time>
      </trkpt>
      <trkpt lat="44.4959" lon="1.40336">
        <ele>216.6</ele>
        <time>2021-09-05T12:51:40Z</time>
      </trkpt>
      <trkpt lat="44.49588" lon="1.40332">
        <ele>215.8</ele>
        <time>2021-09-05T12:51:42Z</time>
      </trkpt>
      <trkpt lat="44.49586" lon="1.4033">
        <ele>214.5</ele>
        <time>2021-09-05T12:51:43Z</time>
      </trkpt>
      <trkpt lat="44.49585" lon="1.40326">
        <ele>215</ele>
        <time>2021-09-05T12:51:44Z</time>
      </trkpt>
      <trkpt lat="44.49582" lon="1.40321">
        <ele>214.4</ele>
        <time>2021-09-05T12:51:46Z</time>
      </trkpt>
      <trkpt lat="44.49581" lon="1.40319">
        <ele>214.9</ele>
        <time>2021-09-05T12:51:47Z</time>
      </trkpt>
      <trkpt lat="44.49581" lon="1.40317">
        <ele>214.9</ele>
        <time>2021-09-05T12:51:48Z</time>
      </trkpt>
      <trkpt lat="44.4958" lon="1.40313">
        <ele>214.3</ele>
        <time>2021-09-05T12:51:49Z</time>
      </trkpt>
      <trkpt lat="44.49579" lon="1.40311">
        <ele>214.9</ele>
        <time>2021-09-05T12:51:50Z</time>
      </trkpt>
      <trkpt lat="44.49579" lon="1.40307">
        <ele>215.5</ele>
        <time>2021-09-05T12:51:52Z</time>
      </trkpt>
      <trkpt lat="44.49578" lon="1.40305">
        <ele>215.4</ele>
        <time>2021-09-05T12:51:53Z</time>
      </trkpt>
      <trkpt lat="44.49578" lon="1.40302">
        <ele>216.1</ele>
        <time>2021-09-05T12:51:54Z</time>
      </trkpt>
      <trkpt lat="44.49577" lon="1.40297">
        <ele>215.7</ele>
        <time>2021-09-05T12:51:55Z</time>
      </trkpt>
      <trkpt lat="44.49577" lon="1.40295">
        <ele>215.6</ele>
        <time>2021-09-05T12:51:56Z</time>
      </trkpt>
      <trkpt lat="44.49576" lon="1.40292">
        <ele>216.3</ele>
        <time>2021-09-05T12:51:57Z</time>
      </trkpt>
      <trkpt lat="44.49574" lon="1.40286">
        <ele>217.1</ele>
        <time>2021-09-05T12:51:59Z</time>
      </trkpt>
      <trkpt lat="44.49574" lon="1.40284">
        <ele>216.9</ele>
        <time>2021-09-05T12:52:00Z</time>
      </trkpt>
      <trkpt lat="44.49574" lon="1.40283">
        <ele>216.8</ele>
        <time>2021-09-05T12:52:01Z</time>
      </trkpt>
      <trkpt lat="44.49573" lon="1.40278">
        <ele>217.6</ele>
        <time>2021-09-05T12:52:02Z</time>
      </trkpt>
      <trkpt lat="44.4957" lon="1.40274">
        <ele>217.5</ele>
        <time>2021-09-05T12:52:04Z</time>
      </trkpt>
      <trkpt lat="44.49569" lon="1.4027">
        <ele>218.4</ele>
        <time>2021-09-05T12:52:06Z</time>
      </trkpt>
      <trkpt lat="44.49568" lon="1.40266">
        <ele>219.1</ele>
        <time>2021-09-05T12:52:07Z</time>
      </trkpt>
      <trkpt lat="44.49567" lon="1.40262">
        <ele>219.2</ele>
        <time>2021-09-05T12:52:09Z</time>
      </trkpt>
      <trkpt lat="44.49567" lon="1.4026">
        <ele>220.1</ele>
        <time>2021-09-05T12:52:10Z</time>
      </trkpt>
      <trkpt lat="44.49565" lon="1.40258">
        <ele>220</ele>
        <time>2021-09-05T12:52:11Z</time>
      </trkpt>
      <trkpt lat="44.49565" lon="1.40255">
        <ele>220.2</ele>
        <time>2021-09-05T12:52:13Z</time>
      </trkpt>
      <trkpt lat="44.49563" lon="1.40251">
        <ele>221.2</ele>
        <time>2021-09-05T12:52:14Z</time>
      </trkpt>
      <trkpt lat="44.49563" lon="1.40248">
        <ele>221.1</ele>
        <time>2021-09-05T12:52:16Z</time>
      </trkpt>
      <trkpt lat="44.49563" lon="1.40244">
        <ele>222.1</ele>
        <time>2021-09-05T12:52:18Z</time>
      </trkpt>
      <trkpt lat="44.49563" lon="1.4024">
        <ele>223.1</ele>
        <time>2021-09-05T12:52:19Z</time>
      </trkpt>
      <trkpt lat="44.49563" lon="1.40239">
        <ele>224.1</ele>
        <time>2021-09-05T12:52:20Z</time>
      </trkpt>
      <trkpt lat="44.49564" lon="1.40237">
        <ele>224</ele>
        <time>2021-09-05T12:52:22Z</time>
      </trkpt>
      <trkpt lat="44.49565" lon="1.40235">
        <ele>223.9</ele>
        <time>2021-09-05T12:52:23Z</time>
      </trkpt>
      <trkpt lat="44.49567" lon="1.40234">
        <ele>225.5</ele>
        <time>2021-09-05T12:52:24Z</time>
      </trkpt>
      <trkpt lat="44.49568" lon="1.40234">
        <ele>226</ele>
        <time>2021-09-05T12:52:26Z</time>
      </trkpt>
      <trkpt lat="44.4957" lon="1.40235">
        <ele>225</ele>
        <time>2021-09-05T12:52:27Z</time>
      </trkpt>
      <trkpt lat="44.49571" lon="1.40237">
        <ele>225.6</ele>
        <time>2021-09-05T12:52:29Z</time>
      </trkpt>
      <trkpt lat="44.49574" lon="1.40242">
        <ele>224.6</ele>
        <time>2021-09-05T12:52:31Z</time>
      </trkpt>
      <trkpt lat="44.49574" lon="1.40243">
        <ele>225.2</ele>
        <time>2021-09-05T12:52:32Z</time>
      </trkpt>
      <trkpt lat="44.49575" lon="1.40244">
        <ele>224.2</ele>
        <time>2021-09-05T12:52:33Z</time>
      </trkpt>
      <trkpt lat="44.49577" lon="1.40248">
        <ele>223.2</ele>
        <time>2021-09-05T12:52:34Z</time>
      </trkpt>
      <trkpt lat="44.49579" lon="1.40253">
        <ele>223</ele>
        <time>2021-09-05T12:52:36Z</time>
      </trkpt>
      <trkpt lat="44.4958" lon="1.40256">
        <ele>222.1</ele>
        <time>2021-09-05T12:52:37Z</time>
      </trkpt>
      <trkpt lat="44.49581" lon="1.4026">
        <ele>222.2</ele>
        <time>2021-09-05T12:52:38Z</time>
      </trkpt>
      <trkpt lat="44.49582" lon="1.40262">
        <ele>222.1</ele>
        <time>2021-09-05T12:52:39Z</time>
      </trkpt>
      <trkpt lat="44.49583" lon="1.40267">
        <ele>221.3</ele>
        <time>2021-09-05T12:52:41Z</time>
      </trkpt>
      <trkpt lat="44.49583" lon="1.40269">
        <ele>221.5</ele>
        <time>2021-09-05T12:52:42Z</time>
      </trkpt>
      <trkpt lat="44.49585" lon="1.40272">
        <ele>221.5</ele>
        <time>2021-09-05T12:52:44Z</time>
      </trkpt>
      <trkpt lat="44.49585" lon="1.40274">
        <ele>220.7</ele>
        <time>2021-09-05T12:52:45Z</time>
      </trkpt>
      <trkpt lat="44.49587" lon="1.40278">
        <ele>221</ele>
        <time>2021-09-05T12:52:46Z</time>
      </trkpt>
      <trkpt lat="44.49589" lon="1.40283">
        <ele>220.2</ele>
        <time>2021-09-05T12:52:48Z</time>
      </trkpt>
      <trkpt lat="44.49591" lon="1.40286">
        <ele>220.6</ele>
        <time>2021-09-05T12:52:50Z</time>
      </trkpt>
      <trkpt lat="44.49591" lon="1.40288">
        <ele>220.5</ele>
        <time>2021-09-05T12:52:51Z</time>
      </trkpt>
      <trkpt lat="44.49593" lon="1.40291">
        <ele>220.9</ele>
        <time>2021-09-05T12:52:52Z</time>
      </trkpt>
      <trkpt lat="44.49594" lon="1.40292">
        <ele>220.9</ele>
        <time>2021-09-05T12:52:53Z</time>
      </trkpt>
      <trkpt lat="44.49597" lon="1.40297">
        <ele>221.3</ele>
        <time>2021-09-05T12:52:55Z</time>
      </trkpt>
      <trkpt lat="44.496" lon="1.40299">
        <ele>221.7</ele>
        <time>2021-09-05T12:52:57Z</time>
      </trkpt>
      <trkpt lat="44.49601" lon="1.403">
        <ele>221.7</ele>
        <time>2021-09-05T12:52:58Z</time>
      </trkpt>
      <trkpt lat="44.49602" lon="1.40302">
        <ele>222.8</ele>
        <time>2021-09-05T12:52:59Z</time>
      </trkpt>
      <trkpt lat="44.49604" lon="1.40304">
        <ele>222.1</ele>
        <time>2021-09-05T12:53:01Z</time>
      </trkpt>
      <trkpt lat="44.49606" lon="1.40306">
        <ele>223.3</ele>
        <time>2021-09-05T12:53:02Z</time>
      </trkpt>
      <trkpt lat="44.49607" lon="1.40307">
        <ele>223.2</ele>
        <time>2021-09-05T12:53:03Z</time>
      </trkpt>
      <trkpt lat="44.49608" lon="1.40309">
        <ele>223.9</ele>
        <time>2021-09-05T12:53:04Z</time>
      </trkpt>
      <trkpt lat="44.4961" lon="1.40311">
        <ele>223.9</ele>
        <time>2021-09-05T12:53:06Z</time>
      </trkpt>
      <trkpt lat="44.49613" lon="1.40313">
        <ele>224.7</ele>
        <time>2021-09-05T12:53:07Z</time>
      </trkpt>
      <trkpt lat="44.49614" lon="1.40315">
        <ele>226.2</ele>
        <time>2021-09-05T12:53:08Z</time>
      </trkpt>
      <trkpt lat="44.49617" lon="1.40316">
        <ele>225.7</ele>
        <time>2021-09-05T12:53:10Z</time>
      </trkpt>
      <trkpt lat="44.49619" lon="1.40318">
        <ele>227.1</ele>
        <time>2021-09-05T12:53:11Z</time>
      </trkpt>
      <trkpt lat="44.49621" lon="1.40321">
        <ele>228.1</ele>
        <time>2021-09-05T12:53:12Z</time>
      </trkpt>
      <trkpt lat="44.49624" lon="1.40323">
        <ele>229.4</ele>
        <time>2021-09-05T12:53:13Z</time>
      </trkpt>
      <trkpt lat="44.49625" lon="1.40324">
        <ele>229.3</ele>
        <time>2021-09-05T12:53:14Z</time>
      </trkpt>
      <trkpt lat="44.49628" lon="1.40327">
        <ele>230.2</ele>
        <time>2021-09-05T12:53:16Z</time>
      </trkpt>
      <trkpt lat="44.49628" lon="1.40328">
        <ele>230.2</ele>
        <time>2021-09-05T12:53:17Z</time>
      </trkpt>
      <trkpt lat="44.4963" lon="1.4033">
        <ele>231.1</ele>
        <time>2021-09-05T12:53:18Z</time>
      </trkpt>
      <trkpt lat="44.49633" lon="1.40334">
        <ele>232.1</ele>
        <time>2021-09-05T12:53:19Z</time>
      </trkpt>
      <trkpt lat="44.49634" lon="1.40334">
        <ele>232</ele>
        <time>2021-09-05T12:53:20Z</time>
      </trkpt>
      <trkpt lat="44.49636" lon="1.40337">
        <ele>233.4</ele>
        <time>2021-09-05T12:53:22Z</time>
      </trkpt>
      <trkpt lat="44.49637" lon="1.40339">
        <ele>233</ele>
        <time>2021-09-05T12:53:23Z</time>
      </trkpt>
      <trkpt lat="44.49639" lon="1.40342">
        <ele>234.2</ele>
        <time>2021-09-05T12:53:24Z</time>
      </trkpt>
      <trkpt lat="44.4964" lon="1.40344">
        <ele>234.1</ele>
        <time>2021-09-05T12:53:26Z</time>
      </trkpt>
      <trkpt lat="44.49642" lon="1.40348">
        <ele>235.3</ele>
        <time>2021-09-05T12:53:28Z</time>
      </trkpt>
      <trkpt lat="44.49643" lon="1.40352">
        <ele>235</ele>
        <time>2021-09-05T12:53:29Z</time>
      </trkpt>
      <trkpt lat="44.49644" lon="1.40357">
        <ele>234.7</ele>
        <time>2021-09-05T12:53:30Z</time>
      </trkpt>
      <trkpt lat="44.49644" lon="1.40359">
        <ele>234.6</ele>
        <time>2021-09-05T12:53:31Z</time>
      </trkpt>
      <trkpt lat="44.49644" lon="1.40365">
        <ele>234</ele>
        <time>2021-09-05T12:53:33Z</time>
      </trkpt>
      <trkpt lat="44.49644" lon="1.40367">
        <ele>234</ele>
        <time>2021-09-05T12:53:34Z</time>
      </trkpt>
      <trkpt lat="44.49646" lon="1.40371">
        <ele>235.1</ele>
        <time>2021-09-05T12:53:35Z</time>
      </trkpt>
      <trkpt lat="44.49647" lon="1.40372">
        <ele>234.8</ele>
        <time>2021-09-05T12:53:36Z</time>
      </trkpt>
      <trkpt lat="44.4965" lon="1.40371">
        <ele>236.2</ele>
        <time>2021-09-05T12:53:38Z</time>
      </trkpt>
      <trkpt lat="44.49651" lon="1.4037">
        <ele>238</ele>
        <time>2021-09-05T12:53:39Z</time>
      </trkpt>
      <trkpt lat="44.49652" lon="1.40367">
        <ele>238.2</ele>
        <time>2021-09-05T12:53:40Z</time>
      </trkpt>
      <trkpt lat="44.49652" lon="1.40362">
        <ele>238.4</ele>
        <time>2021-09-05T12:53:42Z</time>
      </trkpt>
      <trkpt lat="44.49652" lon="1.40357">
        <ele>238.6</ele>
        <time>2021-09-05T12:53:43Z</time>
      </trkpt>
      <trkpt lat="44.49652" lon="1.40355">
        <ele>238.5</ele>
        <time>2021-09-05T12:53:44Z</time>
      </trkpt>
      <trkpt lat="44.49651" lon="1.40352">
        <ele>238.7</ele>
        <time>2021-09-05T12:53:45Z</time>
      </trkpt>
      <trkpt lat="44.4965" lon="1.40349">
        <ele>237</ele>
        <time>2021-09-05T12:53:47Z</time>
      </trkpt>
      <trkpt lat="44.4965" lon="1.40347">
        <ele>237</ele>
        <time>2021-09-05T12:53:48Z</time>
      </trkpt>
      <trkpt lat="44.49649" lon="1.40342">
        <ele>237.2</ele>
        <time>2021-09-05T12:53:50Z</time>
      </trkpt>
      <trkpt lat="44.49648" lon="1.40337">
        <ele>237.7</ele>
        <time>2021-09-05T12:53:51Z</time>
      </trkpt>
      <trkpt lat="44.49647" lon="1.40333">
        <ele>236.8</ele>
        <time>2021-09-05T12:53:52Z</time>
      </trkpt>
      <trkpt lat="44.49647" lon="1.40332">
        <ele>236.7</ele>
        <time>2021-09-05T12:53:53Z</time>
      </trkpt>
      <trkpt lat="44.49645" lon="1.40328">
        <ele>237</ele>
        <time>2021-09-05T12:53:55Z</time>
      </trkpt>
      <trkpt lat="44.49643" lon="1.40323">
        <ele>235.8</ele>
        <time>2021-09-05T12:53:56Z</time>
      </trkpt>
      <trkpt lat="44.49642" lon="1.40322">
        <ele>235.8</ele>
        <time>2021-09-05T12:53:57Z</time>
      </trkpt>
      <trkpt lat="44.4964" lon="1.40319">
        <ele>234.5</ele>
        <time>2021-09-05T12:53:58Z</time>
      </trkpt>
      <trkpt lat="44.49638" lon="1.40316">
        <ele>233.3</ele>
        <time>2021-09-05T12:53:59Z</time>
      </trkpt>
      <trkpt lat="44.49636" lon="1.40312">
        <ele>233.5</ele>
        <time>2021-09-05T12:54:01Z</time>
      </trkpt>
      <trkpt lat="44.49634" lon="1.40309">
        <ele>232</ele>
        <time>2021-09-05T12:54:02Z</time>
      </trkpt>
      <trkpt lat="44.49632" lon="1.40305">
        <ele>231</ele>
        <time>2021-09-05T12:54:04Z</time>
      </trkpt>
      <trkpt lat="44.49629" lon="1.40301">
        <ele>230.1</ele>
        <time>2021-09-05T12:54:05Z</time>
      </trkpt>
      <trkpt lat="44.49627" lon="1.40297">
        <ele>230.4</ele>
        <time>2021-09-05T12:54:06Z</time>
      </trkpt>
      <trkpt lat="44.49624" lon="1.40292">
        <ele>229.7</ele>
        <time>2021-09-05T12:54:08Z</time>
      </trkpt>
      <trkpt lat="44.49623" lon="1.4029">
        <ele>230.1</ele>
        <time>2021-09-05T12:54:09Z</time>
      </trkpt>
      <trkpt lat="44.49622" lon="1.40288">
        <ele>228.9</ele>
        <time>2021-09-05T12:54:10Z</time>
      </trkpt>
      <trkpt lat="44.49621" lon="1.40283">
        <ele>229.4</ele>
        <time>2021-09-05T12:54:11Z</time>
      </trkpt>
      <trkpt lat="44.4962" lon="1.40281">
        <ele>228.7</ele>
        <time>2021-09-05T12:54:12Z</time>
      </trkpt>
      <trkpt lat="44.49618" lon="1.40274">
        <ele>229.2</ele>
        <time>2021-09-05T12:54:14Z</time>
      </trkpt>
      <trkpt lat="44.49618" lon="1.40272">
        <ele>229.6</ele>
        <time>2021-09-05T12:54:16Z</time>
      </trkpt>
      <trkpt lat="44.49617" lon="1.4027">
        <ele>229.6</ele>
        <time>2021-09-05T12:54:17Z</time>
      </trkpt>
      <trkpt lat="44.49616" lon="1.40266">
        <ele>228.8</ele>
        <time>2021-09-05T12:54:18Z</time>
      </trkpt>
      <trkpt lat="44.49615" lon="1.40263">
        <ele>229.3</ele>
        <time>2021-09-05T12:54:19Z</time>
      </trkpt>
      <trkpt lat="44.49615" lon="1.40259">
        <ele>229.7</ele>
        <time>2021-09-05T12:54:21Z</time>
      </trkpt>
      <trkpt lat="44.49613" lon="1.40254">
        <ele>229</ele>
        <time>2021-09-05T12:54:22Z</time>
      </trkpt>
      <trkpt lat="44.49613" lon="1.40252">
        <ele>229</ele>
        <time>2021-09-05T12:54:23Z</time>
      </trkpt>
      <trkpt lat="44.49612" lon="1.40246">
        <ele>230.1</ele>
        <time>2021-09-05T12:54:25Z</time>
      </trkpt>
      <trkpt lat="44.49612" lon="1.40245">
        <ele>230</ele>
        <time>2021-09-05T12:54:26Z</time>
      </trkpt>
      <trkpt lat="44.49612" lon="1.40243">
        <ele>230.5</ele>
        <time>2021-09-05T12:54:27Z</time>
      </trkpt>
      <trkpt lat="44.49611" lon="1.40239">
        <ele>230.5</ele>
        <time>2021-09-05T12:54:28Z</time>
      </trkpt>
      <trkpt lat="44.49611" lon="1.40235">
        <ele>231</ele>
        <time>2021-09-05T12:54:30Z</time>
      </trkpt>
      <trkpt lat="44.49611" lon="1.40234">
        <ele>230.5</ele>
        <time>2021-09-05T12:54:31Z</time>
      </trkpt>
      <trkpt lat="44.4961" lon="1.40229">
        <ele>231</ele>
        <time>2021-09-05T12:54:32Z</time>
      </trkpt>
      <trkpt lat="44.4961" lon="1.40227">
        <ele>230.9</ele>
        <time>2021-09-05T12:54:33Z</time>
      </trkpt>
      <trkpt lat="44.49608" lon="1.40223">
        <ele>231.4</ele>
        <time>2021-09-05T12:54:35Z</time>
      </trkpt>
      <trkpt lat="44.49608" lon="1.40219">
        <ele>231.1</ele>
        <time>2021-09-05T12:54:36Z</time>
      </trkpt>
      <trkpt lat="44.49607" lon="1.40213">
        <ele>231.6</ele>
        <time>2021-09-05T12:54:38Z</time>
      </trkpt>
      <trkpt lat="44.49606" lon="1.40209">
        <ele>232.1</ele>
        <time>2021-09-05T12:54:40Z</time>
      </trkpt>
      <trkpt lat="44.49605" lon="1.40208">
        <ele>232.6</ele>
        <time>2021-09-05T12:54:41Z</time>
      </trkpt>
      <trkpt lat="44.49604" lon="1.40204">
        <ele>232.6</ele>
        <time>2021-09-05T12:54:43Z</time>
      </trkpt>
      <trkpt lat="44.49604" lon="1.40203">
        <ele>232.5</ele>
        <time>2021-09-05T12:54:44Z</time>
      </trkpt>
      <trkpt lat="44.49602" lon="1.40197">
        <ele>233.1</ele>
        <time>2021-09-05T12:54:46Z</time>
      </trkpt>
      <trkpt lat="44.49601" lon="1.40194">
        <ele>233.1</ele>
        <time>2021-09-05T12:54:47Z</time>
      </trkpt>
      <trkpt lat="44.49601" lon="1.40192">
        <ele>233</ele>
        <time>2021-09-05T12:54:48Z</time>
      </trkpt>
      <trkpt lat="44.49598" lon="1.40186">
        <ele>233.6</ele>
        <time>2021-09-05T12:54:50Z</time>
      </trkpt>
      <trkpt lat="44.49596" lon="1.40184">
        <ele>233.5</ele>
        <time>2021-09-05T12:54:51Z</time>
      </trkpt>
      <trkpt lat="44.49594" lon="1.4018">
        <ele>233.5</ele>
        <time>2021-09-05T12:54:53Z</time>
      </trkpt>
      <trkpt lat="44.49592" lon="1.40175">
        <ele>233.5</ele>
        <time>2021-09-05T12:54:55Z</time>
      </trkpt>
      <trkpt lat="44.4959" lon="1.40172">
        <ele>233.9</ele>
        <time>2021-09-05T12:54:58Z</time>
      </trkpt>
      <trkpt lat="44.49588" lon="1.40169">
        <ele>233.8</ele>
        <time>2021-09-05T12:54:59Z</time>
      </trkpt>
      <trkpt lat="44.49585" lon="1.40166">
        <ele>233.8</ele>
        <time>2021-09-05T12:55:00Z</time>
      </trkpt>
      <trkpt lat="44.49583" lon="1.40162">
        <ele>233.4</ele>
        <time>2021-09-05T12:55:02Z</time>
      </trkpt>
      <trkpt lat="44.49583" lon="1.40161">
        <ele>233.8</ele>
        <time>2021-09-05T12:55:03Z</time>
      </trkpt>
      <trkpt lat="44.49581" lon="1.40158">
        <ele>233.7</ele>
        <time>2021-09-05T12:55:04Z</time>
      </trkpt>
      <trkpt lat="44.4958" lon="1.40156">
        <ele>233.7</ele>
        <time>2021-09-05T12:55:05Z</time>
      </trkpt>
      <trkpt lat="44.49576" lon="1.40152">
        <ele>233.7</ele>
        <time>2021-09-05T12:55:07Z</time>
      </trkpt>
      <trkpt lat="44.49574" lon="1.4015">
        <ele>233.7</ele>
        <time>2021-09-05T12:55:08Z</time>
      </trkpt>
      <trkpt lat="44.49573" lon="1.40148">
        <ele>233.7</ele>
        <time>2021-09-05T12:55:09Z</time>
      </trkpt>
      <trkpt lat="44.49571" lon="1.40146">
        <ele>233.3</ele>
        <time>2021-09-05T12:55:11Z</time>
      </trkpt>
      <trkpt lat="44.49569" lon="1.40144">
        <ele>233.2</ele>
        <time>2021-09-05T12:55:12Z</time>
      </trkpt>
      <trkpt lat="44.49566" lon="1.40142">
        <ele>233.3</ele>
        <time>2021-09-05T12:55:14Z</time>
      </trkpt>
      <trkpt lat="44.49563" lon="1.40141">
        <ele>232.8</ele>
        <time>2021-09-05T12:55:15Z</time>
      </trkpt>
      <trkpt lat="44.49561" lon="1.40138">
        <ele>232.7</ele>
        <time>2021-09-05T12:55:17Z</time>
      </trkpt>
      <trkpt lat="44.49558" lon="1.40137">
        <ele>232.2</ele>
        <time>2021-09-05T12:55:18Z</time>
      </trkpt>
      <trkpt lat="44.49556" lon="1.40136">
        <ele>231.5</ele>
        <time>2021-09-05T12:55:19Z</time>
      </trkpt>
      <trkpt lat="44.49553" lon="1.40135">
        <ele>231.8</ele>
        <time>2021-09-05T12:55:21Z</time>
      </trkpt>
      <trkpt lat="44.49549" lon="1.40135">
        <ele>230.5</ele>
        <time>2021-09-05T12:55:22Z</time>
      </trkpt>
      <trkpt lat="44.49548" lon="1.40135">
        <ele>230.4</ele>
        <time>2021-09-05T12:55:23Z</time>
      </trkpt>
      <trkpt lat="44.49546" lon="1.40135">
        <ele>229.8</ele>
        <time>2021-09-05T12:55:25Z</time>
      </trkpt>
      <trkpt lat="44.49543" lon="1.40134">
        <ele>229.1</ele>
        <time>2021-09-05T12:55:26Z</time>
      </trkpt>
      <trkpt lat="44.49541" lon="1.40135">
        <ele>229.1</ele>
        <time>2021-09-05T12:55:28Z</time>
      </trkpt>
      <trkpt lat="44.4954" lon="1.40134">
        <ele>228.4</ele>
        <time>2021-09-05T12:55:29Z</time>
      </trkpt>
      <trkpt lat="44.49537" lon="1.40133">
        <ele>227.6</ele>
        <time>2021-09-05T12:55:30Z</time>
      </trkpt>
      <trkpt lat="44.49534" lon="1.40132">
        <ele>226.6</ele>
        <time>2021-09-05T12:55:32Z</time>
      </trkpt>
      <trkpt lat="44.49531" lon="1.40131">
        <ele>225.8</ele>
        <time>2021-09-05T12:55:33Z</time>
      </trkpt>
      <trkpt lat="44.49529" lon="1.40129">
        <ele>225.7</ele>
        <time>2021-09-05T12:55:35Z</time>
      </trkpt>
      <trkpt lat="44.49526" lon="1.40128">
        <ele>224.5</ele>
        <time>2021-09-05T12:55:36Z</time>
      </trkpt>
      <trkpt lat="44.49525" lon="1.40127">
        <ele>224.7</ele>
        <time>2021-09-05T12:55:37Z</time>
      </trkpt>
      <trkpt lat="44.49524" lon="1.40124">
        <ele>223.5</ele>
        <time>2021-09-05T12:55:38Z</time>
      </trkpt>
      <trkpt lat="44.49523" lon="1.40121">
        <ele>223.6</ele>
        <time>2021-09-05T12:55:40Z</time>
      </trkpt>
      <trkpt lat="44.49524" lon="1.40116">
        <ele>223.7</ele>
        <time>2021-09-05T12:55:41Z</time>
      </trkpt>
      <trkpt lat="44.49525" lon="1.40112">
        <ele>223.7</ele>
        <time>2021-09-05T12:55:43Z</time>
      </trkpt>
      <trkpt lat="44.49525" lon="1.4011">
        <ele>223.7</ele>
        <time>2021-09-05T12:55:44Z</time>
      </trkpt>
      <trkpt lat="44.49526" lon="1.40106">
        <ele>225</ele>
        <time>2021-09-05T12:55:45Z</time>
      </trkpt>
      <trkpt lat="44.49527" lon="1.40105">
        <ele>225</ele>
        <time>2021-09-05T12:55:46Z</time>
      </trkpt>
      <trkpt lat="44.49526" lon="1.401">
        <ele>225</ele>
        <time>2021-09-05T12:55:48Z</time>
      </trkpt>
      <trkpt lat="44.49525" lon="1.40098">
        <ele>223.6</ele>
        <time>2021-09-05T12:55:50Z</time>
      </trkpt>
      <trkpt lat="44.49523" lon="1.40097">
        <ele>223.5</ele>
        <time>2021-09-05T12:55:52Z</time>
      </trkpt>
      <trkpt lat="44.49522" lon="1.40096">
        <ele>223.4</ele>
        <time>2021-09-05T12:55:53Z</time>
      </trkpt>
      <trkpt lat="44.49521" lon="1.40095">
        <ele>222.1</ele>
        <time>2021-09-05T12:55:55Z</time>
      </trkpt>
      <trkpt lat="44.4952" lon="1.40093">
        <ele>222</ele>
        <time>2021-09-05T12:55:57Z</time>
      </trkpt>
      <trkpt lat="44.49518" lon="1.40092">
        <ele>220.5</ele>
        <time>2021-09-05T12:55:58Z</time>
      </trkpt>
      <trkpt lat="44.49517" lon="1.40091">
        <ele>220.5</ele>
        <time>2021-09-05T12:56:17Z</time>
      </trkpt>
      <trkpt lat="44.49516" lon="1.4009">
        <ele>219</ele>
        <time>2021-09-05T12:56:18Z</time>
      </trkpt>
      <trkpt lat="44.49513" lon="1.40092">
        <ele>218.9</ele>
        <time>2021-09-05T12:56:19Z</time>
      </trkpt>
      <trkpt lat="44.49512" lon="1.40093">
        <ele>217.5</ele>
        <time>2021-09-05T12:56:20Z</time>
      </trkpt>
      <trkpt lat="44.49513" lon="1.40093">
        <ele>217.5</ele>
        <time>2021-09-05T12:56:22Z</time>
      </trkpt>
      <trkpt lat="44.49513" lon="1.40093">
        <ele>217.4</ele>
        <time>2021-09-05T12:56:24Z</time>
      </trkpt>
      <trkpt lat="44.49513" lon="1.40093">
        <ele>217.3</ele>
        <time>2021-09-05T12:56:25Z</time>
      </trkpt>
      <trkpt lat="44.49513" lon="1.40093">
        <ele>217.3</ele>
        <time>2021-09-05T12:56:26Z</time>
      </trkpt>
      <trkpt lat="44.49513" lon="1.40093">
        <ele>217.2</ele>
        <time>2021-09-05T12:56:28Z</time>
      </trkpt>
      <trkpt lat="44.49513" lon="1.40093">
        <ele>217.2</ele>
        <time>2021-09-05T12:56:29Z</time>
      </trkpt>
      <trkpt lat="44.49513" lon="1.40093">
        <ele>216.9</ele>
        <time>2021-09-05T12:56:31Z</time>
      </trkpt>
      <trkpt lat="44.49514" lon="1.401">
        <ele>218.7</ele>
        <time>2021-09-05T12:56:39Z</time>
      </trkpt>
      <trkpt lat="44.49515" lon="1.40102">
        <ele>218.7</ele>
        <time>2021-09-05T12:56:40Z</time>
      </trkpt>
      <trkpt lat="44.49516" lon="1.40101">
        <ele>219.9</ele>
        <time>2021-09-05T12:56:41Z</time>
      </trkpt>
      <trkpt lat="44.49517" lon="1.40099">
        <ele>219.9</ele>
        <time>2021-09-05T12:56:42Z</time>
      </trkpt>
      <trkpt lat="44.49519" lon="1.40098">
        <ele>219.8</ele>
        <time>2021-09-05T12:56:43Z</time>
      </trkpt>
      <trkpt lat="44.49519" lon="1.40099">
        <ele>221</ele>
        <time>2021-09-05T12:56:45Z</time>
      </trkpt>
      <trkpt lat="44.49521" lon="1.40102">
        <ele>221</ele>
        <time>2021-09-05T12:56:46Z</time>
      </trkpt>
      <trkpt lat="44.49524" lon="1.401">
        <ele>222.2</ele>
        <time>2021-09-05T12:56:47Z</time>
      </trkpt>
      <trkpt lat="44.49525" lon="1.40099">
        <ele>222.1</ele>
        <time>2021-09-05T12:56:49Z</time>
      </trkpt>
      <trkpt lat="44.49525" lon="1.40097">
        <ele>223.3</ele>
        <time>2021-09-05T12:56:50Z</time>
      </trkpt>
      <trkpt lat="44.49526" lon="1.40096">
        <ele>223.3</ele>
        <time>2021-09-05T12:56:52Z</time>
      </trkpt>
      <trkpt lat="44.49526" lon="1.40094">
        <ele>223.2</ele>
        <time>2021-09-05T12:56:53Z</time>
      </trkpt>
      <trkpt lat="44.49527" lon="1.40093">
        <ele>223.1</ele>
        <time>2021-09-05T12:56:54Z</time>
      </trkpt>
      <trkpt lat="44.49528" lon="1.40091">
        <ele>223</ele>
        <time>2021-09-05T12:56:55Z</time>
      </trkpt>
      <trkpt lat="44.49528" lon="1.4009">
        <ele>224.3</ele>
        <time>2021-09-05T12:56:57Z</time>
      </trkpt>
      <trkpt lat="44.49529" lon="1.40088">
        <ele>224.1</ele>
        <time>2021-09-05T12:59:26Z</time>
      </trkpt>
      <trkpt lat="44.49529" lon="1.40087">
        <ele>224</ele>
        <time>2021-09-05T12:59:27Z</time>
      </trkpt>
      <trkpt lat="44.4953" lon="1.40085">
        <ele>224</ele>
        <time>2021-09-05T12:59:28Z</time>
      </trkpt>
      <trkpt lat="44.49532" lon="1.4008">
        <ele>225</ele>
        <time>2021-09-05T12:59:29Z</time>
      </trkpt>
      <trkpt lat="44.49533" lon="1.40074">
        <ele>224.6</ele>
        <time>2021-09-05T12:59:31Z</time>
      </trkpt>
      <trkpt lat="44.49534" lon="1.40072">
        <ele>224.5</ele>
        <time>2021-09-05T12:59:32Z</time>
      </trkpt>
      <trkpt lat="44.49534" lon="1.4007">
        <ele>224.2</ele>
        <time>2021-09-05T12:59:33Z</time>
      </trkpt>
      <trkpt lat="44.49534" lon="1.40068">
        <ele>225.3</ele>
        <time>2021-09-05T12:59:35Z</time>
      </trkpt>
      <trkpt lat="44.49534" lon="1.40065">
        <ele>224.9</ele>
        <time>2021-09-05T12:59:36Z</time>
      </trkpt>
      <trkpt lat="44.49535" lon="1.40062">
        <ele>224.5</ele>
        <time>2021-09-05T12:59:37Z</time>
      </trkpt>
      <trkpt lat="44.49535" lon="1.40058">
        <ele>224.1</ele>
        <time>2021-09-05T12:59:39Z</time>
      </trkpt>
      <trkpt lat="44.49536" lon="1.40053">
        <ele>223.6</ele>
        <time>2021-09-05T12:59:40Z</time>
      </trkpt>
      <trkpt lat="44.49537" lon="1.40051">
        <ele>223.5</ele>
        <time>2021-09-05T12:59:41Z</time>
      </trkpt>
      <trkpt lat="44.49538" lon="1.40045">
        <ele>223.5</ele>
        <time>2021-09-05T12:59:42Z</time>
      </trkpt>
      <trkpt lat="44.49541" lon="1.4004">
        <ele>223.9</ele>
        <time>2021-09-05T12:59:44Z</time>
      </trkpt>
      <trkpt lat="44.49542" lon="1.40038">
        <ele>223.8</ele>
        <time>2021-09-05T12:59:45Z</time>
      </trkpt>
      <trkpt lat="44.49543" lon="1.40037">
        <ele>223.2</ele>
        <time>2021-09-05T12:59:46Z</time>
      </trkpt>
      <trkpt lat="44.49544" lon="1.40035">
        <ele>224</ele>
        <time>2021-09-05T12:59:47Z</time>
      </trkpt>
      <trkpt lat="44.49546" lon="1.40035">
        <ele>223.9</ele>
        <time>2021-09-05T12:59:48Z</time>
      </trkpt>
      <trkpt lat="44.49549" lon="1.40035">
        <ele>224.7</ele>
        <time>2021-09-05T12:59:50Z</time>
      </trkpt>
      <trkpt lat="44.4955" lon="1.40034">
        <ele>225.5</ele>
        <time>2021-09-05T12:59:51Z</time>
      </trkpt>
      <trkpt lat="44.49553" lon="1.40033">
        <ele>226.3</ele>
        <time>2021-09-05T12:59:53Z</time>
      </trkpt>
      <trkpt lat="44.49554" lon="1.40033">
        <ele>226.2</ele>
        <time>2021-09-05T12:59:54Z</time>
      </trkpt>
      <trkpt lat="44.49557" lon="1.40033">
        <ele>226.5</ele>
        <time>2021-09-05T12:59:55Z</time>
      </trkpt>
      <trkpt lat="44.49558" lon="1.40032">
        <ele>226.4</ele>
        <time>2021-09-05T12:59:56Z</time>
      </trkpt>
      <trkpt lat="44.49562" lon="1.40031">
        <ele>227</ele>
        <time>2021-09-05T12:59:58Z</time>
      </trkpt>
      <trkpt lat="44.49563" lon="1.40031">
        <ele>227.5</ele>
        <time>2021-09-05T12:59:59Z</time>
      </trkpt>
      <trkpt lat="44.49566" lon="1.40032">
        <ele>227.9</ele>
        <time>2021-09-05T13:00:00Z</time>
      </trkpt>
      <trkpt lat="44.49567" lon="1.40032">
        <ele>227.8</ele>
        <time>2021-09-05T13:00:01Z</time>
      </trkpt>
      <trkpt lat="44.4957" lon="1.40034">
        <ele>228.4</ele>
        <time>2021-09-05T13:00:02Z</time>
      </trkpt>
      <trkpt lat="44.49573" lon="1.40035">
        <ele>228.7</ele>
        <time>2021-09-05T13:00:04Z</time>
      </trkpt>
      <trkpt lat="44.49576" lon="1.40039">
        <ele>229.2</ele>
        <time>2021-09-05T13:00:05Z</time>
      </trkpt>
      <trkpt lat="44.49578" lon="1.40042">
        <ele>229.7</ele>
        <time>2021-09-05T13:00:07Z</time>
      </trkpt>
      <trkpt lat="44.49581" lon="1.40045">
        <ele>229.9</ele>
        <time>2021-09-05T13:00:08Z</time>
      </trkpt>
      <trkpt lat="44.49584" lon="1.40048">
        <ele>230.3</ele>
        <time>2021-09-05T13:00:09Z</time>
      </trkpt>
      <trkpt lat="44.49584" lon="1.4005">
        <ele>230.3</ele>
        <time>2021-09-05T13:00:10Z</time>
      </trkpt>
      <trkpt lat="44.49587" lon="1.40053">
        <ele>230.7</ele>
        <time>2021-09-05T13:00:12Z</time>
      </trkpt>
      <trkpt lat="44.4959" lon="1.40058">
        <ele>231</ele>
        <time>2021-09-05T13:00:13Z</time>
      </trkpt>
      <trkpt lat="44.49592" lon="1.4006">
        <ele>231.3</ele>
        <time>2021-09-05T13:00:15Z</time>
      </trkpt>
      <trkpt lat="44.49596" lon="1.40062">
        <ele>231.3</ele>
        <time>2021-09-05T13:00:16Z</time>
      </trkpt>
      <trkpt lat="44.49599" lon="1.40063">
        <ele>231.5</ele>
        <time>2021-09-05T13:00:17Z</time>
      </trkpt>
      <trkpt lat="44.49601" lon="1.40063">
        <ele>231.4</ele>
        <time>2021-09-05T13:00:18Z</time>
      </trkpt>
      <trkpt lat="44.49603" lon="1.40064">
        <ele>231.4</ele>
        <time>2021-09-05T13:00:20Z</time>
      </trkpt>
      <trkpt lat="44.49607" lon="1.40066">
        <ele>231.3</ele>
        <time>2021-09-05T13:00:21Z</time>
      </trkpt>
      <trkpt lat="44.4961" lon="1.4007">
        <ele>231.4</ele>
        <time>2021-09-05T13:00:22Z</time>
      </trkpt>
      <trkpt lat="44.49611" lon="1.4007">
        <ele>231.3</ele>
        <time>2021-09-05T13:00:23Z</time>
      </trkpt>
      <trkpt lat="44.49612" lon="1.4007">
        <ele>231.2</ele>
        <time>2021-09-05T13:00:25Z</time>
      </trkpt>
      <trkpt lat="44.49614" lon="1.4007">
        <ele>231.2</ele>
        <time>2021-09-05T13:00:26Z</time>
      </trkpt>
      <trkpt lat="44.49615" lon="1.4007">
        <ele>231.1</ele>
        <time>2021-09-05T13:00:27Z</time>
      </trkpt>
      <trkpt lat="44.49617" lon="1.4007">
        <ele>231</ele>
        <time>2021-09-05T13:00:28Z</time>
      </trkpt>
      <trkpt lat="44.49619" lon="1.40069">
        <ele>230.9</ele>
        <time>2021-09-05T13:00:30Z</time>
      </trkpt>
      <trkpt lat="44.49621" lon="1.40069">
        <ele>230.8</ele>
        <time>2021-09-05T13:00:32Z</time>
      </trkpt>
      <trkpt lat="44.49623" lon="1.4007">
        <ele>230.8</ele>
        <time>2021-09-05T13:00:33Z</time>
      </trkpt>
      <trkpt lat="44.49625" lon="1.40072">
        <ele>230.9</ele>
        <time>2021-09-05T13:00:35Z</time>
      </trkpt>
      <trkpt lat="44.49629" lon="1.40073">
        <ele>230.8</ele>
        <time>2021-09-05T13:00:37Z</time>
      </trkpt>
      <trkpt lat="44.49629" lon="1.40072">
        <ele>230.7</ele>
        <time>2021-09-05T13:00:38Z</time>
      </trkpt>
      <trkpt lat="44.49633" lon="1.40072">
        <ele>230.7</ele>
        <time>2021-09-05T13:00:41Z</time>
      </trkpt>
      <trkpt lat="44.49638" lon="1.40073">
        <ele>230.7</ele>
        <time>2021-09-05T13:00:43Z</time>
      </trkpt>
      <trkpt lat="44.4964" lon="1.40074">
        <ele>230.7</ele>
        <time>2021-09-05T13:00:44Z</time>
      </trkpt>
      <trkpt lat="44.49642" lon="1.40076">
        <ele>230.8</ele>
        <time>2021-09-05T13:00:46Z</time>
      </trkpt>
      <trkpt lat="44.49645" lon="1.40077">
        <ele>230.9</ele>
        <time>2021-09-05T13:00:47Z</time>
      </trkpt>
      <trkpt lat="44.49646" lon="1.40077">
        <ele>230.8</ele>
        <time>2021-09-05T13:00:49Z</time>
      </trkpt>
      <trkpt lat="44.49646" lon="1.40077">
        <ele>230.7</ele>
        <time>2021-09-05T13:00:51Z</time>
      </trkpt>
      <trkpt lat="44.49648" lon="1.40077">
        <ele>230.8</ele>
        <time>2021-09-05T13:00:53Z</time>
      </trkpt>
      <trkpt lat="44.4965" lon="1.40077">
        <ele>230.7</ele>
        <time>2021-09-05T13:00:54Z</time>
      </trkpt>
      <trkpt lat="44.49655" lon="1.40077">
        <ele>230.8</ele>
        <time>2021-09-05T13:00:56Z</time>
      </trkpt>
      <trkpt lat="44.49658" lon="1.40079">
        <ele>230.8</ele>
        <time>2021-09-05T13:00:57Z</time>
      </trkpt>
      <trkpt lat="44.49661" lon="1.40083">
        <ele>231.1</ele>
        <time>2021-09-05T13:00:58Z</time>
      </trkpt>
      <trkpt lat="44.49663" lon="1.40085">
        <ele>231.3</ele>
        <time>2021-09-05T13:00:59Z</time>
      </trkpt>
      <trkpt lat="44.49665" lon="1.40089">
        <ele>231.6</ele>
        <time>2021-09-05T13:01:01Z</time>
      </trkpt>
      <trkpt lat="44.49668" lon="1.40092">
        <ele>231.9</ele>
        <time>2021-09-05T13:01:02Z</time>
      </trkpt>
      <trkpt lat="44.49669" lon="1.40095">
        <ele>232.1</ele>
        <time>2021-09-05T13:01:03Z</time>
      </trkpt>
      <trkpt lat="44.49672" lon="1.40099">
        <ele>232.4</ele>
        <time>2021-09-05T13:01:05Z</time>
      </trkpt>
      <trkpt lat="44.49674" lon="1.401">
        <ele>232.5</ele>
        <time>2021-09-05T13:01:06Z</time>
      </trkpt>
      <trkpt lat="44.49675" lon="1.40101">
        <ele>232.7</ele>
        <time>2021-09-05T13:01:08Z</time>
      </trkpt>
      <trkpt lat="44.49678" lon="1.40104">
        <ele>232.9</ele>
        <time>2021-09-05T13:01:09Z</time>
      </trkpt>
      <trkpt lat="44.4968" lon="1.40107">
        <ele>233.1</ele>
        <time>2021-09-05T13:01:11Z</time>
      </trkpt>
      <trkpt lat="44.49681" lon="1.40109">
        <ele>233.2</ele>
        <time>2021-09-05T13:01:12Z</time>
      </trkpt>
      <trkpt lat="44.49682" lon="1.40111">
        <ele>233.4</ele>
        <time>2021-09-05T13:01:13Z</time>
      </trkpt>
      <trkpt lat="44.49684" lon="1.40113">
        <ele>233.6</ele>
        <time>2021-09-05T13:01:15Z</time>
      </trkpt>
      <trkpt lat="44.49686" lon="1.40115">
        <ele>233.8</ele>
        <time>2021-09-05T13:01:16Z</time>
      </trkpt>
      <trkpt lat="44.49687" lon="1.40117">
        <ele>234</ele>
        <time>2021-09-05T13:01:18Z</time>
      </trkpt>
      <trkpt lat="44.49688" lon="1.40119">
        <ele>234.1</ele>
        <time>2021-09-05T13:01:19Z</time>
      </trkpt>
      <trkpt lat="44.49691" lon="1.40123">
        <ele>234.4</ele>
        <time>2021-09-05T13:01:21Z</time>
      </trkpt>
      <trkpt lat="44.49694" lon="1.40126">
        <ele>234.7</ele>
        <time>2021-09-05T13:01:22Z</time>
      </trkpt>
      <trkpt lat="44.49698" lon="1.40131">
        <ele>235.1</ele>
        <time>2021-09-05T13:01:24Z</time>
      </trkpt>
      <trkpt lat="44.49699" lon="1.40132">
        <ele>235.2</ele>
        <time>2021-09-05T13:01:25Z</time>
      </trkpt>
      <trkpt lat="44.49701" lon="1.40133">
        <ele>235.3</ele>
        <time>2021-09-05T13:01:26Z</time>
      </trkpt>
      <trkpt lat="44.49703" lon="1.40135">
        <ele>235.5</ele>
        <time>2021-09-05T13:01:27Z</time>
      </trkpt>
      <trkpt lat="44.49705" lon="1.40138">
        <ele>235.7</ele>
        <time>2021-09-05T13:01:29Z</time>
      </trkpt>
      <trkpt lat="44.49708" lon="1.40141">
        <ele>236.1</ele>
        <time>2021-09-05T13:01:30Z</time>
      </trkpt>
      <trkpt lat="44.49709" lon="1.40142">
        <ele>236.2</ele>
        <time>2021-09-05T13:01:31Z</time>
      </trkpt>
      <trkpt lat="44.49712" lon="1.40144">
        <ele>236.4</ele>
        <time>2021-09-05T13:01:32Z</time>
      </trkpt>
      <trkpt lat="44.49715" lon="1.40146">
        <ele>236.6</ele>
        <time>2021-09-05T13:01:35Z</time>
      </trkpt>
      <trkpt lat="44.49716" lon="1.40146">
        <ele>236.7</ele>
        <time>2021-09-05T13:01:36Z</time>
      </trkpt>
      <trkpt lat="44.49717" lon="1.40146">
        <ele>236.9</ele>
        <time>2021-09-05T13:01:37Z</time>
      </trkpt>
      <trkpt lat="44.49718" lon="1.40146">
        <ele>237</ele>
        <time>2021-09-05T13:01:38Z</time>
      </trkpt>
      <trkpt lat="44.49719" lon="1.40146">
        <ele>237.1</ele>
        <time>2021-09-05T13:01:40Z</time>
      </trkpt>
      <trkpt lat="44.4972" lon="1.40146">
        <ele>237.2</ele>
        <time>2021-09-05T13:01:41Z</time>
      </trkpt>
      <trkpt lat="44.49721" lon="1.40146">
        <ele>237.2</ele>
        <time>2021-09-05T13:01:42Z</time>
      </trkpt>
      <trkpt lat="44.49724" lon="1.40143">
        <ele>237.6</ele>
        <time>2021-09-05T13:01:43Z</time>
      </trkpt>
      <trkpt lat="44.49727" lon="1.4014">
        <ele>237.9</ele>
        <time>2021-09-05T13:01:44Z</time>
      </trkpt>
      <trkpt lat="44.49729" lon="1.40138">
        <ele>238.1</ele>
        <time>2021-09-05T13:01:45Z</time>
      </trkpt>
      <trkpt lat="44.49732" lon="1.40137">
        <ele>238.3</ele>
        <time>2021-09-05T13:01:47Z</time>
      </trkpt>
      <trkpt lat="44.49734" lon="1.40135">
        <ele>238.6</ele>
        <time>2021-09-05T13:01:48Z</time>
      </trkpt>
      <trkpt lat="44.49737" lon="1.40134">
        <ele>238.9</ele>
        <time>2021-09-05T13:01:50Z</time>
      </trkpt>
      <trkpt lat="44.49738" lon="1.40133">
        <ele>239</ele>
        <time>2021-09-05T13:01:51Z</time>
      </trkpt>
      <trkpt lat="44.49741" lon="1.40132">
        <ele>239.2</ele>
        <time>2021-09-05T13:01:52Z</time>
      </trkpt>
      <trkpt lat="44.49742" lon="1.40131">
        <ele>239.3</ele>
        <time>2021-09-05T13:01:53Z</time>
      </trkpt>
      <trkpt lat="44.49745" lon="1.4013">
        <ele>239.6</ele>
        <time>2021-09-05T13:01:55Z</time>
      </trkpt>
      <trkpt lat="44.49746" lon="1.4013">
        <ele>239.8</ele>
        <time>2021-09-05T13:01:56Z</time>
      </trkpt>
      <trkpt lat="44.49749" lon="1.40128">
        <ele>240</ele>
        <time>2021-09-05T13:01:58Z</time>
      </trkpt>
      <trkpt lat="44.49753" lon="1.40127">
        <ele>240.4</ele>
        <time>2021-09-05T13:01:59Z</time>
      </trkpt>
      <trkpt lat="44.49757" lon="1.40126">
        <ele>240.7</ele>
        <time>2021-09-05T13:02:01Z</time>
      </trkpt>
      <trkpt lat="44.49761" lon="1.40125">
        <ele>241.1</ele>
        <time>2021-09-05T13:02:02Z</time>
      </trkpt>
      <trkpt lat="44.49762" lon="1.40125">
        <ele>241.1</ele>
        <time>2021-09-05T13:02:03Z</time>
      </trkpt>
      <trkpt lat="44.49765" lon="1.40125">
        <ele>241.4</ele>
        <time>2021-09-05T13:02:05Z</time>
      </trkpt>
      <trkpt lat="44.49767" lon="1.40124">
        <ele>241.6</ele>
        <time>2021-09-05T13:02:07Z</time>
      </trkpt>
      <trkpt lat="44.49769" lon="1.40124">
        <ele>241.7</ele>
        <time>2021-09-05T13:02:08Z</time>
      </trkpt>
      <trkpt lat="44.49772" lon="1.40124">
        <ele>242</ele>
        <time>2021-09-05T13:02:10Z</time>
      </trkpt>
      <trkpt lat="44.49776" lon="1.40124">
        <ele>242.3</ele>
        <time>2021-09-05T13:02:11Z</time>
      </trkpt>
      <trkpt lat="44.49777" lon="1.40124">
        <ele>242.4</ele>
        <time>2021-09-05T13:02:12Z</time>
      </trkpt>
      <trkpt lat="44.4978" lon="1.40124">
        <ele>242.6</ele>
        <time>2021-09-05T13:02:13Z</time>
      </trkpt>
      <trkpt lat="44.49784" lon="1.40124">
        <ele>242.9</ele>
        <time>2021-09-05T13:02:15Z</time>
      </trkpt>
      <trkpt lat="44.49785" lon="1.40125">
        <ele>243</ele>
        <time>2021-09-05T13:02:16Z</time>
      </trkpt>
      <trkpt lat="44.49788" lon="1.40125">
        <ele>243.2</ele>
        <time>2021-09-05T13:02:17Z</time>
      </trkpt>
      <trkpt lat="44.49791" lon="1.40126">
        <ele>243.4</ele>
        <time>2021-09-05T13:02:19Z</time>
      </trkpt>
      <trkpt lat="44.49794" lon="1.40127">
        <ele>243.6</ele>
        <time>2021-09-05T13:02:20Z</time>
      </trkpt>
      <trkpt lat="44.49797" lon="1.40127">
        <ele>243.8</ele>
        <time>2021-09-05T13:02:22Z</time>
      </trkpt>
      <trkpt lat="44.49799" lon="1.40129">
        <ele>244</ele>
        <time>2021-09-05T13:02:23Z</time>
      </trkpt>
      <trkpt lat="44.49802" lon="1.4013">
        <ele>244.3</ele>
        <time>2021-09-05T13:02:25Z</time>
      </trkpt>
      <trkpt lat="44.49805" lon="1.40132">
        <ele>244.5</ele>
        <time>2021-09-05T13:02:26Z</time>
      </trkpt>
      <trkpt lat="44.49809" lon="1.40135">
        <ele>244.8</ele>
        <time>2021-09-05T13:02:28Z</time>
      </trkpt>
      <trkpt lat="44.49814" lon="1.40137">
        <ele>245.2</ele>
        <time>2021-09-05T13:02:30Z</time>
      </trkpt>
      <trkpt lat="44.49816" lon="1.40138">
        <ele>245.4</ele>
        <time>2021-09-05T13:02:31Z</time>
      </trkpt>
      <trkpt lat="44.49818" lon="1.40141">
        <ele>245.6</ele>
        <time>2021-09-05T13:02:33Z</time>
      </trkpt>
      <trkpt lat="44.49819" lon="1.40143">
        <ele>245.8</ele>
        <time>2021-09-05T13:02:34Z</time>
      </trkpt>
      <trkpt lat="44.49823" lon="1.40145">
        <ele>246</ele>
        <time>2021-09-05T13:02:35Z</time>
      </trkpt>
      <trkpt lat="44.49824" lon="1.40146">
        <ele>246.2</ele>
        <time>2021-09-05T13:02:36Z</time>
      </trkpt>
      <trkpt lat="44.49826" lon="1.40149">
        <ele>246.4</ele>
        <time>2021-09-05T13:02:38Z</time>
      </trkpt>
      <trkpt lat="44.49827" lon="1.4015">
        <ele>246.6</ele>
        <time>2021-09-05T13:02:39Z</time>
      </trkpt>
      <trkpt lat="44.49829" lon="1.40154">
        <ele>246.8</ele>
        <time>2021-09-05T13:02:40Z</time>
      </trkpt>
      <trkpt lat="44.49832" lon="1.40156">
        <ele>247.1</ele>
        <time>2021-09-05T13:02:41Z</time>
      </trkpt>
      <trkpt lat="44.49834" lon="1.40159">
        <ele>247.3</ele>
        <time>2021-09-05T13:02:42Z</time>
      </trkpt>
      <trkpt lat="44.49836" lon="1.40162">
        <ele>247.5</ele>
        <time>2021-09-05T13:02:43Z</time>
      </trkpt>
      <trkpt lat="44.49839" lon="1.40164">
        <ele>247.8</ele>
        <time>2021-09-05T13:02:45Z</time>
      </trkpt>
      <trkpt lat="44.4984" lon="1.40165">
        <ele>247.9</ele>
        <time>2021-09-05T13:02:46Z</time>
      </trkpt>
      <trkpt lat="44.49842" lon="1.40169">
        <ele>248.2</ele>
        <time>2021-09-05T13:02:47Z</time>
      </trkpt>
      <trkpt lat="44.49843" lon="1.4017">
        <ele>248.4</ele>
        <time>2021-09-05T13:02:48Z</time>
      </trkpt>
      <trkpt lat="44.49845" lon="1.40173">
        <ele>248.6</ele>
        <time>2021-09-05T13:02:49Z</time>
      </trkpt>
      <trkpt lat="44.49848" lon="1.40176">
        <ele>248.9</ele>
        <time>2021-09-05T13:02:51Z</time>
      </trkpt>
      <trkpt lat="44.49849" lon="1.40177">
        <ele>249</ele>
        <time>2021-09-05T13:02:52Z</time>
      </trkpt>
      <trkpt lat="44.49852" lon="1.40181">
        <ele>249.3</ele>
        <time>2021-09-05T13:02:53Z</time>
      </trkpt>
      <trkpt lat="44.49854" lon="1.40184">
        <ele>249.6</ele>
        <time>2021-09-05T13:02:54Z</time>
      </trkpt>
      <trkpt lat="44.49856" lon="1.40188">
        <ele>249.9</ele>
        <time>2021-09-05T13:02:56Z</time>
      </trkpt>
      <trkpt lat="44.49857" lon="1.40193">
        <ele>250.2</ele>
        <time>2021-09-05T13:02:57Z</time>
      </trkpt>
      <trkpt lat="44.49858" lon="1.40194">
        <ele>250.3</ele>
        <time>2021-09-05T13:02:58Z</time>
      </trkpt>
      <trkpt lat="44.49859" lon="1.40199">
        <ele>250.6</ele>
        <time>2021-09-05T13:03:00Z</time>
      </trkpt>
      <trkpt lat="44.4986" lon="1.40201">
        <ele>250.9</ele>
        <time>2021-09-05T13:03:01Z</time>
      </trkpt>
      <trkpt lat="44.49862" lon="1.40206">
        <ele>251.3</ele>
        <time>2021-09-05T13:03:03Z</time>
      </trkpt>
      <trkpt lat="44.49863" lon="1.40208">
        <ele>251.4</ele>
        <time>2021-09-05T13:03:04Z</time>
      </trkpt>
      <trkpt lat="44.49865" lon="1.40211">
        <ele>251.7</ele>
        <time>2021-09-05T13:03:05Z</time>
      </trkpt>
      <trkpt lat="44.49866" lon="1.40215">
        <ele>252</ele>
        <time>2021-09-05T13:03:07Z</time>
      </trkpt>
      <trkpt lat="44.49866" lon="1.40219">
        <ele>252.3</ele>
        <time>2021-09-05T13:03:08Z</time>
      </trkpt>
      <trkpt lat="44.49866" lon="1.40222">
        <ele>252.5</ele>
        <time>2021-09-05T13:03:09Z</time>
      </trkpt>
      <trkpt lat="44.49867" lon="1.40226">
        <ele>252.7</ele>
        <time>2021-09-05T13:03:10Z</time>
      </trkpt>
      <trkpt lat="44.49868" lon="1.4023">
        <ele>253.1</ele>
        <time>2021-09-05T13:03:12Z</time>
      </trkpt>
      <trkpt lat="44.49868" lon="1.40233">
        <ele>253.3</ele>
        <time>2021-09-05T13:03:13Z</time>
      </trkpt>
      <trkpt lat="44.49869" lon="1.40238">
        <ele>253.5</ele>
        <time>2021-09-05T13:03:15Z</time>
      </trkpt>
      <trkpt lat="44.4987" lon="1.40246">
        <ele>254.1</ele>
        <time>2021-09-05T13:03:17Z</time>
      </trkpt>
      <trkpt lat="44.4987" lon="1.40251">
        <ele>254.3</ele>
        <time>2021-09-05T13:03:19Z</time>
      </trkpt>
      <trkpt lat="44.4987" lon="1.40255">
        <ele>254.5</ele>
        <time>2021-09-05T13:03:20Z</time>
      </trkpt>
      <trkpt lat="44.4987" lon="1.4026">
        <ele>254.8</ele>
        <time>2021-09-05T13:03:22Z</time>
      </trkpt>
      <trkpt lat="44.49869" lon="1.40265">
        <ele>255</ele>
        <time>2021-09-05T13:03:24Z</time>
      </trkpt>
      <trkpt lat="44.49869" lon="1.4027">
        <ele>255.3</ele>
        <time>2021-09-05T13:03:25Z</time>
      </trkpt>
      <trkpt lat="44.4987" lon="1.40272">
        <ele>255.4</ele>
        <time>2021-09-05T13:03:26Z</time>
      </trkpt>
      <trkpt lat="44.49868" lon="1.40279">
        <ele>255.8</ele>
        <time>2021-09-05T13:03:28Z</time>
      </trkpt>
      <trkpt lat="44.49869" lon="1.4028">
        <ele>255.9</ele>
        <time>2021-09-05T13:03:29Z</time>
      </trkpt>
      <trkpt lat="44.49869" lon="1.40282">
        <ele>256</ele>
        <time>2021-09-05T13:03:30Z</time>
      </trkpt>
      <trkpt lat="44.49869" lon="1.40286">
        <ele>256.2</ele>
        <time>2021-09-05T13:03:31Z</time>
      </trkpt>
      <trkpt lat="44.49869" lon="1.4029">
        <ele>256.4</ele>
        <time>2021-09-05T13:03:32Z</time>
      </trkpt>
      <trkpt lat="44.49869" lon="1.40295">
        <ele>256.6</ele>
        <time>2021-09-05T13:03:34Z</time>
      </trkpt>
      <trkpt lat="44.49868" lon="1.40301">
        <ele>257</ele>
        <time>2021-09-05T13:03:35Z</time>
      </trkpt>
      <trkpt lat="44.49868" lon="1.40303">
        <ele>257.1</ele>
        <time>2021-09-05T13:03:37Z</time>
      </trkpt>
      <trkpt lat="44.49867" lon="1.40305">
        <ele>257.2</ele>
        <time>2021-09-05T13:03:38Z</time>
      </trkpt>
      <trkpt lat="44.49867" lon="1.40311">
        <ele>257.5</ele>
        <time>2021-09-05T13:03:39Z</time>
      </trkpt>
      <trkpt lat="44.49867" lon="1.40314">
        <ele>257.6</ele>
        <time>2021-09-05T13:03:40Z</time>
      </trkpt>
      <trkpt lat="44.49866" lon="1.40318">
        <ele>257.9</ele>
        <time>2021-09-05T13:03:42Z</time>
      </trkpt>
      <trkpt lat="44.49865" lon="1.40322">
        <ele>258.1</ele>
        <time>2021-09-05T13:03:43Z</time>
      </trkpt>
      <trkpt lat="44.49863" lon="1.40327">
        <ele>258.4</ele>
        <time>2021-09-05T13:03:45Z</time>
      </trkpt>
      <trkpt lat="44.49863" lon="1.40332">
        <ele>258.7</ele>
        <time>2021-09-05T13:03:46Z</time>
      </trkpt>
      <trkpt lat="44.49863" lon="1.40335">
        <ele>258.9</ele>
        <time>2021-09-05T13:03:48Z</time>
      </trkpt>
      <trkpt lat="44.49862" lon="1.40336">
        <ele>259</ele>
        <time>2021-09-05T13:03:49Z</time>
      </trkpt>
      <trkpt lat="44.49861" lon="1.40336">
        <ele>259</ele>
        <time>2021-09-05T13:03:50Z</time>
      </trkpt>
      <trkpt lat="44.49861" lon="1.40337">
        <ele>259.1</ele>
        <time>2021-09-05T13:03:52Z</time>
      </trkpt>
      <trkpt lat="44.49861" lon="1.40339">
        <ele>259.2</ele>
        <time>2021-09-05T13:03:54Z</time>
      </trkpt>
      <trkpt lat="44.49861" lon="1.4034">
        <ele>259.3</ele>
        <time>2021-09-05T13:03:56Z</time>
      </trkpt>
      <trkpt lat="44.49861" lon="1.40341">
        <ele>259.4</ele>
        <time>2021-09-05T13:03:57Z</time>
      </trkpt>
      <trkpt lat="44.49861" lon="1.40343">
        <ele>259.4</ele>
        <time>2021-09-05T13:03:59Z</time>
      </trkpt>
      <trkpt lat="44.49861" lon="1.40344">
        <ele>259.5</ele>
        <time>2021-09-05T13:04:49Z</time>
      </trkpt>
      <trkpt lat="44.49861" lon="1.40346">
        <ele>259.6</ele>
        <time>2021-09-05T13:04:51Z</time>
      </trkpt>
      <trkpt lat="44.49861" lon="1.40347">
        <ele>259.7</ele>
        <time>2021-09-05T13:04:52Z</time>
      </trkpt>
      <trkpt lat="44.49861" lon="1.40349">
        <ele>259.8</ele>
        <time>2021-09-05T13:04:54Z</time>
      </trkpt>
      <trkpt lat="44.49861" lon="1.4035">
        <ele>259.9</ele>
        <time>2021-09-05T13:04:56Z</time>
      </trkpt>
      <trkpt lat="44.49861" lon="1.40351">
        <ele>259.9</ele>
        <time>2021-09-05T13:04:57Z</time>
      </trkpt>
      <trkpt lat="44.49861" lon="1.40353">
        <ele>260</ele>
        <time>2021-09-05T13:04:58Z</time>
      </trkpt>
      <trkpt lat="44.49862" lon="1.40354">
        <ele>260.1</ele>
        <time>2021-09-05T13:04:59Z</time>
      </trkpt>
      <trkpt lat="44.49862" lon="1.40356">
        <ele>260.2</ele>
        <time>2021-09-05T13:05:00Z</time>
      </trkpt>
      <trkpt lat="44.49862" lon="1.40357">
        <ele>260.3</ele>
        <time>2021-09-05T13:05:02Z</time>
      </trkpt>
      <trkpt lat="44.49862" lon="1.40359">
        <ele>260.4</ele>
        <time>2021-09-05T13:05:48Z</time>
      </trkpt>
      <trkpt lat="44.49862" lon="1.4036">
        <ele>260.4</ele>
        <time>2021-09-05T13:05:49Z</time>
      </trkpt>
      <trkpt lat="44.49862" lon="1.40365">
        <ele>260.7</ele>
        <time>2021-09-05T13:05:50Z</time>
      </trkpt>
      <trkpt lat="44.49863" lon="1.4037">
        <ele>261</ele>
        <time>2021-09-05T13:05:52Z</time>
      </trkpt>
      <trkpt lat="44.49863" lon="1.40371">
        <ele>261.1</ele>
        <time>2021-09-05T13:05:53Z</time>
      </trkpt>
      <trkpt lat="44.49863" lon="1.40376">
        <ele>261.4</ele>
        <time>2021-09-05T13:05:54Z</time>
      </trkpt>
      <trkpt lat="44.49863" lon="1.40378">
        <ele>261.5</ele>
        <time>2021-09-05T13:05:55Z</time>
      </trkpt>
      <trkpt lat="44.49863" lon="1.40381">
        <ele>261.7</ele>
        <time>2021-09-05T13:05:56Z</time>
      </trkpt>
      <trkpt lat="44.49864" lon="1.40385">
        <ele>262</ele>
        <time>2021-09-05T13:05:58Z</time>
      </trkpt>
      <trkpt lat="44.49865" lon="1.40387">
        <ele>262.1</ele>
        <time>2021-09-05T13:06:00Z</time>
      </trkpt>
      <trkpt lat="44.49866" lon="1.40388">
        <ele>262.2</ele>
        <time>2021-09-05T13:06:02Z</time>
      </trkpt>
      <trkpt lat="44.49867" lon="1.40389">
        <ele>262.3</ele>
        <time>2021-09-05T13:06:03Z</time>
      </trkpt>
      <trkpt lat="44.49868" lon="1.40391">
        <ele>262.5</ele>
        <time>2021-09-05T13:06:04Z</time>
      </trkpt>
      <trkpt lat="44.49869" lon="1.40392">
        <ele>262.6</ele>
        <time>2021-09-05T13:06:06Z</time>
      </trkpt>
      <trkpt lat="44.4987" lon="1.40394">
        <ele>262.7</ele>
        <time>2021-09-05T13:06:07Z</time>
      </trkpt>
      <trkpt lat="44.49871" lon="1.40395">
        <ele>262.8</ele>
        <time>2021-09-05T13:06:08Z</time>
      </trkpt>
      <trkpt lat="44.49872" lon="1.40397">
        <ele>262.9</ele>
        <time>2021-09-05T13:06:10Z</time>
      </trkpt>
      <trkpt lat="44.49873" lon="1.40398">
        <ele>263.1</ele>
        <time>2021-09-05T13:06:12Z</time>
      </trkpt>
      <trkpt lat="44.49874" lon="1.404">
        <ele>263.2</ele>
        <time>2021-09-05T13:06:48Z</time>
      </trkpt>
      <trkpt lat="44.49875" lon="1.40401">
        <ele>263.3</ele>
        <time>2021-09-05T13:06:49Z</time>
      </trkpt>
      <trkpt lat="44.49878" lon="1.40406">
        <ele>263.6</ele>
        <time>2021-09-05T13:06:50Z</time>
      </trkpt>
      <trkpt lat="44.49881" lon="1.4041">
        <ele>264</ele>
        <time>2021-09-05T13:06:52Z</time>
      </trkpt>
      <trkpt lat="44.49885" lon="1.40414">
        <ele>264.4</ele>
        <time>2021-09-05T13:06:53Z</time>
      </trkpt>
      <trkpt lat="44.49886" lon="1.40416">
        <ele>264.5</ele>
        <time>2021-09-05T13:06:54Z</time>
      </trkpt>
      <trkpt lat="44.49889" lon="1.40418">
        <ele>264.8</ele>
        <time>2021-09-05T13:06:55Z</time>
      </trkpt>
      <trkpt lat="44.49893" lon="1.40422">
        <ele>265.2</ele>
        <time>2021-09-05T13:06:57Z</time>
      </trkpt>
      <trkpt lat="44.49894" lon="1.40423">
        <ele>265.3</ele>
        <time>2021-09-05T13:06:58Z</time>
      </trkpt>
      <trkpt lat="44.49897" lon="1.40425">
        <ele>265.6</ele>
        <time>2021-09-05T13:06:59Z</time>
      </trkpt>
      <trkpt lat="44.499" lon="1.40429">
        <ele>265.9</ele>
        <time>2021-09-05T13:07:01Z</time>
      </trkpt>
      <trkpt lat="44.49902" lon="1.40433">
        <ele>266.2</ele>
        <time>2021-09-05T13:07:02Z</time>
      </trkpt>
      <trkpt lat="44.49903" lon="1.40434">
        <ele>266.3</ele>
        <time>2021-09-05T13:07:03Z</time>
      </trkpt>
      <trkpt lat="44.49904" lon="1.40435">
        <ele>266.4</ele>
        <time>2021-09-05T13:07:04Z</time>
      </trkpt>
      <trkpt lat="44.49907" lon="1.40438">
        <ele>266.7</ele>
        <time>2021-09-05T13:07:06Z</time>
      </trkpt>
      <trkpt lat="44.49912" lon="1.4044">
        <ele>267.1</ele>
        <time>2021-09-05T13:07:07Z</time>
      </trkpt>
      <trkpt lat="44.49915" lon="1.40442">
        <ele>267.4</ele>
        <time>2021-09-05T13:07:09Z</time>
      </trkpt>
      <trkpt lat="44.49917" lon="1.40444">
        <ele>267.6</ele>
        <time>2021-09-05T13:07:10Z</time>
      </trkpt>
      <trkpt lat="44.49919" lon="1.40447">
        <ele>267.8</ele>
        <time>2021-09-05T13:07:11Z</time>
      </trkpt>
      <trkpt lat="44.49921" lon="1.40451">
        <ele>268</ele>
        <time>2021-09-05T13:07:13Z</time>
      </trkpt>
      <trkpt lat="44.49922" lon="1.40452">
        <ele>268</ele>
        <time>2021-09-05T13:07:14Z</time>
      </trkpt>
      <trkpt lat="44.49923" lon="1.40455">
        <ele>267.9</ele>
        <time>2021-09-05T13:07:15Z</time>
      </trkpt>
      <trkpt lat="44.49923" lon="1.40457">
        <ele>267.9</ele>
        <time>2021-09-05T13:07:16Z</time>
      </trkpt>
      <trkpt lat="44.49922" lon="1.40458">
        <ele>267.8</ele>
        <time>2021-09-05T13:07:18Z</time>
      </trkpt>
      <trkpt lat="44.49921" lon="1.4046">
        <ele>267.8</ele>
        <time>2021-09-05T13:07:19Z</time>
      </trkpt>
      <trkpt lat="44.4992" lon="1.40462">
        <ele>267.8</ele>
        <time>2021-09-05T13:07:21Z</time>
      </trkpt>
      <trkpt lat="44.4992" lon="1.40463">
        <ele>267.7</ele>
        <time>2021-09-05T13:07:22Z</time>
      </trkpt>
      <trkpt lat="44.49919" lon="1.40464">
        <ele>267.7</ele>
        <time>2021-09-05T13:07:24Z</time>
      </trkpt>
      <trkpt lat="44.49918" lon="1.40465">
        <ele>267.6</ele>
        <time>2021-09-05T13:07:25Z</time>
      </trkpt>
      <trkpt lat="44.49918" lon="1.40466">
        <ele>267.6</ele>
        <time>2021-09-05T13:07:27Z</time>
      </trkpt>
      <trkpt lat="44.49917" lon="1.40466">
        <ele>267.7</ele>
        <time>2021-09-05T13:07:29Z</time>
      </trkpt>
      <trkpt lat="44.49917" lon="1.40467">
        <ele>267.6</ele>
        <time>2021-09-05T13:07:53Z</time>
      </trkpt>
      <trkpt lat="44.49916" lon="1.40468">
        <ele>267.6</ele>
        <time>2021-09-05T13:07:54Z</time>
      </trkpt>
      <trkpt lat="44.49916" lon="1.40469">
        <ele>267.5</ele>
        <time>2021-09-05T13:07:55Z</time>
      </trkpt>
      <trkpt lat="44.49913" lon="1.40472">
        <ele>267.5</ele>
        <time>2021-09-05T13:07:56Z</time>
      </trkpt>
      <trkpt lat="44.49911" lon="1.40477">
        <ele>267.4</ele>
        <time>2021-09-05T13:07:57Z</time>
      </trkpt>
      <trkpt lat="44.49903" lon="1.40475">
        <ele>267.3</ele>
        <time>2021-09-05T13:08:00Z</time>
      </trkpt>
      <trkpt lat="44.49896" lon="1.40472">
        <ele>267.2</ele>
        <time>2021-09-05T13:08:01Z</time>
      </trkpt>
      <trkpt lat="44.4989" lon="1.40468">
        <ele>267.2</ele>
        <time>2021-09-05T13:08:02Z</time>
      </trkpt>
      <trkpt lat="44.49888" lon="1.40464">
        <ele>267.3</ele>
        <time>2021-09-05T13:08:03Z</time>
      </trkpt>
      <trkpt lat="44.49889" lon="1.40458">
        <ele>267.5</ele>
        <time>2021-09-05T13:08:04Z</time>
      </trkpt>
      <trkpt lat="44.49885" lon="1.40456">
        <ele>267.6</ele>
        <time>2021-09-05T13:08:06Z</time>
      </trkpt>
      <trkpt lat="44.49884" lon="1.40456">
        <ele>267.6</ele>
        <time>2021-09-05T13:08:07Z</time>
      </trkpt>
      <trkpt lat="44.4988" lon="1.40458">
        <ele>267.5</ele>
        <time>2021-09-05T13:08:08Z</time>
      </trkpt>
      <trkpt lat="44.49875" lon="1.40462">
        <ele>267.3</ele>
        <time>2021-09-05T13:08:10Z</time>
      </trkpt>
      <trkpt lat="44.49869" lon="1.40466">
        <ele>267.3</ele>
        <time>2021-09-05T13:08:11Z</time>
      </trkpt>
      <trkpt lat="44.49864" lon="1.40468">
        <ele>266.8</ele>
        <time>2021-09-05T13:08:12Z</time>
      </trkpt>
      <trkpt lat="44.4986" lon="1.40469">
        <ele>266.7</ele>
        <time>2021-09-05T13:08:14Z</time>
      </trkpt>
      <trkpt lat="44.49858" lon="1.40469">
        <ele>266.6</ele>
        <time>2021-09-05T13:08:15Z</time>
      </trkpt>
      <trkpt lat="44.49858" lon="1.40469">
        <ele>266.6</ele>
        <time>2021-09-05T13:08:17Z</time>
      </trkpt>
      <trkpt lat="44.49858" lon="1.4047">
        <ele>266.6</ele>
        <time>2021-09-05T13:08:18Z</time>
      </trkpt>
      <trkpt lat="44.49858" lon="1.4047">
        <ele>266.6</ele>
        <time>2021-09-05T13:08:20Z</time>
      </trkpt>
      <trkpt lat="44.49858" lon="1.4047">
        <ele>266.6</ele>
        <time>2021-09-05T13:08:21Z</time>
      </trkpt>
      <trkpt lat="44.49857" lon="1.4047">
        <ele>266.5</ele>
        <time>2021-09-05T13:08:22Z</time>
      </trkpt>
      <trkpt lat="44.49852" lon="1.40473">
        <ele>265.5</ele>
        <time>2021-09-05T13:08:23Z</time>
      </trkpt>
      <trkpt lat="44.49848" lon="1.40477">
        <ele>264.6</ele>
        <time>2021-09-05T13:08:25Z</time>
      </trkpt>
      <trkpt lat="44.49845" lon="1.40481">
        <ele>263.6</ele>
        <time>2021-09-05T13:08:26Z</time>
      </trkpt>
      <trkpt lat="44.49842" lon="1.40483">
        <ele>263.4</ele>
        <time>2021-09-05T13:08:27Z</time>
      </trkpt>
      <trkpt lat="44.49838" lon="1.40484">
        <ele>262.3</ele>
        <time>2021-09-05T13:08:28Z</time>
      </trkpt>
      <trkpt lat="44.49832" lon="1.40485">
        <ele>261.8</ele>
        <time>2021-09-05T13:08:29Z</time>
      </trkpt>
      <trkpt lat="44.49828" lon="1.40488">
        <ele>260.5</ele>
        <time>2021-09-05T13:08:31Z</time>
      </trkpt>
      <trkpt lat="44.49827" lon="1.40491">
        <ele>260.5</ele>
        <time>2021-09-05T13:08:32Z</time>
      </trkpt>
      <trkpt lat="44.49826" lon="1.40494">
        <ele>259.7</ele>
        <time>2021-09-05T13:08:34Z</time>
      </trkpt>
      <trkpt lat="44.49822" lon="1.40496">
        <ele>259.4</ele>
        <time>2021-09-05T13:08:35Z</time>
      </trkpt>
      <trkpt lat="44.4982" lon="1.40499">
        <ele>258.3</ele>
        <time>2021-09-05T13:08:36Z</time>
      </trkpt>
      <trkpt lat="44.49819" lon="1.40501">
        <ele>257</ele>
        <time>2021-09-05T13:08:38Z</time>
      </trkpt>
      <trkpt lat="44.49819" lon="1.405">
        <ele>258.3</ele>
        <time>2021-09-05T13:08:39Z</time>
      </trkpt>
      <trkpt lat="44.49819" lon="1.405">
        <ele>258.3</ele>
        <time>2021-09-05T13:08:41Z</time>
      </trkpt>
      <trkpt lat="44.49819" lon="1.405">
        <ele>258.2</ele>
        <time>2021-09-05T13:08:42Z</time>
      </trkpt>
      <trkpt lat="44.49819" lon="1.405">
        <ele>258.2</ele>
        <time>2021-09-05T13:08:44Z</time>
      </trkpt>
      <trkpt lat="44.49819" lon="1.405">
        <ele>258.2</ele>
        <time>2021-09-05T13:08:46Z</time>
      </trkpt>
      <trkpt lat="44.49818" lon="1.40504">
        <ele>257</ele>
        <time>2021-09-05T13:09:09Z</time>
      </trkpt>
      <trkpt lat="44.49817" lon="1.40509">
        <ele>255.9</ele>
        <time>2021-09-05T13:09:10Z</time>
      </trkpt>
      <trkpt lat="44.49814" lon="1.40516">
        <ele>253.2</ele>
        <time>2021-09-05T13:09:11Z</time>
      </trkpt>
      <trkpt lat="44.49813" lon="1.4052">
        <ele>251.6</ele>
        <time>2021-09-05T13:09:12Z</time>
      </trkpt>
      <trkpt lat="44.49813" lon="1.40523">
        <ele>250.6</ele>
        <time>2021-09-05T13:09:14Z</time>
      </trkpt>
      <trkpt lat="44.49812" lon="1.40525">
        <ele>250.3</ele>
        <time>2021-09-05T13:09:16Z</time>
      </trkpt>
      <trkpt lat="44.49811" lon="1.40526">
        <ele>250.3</ele>
        <time>2021-09-05T13:09:17Z</time>
      </trkpt>
      <trkpt lat="44.49811" lon="1.40527">
        <ele>249</ele>
        <time>2021-09-05T13:09:19Z</time>
      </trkpt>
      <trkpt lat="44.49811" lon="1.40528">
        <ele>249</ele>
        <time>2021-09-05T13:09:20Z</time>
      </trkpt>
      <trkpt lat="44.49811" lon="1.40529">
        <ele>249</ele>
        <time>2021-09-05T13:09:21Z</time>
      </trkpt>
      <trkpt lat="44.49811" lon="1.4053">
        <ele>249</ele>
        <time>2021-09-05T13:09:22Z</time>
      </trkpt>
      <trkpt lat="44.49811" lon="1.40531">
        <ele>249</ele>
        <time>2021-09-05T13:09:23Z</time>
      </trkpt>
      <trkpt lat="44.4981" lon="1.40532">
        <ele>247.7</ele>
        <time>2021-09-05T13:09:24Z</time>
      </trkpt>
      <trkpt lat="44.49808" lon="1.40536">
        <ele>246.2</ele>
        <time>2021-09-05T13:09:26Z</time>
      </trkpt>
      <trkpt lat="44.49808" lon="1.40541">
        <ele>244.9</ele>
        <time>2021-09-05T13:09:27Z</time>
      </trkpt>
      <trkpt lat="44.49807" lon="1.40546">
        <ele>243.6</ele>
        <time>2021-09-05T13:09:28Z</time>
      </trkpt>
      <trkpt lat="44.49807" lon="1.40548">
        <ele>243.6</ele>
        <time>2021-09-05T13:09:29Z</time>
      </trkpt>
      <trkpt lat="44.49806" lon="1.40552">
        <ele>241.9</ele>
        <time>2021-09-05T13:09:31Z</time>
      </trkpt>
      <trkpt lat="44.49805" lon="1.40553">
        <ele>240.5</ele>
        <time>2021-09-05T13:09:32Z</time>
      </trkpt>
      <trkpt lat="44.49802" lon="1.40556">
        <ele>240.2</ele>
        <time>2021-09-05T13:09:33Z</time>
      </trkpt>
      <trkpt lat="44.49802" lon="1.40558">
        <ele>238.7</ele>
        <time>2021-09-05T13:09:35Z</time>
      </trkpt>
      <trkpt lat="44.49801" lon="1.40559">
        <ele>238.7</ele>
        <time>2021-09-05T13:09:37Z</time>
      </trkpt>
      <trkpt lat="44.49801" lon="1.40561">
        <ele>238.7</ele>
        <time>2021-09-05T13:09:38Z</time>
      </trkpt>
      <trkpt lat="44.49801" lon="1.40562">
        <ele>237.2</ele>
        <time>2021-09-05T13:09:39Z</time>
      </trkpt>
      <trkpt lat="44.49801" lon="1.40563">
        <ele>237.2</ele>
        <time>2021-09-05T13:09:40Z</time>
      </trkpt>
      <trkpt lat="44.498" lon="1.40564">
        <ele>236.9</ele>
        <time>2021-09-05T13:09:41Z</time>
      </trkpt>
      <trkpt lat="44.498" lon="1.40566">
        <ele>235.5</ele>
        <time>2021-09-05T13:09:43Z</time>
      </trkpt>
      <trkpt lat="44.498" lon="1.40567">
        <ele>235.5</ele>
        <time>2021-09-05T13:09:44Z</time>
      </trkpt>
      <trkpt lat="44.49797" lon="1.40568">
        <ele>235.3</ele>
        <time>2021-09-05T13:09:45Z</time>
      </trkpt>
      <trkpt lat="44.49793" lon="1.40571">
        <ele>233.7</ele>
        <time>2021-09-05T13:09:46Z</time>
      </trkpt>
      <trkpt lat="44.49792" lon="1.40573">
        <ele>233.7</ele>
        <time>2021-09-05T13:09:47Z</time>
      </trkpt>
      <trkpt lat="44.49789" lon="1.40577">
        <ele>232.3</ele>
        <time>2021-09-05T13:09:49Z</time>
      </trkpt>
      <trkpt lat="44.49789" lon="1.40579">
        <ele>231</ele>
        <time>2021-09-05T13:09:50Z</time>
      </trkpt>
      <trkpt lat="44.49789" lon="1.40581">
        <ele>231</ele>
        <time>2021-09-05T13:09:51Z</time>
      </trkpt>
      <trkpt lat="44.49787" lon="1.40585">
        <ele>229.7</ele>
        <time>2021-09-05T13:09:52Z</time>
      </trkpt>
      <trkpt lat="44.49788" lon="1.4059">
        <ele>228.5</ele>
        <time>2021-09-05T13:09:54Z</time>
      </trkpt>
      <trkpt lat="44.4979" lon="1.40592">
        <ele>227.4</ele>
        <time>2021-09-05T13:09:55Z</time>
      </trkpt>
      <trkpt lat="44.49789" lon="1.40594">
        <ele>227.4</ele>
        <time>2021-09-05T13:09:56Z</time>
      </trkpt>
      <trkpt lat="44.49788" lon="1.40598">
        <ele>226</ele>
        <time>2021-09-05T13:09:58Z</time>
      </trkpt>
      <trkpt lat="44.49787" lon="1.40599">
        <ele>226</ele>
        <time>2021-09-05T13:09:59Z</time>
      </trkpt>
      <trkpt lat="44.49785" lon="1.40601">
        <ele>224.7</ele>
        <time>2021-09-05T13:10:00Z</time>
      </trkpt>
      <trkpt lat="44.49785" lon="1.40602">
        <ele>224.6</ele>
        <time>2021-09-05T13:10:02Z</time>
      </trkpt>
      <trkpt lat="44.49785" lon="1.40603">
        <ele>224.6</ele>
        <time>2021-09-05T13:10:03Z</time>
      </trkpt>
      <trkpt lat="44.49785" lon="1.40604">
        <ele>223.3</ele>
        <time>2021-09-05T13:10:04Z</time>
      </trkpt>
      <trkpt lat="44.49785" lon="1.40605">
        <ele>223.3</ele>
        <time>2021-09-05T13:10:05Z</time>
      </trkpt>
      <trkpt lat="44.49785" lon="1.40605">
        <ele>223.3</ele>
        <time>2021-09-05T13:10:07Z</time>
      </trkpt>
      <trkpt lat="44.49785" lon="1.40606">
        <ele>223.3</ele>
        <time>2021-09-05T13:10:09Z</time>
      </trkpt>
      <trkpt lat="44.49784" lon="1.40607">
        <ele>223.2</ele>
        <time>2021-09-05T13:10:11Z</time>
      </trkpt>
      <trkpt lat="44.49784" lon="1.40608">
        <ele>221.9</ele>
        <time>2021-09-05T13:10:19Z</time>
      </trkpt>
      <trkpt lat="44.49784" lon="1.40609">
        <ele>221.9</ele>
        <time>2021-09-05T13:10:20Z</time>
      </trkpt>
      <trkpt lat="44.49784" lon="1.40615">
        <ele>220.7</ele>
        <time>2021-09-05T13:10:22Z</time>
      </trkpt>
      <trkpt lat="44.49784" lon="1.40621">
        <ele>219.5</ele>
        <time>2021-09-05T13:10:23Z</time>
      </trkpt>
      <trkpt lat="44.49783" lon="1.40627">
        <ele>216.5</ele>
        <time>2021-09-05T13:10:24Z</time>
      </trkpt>
      <trkpt lat="44.4978" lon="1.4063">
        <ele>215.3</ele>
        <time>2021-09-05T13:10:25Z</time>
      </trkpt>
      <trkpt lat="44.49778" lon="1.40636">
        <ele>214</ele>
        <time>2021-09-05T13:10:26Z</time>
      </trkpt>
      <trkpt lat="44.49778" lon="1.40642">
        <ele>212.8</ele>
        <time>2021-09-05T13:10:28Z</time>
      </trkpt>
      <trkpt lat="44.49778" lon="1.40655">
        <ele>209.4</ele>
        <time>2021-09-05T13:10:30Z</time>
      </trkpt>
      <trkpt lat="44.49777" lon="1.4066">
        <ele>207.3</ele>
        <time>2021-09-05T13:10:31Z</time>
      </trkpt>
      <trkpt lat="44.49779" lon="1.40667">
        <ele>206.5</ele>
        <time>2021-09-05T13:10:32Z</time>
      </trkpt>
      <trkpt lat="44.49779" lon="1.4067">
        <ele>205.6</ele>
        <time>2021-09-05T13:10:33Z</time>
      </trkpt>
      <trkpt lat="44.4978" lon="1.40673">
        <ele>204.7</ele>
        <time>2021-09-05T13:10:35Z</time>
      </trkpt>
      <trkpt lat="44.49781" lon="1.40672">
        <ele>205.6</ele>
        <time>2021-09-05T13:10:36Z</time>
      </trkpt>
      <trkpt lat="44.4978" lon="1.40671">
        <ele>205.6</ele>
        <time>2021-09-05T13:10:37Z</time>
      </trkpt>
      <trkpt lat="44.4978" lon="1.40671">
        <ele>205.6</ele>
        <time>2021-09-05T13:10:39Z</time>
      </trkpt>
      <trkpt lat="44.4978" lon="1.40671">
        <ele>205.6</ele>
        <time>2021-09-05T13:10:40Z</time>
      </trkpt>
      <trkpt lat="44.4978" lon="1.40671">
        <ele>205.6</ele>
        <time>2021-09-05T13:10:41Z</time>
      </trkpt>
      <trkpt lat="44.4978" lon="1.40671">
        <ele>205.5</ele>
        <time>2021-09-05T13:10:43Z</time>
      </trkpt>
      <trkpt lat="44.49784" lon="1.40678">
        <ele>203.9</ele>
        <time>2021-09-05T13:11:41Z</time>
      </trkpt>
      <trkpt lat="44.49785" lon="1.40681">
        <ele>202.9</ele>
        <time>2021-09-05T13:11:42Z</time>
      </trkpt>
      <trkpt lat="44.49785" lon="1.40683">
        <ele>203.1</ele>
        <time>2021-09-05T13:11:43Z</time>
      </trkpt>
      <trkpt lat="44.49784" lon="1.40684">
        <ele>202.9</ele>
        <time>2021-09-05T13:11:45Z</time>
      </trkpt>
      <trkpt lat="44.49784" lon="1.40685">
        <ele>202.9</ele>
        <time>2021-09-05T13:11:47Z</time>
      </trkpt>
      <trkpt lat="44.49783" lon="1.40686">
        <ele>201.8</ele>
        <time>2021-09-05T13:11:49Z</time>
      </trkpt>
      <trkpt lat="44.49782" lon="1.40687">
        <ele>201.8</ele>
        <time>2021-09-05T13:11:50Z</time>
      </trkpt>
      <trkpt lat="44.49782" lon="1.40688">
        <ele>201.6</ele>
        <time>2021-09-05T13:11:51Z</time>
      </trkpt>
      <trkpt lat="44.49778" lon="1.40699">
        <ele>198</ele>
        <time>2021-09-05T13:11:53Z</time>
      </trkpt>
      <trkpt lat="44.49773" lon="1.40706">
        <ele>196.7</ele>
        <time>2021-09-05T13:11:54Z</time>
      </trkpt>
      <trkpt lat="44.49772" lon="1.4071">
        <ele>195.4</ele>
        <time>2021-09-05T13:11:55Z</time>
      </trkpt>
      <trkpt lat="44.49775" lon="1.40717">
        <ele>193.5</ele>
        <time>2021-09-05T13:11:56Z</time>
      </trkpt>
      <trkpt lat="44.49779" lon="1.40722">
        <ele>193</ele>
        <time>2021-09-05T13:11:58Z</time>
      </trkpt>
      <trkpt lat="44.49782" lon="1.40724">
        <ele>193.3</ele>
        <time>2021-09-05T13:11:59Z</time>
      </trkpt>
      <trkpt lat="44.49783" lon="1.40728">
        <ele>191.1</ele>
        <time>2021-09-05T13:12:01Z</time>
      </trkpt>
      <trkpt lat="44.49783" lon="1.40729">
        <ele>191</ele>
        <time>2021-09-05T13:12:02Z</time>
      </trkpt>
      <trkpt lat="44.49783" lon="1.40735">
        <ele>189.9</ele>
        <time>2021-09-05T13:12:03Z</time>
      </trkpt>
      <trkpt lat="44.49783" lon="1.40738">
        <ele>188.9</ele>
        <time>2021-09-05T13:12:04Z</time>
      </trkpt>
      <trkpt lat="44.49782" lon="1.40743">
        <ele>187.5</ele>
        <time>2021-09-05T13:12:06Z</time>
      </trkpt>
      <trkpt lat="44.49781" lon="1.4075">
        <ele>185.5</ele>
        <time>2021-09-05T13:12:07Z</time>
      </trkpt>
      <trkpt lat="44.4978" lon="1.40754">
        <ele>185.5</ele>
        <time>2021-09-05T13:12:08Z</time>
      </trkpt>
      <trkpt lat="44.49778" lon="1.40757">
        <ele>184.1</ele>
        <time>2021-09-05T13:12:09Z</time>
      </trkpt>
      <trkpt lat="44.49778" lon="1.40765">
        <ele>182.2</ele>
        <time>2021-09-05T13:12:11Z</time>
      </trkpt>
      <trkpt lat="44.49777" lon="1.40768">
        <ele>181.2</ele>
        <time>2021-09-05T13:12:12Z</time>
      </trkpt>
      <trkpt lat="44.49777" lon="1.40773">
        <ele>180.1</ele>
        <time>2021-09-05T13:12:14Z</time>
      </trkpt>
      <trkpt lat="44.49776" lon="1.40778">
        <ele>178.4</ele>
        <time>2021-09-05T13:12:15Z</time>
      </trkpt>
      <trkpt lat="44.49776" lon="1.40785">
        <ele>176.1</ele>
        <time>2021-09-05T13:12:16Z</time>
      </trkpt>
      <trkpt lat="44.49776" lon="1.40791">
        <ele>175</ele>
        <time>2021-09-05T13:12:17Z</time>
      </trkpt>
      <trkpt lat="44.49774" lon="1.40797">
        <ele>173</ele>
        <time>2021-09-05T13:12:19Z</time>
      </trkpt>
      <trkpt lat="44.49772" lon="1.40807">
        <ele>170.6</ele>
        <time>2021-09-05T13:12:21Z</time>
      </trkpt>
      <trkpt lat="44.49771" lon="1.40812">
        <ele>169.7</ele>
        <time>2021-09-05T13:12:22Z</time>
      </trkpt>
      <trkpt lat="44.4977" lon="1.40816">
        <ele>168.1</ele>
        <time>2021-09-05T13:12:23Z</time>
      </trkpt>
      <trkpt lat="44.49769" lon="1.40819">
        <ele>167.2</ele>
        <time>2021-09-05T13:12:24Z</time>
      </trkpt>
      <trkpt lat="44.4977" lon="1.40824">
        <ele>166.9</ele>
        <time>2021-09-05T13:12:25Z</time>
      </trkpt>
      <trkpt lat="44.49772" lon="1.40829">
        <ele>166</ele>
        <time>2021-09-05T13:12:26Z</time>
      </trkpt>
      <trkpt lat="44.49773" lon="1.40835">
        <ele>165.1</ele>
        <time>2021-09-05T13:12:27Z</time>
      </trkpt>
      <trkpt lat="44.49771" lon="1.40841">
        <ele>163.4</ele>
        <time>2021-09-05T13:12:29Z</time>
      </trkpt>
      <trkpt lat="44.4977" lon="1.40847">
        <ele>161.9</ele>
        <time>2021-09-05T13:12:30Z</time>
      </trkpt>
      <trkpt lat="44.49768" lon="1.40852">
        <ele>161.2</ele>
        <time>2021-09-05T13:12:32Z</time>
      </trkpt>
      <trkpt lat="44.49767" lon="1.40854">
        <ele>160.5</ele>
        <time>2021-09-05T13:12:33Z</time>
      </trkpt>
      <trkpt lat="44.49767" lon="1.40856">
        <ele>159.8</ele>
        <time>2021-09-05T13:12:34Z</time>
      </trkpt>
      <trkpt lat="44.49765" lon="1.4086">
        <ele>159.1</ele>
        <time>2021-09-05T13:12:35Z</time>
      </trkpt>
      <trkpt lat="44.49764" lon="1.40866">
        <ele>157.7</ele>
        <time>2021-09-05T13:12:36Z</time>
      </trkpt>
      <trkpt lat="44.49765" lon="1.40869">
        <ele>157.7</ele>
        <time>2021-09-05T13:12:37Z</time>
      </trkpt>
      <trkpt lat="44.49764" lon="1.4087">
        <ele>157.1</ele>
        <time>2021-09-05T13:12:39Z</time>
      </trkpt>
      <trkpt lat="44.49765" lon="1.40869">
        <ele>157.7</ele>
        <time>2021-09-05T13:12:40Z</time>
      </trkpt>
      <trkpt lat="44.49765" lon="1.40869">
        <ele>157.7</ele>
        <time>2021-09-05T13:12:42Z</time>
      </trkpt>
      <trkpt lat="44.49765" lon="1.40869">
        <ele>157.7</ele>
        <time>2021-09-05T13:12:43Z</time>
      </trkpt>
      <trkpt lat="44.49765" lon="1.40869">
        <ele>157.7</ele>
        <time>2021-09-05T13:12:45Z</time>
      </trkpt>
      <trkpt lat="44.49765" lon="1.40869">
        <ele>157.7</ele>
        <time>2021-09-05T13:12:46Z</time>
      </trkpt>
      <trkpt lat="44.49765" lon="1.40872">
        <ele>157</ele>
        <time>2021-09-05T13:12:47Z</time>
      </trkpt>
      <trkpt lat="44.49766" lon="1.40877">
        <ele>156.4</ele>
        <time>2021-09-05T13:12:49Z</time>
      </trkpt>
      <trkpt lat="44.49766" lon="1.40881">
        <ele>155.8</ele>
        <time>2021-09-05T13:12:50Z</time>
      </trkpt>
      <trkpt lat="44.49769" lon="1.40888">
        <ele>155.5</ele>
        <time>2021-09-05T13:12:51Z</time>
      </trkpt>
      <trkpt lat="44.49767" lon="1.40893">
        <ele>155.1</ele>
        <time>2021-09-05T13:12:52Z</time>
      </trkpt>
      <trkpt lat="44.49765" lon="1.40897">
        <ele>154</ele>
        <time>2021-09-05T13:12:53Z</time>
      </trkpt>
      <trkpt lat="44.49763" lon="1.40905">
        <ele>152.6</ele>
        <time>2021-09-05T13:12:55Z</time>
      </trkpt>
      <trkpt lat="44.49761" lon="1.40912">
        <ele>152.3</ele>
        <time>2021-09-05T13:12:56Z</time>
      </trkpt>
      <trkpt lat="44.49763" lon="1.40915">
        <ele>152</ele>
        <time>2021-09-05T13:12:58Z</time>
      </trkpt>
      <trkpt lat="44.49765" lon="1.40918">
        <ele>152.5</ele>
        <time>2021-09-05T13:12:59Z</time>
      </trkpt>
      <trkpt lat="44.49772" lon="1.40927">
        <ele>153.9</ele>
        <time>2021-09-05T13:13:01Z</time>
      </trkpt>
      <trkpt lat="44.49776" lon="1.40935">
        <ele>154.6</ele>
        <time>2021-09-05T13:13:03Z</time>
      </trkpt>
      <trkpt lat="44.49774" lon="1.40939">
        <ele>154.6</ele>
        <time>2021-09-05T13:13:05Z</time>
      </trkpt>
      <trkpt lat="44.49774" lon="1.40939">
        <ele>154.5</ele>
        <time>2021-09-05T13:13:07Z</time>
      </trkpt>
      <trkpt lat="44.49774" lon="1.40938">
        <ele>154.5</ele>
        <time>2021-09-05T13:13:09Z</time>
      </trkpt>
      <trkpt lat="44.49775" lon="1.40938">
        <ele>154.6</ele>
        <time>2021-09-05T13:13:10Z</time>
      </trkpt>
      <trkpt lat="44.49775" lon="1.40938">
        <ele>154.6</ele>
        <time>2021-09-05T13:13:11Z</time>
      </trkpt>
      <trkpt lat="44.49775" lon="1.40938">
        <ele>154.6</ele>
        <time>2021-09-05T13:13:13Z</time>
      </trkpt>
      <trkpt lat="44.49775" lon="1.40938">
        <ele>154.6</ele>
        <time>2021-09-05T13:13:14Z</time>
      </trkpt>
      <trkpt lat="44.49775" lon="1.40938">
        <ele>154.6</ele>
        <time>2021-09-05T13:13:15Z</time>
      </trkpt>
      <trkpt lat="44.49769" lon="1.4094">
        <ele>152.6</ele>
        <time>2021-09-05T13:13:56Z</time>
      </trkpt>
      <trkpt lat="44.49766" lon="1.40941">
        <ele>151.7</ele>
        <time>2021-09-05T13:13:57Z</time>
      </trkpt>
      <trkpt lat="44.49766" lon="1.40939">
        <ele>151.7</ele>
        <time>2021-09-05T13:13:59Z</time>
      </trkpt>
      <trkpt lat="44.49763" lon="1.4094">
        <ele>150.9</ele>
        <time>2021-09-05T13:14:00Z</time>
      </trkpt>
      <trkpt lat="44.49759" lon="1.40941">
        <ele>150.1</ele>
        <time>2021-09-05T13:14:01Z</time>
      </trkpt>
      <trkpt lat="44.49756" lon="1.40947">
        <ele>149.1</ele>
        <time>2021-09-05T13:14:02Z</time>
      </trkpt>
      <trkpt lat="44.49754" lon="1.40952">
        <ele>148.2</ele>
        <time>2021-09-05T13:14:04Z</time>
      </trkpt>
      <trkpt lat="44.49752" lon="1.40957">
        <ele>148</ele>
        <time>2021-09-05T13:14:05Z</time>
      </trkpt>
      <trkpt lat="44.4975" lon="1.40963">
        <ele>147</ele>
        <time>2021-09-05T13:14:07Z</time>
      </trkpt>
      <trkpt lat="44.49749" lon="1.40965">
        <ele>146.9</ele>
        <time>2021-09-05T13:14:08Z</time>
      </trkpt>
      <trkpt lat="44.49749" lon="1.40966">
        <ele>146.9</ele>
        <time>2021-09-05T13:14:09Z</time>
      </trkpt>
      <trkpt lat="44.49748" lon="1.40968">
        <ele>146</ele>
        <time>2021-09-05T13:14:10Z</time>
      </trkpt>
      <trkpt lat="44.49747" lon="1.40969">
        <ele>145.9</ele>
        <time>2021-09-05T13:14:11Z</time>
      </trkpt>
      <trkpt lat="44.49746" lon="1.4097">
        <ele>145.9</ele>
        <time>2021-09-05T13:14:12Z</time>
      </trkpt>
      <trkpt lat="44.49746" lon="1.40971">
        <ele>145.9</ele>
        <time>2021-09-05T13:14:14Z</time>
      </trkpt>
      <trkpt lat="44.49745" lon="1.40972">
        <ele>145</ele>
        <time>2021-09-05T13:14:16Z</time>
      </trkpt>
      <trkpt lat="44.49744" lon="1.40973">
        <ele>145</ele>
        <time>2021-09-05T13:14:18Z</time>
      </trkpt>
      <trkpt lat="44.49743" lon="1.40974">
        <ele>144.9</ele>
        <time>2021-09-05T13:14:32Z</time>
      </trkpt>
      <trkpt lat="44.49743" lon="1.40975">
        <ele>144.9</ele>
        <time>2021-09-05T13:14:33Z</time>
      </trkpt>
      <trkpt lat="44.49742" lon="1.40976">
        <ele>144.1</ele>
        <time>2021-09-05T13:14:34Z</time>
      </trkpt>
      <trkpt lat="44.49741" lon="1.4098">
        <ele>144.1</ele>
        <time>2021-09-05T13:14:36Z</time>
      </trkpt>
      <trkpt lat="44.4974" lon="1.40981">
        <ele>144.1</ele>
        <time>2021-09-05T13:14:38Z</time>
      </trkpt>
      <trkpt lat="44.49739" lon="1.40983">
        <ele>143.3</ele>
        <time>2021-09-05T13:14:39Z</time>
      </trkpt>
      <trkpt lat="44.49737" lon="1.40986">
        <ele>143.3</ele>
        <time>2021-09-05T13:14:40Z</time>
      </trkpt>
      <trkpt lat="44.49737" lon="1.40993">
        <ele>143.2</ele>
        <time>2021-09-05T13:14:41Z</time>
      </trkpt>
      <trkpt lat="44.49735" lon="1.40998">
        <ele>142.5</ele>
        <time>2021-09-05T13:14:43Z</time>
      </trkpt>
      <trkpt lat="44.49731" lon="1.41002">
        <ele>141.8</ele>
        <time>2021-09-05T13:14:44Z</time>
      </trkpt>
      <trkpt lat="44.49724" lon="1.4101">
        <ele>140.1</ele>
        <time>2021-09-05T13:14:45Z</time>
      </trkpt>
      <trkpt lat="44.4972" lon="1.41015">
        <ele>138.4</ele>
        <time>2021-09-05T13:14:47Z</time>
      </trkpt>
      <trkpt lat="44.49711" lon="1.41026">
        <ele>136.1</ele>
        <time>2021-09-05T13:14:48Z</time>
      </trkpt>
      <trkpt lat="44.49707" lon="1.41031">
        <ele>135.4</ele>
        <time>2021-09-05T13:14:49Z</time>
      </trkpt>
      <trkpt lat="44.49702" lon="1.41043">
        <ele>134</ele>
        <time>2021-09-05T13:14:52Z</time>
      </trkpt>
      <trkpt lat="44.49703" lon="1.41047">
        <ele>134.4</ele>
        <time>2021-09-05T13:14:53Z</time>
      </trkpt>
      <trkpt lat="44.49704" lon="1.41049">
        <ele>134.4</ele>
        <time>2021-09-05T13:14:54Z</time>
      </trkpt>
      <trkpt lat="44.49705" lon="1.41052">
        <ele>134.3</ele>
        <time>2021-09-05T13:14:55Z</time>
      </trkpt>
      <trkpt lat="44.49706" lon="1.41051">
        <ele>134.3</ele>
        <time>2021-09-05T13:14:57Z</time>
      </trkpt>
      <trkpt lat="44.49707" lon="1.41049">
        <ele>134.9</ele>
        <time>2021-09-05T13:14:58Z</time>
      </trkpt>
      <trkpt lat="44.49707" lon="1.41049">
        <ele>134.9</ele>
        <time>2021-09-05T13:14:59Z</time>
      </trkpt>
      <trkpt lat="44.49709" lon="1.41054">
        <ele>134.8</ele>
        <time>2021-09-05T13:15:01Z</time>
      </trkpt>
      <trkpt lat="44.49711" lon="1.4106">
        <ele>135.1</ele>
        <time>2021-09-05T13:15:02Z</time>
      </trkpt>
      <trkpt lat="44.49713" lon="1.41065">
        <ele>135.5</ele>
        <time>2021-09-05T13:15:03Z</time>
      </trkpt>
      <trkpt lat="44.49715" lon="1.41068">
        <ele>135.3</ele>
        <time>2021-09-05T13:15:04Z</time>
      </trkpt>
      <trkpt lat="44.49717" lon="1.41071">
        <ele>135.9</ele>
        <time>2021-09-05T13:15:06Z</time>
      </trkpt>
      <trkpt lat="44.49717" lon="1.41072">
        <ele>135.7</ele>
        <time>2021-09-05T13:15:07Z</time>
      </trkpt>
      <trkpt lat="44.49719" lon="1.41076">
        <ele>136.2</ele>
        <time>2021-09-05T13:15:08Z</time>
      </trkpt>
      <trkpt lat="44.49719" lon="1.41078">
        <ele>136.2</ele>
        <time>2021-09-05T13:15:09Z</time>
      </trkpt>
      <trkpt lat="44.4972" lon="1.4108">
        <ele>136</ele>
        <time>2021-09-05T13:15:10Z</time>
      </trkpt>
      <trkpt lat="44.49721" lon="1.41084">
        <ele>136</ele>
        <time>2021-09-05T13:15:12Z</time>
      </trkpt>
      <trkpt lat="44.49723" lon="1.41088">
        <ele>136.5</ele>
        <time>2021-09-05T13:15:14Z</time>
      </trkpt>
      <trkpt lat="44.49723" lon="1.41089">
        <ele>136.3</ele>
        <time>2021-09-05T13:15:15Z</time>
      </trkpt>
      <trkpt lat="44.49725" lon="1.41093">
        <ele>136.9</ele>
        <time>2021-09-05T13:15:16Z</time>
      </trkpt>
      <trkpt lat="44.49725" lon="1.41096">
        <ele>136.8</ele>
        <time>2021-09-05T13:15:17Z</time>
      </trkpt>
      <trkpt lat="44.49726" lon="1.41099">
        <ele>136.7</ele>
        <time>2021-09-05T13:15:19Z</time>
      </trkpt>
      <trkpt lat="44.49727" lon="1.41104">
        <ele>137.2</ele>
        <time>2021-09-05T13:15:20Z</time>
      </trkpt>
      <trkpt lat="44.49728" lon="1.41106">
        <ele>137</ele>
        <time>2021-09-05T13:15:21Z</time>
      </trkpt>
      <trkpt lat="44.49729" lon="1.41109">
        <ele>137</ele>
        <time>2021-09-05T13:15:22Z</time>
      </trkpt>
      <trkpt lat="44.4973" lon="1.41113">
        <ele>136.9</ele>
        <time>2021-09-05T13:15:24Z</time>
      </trkpt>
      <trkpt lat="44.49731" lon="1.41117">
        <ele>137.4</ele>
        <time>2021-09-05T13:15:25Z</time>
      </trkpt>
      <trkpt lat="44.49732" lon="1.41119">
        <ele>137.2</ele>
        <time>2021-09-05T13:15:26Z</time>
      </trkpt>
      <trkpt lat="44.49733" lon="1.41123">
        <ele>137.1</ele>
        <time>2021-09-05T13:15:27Z</time>
      </trkpt>
      <trkpt lat="44.49733" lon="1.41124">
        <ele>137.6</ele>
        <time>2021-09-05T13:15:28Z</time>
      </trkpt>
      <trkpt lat="44.49735" lon="1.41128">
        <ele>137.5</ele>
        <time>2021-09-05T13:15:29Z</time>
      </trkpt>
      <trkpt lat="44.49735" lon="1.41131">
        <ele>137.5</ele>
        <time>2021-09-05T13:15:30Z</time>
      </trkpt>
      <trkpt lat="44.49736" lon="1.41133">
        <ele>137.9</ele>
        <time>2021-09-05T13:15:32Z</time>
      </trkpt>
      <trkpt lat="44.49738" lon="1.41137">
        <ele>137.7</ele>
        <time>2021-09-05T13:15:33Z</time>
      </trkpt>
      <trkpt lat="44.49739" lon="1.41138">
        <ele>137.7</ele>
        <time>2021-09-05T13:15:34Z</time>
      </trkpt>
      <trkpt lat="44.4974" lon="1.41143">
        <ele>138.1</ele>
        <time>2021-09-05T13:15:36Z</time>
      </trkpt>
      <trkpt lat="44.49741" lon="1.41148">
        <ele>137.9</ele>
        <time>2021-09-05T13:15:37Z</time>
      </trkpt>
      <trkpt lat="44.49743" lon="1.41151">
        <ele>138.5</ele>
        <time>2021-09-05T13:15:39Z</time>
      </trkpt>
      <trkpt lat="44.49744" lon="1.41156">
        <ele>138.3</ele>
        <time>2021-09-05T13:15:40Z</time>
      </trkpt>
      <trkpt lat="44.49746" lon="1.41161">
        <ele>139</ele>
        <time>2021-09-05T13:15:42Z</time>
      </trkpt>
      <trkpt lat="44.49746" lon="1.41163">
        <ele>138.8</ele>
        <time>2021-09-05T13:15:43Z</time>
      </trkpt>
      <trkpt lat="44.49748" lon="1.41167">
        <ele>138.6</ele>
        <time>2021-09-05T13:15:44Z</time>
      </trkpt>
      <trkpt lat="44.49749" lon="1.41169">
        <ele>139.5</ele>
        <time>2021-09-05T13:15:45Z</time>
      </trkpt>
      <trkpt lat="44.4975" lon="1.41174">
        <ele>139.4</ele>
        <time>2021-09-05T13:15:47Z</time>
      </trkpt>
      <trkpt lat="44.49751" lon="1.41177">
        <ele>139.2</ele>
        <time>2021-09-05T13:15:48Z</time>
      </trkpt>
      <trkpt lat="44.49752" lon="1.41181">
        <ele>139.9</ele>
        <time>2021-09-05T13:15:50Z</time>
      </trkpt>
      <trkpt lat="44.49753" lon="1.41184">
        <ele>139.8</ele>
        <time>2021-09-05T13:15:51Z</time>
      </trkpt>
      <trkpt lat="44.49755" lon="1.41189">
        <ele>140.4</ele>
        <time>2021-09-05T13:15:53Z</time>
      </trkpt>
      <trkpt lat="44.49757" lon="1.41193">
        <ele>140.2</ele>
        <time>2021-09-05T13:15:54Z</time>
      </trkpt>
      <trkpt lat="44.4976" lon="1.41197">
        <ele>140.9</ele>
        <time>2021-09-05T13:15:56Z</time>
      </trkpt>
      <trkpt lat="44.49761" lon="1.41199">
        <ele>140.9</ele>
        <time>2021-09-05T13:15:57Z</time>
      </trkpt>
      <trkpt lat="44.49762" lon="1.41201">
        <ele>141.5</ele>
        <time>2021-09-05T13:15:58Z</time>
      </trkpt>
      <trkpt lat="44.49765" lon="1.41204">
        <ele>142.4</ele>
        <time>2021-09-05T13:16:00Z</time>
      </trkpt>
      <trkpt lat="44.49767" lon="1.41207">
        <ele>143</ele>
        <time>2021-09-05T13:16:01Z</time>
      </trkpt>
      <trkpt lat="44.4977" lon="1.4121">
        <ele>142.7</ele>
        <time>2021-09-05T13:16:02Z</time>
      </trkpt>
      <trkpt lat="44.49771" lon="1.41211">
        <ele>143.5</ele>
        <time>2021-09-05T13:16:03Z</time>
      </trkpt>
      <trkpt lat="44.49774" lon="1.41213">
        <ele>144</ele>
        <time>2021-09-05T13:16:05Z</time>
      </trkpt>
      <trkpt lat="44.49776" lon="1.41215">
        <ele>144.8</ele>
        <time>2021-09-05T13:16:06Z</time>
      </trkpt>
      <trkpt lat="44.49779" lon="1.41217">
        <ele>144.4</ele>
        <time>2021-09-05T13:16:07Z</time>
      </trkpt>
      <trkpt lat="44.49782" lon="1.41219">
        <ele>145.1</ele>
        <time>2021-09-05T13:16:09Z</time>
      </trkpt>
      <trkpt lat="44.49785" lon="1.41221">
        <ele>145.8</ele>
        <time>2021-09-05T13:16:10Z</time>
      </trkpt>
      <trkpt lat="44.49789" lon="1.41223">
        <ele>146.5</ele>
        <time>2021-09-05T13:16:11Z</time>
      </trkpt>
      <trkpt lat="44.4979" lon="1.41224">
        <ele>146.5</ele>
        <time>2021-09-05T13:16:12Z</time>
      </trkpt>
      <trkpt lat="44.49794" lon="1.41225">
        <ele>147.1</ele>
        <time>2021-09-05T13:16:14Z</time>
      </trkpt>
      <trkpt lat="44.49795" lon="1.41227">
        <ele>146.9</ele>
        <time>2021-09-05T13:16:15Z</time>
      </trkpt>
      <trkpt lat="44.49798" lon="1.41228">
        <ele>147.5</ele>
        <time>2021-09-05T13:16:17Z</time>
      </trkpt>
      <trkpt lat="44.498" lon="1.41229">
        <ele>147.5</ele>
        <time>2021-09-05T13:16:18Z</time>
      </trkpt>
      <trkpt lat="44.49804" lon="1.41232">
        <ele>147.7</ele>
        <time>2021-09-05T13:16:20Z</time>
      </trkpt>
      <trkpt lat="44.49805" lon="1.41234">
        <ele>147.7</ele>
        <time>2021-09-05T13:16:22Z</time>
      </trkpt>
      <trkpt lat="44.49808" lon="1.41237">
        <ele>147.3</ele>
        <time>2021-09-05T13:16:23Z</time>
      </trkpt>
      <trkpt lat="44.49809" lon="1.41239">
        <ele>147.3</ele>
        <time>2021-09-05T13:16:24Z</time>
      </trkpt>
      <trkpt lat="44.49812" lon="1.41241">
        <ele>147</ele>
        <time>2021-09-05T13:16:25Z</time>
      </trkpt>
      <trkpt lat="44.49814" lon="1.41243">
        <ele>147.4</ele>
        <time>2021-09-05T13:16:27Z</time>
      </trkpt>
      <trkpt lat="44.49818" lon="1.41245">
        <ele>147</ele>
        <time>2021-09-05T13:16:29Z</time>
      </trkpt>
      <trkpt lat="44.49821" lon="1.41247">
        <ele>147.3</ele>
        <time>2021-09-05T13:16:30Z</time>
      </trkpt>
      <trkpt lat="44.49825" lon="1.41249">
        <ele>144.9</ele>
        <time>2021-09-05T13:16:31Z</time>
      </trkpt>
      <trkpt lat="44.49826" lon="1.4125">
        <ele>144.2</ele>
        <time>2021-09-05T13:16:32Z</time>
      </trkpt>
      <trkpt lat="44.49828" lon="1.41252">
        <ele>142.4</ele>
        <time>2021-09-05T13:16:33Z</time>
      </trkpt>
      <trkpt lat="44.49831" lon="1.41253">
        <ele>140.7</ele>
        <time>2021-09-05T13:16:34Z</time>
      </trkpt>
      <trkpt lat="44.49835" lon="1.41256">
        <ele>138</ele>
        <time>2021-09-05T13:16:36Z</time>
      </trkpt>
      <trkpt lat="44.49838" lon="1.41258">
        <ele>135.8</ele>
        <time>2021-09-05T13:16:37Z</time>
      </trkpt>
      <trkpt lat="44.49841" lon="1.41258">
        <ele>135.1</ele>
        <time>2021-09-05T13:16:38Z</time>
      </trkpt>
      <trkpt lat="44.49845" lon="1.41258">
        <ele>135.4</ele>
        <time>2021-09-05T13:16:40Z</time>
      </trkpt>
      <trkpt lat="44.49846" lon="1.41258">
        <ele>135.5</ele>
        <time>2021-09-05T13:16:41Z</time>
      </trkpt>
      <trkpt lat="44.4985" lon="1.41256">
        <ele>135.8</ele>
        <time>2021-09-05T13:16:42Z</time>
      </trkpt>
      <trkpt lat="44.49854" lon="1.41256">
        <ele>136.2</ele>
        <time>2021-09-05T13:16:44Z</time>
      </trkpt>
      <trkpt lat="44.49856" lon="1.41256">
        <ele>136.4</ele>
        <time>2021-09-05T13:16:45Z</time>
      </trkpt>
      <trkpt lat="44.49859" lon="1.41255">
        <ele>136.7</ele>
        <time>2021-09-05T13:16:46Z</time>
      </trkpt>
      <trkpt lat="44.49862" lon="1.41254">
        <ele>137</ele>
        <time>2021-09-05T13:16:47Z</time>
      </trkpt>
      <trkpt lat="44.49865" lon="1.41253">
        <ele>137.3</ele>
        <time>2021-09-05T13:16:49Z</time>
      </trkpt>
      <trkpt lat="44.49868" lon="1.41252">
        <ele>137.5</ele>
        <time>2021-09-05T13:16:50Z</time>
      </trkpt>
      <trkpt lat="44.49871" lon="1.41251">
        <ele>137.9</ele>
        <time>2021-09-05T13:16:51Z</time>
      </trkpt>
      <trkpt lat="44.49876" lon="1.41249">
        <ele>138.3</ele>
        <time>2021-09-05T13:16:53Z</time>
      </trkpt>
      <trkpt lat="44.49877" lon="1.41248">
        <ele>138.5</ele>
        <time>2021-09-05T13:16:54Z</time>
      </trkpt>
      <trkpt lat="44.49879" lon="1.41248">
        <ele>138.6</ele>
        <time>2021-09-05T13:16:55Z</time>
      </trkpt>
      <trkpt lat="44.49881" lon="1.41246">
        <ele>138.9</ele>
        <time>2021-09-05T13:16:56Z</time>
      </trkpt>
      <trkpt lat="44.49884" lon="1.41245">
        <ele>139.1</ele>
        <time>2021-09-05T13:16:57Z</time>
      </trkpt>
      <trkpt lat="44.49887" lon="1.41243">
        <ele>139.4</ele>
        <time>2021-09-05T13:16:59Z</time>
      </trkpt>
      <trkpt lat="44.49891" lon="1.41242">
        <ele>139.8</ele>
        <time>2021-09-05T13:17:00Z</time>
      </trkpt>
      <trkpt lat="44.49894" lon="1.41241">
        <ele>140</ele>
        <time>2021-09-05T13:17:01Z</time>
      </trkpt>
      <trkpt lat="44.49898" lon="1.41241">
        <ele>140.3</ele>
        <time>2021-09-05T13:17:03Z</time>
      </trkpt>
      <trkpt lat="44.499" lon="1.41241">
        <ele>140.4</ele>
        <time>2021-09-05T13:17:04Z</time>
      </trkpt>
      <trkpt lat="44.49903" lon="1.41239">
        <ele>140.7</ele>
        <time>2021-09-05T13:17:06Z</time>
      </trkpt>
      <trkpt lat="44.49908" lon="1.41237">
        <ele>141.1</ele>
        <time>2021-09-05T13:17:08Z</time>
      </trkpt>
      <trkpt lat="44.4991" lon="1.41236">
        <ele>141.2</ele>
        <time>2021-09-05T13:17:09Z</time>
      </trkpt>
      <trkpt lat="44.49912" lon="1.41235">
        <ele>141.4</ele>
        <time>2021-09-05T13:17:10Z</time>
      </trkpt>
      <trkpt lat="44.49916" lon="1.41234">
        <ele>141.7</ele>
        <time>2021-09-05T13:17:12Z</time>
      </trkpt>
      <trkpt lat="44.49918" lon="1.41234">
        <ele>141.9</ele>
        <time>2021-09-05T13:17:13Z</time>
      </trkpt>
      <trkpt lat="44.4992" lon="1.41233">
        <ele>142.1</ele>
        <time>2021-09-05T13:17:14Z</time>
      </trkpt>
      <trkpt lat="44.49924" lon="1.41231">
        <ele>142.4</ele>
        <time>2021-09-05T13:17:16Z</time>
      </trkpt>
      <trkpt lat="44.49928" lon="1.41229">
        <ele>142.7</ele>
        <time>2021-09-05T13:17:17Z</time>
      </trkpt>
      <trkpt lat="44.49934" lon="1.41226">
        <ele>143.2</ele>
        <time>2021-09-05T13:17:19Z</time>
      </trkpt>
      <trkpt lat="44.49936" lon="1.41225">
        <ele>143.4</ele>
        <time>2021-09-05T13:17:21Z</time>
      </trkpt>
      <trkpt lat="44.49939" lon="1.41223">
        <ele>143.6</ele>
        <time>2021-09-05T13:17:23Z</time>
      </trkpt>
      <trkpt lat="44.49943" lon="1.41221">
        <ele>143.9</ele>
        <time>2021-09-05T13:17:24Z</time>
      </trkpt>
      <trkpt lat="44.49944" lon="1.4122">
        <ele>144</ele>
        <time>2021-09-05T13:17:25Z</time>
      </trkpt>
      <trkpt lat="44.49946" lon="1.41218">
        <ele>144.2</ele>
        <time>2021-09-05T13:17:26Z</time>
      </trkpt>
      <trkpt lat="44.49947" lon="1.41217">
        <ele>144.3</ele>
        <time>2021-09-05T13:17:28Z</time>
      </trkpt>
      <trkpt lat="44.49951" lon="1.41216">
        <ele>144.6</ele>
        <time>2021-09-05T13:17:29Z</time>
      </trkpt>
      <trkpt lat="44.49952" lon="1.41216">
        <ele>144.7</ele>
        <time>2021-09-05T13:17:30Z</time>
      </trkpt>
      <trkpt lat="44.49957" lon="1.41214">
        <ele>145.1</ele>
        <time>2021-09-05T13:17:32Z</time>
      </trkpt>
      <trkpt lat="44.4996" lon="1.41214">
        <ele>145.3</ele>
        <time>2021-09-05T13:17:34Z</time>
      </trkpt>
      <trkpt lat="44.49962" lon="1.41211">
        <ele>145.5</ele>
        <time>2021-09-05T13:17:35Z</time>
      </trkpt>
      <trkpt lat="44.49966" lon="1.41208">
        <ele>145.8</ele>
        <time>2021-09-05T13:17:37Z</time>
      </trkpt>
      <trkpt lat="44.49967" lon="1.41207">
        <ele>145.9</ele>
        <time>2021-09-05T13:17:38Z</time>
      </trkpt>
      <trkpt lat="44.4997" lon="1.41206">
        <ele>146.2</ele>
        <time>2021-09-05T13:17:39Z</time>
      </trkpt>
      <trkpt lat="44.49972" lon="1.41205">
        <ele>146.3</ele>
        <time>2021-09-05T13:17:40Z</time>
      </trkpt>
      <trkpt lat="44.49974" lon="1.41203">
        <ele>146.5</ele>
        <time>2021-09-05T13:17:42Z</time>
      </trkpt>
      <trkpt lat="44.49977" lon="1.41203">
        <ele>146.7</ele>
        <time>2021-09-05T13:17:43Z</time>
      </trkpt>
      <trkpt lat="44.49981" lon="1.41202">
        <ele>147.1</ele>
        <time>2021-09-05T13:17:45Z</time>
      </trkpt>
      <trkpt lat="44.49987" lon="1.41197">
        <ele>147.6</ele>
        <time>2021-09-05T13:17:47Z</time>
      </trkpt>
      <trkpt lat="44.4999" lon="1.41194">
        <ele>147.9</ele>
        <time>2021-09-05T13:17:49Z</time>
      </trkpt>
      <trkpt lat="44.49994" lon="1.41192">
        <ele>148.2</ele>
        <time>2021-09-05T13:17:50Z</time>
      </trkpt>
      <trkpt lat="44.49995" lon="1.41191">
        <ele>148.4</ele>
        <time>2021-09-05T13:17:51Z</time>
      </trkpt>
      <trkpt lat="44.49999" lon="1.41189">
        <ele>148.7</ele>
        <time>2021-09-05T13:17:53Z</time>
      </trkpt>
      <trkpt lat="44.50002" lon="1.41188">
        <ele>148.9</ele>
        <time>2021-09-05T13:17:54Z</time>
      </trkpt>
      <trkpt lat="44.50005" lon="1.41187">
        <ele>149.2</ele>
        <time>2021-09-05T13:17:55Z</time>
      </trkpt>
      <trkpt lat="44.50008" lon="1.41185">
        <ele>149.5</ele>
        <time>2021-09-05T13:17:57Z</time>
      </trkpt>
      <trkpt lat="44.5001" lon="1.41185">
        <ele>149.7</ele>
        <time>2021-09-05T13:17:58Z</time>
      </trkpt>
      <trkpt lat="44.50013" lon="1.41182">
        <ele>150</ele>
        <time>2021-09-05T13:17:59Z</time>
      </trkpt>
      <trkpt lat="44.50018" lon="1.4118">
        <ele>150.4</ele>
        <time>2021-09-05T13:18:01Z</time>
      </trkpt>
      <trkpt lat="44.5002" lon="1.41179">
        <ele>150.6</ele>
        <time>2021-09-05T13:18:02Z</time>
      </trkpt>
      <trkpt lat="44.50021" lon="1.41179">
        <ele>150.8</ele>
        <time>2021-09-05T13:18:03Z</time>
      </trkpt>
      <trkpt lat="44.50025" lon="1.41178">
        <ele>151.1</ele>
        <time>2021-09-05T13:18:05Z</time>
      </trkpt>
      <trkpt lat="44.5003" lon="1.41178">
        <ele>151.5</ele>
        <time>2021-09-05T13:18:06Z</time>
      </trkpt>
      <trkpt lat="44.50032" lon="1.41177">
        <ele>151.8</ele>
        <time>2021-09-05T13:18:08Z</time>
      </trkpt>
      <trkpt lat="44.50036" lon="1.41176">
        <ele>152.1</ele>
        <time>2021-09-05T13:18:09Z</time>
      </trkpt>
      <trkpt lat="44.50038" lon="1.41175">
        <ele>152.3</ele>
        <time>2021-09-05T13:18:10Z</time>
      </trkpt>
      <trkpt lat="44.50041" lon="1.41175">
        <ele>152.6</ele>
        <time>2021-09-05T13:18:12Z</time>
      </trkpt>
      <trkpt lat="44.50045" lon="1.41175">
        <ele>153</ele>
        <time>2021-09-05T13:18:13Z</time>
      </trkpt>
      <trkpt lat="44.50049" lon="1.41175">
        <ele>153.3</ele>
        <time>2021-09-05T13:18:15Z</time>
      </trkpt>
      <trkpt lat="44.5005" lon="1.41175">
        <ele>153.5</ele>
        <time>2021-09-05T13:18:16Z</time>
      </trkpt>
      <trkpt lat="44.50054" lon="1.41174">
        <ele>153.8</ele>
        <time>2021-09-05T13:18:17Z</time>
      </trkpt>
      <trkpt lat="44.50055" lon="1.41174">
        <ele>153.9</ele>
        <time>2021-09-05T13:18:18Z</time>
      </trkpt>
      <trkpt lat="44.50058" lon="1.41173">
        <ele>154.2</ele>
        <time>2021-09-05T13:18:19Z</time>
      </trkpt>
      <trkpt lat="44.5006" lon="1.41173">
        <ele>154.5</ele>
        <time>2021-09-05T13:18:21Z</time>
      </trkpt>
      <trkpt lat="44.50063" lon="1.41173">
        <ele>154.8</ele>
        <time>2021-09-05T13:18:22Z</time>
      </trkpt>
      <trkpt lat="44.50066" lon="1.41173">
        <ele>155</ele>
        <time>2021-09-05T13:18:23Z</time>
      </trkpt>
      <trkpt lat="44.5007" lon="1.41174">
        <ele>155.4</ele>
        <time>2021-09-05T13:18:24Z</time>
      </trkpt>
      <trkpt lat="44.50073" lon="1.41175">
        <ele>155.7</ele>
        <time>2021-09-05T13:18:26Z</time>
      </trkpt>
      <trkpt lat="44.50074" lon="1.41176">
        <ele>155.8</ele>
        <time>2021-09-05T13:18:27Z</time>
      </trkpt>
      <trkpt lat="44.50077" lon="1.41176">
        <ele>156.1</ele>
        <time>2021-09-05T13:18:29Z</time>
      </trkpt>
      <trkpt lat="44.50079" lon="1.41175">
        <ele>156.3</ele>
        <time>2021-09-05T13:18:31Z</time>
      </trkpt>
      <trkpt lat="44.5008" lon="1.41175">
        <ele>156.4</ele>
        <time>2021-09-05T13:18:32Z</time>
      </trkpt>
      <trkpt lat="44.50086" lon="1.41176">
        <ele>157</ele>
        <time>2021-09-05T13:18:33Z</time>
      </trkpt>
      <trkpt lat="44.5009" lon="1.41177">
        <ele>157.3</ele>
        <time>2021-09-05T13:18:34Z</time>
      </trkpt>
      <trkpt lat="44.50092" lon="1.41177">
        <ele>157.6</ele>
        <time>2021-09-05T13:18:35Z</time>
      </trkpt>
      <trkpt lat="44.50095" lon="1.41178">
        <ele>157.8</ele>
        <time>2021-09-05T13:18:36Z</time>
      </trkpt>
      <trkpt lat="44.50098" lon="1.41179">
        <ele>158.1</ele>
        <time>2021-09-05T13:18:38Z</time>
      </trkpt>
      <trkpt lat="44.50101" lon="1.41181">
        <ele>158.4</ele>
        <time>2021-09-05T13:18:39Z</time>
      </trkpt>
      <trkpt lat="44.50104" lon="1.41181">
        <ele>158.7</ele>
        <time>2021-09-05T13:18:40Z</time>
      </trkpt>
      <trkpt lat="44.50105" lon="1.41182">
        <ele>158.8</ele>
        <time>2021-09-05T13:18:41Z</time>
      </trkpt>
      <trkpt lat="44.50109" lon="1.41183">
        <ele>159.1</ele>
        <time>2021-09-05T13:18:43Z</time>
      </trkpt>
      <trkpt lat="44.50112" lon="1.41184">
        <ele>159.4</ele>
        <time>2021-09-05T13:18:45Z</time>
      </trkpt>
      <trkpt lat="44.50116" lon="1.41185">
        <ele>159.4</ele>
        <time>2021-09-05T13:18:46Z</time>
      </trkpt>
      <trkpt lat="44.50118" lon="1.41187">
        <ele>159.4</ele>
        <time>2021-09-05T13:18:47Z</time>
      </trkpt>
      <trkpt lat="44.50122" lon="1.41188">
        <ele>159.1</ele>
        <time>2021-09-05T13:18:49Z</time>
      </trkpt>
      <trkpt lat="44.50126" lon="1.41189">
        <ele>159.1</ele>
        <time>2021-09-05T13:18:50Z</time>
      </trkpt>
      <trkpt lat="44.5013" lon="1.4119">
        <ele>159.1</ele>
        <time>2021-09-05T13:18:52Z</time>
      </trkpt>
      <trkpt lat="44.50133" lon="1.41191">
        <ele>159</ele>
        <time>2021-09-05T13:18:53Z</time>
      </trkpt>
      <trkpt lat="44.50136" lon="1.41191">
        <ele>159</ele>
        <time>2021-09-05T13:18:54Z</time>
      </trkpt>
      <trkpt lat="44.50139" lon="1.41191">
        <ele>159</ele>
        <time>2021-09-05T13:18:55Z</time>
      </trkpt>
      <trkpt lat="44.50142" lon="1.41189">
        <ele>159.1</ele>
        <time>2021-09-05T13:18:57Z</time>
      </trkpt>
      <trkpt lat="44.50145" lon="1.41188">
        <ele>159.1</ele>
        <time>2021-09-05T13:18:58Z</time>
      </trkpt>
      <trkpt lat="44.50148" lon="1.41186">
        <ele>159.2</ele>
        <time>2021-09-05T13:18:59Z</time>
      </trkpt>
      <trkpt lat="44.50151" lon="1.41186">
        <ele>159.2</ele>
        <time>2021-09-05T13:19:00Z</time>
      </trkpt>
      <trkpt lat="44.50153" lon="1.41185">
        <ele>159.3</ele>
        <time>2021-09-05T13:19:01Z</time>
      </trkpt>
      <trkpt lat="44.50156" lon="1.41183">
        <ele>159.5</ele>
        <time>2021-09-05T13:19:02Z</time>
      </trkpt>
      <trkpt lat="44.50159" lon="1.41181">
        <ele>159.5</ele>
        <time>2021-09-05T13:19:04Z</time>
      </trkpt>
      <trkpt lat="44.50162" lon="1.4118">
        <ele>159.8</ele>
        <time>2021-09-05T13:19:05Z</time>
      </trkpt>
      <trkpt lat="44.50165" lon="1.4118">
        <ele>160.1</ele>
        <time>2021-09-05T13:19:06Z</time>
      </trkpt>
      <trkpt lat="44.50168" lon="1.4118">
        <ele>160.4</ele>
        <time>2021-09-05T13:19:07Z</time>
      </trkpt>
      <trkpt lat="44.50174" lon="1.4118">
        <ele>160.7</ele>
        <time>2021-09-05T13:19:09Z</time>
      </trkpt>
      <trkpt lat="44.50177" lon="1.4118">
        <ele>161.1</ele>
        <time>2021-09-05T13:19:12Z</time>
      </trkpt>
      <trkpt lat="44.50177" lon="1.4118">
        <ele>161.5</ele>
        <time>2021-09-05T13:19:14Z</time>
      </trkpt>
      <trkpt lat="44.50177" lon="1.4118">
        <ele>161.5</ele>
        <time>2021-09-05T13:19:15Z</time>
      </trkpt>
      <trkpt lat="44.50177" lon="1.4118">
        <ele>161.5</ele>
        <time>2021-09-05T13:19:17Z</time>
      </trkpt>
      <trkpt lat="44.50177" lon="1.4118">
        <ele>161.5</ele>
        <time>2021-09-05T13:19:18Z</time>
      </trkpt>
      <trkpt lat="44.50177" lon="1.4118">
        <ele>161.5</ele>
        <time>2021-09-05T13:19:20Z</time>
      </trkpt>
      <trkpt lat="44.50177" lon="1.4118">
        <ele>161.5</ele>
        <time>2021-09-05T13:19:21Z</time>
      </trkpt>
      <trkpt lat="44.50177" lon="1.4118">
        <ele>161.5</ele>
        <time>2021-09-05T13:19:22Z</time>
      </trkpt>
      <trkpt lat="44.5018" lon="1.41176">
        <ele>162</ele>
        <time>2021-09-05T13:20:09Z</time>
      </trkpt>
      <trkpt lat="44.50182" lon="1.41171">
        <ele>162.1</ele>
        <time>2021-09-05T13:20:11Z</time>
      </trkpt>
      <trkpt lat="44.50182" lon="1.41168">
        <ele>162.2</ele>
        <time>2021-09-05T13:20:12Z</time>
      </trkpt>
      <trkpt lat="44.50181" lon="1.41161">
        <ele>162.5</ele>
        <time>2021-09-05T13:20:14Z</time>
      </trkpt>
      <trkpt lat="44.50179" lon="1.41157">
        <ele>162.2</ele>
        <time>2021-09-05T13:20:15Z</time>
      </trkpt>
      <trkpt lat="44.50178" lon="1.41155">
        <ele>162.2</ele>
        <time>2021-09-05T13:20:17Z</time>
      </trkpt>
      <trkpt lat="44.50179" lon="1.41153">
        <ele>162.4</ele>
        <time>2021-09-05T13:20:18Z</time>
      </trkpt>
      <trkpt lat="44.50179" lon="1.41151">
        <ele>162.4</ele>
        <time>2021-09-05T13:20:19Z</time>
      </trkpt>
      <trkpt lat="44.5018" lon="1.41149">
        <ele>162.4</ele>
        <time>2021-09-05T13:20:20Z</time>
      </trkpt>
      <trkpt lat="44.5018" lon="1.41146">
        <ele>162.6</ele>
        <time>2021-09-05T13:20:21Z</time>
      </trkpt>
      <trkpt lat="44.50179" lon="1.41145">
        <ele>162.6</ele>
        <time>2021-09-05T13:20:22Z</time>
      </trkpt>
      <trkpt lat="44.50179" lon="1.41143">
        <ele>162.9</ele>
        <time>2021-09-05T13:20:24Z</time>
      </trkpt>
      <trkpt lat="44.50179" lon="1.41141">
        <ele>162.9</ele>
        <time>2021-09-05T13:20:25Z</time>
      </trkpt>
      <trkpt lat="44.50178" lon="1.4114">
        <ele>163.1</ele>
        <time>2021-09-05T13:20:26Z</time>
      </trkpt>
      <trkpt lat="44.50177" lon="1.4114">
        <ele>162.8</ele>
        <time>2021-09-05T13:20:28Z</time>
      </trkpt>
      <trkpt lat="44.50177" lon="1.41139">
        <ele>162.8</ele>
        <time>2021-09-05T13:20:29Z</time>
      </trkpt>
      <trkpt lat="44.50177" lon="1.41139">
        <ele>162.8</ele>
        <time>2021-09-05T13:20:32Z</time>
      </trkpt>
      <trkpt lat="44.50176" lon="1.41139">
        <ele>162.8</ele>
        <time>2021-09-05T13:20:33Z</time>
      </trkpt>
      <trkpt lat="44.50176" lon="1.41139">
        <ele>162.8</ele>
        <time>2021-09-05T13:20:34Z</time>
      </trkpt>
      <trkpt lat="44.50176" lon="1.41139">
        <ele>162.8</ele>
        <time>2021-09-05T13:20:35Z</time>
      </trkpt>
      <trkpt lat="44.50176" lon="1.41139">
        <ele>162.8</ele>
        <time>2021-09-05T13:20:37Z</time>
      </trkpt>
      <trkpt lat="44.50174" lon="1.41123">
        <ele>163.5</ele>
        <time>2021-09-05T13:21:11Z</time>
      </trkpt>
      <trkpt lat="44.50176" lon="1.4112">
        <ele>163.7</ele>
        <time>2021-09-05T13:21:13Z</time>
      </trkpt>
      <trkpt lat="44.50178" lon="1.41109">
        <ele>164.8</ele>
        <time>2021-09-05T13:21:15Z</time>
      </trkpt>
      <trkpt lat="44.50179" lon="1.41102">
        <ele>165.1</ele>
        <time>2021-09-05T13:21:16Z</time>
      </trkpt>
      <trkpt lat="44.5018" lon="1.41099">
        <ele>165.5</ele>
        <time>2021-09-05T13:21:17Z</time>
      </trkpt>
      <trkpt lat="44.50183" lon="1.41093">
        <ele>166.3</ele>
        <time>2021-09-05T13:21:19Z</time>
      </trkpt>
      <trkpt lat="44.50184" lon="1.4109">
        <ele>167.2</ele>
        <time>2021-09-05T13:21:22Z</time>
      </trkpt>
      <trkpt lat="44.50185" lon="1.41087">
        <ele>167.7</ele>
        <time>2021-09-05T13:21:23Z</time>
      </trkpt>
      <trkpt lat="44.50186" lon="1.41085">
        <ele>167.7</ele>
        <time>2021-09-05T13:21:24Z</time>
      </trkpt>
      <trkpt lat="44.50186" lon="1.41082">
        <ele>168.7</ele>
        <time>2021-09-05T13:21:25Z</time>
      </trkpt>
      <trkpt lat="44.50187" lon="1.41079">
        <ele>169.1</ele>
        <time>2021-09-05T13:21:27Z</time>
      </trkpt>
      <trkpt lat="44.50188" lon="1.41075">
        <ele>169.6</ele>
        <time>2021-09-05T13:21:28Z</time>
      </trkpt>
      <trkpt lat="44.50188" lon="1.41074">
        <ele>169.6</ele>
        <time>2021-09-05T13:21:29Z</time>
      </trkpt>
      <trkpt lat="44.50189" lon="1.4107">
        <ele>170.1</ele>
        <time>2021-09-05T13:21:30Z</time>
      </trkpt>
      <trkpt lat="44.50191" lon="1.41066">
        <ele>171</ele>
        <time>2021-09-05T13:21:32Z</time>
      </trkpt>
      <trkpt lat="44.50191" lon="1.41064">
        <ele>171</ele>
        <time>2021-09-05T13:21:33Z</time>
      </trkpt>
      <trkpt lat="44.50193" lon="1.41062">
        <ele>172</ele>
        <time>2021-09-05T13:21:34Z</time>
      </trkpt>
      <trkpt lat="44.50194" lon="1.4106">
        <ele>172</ele>
        <time>2021-09-05T13:21:36Z</time>
      </trkpt>
      <trkpt lat="44.50195" lon="1.41059">
        <ele>172.5</ele>
        <time>2021-09-05T13:21:38Z</time>
      </trkpt>
      <trkpt lat="44.50196" lon="1.41058">
        <ele>173</ele>
        <time>2021-09-05T13:21:39Z</time>
      </trkpt>
      <trkpt lat="44.50196" lon="1.41057">
        <ele>173</ele>
        <time>2021-09-05T13:21:40Z</time>
      </trkpt>
      <trkpt lat="44.50197" lon="1.41051">
        <ele>173.6</ele>
        <time>2021-09-05T13:21:43Z</time>
      </trkpt>
      <trkpt lat="44.50199" lon="1.41045">
        <ele>175.2</ele>
        <time>2021-09-05T13:21:44Z</time>
      </trkpt>
      <trkpt lat="44.50201" lon="1.41042">
        <ele>175.2</ele>
        <time>2021-09-05T13:21:46Z</time>
      </trkpt>
      <trkpt lat="44.50202" lon="1.4104">
        <ele>176.1</ele>
        <time>2021-09-05T13:21:48Z</time>
      </trkpt>
      <trkpt lat="44.50203" lon="1.41039">
        <ele>176.1</ele>
        <time>2021-09-05T13:21:49Z</time>
      </trkpt>
      <trkpt lat="44.50205" lon="1.41032">
        <ele>177.5</ele>
        <time>2021-09-05T13:21:50Z</time>
      </trkpt>
      <trkpt lat="44.50206" lon="1.41027">
        <ele>178.1</ele>
        <time>2021-09-05T13:21:52Z</time>
      </trkpt>
      <trkpt lat="44.50207" lon="1.41025">
        <ele>178.1</ele>
        <time>2021-09-05T13:21:53Z</time>
      </trkpt>
      <trkpt lat="44.50209" lon="1.41023">
        <ele>179</ele>
        <time>2021-09-05T13:21:55Z</time>
      </trkpt>
      <trkpt lat="44.50211" lon="1.41021">
        <ele>179</ele>
        <time>2021-09-05T13:21:56Z</time>
      </trkpt>
      <trkpt lat="44.50211" lon="1.41019">
        <ele>179.9</ele>
        <time>2021-09-05T13:21:57Z</time>
      </trkpt>
      <trkpt lat="44.50212" lon="1.41018">
        <ele>179.9</ele>
        <time>2021-09-05T13:21:58Z</time>
      </trkpt>
      <trkpt lat="44.50214" lon="1.41015">
        <ele>180.7</ele>
        <time>2021-09-05T13:22:00Z</time>
      </trkpt>
      <trkpt lat="44.50215" lon="1.41014">
        <ele>180.7</ele>
        <time>2021-09-05T13:22:02Z</time>
      </trkpt>
      <trkpt lat="44.50216" lon="1.41013">
        <ele>180.7</ele>
        <time>2021-09-05T13:22:03Z</time>
      </trkpt>
      <trkpt lat="44.50217" lon="1.41012">
        <ele>181</ele>
        <time>2021-09-05T13:22:04Z</time>
      </trkpt>
      <trkpt lat="44.50219" lon="1.41009">
        <ele>181.6</ele>
        <time>2021-09-05T13:22:05Z</time>
      </trkpt>
      <trkpt lat="44.5022" lon="1.41008">
        <ele>181.6</ele>
        <time>2021-09-05T13:22:07Z</time>
      </trkpt>
      <trkpt lat="44.50219" lon="1.41007">
        <ele>182.2</ele>
        <time>2021-09-05T13:22:08Z</time>
      </trkpt>
      <trkpt lat="44.50218" lon="1.41005">
        <ele>182.2</ele>
        <time>2021-09-05T13:22:09Z</time>
      </trkpt>
      <trkpt lat="44.50219" lon="1.41004">
        <ele>182.2</ele>
        <time>2021-09-05T13:22:10Z</time>
      </trkpt>
      <trkpt lat="44.50219" lon="1.41004">
        <ele>182.2</ele>
        <time>2021-09-05T13:22:12Z</time>
      </trkpt>
      <trkpt lat="44.5022" lon="1.41004">
        <ele>182.2</ele>
        <time>2021-09-05T13:22:13Z</time>
      </trkpt>
      <trkpt lat="44.5022" lon="1.41002">
        <ele>183</ele>
        <time>2021-09-05T13:22:14Z</time>
      </trkpt>
      <trkpt lat="44.50221" lon="1.41001">
        <ele>183</ele>
        <time>2021-09-05T13:22:16Z</time>
      </trkpt>
      <trkpt lat="44.50222" lon="1.40999">
        <ele>183</ele>
        <time>2021-09-05T13:22:17Z</time>
      </trkpt>
      <trkpt lat="44.50223" lon="1.40995">
        <ele>183.7</ele>
        <time>2021-09-05T13:22:19Z</time>
      </trkpt>
      <trkpt lat="44.50224" lon="1.40993">
        <ele>184.4</ele>
        <time>2021-09-05T13:22:20Z</time>
      </trkpt>
      <trkpt lat="44.50225" lon="1.4099">
        <ele>184.4</ele>
        <time>2021-09-05T13:22:22Z</time>
      </trkpt>
      <trkpt lat="44.50227" lon="1.40987">
        <ele>185.1</ele>
        <time>2021-09-05T13:22:23Z</time>
      </trkpt>
      <trkpt lat="44.50227" lon="1.40986">
        <ele>185.1</ele>
        <time>2021-09-05T13:22:24Z</time>
      </trkpt>
      <trkpt lat="44.50228" lon="1.40985">
        <ele>185.7</ele>
        <time>2021-09-05T13:22:26Z</time>
      </trkpt>
      <trkpt lat="44.50229" lon="1.40985">
        <ele>185.7</ele>
        <time>2021-09-05T13:22:28Z</time>
      </trkpt>
      <trkpt lat="44.50229" lon="1.40984">
        <ele>185.8</ele>
        <time>2021-09-05T13:22:29Z</time>
      </trkpt>
      <trkpt lat="44.5023" lon="1.40984">
        <ele>185.8</ele>
        <time>2021-09-05T13:22:30Z</time>
      </trkpt>
      <trkpt lat="44.5023" lon="1.40984">
        <ele>185.8</ele>
        <time>2021-09-05T13:22:31Z</time>
      </trkpt>
      <trkpt lat="44.50231" lon="1.40982">
        <ele>185.8</ele>
        <time>2021-09-05T13:22:32Z</time>
      </trkpt>
      <trkpt lat="44.50232" lon="1.4098">
        <ele>186.4</ele>
        <time>2021-09-05T13:22:34Z</time>
      </trkpt>
      <trkpt lat="44.50233" lon="1.40979">
        <ele>186.5</ele>
        <time>2021-09-05T13:22:35Z</time>
      </trkpt>
      <trkpt lat="44.50234" lon="1.40978">
        <ele>186.5</ele>
        <time>2021-09-05T13:22:36Z</time>
      </trkpt>
      <trkpt lat="44.50236" lon="1.40976">
        <ele>187.2</ele>
        <time>2021-09-05T13:22:37Z</time>
      </trkpt>
      <trkpt lat="44.50237" lon="1.40971">
        <ele>187.7</ele>
        <time>2021-09-05T13:22:39Z</time>
      </trkpt>
      <trkpt lat="44.50238" lon="1.40966">
        <ele>188.3</ele>
        <time>2021-09-05T13:22:40Z</time>
      </trkpt>
      <trkpt lat="44.50239" lon="1.40962">
        <ele>189</ele>
        <time>2021-09-05T13:22:41Z</time>
      </trkpt>
      <trkpt lat="44.50239" lon="1.40956">
        <ele>189.7</ele>
        <time>2021-09-05T13:22:43Z</time>
      </trkpt>
      <trkpt lat="44.5024" lon="1.40954">
        <ele>190.4</ele>
        <time>2021-09-05T13:22:44Z</time>
      </trkpt>
      <trkpt lat="44.50241" lon="1.40953">
        <ele>190.4</ele>
        <time>2021-09-05T13:22:46Z</time>
      </trkpt>
      <trkpt lat="44.50242" lon="1.40952">
        <ele>190.3</ele>
        <time>2021-09-05T13:22:47Z</time>
      </trkpt>
      <trkpt lat="44.50243" lon="1.40949">
        <ele>191</ele>
        <time>2021-09-05T13:22:48Z</time>
      </trkpt>
      <trkpt lat="44.50244" lon="1.40947">
        <ele>191</ele>
        <time>2021-09-05T13:22:50Z</time>
      </trkpt>
      <trkpt lat="44.50245" lon="1.40945">
        <ele>191.6</ele>
        <time>2021-09-05T13:22:51Z</time>
      </trkpt>
      <trkpt lat="44.50247" lon="1.40943">
        <ele>191.6</ele>
        <time>2021-09-05T13:22:52Z</time>
      </trkpt>
      <trkpt lat="44.50249" lon="1.40942">
        <ele>192.2</ele>
        <time>2021-09-05T13:22:54Z</time>
      </trkpt>
      <trkpt lat="44.5025" lon="1.4094">
        <ele>192.2</ele>
        <time>2021-09-05T13:22:55Z</time>
      </trkpt>
      <trkpt lat="44.50252" lon="1.40938">
        <ele>192.7</ele>
        <time>2021-09-05T13:22:56Z</time>
      </trkpt>
      <trkpt lat="44.50253" lon="1.40936">
        <ele>192.7</ele>
        <time>2021-09-05T13:22:57Z</time>
      </trkpt>
      <trkpt lat="44.50254" lon="1.40936">
        <ele>192.6</ele>
        <time>2021-09-05T13:22:58Z</time>
      </trkpt>
      <trkpt lat="44.50257" lon="1.40935">
        <ele>192.6</ele>
        <time>2021-09-05T13:23:00Z</time>
      </trkpt>
      <trkpt lat="44.50257" lon="1.40934">
        <ele>193.1</ele>
        <time>2021-09-05T13:23:01Z</time>
      </trkpt>
      <trkpt lat="44.50258" lon="1.40933">
        <ele>193.1</ele>
        <time>2021-09-05T13:23:02Z</time>
      </trkpt>
      <trkpt lat="44.5026" lon="1.40932">
        <ele>193</ele>
        <time>2021-09-05T13:23:04Z</time>
      </trkpt>
      <trkpt lat="44.50261" lon="1.40931">
        <ele>193</ele>
        <time>2021-09-05T13:23:05Z</time>
      </trkpt>
      <trkpt lat="44.50264" lon="1.40928">
        <ele>193.5</ele>
        <time>2021-09-05T13:23:06Z</time>
      </trkpt>
      <trkpt lat="44.50265" lon="1.40926">
        <ele>193.5</ele>
        <time>2021-09-05T13:23:08Z</time>
      </trkpt>
      <trkpt lat="44.50266" lon="1.40924">
        <ele>194</ele>
        <time>2021-09-05T13:23:09Z</time>
      </trkpt>
      <trkpt lat="44.50269" lon="1.40921">
        <ele>194.6</ele>
        <time>2021-09-05T13:23:10Z</time>
      </trkpt>
      <trkpt lat="44.5027" lon="1.40919">
        <ele>194.6</ele>
        <time>2021-09-05T13:23:11Z</time>
      </trkpt>
      <trkpt lat="44.50272" lon="1.40917">
        <ele>194.6</ele>
        <time>2021-09-05T13:23:12Z</time>
      </trkpt>
      <trkpt lat="44.50273" lon="1.40916">
        <ele>195.2</ele>
        <time>2021-09-05T13:23:14Z</time>
      </trkpt>
      <trkpt lat="44.50275" lon="1.40914">
        <ele>195.2</ele>
        <time>2021-09-05T13:23:15Z</time>
      </trkpt>
      <trkpt lat="44.50277" lon="1.40911">
        <ele>195.8</ele>
        <time>2021-09-05T13:23:17Z</time>
      </trkpt>
      <trkpt lat="44.50278" lon="1.4091">
        <ele>195.8</ele>
        <time>2021-09-05T13:23:18Z</time>
      </trkpt>
      <trkpt lat="44.50278" lon="1.40909">
        <ele>195.9</ele>
        <time>2021-09-05T13:23:19Z</time>
      </trkpt>
      <trkpt lat="44.50278" lon="1.40909">
        <ele>195.9</ele>
        <time>2021-09-05T13:23:20Z</time>
      </trkpt>
      <trkpt lat="44.50279" lon="1.40908">
        <ele>196.5</ele>
        <time>2021-09-05T13:23:22Z</time>
      </trkpt>
      <trkpt lat="44.50279" lon="1.40908">
        <ele>196.5</ele>
        <time>2021-09-05T13:23:23Z</time>
      </trkpt>
      <trkpt lat="44.50279" lon="1.40908">
        <ele>196.5</ele>
        <time>2021-09-05T13:23:25Z</time>
      </trkpt>
      <trkpt lat="44.50279" lon="1.40908">
        <ele>196.5</ele>
        <time>2021-09-05T13:23:26Z</time>
      </trkpt>
      <trkpt lat="44.5028" lon="1.40907">
        <ele>196.5</ele>
        <time>2021-09-05T13:23:27Z</time>
      </trkpt>
      <trkpt lat="44.50296" lon="1.40884">
        <ele>199.9</ele>
        <time>2021-09-05T13:23:40Z</time>
      </trkpt>
      <trkpt lat="44.50299" lon="1.40883">
        <ele>200.1</ele>
        <time>2021-09-05T13:23:41Z</time>
      </trkpt>
      <trkpt lat="44.50302" lon="1.4088">
        <ele>200.9</ele>
        <time>2021-09-05T13:23:43Z</time>
      </trkpt>
      <trkpt lat="44.50301" lon="1.40875">
        <ele>201.4</ele>
        <time>2021-09-05T13:23:44Z</time>
      </trkpt>
      <trkpt lat="44.503" lon="1.4087">
        <ele>202</ele>
        <time>2021-09-05T13:23:46Z</time>
      </trkpt>
      <trkpt lat="44.50301" lon="1.40869">
        <ele>202.7</ele>
        <time>2021-09-05T13:23:47Z</time>
      </trkpt>
      <trkpt lat="44.50302" lon="1.40869">
        <ele>202.7</ele>
        <time>2021-09-05T13:23:48Z</time>
      </trkpt>
      <trkpt lat="44.50303" lon="1.40868">
        <ele>202.9</ele>
        <time>2021-09-05T13:23:49Z</time>
      </trkpt>
      <trkpt lat="44.50306" lon="1.40868">
        <ele>203.1</ele>
        <time>2021-09-05T13:23:50Z</time>
      </trkpt>
      <trkpt lat="44.5031" lon="1.40865">
        <ele>204.1</ele>
        <time>2021-09-05T13:23:52Z</time>
      </trkpt>
      <trkpt lat="44.50312" lon="1.40866">
        <ele>203.4</ele>
        <time>2021-09-05T13:23:53Z</time>
      </trkpt>
      <trkpt lat="44.50312" lon="1.40868">
        <ele>203.8</ele>
        <time>2021-09-05T13:23:54Z</time>
      </trkpt>
      <trkpt lat="44.50312" lon="1.40869">
        <ele>203.8</ele>
        <time>2021-09-05T13:23:55Z</time>
      </trkpt>
      <trkpt lat="44.50312" lon="1.4087">
        <ele>203.3</ele>
        <time>2021-09-05T13:23:57Z</time>
      </trkpt>
      <trkpt lat="44.50312" lon="1.40871">
        <ele>203.3</ele>
        <time>2021-09-05T13:23:59Z</time>
      </trkpt>
      <trkpt lat="44.50312" lon="1.40873">
        <ele>203.3</ele>
        <time>2021-09-05T13:24:00Z</time>
      </trkpt>
      <trkpt lat="44.50312" lon="1.40874">
        <ele>203.3</ele>
        <time>2021-09-05T13:24:02Z</time>
      </trkpt>
      <trkpt lat="44.50312" lon="1.40875">
        <ele>202.8</ele>
        <time>2021-09-05T13:24:21Z</time>
      </trkpt>
      <trkpt lat="44.50312" lon="1.40876">
        <ele>202.8</ele>
        <time>2021-09-05T13:24:22Z</time>
      </trkpt>
      <trkpt lat="44.50314" lon="1.40882">
        <ele>202.3</ele>
        <time>2021-09-05T13:24:23Z</time>
      </trkpt>
      <trkpt lat="44.50315" lon="1.40886">
        <ele>202.6</ele>
        <time>2021-09-05T13:24:25Z</time>
      </trkpt>
      <trkpt lat="44.50315" lon="1.40889">
        <ele>201.7</ele>
        <time>2021-09-05T13:24:26Z</time>
      </trkpt>
      <trkpt lat="44.50314" lon="1.40891">
        <ele>201.5</ele>
        <time>2021-09-05T13:24:28Z</time>
      </trkpt>
      <trkpt lat="44.50314" lon="1.40892">
        <ele>201.5</ele>
        <time>2021-09-05T13:24:30Z</time>
      </trkpt>
      <trkpt lat="44.50314" lon="1.40893">
        <ele>201.5</ele>
        <time>2021-09-05T13:24:31Z</time>
      </trkpt>
      <trkpt lat="44.50314" lon="1.40894">
        <ele>201.5</ele>
        <time>2021-09-05T13:24:32Z</time>
      </trkpt>
      <trkpt lat="44.50314" lon="1.40896">
        <ele>201.3</ele>
        <time>2021-09-05T13:24:33Z</time>
      </trkpt>
      <trkpt lat="44.50314" lon="1.40901">
        <ele>201.1</ele>
        <time>2021-09-05T13:24:34Z</time>
      </trkpt>
      <trkpt lat="44.50314" lon="1.40902">
        <ele>201.1</ele>
        <time>2021-09-05T13:24:35Z</time>
      </trkpt>
      <trkpt lat="44.50312" lon="1.40908">
        <ele>201</ele>
        <time>2021-09-05T13:24:37Z</time>
      </trkpt>
      <trkpt lat="44.50311" lon="1.40912">
        <ele>200.1</ele>
        <time>2021-09-05T13:24:38Z</time>
      </trkpt>
      <trkpt lat="44.50311" lon="1.40917">
        <ele>200</ele>
        <time>2021-09-05T13:24:39Z</time>
      </trkpt>
      <trkpt lat="44.50312" lon="1.40921">
        <ele>200.6</ele>
        <time>2021-09-05T13:24:41Z</time>
      </trkpt>
      <trkpt lat="44.50312" lon="1.40923">
        <ele>199.7</ele>
        <time>2021-09-05T13:24:42Z</time>
      </trkpt>
      <trkpt lat="44.5031" lon="1.40927">
        <ele>199.7</ele>
        <time>2021-09-05T13:24:43Z</time>
      </trkpt>
      <trkpt lat="44.50309" lon="1.40931">
        <ele>199.7</ele>
        <time>2021-09-05T13:24:45Z</time>
      </trkpt>
      <trkpt lat="44.50308" lon="1.40932">
        <ele>198.8</ele>
        <time>2021-09-05T13:24:46Z</time>
      </trkpt>
      <trkpt lat="44.50308" lon="1.40936">
        <ele>198.9</ele>
        <time>2021-09-05T13:24:47Z</time>
      </trkpt>
      <trkpt lat="44.50308" lon="1.4094">
        <ele>198.9</ele>
        <time>2021-09-05T13:24:48Z</time>
      </trkpt>
      <trkpt lat="44.50307" lon="1.40941">
        <ele>198.9</ele>
        <time>2021-09-05T13:24:49Z</time>
      </trkpt>
      <trkpt lat="44.50304" lon="1.40947">
        <ele>198.3</ele>
        <time>2021-09-05T13:24:51Z</time>
      </trkpt>
      <trkpt lat="44.50303" lon="1.40949">
        <ele>198.3</ele>
        <time>2021-09-05T13:24:52Z</time>
      </trkpt>
      <trkpt lat="44.50302" lon="1.40951">
        <ele>197.5</ele>
        <time>2021-09-05T13:24:53Z</time>
      </trkpt>
      <trkpt lat="44.503" lon="1.40954">
        <ele>197.6</ele>
        <time>2021-09-05T13:24:55Z</time>
      </trkpt>
      <trkpt lat="44.50298" lon="1.40959">
        <ele>196.9</ele>
        <time>2021-09-05T13:24:56Z</time>
      </trkpt>
      <trkpt lat="44.50295" lon="1.40965">
        <ele>196.3</ele>
        <time>2021-09-05T13:24:57Z</time>
      </trkpt>
      <trkpt lat="44.50292" lon="1.40973">
        <ele>195.7</ele>
        <time>2021-09-05T13:24:59Z</time>
      </trkpt>
      <trkpt lat="44.5029" lon="1.40978">
        <ele>195.1</ele>
        <time>2021-09-05T13:25:00Z</time>
      </trkpt>
      <trkpt lat="44.5029" lon="1.40983">
        <ele>195.3</ele>
        <time>2021-09-05T13:25:01Z</time>
      </trkpt>
      <trkpt lat="44.50289" lon="1.40987">
        <ele>195.4</ele>
        <time>2021-09-05T13:25:02Z</time>
      </trkpt>
      <trkpt lat="44.50288" lon="1.40991">
        <ele>195.6</ele>
        <time>2021-09-05T13:25:04Z</time>
      </trkpt>
      <trkpt lat="44.50286" lon="1.40992">
        <ele>194.9</ele>
        <time>2021-09-05T13:25:05Z</time>
      </trkpt>
      <trkpt lat="44.50285" lon="1.40995">
        <ele>195.1</ele>
        <time>2021-09-05T13:25:06Z</time>
      </trkpt>
      <trkpt lat="44.50283" lon="1.40999">
        <ele>194.5</ele>
        <time>2021-09-05T13:25:08Z</time>
      </trkpt>
      <trkpt lat="44.50281" lon="1.41002">
        <ele>193.7</ele>
        <time>2021-09-05T13:25:09Z</time>
      </trkpt>
      <trkpt lat="44.50279" lon="1.41006">
        <ele>193.9</ele>
        <time>2021-09-05T13:25:10Z</time>
      </trkpt>
      <trkpt lat="44.50277" lon="1.41009">
        <ele>193.1</ele>
        <time>2021-09-05T13:25:12Z</time>
      </trkpt>
      <trkpt lat="44.50277" lon="1.4101">
        <ele>193.1</ele>
        <time>2021-09-05T13:25:13Z</time>
      </trkpt>
      <trkpt lat="44.50275" lon="1.41014">
        <ele>192.4</ele>
        <time>2021-09-05T13:25:14Z</time>
      </trkpt>
      <trkpt lat="44.50273" lon="1.41017">
        <ele>192.5</ele>
        <time>2021-09-05T13:25:15Z</time>
      </trkpt>
      <trkpt lat="44.50272" lon="1.41019">
        <ele>192.5</ele>
        <time>2021-09-05T13:25:17Z</time>
      </trkpt>
      <trkpt lat="44.50269" lon="1.41025">
        <ele>191.8</ele>
        <time>2021-09-05T13:25:19Z</time>
      </trkpt>
      <trkpt lat="44.50268" lon="1.41028">
        <ele>190.9</ele>
        <time>2021-09-05T13:25:20Z</time>
      </trkpt>
      <trkpt lat="44.50267" lon="1.4103">
        <ele>191.1</ele>
        <time>2021-09-05T13:25:21Z</time>
      </trkpt>
      <trkpt lat="44.50266" lon="1.41035">
        <ele>191.2</ele>
        <time>2021-09-05T13:25:22Z</time>
      </trkpt>
      <trkpt lat="44.50266" lon="1.41036">
        <ele>190.4</ele>
        <time>2021-09-05T13:25:23Z</time>
      </trkpt>
      <trkpt lat="44.50264" lon="1.41042">
        <ele>190.7</ele>
        <time>2021-09-05T13:25:25Z</time>
      </trkpt>
      <trkpt lat="44.50263" lon="1.41043">
        <ele>190.7</ele>
        <time>2021-09-05T13:25:26Z</time>
      </trkpt>
      <trkpt lat="44.50263" lon="1.41045">
        <ele>190.7</ele>
        <time>2021-09-05T13:25:27Z</time>
      </trkpt>
      <trkpt lat="44.50262" lon="1.41049">
        <ele>190</ele>
        <time>2021-09-05T13:25:28Z</time>
      </trkpt>
      <trkpt lat="44.50261" lon="1.41054">
        <ele>190.2</ele>
        <time>2021-09-05T13:25:30Z</time>
      </trkpt>
      <trkpt lat="44.50261" lon="1.41056">
        <ele>190.5</ele>
        <time>2021-09-05T13:25:31Z</time>
      </trkpt>
      <trkpt lat="44.5026" lon="1.41061">
        <ele>190.7</ele>
        <time>2021-09-05T13:25:32Z</time>
      </trkpt>
      <trkpt lat="44.50259" lon="1.41062">
        <ele>189.6</ele>
        <time>2021-09-05T13:25:33Z</time>
      </trkpt>
      <trkpt lat="44.50258" lon="1.41067">
        <ele>190</ele>
        <time>2021-09-05T13:25:35Z</time>
      </trkpt>
      <trkpt lat="44.50257" lon="1.41069">
        <ele>190</ele>
        <time>2021-09-05T13:25:36Z</time>
      </trkpt>
      <trkpt lat="44.50256" lon="1.41073">
        <ele>189</ele>
        <time>2021-09-05T13:25:37Z</time>
      </trkpt>
      <trkpt lat="44.50255" lon="1.41079">
        <ele>189.1</ele>
        <time>2021-09-05T13:25:38Z</time>
      </trkpt>
      <trkpt lat="44.50254" lon="1.41083">
        <ele>189.2</ele>
        <time>2021-09-05T13:25:39Z</time>
      </trkpt>
      <trkpt lat="44.50254" lon="1.41088">
        <ele>188</ele>
        <time>2021-09-05T13:25:41Z</time>
      </trkpt>
      <trkpt lat="44.50253" lon="1.4109">
        <ele>188.1</ele>
        <time>2021-09-05T13:25:42Z</time>
      </trkpt>
      <trkpt lat="44.50253" lon="1.41095">
        <ele>188.1</ele>
        <time>2021-09-05T13:25:44Z</time>
      </trkpt>
      <trkpt lat="44.50252" lon="1.41096">
        <ele>188.1</ele>
        <time>2021-09-05T13:25:45Z</time>
      </trkpt>
      <trkpt lat="44.50252" lon="1.41098">
        <ele>188.1</ele>
        <time>2021-09-05T13:25:47Z</time>
      </trkpt>
      <trkpt lat="44.50252" lon="1.411">
        <ele>188.1</ele>
        <time>2021-09-05T13:25:48Z</time>
      </trkpt>
      <trkpt lat="44.50252" lon="1.411">
        <ele>188.1</ele>
        <time>2021-09-05T13:25:50Z</time>
      </trkpt>
      <trkpt lat="44.50251" lon="1.41101">
        <ele>188.1</ele>
        <time>2021-09-05T13:25:51Z</time>
      </trkpt>
      <trkpt lat="44.50251" lon="1.41101">
        <ele>188.1</ele>
        <time>2021-09-05T13:25:53Z</time>
      </trkpt>
      <trkpt lat="44.50251" lon="1.41101">
        <ele>188.1</ele>
        <time>2021-09-05T13:25:54Z</time>
      </trkpt>
      <trkpt lat="44.50251" lon="1.41101">
        <ele>188.1</ele>
        <time>2021-09-05T13:25:55Z</time>
      </trkpt>
      <trkpt lat="44.50251" lon="1.41101">
        <ele>188.1</ele>
        <time>2021-09-05T13:25:57Z</time>
      </trkpt>
      <trkpt lat="44.50251" lon="1.41111">
        <ele>188.1</ele>
        <time>2021-09-05T13:25:59Z</time>
      </trkpt>
      <trkpt lat="44.50251" lon="1.41111">
        <ele>188.1</ele>
        <time>2021-09-05T13:25:59Z</time>
      </trkpt>
      <trkpt lat="44.50251" lon="1.41118">
        <ele>188</ele>
        <time>2021-09-05T13:26:00Z</time>
      </trkpt>
      <trkpt lat="44.5025" lon="1.41124">
        <ele>186.4</ele>
        <time>2021-09-05T13:26:01Z</time>
      </trkpt>
      <trkpt lat="44.50249" lon="1.4113">
        <ele>186.2</ele>
        <time>2021-09-05T13:26:02Z</time>
      </trkpt>
      <trkpt lat="44.5025" lon="1.41137">
        <ele>185.8</ele>
        <time>2021-09-05T13:26:03Z</time>
      </trkpt>
      <trkpt lat="44.50251" lon="1.41141">
        <ele>186.9</ele>
        <time>2021-09-05T13:26:05Z</time>
      </trkpt>
      <trkpt lat="44.50252" lon="1.41142">
        <ele>186.9</ele>
        <time>2021-09-05T13:26:06Z</time>
      </trkpt>
      <trkpt lat="44.50253" lon="1.41146">
        <ele>186.6</ele>
        <time>2021-09-05T13:26:07Z</time>
      </trkpt>
      <trkpt lat="44.50256" lon="1.41148">
        <ele>188</ele>
        <time>2021-09-05T13:26:08Z</time>
      </trkpt>
      <trkpt lat="44.50258" lon="1.41151">
        <ele>189</ele>
        <time>2021-09-05T13:26:10Z</time>
      </trkpt>
      <trkpt lat="44.5026" lon="1.41155">
        <ele>189.8</ele>
        <time>2021-09-05T13:26:11Z</time>
      </trkpt>
      <trkpt lat="44.50261" lon="1.41158">
        <ele>189.3</ele>
        <time>2021-09-05T13:26:12Z</time>
      </trkpt>
      <trkpt lat="44.50264" lon="1.41162">
        <ele>189.9</ele>
        <time>2021-09-05T13:26:14Z</time>
      </trkpt>
      <trkpt lat="44.50267" lon="1.41165">
        <ele>191</ele>
        <time>2021-09-05T13:26:16Z</time>
      </trkpt>
      <trkpt lat="44.50268" lon="1.41166">
        <ele>190.5</ele>
        <time>2021-09-05T13:26:17Z</time>
      </trkpt>
      <trkpt lat="44.5027" lon="1.41169">
        <ele>191.6</ele>
        <time>2021-09-05T13:26:18Z</time>
      </trkpt>
      <trkpt lat="44.50271" lon="1.4117">
        <ele>191.6</ele>
        <time>2021-09-05T13:26:19Z</time>
      </trkpt>
      <trkpt lat="44.50274" lon="1.41173">
        <ele>192.1</ele>
        <time>2021-09-05T13:26:20Z</time>
      </trkpt>
      <trkpt lat="44.50276" lon="1.41174">
        <ele>193.2</ele>
        <time>2021-09-05T13:26:21Z</time>
      </trkpt>
      <trkpt lat="44.50279" lon="1.41177">
        <ele>193.7</ele>
        <time>2021-09-05T13:26:23Z</time>
      </trkpt>
      <trkpt lat="44.5028" lon="1.41178">
        <ele>193.7</ele>
        <time>2021-09-05T13:26:24Z</time>
      </trkpt>
      <trkpt lat="44.50281" lon="1.41179">
        <ele>194</ele>
        <time>2021-09-05T13:26:25Z</time>
      </trkpt>
      <trkpt lat="44.50283" lon="1.41179">
        <ele>194</ele>
        <time>2021-09-05T13:26:27Z</time>
      </trkpt>
      <trkpt lat="44.50282" lon="1.41179">
        <ele>194</ele>
        <time>2021-09-05T13:26:29Z</time>
      </trkpt>
      <trkpt lat="44.50282" lon="1.41179">
        <ele>194</ele>
        <time>2021-09-05T13:26:31Z</time>
      </trkpt>
      <trkpt lat="44.50282" lon="1.41179">
        <ele>194</ele>
        <time>2021-09-05T13:26:32Z</time>
      </trkpt>
      <trkpt lat="44.50282" lon="1.41179">
        <ele>194</ele>
        <time>2021-09-05T13:26:33Z</time>
      </trkpt>
      <trkpt lat="44.50282" lon="1.41179">
        <ele>194</ele>
        <time>2021-09-05T13:26:34Z</time>
      </trkpt>
      <trkpt lat="44.50283" lon="1.41179">
        <ele>194</ele>
        <time>2021-09-05T13:26:35Z</time>
      </trkpt>
      <trkpt lat="44.50285" lon="1.4118">
        <ele>195</ele>
        <time>2021-09-05T13:26:37Z</time>
      </trkpt>
      <trkpt lat="44.50289" lon="1.41181">
        <ele>195.9</ele>
        <time>2021-09-05T13:26:38Z</time>
      </trkpt>
      <trkpt lat="44.50292" lon="1.41182">
        <ele>196.7</ele>
        <time>2021-09-05T13:26:39Z</time>
      </trkpt>
      <trkpt lat="44.50294" lon="1.41185">
        <ele>196.8</ele>
        <time>2021-09-05T13:26:41Z</time>
      </trkpt>
      <trkpt lat="44.50298" lon="1.41187">
        <ele>196.7</ele>
        <time>2021-09-05T13:26:42Z</time>
      </trkpt>
      <trkpt lat="44.50301" lon="1.41188">
        <ele>197.4</ele>
        <time>2021-09-05T13:26:43Z</time>
      </trkpt>
      <trkpt lat="44.50303" lon="1.41191">
        <ele>198.1</ele>
        <time>2021-09-05T13:26:45Z</time>
      </trkpt>
      <trkpt lat="44.50306" lon="1.41192">
        <ele>197.9</ele>
        <time>2021-09-05T13:26:46Z</time>
      </trkpt>
      <trkpt lat="44.50309" lon="1.41193">
        <ele>198.4</ele>
        <time>2021-09-05T13:26:47Z</time>
      </trkpt>
      <trkpt lat="44.50311" lon="1.41194">
        <ele>198.4</ele>
        <time>2021-09-05T13:26:48Z</time>
      </trkpt>
      <trkpt lat="44.50314" lon="1.41194">
        <ele>198.9</ele>
        <time>2021-09-05T13:26:50Z</time>
      </trkpt>
      <trkpt lat="44.50317" lon="1.41197">
        <ele>198.4</ele>
        <time>2021-09-05T13:26:51Z</time>
      </trkpt>
      <trkpt lat="44.50321" lon="1.41198">
        <ele>198.7</ele>
        <time>2021-09-05T13:26:53Z</time>
      </trkpt>
      <trkpt lat="44.50322" lon="1.412">
        <ele>199.1</ele>
        <time>2021-09-05T13:26:54Z</time>
      </trkpt>
      <trkpt lat="44.50326" lon="1.412">
        <ele>198.5</ele>
        <time>2021-09-05T13:26:56Z</time>
      </trkpt>
      <trkpt lat="44.50327" lon="1.41201">
        <ele>198.5</ele>
        <time>2021-09-05T13:26:57Z</time>
      </trkpt>
      <trkpt lat="44.50329" lon="1.41201">
        <ele>198.8</ele>
        <time>2021-09-05T13:26:58Z</time>
      </trkpt>
      <trkpt lat="44.50331" lon="1.41202">
        <ele>199.1</ele>
        <time>2021-09-05T13:27:00Z</time>
      </trkpt>
      <trkpt lat="44.50334" lon="1.41203">
        <ele>199.4</ele>
        <time>2021-09-05T13:27:01Z</time>
      </trkpt>
      <trkpt lat="44.50336" lon="1.41204">
        <ele>199.4</ele>
        <time>2021-09-05T13:27:02Z</time>
      </trkpt>
      <trkpt lat="44.50338" lon="1.41204">
        <ele>198.7</ele>
        <time>2021-09-05T13:27:04Z</time>
      </trkpt>
      <trkpt lat="44.50341" lon="1.41205">
        <ele>199</ele>
        <time>2021-09-05T13:27:05Z</time>
      </trkpt>
      <trkpt lat="44.50342" lon="1.41205">
        <ele>199</ele>
        <time>2021-09-05T13:27:06Z</time>
      </trkpt>
      <trkpt lat="44.50347" lon="1.41206">
        <ele>199.3</ele>
        <time>2021-09-05T13:27:08Z</time>
      </trkpt>
      <trkpt lat="44.50349" lon="1.41206">
        <ele>199.4</ele>
        <time>2021-09-05T13:27:09Z</time>
      </trkpt>
      <trkpt lat="44.5035" lon="1.41207">
        <ele>199.4</ele>
        <time>2021-09-05T13:27:10Z</time>
      </trkpt>
      <trkpt lat="44.50353" lon="1.41207">
        <ele>199.5</ele>
        <time>2021-09-05T13:27:12Z</time>
      </trkpt>
      <trkpt lat="44.50357" lon="1.41206">
        <ele>199.5</ele>
        <time>2021-09-05T13:27:13Z</time>
      </trkpt>
      <trkpt lat="44.5036" lon="1.41206">
        <ele>199.6</ele>
        <time>2021-09-05T13:27:15Z</time>
      </trkpt>
      <trkpt lat="44.5036" lon="1.41206">
        <ele>199.6</ele>
        <time>2021-09-05T13:27:16Z</time>
      </trkpt>
      <trkpt lat="44.50364" lon="1.41207">
        <ele>199.6</ele>
        <time>2021-09-05T13:27:17Z</time>
      </trkpt>
      <trkpt lat="44.50365" lon="1.41207">
        <ele>199.7</ele>
        <time>2021-09-05T13:27:18Z</time>
      </trkpt>
      <trkpt lat="44.50368" lon="1.41206">
        <ele>199.7</ele>
        <time>2021-09-05T13:27:20Z</time>
      </trkpt>
      <trkpt lat="44.5037" lon="1.41206">
        <ele>199.6</ele>
        <time>2021-09-05T13:27:21Z</time>
      </trkpt>
      <trkpt lat="44.50372" lon="1.41207">
        <ele>199.6</ele>
        <time>2021-09-05T13:27:23Z</time>
      </trkpt>
      <trkpt lat="44.50375" lon="1.41209">
        <ele>198.5</ele>
        <time>2021-09-05T13:27:24Z</time>
      </trkpt>
      <trkpt lat="44.50376" lon="1.4121">
        <ele>198.4</ele>
        <time>2021-09-05T13:27:25Z</time>
      </trkpt>
      <trkpt lat="44.50379" lon="1.41209">
        <ele>198.4</ele>
        <time>2021-09-05T13:27:26Z</time>
      </trkpt>
      <trkpt lat="44.50382" lon="1.4121">
        <ele>198.3</ele>
        <time>2021-09-05T13:27:27Z</time>
      </trkpt>
      <trkpt lat="44.50385" lon="1.4121">
        <ele>198.2</ele>
        <time>2021-09-05T13:27:29Z</time>
      </trkpt>
      <trkpt lat="44.50386" lon="1.4121">
        <ele>198</ele>
        <time>2021-09-05T13:27:30Z</time>
      </trkpt>
      <trkpt lat="44.50389" lon="1.41209">
        <ele>197.9</ele>
        <time>2021-09-05T13:27:31Z</time>
      </trkpt>
      <trkpt lat="44.50393" lon="1.41209">
        <ele>199</ele>
        <time>2021-09-05T13:27:33Z</time>
      </trkpt>
      <trkpt lat="44.50394" lon="1.41208">
        <ele>199</ele>
        <time>2021-09-05T13:27:34Z</time>
      </trkpt>
      <trkpt lat="44.50397" lon="1.41208">
        <ele>198.8</ele>
        <time>2021-09-05T13:27:35Z</time>
      </trkpt>
      <trkpt lat="44.50398" lon="1.41209">
        <ele>197.4</ele>
        <time>2021-09-05T13:27:37Z</time>
      </trkpt>
      <trkpt lat="44.504" lon="1.41209">
        <ele>197.4</ele>
        <time>2021-09-05T13:27:38Z</time>
      </trkpt>
      <trkpt lat="44.50401" lon="1.4121">
        <ele>197.2</ele>
        <time>2021-09-05T13:27:39Z</time>
      </trkpt>
      <trkpt lat="44.50405" lon="1.41211">
        <ele>197</ele>
        <time>2021-09-05T13:27:41Z</time>
      </trkpt>
      <trkpt lat="44.50409" lon="1.41212">
        <ele>196.8</ele>
        <time>2021-09-05T13:27:42Z</time>
      </trkpt>
      <trkpt lat="44.50412" lon="1.41212">
        <ele>196.6</ele>
        <time>2021-09-05T13:27:43Z</time>
      </trkpt>
      <trkpt lat="44.50415" lon="1.4121">
        <ele>196.3</ele>
        <time>2021-09-05T13:27:44Z</time>
      </trkpt>
      <trkpt lat="44.50418" lon="1.41209">
        <ele>196</ele>
        <time>2021-09-05T13:27:46Z</time>
      </trkpt>
      <trkpt lat="44.50421" lon="1.41207">
        <ele>197</ele>
        <time>2021-09-05T13:27:47Z</time>
      </trkpt>
      <trkpt lat="44.50425" lon="1.41205">
        <ele>196.7</ele>
        <time>2021-09-05T13:27:49Z</time>
      </trkpt>
      <trkpt lat="44.50426" lon="1.41203">
        <ele>197.6</ele>
        <time>2021-09-05T13:27:51Z</time>
      </trkpt>
      <trkpt lat="44.50427" lon="1.41202">
        <ele>197.6</ele>
        <time>2021-09-05T13:27:52Z</time>
      </trkpt>
      <trkpt lat="44.50429" lon="1.412">
        <ele>198.6</ele>
        <time>2021-09-05T13:27:53Z</time>
      </trkpt>
      <trkpt lat="44.50432" lon="1.41197">
        <ele>198.2</ele>
        <time>2021-09-05T13:27:54Z</time>
      </trkpt>
      <trkpt lat="44.50433" lon="1.41196">
        <ele>198.2</ele>
        <time>2021-09-05T13:27:56Z</time>
      </trkpt>
      <trkpt lat="44.50433" lon="1.41196">
        <ele>199.6</ele>
        <time>2021-09-05T13:27:57Z</time>
      </trkpt>
      <trkpt lat="44.50434" lon="1.41195">
        <ele>198.9</ele>
        <time>2021-09-05T13:27:58Z</time>
      </trkpt>
      <trkpt lat="44.50435" lon="1.41194">
        <ele>198.9</ele>
        <time>2021-09-05T13:27:59Z</time>
      </trkpt>
      <trkpt lat="44.50439" lon="1.41192">
        <ele>198.4</ele>
        <time>2021-09-05T13:28:01Z</time>
      </trkpt>
      <trkpt lat="44.50441" lon="1.41191">
        <ele>199.1</ele>
        <time>2021-09-05T13:28:02Z</time>
      </trkpt>
      <trkpt lat="44.50443" lon="1.41189">
        <ele>199.1</ele>
        <time>2021-09-05T13:28:04Z</time>
      </trkpt>
      <trkpt lat="44.50444" lon="1.41188">
        <ele>198.5</ele>
        <time>2021-09-05T13:28:05Z</time>
      </trkpt>
      <trkpt lat="44.50444" lon="1.41188">
        <ele>198.5</ele>
        <time>2021-09-05T13:28:06Z</time>
      </trkpt>
      <trkpt lat="44.50444" lon="1.41188">
        <ele>198.5</ele>
        <time>2021-09-05T13:28:08Z</time>
      </trkpt>
      <trkpt lat="44.50444" lon="1.41188">
        <ele>198.5</ele>
        <time>2021-09-05T13:28:09Z</time>
      </trkpt>
      <trkpt lat="44.50444" lon="1.41188">
        <ele>198.5</ele>
        <time>2021-09-05T13:28:10Z</time>
      </trkpt>
      <trkpt lat="44.50444" lon="1.41188">
        <ele>198.5</ele>
        <time>2021-09-05T13:28:11Z</time>
      </trkpt>
      <trkpt lat="44.50444" lon="1.41188">
        <ele>198.5</ele>
        <time>2021-09-05T13:28:13Z</time>
      </trkpt>
      <trkpt lat="44.50444" lon="1.41188">
        <ele>198.5</ele>
        <time>2021-09-05T13:28:14Z</time>
      </trkpt>
      <trkpt lat="44.50445" lon="1.41187">
        <ele>199.9</ele>
        <time>2021-09-05T13:28:51Z</time>
      </trkpt>
      <trkpt lat="44.5045" lon="1.41182">
        <ele>199.8</ele>
        <time>2021-09-05T13:28:53Z</time>
      </trkpt>
      <trkpt lat="44.50452" lon="1.4118">
        <ele>199.8</ele>
        <time>2021-09-05T13:28:54Z</time>
      </trkpt>
      <trkpt lat="44.50452" lon="1.41178">
        <ele>201.1</ele>
        <time>2021-09-05T13:28:55Z</time>
      </trkpt>
      <trkpt lat="44.50453" lon="1.41177">
        <ele>200.4</ele>
        <time>2021-09-05T13:28:58Z</time>
      </trkpt>
      <trkpt lat="44.50454" lon="1.41176">
        <ele>200.4</ele>
        <time>2021-09-05T13:28:59Z</time>
      </trkpt>
      <trkpt lat="44.50455" lon="1.41175">
        <ele>200.4</ele>
        <time>2021-09-05T13:29:01Z</time>
      </trkpt>
      <trkpt lat="44.50456" lon="1.41173">
        <ele>201</ele>
        <time>2021-09-05T13:29:02Z</time>
      </trkpt>
      <trkpt lat="44.5046" lon="1.41166">
        <ele>202.7</ele>
        <time>2021-09-05T13:29:03Z</time>
      </trkpt>
      <trkpt lat="44.50464" lon="1.4116">
        <ele>203.2</ele>
        <time>2021-09-05T13:29:13Z</time>
      </trkpt>
      <trkpt lat="44.50467" lon="1.41154">
        <ele>203.5</ele>
        <time>2021-09-05T13:29:14Z</time>
      </trkpt>
      <trkpt lat="44.50469" lon="1.41151">
        <ele>203.8</ele>
        <time>2021-09-05T13:29:15Z</time>
      </trkpt>
      <trkpt lat="44.5047" lon="1.41148">
        <ele>205.1</ele>
        <time>2021-09-05T13:29:16Z</time>
      </trkpt>
      <trkpt lat="44.50472" lon="1.41146">
        <ele>204.2</ele>
        <time>2021-09-05T13:29:18Z</time>
      </trkpt>
      <trkpt lat="44.50475" lon="1.41141">
        <ele>204.6</ele>
        <time>2021-09-05T13:29:19Z</time>
      </trkpt>
      <trkpt lat="44.50477" lon="1.41138">
        <ele>206</ele>
        <time>2021-09-05T13:29:20Z</time>
      </trkpt>
      <trkpt lat="44.50478" lon="1.41137">
        <ele>205.2</ele>
        <time>2021-09-05T13:29:22Z</time>
      </trkpt>
      <trkpt lat="44.50479" lon="1.41135">
        <ele>206.6</ele>
        <time>2021-09-05T13:29:23Z</time>
      </trkpt>
      <trkpt lat="44.5048" lon="1.41134">
        <ele>206.6</ele>
        <time>2021-09-05T13:29:24Z</time>
      </trkpt>
      <trkpt lat="44.5048" lon="1.41134">
        <ele>206.6</ele>
        <time>2021-09-05T13:29:25Z</time>
      </trkpt>
      <trkpt lat="44.5048" lon="1.41133">
        <ele>205.9</ele>
        <time>2021-09-05T13:29:26Z</time>
      </trkpt>
      <trkpt lat="44.50481" lon="1.41133">
        <ele>205.9</ele>
        <time>2021-09-05T13:29:27Z</time>
      </trkpt>
      <trkpt lat="44.50481" lon="1.41133">
        <ele>205.9</ele>
        <time>2021-09-05T13:29:28Z</time>
      </trkpt>
      <trkpt lat="44.50482" lon="1.41132">
        <ele>205.9</ele>
        <time>2021-09-05T13:29:30Z</time>
      </trkpt>
      <trkpt lat="44.50483" lon="1.4113">
        <ele>206.5</ele>
        <time>2021-09-05T13:29:31Z</time>
      </trkpt>
      <trkpt lat="44.50485" lon="1.41127">
        <ele>207.9</ele>
        <time>2021-09-05T13:29:33Z</time>
      </trkpt>
      <trkpt lat="44.50486" lon="1.41124">
        <ele>207.2</ele>
        <time>2021-09-05T13:29:35Z</time>
      </trkpt>
      <trkpt lat="44.50488" lon="1.41122">
        <ele>208.6</ele>
        <time>2021-09-05T13:29:37Z</time>
      </trkpt>
      <trkpt lat="44.50488" lon="1.41121">
        <ele>208.6</ele>
        <time>2021-09-05T13:29:38Z</time>
      </trkpt>
      <trkpt lat="44.50489" lon="1.4112">
        <ele>208.6</ele>
        <time>2021-09-05T13:29:39Z</time>
      </trkpt>
      <trkpt lat="44.50489" lon="1.41119">
        <ele>207.8</ele>
        <time>2021-09-05T13:29:40Z</time>
      </trkpt>
      <trkpt lat="44.50491" lon="1.41116">
        <ele>209.2</ele>
        <time>2021-09-05T13:29:42Z</time>
      </trkpt>
      <trkpt lat="44.50492" lon="1.41115">
        <ele>209.2</ele>
        <time>2021-09-05T13:29:43Z</time>
      </trkpt>
      <trkpt lat="44.50493" lon="1.41114">
        <ele>209.8</ele>
        <time>2021-09-05T13:29:44Z</time>
      </trkpt>
      <trkpt lat="44.50494" lon="1.41112">
        <ele>209.8</ele>
        <time>2021-09-05T13:29:46Z</time>
      </trkpt>
      <trkpt lat="44.50495" lon="1.41109">
        <ele>211.2</ele>
        <time>2021-09-05T13:29:47Z</time>
      </trkpt>
      <trkpt lat="44.50496" lon="1.41108">
        <ele>210.5</ele>
        <time>2021-09-05T13:29:48Z</time>
      </trkpt>
      <trkpt lat="44.50497" lon="1.41106">
        <ele>210.5</ele>
        <time>2021-09-05T13:29:49Z</time>
      </trkpt>
      <trkpt lat="44.50498" lon="1.41105">
        <ele>211.9</ele>
        <time>2021-09-05T13:29:51Z</time>
      </trkpt>
      <trkpt lat="44.50499" lon="1.41104">
        <ele>211.1</ele>
        <time>2021-09-05T13:29:52Z</time>
      </trkpt>
      <trkpt lat="44.50501" lon="1.41102">
        <ele>211.1</ele>
        <time>2021-09-05T13:29:54Z</time>
      </trkpt>
      <trkpt lat="44.50501" lon="1.41101">
        <ele>212.5</ele>
        <time>2021-09-05T13:29:55Z</time>
      </trkpt>
      <trkpt lat="44.50503" lon="1.41099">
        <ele>211.7</ele>
        <time>2021-09-05T13:29:56Z</time>
      </trkpt>
      <trkpt lat="44.50504" lon="1.41097">
        <ele>211.7</ele>
        <time>2021-09-05T13:29:57Z</time>
      </trkpt>
      <trkpt lat="44.50505" lon="1.41096">
        <ele>213.1</ele>
        <time>2021-09-05T13:29:58Z</time>
      </trkpt>
      <trkpt lat="44.50504" lon="1.41093">
        <ele>213.1</ele>
        <time>2021-09-05T13:30:01Z</time>
      </trkpt>
      <trkpt lat="44.50506" lon="1.4109">
        <ele>213.6</ele>
        <time>2021-09-05T13:30:02Z</time>
      </trkpt>
      <trkpt lat="44.50511" lon="1.41087">
        <ele>214</ele>
        <time>2021-09-05T13:30:03Z</time>
      </trkpt>
      <trkpt lat="44.50513" lon="1.41084">
        <ele>213.1</ele>
        <time>2021-09-05T13:30:04Z</time>
      </trkpt>
      <trkpt lat="44.50515" lon="1.41082">
        <ele>213.5</ele>
        <time>2021-09-05T13:30:05Z</time>
      </trkpt>
      <trkpt lat="44.50516" lon="1.41081">
        <ele>213.5</ele>
        <time>2021-09-05T13:30:07Z</time>
      </trkpt>
      <trkpt lat="44.50515" lon="1.41081">
        <ele>213.5</ele>
        <time>2021-09-05T13:30:08Z</time>
      </trkpt>
      <trkpt lat="44.50514" lon="1.41081">
        <ele>213.5</ele>
        <time>2021-09-05T13:30:10Z</time>
      </trkpt>
      <trkpt lat="44.50514" lon="1.41082">
        <ele>214.3</ele>
        <time>2021-09-05T13:30:11Z</time>
      </trkpt>
      <trkpt lat="44.50513" lon="1.41082">
        <ele>214.3</ele>
        <time>2021-09-05T13:30:12Z</time>
      </trkpt>
      <trkpt lat="44.50512" lon="1.41083">
        <ele>214.3</ele>
        <time>2021-09-05T13:30:14Z</time>
      </trkpt>
      <trkpt lat="44.50511" lon="1.41083">
        <ele>214.3</ele>
        <time>2021-09-05T13:30:17Z</time>
      </trkpt>
      <trkpt lat="44.5051" lon="1.41084">
        <ele>215.2</ele>
        <time>2021-09-05T13:30:19Z</time>
      </trkpt>
      <trkpt lat="44.50509" lon="1.41084">
        <ele>215.2</ele>
        <time>2021-09-05T13:30:21Z</time>
      </trkpt>
      <trkpt lat="44.50509" lon="1.41085">
        <ele>214</ele>
        <time>2021-09-05T13:30:23Z</time>
      </trkpt>
      <trkpt lat="44.50508" lon="1.41085">
        <ele>214</ele>
        <time>2021-09-05T13:30:24Z</time>
      </trkpt>
      <trkpt lat="44.50507" lon="1.41086">
        <ele>214.8</ele>
        <time>2021-09-05T13:30:25Z</time>
      </trkpt>
      <trkpt lat="44.50506" lon="1.41086">
        <ele>214.8</ele>
        <time>2021-09-05T13:30:26Z</time>
      </trkpt>
      <trkpt lat="44.50504" lon="1.41088">
        <ele>215.7</ele>
        <time>2021-09-05T13:30:27Z</time>
      </trkpt>
      <trkpt lat="44.50503" lon="1.41089">
        <ele>214.4</ele>
        <time>2021-09-05T13:30:28Z</time>
      </trkpt>
      <trkpt lat="44.505" lon="1.4109">
        <ele>215.2</ele>
        <time>2021-09-05T13:30:30Z</time>
      </trkpt>
      <trkpt lat="44.50499" lon="1.41091">
        <ele>215.2</ele>
        <time>2021-09-05T13:30:31Z</time>
      </trkpt>
      <trkpt lat="44.50498" lon="1.41092">
        <ele>216</ele>
        <time>2021-09-05T13:30:32Z</time>
      </trkpt>
      <trkpt lat="44.50494" lon="1.41095">
        <ele>215.5</ele>
        <time>2021-09-05T13:30:33Z</time>
      </trkpt>
      <trkpt lat="44.50491" lon="1.41099">
        <ele>214.8</ele>
        <time>2021-09-05T13:30:34Z</time>
      </trkpt>
      <trkpt lat="44.5049" lon="1.411">
        <ele>214.8</ele>
        <time>2021-09-05T13:30:35Z</time>
      </trkpt>
      <trkpt lat="44.50489" lon="1.41101">
        <ele>214.8</ele>
        <time>2021-09-05T13:30:37Z</time>
      </trkpt>
      <trkpt lat="44.50489" lon="1.41101">
        <ele>215.4</ele>
        <time>2021-09-05T13:30:38Z</time>
      </trkpt>
      <trkpt lat="44.50489" lon="1.41101">
        <ele>214.1</ele>
        <time>2021-09-05T13:30:39Z</time>
      </trkpt>
      <trkpt lat="44.50489" lon="1.41102">
        <ele>214.1</ele>
        <time>2021-09-05T13:30:40Z</time>
      </trkpt>
      <trkpt lat="44.50489" lon="1.41102">
        <ele>214.1</ele>
        <time>2021-09-05T13:30:42Z</time>
      </trkpt>
      <trkpt lat="44.50488" lon="1.41102">
        <ele>214.1</ele>
        <time>2021-09-05T13:30:43Z</time>
      </trkpt>
      <trkpt lat="44.50488" lon="1.41102">
        <ele>214.1</ele>
        <time>2021-09-05T13:30:44Z</time>
      </trkpt>
      <trkpt lat="44.50487" lon="1.41104">
        <ele>214.1</ele>
        <time>2021-09-05T13:30:50Z</time>
      </trkpt>
      <trkpt lat="44.50484" lon="1.41106">
        <ele>213.3</ele>
        <time>2021-09-05T13:30:51Z</time>
      </trkpt>
      <trkpt lat="44.50483" lon="1.41106">
        <ele>213.9</ele>
        <time>2021-09-05T13:30:53Z</time>
      </trkpt>
      <trkpt lat="44.50481" lon="1.41106">
        <ele>213.9</ele>
        <time>2021-09-05T13:30:54Z</time>
      </trkpt>
      <trkpt lat="44.5048" lon="1.41106">
        <ele>213.9</ele>
        <time>2021-09-05T13:30:55Z</time>
      </trkpt>
      <trkpt lat="44.50477" lon="1.41108">
        <ele>215</ele>
        <time>2021-09-05T13:30:57Z</time>
      </trkpt>
      <trkpt lat="44.50472" lon="1.41108">
        <ele>215.6</ele>
        <time>2021-09-05T13:30:58Z</time>
      </trkpt>
      <trkpt lat="44.50469" lon="1.41111">
        <ele>215</ele>
        <time>2021-09-05T13:31:00Z</time>
      </trkpt>
      <trkpt lat="44.50467" lon="1.41111">
        <ele>215.6</ele>
        <time>2021-09-05T13:31:01Z</time>
      </trkpt>
      <trkpt lat="44.50463" lon="1.41112">
        <ele>216.1</ele>
        <time>2021-09-05T13:31:03Z</time>
      </trkpt>
      <trkpt lat="44.50462" lon="1.41113">
        <ele>216.1</ele>
        <time>2021-09-05T13:31:04Z</time>
      </trkpt>
      <trkpt lat="44.50461" lon="1.41114">
        <ele>216.6</ele>
        <time>2021-09-05T13:31:05Z</time>
      </trkpt>
      <trkpt lat="44.50458" lon="1.41115">
        <ele>216</ele>
        <time>2021-09-05T13:31:07Z</time>
      </trkpt>
      <trkpt lat="44.50457" lon="1.41116">
        <ele>216</ele>
        <time>2021-09-05T13:31:08Z</time>
      </trkpt>
      <trkpt lat="44.50454" lon="1.41119">
        <ele>215.5</ele>
        <time>2021-09-05T13:31:09Z</time>
      </trkpt>
      <trkpt lat="44.50454" lon="1.41119">
        <ele>215.5</ele>
        <time>2021-09-05T13:31:10Z</time>
      </trkpt>
      <trkpt lat="44.50452" lon="1.41121">
        <ele>216</ele>
        <time>2021-09-05T13:31:11Z</time>
      </trkpt>
      <trkpt lat="44.5045" lon="1.41122">
        <ele>216</ele>
        <time>2021-09-05T13:31:13Z</time>
      </trkpt>
      <trkpt lat="44.50447" lon="1.41124">
        <ele>215.5</ele>
        <time>2021-09-05T13:31:14Z</time>
      </trkpt>
      <trkpt lat="44.50444" lon="1.41125">
        <ele>216</ele>
        <time>2021-09-05T13:31:15Z</time>
      </trkpt>
      <trkpt lat="44.50441" lon="1.41127">
        <ele>216.5</ele>
        <time>2021-09-05T13:31:17Z</time>
      </trkpt>
      <trkpt lat="44.50438" lon="1.41128">
        <ele>216</ele>
        <time>2021-09-05T13:31:18Z</time>
      </trkpt>
      <trkpt lat="44.50435" lon="1.41131">
        <ele>216.4</ele>
        <time>2021-09-05T13:31:19Z</time>
      </trkpt>
      <trkpt lat="44.50433" lon="1.41133">
        <ele>215.9</ele>
        <time>2021-09-05T13:31:20Z</time>
      </trkpt>
      <trkpt lat="44.5043" lon="1.41134">
        <ele>216.2</ele>
        <time>2021-09-05T13:31:21Z</time>
      </trkpt>
      <trkpt lat="44.50427" lon="1.41136">
        <ele>215.5</ele>
        <time>2021-09-05T13:31:23Z</time>
      </trkpt>
      <trkpt lat="44.50424" lon="1.41139">
        <ele>215.8</ele>
        <time>2021-09-05T13:31:24Z</time>
      </trkpt>
      <trkpt lat="44.50423" lon="1.41139">
        <ele>215.8</ele>
        <time>2021-09-05T13:31:25Z</time>
      </trkpt>
      <trkpt lat="44.5042" lon="1.4114">
        <ele>215</ele>
        <time>2021-09-05T13:31:26Z</time>
      </trkpt>
      <trkpt lat="44.50419" lon="1.41141">
        <ele>215</ele>
        <time>2021-09-05T13:31:27Z</time>
      </trkpt>
      <trkpt lat="44.50416" lon="1.41142">
        <ele>215.2</ele>
        <time>2021-09-05T13:31:29Z</time>
      </trkpt>
      <trkpt lat="44.50412" lon="1.41142">
        <ele>215.6</ele>
        <time>2021-09-05T13:31:30Z</time>
      </trkpt>
      <trkpt lat="44.50407" lon="1.41144">
        <ele>215.7</ele>
        <time>2021-09-05T13:31:32Z</time>
      </trkpt>
      <trkpt lat="44.50404" lon="1.41144">
        <ele>215.8</ele>
        <time>2021-09-05T13:31:33Z</time>
      </trkpt>
      <trkpt lat="44.50401" lon="1.41144">
        <ele>215.8</ele>
        <time>2021-09-05T13:31:34Z</time>
      </trkpt>
      <trkpt lat="44.50397" lon="1.41146">
        <ele>214.8</ele>
        <time>2021-09-05T13:31:35Z</time>
      </trkpt>
      <trkpt lat="44.50393" lon="1.41147">
        <ele>214.7</ele>
        <time>2021-09-05T13:31:37Z</time>
      </trkpt>
      <trkpt lat="44.50389" lon="1.41148">
        <ele>214.6</ele>
        <time>2021-09-05T13:31:38Z</time>
      </trkpt>
      <trkpt lat="44.50386" lon="1.41148">
        <ele>214.5</ele>
        <time>2021-09-05T13:31:39Z</time>
      </trkpt>
      <trkpt lat="44.50383" lon="1.41146">
        <ele>214.3</ele>
        <time>2021-09-05T13:31:40Z</time>
      </trkpt>
      <trkpt lat="44.50381" lon="1.41144">
        <ele>215</ele>
        <time>2021-09-05T13:31:41Z</time>
      </trkpt>
      <trkpt lat="44.50378" lon="1.41141">
        <ele>214.8</ele>
        <time>2021-09-05T13:31:42Z</time>
      </trkpt>
      <trkpt lat="44.50375" lon="1.41142">
        <ele>214.7</ele>
        <time>2021-09-05T13:31:44Z</time>
      </trkpt>
      <trkpt lat="44.50374" lon="1.41142">
        <ele>214.7</ele>
        <time>2021-09-05T13:31:45Z</time>
      </trkpt>
      <trkpt lat="44.50369" lon="1.41141">
        <ele>214.3</ele>
        <time>2021-09-05T13:31:46Z</time>
      </trkpt>
      <trkpt lat="44.50365" lon="1.41139">
        <ele>214.8</ele>
        <time>2021-09-05T13:31:48Z</time>
      </trkpt>
      <trkpt lat="44.50361" lon="1.41134">
        <ele>215.2</ele>
        <time>2021-09-05T13:31:49Z</time>
      </trkpt>
      <trkpt lat="44.50358" lon="1.41131">
        <ele>215.4</ele>
        <time>2021-09-05T13:31:51Z</time>
      </trkpt>
      <trkpt lat="44.50355" lon="1.41129">
        <ele>215.1</ele>
        <time>2021-09-05T13:31:52Z</time>
      </trkpt>
      <trkpt lat="44.50353" lon="1.41128">
        <ele>214.9</ele>
        <time>2021-09-05T13:31:53Z</time>
      </trkpt>
      <trkpt lat="44.50347" lon="1.41122">
        <ele>215.2</ele>
        <time>2021-09-05T13:31:55Z</time>
      </trkpt>
      <trkpt lat="44.50344" lon="1.4112">
        <ele>214.9</ele>
        <time>2021-09-05T13:31:57Z</time>
      </trkpt>
      <trkpt lat="44.50342" lon="1.41117">
        <ele>214.8</ele>
        <time>2021-09-05T13:31:59Z</time>
      </trkpt>
      <trkpt lat="44.50339" lon="1.41112">
        <ele>215.1</ele>
        <time>2021-09-05T13:32:00Z</time>
      </trkpt>
      <trkpt lat="44.50338" lon="1.41108">
        <ele>214.9</ele>
        <time>2021-09-05T13:32:01Z</time>
      </trkpt>
      <trkpt lat="44.50338" lon="1.41104">
        <ele>215.1</ele>
        <time>2021-09-05T13:32:03Z</time>
      </trkpt>
      <trkpt lat="44.50338" lon="1.41101">
        <ele>215.3</ele>
        <time>2021-09-05T13:32:04Z</time>
      </trkpt>
      <trkpt lat="44.50338" lon="1.41099">
        <ele>215.3</ele>
        <time>2021-09-05T13:32:06Z</time>
      </trkpt>
      <trkpt lat="44.5034" lon="1.41097">
        <ele>216</ele>
        <time>2021-09-05T13:32:07Z</time>
      </trkpt>
      <trkpt lat="44.50341" lon="1.41097">
        <ele>215.8</ele>
        <time>2021-09-05T13:32:09Z</time>
      </trkpt>
      <trkpt lat="44.50341" lon="1.41098">
        <ele>215.8</ele>
        <time>2021-09-05T13:32:10Z</time>
      </trkpt>
      <trkpt lat="44.50342" lon="1.41098">
        <ele>215.8</ele>
        <time>2021-09-05T13:32:11Z</time>
      </trkpt>
      <trkpt lat="44.50343" lon="1.41098">
        <ele>216.2</ele>
        <time>2021-09-05T13:32:13Z</time>
      </trkpt>
      <trkpt lat="44.50345" lon="1.41099">
        <ele>216.2</ele>
        <time>2021-09-05T13:32:14Z</time>
      </trkpt>
      <trkpt lat="44.50346" lon="1.41099">
        <ele>216.7</ele>
        <time>2021-09-05T13:32:15Z</time>
      </trkpt>
      <trkpt lat="44.50347" lon="1.411">
        <ele>216.7</ele>
        <time>2021-09-05T13:32:16Z</time>
      </trkpt>
      <trkpt lat="44.50349" lon="1.41099">
        <ele>217</ele>
        <time>2021-09-05T13:32:18Z</time>
      </trkpt>
      <trkpt lat="44.50351" lon="1.41098">
        <ele>217</ele>
        <time>2021-09-05T13:32:19Z</time>
      </trkpt>
      <trkpt lat="44.50354" lon="1.41099">
        <ele>217.4</ele>
        <time>2021-09-05T13:32:21Z</time>
      </trkpt>
      <trkpt lat="44.50357" lon="1.41101">
        <ele>217.8</ele>
        <time>2021-09-05T13:32:22Z</time>
      </trkpt>
      <trkpt lat="44.50359" lon="1.41101">
        <ele>218.3</ele>
        <time>2021-09-05T13:32:23Z</time>
      </trkpt>
      <trkpt lat="44.50362" lon="1.41102">
        <ele>218.4</ele>
        <time>2021-09-05T13:32:24Z</time>
      </trkpt>
      <trkpt lat="44.50364" lon="1.41102">
        <ele>218.4</ele>
        <time>2021-09-05T13:32:26Z</time>
      </trkpt>
      <trkpt lat="44.50367" lon="1.41101">
        <ele>219.2</ele>
        <time>2021-09-05T13:32:27Z</time>
      </trkpt>
      <trkpt lat="44.50368" lon="1.41101">
        <ele>219.6</ele>
        <time>2021-09-05T13:32:28Z</time>
      </trkpt>
      <trkpt lat="44.50369" lon="1.41102">
        <ele>219.3</ele>
        <time>2021-09-05T13:32:30Z</time>
      </trkpt>
      <trkpt lat="44.50371" lon="1.41102">
        <ele>219.7</ele>
        <time>2021-09-05T13:32:31Z</time>
      </trkpt>
      <trkpt lat="44.50374" lon="1.411">
        <ele>220.5</ele>
        <time>2021-09-05T13:32:32Z</time>
      </trkpt>
      <trkpt lat="44.50375" lon="1.411">
        <ele>220.6</ele>
        <time>2021-09-05T13:32:34Z</time>
      </trkpt>
      <trkpt lat="44.50376" lon="1.41099">
        <ele>220.9</ele>
        <time>2021-09-05T13:32:35Z</time>
      </trkpt>
      <trkpt lat="44.50378" lon="1.41098">
        <ele>221</ele>
        <time>2021-09-05T13:32:36Z</time>
      </trkpt>
      <trkpt lat="44.5038" lon="1.41096">
        <ele>221.8</ele>
        <time>2021-09-05T13:32:38Z</time>
      </trkpt>
      <trkpt lat="44.50381" lon="1.41095">
        <ele>221.8</ele>
        <time>2021-09-05T13:32:39Z</time>
      </trkpt>
      <trkpt lat="44.50382" lon="1.41094">
        <ele>222.1</ele>
        <time>2021-09-05T13:32:41Z</time>
      </trkpt>
      <trkpt lat="44.50385" lon="1.41093">
        <ele>222.2</ele>
        <time>2021-09-05T13:32:43Z</time>
      </trkpt>
      <trkpt lat="44.50386" lon="1.41093">
        <ele>222.5</ele>
        <time>2021-09-05T13:32:44Z</time>
      </trkpt>
      <trkpt lat="44.50388" lon="1.41093">
        <ele>222.6</ele>
        <time>2021-09-05T13:32:45Z</time>
      </trkpt>
      <trkpt lat="44.50391" lon="1.41093">
        <ele>222.9</ele>
        <time>2021-09-05T13:32:46Z</time>
      </trkpt>
      <trkpt lat="44.50392" lon="1.41093">
        <ele>223.2</ele>
        <time>2021-09-05T13:32:48Z</time>
      </trkpt>
      <trkpt lat="44.50393" lon="1.41093">
        <ele>223.3</ele>
        <time>2021-09-05T13:32:49Z</time>
      </trkpt>
      <trkpt lat="44.50395" lon="1.41093">
        <ele>223.6</ele>
        <time>2021-09-05T13:32:50Z</time>
      </trkpt>
      <trkpt lat="44.50398" lon="1.41092">
        <ele>224.3</ele>
        <time>2021-09-05T13:32:52Z</time>
      </trkpt>
      <trkpt lat="44.50398" lon="1.41091">
        <ele>224.4</ele>
        <time>2021-09-05T13:32:53Z</time>
      </trkpt>
      <trkpt lat="44.50399" lon="1.4109">
        <ele>224.5</ele>
        <time>2021-09-05T13:32:55Z</time>
      </trkpt>
      <trkpt lat="44.50398" lon="1.41089">
        <ele>224.6</ele>
        <time>2021-09-05T13:32:56Z</time>
      </trkpt>
      <trkpt lat="44.50396" lon="1.41089">
        <ele>224.6</ele>
        <time>2021-09-05T13:32:57Z</time>
      </trkpt>
      <trkpt lat="44.50393" lon="1.41087">
        <ele>224.8</ele>
        <time>2021-09-05T13:32:59Z</time>
      </trkpt>
      <trkpt lat="44.5039" lon="1.41085">
        <ele>224.7</ele>
        <time>2021-09-05T13:33:00Z</time>
      </trkpt>
      <trkpt lat="44.50387" lon="1.41084">
        <ele>224.6</ele>
        <time>2021-09-05T13:33:02Z</time>
      </trkpt>
      <trkpt lat="44.50386" lon="1.41084">
        <ele>225.1</ele>
        <time>2021-09-05T13:33:03Z</time>
      </trkpt>
      <trkpt lat="44.50384" lon="1.41083">
        <ele>224.9</ele>
        <time>2021-09-05T13:33:04Z</time>
      </trkpt>
      <trkpt lat="44.50382" lon="1.41082">
        <ele>225</ele>
        <time>2021-09-05T13:33:06Z</time>
      </trkpt>
      <trkpt lat="44.50382" lon="1.41078">
        <ele>225.1</ele>
        <time>2021-09-05T13:33:07Z</time>
      </trkpt>
      <trkpt lat="44.50383" lon="1.41076">
        <ele>225.5</ele>
        <time>2021-09-05T13:33:10Z</time>
      </trkpt>
      <trkpt lat="44.50384" lon="1.41075">
        <ele>225.9</ele>
        <time>2021-09-05T13:33:11Z</time>
      </trkpt>
      <trkpt lat="44.50385" lon="1.41073">
        <ele>226</ele>
        <time>2021-09-05T13:33:12Z</time>
      </trkpt>
      <trkpt lat="44.50386" lon="1.41071">
        <ele>226.8</ele>
        <time>2021-09-05T13:33:14Z</time>
      </trkpt>
      <trkpt lat="44.50389" lon="1.41069">
        <ele>227.3</ele>
        <time>2021-09-05T13:33:16Z</time>
      </trkpt>
      <trkpt lat="44.50392" lon="1.41068">
        <ele>227.7</ele>
        <time>2021-09-05T13:33:17Z</time>
      </trkpt>
      <trkpt lat="44.50393" lon="1.41067">
        <ele>228.2</ele>
        <time>2021-09-05T13:33:18Z</time>
      </trkpt>
      <trkpt lat="44.50394" lon="1.41066">
        <ele>228.2</ele>
        <time>2021-09-05T13:33:19Z</time>
      </trkpt>
      <trkpt lat="44.50396" lon="1.41065">
        <ele>228.7</ele>
        <time>2021-09-05T13:33:21Z</time>
      </trkpt>
      <trkpt lat="44.50399" lon="1.41065">
        <ele>229.1</ele>
        <time>2021-09-05T13:33:22Z</time>
      </trkpt>
      <trkpt lat="44.504" lon="1.41065">
        <ele>229.2</ele>
        <time>2021-09-05T13:33:23Z</time>
      </trkpt>
      <trkpt lat="44.50401" lon="1.41065">
        <ele>229.6</ele>
        <time>2021-09-05T13:33:24Z</time>
      </trkpt>
      <trkpt lat="44.50403" lon="1.41066">
        <ele>229.7</ele>
        <time>2021-09-05T13:33:25Z</time>
      </trkpt>
      <trkpt lat="44.50404" lon="1.41065">
        <ele>230.1</ele>
        <time>2021-09-05T13:33:26Z</time>
      </trkpt>
      <trkpt lat="44.50407" lon="1.41063">
        <ele>230.6</ele>
        <time>2021-09-05T13:33:28Z</time>
      </trkpt>
      <trkpt lat="44.50408" lon="1.41062">
        <ele>231.2</ele>
        <time>2021-09-05T13:33:29Z</time>
      </trkpt>
      <trkpt lat="44.50409" lon="1.41061">
        <ele>231.3</ele>
        <time>2021-09-05T13:33:30Z</time>
      </trkpt>
      <trkpt lat="44.50412" lon="1.41058">
        <ele>232.4</ele>
        <time>2021-09-05T13:33:32Z</time>
      </trkpt>
      <trkpt lat="44.50413" lon="1.41057">
        <ele>232.5</ele>
        <time>2021-09-05T13:33:34Z</time>
      </trkpt>
      <trkpt lat="44.50412" lon="1.41054">
        <ele>232.6</ele>
        <time>2021-09-05T13:33:35Z</time>
      </trkpt>
      <trkpt lat="44.5041" lon="1.41052">
        <ele>233.4</ele>
        <time>2021-09-05T13:33:36Z</time>
      </trkpt>
      <trkpt lat="44.50409" lon="1.41052">
        <ele>233.1</ele>
        <time>2021-09-05T13:33:37Z</time>
      </trkpt>
      <trkpt lat="44.50407" lon="1.4105">
        <ele>233.7</ele>
        <time>2021-09-05T13:33:39Z</time>
      </trkpt>
      <trkpt lat="44.50407" lon="1.41047">
        <ele>233.8</ele>
        <time>2021-09-05T13:33:40Z</time>
      </trkpt>
      <trkpt lat="44.50408" lon="1.41045">
        <ele>234.4</ele>
        <time>2021-09-05T13:33:42Z</time>
      </trkpt>
      <trkpt lat="44.50408" lon="1.41043">
        <ele>234.5</ele>
        <time>2021-09-05T13:33:43Z</time>
      </trkpt>
      <trkpt lat="44.50408" lon="1.41042">
        <ele>234.6</ele>
        <time>2021-09-05T13:33:44Z</time>
      </trkpt>
      <trkpt lat="44.50408" lon="1.41041">
        <ele>235.2</ele>
        <time>2021-09-05T13:33:45Z</time>
      </trkpt>
      <trkpt lat="44.5041" lon="1.4104">
        <ele>235.8</ele>
        <time>2021-09-05T13:33:46Z</time>
      </trkpt>
      <trkpt lat="44.50412" lon="1.4104">
        <ele>235.9</ele>
        <time>2021-09-05T13:33:48Z</time>
      </trkpt>
      <trkpt lat="44.50415" lon="1.4104">
        <ele>236.4</ele>
        <time>2021-09-05T13:33:49Z</time>
      </trkpt>
      <trkpt lat="44.50416" lon="1.41038">
        <ele>236.9</ele>
        <time>2021-09-05T13:33:51Z</time>
      </trkpt>
      <trkpt lat="44.50416" lon="1.41037">
        <ele>237</ele>
        <time>2021-09-05T13:33:53Z</time>
      </trkpt>
      <trkpt lat="44.50417" lon="1.41033">
        <ele>237.6</ele>
        <time>2021-09-05T13:33:55Z</time>
      </trkpt>
      <trkpt lat="44.50418" lon="1.4103">
        <ele>238.2</ele>
        <time>2021-09-05T13:33:56Z</time>
      </trkpt>
      <trkpt lat="44.50419" lon="1.41027">
        <ele>238.7</ele>
        <time>2021-09-05T13:33:57Z</time>
      </trkpt>
      <trkpt lat="44.50419" lon="1.41026">
        <ele>239.1</ele>
        <time>2021-09-05T13:33:59Z</time>
      </trkpt>
      <trkpt lat="44.50419" lon="1.41025">
        <ele>239.2</ele>
        <time>2021-09-05T13:34:00Z</time>
      </trkpt>
      <trkpt lat="44.50421" lon="1.41024">
        <ele>239.7</ele>
        <time>2021-09-05T13:34:01Z</time>
      </trkpt>
      <trkpt lat="44.50421" lon="1.41023">
        <ele>239.8</ele>
        <time>2021-09-05T13:34:03Z</time>
      </trkpt>
      <trkpt lat="44.50422" lon="1.41023">
        <ele>240.2</ele>
        <time>2021-09-05T13:34:04Z</time>
      </trkpt>
      <trkpt lat="44.50424" lon="1.41019">
        <ele>240.7</ele>
        <time>2021-09-05T13:34:06Z</time>
      </trkpt>
      <trkpt lat="44.50424" lon="1.41017">
        <ele>240.8</ele>
        <time>2021-09-05T13:34:08Z</time>
      </trkpt>
      <trkpt lat="44.50425" lon="1.41015">
        <ele>241.3</ele>
        <time>2021-09-05T13:34:09Z</time>
      </trkpt>
      <trkpt lat="44.50425" lon="1.41013">
        <ele>241.4</ele>
        <time>2021-09-05T13:34:10Z</time>
      </trkpt>
      <trkpt lat="44.50425" lon="1.41009">
        <ele>241.9</ele>
        <time>2021-09-05T13:34:11Z</time>
      </trkpt>
      <trkpt lat="44.50427" lon="1.41007">
        <ele>242.8</ele>
        <time>2021-09-05T13:34:13Z</time>
      </trkpt>
      <trkpt lat="44.50427" lon="1.41006">
        <ele>242.9</ele>
        <time>2021-09-05T13:34:14Z</time>
      </trkpt>
      <trkpt lat="44.50428" lon="1.41006">
        <ele>243.4</ele>
        <time>2021-09-05T13:34:15Z</time>
      </trkpt>
      <trkpt lat="44.50431" lon="1.41006">
        <ele>243.8</ele>
        <time>2021-09-05T13:34:16Z</time>
      </trkpt>
      <trkpt lat="44.50432" lon="1.41006">
        <ele>243.9</ele>
        <time>2021-09-05T13:34:17Z</time>
      </trkpt>
      <trkpt lat="44.50435" lon="1.41006">
        <ele>244.5</ele>
        <time>2021-09-05T13:34:19Z</time>
      </trkpt>
      <trkpt lat="44.50436" lon="1.41006">
        <ele>244.6</ele>
        <time>2021-09-05T13:34:20Z</time>
      </trkpt>
      <trkpt lat="44.50438" lon="1.41003">
        <ele>244.9</ele>
        <time>2021-09-05T13:34:21Z</time>
      </trkpt>
      <trkpt lat="44.50439" lon="1.41001">
        <ele>245.6</ele>
        <time>2021-09-05T13:34:23Z</time>
      </trkpt>
      <trkpt lat="44.50439" lon="1.40999">
        <ele>245.7</ele>
        <time>2021-09-05T13:34:24Z</time>
      </trkpt>
      <trkpt lat="44.5044" lon="1.40998">
        <ele>246.3</ele>
        <time>2021-09-05T13:34:25Z</time>
      </trkpt>
      <trkpt lat="44.50442" lon="1.40996">
        <ele>246.7</ele>
        <time>2021-09-05T13:34:27Z</time>
      </trkpt>
      <trkpt lat="44.50444" lon="1.40996">
        <ele>247.1</ele>
        <time>2021-09-05T13:34:29Z</time>
      </trkpt>
      <trkpt lat="44.50445" lon="1.40996">
        <ele>247.2</ele>
        <time>2021-09-05T13:34:31Z</time>
      </trkpt>
      <trkpt lat="44.50448" lon="1.40994">
        <ele>247.6</ele>
        <time>2021-09-05T13:34:33Z</time>
      </trkpt>
      <trkpt lat="44.50449" lon="1.40989">
        <ele>248.7</ele>
        <time>2021-09-05T13:34:35Z</time>
      </trkpt>
      <trkpt lat="44.50452" lon="1.40988">
        <ele>249.1</ele>
        <time>2021-09-05T13:34:38Z</time>
      </trkpt>
      <trkpt lat="44.50454" lon="1.40987">
        <ele>249.4</ele>
        <time>2021-09-05T13:34:39Z</time>
      </trkpt>
      <trkpt lat="44.50456" lon="1.40987">
        <ele>249.5</ele>
        <time>2021-09-05T13:34:41Z</time>
      </trkpt>
      <trkpt lat="44.50458" lon="1.40986">
        <ele>249.6</ele>
        <time>2021-09-05T13:34:42Z</time>
      </trkpt>
      <trkpt lat="44.50459" lon="1.40986">
        <ele>249.7</ele>
        <time>2021-09-05T13:34:43Z</time>
      </trkpt>
      <trkpt lat="44.50461" lon="1.40981">
        <ele>250.4</ele>
        <time>2021-09-05T13:34:46Z</time>
      </trkpt>
      <trkpt lat="44.5046" lon="1.40979">
        <ele>251.1</ele>
        <time>2021-09-05T13:34:47Z</time>
      </trkpt>
      <trkpt lat="44.50458" lon="1.40978">
        <ele>251.1</ele>
        <time>2021-09-05T13:34:49Z</time>
      </trkpt>
      <trkpt lat="44.50456" lon="1.40977">
        <ele>251.2</ele>
        <time>2021-09-05T13:34:51Z</time>
      </trkpt>
      <trkpt lat="44.50455" lon="1.40976">
        <ele>251.7</ele>
        <time>2021-09-05T13:34:52Z</time>
      </trkpt>
      <trkpt lat="44.50453" lon="1.40974">
        <ele>251.7</ele>
        <time>2021-09-05T13:34:53Z</time>
      </trkpt>
      <trkpt lat="44.50453" lon="1.40969">
        <ele>252.3</ele>
        <time>2021-09-05T13:34:55Z</time>
      </trkpt>
      <trkpt lat="44.50454" lon="1.40968">
        <ele>253</ele>
        <time>2021-09-05T13:34:57Z</time>
      </trkpt>
      <trkpt lat="44.50455" lon="1.40966">
        <ele>253</ele>
        <time>2021-09-05T13:34:58Z</time>
      </trkpt>
      <trkpt lat="44.50456" lon="1.40966">
        <ele>253.3</ele>
        <time>2021-09-05T13:34:59Z</time>
      </trkpt>
      <trkpt lat="44.50455" lon="1.40966">
        <ele>253</ele>
        <time>2021-09-05T13:35:00Z</time>
      </trkpt>
      <trkpt lat="44.50456" lon="1.40965">
        <ele>253.3</ele>
        <time>2021-09-05T13:35:02Z</time>
      </trkpt>
      <trkpt lat="44.50458" lon="1.40962">
        <ele>254</ele>
        <time>2021-09-05T13:35:04Z</time>
      </trkpt>
      <trkpt lat="44.50459" lon="1.4096">
        <ele>255</ele>
        <time>2021-09-05T13:35:05Z</time>
      </trkpt>
      <trkpt lat="44.50459" lon="1.40956">
        <ele>255</ele>
        <time>2021-09-05T13:35:07Z</time>
      </trkpt>
      <trkpt lat="44.50459" lon="1.40952">
        <ele>255.7</ele>
        <time>2021-09-05T13:35:09Z</time>
      </trkpt>
      <trkpt lat="44.50461" lon="1.40949">
        <ele>256.4</ele>
        <time>2021-09-05T13:35:11Z</time>
      </trkpt>
      <trkpt lat="44.50462" lon="1.40947">
        <ele>256.7</ele>
        <time>2021-09-05T13:35:12Z</time>
      </trkpt>
      <trkpt lat="44.50464" lon="1.40946">
        <ele>257.4</ele>
        <time>2021-09-05T13:35:13Z</time>
      </trkpt>
      <trkpt lat="44.50465" lon="1.40946">
        <ele>257.6</ele>
        <time>2021-09-05T13:35:14Z</time>
      </trkpt>
      <trkpt lat="44.50466" lon="1.40945">
        <ele>257.6</ele>
        <time>2021-09-05T13:35:15Z</time>
      </trkpt>
      <trkpt lat="44.50469" lon="1.40945">
        <ele>257.8</ele>
        <time>2021-09-05T13:35:17Z</time>
      </trkpt>
      <trkpt lat="44.50471" lon="1.40947">
        <ele>257.1</ele>
        <time>2021-09-05T13:35:19Z</time>
      </trkpt>
      <trkpt lat="44.50473" lon="1.40947">
        <ele>257.2</ele>
        <time>2021-09-05T13:35:21Z</time>
      </trkpt>
      <trkpt lat="44.50474" lon="1.40946">
        <ele>257.9</ele>
        <time>2021-09-05T13:35:22Z</time>
      </trkpt>
      <trkpt lat="44.50475" lon="1.40944">
        <ele>258</ele>
        <time>2021-09-05T13:35:24Z</time>
      </trkpt>
      <trkpt lat="44.50476" lon="1.40942">
        <ele>258.8</ele>
        <time>2021-09-05T13:35:25Z</time>
      </trkpt>
      <trkpt lat="44.50477" lon="1.40941">
        <ele>258.7</ele>
        <time>2021-09-05T13:35:26Z</time>
      </trkpt>
      <trkpt lat="44.50478" lon="1.4094">
        <ele>258.7</ele>
        <time>2021-09-05T13:35:27Z</time>
      </trkpt>
      <trkpt lat="44.50478" lon="1.4094">
        <ele>258.7</ele>
        <time>2021-09-05T13:35:29Z</time>
      </trkpt>
      <trkpt lat="44.50479" lon="1.40938">
        <ele>259.5</ele>
        <time>2021-09-05T13:35:30Z</time>
      </trkpt>
      <trkpt lat="44.5048" lon="1.40937">
        <ele>259.4</ele>
        <time>2021-09-05T13:35:31Z</time>
      </trkpt>
      <trkpt lat="44.50481" lon="1.40936">
        <ele>259.4</ele>
        <time>2021-09-05T13:35:32Z</time>
      </trkpt>
      <trkpt lat="44.50483" lon="1.40933">
        <ele>260.1</ele>
        <time>2021-09-05T13:35:34Z</time>
      </trkpt>
      <trkpt lat="44.50485" lon="1.4093">
        <ele>260.1</ele>
        <time>2021-09-05T13:35:35Z</time>
      </trkpt>
      <trkpt lat="44.50486" lon="1.40929">
        <ele>260.9</ele>
        <time>2021-09-05T13:35:37Z</time>
      </trkpt>
      <trkpt lat="44.50487" lon="1.40928">
        <ele>260.7</ele>
        <time>2021-09-05T13:35:38Z</time>
      </trkpt>
      <trkpt lat="44.50488" lon="1.40926">
        <ele>260.7</ele>
        <time>2021-09-05T13:35:40Z</time>
      </trkpt>
      <trkpt lat="44.50489" lon="1.40926">
        <ele>260.7</ele>
        <time>2021-09-05T13:35:41Z</time>
      </trkpt>
      <trkpt lat="44.50489" lon="1.40926">
        <ele>260.4</ele>
        <time>2021-09-05T13:35:42Z</time>
      </trkpt>
      <trkpt lat="44.50492" lon="1.40924">
        <ele>261.3</ele>
        <time>2021-09-05T13:35:43Z</time>
      </trkpt>
      <trkpt lat="44.50494" lon="1.40922">
        <ele>261</ele>
        <time>2021-09-05T13:35:45Z</time>
      </trkpt>
      <trkpt lat="44.50496" lon="1.40921">
        <ele>261.5</ele>
        <time>2021-09-05T13:35:47Z</time>
      </trkpt>
      <trkpt lat="44.50498" lon="1.40919">
        <ele>261.5</ele>
        <time>2021-09-05T13:35:48Z</time>
      </trkpt>
      <trkpt lat="44.50499" lon="1.40916">
        <ele>262.1</ele>
        <time>2021-09-05T13:35:49Z</time>
      </trkpt>
      <trkpt lat="44.50499" lon="1.40914">
        <ele>262.1</ele>
        <time>2021-09-05T13:35:50Z</time>
      </trkpt>
      <trkpt lat="44.50496" lon="1.40913">
        <ele>262.6</ele>
        <time>2021-09-05T13:35:52Z</time>
      </trkpt>
      <trkpt lat="44.50495" lon="1.40913">
        <ele>262.9</ele>
        <time>2021-09-05T13:35:53Z</time>
      </trkpt>
      <trkpt lat="44.50492" lon="1.40913">
        <ele>262.9</ele>
        <time>2021-09-05T13:35:55Z</time>
      </trkpt>
      <trkpt lat="44.50491" lon="1.40913">
        <ele>263.3</ele>
        <time>2021-09-05T13:35:56Z</time>
      </trkpt>
      <trkpt lat="44.50488" lon="1.40916">
        <ele>263.5</ele>
        <time>2021-09-05T13:35:57Z</time>
      </trkpt>
      <trkpt lat="44.50487" lon="1.40918">
        <ele>262.5</ele>
        <time>2021-09-05T13:35:58Z</time>
      </trkpt>
      <trkpt lat="44.50485" lon="1.40919">
        <ele>262.7</ele>
        <time>2021-09-05T13:36:00Z</time>
      </trkpt>
      <trkpt lat="44.50484" lon="1.40918">
        <ele>262.7</ele>
        <time>2021-09-05T13:36:01Z</time>
      </trkpt>
      <trkpt lat="44.50483" lon="1.40917">
        <ele>262.9</ele>
        <time>2021-09-05T13:36:02Z</time>
      </trkpt>
      <trkpt lat="44.50483" lon="1.40916">
        <ele>263.7</ele>
        <time>2021-09-05T13:36:03Z</time>
      </trkpt>
      <trkpt lat="44.50484" lon="1.40916">
        <ele>263.7</ele>
        <time>2021-09-05T13:36:05Z</time>
      </trkpt>
      <trkpt lat="44.50484" lon="1.40914">
        <ele>263.7</ele>
        <time>2021-09-05T13:36:06Z</time>
      </trkpt>
      <trkpt lat="44.50487" lon="1.4091">
        <ele>264.5</ele>
        <time>2021-09-05T13:36:07Z</time>
      </trkpt>
      <trkpt lat="44.5049" lon="1.40907">
        <ele>265.1</ele>
        <time>2021-09-05T13:36:09Z</time>
      </trkpt>
      <trkpt lat="44.50491" lon="1.40906">
        <ele>265.1</ele>
        <time>2021-09-05T13:36:10Z</time>
      </trkpt>
      <trkpt lat="44.50492" lon="1.40904">
        <ele>265.7</ele>
        <time>2021-09-05T13:36:11Z</time>
      </trkpt>
      <trkpt lat="44.50495" lon="1.40902">
        <ele>265.7</ele>
        <time>2021-09-05T13:36:13Z</time>
      </trkpt>
      <trkpt lat="44.50496" lon="1.409">
        <ele>265.4</ele>
        <time>2021-09-05T13:36:14Z</time>
      </trkpt>
      <trkpt lat="44.50497" lon="1.40898">
        <ele>266.3</ele>
        <time>2021-09-05T13:36:16Z</time>
      </trkpt>
      <trkpt lat="44.50496" lon="1.40898">
        <ele>266.3</ele>
        <time>2021-09-05T13:36:18Z</time>
      </trkpt>
      <trkpt lat="44.50496" lon="1.40898">
        <ele>266.3</ele>
        <time>2021-09-05T13:36:19Z</time>
      </trkpt>
      <trkpt lat="44.50495" lon="1.40897">
        <ele>266.3</ele>
        <time>2021-09-05T13:36:20Z</time>
      </trkpt>
      <trkpt lat="44.50494" lon="1.40897">
        <ele>266.6</ele>
        <time>2021-09-05T13:36:21Z</time>
      </trkpt>
      <trkpt lat="44.50492" lon="1.40899">
        <ele>266.6</ele>
        <time>2021-09-05T13:36:22Z</time>
      </trkpt>
      <trkpt lat="44.50492" lon="1.409">
        <ele>266</ele>
        <time>2021-09-05T13:36:23Z</time>
      </trkpt>
      <trkpt lat="44.50491" lon="1.40902">
        <ele>266</ele>
        <time>2021-09-05T13:36:25Z</time>
      </trkpt>
      <trkpt lat="44.50491" lon="1.40903">
        <ele>266</ele>
        <time>2021-09-05T13:36:26Z</time>
      </trkpt>
      <trkpt lat="44.50489" lon="1.40902">
        <ele>266</ele>
        <time>2021-09-05T13:36:28Z</time>
      </trkpt>
      <trkpt lat="44.50489" lon="1.40901">
        <ele>266</ele>
        <time>2021-09-05T13:36:29Z</time>
      </trkpt>
      <trkpt lat="44.50489" lon="1.409">
        <ele>266.9</ele>
        <time>2021-09-05T13:36:30Z</time>
      </trkpt>
      <trkpt lat="44.50489" lon="1.40898">
        <ele>266.9</ele>
        <time>2021-09-05T13:36:31Z</time>
      </trkpt>
      <trkpt lat="44.50489" lon="1.40898">
        <ele>266.9</ele>
        <time>2021-09-05T13:36:32Z</time>
      </trkpt>
      <trkpt lat="44.50489" lon="1.40897">
        <ele>266.9</ele>
        <time>2021-09-05T13:36:33Z</time>
      </trkpt>
      <trkpt lat="44.50489" lon="1.40896">
        <ele>266.8</ele>
        <time>2021-09-05T13:36:35Z</time>
      </trkpt>
      <trkpt lat="44.50489" lon="1.40896">
        <ele>266.9</ele>
        <time>2021-09-05T13:36:36Z</time>
      </trkpt>
      <trkpt lat="44.5049" lon="1.40893">
        <ele>267.6</ele>
        <time>2021-09-05T13:36:38Z</time>
      </trkpt>
      <trkpt lat="44.5049" lon="1.40891">
        <ele>267.6</ele>
        <time>2021-09-05T13:36:39Z</time>
      </trkpt>
      <trkpt lat="44.5049" lon="1.4089">
        <ele>268.3</ele>
        <time>2021-09-05T13:36:40Z</time>
      </trkpt>
      <trkpt lat="44.50491" lon="1.40888">
        <ele>268.3</ele>
        <time>2021-09-05T13:37:12Z</time>
      </trkpt>
      <trkpt lat="44.50491" lon="1.40886">
        <ele>269.1</ele>
        <time>2021-09-05T13:37:13Z</time>
      </trkpt>
      <trkpt lat="44.50492" lon="1.40882">
        <ele>269.8</ele>
        <time>2021-09-05T13:37:15Z</time>
      </trkpt>
      <trkpt lat="44.50492" lon="1.4088">
        <ele>269.8</ele>
        <time>2021-09-05T13:37:17Z</time>
      </trkpt>
      <trkpt lat="44.50492" lon="1.40877">
        <ele>270.6</ele>
        <time>2021-09-05T13:37:19Z</time>
      </trkpt>
      <trkpt lat="44.50493" lon="1.40876">
        <ele>270.6</ele>
        <time>2021-09-05T13:37:20Z</time>
      </trkpt>
      <trkpt lat="44.50493" lon="1.40874">
        <ele>271.5</ele>
        <time>2021-09-05T13:37:21Z</time>
      </trkpt>
      <trkpt lat="44.50494" lon="1.40871">
        <ele>271.5</ele>
        <time>2021-09-05T13:37:22Z</time>
      </trkpt>
      <trkpt lat="44.50495" lon="1.40868">
        <ele>272.3</ele>
        <time>2021-09-05T13:37:24Z</time>
      </trkpt>
      <trkpt lat="44.50497" lon="1.40864">
        <ele>273.3</ele>
        <time>2021-09-05T13:37:26Z</time>
      </trkpt>
      <trkpt lat="44.50498" lon="1.40862">
        <ele>273.3</ele>
        <time>2021-09-05T13:37:27Z</time>
      </trkpt>
      <trkpt lat="44.50499" lon="1.40861">
        <ele>273.3</ele>
        <time>2021-09-05T13:37:29Z</time>
      </trkpt>
      <trkpt lat="44.505" lon="1.4086">
        <ele>274.2</ele>
        <time>2021-09-05T13:37:30Z</time>
      </trkpt>
      <trkpt lat="44.50502" lon="1.40855">
        <ele>275.1</ele>
        <time>2021-09-05T13:37:33Z</time>
      </trkpt>
      <trkpt lat="44.50504" lon="1.40853">
        <ele>275.1</ele>
        <time>2021-09-05T13:37:35Z</time>
      </trkpt>
      <trkpt lat="44.50506" lon="1.40851">
        <ele>275.9</ele>
        <time>2021-09-05T13:37:36Z</time>
      </trkpt>
      <trkpt lat="44.50507" lon="1.4085">
        <ele>275.9</ele>
        <time>2021-09-05T13:37:38Z</time>
      </trkpt>
      <trkpt lat="44.50508" lon="1.40846">
        <ele>276.7</ele>
        <time>2021-09-05T13:37:39Z</time>
      </trkpt>
      <trkpt lat="44.50509" lon="1.40844">
        <ele>276.7</ele>
        <time>2021-09-05T13:37:41Z</time>
      </trkpt>
      <trkpt lat="44.5051" lon="1.4084">
        <ele>277.5</ele>
        <time>2021-09-05T13:37:42Z</time>
      </trkpt>
      <trkpt lat="44.50511" lon="1.40838">
        <ele>278.4</ele>
        <time>2021-09-05T13:37:43Z</time>
      </trkpt>
      <trkpt lat="44.50512" lon="1.40837">
        <ele>278.4</ele>
        <time>2021-09-05T13:37:45Z</time>
      </trkpt>
      <trkpt lat="44.50512" lon="1.40834">
        <ele>279.3</ele>
        <time>2021-09-05T13:37:46Z</time>
      </trkpt>
      <trkpt lat="44.50513" lon="1.40831">
        <ele>280.2</ele>
        <time>2021-09-05T13:37:48Z</time>
      </trkpt>
      <trkpt lat="44.50515" lon="1.40828">
        <ele>280.1</ele>
        <time>2021-09-05T13:37:49Z</time>
      </trkpt>
      <trkpt lat="44.50516" lon="1.40827">
        <ele>281</ele>
        <time>2021-09-05T13:37:50Z</time>
      </trkpt>
      <trkpt lat="44.50516" lon="1.40825">
        <ele>281</ele>
        <time>2021-09-05T13:37:51Z</time>
      </trkpt>
      <trkpt lat="44.50517" lon="1.40823">
        <ele>281</ele>
        <time>2021-09-05T13:37:52Z</time>
      </trkpt>
      <trkpt lat="44.50518" lon="1.40822">
        <ele>281.9</ele>
        <time>2021-09-05T13:37:54Z</time>
      </trkpt>
      <trkpt lat="44.50519" lon="1.4082">
        <ele>281.9</ele>
        <time>2021-09-05T13:37:55Z</time>
      </trkpt>
      <trkpt lat="44.5052" lon="1.40818">
        <ele>282.7</ele>
        <time>2021-09-05T13:37:57Z</time>
      </trkpt>
      <trkpt lat="44.50523" lon="1.40815">
        <ele>282.7</ele>
        <time>2021-09-05T13:37:58Z</time>
      </trkpt>
      <trkpt lat="44.50524" lon="1.40814">
        <ele>283.5</ele>
        <time>2021-09-05T13:38:00Z</time>
      </trkpt>
      <trkpt lat="44.50525" lon="1.40813">
        <ele>283.5</ele>
        <time>2021-09-05T13:38:01Z</time>
      </trkpt>
      <trkpt lat="44.50526" lon="1.40812">
        <ele>283.4</ele>
        <time>2021-09-05T13:38:02Z</time>
      </trkpt>
      <trkpt lat="44.50527" lon="1.4081">
        <ele>283.4</ele>
        <time>2021-09-05T13:38:03Z</time>
      </trkpt>
      <trkpt lat="44.50528" lon="1.40808">
        <ele>284.3</ele>
        <time>2021-09-05T13:38:05Z</time>
      </trkpt>
      <trkpt lat="44.50528" lon="1.40807">
        <ele>284.3</ele>
        <time>2021-09-05T13:38:06Z</time>
      </trkpt>
      <trkpt lat="44.50528" lon="1.40807">
        <ele>284.3</ele>
        <time>2021-09-05T13:38:07Z</time>
      </trkpt>
      <trkpt lat="44.50528" lon="1.40806">
        <ele>284.3</ele>
        <time>2021-09-05T13:38:09Z</time>
      </trkpt>
      <trkpt lat="44.50528" lon="1.40806">
        <ele>284.3</ele>
        <time>2021-09-05T13:38:10Z</time>
      </trkpt>
      <trkpt lat="44.50528" lon="1.40806">
        <ele>284.3</ele>
        <time>2021-09-05T13:38:12Z</time>
      </trkpt>
      <trkpt lat="44.50528" lon="1.40805">
        <ele>284.3</ele>
        <time>2021-09-05T13:38:13Z</time>
      </trkpt>
      <trkpt lat="44.50528" lon="1.40805">
        <ele>285.1</ele>
        <time>2021-09-05T13:38:15Z</time>
      </trkpt>
      <trkpt lat="44.50528" lon="1.40805">
        <ele>285.1</ele>
        <time>2021-09-05T13:38:16Z</time>
      </trkpt>
      <trkpt lat="44.50532" lon="1.40803">
        <ele>285</ele>
        <time>2021-09-05T13:47:48Z</time>
      </trkpt>
      <trkpt lat="44.50535" lon="1.40799">
        <ele>285.8</ele>
        <time>2021-09-05T13:47:50Z</time>
      </trkpt>
      <trkpt lat="44.50538" lon="1.40795">
        <ele>286.6</ele>
        <time>2021-09-05T13:47:51Z</time>
      </trkpt>
      <trkpt lat="44.50541" lon="1.40791">
        <ele>287.5</ele>
        <time>2021-09-05T13:47:52Z</time>
      </trkpt>
      <trkpt lat="44.50542" lon="1.4079">
        <ele>287.4</ele>
        <time>2021-09-05T13:47:53Z</time>
      </trkpt>
      <trkpt lat="44.50543" lon="1.40788">
        <ele>287.4</ele>
        <time>2021-09-05T13:47:54Z</time>
      </trkpt>
      <trkpt lat="44.50544" lon="1.40786">
        <ele>288.4</ele>
        <time>2021-09-05T13:47:56Z</time>
      </trkpt>
      <trkpt lat="44.50547" lon="1.40782">
        <ele>289.3</ele>
        <time>2021-09-05T13:47:57Z</time>
      </trkpt>
      <trkpt lat="44.5055" lon="1.40778">
        <ele>290.2</ele>
        <time>2021-09-05T13:47:59Z</time>
      </trkpt>
      <trkpt lat="44.50552" lon="1.40776">
        <ele>290.1</ele>
        <time>2021-09-05T13:48:00Z</time>
      </trkpt>
      <trkpt lat="44.50553" lon="1.40774">
        <ele>291</ele>
        <time>2021-09-05T13:48:01Z</time>
      </trkpt>
      <trkpt lat="44.50556" lon="1.40771">
        <ele>291.7</ele>
        <time>2021-09-05T13:48:03Z</time>
      </trkpt>
      <trkpt lat="44.50557" lon="1.4077">
        <ele>291.6</ele>
        <time>2021-09-05T13:48:04Z</time>
      </trkpt>
      <trkpt lat="44.50559" lon="1.40767">
        <ele>291.6</ele>
        <time>2021-09-05T13:48:05Z</time>
      </trkpt>
      <trkpt lat="44.50561" lon="1.40765">
        <ele>292.2</ele>
        <time>2021-09-05T13:48:07Z</time>
      </trkpt>
      <trkpt lat="44.50562" lon="1.40762">
        <ele>292.9</ele>
        <time>2021-09-05T13:48:08Z</time>
      </trkpt>
      <trkpt lat="44.50564" lon="1.4076">
        <ele>292.7</ele>
        <time>2021-09-05T13:48:10Z</time>
      </trkpt>
      <trkpt lat="44.50566" lon="1.40757">
        <ele>293.2</ele>
        <time>2021-09-05T13:48:11Z</time>
      </trkpt>
      <trkpt lat="44.50567" lon="1.40756">
        <ele>293.2</ele>
        <time>2021-09-05T13:48:12Z</time>
      </trkpt>
      <trkpt lat="44.50569" lon="1.40753">
        <ele>293.7</ele>
        <time>2021-09-05T13:48:13Z</time>
      </trkpt>
      <trkpt lat="44.50571" lon="1.40751">
        <ele>293.7</ele>
        <time>2021-09-05T13:48:14Z</time>
      </trkpt>
      <trkpt lat="44.50573" lon="1.40748">
        <ele>294.2</ele>
        <time>2021-09-05T13:48:16Z</time>
      </trkpt>
      <trkpt lat="44.50574" lon="1.40748">
        <ele>294.2</ele>
        <time>2021-09-05T13:48:17Z</time>
      </trkpt>
      <trkpt lat="44.50576" lon="1.40747">
        <ele>293.9</ele>
        <time>2021-09-05T13:48:19Z</time>
      </trkpt>
      <trkpt lat="44.50579" lon="1.40745">
        <ele>293.5</ele>
        <time>2021-09-05T13:48:20Z</time>
      </trkpt>
      <trkpt lat="44.50582" lon="1.40743">
        <ele>294</ele>
        <time>2021-09-05T13:48:22Z</time>
      </trkpt>
      <trkpt lat="44.50583" lon="1.40742">
        <ele>294</ele>
        <time>2021-09-05T13:48:23Z</time>
      </trkpt>
      <trkpt lat="44.50587" lon="1.4074">
        <ele>294.5</ele>
        <time>2021-09-05T13:48:25Z</time>
      </trkpt>
      <trkpt lat="44.50588" lon="1.40739">
        <ele>294.1</ele>
        <time>2021-09-05T13:48:26Z</time>
      </trkpt>
      <trkpt lat="44.50591" lon="1.40736">
        <ele>294.7</ele>
        <time>2021-09-05T13:48:27Z</time>
      </trkpt>
      <trkpt lat="44.50592" lon="1.40735">
        <ele>294.7</ele>
        <time>2021-09-05T13:48:28Z</time>
      </trkpt>
      <trkpt lat="44.50593" lon="1.40734">
        <ele>294.7</ele>
        <time>2021-09-05T13:48:30Z</time>
      </trkpt>
      <trkpt lat="44.50595" lon="1.40734">
        <ele>294.3</ele>
        <time>2021-09-05T13:48:31Z</time>
      </trkpt>
      <trkpt lat="44.50597" lon="1.40733">
        <ele>294</ele>
        <time>2021-09-05T13:48:32Z</time>
      </trkpt>
      <trkpt lat="44.50601" lon="1.40732">
        <ele>294.5</ele>
        <time>2021-09-05T13:48:33Z</time>
      </trkpt>
      <trkpt lat="44.50603" lon="1.40731">
        <ele>294.1</ele>
        <time>2021-09-05T13:48:34Z</time>
      </trkpt>
      <trkpt lat="44.50607" lon="1.4073">
        <ele>293.7</ele>
        <time>2021-09-05T13:48:35Z</time>
      </trkpt>
      <trkpt lat="44.50612" lon="1.40729">
        <ele>293.3</ele>
        <time>2021-09-05T13:48:37Z</time>
      </trkpt>
      <trkpt lat="44.50615" lon="1.40728">
        <ele>293.5</ele>
        <time>2021-09-05T13:48:39Z</time>
      </trkpt>
      <trkpt lat="44.50619" lon="1.40725">
        <ele>293.1</ele>
        <time>2021-09-05T13:48:40Z</time>
      </trkpt>
      <trkpt lat="44.50623" lon="1.40723">
        <ele>293.6</ele>
        <time>2021-09-05T13:48:41Z</time>
      </trkpt>
      <trkpt lat="44.50627" lon="1.40721">
        <ele>292.9</ele>
        <time>2021-09-05T13:48:42Z</time>
      </trkpt>
      <trkpt lat="44.50631" lon="1.40717">
        <ele>293.3</ele>
        <time>2021-09-05T13:48:44Z</time>
      </trkpt>
      <trkpt lat="44.50634" lon="1.40715">
        <ele>293.8</ele>
        <time>2021-09-05T13:48:46Z</time>
      </trkpt>
      <trkpt lat="44.50636" lon="1.40714">
        <ele>293.4</ele>
        <time>2021-09-05T13:48:47Z</time>
      </trkpt>
      <trkpt lat="44.5064" lon="1.40712">
        <ele>293.1</ele>
        <time>2021-09-05T13:48:48Z</time>
      </trkpt>
      <trkpt lat="44.50641" lon="1.40711">
        <ele>293.1</ele>
        <time>2021-09-05T13:48:49Z</time>
      </trkpt>
      <trkpt lat="44.50643" lon="1.40709">
        <ele>293.5</ele>
        <time>2021-09-05T13:48:50Z</time>
      </trkpt>
      <trkpt lat="44.50646" lon="1.40707">
        <ele>293.3</ele>
        <time>2021-09-05T13:48:52Z</time>
      </trkpt>
      <trkpt lat="44.50649" lon="1.40705">
        <ele>293.8</ele>
        <time>2021-09-05T13:48:53Z</time>
      </trkpt>
      <trkpt lat="44.50652" lon="1.40703">
        <ele>293.6</ele>
        <time>2021-09-05T13:48:54Z</time>
      </trkpt>
      <trkpt lat="44.50655" lon="1.40701">
        <ele>294.1</ele>
        <time>2021-09-05T13:48:55Z</time>
      </trkpt>
      <trkpt lat="44.50658" lon="1.407">
        <ele>294.1</ele>
        <time>2021-09-05T13:48:57Z</time>
      </trkpt>
      <trkpt lat="44.5066" lon="1.40698">
        <ele>294</ele>
        <time>2021-09-05T13:48:58Z</time>
      </trkpt>
      <trkpt lat="44.50664" lon="1.40698">
        <ele>293.8</ele>
        <time>2021-09-05T13:48:59Z</time>
      </trkpt>
      <trkpt lat="44.50665" lon="1.40698">
        <ele>293.7</ele>
        <time>2021-09-05T13:49:00Z</time>
      </trkpt>
      <trkpt lat="44.50668" lon="1.40699">
        <ele>293.5</ele>
        <time>2021-09-05T13:49:01Z</time>
      </trkpt>
      <trkpt lat="44.50674" lon="1.407">
        <ele>293.2</ele>
        <time>2021-09-05T13:49:03Z</time>
      </trkpt>
      <trkpt lat="44.50678" lon="1.407">
        <ele>293</ele>
        <time>2021-09-05T13:49:04Z</time>
      </trkpt>
      <trkpt lat="44.50682" lon="1.40699">
        <ele>292.8</ele>
        <time>2021-09-05T13:49:05Z</time>
      </trkpt>
      <trkpt lat="44.50685" lon="1.40699">
        <ele>292.7</ele>
        <time>2021-09-05T13:49:06Z</time>
      </trkpt>
      <trkpt lat="44.50688" lon="1.40697">
        <ele>292.5</ele>
        <time>2021-09-05T13:49:07Z</time>
      </trkpt>
      <trkpt lat="44.50691" lon="1.40696">
        <ele>292.4</ele>
        <time>2021-09-05T13:49:08Z</time>
      </trkpt>
      <trkpt lat="44.50695" lon="1.40696">
        <ele>292.3</ele>
        <time>2021-09-05T13:49:09Z</time>
      </trkpt>
      <trkpt lat="44.50699" lon="1.40695">
        <ele>292.1</ele>
        <time>2021-09-05T13:49:10Z</time>
      </trkpt>
      <trkpt lat="44.50702" lon="1.40696">
        <ele>292</ele>
        <time>2021-09-05T13:49:12Z</time>
      </trkpt>
      <trkpt lat="44.50705" lon="1.40695">
        <ele>292</ele>
        <time>2021-09-05T13:49:13Z</time>
      </trkpt>
      <trkpt lat="44.50708" lon="1.40695">
        <ele>291.9</ele>
        <time>2021-09-05T13:49:14Z</time>
      </trkpt>
      <trkpt lat="44.5071" lon="1.40694">
        <ele>291.8</ele>
        <time>2021-09-05T13:49:15Z</time>
      </trkpt>
      <trkpt lat="44.50712" lon="1.40694">
        <ele>291.8</ele>
        <time>2021-09-05T13:49:17Z</time>
      </trkpt>
      <trkpt lat="44.50715" lon="1.40693">
        <ele>291.7</ele>
        <time>2021-09-05T13:49:18Z</time>
      </trkpt>
      <trkpt lat="44.50718" lon="1.40692">
        <ele>291.6</ele>
        <time>2021-09-05T13:49:20Z</time>
      </trkpt>
      <trkpt lat="44.50719" lon="1.40692">
        <ele>291.6</ele>
        <time>2021-09-05T13:49:21Z</time>
      </trkpt>
      <trkpt lat="44.50721" lon="1.40691">
        <ele>291.5</ele>
        <time>2021-09-05T13:49:22Z</time>
      </trkpt>
      <trkpt lat="44.50724" lon="1.40691">
        <ele>291.4</ele>
        <time>2021-09-05T13:49:24Z</time>
      </trkpt>
      <trkpt lat="44.50725" lon="1.40691">
        <ele>291.3</ele>
        <time>2021-09-05T13:49:25Z</time>
      </trkpt>
      <trkpt lat="44.50727" lon="1.4069">
        <ele>291.2</ele>
        <time>2021-09-05T13:49:26Z</time>
      </trkpt>
      <trkpt lat="44.50728" lon="1.40689">
        <ele>291.1</ele>
        <time>2021-09-05T13:49:27Z</time>
      </trkpt>
      <trkpt lat="44.50732" lon="1.40688">
        <ele>291</ele>
        <time>2021-09-05T13:49:28Z</time>
      </trkpt>
      <trkpt lat="44.50733" lon="1.40688">
        <ele>290.9</ele>
        <time>2021-09-05T13:49:29Z</time>
      </trkpt>
      <trkpt lat="44.50735" lon="1.40686">
        <ele>290.8</ele>
        <time>2021-09-05T13:49:30Z</time>
      </trkpt>
      <trkpt lat="44.50737" lon="1.40685">
        <ele>290.7</ele>
        <time>2021-09-05T13:49:32Z</time>
      </trkpt>
      <trkpt lat="44.5074" lon="1.40681">
        <ele>290.4</ele>
        <time>2021-09-05T13:49:33Z</time>
      </trkpt>
      <trkpt lat="44.50742" lon="1.40675">
        <ele>290.2</ele>
        <time>2021-09-05T13:49:35Z</time>
      </trkpt>
      <trkpt lat="44.50742" lon="1.40673">
        <ele>290.1</ele>
        <time>2021-09-05T13:49:37Z</time>
      </trkpt>
      <trkpt lat="44.50743" lon="1.40672">
        <ele>290</ele>
        <time>2021-09-05T13:49:38Z</time>
      </trkpt>
      <trkpt lat="44.50743" lon="1.40669">
        <ele>289.9</ele>
        <time>2021-09-05T13:49:39Z</time>
      </trkpt>
      <trkpt lat="44.50744" lon="1.40665">
        <ele>289.7</ele>
        <time>2021-09-05T13:49:41Z</time>
      </trkpt>
      <trkpt lat="44.50743" lon="1.40662">
        <ele>289.5</ele>
        <time>2021-09-05T13:49:42Z</time>
      </trkpt>
      <trkpt lat="44.50743" lon="1.40657">
        <ele>289.3</ele>
        <time>2021-09-05T13:49:44Z</time>
      </trkpt>
      <trkpt lat="44.50742" lon="1.40653">
        <ele>289.1</ele>
        <time>2021-09-05T13:49:45Z</time>
      </trkpt>
      <trkpt lat="44.50741" lon="1.40651">
        <ele>288.9</ele>
        <time>2021-09-05T13:49:46Z</time>
      </trkpt>
      <trkpt lat="44.5074" lon="1.40647">
        <ele>288.7</ele>
        <time>2021-09-05T13:49:48Z</time>
      </trkpt>
      <trkpt lat="44.50743" lon="1.40644">
        <ele>288.5</ele>
        <time>2021-09-05T13:49:49Z</time>
      </trkpt>
      <trkpt lat="44.50744" lon="1.40643">
        <ele>288.4</ele>
        <time>2021-09-05T13:49:50Z</time>
      </trkpt>
      <trkpt lat="44.50748" lon="1.4064">
        <ele>287.9</ele>
        <time>2021-09-05T13:49:52Z</time>
      </trkpt>
      <trkpt lat="44.50751" lon="1.40639">
        <ele>287.7</ele>
        <time>2021-09-05T13:49:53Z</time>
      </trkpt>
      <trkpt lat="44.50754" lon="1.4064">
        <ele>287.4</ele>
        <time>2021-09-05T13:49:54Z</time>
      </trkpt>
      <trkpt lat="44.50758" lon="1.40636">
        <ele>287</ele>
        <time>2021-09-05T13:49:55Z</time>
      </trkpt>
      <trkpt lat="44.50758" lon="1.40633">
        <ele>286.7</ele>
        <time>2021-09-05T13:49:57Z</time>
      </trkpt>
      <trkpt lat="44.50759" lon="1.40627">
        <ele>286.4</ele>
        <time>2021-09-05T13:49:58Z</time>
      </trkpt>
      <trkpt lat="44.50759" lon="1.40623">
        <ele>286.1</ele>
        <time>2021-09-05T13:49:59Z</time>
      </trkpt>
      <trkpt lat="44.50761" lon="1.40617">
        <ele>285.7</ele>
        <time>2021-09-05T13:50:00Z</time>
      </trkpt>
      <trkpt lat="44.50761" lon="1.40612">
        <ele>285.4</ele>
        <time>2021-09-05T13:50:02Z</time>
      </trkpt>
      <trkpt lat="44.50759" lon="1.40608">
        <ele>285.1</ele>
        <time>2021-09-05T13:50:03Z</time>
      </trkpt>
      <trkpt lat="44.50759" lon="1.40603">
        <ele>284.8</ele>
        <time>2021-09-05T13:50:04Z</time>
      </trkpt>
      <trkpt lat="44.50761" lon="1.40602">
        <ele>284.6</ele>
        <time>2021-09-05T13:50:05Z</time>
      </trkpt>
      <trkpt lat="44.50765" lon="1.40601">
        <ele>284.4</ele>
        <time>2021-09-05T13:50:07Z</time>
      </trkpt>
      <trkpt lat="44.50766" lon="1.406">
        <ele>284.3</ele>
        <time>2021-09-05T13:50:08Z</time>
      </trkpt>
      <trkpt lat="44.50766" lon="1.406">
        <ele>284.2</ele>
        <time>2021-09-05T13:50:10Z</time>
      </trkpt>
      <trkpt lat="44.50766" lon="1.406">
        <ele>284.2</ele>
        <time>2021-09-05T13:50:12Z</time>
      </trkpt>
      <trkpt lat="44.50766" lon="1.406">
        <ele>284.2</ele>
        <time>2021-09-05T13:50:14Z</time>
      </trkpt>
      <trkpt lat="44.50766" lon="1.406">
        <ele>284.2</ele>
        <time>2021-09-05T13:50:15Z</time>
      </trkpt>
      <trkpt lat="44.50766" lon="1.406">
        <ele>284.2</ele>
        <time>2021-09-05T13:50:17Z</time>
      </trkpt>
      <trkpt lat="44.50766" lon="1.406">
        <ele>284.2</ele>
        <time>2021-09-05T13:50:19Z</time>
      </trkpt>
      <trkpt lat="44.5077" lon="1.40596">
        <ele>283.9</ele>
        <time>2021-09-05T13:51:07Z</time>
      </trkpt>
      <trkpt lat="44.50773" lon="1.40595">
        <ele>283.6</ele>
        <time>2021-09-05T13:51:08Z</time>
      </trkpt>
      <trkpt lat="44.50777" lon="1.40593">
        <ele>283.3</ele>
        <time>2021-09-05T13:51:09Z</time>
      </trkpt>
      <trkpt lat="44.50782" lon="1.40592">
        <ele>283</ele>
        <time>2021-09-05T13:51:10Z</time>
      </trkpt>
      <trkpt lat="44.50785" lon="1.4059">
        <ele>282.7</ele>
        <time>2021-09-05T13:51:11Z</time>
      </trkpt>
      <trkpt lat="44.50787" lon="1.4059">
        <ele>282.6</ele>
        <time>2021-09-05T13:51:12Z</time>
      </trkpt>
      <trkpt lat="44.50794" lon="1.40586">
        <ele>282</ele>
        <time>2021-09-05T13:51:14Z</time>
      </trkpt>
      <trkpt lat="44.50799" lon="1.40584">
        <ele>281.5</ele>
        <time>2021-09-05T13:51:15Z</time>
      </trkpt>
      <trkpt lat="44.5081" lon="1.40579">
        <ele>280.7</ele>
        <time>2021-09-05T13:51:17Z</time>
      </trkpt>
      <trkpt lat="44.50815" lon="1.40577">
        <ele>280.3</ele>
        <time>2021-09-05T13:51:18Z</time>
      </trkpt>
      <trkpt lat="44.50827" lon="1.40571">
        <ele>279.5</ele>
        <time>2021-09-05T13:51:20Z</time>
      </trkpt>
      <trkpt lat="44.5084" lon="1.40566">
        <ele>278.7</ele>
        <time>2021-09-05T13:51:22Z</time>
      </trkpt>
      <trkpt lat="44.50855" lon="1.40561">
        <ele>278</ele>
        <time>2021-09-05T13:51:23Z</time>
      </trkpt>
      <trkpt lat="44.50863" lon="1.4056">
        <ele>277.8</ele>
        <time>2021-09-05T13:51:25Z</time>
      </trkpt>
      <trkpt lat="44.50877" lon="1.40562">
        <ele>277.3</ele>
        <time>2021-09-05T13:51:27Z</time>
      </trkpt>
      <trkpt lat="44.50891" lon="1.40565">
        <ele>276.9</ele>
        <time>2021-09-05T13:51:29Z</time>
      </trkpt>
      <trkpt lat="44.50903" lon="1.40567">
        <ele>276.5</ele>
        <time>2021-09-05T13:51:31Z</time>
      </trkpt>
      <trkpt lat="44.50909" lon="1.40569">
        <ele>276.2</ele>
        <time>2021-09-05T13:51:33Z</time>
      </trkpt>
      <trkpt lat="44.50913" lon="1.40571">
        <ele>276.1</ele>
        <time>2021-09-05T13:51:34Z</time>
      </trkpt>
      <trkpt lat="44.50916" lon="1.40572">
        <ele>276.1</ele>
        <time>2021-09-05T13:51:35Z</time>
      </trkpt>
      <trkpt lat="44.50922" lon="1.40573">
        <ele>275.9</ele>
        <time>2021-09-05T13:51:37Z</time>
      </trkpt>
      <trkpt lat="44.50925" lon="1.40572">
        <ele>275.8</ele>
        <time>2021-09-05T13:51:38Z</time>
      </trkpt>
      <trkpt lat="44.50935" lon="1.4057">
        <ele>275.6</ele>
        <time>2021-09-05T13:51:40Z</time>
      </trkpt>
      <trkpt lat="44.5094" lon="1.40568">
        <ele>275.4</ele>
        <time>2021-09-05T13:51:41Z</time>
      </trkpt>
      <trkpt lat="44.50948" lon="1.40566">
        <ele>275.2</ele>
        <time>2021-09-05T13:51:42Z</time>
      </trkpt>
      <trkpt lat="44.50953" lon="1.40564">
        <ele>275</ele>
        <time>2021-09-05T13:51:43Z</time>
      </trkpt>
      <trkpt lat="44.50957" lon="1.40564">
        <ele>274.9</ele>
        <time>2021-09-05T13:51:44Z</time>
      </trkpt>
      <trkpt lat="44.50962" lon="1.40563">
        <ele>274.8</ele>
        <time>2021-09-05T13:51:45Z</time>
      </trkpt>
      <trkpt lat="44.50967" lon="1.40562">
        <ele>274.7</ele>
        <time>2021-09-05T13:51:47Z</time>
      </trkpt>
      <trkpt lat="44.50972" lon="1.4056">
        <ele>274.6</ele>
        <time>2021-09-05T13:51:48Z</time>
      </trkpt>
      <trkpt lat="44.50976" lon="1.40559">
        <ele>274.5</ele>
        <time>2021-09-05T13:51:49Z</time>
      </trkpt>
      <trkpt lat="44.50981" lon="1.40556">
        <ele>274.4</ele>
        <time>2021-09-05T13:51:50Z</time>
      </trkpt>
      <trkpt lat="44.50993" lon="1.40553">
        <ele>274.2</ele>
        <time>2021-09-05T13:51:52Z</time>
      </trkpt>
      <trkpt lat="44.51003" lon="1.40549">
        <ele>274</ele>
        <time>2021-09-05T13:51:54Z</time>
      </trkpt>
      <trkpt lat="44.51008" lon="1.40548">
        <ele>273.9</ele>
        <time>2021-09-05T13:51:56Z</time>
      </trkpt>
      <trkpt lat="44.51013" lon="1.40547">
        <ele>273.8</ele>
        <time>2021-09-05T13:51:57Z</time>
      </trkpt>
      <trkpt lat="44.51017" lon="1.40545">
        <ele>273.7</ele>
        <time>2021-09-05T13:51:58Z</time>
      </trkpt>
      <trkpt lat="44.51021" lon="1.40544">
        <ele>273.6</ele>
        <time>2021-09-05T13:51:59Z</time>
      </trkpt>
      <trkpt lat="44.51027" lon="1.40543">
        <ele>273.5</ele>
        <time>2021-09-05T13:52:00Z</time>
      </trkpt>
      <trkpt lat="44.51034" lon="1.40541">
        <ele>273.3</ele>
        <time>2021-09-05T13:52:02Z</time>
      </trkpt>
      <trkpt lat="44.51043" lon="1.40539">
        <ele>273</ele>
        <time>2021-09-05T13:52:03Z</time>
      </trkpt>
      <trkpt lat="44.51047" lon="1.40537">
        <ele>272.9</ele>
        <time>2021-09-05T13:52:05Z</time>
      </trkpt>
      <trkpt lat="44.51053" lon="1.40537">
        <ele>272.6</ele>
        <time>2021-09-05T13:52:06Z</time>
      </trkpt>
      <trkpt lat="44.51059" lon="1.40535">
        <ele>272.4</ele>
        <time>2021-09-05T13:52:08Z</time>
      </trkpt>
      <trkpt lat="44.51065" lon="1.40534">
        <ele>272.1</ele>
        <time>2021-09-05T13:52:09Z</time>
      </trkpt>
      <trkpt lat="44.51069" lon="1.40532">
        <ele>271.9</ele>
        <time>2021-09-05T13:52:11Z</time>
      </trkpt>
      <trkpt lat="44.51072" lon="1.40531">
        <ele>271.8</ele>
        <time>2021-09-05T13:52:12Z</time>
      </trkpt>
      <trkpt lat="44.51077" lon="1.40529">
        <ele>271.5</ele>
        <time>2021-09-05T13:52:13Z</time>
      </trkpt>
      <trkpt lat="44.51082" lon="1.40527">
        <ele>271.2</ele>
        <time>2021-09-05T13:52:14Z</time>
      </trkpt>
      <trkpt lat="44.51086" lon="1.40525">
        <ele>270.9</ele>
        <time>2021-09-05T13:52:15Z</time>
      </trkpt>
      <trkpt lat="44.51092" lon="1.40523">
        <ele>270.5</ele>
        <time>2021-09-05T13:52:17Z</time>
      </trkpt>
      <trkpt lat="44.51096" lon="1.40522">
        <ele>270.2</ele>
        <time>2021-09-05T13:52:18Z</time>
      </trkpt>
      <trkpt lat="44.51102" lon="1.4052">
        <ele>269.8</ele>
        <time>2021-09-05T13:52:19Z</time>
      </trkpt>
      <trkpt lat="44.51106" lon="1.40519">
        <ele>269.5</ele>
        <time>2021-09-05T13:52:20Z</time>
      </trkpt>
      <trkpt lat="44.51115" lon="1.40517">
        <ele>268.9</ele>
        <time>2021-09-05T13:52:22Z</time>
      </trkpt>
      <trkpt lat="44.51123" lon="1.40515">
        <ele>268.4</ele>
        <time>2021-09-05T13:52:23Z</time>
      </trkpt>
      <trkpt lat="44.51128" lon="1.40514">
        <ele>268</ele>
        <time>2021-09-05T13:52:25Z</time>
      </trkpt>
      <trkpt lat="44.51139" lon="1.40513">
        <ele>267.3</ele>
        <time>2021-09-05T13:52:27Z</time>
      </trkpt>
      <trkpt lat="44.51145" lon="1.40513">
        <ele>267</ele>
        <time>2021-09-05T13:52:28Z</time>
      </trkpt>
      <trkpt lat="44.5115" lon="1.40514">
        <ele>266.7</ele>
        <time>2021-09-05T13:52:29Z</time>
      </trkpt>
      <trkpt lat="44.51162" lon="1.40515">
        <ele>266</ele>
        <time>2021-09-05T13:52:30Z</time>
      </trkpt>
      <trkpt lat="44.51174" lon="1.40516">
        <ele>265.4</ele>
        <time>2021-09-05T13:52:33Z</time>
      </trkpt>
      <trkpt lat="44.51187" lon="1.40515">
        <ele>264.7</ele>
        <time>2021-09-05T13:52:35Z</time>
      </trkpt>
      <trkpt lat="44.51194" lon="1.40513">
        <ele>264.4</ele>
        <time>2021-09-05T13:52:36Z</time>
      </trkpt>
      <trkpt lat="44.51207" lon="1.40507">
        <ele>263.9</ele>
        <time>2021-09-05T13:52:37Z</time>
      </trkpt>
      <trkpt lat="44.51213" lon="1.40505">
        <ele>263.7</ele>
        <time>2021-09-05T13:52:38Z</time>
      </trkpt>
      <trkpt lat="44.51219" lon="1.40502">
        <ele>263.5</ele>
        <time>2021-09-05T13:52:40Z</time>
      </trkpt>
      <trkpt lat="44.51232" lon="1.40496">
        <ele>263.1</ele>
        <time>2021-09-05T13:52:41Z</time>
      </trkpt>
      <trkpt lat="44.51238" lon="1.40493">
        <ele>262.9</ele>
        <time>2021-09-05T13:52:43Z</time>
      </trkpt>
      <trkpt lat="44.51249" lon="1.40489">
        <ele>262.5</ele>
        <time>2021-09-05T13:52:45Z</time>
      </trkpt>
      <trkpt lat="44.51265" lon="1.40491">
        <ele>262</ele>
        <time>2021-09-05T13:52:47Z</time>
      </trkpt>
      <trkpt lat="44.51276" lon="1.40497">
        <ele>261.6</ele>
        <time>2021-09-05T13:52:50Z</time>
      </trkpt>
      <trkpt lat="44.51282" lon="1.40501">
        <ele>261.4</ele>
        <time>2021-09-05T13:52:51Z</time>
      </trkpt>
      <trkpt lat="44.51292" lon="1.40507">
        <ele>260.9</ele>
        <time>2021-09-05T13:52:53Z</time>
      </trkpt>
      <trkpt lat="44.51302" lon="1.40512">
        <ele>260.4</ele>
        <time>2021-09-05T13:52:55Z</time>
      </trkpt>
      <trkpt lat="44.51315" lon="1.40514">
        <ele>260</ele>
        <time>2021-09-05T13:52:57Z</time>
      </trkpt>
      <trkpt lat="44.51321" lon="1.40514">
        <ele>259.8</ele>
        <time>2021-09-05T13:52:58Z</time>
      </trkpt>
      <trkpt lat="44.51328" lon="1.40513">
        <ele>259.6</ele>
        <time>2021-09-05T13:52:59Z</time>
      </trkpt>
      <trkpt lat="44.5134" lon="1.40509">
        <ele>259.4</ele>
        <time>2021-09-05T13:53:00Z</time>
      </trkpt>
      <trkpt lat="44.51345" lon="1.40507">
        <ele>259.4</ele>
        <time>2021-09-05T13:53:02Z</time>
      </trkpt>
      <trkpt lat="44.51356" lon="1.405">
        <ele>259.4</ele>
        <time>2021-09-05T13:53:04Z</time>
      </trkpt>
      <trkpt lat="44.51361" lon="1.40495">
        <ele>259.5</ele>
        <time>2021-09-05T13:53:05Z</time>
      </trkpt>
      <trkpt lat="44.51371" lon="1.40487">
        <ele>259.7</ele>
        <time>2021-09-05T13:53:06Z</time>
      </trkpt>
      <trkpt lat="44.51376" lon="1.40483">
        <ele>259.8</ele>
        <time>2021-09-05T13:53:07Z</time>
      </trkpt>
      <trkpt lat="44.51382" lon="1.40477">
        <ele>260.1</ele>
        <time>2021-09-05T13:53:10Z</time>
      </trkpt>
      <trkpt lat="44.51387" lon="1.40473">
        <ele>260.3</ele>
        <time>2021-09-05T13:53:11Z</time>
      </trkpt>
      <trkpt lat="44.5139" lon="1.4047">
        <ele>260.4</ele>
        <time>2021-09-05T13:53:12Z</time>
      </trkpt>
      <trkpt lat="44.51395" lon="1.40464">
        <ele>260.8</ele>
        <time>2021-09-05T13:53:14Z</time>
      </trkpt>
      <trkpt lat="44.51402" lon="1.40458">
        <ele>261.3</ele>
        <time>2021-09-05T13:53:15Z</time>
      </trkpt>
      <trkpt lat="44.51405" lon="1.40455">
        <ele>261.4</ele>
        <time>2021-09-05T13:53:17Z</time>
      </trkpt>
      <trkpt lat="44.51408" lon="1.40452">
        <ele>261.7</ele>
        <time>2021-09-05T13:53:18Z</time>
      </trkpt>
      <trkpt lat="44.51412" lon="1.40448">
        <ele>262.1</ele>
        <time>2021-09-05T13:53:19Z</time>
      </trkpt>
      <trkpt lat="44.51415" lon="1.40444">
        <ele>262.4</ele>
        <time>2021-09-05T13:53:20Z</time>
      </trkpt>
      <trkpt lat="44.51419" lon="1.40439">
        <ele>262.9</ele>
        <time>2021-09-05T13:53:22Z</time>
      </trkpt>
      <trkpt lat="44.51422" lon="1.40435">
        <ele>263.2</ele>
        <time>2021-09-05T13:53:23Z</time>
      </trkpt>
      <trkpt lat="44.51423" lon="1.40434">
        <ele>263.4</ele>
        <time>2021-09-05T13:53:24Z</time>
      </trkpt>
      <trkpt lat="44.51426" lon="1.40431">
        <ele>263.7</ele>
        <time>2021-09-05T13:53:26Z</time>
      </trkpt>
      <trkpt lat="44.5143" lon="1.40428">
        <ele>264.1</ele>
        <time>2021-09-05T13:53:27Z</time>
      </trkpt>
      <trkpt lat="44.51431" lon="1.40427">
        <ele>264.2</ele>
        <time>2021-09-05T13:53:28Z</time>
      </trkpt>
      <trkpt lat="44.51435" lon="1.40425">
        <ele>264.6</ele>
        <time>2021-09-05T13:53:29Z</time>
      </trkpt>
      <trkpt lat="44.51437" lon="1.40423">
        <ele>264.9</ele>
        <time>2021-09-05T13:53:31Z</time>
      </trkpt>
      <trkpt lat="44.51442" lon="1.40421">
        <ele>265.5</ele>
        <time>2021-09-05T13:53:33Z</time>
      </trkpt>
      <trkpt lat="44.51446" lon="1.40419">
        <ele>265.9</ele>
        <time>2021-09-05T13:53:34Z</time>
      </trkpt>
      <trkpt lat="44.51448" lon="1.40418">
        <ele>266.1</ele>
        <time>2021-09-05T13:53:35Z</time>
      </trkpt>
      <trkpt lat="44.51451" lon="1.40417">
        <ele>266.4</ele>
        <time>2021-09-05T13:53:36Z</time>
      </trkpt>
      <trkpt lat="44.51456" lon="1.40416">
        <ele>266.9</ele>
        <time>2021-09-05T13:53:38Z</time>
      </trkpt>
      <trkpt lat="44.51457" lon="1.40416">
        <ele>267.1</ele>
        <time>2021-09-05T13:53:39Z</time>
      </trkpt>
      <trkpt lat="44.51459" lon="1.40415">
        <ele>267.2</ele>
        <time>2021-09-05T13:53:40Z</time>
      </trkpt>
      <trkpt lat="44.51463" lon="1.40414">
        <ele>267.6</ele>
        <time>2021-09-05T13:53:41Z</time>
      </trkpt>
      <trkpt lat="44.51464" lon="1.40414">
        <ele>267.7</ele>
        <time>2021-09-05T13:53:42Z</time>
      </trkpt>
      <trkpt lat="44.51468" lon="1.40412">
        <ele>268.2</ele>
        <time>2021-09-05T13:53:45Z</time>
      </trkpt>
      <trkpt lat="44.51473" lon="1.40411">
        <ele>268.6</ele>
        <time>2021-09-05T13:53:47Z</time>
      </trkpt>
      <trkpt lat="44.51477" lon="1.4041">
        <ele>269</ele>
        <time>2021-09-05T13:53:48Z</time>
      </trkpt>
      <trkpt lat="44.51479" lon="1.40409">
        <ele>269.2</ele>
        <time>2021-09-05T13:53:49Z</time>
      </trkpt>
      <trkpt lat="44.51485" lon="1.40407">
        <ele>269.7</ele>
        <time>2021-09-05T13:53:51Z</time>
      </trkpt>
      <trkpt lat="44.51488" lon="1.40407">
        <ele>269.9</ele>
        <time>2021-09-05T13:53:52Z</time>
      </trkpt>
      <trkpt lat="44.51492" lon="1.40406">
        <ele>270.3</ele>
        <time>2021-09-05T13:53:54Z</time>
      </trkpt>
      <trkpt lat="44.51496" lon="1.40405">
        <ele>270.6</ele>
        <time>2021-09-05T13:53:56Z</time>
      </trkpt>
      <trkpt lat="44.51501" lon="1.40404">
        <ele>271</ele>
        <time>2021-09-05T13:53:58Z</time>
      </trkpt>
      <trkpt lat="44.51505" lon="1.40403">
        <ele>271.4</ele>
        <time>2021-09-05T13:54:00Z</time>
      </trkpt>
      <trkpt lat="44.5151" lon="1.40402">
        <ele>271.7</ele>
        <time>2021-09-05T13:54:01Z</time>
      </trkpt>
      <trkpt lat="44.51512" lon="1.40402">
        <ele>272</ele>
        <time>2021-09-05T13:54:03Z</time>
      </trkpt>
      <trkpt lat="44.51518" lon="1.40402">
        <ele>272.4</ele>
        <time>2021-09-05T13:54:05Z</time>
      </trkpt>
      <trkpt lat="44.51523" lon="1.40401">
        <ele>272.8</ele>
        <time>2021-09-05T13:54:08Z</time>
      </trkpt>
      <trkpt lat="44.51526" lon="1.404">
        <ele>273.2</ele>
        <time>2021-09-05T13:54:09Z</time>
      </trkpt>
      <trkpt lat="44.51528" lon="1.404">
        <ele>273.4</ele>
        <time>2021-09-05T13:54:10Z</time>
      </trkpt>
      <trkpt lat="44.5153" lon="1.40399">
        <ele>273.6</ele>
        <time>2021-09-05T13:54:11Z</time>
      </trkpt>
      <trkpt lat="44.51533" lon="1.40398">
        <ele>273.9</ele>
        <time>2021-09-05T13:54:13Z</time>
      </trkpt>
      <trkpt lat="44.51535" lon="1.40397">
        <ele>274.1</ele>
        <time>2021-09-05T13:54:15Z</time>
      </trkpt>
      <trkpt lat="44.51536" lon="1.40395">
        <ele>275.2</ele>
        <time>2021-09-05T13:54:17Z</time>
      </trkpt>
      <trkpt lat="44.51536" lon="1.40395">
        <ele>275.2</ele>
        <time>2021-09-05T13:54:18Z</time>
      </trkpt>
      <trkpt lat="44.51536" lon="1.40395">
        <ele>275.2</ele>
        <time>2021-09-05T13:54:19Z</time>
      </trkpt>
      <trkpt lat="44.51536" lon="1.40395">
        <ele>275.2</ele>
        <time>2021-09-05T13:54:21Z</time>
      </trkpt>
      <trkpt lat="44.51536" lon="1.40394">
        <ele>275.2</ele>
        <time>2021-09-05T13:54:23Z</time>
      </trkpt>
      <trkpt lat="44.51534" lon="1.40392">
        <ele>275.3</ele>
        <time>2021-09-05T13:54:24Z</time>
      </trkpt>
      <trkpt lat="44.51531" lon="1.40388">
        <ele>275.4</ele>
        <time>2021-09-05T13:54:26Z</time>
      </trkpt>
      <trkpt lat="44.51527" lon="1.40384">
        <ele>275.5</ele>
        <time>2021-09-05T13:54:27Z</time>
      </trkpt>
      <trkpt lat="44.51525" lon="1.40382">
        <ele>275.6</ele>
        <time>2021-09-05T13:54:29Z</time>
      </trkpt>
      <trkpt lat="44.51521" lon="1.40379">
        <ele>275.8</ele>
        <time>2021-09-05T13:54:30Z</time>
      </trkpt>
      <trkpt lat="44.51517" lon="1.40375">
        <ele>276</ele>
        <time>2021-09-05T13:54:31Z</time>
      </trkpt>
      <trkpt lat="44.51515" lon="1.40373">
        <ele>276.1</ele>
        <time>2021-09-05T13:54:32Z</time>
      </trkpt>
      <trkpt lat="44.51511" lon="1.40368">
        <ele>276.4</ele>
        <time>2021-09-05T13:54:34Z</time>
      </trkpt>
      <trkpt lat="44.51509" lon="1.40365">
        <ele>276.6</ele>
        <time>2021-09-05T13:54:36Z</time>
      </trkpt>
      <trkpt lat="44.51507" lon="1.40361">
        <ele>276.8</ele>
        <time>2021-09-05T13:54:37Z</time>
      </trkpt>
      <trkpt lat="44.51505" lon="1.40357">
        <ele>277</ele>
        <time>2021-09-05T13:54:38Z</time>
      </trkpt>
      <trkpt lat="44.51503" lon="1.40352">
        <ele>277.3</ele>
        <time>2021-09-05T13:54:40Z</time>
      </trkpt>
      <trkpt lat="44.51502" lon="1.40344">
        <ele>277.7</ele>
        <time>2021-09-05T13:54:41Z</time>
      </trkpt>
      <trkpt lat="44.51501" lon="1.40339">
        <ele>278</ele>
        <time>2021-09-05T13:54:43Z</time>
      </trkpt>
      <trkpt lat="44.51502" lon="1.40335">
        <ele>278.2</ele>
        <time>2021-09-05T13:54:44Z</time>
      </trkpt>
      <trkpt lat="44.51502" lon="1.40331">
        <ele>278.4</ele>
        <time>2021-09-05T13:54:46Z</time>
      </trkpt>
      <trkpt lat="44.51505" lon="1.40324">
        <ele>278.8</ele>
        <time>2021-09-05T13:54:48Z</time>
      </trkpt>
      <trkpt lat="44.51506" lon="1.4032">
        <ele>278.9</ele>
        <time>2021-09-05T13:54:49Z</time>
      </trkpt>
      <trkpt lat="44.51509" lon="1.40316">
        <ele>279.1</ele>
        <time>2021-09-05T13:54:51Z</time>
      </trkpt>
      <trkpt lat="44.5151" lon="1.40313">
        <ele>279.2</ele>
        <time>2021-09-05T13:54:52Z</time>
      </trkpt>
      <trkpt lat="44.51511" lon="1.40311">
        <ele>279.3</ele>
        <time>2021-09-05T13:54:53Z</time>
      </trkpt>
      <trkpt lat="44.51512" lon="1.40309">
        <ele>279.4</ele>
        <time>2021-09-05T13:54:54Z</time>
      </trkpt>
      <trkpt lat="44.51515" lon="1.40305">
        <ele>279.5</ele>
        <time>2021-09-05T13:54:56Z</time>
      </trkpt>
      <trkpt lat="44.51516" lon="1.40303">
        <ele>279.6</ele>
        <time>2021-09-05T13:54:57Z</time>
      </trkpt>
      <trkpt lat="44.51519" lon="1.40298">
        <ele>279.7</ele>
        <time>2021-09-05T13:54:59Z</time>
      </trkpt>
      <trkpt lat="44.51521" lon="1.40293">
        <ele>279.8</ele>
        <time>2021-09-05T13:55:01Z</time>
      </trkpt>
      <trkpt lat="44.51523" lon="1.40289">
        <ele>279.9</ele>
        <time>2021-09-05T13:55:02Z</time>
      </trkpt>
      <trkpt lat="44.51524" lon="1.40288">
        <ele>279.9</ele>
        <time>2021-09-05T13:55:03Z</time>
      </trkpt>
      <trkpt lat="44.51527" lon="1.40281">
        <ele>280</ele>
        <time>2021-09-05T13:55:05Z</time>
      </trkpt>
      <trkpt lat="44.5153" lon="1.40275">
        <ele>280</ele>
        <time>2021-09-05T13:55:07Z</time>
      </trkpt>
      <trkpt lat="44.51532" lon="1.40269">
        <ele>280.1</ele>
        <time>2021-09-05T13:55:09Z</time>
      </trkpt>
      <trkpt lat="44.51534" lon="1.40263">
        <ele>280.1</ele>
        <time>2021-09-05T13:55:11Z</time>
      </trkpt>
      <trkpt lat="44.51535" lon="1.40259">
        <ele>280.1</ele>
        <time>2021-09-05T13:55:12Z</time>
      </trkpt>
      <trkpt lat="44.51539" lon="1.40252">
        <ele>280.1</ele>
        <time>2021-09-05T13:55:13Z</time>
      </trkpt>
      <trkpt lat="44.5154" lon="1.40249">
        <ele>280.1</ele>
        <time>2021-09-05T13:55:14Z</time>
      </trkpt>
      <trkpt lat="44.51541" lon="1.40244">
        <ele>280.1</ele>
        <time>2021-09-05T13:55:16Z</time>
      </trkpt>
      <trkpt lat="44.51543" lon="1.4024">
        <ele>280.1</ele>
        <time>2021-09-05T13:55:17Z</time>
      </trkpt>
      <trkpt lat="44.51545" lon="1.40236">
        <ele>280.1</ele>
        <time>2021-09-05T13:55:19Z</time>
      </trkpt>
      <trkpt lat="44.51547" lon="1.40231">
        <ele>280.1</ele>
        <time>2021-09-05T13:55:20Z</time>
      </trkpt>
      <trkpt lat="44.51549" lon="1.40227">
        <ele>280</ele>
        <time>2021-09-05T13:55:21Z</time>
      </trkpt>
      <trkpt lat="44.51551" lon="1.40223">
        <ele>280</ele>
        <time>2021-09-05T13:55:22Z</time>
      </trkpt>
      <trkpt lat="44.51553" lon="1.4022">
        <ele>279.9</ele>
        <time>2021-09-05T13:55:24Z</time>
      </trkpt>
      <trkpt lat="44.51555" lon="1.40215">
        <ele>279.8</ele>
        <time>2021-09-05T13:55:25Z</time>
      </trkpt>
      <trkpt lat="44.51558" lon="1.40208">
        <ele>279.7</ele>
        <time>2021-09-05T13:55:27Z</time>
      </trkpt>
      <trkpt lat="44.5156" lon="1.40204">
        <ele>279.6</ele>
        <time>2021-09-05T13:55:29Z</time>
      </trkpt>
      <trkpt lat="44.51562" lon="1.40197">
        <ele>279.4</ele>
        <time>2021-09-05T13:55:30Z</time>
      </trkpt>
      <trkpt lat="44.51563" lon="1.40194">
        <ele>279.3</ele>
        <time>2021-09-05T13:55:32Z</time>
      </trkpt>
      <trkpt lat="44.51566" lon="1.40187">
        <ele>279</ele>
        <time>2021-09-05T13:55:34Z</time>
      </trkpt>
      <trkpt lat="44.51568" lon="1.40184">
        <ele>278.9</ele>
        <time>2021-09-05T13:55:35Z</time>
      </trkpt>
      <trkpt lat="44.51569" lon="1.4018">
        <ele>278.7</ele>
        <time>2021-09-05T13:55:36Z</time>
      </trkpt>
      <trkpt lat="44.51572" lon="1.40173">
        <ele>278.5</ele>
        <time>2021-09-05T13:55:37Z</time>
      </trkpt>
      <trkpt lat="44.51574" lon="1.40168">
        <ele>278.3</ele>
        <time>2021-09-05T13:55:38Z</time>
      </trkpt>
      <trkpt lat="44.51575" lon="1.40162">
        <ele>278.1</ele>
        <time>2021-09-05T13:55:39Z</time>
      </trkpt>
      <trkpt lat="44.51578" lon="1.40154">
        <ele>277.7</ele>
        <time>2021-09-05T13:55:41Z</time>
      </trkpt>
      <trkpt lat="44.51581" lon="1.40147">
        <ele>277.4</ele>
        <time>2021-09-05T13:55:42Z</time>
      </trkpt>
      <trkpt lat="44.51583" lon="1.40142">
        <ele>277.2</ele>
        <time>2021-09-05T13:55:44Z</time>
      </trkpt>
      <trkpt lat="44.51586" lon="1.40134">
        <ele>276.8</ele>
        <time>2021-09-05T13:55:45Z</time>
      </trkpt>
      <trkpt lat="44.51589" lon="1.40129">
        <ele>276.4</ele>
        <time>2021-09-05T13:55:47Z</time>
      </trkpt>
      <trkpt lat="44.51593" lon="1.40121">
        <ele>275.8</ele>
        <time>2021-09-05T13:55:48Z</time>
      </trkpt>
      <trkpt lat="44.51595" lon="1.40116">
        <ele>275.5</ele>
        <time>2021-09-05T13:55:49Z</time>
      </trkpt>
      <trkpt lat="44.51598" lon="1.4011">
        <ele>274.9</ele>
        <time>2021-09-05T13:55:51Z</time>
      </trkpt>
      <trkpt lat="44.516" lon="1.40105">
        <ele>274.6</ele>
        <time>2021-09-05T13:55:53Z</time>
      </trkpt>
      <trkpt lat="44.51601" lon="1.40101">
        <ele>274.2</ele>
        <time>2021-09-05T13:55:54Z</time>
      </trkpt>
      <trkpt lat="44.51603" lon="1.40097">
        <ele>273.9</ele>
        <time>2021-09-05T13:55:55Z</time>
      </trkpt>
      <trkpt lat="44.51605" lon="1.40092">
        <ele>273.5</ele>
        <time>2021-09-05T13:55:57Z</time>
      </trkpt>
      <trkpt lat="44.51605" lon="1.4009">
        <ele>273.4</ele>
        <time>2021-09-05T13:55:59Z</time>
      </trkpt>
      <trkpt lat="44.51604" lon="1.40091">
        <ele>273.4</ele>
        <time>2021-09-05T13:56:00Z</time>
      </trkpt>
      <trkpt lat="44.51605" lon="1.40091">
        <ele>273.3</ele>
        <time>2021-09-05T13:56:01Z</time>
      </trkpt>
      <trkpt lat="44.51605" lon="1.40091">
        <ele>273.3</ele>
        <time>2021-09-05T13:56:03Z</time>
      </trkpt>
      <trkpt lat="44.51606" lon="1.40091">
        <ele>273.4</ele>
        <time>2021-09-05T13:56:04Z</time>
      </trkpt>
      <trkpt lat="44.51607" lon="1.40092">
        <ele>273.4</ele>
        <time>2021-09-05T13:56:06Z</time>
      </trkpt>
      <trkpt lat="44.51608" lon="1.40092">
        <ele>273.4</ele>
        <time>2021-09-05T13:56:07Z</time>
      </trkpt>
      <trkpt lat="44.51608" lon="1.40093">
        <ele>273.4</ele>
        <time>2021-09-05T13:56:08Z</time>
      </trkpt>
      <trkpt lat="44.5161" lon="1.40096">
        <ele>273.6</ele>
        <time>2021-09-05T13:56:09Z</time>
      </trkpt>
      <trkpt lat="44.51611" lon="1.40099">
        <ele>273.6</ele>
        <time>2021-09-05T13:56:10Z</time>
      </trkpt>
      <trkpt lat="44.51614" lon="1.40103">
        <ele>273.9</ele>
        <time>2021-09-05T13:56:12Z</time>
      </trkpt>
      <trkpt lat="44.51617" lon="1.40109">
        <ele>274</ele>
        <time>2021-09-05T13:56:14Z</time>
      </trkpt>
      <trkpt lat="44.51621" lon="1.40117">
        <ele>274.3</ele>
        <time>2021-09-05T13:56:15Z</time>
      </trkpt>
      <trkpt lat="44.51624" lon="1.40123">
        <ele>274.5</ele>
        <time>2021-09-05T13:56:17Z</time>
      </trkpt>
      <trkpt lat="44.51628" lon="1.40128">
        <ele>274.5</ele>
        <time>2021-09-05T13:56:18Z</time>
      </trkpt>
      <trkpt lat="44.51632" lon="1.40132">
        <ele>274.5</ele>
        <time>2021-09-05T13:56:19Z</time>
      </trkpt>
      <trkpt lat="44.51634" lon="1.40137">
        <ele>274.4</ele>
        <time>2021-09-05T13:56:21Z</time>
      </trkpt>
      <trkpt lat="44.51637" lon="1.40143">
        <ele>274.3</ele>
        <time>2021-09-05T13:56:22Z</time>
      </trkpt>
      <trkpt lat="44.5164" lon="1.40147">
        <ele>274.2</ele>
        <time>2021-09-05T13:56:24Z</time>
      </trkpt>
      <trkpt lat="44.51644" lon="1.40154">
        <ele>274.1</ele>
        <time>2021-09-05T13:56:25Z</time>
      </trkpt>
      <trkpt lat="44.51646" lon="1.40161">
        <ele>274.2</ele>
        <time>2021-09-05T13:56:26Z</time>
      </trkpt>
      <trkpt lat="44.51647" lon="1.40167">
        <ele>274.2</ele>
        <time>2021-09-05T13:56:28Z</time>
      </trkpt>
      <trkpt lat="44.51649" lon="1.40173">
        <ele>274.3</ele>
        <time>2021-09-05T13:56:29Z</time>
      </trkpt>
      <trkpt lat="44.51652" lon="1.40177">
        <ele>274.1</ele>
        <time>2021-09-05T13:56:30Z</time>
      </trkpt>
      <trkpt lat="44.51655" lon="1.40183">
        <ele>274</ele>
        <time>2021-09-05T13:56:31Z</time>
      </trkpt>
      <trkpt lat="44.51656" lon="1.40189">
        <ele>273.9</ele>
        <time>2021-09-05T13:56:32Z</time>
      </trkpt>
      <trkpt lat="44.51659" lon="1.40194">
        <ele>273.7</ele>
        <time>2021-09-05T13:56:33Z</time>
      </trkpt>
      <trkpt lat="44.51661" lon="1.40198">
        <ele>273.8</ele>
        <time>2021-09-05T13:56:34Z</time>
      </trkpt>
      <trkpt lat="44.51662" lon="1.40204">
        <ele>273.7</ele>
        <time>2021-09-05T13:56:36Z</time>
      </trkpt>
      <trkpt lat="44.51662" lon="1.40206">
        <ele>273.8</ele>
        <time>2021-09-05T13:56:37Z</time>
      </trkpt>
      <trkpt lat="44.51662" lon="1.4021">
        <ele>274</ele>
        <time>2021-09-05T13:56:38Z</time>
      </trkpt>
      <trkpt lat="44.51662" lon="1.40216">
        <ele>274.2</ele>
        <time>2021-09-05T13:56:39Z</time>
      </trkpt>
      <trkpt lat="44.51662" lon="1.40222">
        <ele>274.5</ele>
        <time>2021-09-05T13:56:41Z</time>
      </trkpt>
      <trkpt lat="44.51664" lon="1.40228">
        <ele>274.7</ele>
        <time>2021-09-05T13:56:42Z</time>
      </trkpt>
      <trkpt lat="44.51664" lon="1.40231">
        <ele>274.9</ele>
        <time>2021-09-05T13:56:43Z</time>
      </trkpt>
      <trkpt lat="44.51665" lon="1.40234">
        <ele>274.6</ele>
        <time>2021-09-05T13:56:45Z</time>
      </trkpt>
      <trkpt lat="44.51665" lon="1.40238">
        <ele>274.8</ele>
        <time>2021-09-05T13:56:46Z</time>
      </trkpt>
      <trkpt lat="44.51665" lon="1.4024">
        <ele>275</ele>
        <time>2021-09-05T13:56:47Z</time>
      </trkpt>
      <trkpt lat="44.51666" lon="1.40243">
        <ele>275</ele>
        <time>2021-09-05T13:56:48Z</time>
      </trkpt>
      <trkpt lat="44.51666" lon="1.40247">
        <ele>275.2</ele>
        <time>2021-09-05T13:56:50Z</time>
      </trkpt>
      <trkpt lat="44.51669" lon="1.40252">
        <ele>275.3</ele>
        <time>2021-09-05T13:56:52Z</time>
      </trkpt>
      <trkpt lat="44.51671" lon="1.40256">
        <ele>275.1</ele>
        <time>2021-09-05T13:56:53Z</time>
      </trkpt>
      <trkpt lat="44.51674" lon="1.40258">
        <ele>274.6</ele>
        <time>2021-09-05T13:56:54Z</time>
      </trkpt>
      <trkpt lat="44.51675" lon="1.40259">
        <ele>274.5</ele>
        <time>2021-09-05T13:56:55Z</time>
      </trkpt>
      <trkpt lat="44.51678" lon="1.40261">
        <ele>274.3</ele>
        <time>2021-09-05T13:56:58Z</time>
      </trkpt>
      <trkpt lat="44.51678" lon="1.40261">
        <ele>274.3</ele>
        <time>2021-09-05T13:56:59Z</time>
      </trkpt>
      <trkpt lat="44.51678" lon="1.4026">
        <ele>274.2</ele>
        <time>2021-09-05T13:57:00Z</time>
      </trkpt>
      <trkpt lat="44.51678" lon="1.4026">
        <ele>273.9</ele>
        <time>2021-09-05T13:57:01Z</time>
      </trkpt>
      <trkpt lat="44.51678" lon="1.4026">
        <ele>273.9</ele>
        <time>2021-09-05T13:57:03Z</time>
      </trkpt>
      <trkpt lat="44.51678" lon="1.4026">
        <ele>273.8</ele>
        <time>2021-09-05T13:57:05Z</time>
      </trkpt>
      <trkpt lat="44.51679" lon="1.40264">
        <ele>274.1</ele>
        <time>2021-09-05T13:57:33Z</time>
      </trkpt>
      <trkpt lat="44.51682" lon="1.40267">
        <ele>273.8</ele>
        <time>2021-09-05T13:57:34Z</time>
      </trkpt>
      <trkpt lat="44.51683" lon="1.40272">
        <ele>274.1</ele>
        <time>2021-09-05T13:57:35Z</time>
      </trkpt>
      <trkpt lat="44.51683" lon="1.40274">
        <ele>274.3</ele>
        <time>2021-09-05T13:57:36Z</time>
      </trkpt>
      <trkpt lat="44.51684" lon="1.40279">
        <ele>274.2</ele>
        <time>2021-09-05T13:57:38Z</time>
      </trkpt>
      <trkpt lat="44.51686" lon="1.40284">
        <ele>274</ele>
        <time>2021-09-05T13:57:39Z</time>
      </trkpt>
      <trkpt lat="44.5169" lon="1.40295">
        <ele>274.5</ele>
        <time>2021-09-05T13:57:41Z</time>
      </trkpt>
      <trkpt lat="44.51693" lon="1.40303">
        <ele>274.3</ele>
        <time>2021-09-05T13:57:43Z</time>
      </trkpt>
      <trkpt lat="44.51698" lon="1.4031">
        <ele>273.8</ele>
        <time>2021-09-05T13:57:44Z</time>
      </trkpt>
      <trkpt lat="44.51702" lon="1.40317">
        <ele>273.9</ele>
        <time>2021-09-05T13:57:46Z</time>
      </trkpt>
      <trkpt lat="44.51704" lon="1.40322">
        <ele>274.2</ele>
        <time>2021-09-05T13:57:47Z</time>
      </trkpt>
      <trkpt lat="44.51705" lon="1.40326">
        <ele>274</ele>
        <time>2021-09-05T13:57:48Z</time>
      </trkpt>
      <trkpt lat="44.51707" lon="1.40333">
        <ele>274.8</ele>
        <time>2021-09-05T13:57:50Z</time>
      </trkpt>
      <trkpt lat="44.51708" lon="1.40337">
        <ele>274.2</ele>
        <time>2021-09-05T13:57:51Z</time>
      </trkpt>
      <trkpt lat="44.51709" lon="1.4034">
        <ele>274.6</ele>
        <time>2021-09-05T13:57:52Z</time>
      </trkpt>
      <trkpt lat="44.51712" lon="1.40345">
        <ele>274.5</ele>
        <time>2021-09-05T13:57:53Z</time>
      </trkpt>
      <trkpt lat="44.51713" lon="1.40347">
        <ele>274.8</ele>
        <time>2021-09-05T13:57:54Z</time>
      </trkpt>
      <trkpt lat="44.51715" lon="1.40351">
        <ele>274.6</ele>
        <time>2021-09-05T13:57:56Z</time>
      </trkpt>
      <trkpt lat="44.51719" lon="1.40357">
        <ele>274.3</ele>
        <time>2021-09-05T13:57:57Z</time>
      </trkpt>
      <trkpt lat="44.5172" lon="1.40363">
        <ele>274</ele>
        <time>2021-09-05T13:57:58Z</time>
      </trkpt>
      <trkpt lat="44.51722" lon="1.40367">
        <ele>274.4</ele>
        <time>2021-09-05T13:58:00Z</time>
      </trkpt>
      <trkpt lat="44.51723" lon="1.40372">
        <ele>274.2</ele>
        <time>2021-09-05T13:58:01Z</time>
      </trkpt>
      <trkpt lat="44.51726" lon="1.40376">
        <ele>274.5</ele>
        <time>2021-09-05T13:58:03Z</time>
      </trkpt>
      <trkpt lat="44.51727" lon="1.40379">
        <ele>274.5</ele>
        <time>2021-09-05T13:58:04Z</time>
      </trkpt>
      <trkpt lat="44.51728" lon="1.40381">
        <ele>274.9</ele>
        <time>2021-09-05T13:58:05Z</time>
      </trkpt>
      <trkpt lat="44.51729" lon="1.40385">
        <ele>274.8</ele>
        <time>2021-09-05T13:58:06Z</time>
      </trkpt>
      <trkpt lat="44.51729" lon="1.40386">
        <ele>274.8</ele>
        <time>2021-09-05T13:58:07Z</time>
      </trkpt>
      <trkpt lat="44.51732" lon="1.4039">
        <ele>274.6</ele>
        <time>2021-09-05T13:58:08Z</time>
      </trkpt>
      <trkpt lat="44.51733" lon="1.40392">
        <ele>274.6</ele>
        <time>2021-09-05T13:58:09Z</time>
      </trkpt>
      <trkpt lat="44.51735" lon="1.40396">
        <ele>275</ele>
        <time>2021-09-05T13:58:11Z</time>
      </trkpt>
      <trkpt lat="44.51739" lon="1.404">
        <ele>274.3</ele>
        <time>2021-09-05T13:58:12Z</time>
      </trkpt>
      <trkpt lat="44.51742" lon="1.40404">
        <ele>274.2</ele>
        <time>2021-09-05T13:58:14Z</time>
      </trkpt>
      <trkpt lat="44.51744" lon="1.40406">
        <ele>274.7</ele>
        <time>2021-09-05T13:58:15Z</time>
      </trkpt>
      <trkpt lat="44.51746" lon="1.4041">
        <ele>274.2</ele>
        <time>2021-09-05T13:58:16Z</time>
      </trkpt>
      <trkpt lat="44.51747" lon="1.40415">
        <ele>274.7</ele>
        <time>2021-09-05T13:58:18Z</time>
      </trkpt>
      <trkpt lat="44.51751" lon="1.40419">
        <ele>274.1</ele>
        <time>2021-09-05T13:58:19Z</time>
      </trkpt>
      <trkpt lat="44.51754" lon="1.40422">
        <ele>274</ele>
        <time>2021-09-05T13:58:21Z</time>
      </trkpt>
      <trkpt lat="44.51756" lon="1.40425">
        <ele>274.5</ele>
        <time>2021-09-05T13:58:22Z</time>
      </trkpt>
      <trkpt lat="44.51759" lon="1.40429">
        <ele>274.3</ele>
        <time>2021-09-05T13:58:23Z</time>
      </trkpt>
      <trkpt lat="44.51763" lon="1.40434">
        <ele>273.5</ele>
        <time>2021-09-05T13:58:25Z</time>
      </trkpt>
      <trkpt lat="44.51765" lon="1.40437">
        <ele>273.9</ele>
        <time>2021-09-05T13:58:26Z</time>
      </trkpt>
      <trkpt lat="44.51769" lon="1.4044">
        <ele>272.9</ele>
        <time>2021-09-05T13:58:28Z</time>
      </trkpt>
      <trkpt lat="44.51772" lon="1.40445">
        <ele>272.8</ele>
        <time>2021-09-05T13:58:30Z</time>
      </trkpt>
      <trkpt lat="44.51775" lon="1.4045">
        <ele>273.3</ele>
        <time>2021-09-05T13:58:31Z</time>
      </trkpt>
      <trkpt lat="44.51777" lon="1.40453">
        <ele>273.2</ele>
        <time>2021-09-05T13:58:32Z</time>
      </trkpt>
      <trkpt lat="44.51779" lon="1.40459">
        <ele>273.6</ele>
        <time>2021-09-05T13:58:34Z</time>
      </trkpt>
      <trkpt lat="44.5178" lon="1.40462">
        <ele>273.9</ele>
        <time>2021-09-05T13:58:35Z</time>
      </trkpt>
      <trkpt lat="44.51782" lon="1.40468">
        <ele>273.9</ele>
        <time>2021-09-05T13:58:36Z</time>
      </trkpt>
      <trkpt lat="44.51784" lon="1.40473">
        <ele>274.1</ele>
        <time>2021-09-05T13:58:38Z</time>
      </trkpt>
      <trkpt lat="44.51787" lon="1.40477">
        <ele>273.8</ele>
        <time>2021-09-05T13:58:40Z</time>
      </trkpt>
      <trkpt lat="44.51788" lon="1.40482">
        <ele>274.1</ele>
        <time>2021-09-05T13:58:41Z</time>
      </trkpt>
      <trkpt lat="44.5179" lon="1.40487">
        <ele>274</ele>
        <time>2021-09-05T13:58:42Z</time>
      </trkpt>
      <trkpt lat="44.51791" lon="1.40489">
        <ele>274.2</ele>
        <time>2021-09-05T13:58:43Z</time>
      </trkpt>
      <trkpt lat="44.51792" lon="1.40489">
        <ele>274.2</ele>
        <time>2021-09-05T13:58:45Z</time>
      </trkpt>
      <trkpt lat="44.51792" lon="1.40488">
        <ele>274.1</ele>
        <time>2021-09-05T13:58:46Z</time>
      </trkpt>
      <trkpt lat="44.51792" lon="1.40488">
        <ele>273.9</ele>
        <time>2021-09-05T13:58:47Z</time>
      </trkpt>
      <trkpt lat="44.51792" lon="1.40488">
        <ele>273.8</ele>
        <time>2021-09-05T13:58:49Z</time>
      </trkpt>
      <trkpt lat="44.51792" lon="1.40488">
        <ele>273.8</ele>
        <time>2021-09-05T13:58:50Z</time>
      </trkpt>
      <trkpt lat="44.51792" lon="1.40488">
        <ele>273.8</ele>
        <time>2021-09-05T13:58:52Z</time>
      </trkpt>
      <trkpt lat="44.51792" lon="1.40488">
        <ele>273.7</ele>
        <time>2021-09-05T13:58:53Z</time>
      </trkpt>
      <trkpt lat="44.51795" lon="1.40483">
        <ele>273.1</ele>
        <time>2021-09-05T14:00:47Z</time>
      </trkpt>
      <trkpt lat="44.51802" lon="1.40476">
        <ele>271.4</ele>
        <time>2021-09-05T14:00:49Z</time>
      </trkpt>
      <trkpt lat="44.51809" lon="1.40475">
        <ele>270.3</ele>
        <time>2021-09-05T14:00:51Z</time>
      </trkpt>
      <trkpt lat="44.51814" lon="1.40473">
        <ele>269.2</ele>
        <time>2021-09-05T14:00:52Z</time>
      </trkpt>
      <trkpt lat="44.51823" lon="1.40468">
        <ele>267.2</ele>
        <time>2021-09-05T14:00:54Z</time>
      </trkpt>
      <trkpt lat="44.51828" lon="1.40467">
        <ele>266.3</ele>
        <time>2021-09-05T14:00:55Z</time>
      </trkpt>
      <trkpt lat="44.51831" lon="1.40463">
        <ele>265.1</ele>
        <time>2021-09-05T14:00:56Z</time>
      </trkpt>
      <trkpt lat="44.51837" lon="1.40457">
        <ele>262.7</ele>
        <time>2021-09-05T14:00:58Z</time>
      </trkpt>
      <trkpt lat="44.51846" lon="1.40452">
        <ele>260.5</ele>
        <time>2021-09-05T14:01:00Z</time>
      </trkpt>
      <trkpt lat="44.51861" lon="1.40449">
        <ele>257.5</ele>
        <time>2021-09-05T14:01:02Z</time>
      </trkpt>
      <trkpt lat="44.51875" lon="1.40448">
        <ele>254</ele>
        <time>2021-09-05T14:01:04Z</time>
      </trkpt>
      <trkpt lat="44.51887" lon="1.40445">
        <ele>250.8</ele>
        <time>2021-09-05T14:01:06Z</time>
      </trkpt>
      <trkpt lat="44.51894" lon="1.40441">
        <ele>249.4</ele>
        <time>2021-09-05T14:01:07Z</time>
      </trkpt>
      <trkpt lat="44.51905" lon="1.40432">
        <ele>245.5</ele>
        <time>2021-09-05T14:01:09Z</time>
      </trkpt>
      <trkpt lat="44.51912" lon="1.40432">
        <ele>243.6</ele>
        <time>2021-09-05T14:01:10Z</time>
      </trkpt>
      <trkpt lat="44.51917" lon="1.40432">
        <ele>242.1</ele>
        <time>2021-09-05T14:01:12Z</time>
      </trkpt>
      <trkpt lat="44.51922" lon="1.40429">
        <ele>240.7</ele>
        <time>2021-09-05T14:01:13Z</time>
      </trkpt>
      <trkpt lat="44.51927" lon="1.40424">
        <ele>239.2</ele>
        <time>2021-09-05T14:01:14Z</time>
      </trkpt>
      <trkpt lat="44.51929" lon="1.40421">
        <ele>237.8</ele>
        <time>2021-09-05T14:01:15Z</time>
      </trkpt>
      <trkpt lat="44.5194" lon="1.40415">
        <ele>234.6</ele>
        <time>2021-09-05T14:01:16Z</time>
      </trkpt>
      <trkpt lat="44.51944" lon="1.40412">
        <ele>233.4</ele>
        <time>2021-09-05T14:01:18Z</time>
      </trkpt>
      <trkpt lat="44.51947" lon="1.40409">
        <ele>232.3</ele>
        <time>2021-09-05T14:01:19Z</time>
      </trkpt>
      <trkpt lat="44.51956" lon="1.40404">
        <ele>230.3</ele>
        <time>2021-09-05T14:01:20Z</time>
      </trkpt>
      <trkpt lat="44.51967" lon="1.40405">
        <ele>229</ele>
        <time>2021-09-05T14:01:23Z</time>
      </trkpt>
      <trkpt lat="44.51974" lon="1.40404">
        <ele>227.8</ele>
        <time>2021-09-05T14:01:24Z</time>
      </trkpt>
      <trkpt lat="44.51978" lon="1.40393">
        <ele>226.5</ele>
        <time>2021-09-05T14:01:25Z</time>
      </trkpt>
      <trkpt lat="44.51982" lon="1.40387">
        <ele>226.1</ele>
        <time>2021-09-05T14:01:26Z</time>
      </trkpt>
      <trkpt lat="44.51987" lon="1.40383">
        <ele>225.7</ele>
        <time>2021-09-05T14:01:28Z</time>
      </trkpt>
      <trkpt lat="44.51991" lon="1.40382">
        <ele>225.6</ele>
        <time>2021-09-05T14:01:29Z</time>
      </trkpt>
      <trkpt lat="44.51993" lon="1.40382">
        <ele>225.6</ele>
        <time>2021-09-05T14:01:30Z</time>
      </trkpt>
      <trkpt lat="44.51996" lon="1.40381">
        <ele>225.5</ele>
        <time>2021-09-05T14:01:31Z</time>
      </trkpt>
      <trkpt lat="44.51998" lon="1.40378">
        <ele>225.6</ele>
        <time>2021-09-05T14:01:33Z</time>
      </trkpt>
      <trkpt lat="44.52001" lon="1.40375">
        <ele>225.8</ele>
        <time>2021-09-05T14:01:34Z</time>
      </trkpt>
      <trkpt lat="44.52003" lon="1.40374">
        <ele>225.9</ele>
        <time>2021-09-05T14:01:35Z</time>
      </trkpt>
      <trkpt lat="44.52004" lon="1.40373">
        <ele>226</ele>
        <time>2021-09-05T14:01:36Z</time>
      </trkpt>
      <trkpt lat="44.52008" lon="1.40371">
        <ele>226.5</ele>
        <time>2021-09-05T14:01:38Z</time>
      </trkpt>
      <trkpt lat="44.5201" lon="1.40369">
        <ele>226.6</ele>
        <time>2021-09-05T14:01:39Z</time>
      </trkpt>
      <trkpt lat="44.52013" lon="1.40366">
        <ele>227.1</ele>
        <time>2021-09-05T14:01:40Z</time>
      </trkpt>
      <trkpt lat="44.52013" lon="1.40364">
        <ele>227.2</ele>
        <time>2021-09-05T14:01:42Z</time>
      </trkpt>
      <trkpt lat="44.52013" lon="1.40361">
        <ele>227.6</ele>
        <time>2021-09-05T14:01:44Z</time>
      </trkpt>
      <trkpt lat="44.52014" lon="1.40361">
        <ele>227.6</ele>
        <time>2021-09-05T14:01:46Z</time>
      </trkpt>
      <trkpt lat="44.52015" lon="1.4036">
        <ele>227.6</ele>
        <time>2021-09-05T14:01:47Z</time>
      </trkpt>
      <trkpt lat="44.52016" lon="1.40358">
        <ele>228</ele>
        <time>2021-09-05T14:01:48Z</time>
      </trkpt>
      <trkpt lat="44.52017" lon="1.40356">
        <ele>228.1</ele>
        <time>2021-09-05T14:01:49Z</time>
      </trkpt>
      <trkpt lat="44.52018" lon="1.40355">
        <ele>228.1</ele>
        <time>2021-09-05T14:01:51Z</time>
      </trkpt>
      <trkpt lat="44.52019" lon="1.40353">
        <ele>228.5</ele>
        <time>2021-09-05T14:01:52Z</time>
      </trkpt>
      <trkpt lat="44.5202" lon="1.40351">
        <ele>228.6</ele>
        <time>2021-09-05T14:02:07Z</time>
      </trkpt>
      <trkpt lat="44.52021" lon="1.4035">
        <ele>229</ele>
        <time>2021-09-05T14:02:08Z</time>
      </trkpt>
      <trkpt lat="44.52023" lon="1.40344">
        <ele>229.4</ele>
        <time>2021-09-05T14:02:09Z</time>
      </trkpt>
      <trkpt lat="44.52025" lon="1.40338">
        <ele>229.7</ele>
        <time>2021-09-05T14:02:10Z</time>
      </trkpt>
      <trkpt lat="44.52028" lon="1.40331">
        <ele>230.2</ele>
        <time>2021-09-05T14:02:11Z</time>
      </trkpt>
      <trkpt lat="44.52031" lon="1.40325">
        <ele>230.5</ele>
        <time>2021-09-05T14:02:13Z</time>
      </trkpt>
      <trkpt lat="44.52038" lon="1.40315">
        <ele>231.2</ele>
        <time>2021-09-05T14:02:14Z</time>
      </trkpt>
      <trkpt lat="44.52041" lon="1.40309">
        <ele>231.3</ele>
        <time>2021-09-05T14:02:16Z</time>
      </trkpt>
      <trkpt lat="44.52049" lon="1.403">
        <ele>231.6</ele>
        <time>2021-09-05T14:02:17Z</time>
      </trkpt>
      <trkpt lat="44.52054" lon="1.40295">
        <ele>231.8</ele>
        <time>2021-09-05T14:02:19Z</time>
      </trkpt>
      <trkpt lat="44.52064" lon="1.40284">
        <ele>232</ele>
        <time>2021-09-05T14:02:20Z</time>
      </trkpt>
      <trkpt lat="44.52068" lon="1.40279">
        <ele>232.2</ele>
        <time>2021-09-05T14:02:21Z</time>
      </trkpt>
      <trkpt lat="44.52072" lon="1.40273">
        <ele>232.8</ele>
        <time>2021-09-05T14:02:23Z</time>
      </trkpt>
      <trkpt lat="44.52079" lon="1.40259">
        <ele>233.3</ele>
        <time>2021-09-05T14:02:24Z</time>
      </trkpt>
      <trkpt lat="44.52083" lon="1.40253">
        <ele>233.5</ele>
        <time>2021-09-05T14:02:26Z</time>
      </trkpt>
      <trkpt lat="44.52091" lon="1.40237">
        <ele>233.5</ele>
        <time>2021-09-05T14:02:28Z</time>
      </trkpt>
      <trkpt lat="44.52098" lon="1.4022">
        <ele>233.2</ele>
        <time>2021-09-05T14:02:30Z</time>
      </trkpt>
      <trkpt lat="44.52103" lon="1.40203">
        <ele>233.4</ele>
        <time>2021-09-05T14:02:32Z</time>
      </trkpt>
      <trkpt lat="44.52103" lon="1.40194">
        <ele>233.1</ele>
        <time>2021-09-05T14:02:33Z</time>
      </trkpt>
      <trkpt lat="44.52102" lon="1.40179">
        <ele>232.9</ele>
        <time>2021-09-05T14:02:35Z</time>
      </trkpt>
      <trkpt lat="44.52103" lon="1.40171">
        <ele>232.9</ele>
        <time>2021-09-05T14:02:36Z</time>
      </trkpt>
      <trkpt lat="44.52105" lon="1.40157">
        <ele>232.5</ele>
        <time>2021-09-05T14:02:38Z</time>
      </trkpt>
      <trkpt lat="44.52112" lon="1.40145">
        <ele>231.9</ele>
        <time>2021-09-05T14:02:40Z</time>
      </trkpt>
      <trkpt lat="44.52116" lon="1.4013">
        <ele>230.8</ele>
        <time>2021-09-05T14:02:42Z</time>
      </trkpt>
      <trkpt lat="44.52119" lon="1.40113">
        <ele>230.2</ele>
        <time>2021-09-05T14:02:44Z</time>
      </trkpt>
      <trkpt lat="44.5212" lon="1.40098">
        <ele>229.7</ele>
        <time>2021-09-05T14:02:45Z</time>
      </trkpt>
      <trkpt lat="44.52121" lon="1.40093">
        <ele>229.8</ele>
        <time>2021-09-05T14:02:47Z</time>
      </trkpt>
      <trkpt lat="44.52123" lon="1.40091">
        <ele>229.7</ele>
        <time>2021-09-05T14:02:48Z</time>
      </trkpt>
      <trkpt lat="44.52127" lon="1.40084">
        <ele>229.8</ele>
        <time>2021-09-05T14:02:50Z</time>
      </trkpt>
      <trkpt lat="44.52133" lon="1.40071">
        <ele>229.6</ele>
        <time>2021-09-05T14:02:51Z</time>
      </trkpt>
      <trkpt lat="44.52137" lon="1.40066">
        <ele>229.5</ele>
        <time>2021-09-05T14:02:53Z</time>
      </trkpt>
      <trkpt lat="44.52143" lon="1.40057">
        <ele>229.3</ele>
        <time>2021-09-05T14:02:55Z</time>
      </trkpt>
      <trkpt lat="44.52146" lon="1.40053">
        <ele>229.3</ele>
        <time>2021-09-05T14:02:56Z</time>
      </trkpt>
      <trkpt lat="44.52147" lon="1.40045">
        <ele>229.2</ele>
        <time>2021-09-05T14:02:57Z</time>
      </trkpt>
      <trkpt lat="44.5215" lon="1.40041">
        <ele>229.3</ele>
        <time>2021-09-05T14:02:59Z</time>
      </trkpt>
      <trkpt lat="44.52155" lon="1.40036">
        <ele>229.5</ele>
        <time>2021-09-05T14:03:00Z</time>
      </trkpt>
      <trkpt lat="44.52158" lon="1.40036">
        <ele>229.5</ele>
        <time>2021-09-05T14:03:01Z</time>
      </trkpt>
      <trkpt lat="44.5216" lon="1.40028">
        <ele>229.3</ele>
        <time>2021-09-05T14:03:04Z</time>
      </trkpt>
      <trkpt lat="44.52168" lon="1.40012">
        <ele>228.6</ele>
        <time>2021-09-05T14:03:06Z</time>
      </trkpt>
      <trkpt lat="44.52169" lon="1.40005">
        <ele>228.1</ele>
        <time>2021-09-05T14:03:07Z</time>
      </trkpt>
      <trkpt lat="44.52171" lon="1.4">
        <ele>228</ele>
        <time>2021-09-05T14:03:08Z</time>
      </trkpt>
      <trkpt lat="44.52173" lon="1.39993">
        <ele>227.8</ele>
        <time>2021-09-05T14:03:09Z</time>
      </trkpt>
      <trkpt lat="44.52174" lon="1.39988">
        <ele>227.7</ele>
        <time>2021-09-05T14:03:10Z</time>
      </trkpt>
      <trkpt lat="44.52174" lon="1.39983">
        <ele>227.7</ele>
        <time>2021-09-05T14:03:12Z</time>
      </trkpt>
      <trkpt lat="44.52177" lon="1.39978">
        <ele>227.7</ele>
        <time>2021-09-05T14:03:13Z</time>
      </trkpt>
      <trkpt lat="44.52181" lon="1.39972">
        <ele>227.7</ele>
        <time>2021-09-05T14:03:15Z</time>
      </trkpt>
      <trkpt lat="44.52185" lon="1.39966">
        <ele>228.2</ele>
        <time>2021-09-05T14:03:16Z</time>
      </trkpt>
      <trkpt lat="44.52187" lon="1.3996">
        <ele>228.1</ele>
        <time>2021-09-05T14:03:18Z</time>
      </trkpt>
      <trkpt lat="44.52187" lon="1.39947">
        <ele>228</ele>
        <time>2021-09-05T14:03:20Z</time>
      </trkpt>
      <trkpt lat="44.52188" lon="1.3994">
        <ele>228.1</ele>
        <time>2021-09-05T14:03:21Z</time>
      </trkpt>
      <trkpt lat="44.5219" lon="1.39934">
        <ele>228</ele>
        <time>2021-09-05T14:03:22Z</time>
      </trkpt>
      <trkpt lat="44.52195" lon="1.39928">
        <ele>228.2</ele>
        <time>2021-09-05T14:03:23Z</time>
      </trkpt>
      <trkpt lat="44.52197" lon="1.3992">
        <ele>228</ele>
        <time>2021-09-05T14:03:25Z</time>
      </trkpt>
      <trkpt lat="44.52199" lon="1.39906">
        <ele>227.4</ele>
        <time>2021-09-05T14:03:27Z</time>
      </trkpt>
      <trkpt lat="44.52199" lon="1.39901">
        <ele>227.2</ele>
        <time>2021-09-05T14:03:28Z</time>
      </trkpt>
      <trkpt lat="44.52202" lon="1.39886">
        <ele>225.8</ele>
        <time>2021-09-05T14:03:30Z</time>
      </trkpt>
      <trkpt lat="44.52207" lon="1.39869">
        <ele>223.9</ele>
        <time>2021-09-05T14:03:31Z</time>
      </trkpt>
      <trkpt lat="44.52212" lon="1.39851">
        <ele>221.8</ele>
        <time>2021-09-05T14:03:33Z</time>
      </trkpt>
      <trkpt lat="44.52214" lon="1.39842">
        <ele>220.5</ele>
        <time>2021-09-05T14:03:35Z</time>
      </trkpt>
      <trkpt lat="44.52216" lon="1.39832">
        <ele>219.1</ele>
        <time>2021-09-05T14:03:36Z</time>
      </trkpt>
      <trkpt lat="44.52215" lon="1.39813">
        <ele>216.6</ele>
        <time>2021-09-05T14:03:37Z</time>
      </trkpt>
      <trkpt lat="44.52215" lon="1.39802">
        <ele>215.6</ele>
        <time>2021-09-05T14:03:39Z</time>
      </trkpt>
      <trkpt lat="44.52215" lon="1.39784">
        <ele>213</ele>
        <time>2021-09-05T14:03:41Z</time>
      </trkpt>
      <trkpt lat="44.52217" lon="1.39775">
        <ele>211.9</ele>
        <time>2021-09-05T14:03:42Z</time>
      </trkpt>
      <trkpt lat="44.52219" lon="1.39766">
        <ele>210.8</ele>
        <time>2021-09-05T14:03:43Z</time>
      </trkpt>
      <trkpt lat="44.52221" lon="1.39757">
        <ele>209.8</ele>
        <time>2021-09-05T14:03:44Z</time>
      </trkpt>
      <trkpt lat="44.52222" lon="1.39748">
        <ele>208.6</ele>
        <time>2021-09-05T14:03:45Z</time>
      </trkpt>
      <trkpt lat="44.52217" lon="1.39731">
        <ele>206.5</ele>
        <time>2021-09-05T14:03:47Z</time>
      </trkpt>
      <trkpt lat="44.52216" lon="1.39722">
        <ele>205.4</ele>
        <time>2021-09-05T14:03:48Z</time>
      </trkpt>
      <trkpt lat="44.52216" lon="1.39707">
        <ele>203.7</ele>
        <time>2021-09-05T14:03:50Z</time>
      </trkpt>
      <trkpt lat="44.52216" lon="1.39701">
        <ele>202.6</ele>
        <time>2021-09-05T14:03:51Z</time>
      </trkpt>
      <trkpt lat="44.52216" lon="1.39697">
        <ele>202.1</ele>
        <time>2021-09-05T14:03:52Z</time>
      </trkpt>
      <trkpt lat="44.52212" lon="1.39685">
        <ele>201</ele>
        <time>2021-09-05T14:03:54Z</time>
      </trkpt>
      <trkpt lat="44.5221" lon="1.39672">
        <ele>199</ele>
        <time>2021-09-05T14:03:56Z</time>
      </trkpt>
      <trkpt lat="44.5221" lon="1.39663">
        <ele>197.8</ele>
        <time>2021-09-05T14:03:57Z</time>
      </trkpt>
      <trkpt lat="44.52214" lon="1.39647">
        <ele>196.2</ele>
        <time>2021-09-05T14:03:59Z</time>
      </trkpt>
      <trkpt lat="44.52221" lon="1.39636">
        <ele>195.2</ele>
        <time>2021-09-05T14:04:00Z</time>
      </trkpt>
      <trkpt lat="44.52225" lon="1.39627">
        <ele>194.2</ele>
        <time>2021-09-05T14:04:02Z</time>
      </trkpt>
      <trkpt lat="44.52228" lon="1.3962">
        <ele>193</ele>
        <time>2021-09-05T14:04:04Z</time>
      </trkpt>
      <trkpt lat="44.52232" lon="1.39615">
        <ele>192.3</ele>
        <time>2021-09-05T14:04:05Z</time>
      </trkpt>
      <trkpt lat="44.52236" lon="1.39611">
        <ele>191.7</ele>
        <time>2021-09-05T14:04:06Z</time>
      </trkpt>
      <trkpt lat="44.52238" lon="1.39607">
        <ele>190.9</ele>
        <time>2021-09-05T14:04:08Z</time>
      </trkpt>
      <trkpt lat="44.52238" lon="1.39602">
        <ele>190.3</ele>
        <time>2021-09-05T14:04:09Z</time>
      </trkpt>
      <trkpt lat="44.52238" lon="1.39597">
        <ele>189.6</ele>
        <time>2021-09-05T14:04:10Z</time>
      </trkpt>
      <trkpt lat="44.52238" lon="1.39582">
        <ele>187.2</ele>
        <time>2021-09-05T14:04:12Z</time>
      </trkpt>
      <trkpt lat="44.52237" lon="1.39575">
        <ele>186.5</ele>
        <time>2021-09-05T14:04:13Z</time>
      </trkpt>
      <trkpt lat="44.52237" lon="1.39571">
        <ele>185.8</ele>
        <time>2021-09-05T14:04:14Z</time>
      </trkpt>
      <trkpt lat="44.52239" lon="1.39558">
        <ele>183.9</ele>
        <time>2021-09-05T14:04:16Z</time>
      </trkpt>
      <trkpt lat="44.52238" lon="1.39551">
        <ele>182.6</ele>
        <time>2021-09-05T14:04:17Z</time>
      </trkpt>
      <trkpt lat="44.52237" lon="1.39545">
        <ele>182</ele>
        <time>2021-09-05T14:04:18Z</time>
      </trkpt>
      <trkpt lat="44.52234" lon="1.39537">
        <ele>180.7</ele>
        <time>2021-09-05T14:04:20Z</time>
      </trkpt>
      <trkpt lat="44.52235" lon="1.39528">
        <ele>179.6</ele>
        <time>2021-09-05T14:04:21Z</time>
      </trkpt>
      <trkpt lat="44.52238" lon="1.39527">
        <ele>179.6</ele>
        <time>2021-09-05T14:04:23Z</time>
      </trkpt>
      <trkpt lat="44.52242" lon="1.39528">
        <ele>179.7</ele>
        <time>2021-09-05T14:04:24Z</time>
      </trkpt>
      <trkpt lat="44.52245" lon="1.39528">
        <ele>179.7</ele>
        <time>2021-09-05T14:04:26Z</time>
      </trkpt>
      <trkpt lat="44.52246" lon="1.39529">
        <ele>179.6</ele>
        <time>2021-09-05T14:04:27Z</time>
      </trkpt>
      <trkpt lat="44.52245" lon="1.39528">
        <ele>179.6</ele>
        <time>2021-09-05T14:04:29Z</time>
      </trkpt>
      <trkpt lat="44.52245" lon="1.39528">
        <ele>179.5</ele>
        <time>2021-09-05T14:04:30Z</time>
      </trkpt>
      <trkpt lat="44.52245" lon="1.39528">
        <ele>179.5</ele>
        <time>2021-09-05T14:04:32Z</time>
      </trkpt>
      <trkpt lat="44.52245" lon="1.39528">
        <ele>179.5</ele>
        <time>2021-09-05T14:04:33Z</time>
      </trkpt>
      <trkpt lat="44.52244" lon="1.39528">
        <ele>179.4</ele>
        <time>2021-09-05T14:04:35Z</time>
      </trkpt>
      <trkpt lat="44.52244" lon="1.39528">
        <ele>179.4</ele>
        <time>2021-09-05T14:04:37Z</time>
      </trkpt>
      <trkpt lat="44.52248" lon="1.39521">
        <ele>177.9</ele>
        <time>2021-09-05T14:04:51Z</time>
      </trkpt>
      <trkpt lat="44.52251" lon="1.39518">
        <ele>177.8</ele>
        <time>2021-09-05T14:04:52Z</time>
      </trkpt>
      <trkpt lat="44.5226" lon="1.39511">
        <ele>176.5</ele>
        <time>2021-09-05T14:04:54Z</time>
      </trkpt>
      <trkpt lat="44.5227" lon="1.39504">
        <ele>175</ele>
        <time>2021-09-05T14:04:56Z</time>
      </trkpt>
      <trkpt lat="44.52271" lon="1.39501">
        <ele>174.9</ele>
        <time>2021-09-05T14:04:57Z</time>
      </trkpt>
      <trkpt lat="44.52276" lon="1.39496">
        <ele>173.6</ele>
        <time>2021-09-05T14:04:58Z</time>
      </trkpt>
      <trkpt lat="44.52276" lon="1.39489">
        <ele>172.9</ele>
        <time>2021-09-05T14:04:59Z</time>
      </trkpt>
      <trkpt lat="44.52276" lon="1.39484">
        <ele>172.5</ele>
        <time>2021-09-05T14:05:00Z</time>
      </trkpt>
      <trkpt lat="44.52275" lon="1.39481">
        <ele>172</ele>
        <time>2021-09-05T14:05:01Z</time>
      </trkpt>
      <trkpt lat="44.52273" lon="1.39478">
        <ele>171.4</ele>
        <time>2021-09-05T14:05:03Z</time>
      </trkpt>
      <trkpt lat="44.5227" lon="1.39474">
        <ele>171.1</ele>
        <time>2021-09-05T14:05:04Z</time>
      </trkpt>
      <trkpt lat="44.52268" lon="1.39473">
        <ele>171.1</ele>
        <time>2021-09-05T14:05:05Z</time>
      </trkpt>
      <trkpt lat="44.52266" lon="1.3947">
        <ele>170.6</ele>
        <time>2021-09-05T14:05:06Z</time>
      </trkpt>
      <trkpt lat="44.52264" lon="1.39465">
        <ele>170.2</ele>
        <time>2021-09-05T14:05:07Z</time>
      </trkpt>
      <trkpt lat="44.52261" lon="1.39457">
        <ele>169.1</ele>
        <time>2021-09-05T14:05:09Z</time>
      </trkpt>
      <trkpt lat="44.52257" lon="1.39448">
        <ele>168</ele>
        <time>2021-09-05T14:05:10Z</time>
      </trkpt>
      <trkpt lat="44.52252" lon="1.39441">
        <ele>167.3</ele>
        <time>2021-09-05T14:05:12Z</time>
      </trkpt>
      <trkpt lat="44.52246" lon="1.39437">
        <ele>166.6</ele>
        <time>2021-09-05T14:05:13Z</time>
      </trkpt>
      <trkpt lat="44.52244" lon="1.39434">
        <ele>165.8</ele>
        <time>2021-09-05T14:05:14Z</time>
      </trkpt>
      <trkpt lat="44.52241" lon="1.3943">
        <ele>165.1</ele>
        <time>2021-09-05T14:05:15Z</time>
      </trkpt>
      <trkpt lat="44.52238" lon="1.39428">
        <ele>165</ele>
        <time>2021-09-05T14:05:17Z</time>
      </trkpt>
      <trkpt lat="44.52237" lon="1.39428">
        <ele>164.4</ele>
        <time>2021-09-05T14:05:18Z</time>
      </trkpt>
      <trkpt lat="44.52235" lon="1.39423">
        <ele>164.4</ele>
        <time>2021-09-05T14:05:19Z</time>
      </trkpt>
      <trkpt lat="44.52234" lon="1.39422">
        <ele>163.8</ele>
        <time>2021-09-05T14:05:20Z</time>
      </trkpt>
      <trkpt lat="44.52232" lon="1.39417">
        <ele>163.3</ele>
        <time>2021-09-05T14:05:21Z</time>
      </trkpt>
      <trkpt lat="44.52229" lon="1.3941">
        <ele>162.6</ele>
        <time>2021-09-05T14:05:23Z</time>
      </trkpt>
      <trkpt lat="44.52228" lon="1.39405">
        <ele>162.2</ele>
        <time>2021-09-05T14:05:24Z</time>
      </trkpt>
      <trkpt lat="44.52227" lon="1.39403">
        <ele>162.2</ele>
        <time>2021-09-05T14:05:25Z</time>
      </trkpt>
      <trkpt lat="44.52226" lon="1.39403">
        <ele>162.2</ele>
        <time>2021-09-05T14:05:26Z</time>
      </trkpt>
      <trkpt lat="44.52226" lon="1.39404">
        <ele>162.1</ele>
        <time>2021-09-05T14:05:28Z</time>
      </trkpt>
      <trkpt lat="44.52225" lon="1.39404">
        <ele>162.1</ele>
        <time>2021-09-05T14:05:29Z</time>
      </trkpt>
      <trkpt lat="44.52224" lon="1.39402">
        <ele>161.8</ele>
        <time>2021-09-05T14:05:30Z</time>
      </trkpt>
      <trkpt lat="44.52223" lon="1.394">
        <ele>161.8</ele>
        <time>2021-09-05T14:05:32Z</time>
      </trkpt>
      <trkpt lat="44.52221" lon="1.39398">
        <ele>161.8</ele>
        <time>2021-09-05T14:05:34Z</time>
      </trkpt>
      <trkpt lat="44.5222" lon="1.39396">
        <ele>161.4</ele>
        <time>2021-09-05T14:05:35Z</time>
      </trkpt>
      <trkpt lat="44.52219" lon="1.39394">
        <ele>161.4</ele>
        <time>2021-09-05T14:05:44Z</time>
      </trkpt>
      <trkpt lat="44.52218" lon="1.39392">
        <ele>161</ele>
        <time>2021-09-05T14:05:45Z</time>
      </trkpt>
      <trkpt lat="44.52216" lon="1.3939">
        <ele>160.9</ele>
        <time>2021-09-05T14:05:47Z</time>
      </trkpt>
      <trkpt lat="44.52217" lon="1.39389">
        <ele>160.9</ele>
        <time>2021-09-05T14:05:49Z</time>
      </trkpt>
      <trkpt lat="44.52218" lon="1.39388">
        <ele>160.8</ele>
        <time>2021-09-05T14:05:51Z</time>
      </trkpt>
      <trkpt lat="44.52219" lon="1.39387">
        <ele>160.7</ele>
        <time>2021-09-05T14:05:52Z</time>
      </trkpt>
      <trkpt lat="44.52219" lon="1.39385">
        <ele>160.7</ele>
        <time>2021-09-05T14:05:54Z</time>
      </trkpt>
      <trkpt lat="44.5222" lon="1.39384">
        <ele>160.6</ele>
        <time>2021-09-05T14:05:55Z</time>
      </trkpt>
      <trkpt lat="44.52221" lon="1.39383">
        <ele>160.6</ele>
        <time>2021-09-05T14:11:57Z</time>
      </trkpt>
      <trkpt lat="44.52222" lon="1.39382">
        <ele>160.5</ele>
        <time>2021-09-05T14:11:58Z</time>
      </trkpt>
      <trkpt lat="44.52227" lon="1.39375">
        <ele>160.3</ele>
        <time>2021-09-05T14:11:59Z</time>
      </trkpt>
      <trkpt lat="44.52233" lon="1.39371">
        <ele>160.1</ele>
        <time>2021-09-05T14:12:01Z</time>
      </trkpt>
      <trkpt lat="44.52238" lon="1.39368">
        <ele>159.9</ele>
        <time>2021-09-05T14:12:02Z</time>
      </trkpt>
      <trkpt lat="44.5225" lon="1.39362">
        <ele>159.4</ele>
        <time>2021-09-05T14:12:04Z</time>
      </trkpt>
      <trkpt lat="44.52259" lon="1.39357">
        <ele>159.1</ele>
        <time>2021-09-05T14:12:06Z</time>
      </trkpt>
      <trkpt lat="44.52264" lon="1.39354">
        <ele>158.9</ele>
        <time>2021-09-05T14:12:08Z</time>
      </trkpt>
      <trkpt lat="44.52269" lon="1.39351">
        <ele>158.7</ele>
        <time>2021-09-05T14:12:09Z</time>
      </trkpt>
      <trkpt lat="44.52278" lon="1.39345">
        <ele>158.2</ele>
        <time>2021-09-05T14:12:11Z</time>
      </trkpt>
      <trkpt lat="44.5229" lon="1.3934">
        <ele>157.6</ele>
        <time>2021-09-05T14:12:13Z</time>
      </trkpt>
      <trkpt lat="44.52297" lon="1.39338">
        <ele>157.2</ele>
        <time>2021-09-05T14:12:14Z</time>
      </trkpt>
      <trkpt lat="44.52311" lon="1.39335">
        <ele>156.6</ele>
        <time>2021-09-05T14:12:16Z</time>
      </trkpt>
      <trkpt lat="44.52326" lon="1.39329">
        <ele>156.1</ele>
        <time>2021-09-05T14:12:17Z</time>
      </trkpt>
      <trkpt lat="44.52333" lon="1.39324">
        <ele>155.9</ele>
        <time>2021-09-05T14:12:18Z</time>
      </trkpt>
      <trkpt lat="44.52339" lon="1.39318">
        <ele>155.8</ele>
        <time>2021-09-05T14:12:20Z</time>
      </trkpt>
      <trkpt lat="44.52348" lon="1.39302">
        <ele>155.1</ele>
        <time>2021-09-05T14:12:22Z</time>
      </trkpt>
      <trkpt lat="44.52351" lon="1.39291">
        <ele>154.7</ele>
        <time>2021-09-05T14:12:23Z</time>
      </trkpt>
      <trkpt lat="44.52353" lon="1.39279">
        <ele>154.2</ele>
        <time>2021-09-05T14:12:24Z</time>
      </trkpt>
      <trkpt lat="44.52358" lon="1.3926">
        <ele>153.4</ele>
        <time>2021-09-05T14:12:26Z</time>
      </trkpt>
      <trkpt lat="44.52368" lon="1.39245">
        <ele>152.7</ele>
        <time>2021-09-05T14:12:27Z</time>
      </trkpt>
      <trkpt lat="44.52383" lon="1.39237">
        <ele>152.1</ele>
        <time>2021-09-05T14:12:29Z</time>
      </trkpt>
      <trkpt lat="44.52396" lon="1.39235">
        <ele>151.6</ele>
        <time>2021-09-05T14:12:32Z</time>
      </trkpt>
      <trkpt lat="44.524" lon="1.39234">
        <ele>151.5</ele>
        <time>2021-09-05T14:12:33Z</time>
      </trkpt>
      <trkpt lat="44.52403" lon="1.39232">
        <ele>151.4</ele>
        <time>2021-09-05T14:12:35Z</time>
      </trkpt>
      <trkpt lat="44.52405" lon="1.3923">
        <ele>151.3</ele>
        <time>2021-09-05T14:12:36Z</time>
      </trkpt>
      <trkpt lat="44.52409" lon="1.39227">
        <ele>151.2</ele>
        <time>2021-09-05T14:12:38Z</time>
      </trkpt>
      <trkpt lat="44.52415" lon="1.39225">
        <ele>151.1</ele>
        <time>2021-09-05T14:12:40Z</time>
      </trkpt>
      <trkpt lat="44.52416" lon="1.39223">
        <ele>151.1</ele>
        <time>2021-09-05T14:12:41Z</time>
      </trkpt>
      <trkpt lat="44.52417" lon="1.39221">
        <ele>151.1</ele>
        <time>2021-09-05T14:12:42Z</time>
      </trkpt>
      <trkpt lat="44.52424" lon="1.39222">
        <ele>151</ele>
        <time>2021-09-05T14:12:43Z</time>
      </trkpt>
      <trkpt lat="44.52428" lon="1.3922">
        <ele>151</ele>
        <time>2021-09-05T14:12:44Z</time>
      </trkpt>
      <trkpt lat="44.52433" lon="1.39217">
        <ele>151</ele>
        <time>2021-09-05T14:12:46Z</time>
      </trkpt>
      <trkpt lat="44.5244" lon="1.39214">
        <ele>151</ele>
        <time>2021-09-05T14:12:47Z</time>
      </trkpt>
      <trkpt lat="44.52444" lon="1.39212">
        <ele>151</ele>
        <time>2021-09-05T14:12:48Z</time>
      </trkpt>
      <trkpt lat="44.5245" lon="1.39209">
        <ele>151</ele>
        <time>2021-09-05T14:12:50Z</time>
      </trkpt>
      <trkpt lat="44.52459" lon="1.39205">
        <ele>151.1</ele>
        <time>2021-09-05T14:12:51Z</time>
      </trkpt>
      <trkpt lat="44.52463" lon="1.39202">
        <ele>151.1</ele>
        <time>2021-09-05T14:12:53Z</time>
      </trkpt>
      <trkpt lat="44.52466" lon="1.39197">
        <ele>151.2</ele>
        <time>2021-09-05T14:12:54Z</time>
      </trkpt>
      <trkpt lat="44.52471" lon="1.39191">
        <ele>151.3</ele>
        <time>2021-09-05T14:12:56Z</time>
      </trkpt>
      <trkpt lat="44.52474" lon="1.39185">
        <ele>151.4</ele>
        <time>2021-09-05T14:12:57Z</time>
      </trkpt>
      <trkpt lat="44.52476" lon="1.39182">
        <ele>151.5</ele>
        <time>2021-09-05T14:12:59Z</time>
      </trkpt>
      <trkpt lat="44.52479" lon="1.39183">
        <ele>151.5</ele>
        <time>2021-09-05T14:13:00Z</time>
      </trkpt>
      <trkpt lat="44.52482" lon="1.39184">
        <ele>151.6</ele>
        <time>2021-09-05T14:13:01Z</time>
      </trkpt>
      <trkpt lat="44.52486" lon="1.39184">
        <ele>151.7</ele>
        <time>2021-09-05T14:13:03Z</time>
      </trkpt>
      <trkpt lat="44.52489" lon="1.39184">
        <ele>151.7</ele>
        <time>2021-09-05T14:13:04Z</time>
      </trkpt>
      <trkpt lat="44.5249" lon="1.39184">
        <ele>151.7</ele>
        <time>2021-09-05T14:13:05Z</time>
      </trkpt>
      <trkpt lat="44.52491" lon="1.39186">
        <ele>151.8</ele>
        <time>2021-09-05T14:13:07Z</time>
      </trkpt>
      <trkpt lat="44.52493" lon="1.39187">
        <ele>151.8</ele>
        <time>2021-09-05T14:13:08Z</time>
      </trkpt>
      <trkpt lat="44.52494" lon="1.39189">
        <ele>151.9</ele>
        <time>2021-09-05T14:13:09Z</time>
      </trkpt>
      <trkpt lat="44.52498" lon="1.3919">
        <ele>151.9</ele>
        <time>2021-09-05T14:13:11Z</time>
      </trkpt>
      <trkpt lat="44.52502" lon="1.39189">
        <ele>151.9</ele>
        <time>2021-09-05T14:13:13Z</time>
      </trkpt>
      <trkpt lat="44.52505" lon="1.39188">
        <ele>152</ele>
        <time>2021-09-05T14:13:15Z</time>
      </trkpt>
      <trkpt lat="44.52506" lon="1.39188">
        <ele>152</ele>
        <time>2021-09-05T14:13:16Z</time>
      </trkpt>
      <trkpt lat="44.52509" lon="1.39188">
        <ele>152</ele>
        <time>2021-09-05T14:13:17Z</time>
      </trkpt>
      <trkpt lat="44.52513" lon="1.39191">
        <ele>152</ele>
        <time>2021-09-05T14:13:19Z</time>
      </trkpt>
      <trkpt lat="44.52518" lon="1.39193">
        <ele>152</ele>
        <time>2021-09-05T14:13:21Z</time>
      </trkpt>
      <trkpt lat="44.52523" lon="1.39191">
        <ele>156</ele>
        <time>2021-09-05T14:13:22Z</time>
      </trkpt>
      <trkpt lat="44.52525" lon="1.3919">
        <ele>155.9</ele>
        <time>2021-09-05T14:13:23Z</time>
      </trkpt>
      <trkpt lat="44.52525" lon="1.39191">
        <ele>155.8</ele>
        <time>2021-09-05T14:13:26Z</time>
      </trkpt>
      <trkpt lat="44.52524" lon="1.39192">
        <ele>155.8</ele>
        <time>2021-09-05T14:13:28Z</time>
      </trkpt>
      <trkpt lat="44.52524" lon="1.39192">
        <ele>155.8</ele>
        <time>2021-09-05T14:13:29Z</time>
      </trkpt>
      <trkpt lat="44.52524" lon="1.39192">
        <ele>155.8</ele>
        <time>2021-09-05T14:13:30Z</time>
      </trkpt>
      <trkpt lat="44.52524" lon="1.39192">
        <ele>155.8</ele>
        <time>2021-09-05T14:13:32Z</time>
      </trkpt>
      <trkpt lat="44.52524" lon="1.39192">
        <ele>155.8</ele>
        <time>2021-09-05T14:13:33Z</time>
      </trkpt>
      <trkpt lat="44.52524" lon="1.39192">
        <ele>155.8</ele>
        <time>2021-09-05T14:13:34Z</time>
      </trkpt>
      <trkpt lat="44.5253" lon="1.39195">
        <ele>155.3</ele>
        <time>2021-09-05T14:17:28Z</time>
      </trkpt>
      <trkpt lat="44.5253" lon="1.39192">
        <ele>155.2</ele>
        <time>2021-09-05T14:17:29Z</time>
      </trkpt>
      <trkpt lat="44.52528" lon="1.3919">
        <ele>155</ele>
        <time>2021-09-05T14:17:31Z</time>
      </trkpt>
      <trkpt lat="44.52527" lon="1.39191">
        <ele>154.9</ele>
        <time>2021-09-05T14:17:33Z</time>
      </trkpt>
      <trkpt lat="44.52526" lon="1.39191">
        <ele>154.8</ele>
        <time>2021-09-05T14:17:35Z</time>
      </trkpt>
      <trkpt lat="44.52525" lon="1.39192">
        <ele>154.7</ele>
        <time>2021-09-05T14:17:36Z</time>
      </trkpt>
      <trkpt lat="44.52524" lon="1.39192">
        <ele>154.7</ele>
        <time>2021-09-05T14:17:38Z</time>
      </trkpt>
      <trkpt lat="44.52523" lon="1.39193">
        <ele>154.6</ele>
        <time>2021-09-05T14:17:39Z</time>
      </trkpt>
      <trkpt lat="44.52522" lon="1.39193">
        <ele>154.5</ele>
        <time>2021-09-05T14:17:40Z</time>
      </trkpt>
      <trkpt lat="44.52521" lon="1.39194">
        <ele>154.5</ele>
        <time>2021-09-05T14:17:41Z</time>
      </trkpt>
      <trkpt lat="44.52521" lon="1.39194">
        <ele>154.4</ele>
        <time>2021-09-05T14:17:43Z</time>
      </trkpt>
      <trkpt lat="44.5252" lon="1.39195">
        <ele>154.3</ele>
        <time>2021-09-05T14:17:44Z</time>
      </trkpt>
      <trkpt lat="44.52519" lon="1.39195">
        <ele>154.3</ele>
        <time>2021-09-05T14:17:45Z</time>
      </trkpt>
      <trkpt lat="44.52517" lon="1.39199">
        <ele>154.1</ele>
        <time>2021-09-05T14:17:46Z</time>
      </trkpt>
      <trkpt lat="44.52517" lon="1.39205">
        <ele>153.8</ele>
        <time>2021-09-05T14:17:48Z</time>
      </trkpt>
      <trkpt lat="44.52517" lon="1.39207">
        <ele>153.7</ele>
        <time>2021-09-05T14:17:49Z</time>
      </trkpt>
      <trkpt lat="44.52517" lon="1.39209">
        <ele>153.6</ele>
        <time>2021-09-05T14:17:50Z</time>
      </trkpt>
      <trkpt lat="44.52519" lon="1.3921">
        <ele>153.4</ele>
        <time>2021-09-05T14:17:51Z</time>
      </trkpt>
      <trkpt lat="44.52521" lon="1.39209">
        <ele>153.3</ele>
        <time>2021-09-05T14:17:52Z</time>
      </trkpt>
      <trkpt lat="44.52523" lon="1.39204">
        <ele>153</ele>
        <time>2021-09-05T14:17:54Z</time>
      </trkpt>
      <trkpt lat="44.52522" lon="1.39202">
        <ele>152.9</ele>
        <time>2021-09-05T14:17:55Z</time>
      </trkpt>
      <trkpt lat="44.52522" lon="1.39201">
        <ele>152.8</ele>
        <time>2021-09-05T14:17:56Z</time>
      </trkpt>
      <trkpt lat="44.52522" lon="1.39201">
        <ele>152.8</ele>
        <time>2021-09-05T14:17:58Z</time>
      </trkpt>
      <trkpt lat="44.52522" lon="1.39201">
        <ele>152.8</ele>
        <time>2021-09-05T14:18:00Z</time>
      </trkpt>
      <trkpt lat="44.52521" lon="1.39201">
        <ele>152.8</ele>
        <time>2021-09-05T14:18:01Z</time>
      </trkpt>
      <trkpt lat="44.52522" lon="1.39201">
        <ele>152.8</ele>
        <time>2021-09-05T14:18:03Z</time>
      </trkpt>
      <trkpt lat="44.52522" lon="1.39201">
        <ele>152.8</ele>
        <time>2021-09-05T14:18:04Z</time>
      </trkpt>
      <trkpt lat="44.52522" lon="1.39201">
        <ele>152.8</ele>
        <time>2021-09-05T14:18:06Z</time>
      </trkpt>
      <trkpt lat="44.52519" lon="1.39198">
        <ele>152.6</ele>
        <time>2021-09-05T14:18:19Z</time>
      </trkpt>
      <trkpt lat="44.52519" lon="1.39198">
        <ele>152.5</ele>
        <time>2021-09-05T14:18:20Z</time>
      </trkpt>
      <trkpt lat="44.52518" lon="1.39197">
        <ele>152.4</ele>
        <time>2021-09-05T14:18:22Z</time>
      </trkpt>
      <trkpt lat="44.52517" lon="1.39197">
        <ele>152.4</ele>
        <time>2021-09-05T14:18:23Z</time>
      </trkpt>
      <trkpt lat="44.52517" lon="1.39197">
        <ele>152.4</ele>
        <time>2021-09-05T14:18:25Z</time>
      </trkpt>
      <trkpt lat="44.52516" lon="1.39196">
        <ele>152.3</ele>
        <time>2021-09-05T14:18:27Z</time>
      </trkpt>
      <trkpt lat="44.52516" lon="1.39196">
        <ele>152.3</ele>
        <time>2021-09-05T14:18:28Z</time>
      </trkpt>
      <trkpt lat="44.52516" lon="1.39196">
        <ele>152.3</ele>
        <time>2021-09-05T14:18:30Z</time>
      </trkpt>
      <trkpt lat="44.52516" lon="1.39196">
        <ele>152.3</ele>
        <time>2021-09-05T14:18:32Z</time>
      </trkpt>
      <trkpt lat="44.52516" lon="1.39196">
        <ele>152.3</ele>
        <time>2021-09-05T14:18:34Z</time>
      </trkpt>
      <trkpt lat="44.52516" lon="1.39196">
        <ele>152.3</ele>
        <time>2021-09-05T14:18:36Z</time>
      </trkpt>
      <trkpt lat="44.52516" lon="1.39196">
        <ele>152.3</ele>
        <time>2021-09-05T14:18:37Z</time>
      </trkpt>
      <trkpt lat="44.52516" lon="1.39196">
        <ele>152.3</ele>
        <time>2021-09-05T14:18:39Z</time>
      </trkpt>
      <trkpt lat="44.52516" lon="1.39196">
        <ele>152.3</ele>
        <time>2021-09-05T14:18:41Z</time>
      </trkpt>
      <trkpt lat="44.52516" lon="1.39196">
        <ele>152.3</ele>
        <time>2021-09-05T14:18:43Z</time>
      </trkpt>
      <trkpt lat="44.52516" lon="1.39196">
        <ele>152.3</ele>
        <time>2021-09-05T14:18:44Z</time>
      </trkpt>
      <trkpt lat="44.52516" lon="1.39196">
        <ele>152.3</ele>
        <time>2021-09-05T14:18:45Z</time>
      </trkpt>
      <trkpt lat="44.52516" lon="1.39196">
        <ele>152.3</ele>
        <time>2021-09-05T14:18:47Z</time>
      </trkpt>
      <trkpt lat="44.52516" lon="1.39196">
        <ele>152.2</ele>
        <time>2021-09-05T14:18:50Z</time>
      </trkpt>
      <trkpt lat="44.52516" lon="1.39196">
        <ele>152.2</ele>
        <time>2021-09-05T14:18:52Z</time>
      </trkpt>
      <trkpt lat="44.52516" lon="1.39196">
        <ele>152.2</ele>
        <time>2021-09-05T14:18:54Z</time>
      </trkpt>
      <trkpt lat="44.52516" lon="1.39196">
        <ele>152.2</ele>
        <time>2021-09-05T14:18:56Z</time>
      </trkpt>
      <trkpt lat="44.52516" lon="1.39196">
        <ele>152.2</ele>
        <time>2021-09-05T14:18:59Z</time>
      </trkpt>
      <trkpt lat="44.52516" lon="1.39196">
        <ele>152.2</ele>
        <time>2021-09-05T14:19:00Z</time>
      </trkpt>
      <trkpt lat="44.52516" lon="1.39196">
        <ele>152.2</ele>
        <time>2021-09-05T14:19:02Z</time>
      </trkpt>
      <trkpt lat="44.52516" lon="1.39196">
        <ele>152.2</ele>
        <time>2021-09-05T14:19:04Z</time>
      </trkpt>
      <trkpt lat="44.52516" lon="1.39196">
        <ele>152.2</ele>
        <time>2021-09-05T14:19:05Z</time>
      </trkpt>
      <trkpt lat="44.52516" lon="1.39196">
        <ele>152.2</ele>
        <time>2021-09-05T14:19:07Z</time>
      </trkpt>
      <trkpt lat="44.52516" lon="1.39196">
        <ele>152.2</ele>
        <time>2021-09-05T14:19:09Z</time>
      </trkpt>
      <trkpt lat="44.52516" lon="1.39196">
        <ele>152.2</ele>
        <time>2021-09-05T14:19:11Z</time>
      </trkpt>
      <trkpt lat="44.52516" lon="1.39196">
        <ele>152.2</ele>
        <time>2021-09-05T14:19:12Z</time>
      </trkpt>
      <trkpt lat="44.52516" lon="1.39196">
        <ele>152.2</ele>
        <time>2021-09-05T14:19:14Z</time>
      </trkpt>
      <trkpt lat="44.52516" lon="1.39196">
        <ele>152.2</ele>
        <time>2021-09-05T14:19:16Z</time>
      </trkpt>
      <trkpt lat="44.52516" lon="1.39196">
        <ele>152.2</ele>
        <time>2021-09-05T14:19:17Z</time>
      </trkpt>
      <trkpt lat="44.52516" lon="1.39196">
        <ele>152.2</ele>
        <time>2021-09-05T14:19:19Z</time>
      </trkpt>
      <trkpt lat="44.52516" lon="1.39196">
        <ele>152.2</ele>
        <time>2021-09-05T14:19:20Z</time>
      </trkpt>
      <trkpt lat="44.52516" lon="1.39196">
        <ele>152.2</ele>
        <time>2021-09-05T14:19:22Z</time>
      </trkpt>
      <trkpt lat="44.52516" lon="1.39196">
        <ele>152.2</ele>
        <time>2021-09-05T14:19:24Z</time>
      </trkpt>
      <trkpt lat="44.52516" lon="1.39196">
        <ele>152.2</ele>
        <time>2021-09-05T14:19:25Z</time>
      </trkpt>
      <trkpt lat="44.52516" lon="1.39196">
        <ele>152.2</ele>
        <time>2021-09-05T14:19:26Z</time>
      </trkpt>
      <trkpt lat="44.52516" lon="1.39196">
        <ele>152.2</ele>
        <time>2021-09-05T14:19:27Z</time>
      </trkpt>
      <trkpt lat="44.52516" lon="1.39196">
        <ele>152.2</ele>
        <time>2021-09-05T14:19:28Z</time>
      </trkpt>
      <trkpt lat="44.52516" lon="1.39196">
        <ele>152.2</ele>
        <time>2021-09-05T14:19:30Z</time>
      </trkpt>
      <trkpt lat="44.52516" lon="1.39196">
        <ele>152.2</ele>
        <time>2021-09-05T14:19:31Z</time>
      </trkpt>
      <trkpt lat="44.52516" lon="1.39196">
        <ele>152.2</ele>
        <time>2021-09-05T14:19:34Z</time>
      </trkpt>
      <trkpt lat="44.52516" lon="1.39195">
        <ele>152.2</ele>
        <time>2021-09-05T14:19:35Z</time>
      </trkpt>
      <trkpt lat="44.52516" lon="1.39196">
        <ele>152.2</ele>
        <time>2021-09-05T14:19:37Z</time>
      </trkpt>
      <trkpt lat="44.52516" lon="1.39196">
        <ele>152.2</ele>
        <time>2021-09-05T14:19:39Z</time>
      </trkpt>
      <trkpt lat="44.52516" lon="1.39196">
        <ele>152.2</ele>
        <time>2021-09-05T14:19:40Z</time>
      </trkpt>
      <trkpt lat="44.52516" lon="1.39196">
        <ele>152.2</ele>
        <time>2021-09-05T14:19:41Z</time>
      </trkpt>
      <trkpt lat="44.52516" lon="1.39196">
        <ele>152.2</ele>
        <time>2021-09-05T14:19:42Z</time>
      </trkpt>
      <trkpt lat="44.52516" lon="1.39196">
        <ele>152.2</ele>
        <time>2021-09-05T14:19:44Z</time>
      </trkpt>
      <trkpt lat="44.52516" lon="1.39196">
        <ele>152.2</ele>
        <time>2021-09-05T14:19:45Z</time>
      </trkpt>
      <trkpt lat="44.52516" lon="1.39196">
        <ele>152.2</ele>
        <time>2021-09-05T14:19:47Z</time>
      </trkpt>
      <trkpt lat="44.52516" lon="1.39196">
        <ele>152.2</ele>
        <time>2021-09-05T14:19:48Z</time>
      </trkpt>
      <trkpt lat="44.52516" lon="1.39196">
        <ele>152.2</ele>
        <time>2021-09-05T14:19:50Z</time>
      </trkpt>
      <trkpt lat="44.52516" lon="1.39196">
        <ele>152.2</ele>
        <time>2021-09-05T14:19:51Z</time>
      </trkpt>
      <trkpt lat="44.52516" lon="1.39196">
        <ele>152.2</ele>
        <time>2021-09-05T14:19:52Z</time>
      </trkpt>
      <trkpt lat="44.52516" lon="1.39196">
        <ele>152.2</ele>
        <time>2021-09-05T14:19:54Z</time>
      </trkpt>
      <trkpt lat="44.52516" lon="1.39196">
        <ele>152.2</ele>
        <time>2021-09-05T14:19:55Z</time>
      </trkpt>
      <trkpt lat="44.52516" lon="1.39196">
        <ele>152.2</ele>
        <time>2021-09-05T14:19:56Z</time>
      </trkpt>
      <trkpt lat="44.52516" lon="1.39195">
        <ele>152.2</ele>
        <time>2021-09-05T14:19:58Z</time>
      </trkpt>
      <trkpt lat="44.52519" lon="1.39193">
        <ele>152.1</ele>
        <time>2021-09-05T14:19:59Z</time>
      </trkpt>
      <trkpt lat="44.52521" lon="1.39192">
        <ele>152</ele>
        <time>2021-09-05T14:20:02Z</time>
      </trkpt>
      <trkpt lat="44.52522" lon="1.39191">
        <ele>152</ele>
        <time>2021-09-05T14:20:04Z</time>
      </trkpt>
      <trkpt lat="44.52522" lon="1.39191">
        <ele>152</ele>
        <time>2021-09-05T14:20:05Z</time>
      </trkpt>
      <trkpt lat="44.52523" lon="1.3919">
        <ele>152</ele>
        <time>2021-09-05T14:20:07Z</time>
      </trkpt>
      <trkpt lat="44.52523" lon="1.39189">
        <ele>152</ele>
        <time>2021-09-05T14:20:08Z</time>
      </trkpt>
      <trkpt lat="44.52524" lon="1.39189">
        <ele>152</ele>
        <time>2021-09-05T14:21:07Z</time>
      </trkpt>
      <trkpt lat="44.52524" lon="1.39188">
        <ele>152</ele>
        <time>2021-09-05T14:21:08Z</time>
      </trkpt>
      <trkpt lat="44.52527" lon="1.39191">
        <ele>152</ele>
        <time>2021-09-05T14:21:10Z</time>
      </trkpt>
      <trkpt lat="44.52527" lon="1.39192">
        <ele>152</ele>
        <time>2021-09-05T14:21:12Z</time>
      </trkpt>
      <trkpt lat="44.52527" lon="1.39192">
        <ele>152</ele>
        <time>2021-09-05T14:21:14Z</time>
      </trkpt>
      <trkpt lat="44.52527" lon="1.39192">
        <ele>152</ele>
        <time>2021-09-05T14:21:15Z</time>
      </trkpt>
      <trkpt lat="44.52527" lon="1.39193">
        <ele>152</ele>
        <time>2021-09-05T14:21:17Z</time>
      </trkpt>
      <trkpt lat="44.52527" lon="1.39193">
        <ele>152</ele>
        <time>2021-09-05T14:21:19Z</time>
      </trkpt>
      <trkpt lat="44.52527" lon="1.39193">
        <ele>152</ele>
        <time>2021-09-05T14:21:20Z</time>
      </trkpt>
      <trkpt lat="44.52527" lon="1.39193">
        <ele>152</ele>
        <time>2021-09-05T14:21:21Z</time>
      </trkpt>
      <trkpt lat="44.52523" lon="1.3919">
        <ele>152</ele>
        <time>2021-09-05T14:22:29Z</time>
      </trkpt>
      <trkpt lat="44.52518" lon="1.39188">
        <ele>152</ele>
        <time>2021-09-05T14:22:32Z</time>
      </trkpt>
      <trkpt lat="44.52515" lon="1.39189">
        <ele>152</ele>
        <time>2021-09-05T14:22:33Z</time>
      </trkpt>
      <trkpt lat="44.52513" lon="1.39189">
        <ele>152</ele>
        <time>2021-09-05T14:22:35Z</time>
      </trkpt>
      <trkpt lat="44.52512" lon="1.39189">
        <ele>152</ele>
        <time>2021-09-05T14:22:36Z</time>
      </trkpt>
      <trkpt lat="44.5251" lon="1.3919">
        <ele>152</ele>
        <time>2021-09-05T14:22:37Z</time>
      </trkpt>
      <trkpt lat="44.52507" lon="1.39191">
        <ele>152</ele>
        <time>2021-09-05T14:22:38Z</time>
      </trkpt>
      <trkpt lat="44.52505" lon="1.39191">
        <ele>152</ele>
        <time>2021-09-05T14:22:39Z</time>
      </trkpt>
      <trkpt lat="44.52501" lon="1.39192">
        <ele>151.9</ele>
        <time>2021-09-05T14:22:41Z</time>
      </trkpt>
      <trkpt lat="44.52498" lon="1.39193">
        <ele>151.9</ele>
        <time>2021-09-05T14:22:42Z</time>
      </trkpt>
      <trkpt lat="44.52495" lon="1.39194">
        <ele>151.9</ele>
        <time>2021-09-05T14:22:43Z</time>
      </trkpt>
      <trkpt lat="44.52491" lon="1.39195">
        <ele>151.8</ele>
        <time>2021-09-05T14:22:44Z</time>
      </trkpt>
      <trkpt lat="44.52483" lon="1.39198">
        <ele>151.6</ele>
        <time>2021-09-05T14:22:46Z</time>
      </trkpt>
      <trkpt lat="44.5248" lon="1.392">
        <ele>151.5</ele>
        <time>2021-09-05T14:22:47Z</time>
      </trkpt>
      <trkpt lat="44.52473" lon="1.39202">
        <ele>151.4</ele>
        <time>2021-09-05T14:22:49Z</time>
      </trkpt>
      <trkpt lat="44.52465" lon="1.39204">
        <ele>151.2</ele>
        <time>2021-09-05T14:22:51Z</time>
      </trkpt>
      <trkpt lat="44.52462" lon="1.39205">
        <ele>151.2</ele>
        <time>2021-09-05T14:22:52Z</time>
      </trkpt>
      <trkpt lat="44.52459" lon="1.39204">
        <ele>151.1</ele>
        <time>2021-09-05T14:22:53Z</time>
      </trkpt>
      <trkpt lat="44.52455" lon="1.39204">
        <ele>151.1</ele>
        <time>2021-09-05T14:22:54Z</time>
      </trkpt>
      <trkpt lat="44.52453" lon="1.39205">
        <ele>151</ele>
        <time>2021-09-05T14:22:55Z</time>
      </trkpt>
      <trkpt lat="44.52449" lon="1.39206">
        <ele>151</ele>
        <time>2021-09-05T14:22:57Z</time>
      </trkpt>
      <trkpt lat="44.5244" lon="1.39209">
        <ele>151</ele>
        <time>2021-09-05T14:22:59Z</time>
      </trkpt>
      <trkpt lat="44.52435" lon="1.39212">
        <ele>151</ele>
        <time>2021-09-05T14:23:00Z</time>
      </trkpt>
      <trkpt lat="44.52433" lon="1.39214">
        <ele>151</ele>
        <time>2021-09-05T14:23:01Z</time>
      </trkpt>
      <trkpt lat="44.52431" lon="1.39214">
        <ele>151</ele>
        <time>2021-09-05T14:23:03Z</time>
      </trkpt>
      <trkpt lat="44.52427" lon="1.39216">
        <ele>151</ele>
        <time>2021-09-05T14:23:04Z</time>
      </trkpt>
      <trkpt lat="44.52424" lon="1.39218">
        <ele>151</ele>
        <time>2021-09-05T14:23:05Z</time>
      </trkpt>
      <trkpt lat="44.52421" lon="1.3922">
        <ele>151</ele>
        <time>2021-09-05T14:23:07Z</time>
      </trkpt>
      <trkpt lat="44.52419" lon="1.3922">
        <ele>151</ele>
        <time>2021-09-05T14:23:08Z</time>
      </trkpt>
      <trkpt lat="44.52417" lon="1.3922">
        <ele>151.1</ele>
        <time>2021-09-05T14:23:09Z</time>
      </trkpt>
      <trkpt lat="44.52415" lon="1.3922">
        <ele>151.1</ele>
        <time>2021-09-05T14:23:10Z</time>
      </trkpt>
      <trkpt lat="44.52413" lon="1.39217">
        <ele>151.1</ele>
        <time>2021-09-05T14:23:12Z</time>
      </trkpt>
      <trkpt lat="44.52412" lon="1.39216">
        <ele>151.1</ele>
        <time>2021-09-05T14:23:13Z</time>
      </trkpt>
      <trkpt lat="44.52408" lon="1.39211">
        <ele>151.1</ele>
        <time>2021-09-05T14:23:14Z</time>
      </trkpt>
      <trkpt lat="44.52408" lon="1.39204">
        <ele>151</ele>
        <time>2021-09-05T14:23:16Z</time>
      </trkpt>
      <trkpt lat="44.52405" lon="1.39194">
        <ele>150.9</ele>
        <time>2021-09-05T14:23:18Z</time>
      </trkpt>
      <trkpt lat="44.52405" lon="1.39186">
        <ele>150.8</ele>
        <time>2021-09-05T14:23:20Z</time>
      </trkpt>
      <trkpt lat="44.52405" lon="1.3918">
        <ele>150.7</ele>
        <time>2021-09-05T14:23:21Z</time>
      </trkpt>
      <trkpt lat="44.52405" lon="1.39174">
        <ele>150.7</ele>
        <time>2021-09-05T14:23:22Z</time>
      </trkpt>
      <trkpt lat="44.52404" lon="1.39167">
        <ele>150.6</ele>
        <time>2021-09-05T14:23:24Z</time>
      </trkpt>
      <trkpt lat="44.52403" lon="1.39158">
        <ele>150.4</ele>
        <time>2021-09-05T14:23:25Z</time>
      </trkpt>
      <trkpt lat="44.52402" lon="1.39153">
        <ele>150.3</ele>
        <time>2021-09-05T14:23:26Z</time>
      </trkpt>
      <trkpt lat="44.52402" lon="1.39147">
        <ele>150.3</ele>
        <time>2021-09-05T14:23:28Z</time>
      </trkpt>
      <trkpt lat="44.524" lon="1.39139">
        <ele>150.1</ele>
        <time>2021-09-05T14:23:29Z</time>
      </trkpt>
      <trkpt lat="44.52399" lon="1.39131">
        <ele>150</ele>
        <time>2021-09-05T14:23:30Z</time>
      </trkpt>
      <trkpt lat="44.52397" lon="1.39124">
        <ele>149.9</ele>
        <time>2021-09-05T14:23:32Z</time>
      </trkpt>
      <trkpt lat="44.52396" lon="1.39119">
        <ele>149.8</ele>
        <time>2021-09-05T14:23:33Z</time>
      </trkpt>
      <trkpt lat="44.52395" lon="1.39114">
        <ele>149.7</ele>
        <time>2021-09-05T14:23:34Z</time>
      </trkpt>
      <trkpt lat="44.52392" lon="1.39104">
        <ele>149.6</ele>
        <time>2021-09-05T14:23:37Z</time>
      </trkpt>
      <trkpt lat="44.52391" lon="1.39099">
        <ele>149.5</ele>
        <time>2021-09-05T14:23:38Z</time>
      </trkpt>
      <trkpt lat="44.52388" lon="1.39091">
        <ele>149.4</ele>
        <time>2021-09-05T14:23:40Z</time>
      </trkpt>
      <trkpt lat="44.52387" lon="1.39083">
        <ele>149.3</ele>
        <time>2021-09-05T14:23:41Z</time>
      </trkpt>
      <trkpt lat="44.52386" lon="1.39076">
        <ele>149.2</ele>
        <time>2021-09-05T14:23:43Z</time>
      </trkpt>
      <trkpt lat="44.52384" lon="1.3907">
        <ele>149.1</ele>
        <time>2021-09-05T14:23:44Z</time>
      </trkpt>
      <trkpt lat="44.52383" lon="1.39065">
        <ele>149.1</ele>
        <time>2021-09-05T14:23:45Z</time>
      </trkpt>
      <trkpt lat="44.52381" lon="1.39058">
        <ele>149</ele>
        <time>2021-09-05T14:23:46Z</time>
      </trkpt>
      <trkpt lat="44.5238" lon="1.39052">
        <ele>148.9</ele>
        <time>2021-09-05T14:23:47Z</time>
      </trkpt>
      <trkpt lat="44.52378" lon="1.39043">
        <ele>148.8</ele>
        <time>2021-09-05T14:23:49Z</time>
      </trkpt>
      <trkpt lat="44.52374" lon="1.39033">
        <ele>148.7</ele>
        <time>2021-09-05T14:23:50Z</time>
      </trkpt>
      <trkpt lat="44.52373" lon="1.39028">
        <ele>148.7</ele>
        <time>2021-09-05T14:23:51Z</time>
      </trkpt>
      <trkpt lat="44.52372" lon="1.39022">
        <ele>148.6</ele>
        <time>2021-09-05T14:23:53Z</time>
      </trkpt>
      <trkpt lat="44.5237" lon="1.39012">
        <ele>148.6</ele>
        <time>2021-09-05T14:23:54Z</time>
      </trkpt>
      <trkpt lat="44.52367" lon="1.39002">
        <ele>148.5</ele>
        <time>2021-09-05T14:23:56Z</time>
      </trkpt>
      <trkpt lat="44.52365" lon="1.3899">
        <ele>148.4</ele>
        <time>2021-09-05T14:23:58Z</time>
      </trkpt>
      <trkpt lat="44.52363" lon="1.38984">
        <ele>148.4</ele>
        <time>2021-09-05T14:23:59Z</time>
      </trkpt>
      <trkpt lat="44.52361" lon="1.38971">
        <ele>148.3</ele>
        <time>2021-09-05T14:24:00Z</time>
      </trkpt>
      <trkpt lat="44.52359" lon="1.38964">
        <ele>148.3</ele>
        <time>2021-09-05T14:24:02Z</time>
      </trkpt>
      <trkpt lat="44.52357" lon="1.38957">
        <ele>148.3</ele>
        <time>2021-09-05T14:24:03Z</time>
      </trkpt>
      <trkpt lat="44.52354" lon="1.38944">
        <ele>148.3</ele>
        <time>2021-09-05T14:24:05Z</time>
      </trkpt>
      <trkpt lat="44.52352" lon="1.38931">
        <ele>148.3</ele>
        <time>2021-09-05T14:24:06Z</time>
      </trkpt>
      <trkpt lat="44.52351" lon="1.38924">
        <ele>148.4</ele>
        <time>2021-09-05T14:24:08Z</time>
      </trkpt>
      <trkpt lat="44.52348" lon="1.38913">
        <ele>148.5</ele>
        <time>2021-09-05T14:24:10Z</time>
      </trkpt>
      <trkpt lat="44.52346" lon="1.38905">
        <ele>148.6</ele>
        <time>2021-09-05T14:24:11Z</time>
      </trkpt>
      <trkpt lat="44.52346" lon="1.38898">
        <ele>148.7</ele>
        <time>2021-09-05T14:24:12Z</time>
      </trkpt>
      <trkpt lat="44.52345" lon="1.38893">
        <ele>148.8</ele>
        <time>2021-09-05T14:24:14Z</time>
      </trkpt>
      <trkpt lat="44.52345" lon="1.38887">
        <ele>148.9</ele>
        <time>2021-09-05T14:24:15Z</time>
      </trkpt>
      <trkpt lat="44.52347" lon="1.3888">
        <ele>149</ele>
        <time>2021-09-05T14:24:16Z</time>
      </trkpt>
      <trkpt lat="44.5235" lon="1.38876">
        <ele>149.2</ele>
        <time>2021-09-05T14:24:17Z</time>
      </trkpt>
      <trkpt lat="44.52354" lon="1.38873">
        <ele>149.2</ele>
        <time>2021-09-05T14:24:19Z</time>
      </trkpt>
      <trkpt lat="44.52357" lon="1.38864">
        <ele>148.9</ele>
        <time>2021-09-05T14:24:20Z</time>
      </trkpt>
      <trkpt lat="44.52357" lon="1.38856">
        <ele>148.7</ele>
        <time>2021-09-05T14:24:21Z</time>
      </trkpt>
      <trkpt lat="44.52356" lon="1.38846">
        <ele>148.4</ele>
        <time>2021-09-05T14:24:23Z</time>
      </trkpt>
      <trkpt lat="44.52355" lon="1.38841">
        <ele>148.3</ele>
        <time>2021-09-05T14:24:24Z</time>
      </trkpt>
      <trkpt lat="44.52354" lon="1.38835">
        <ele>148.1</ele>
        <time>2021-09-05T14:24:25Z</time>
      </trkpt>
      <trkpt lat="44.52353" lon="1.38828">
        <ele>148</ele>
        <time>2021-09-05T14:24:26Z</time>
      </trkpt>
      <trkpt lat="44.52353" lon="1.38815">
        <ele>147.8</ele>
        <time>2021-09-05T14:24:27Z</time>
      </trkpt>
      <trkpt lat="44.52352" lon="1.38808">
        <ele>147.7</ele>
        <time>2021-09-05T14:24:29Z</time>
      </trkpt>
      <trkpt lat="44.52352" lon="1.388">
        <ele>147.6</ele>
        <time>2021-09-05T14:24:30Z</time>
      </trkpt>
      <trkpt lat="44.52351" lon="1.38788">
        <ele>147.5</ele>
        <time>2021-09-05T14:24:32Z</time>
      </trkpt>
      <trkpt lat="44.5235" lon="1.38781">
        <ele>147.5</ele>
        <time>2021-09-05T14:24:33Z</time>
      </trkpt>
      <trkpt lat="44.5235" lon="1.38774">
        <ele>147.4</ele>
        <time>2021-09-05T14:24:35Z</time>
      </trkpt>
      <trkpt lat="44.52349" lon="1.38764">
        <ele>147.4</ele>
        <time>2021-09-05T14:24:37Z</time>
      </trkpt>
      <trkpt lat="44.52349" lon="1.38759">
        <ele>147.3</ele>
        <time>2021-09-05T14:24:38Z</time>
      </trkpt>
      <trkpt lat="44.52348" lon="1.38752">
        <ele>147.3</ele>
        <time>2021-09-05T14:24:39Z</time>
      </trkpt>
      <trkpt lat="44.52348" lon="1.38744">
        <ele>147.3</ele>
        <time>2021-09-05T14:24:41Z</time>
      </trkpt>
      <trkpt lat="44.52347" lon="1.3874">
        <ele>147.2</ele>
        <time>2021-09-05T14:24:42Z</time>
      </trkpt>
      <trkpt lat="44.52347" lon="1.38735">
        <ele>147.2</ele>
        <time>2021-09-05T14:24:43Z</time>
      </trkpt>
      <trkpt lat="44.52347" lon="1.3873">
        <ele>147.2</ele>
        <time>2021-09-05T14:24:44Z</time>
      </trkpt>
      <trkpt lat="44.52345" lon="1.38723">
        <ele>147.2</ele>
        <time>2021-09-05T14:24:45Z</time>
      </trkpt>
      <trkpt lat="44.52345" lon="1.38717">
        <ele>147.2</ele>
        <time>2021-09-05T14:24:46Z</time>
      </trkpt>
      <trkpt lat="44.52345" lon="1.38712">
        <ele>147.2</ele>
        <time>2021-09-05T14:24:47Z</time>
      </trkpt>
      <trkpt lat="44.52345" lon="1.38706">
        <ele>147.2</ele>
        <time>2021-09-05T14:24:49Z</time>
      </trkpt>
      <trkpt lat="44.52344" lon="1.387">
        <ele>147.3</ele>
        <time>2021-09-05T14:24:50Z</time>
      </trkpt>
      <trkpt lat="44.52344" lon="1.38692">
        <ele>147.3</ele>
        <time>2021-09-05T14:24:52Z</time>
      </trkpt>
      <trkpt lat="44.52343" lon="1.38688">
        <ele>147.3</ele>
        <time>2021-09-05T14:24:53Z</time>
      </trkpt>
      <trkpt lat="44.52344" lon="1.38683">
        <ele>147.3</ele>
        <time>2021-09-05T14:24:54Z</time>
      </trkpt>
      <trkpt lat="44.52343" lon="1.38675">
        <ele>147.2</ele>
        <time>2021-09-05T14:24:55Z</time>
      </trkpt>
      <trkpt lat="44.52341" lon="1.38667">
        <ele>147.2</ele>
        <time>2021-09-05T14:24:57Z</time>
      </trkpt>
      <trkpt lat="44.52337" lon="1.38662">
        <ele>147.2</ele>
        <time>2021-09-05T14:24:59Z</time>
      </trkpt>
      <trkpt lat="44.52333" lon="1.38658">
        <ele>147.1</ele>
        <time>2021-09-05T14:25:01Z</time>
      </trkpt>
      <trkpt lat="44.52328" lon="1.38651">
        <ele>147.1</ele>
        <time>2021-09-05T14:25:02Z</time>
      </trkpt>
      <trkpt lat="44.52325" lon="1.38648">
        <ele>147.1</ele>
        <time>2021-09-05T14:25:04Z</time>
      </trkpt>
      <trkpt lat="44.5232" lon="1.38641">
        <ele>147.1</ele>
        <time>2021-09-05T14:25:05Z</time>
      </trkpt>
      <trkpt lat="44.52314" lon="1.38633">
        <ele>147</ele>
        <time>2021-09-05T14:25:07Z</time>
      </trkpt>
      <trkpt lat="44.52311" lon="1.38628">
        <ele>147</ele>
        <time>2021-09-05T14:25:09Z</time>
      </trkpt>
      <trkpt lat="44.52308" lon="1.38624">
        <ele>147</ele>
        <time>2021-09-05T14:25:10Z</time>
      </trkpt>
      <trkpt lat="44.52303" lon="1.38618">
        <ele>147</ele>
        <time>2021-09-05T14:25:12Z</time>
      </trkpt>
      <trkpt lat="44.52299" lon="1.38613">
        <ele>147</ele>
        <time>2021-09-05T14:25:13Z</time>
      </trkpt>
      <trkpt lat="44.52296" lon="1.38608">
        <ele>147</ele>
        <time>2021-09-05T14:25:14Z</time>
      </trkpt>
      <trkpt lat="44.52293" lon="1.38604">
        <ele>147</ele>
        <time>2021-09-05T14:25:15Z</time>
      </trkpt>
      <trkpt lat="44.5229" lon="1.38601">
        <ele>146.9</ele>
        <time>2021-09-05T14:25:17Z</time>
      </trkpt>
      <trkpt lat="44.52288" lon="1.38597">
        <ele>146.9</ele>
        <time>2021-09-05T14:25:18Z</time>
      </trkpt>
      <trkpt lat="44.52282" lon="1.38591">
        <ele>146.9</ele>
        <time>2021-09-05T14:25:19Z</time>
      </trkpt>
      <trkpt lat="44.52278" lon="1.38584">
        <ele>146.8</ele>
        <time>2021-09-05T14:25:21Z</time>
      </trkpt>
      <trkpt lat="44.52275" lon="1.3858">
        <ele>146.8</ele>
        <time>2021-09-05T14:25:23Z</time>
      </trkpt>
      <trkpt lat="44.52271" lon="1.38572">
        <ele>146.7</ele>
        <time>2021-09-05T14:25:24Z</time>
      </trkpt>
      <trkpt lat="44.52267" lon="1.38567">
        <ele>146.6</ele>
        <time>2021-09-05T14:25:26Z</time>
      </trkpt>
      <trkpt lat="44.52264" lon="1.38563">
        <ele>146.6</ele>
        <time>2021-09-05T14:25:27Z</time>
      </trkpt>
      <trkpt lat="44.52261" lon="1.38559">
        <ele>146.5</ele>
        <time>2021-09-05T14:25:28Z</time>
      </trkpt>
      <trkpt lat="44.52258" lon="1.38554">
        <ele>146.5</ele>
        <time>2021-09-05T14:25:29Z</time>
      </trkpt>
      <trkpt lat="44.52254" lon="1.38547">
        <ele>146.4</ele>
        <time>2021-09-05T14:25:31Z</time>
      </trkpt>
      <trkpt lat="44.5225" lon="1.3854">
        <ele>146.2</ele>
        <time>2021-09-05T14:25:32Z</time>
      </trkpt>
      <trkpt lat="44.52246" lon="1.38535">
        <ele>146.2</ele>
        <time>2021-09-05T14:25:33Z</time>
      </trkpt>
      <trkpt lat="44.52242" lon="1.38528">
        <ele>146.1</ele>
        <time>2021-09-05T14:25:35Z</time>
      </trkpt>
      <trkpt lat="44.52239" lon="1.38523">
        <ele>146</ele>
        <time>2021-09-05T14:25:36Z</time>
      </trkpt>
      <trkpt lat="44.52234" lon="1.38515">
        <ele>145.8</ele>
        <time>2021-09-05T14:25:38Z</time>
      </trkpt>
      <trkpt lat="44.52227" lon="1.38505">
        <ele>145.7</ele>
        <time>2021-09-05T14:25:39Z</time>
      </trkpt>
      <trkpt lat="44.52221" lon="1.38496">
        <ele>145.5</ele>
        <time>2021-09-05T14:25:42Z</time>
      </trkpt>
      <trkpt lat="44.52218" lon="1.38489">
        <ele>145.5</ele>
        <time>2021-09-05T14:25:43Z</time>
      </trkpt>
      <trkpt lat="44.52217" lon="1.38484">
        <ele>145.4</ele>
        <time>2021-09-05T14:25:44Z</time>
      </trkpt>
      <trkpt lat="44.5221" lon="1.38478">
        <ele>145.3</ele>
        <time>2021-09-05T14:25:46Z</time>
      </trkpt>
      <trkpt lat="44.52205" lon="1.38476">
        <ele>145.2</ele>
        <time>2021-09-05T14:25:47Z</time>
      </trkpt>
      <trkpt lat="44.52202" lon="1.38471">
        <ele>145.1</ele>
        <time>2021-09-05T14:25:48Z</time>
      </trkpt>
      <trkpt lat="44.52198" lon="1.38465">
        <ele>145.1</ele>
        <time>2021-09-05T14:25:49Z</time>
      </trkpt>
      <trkpt lat="44.52193" lon="1.38457">
        <ele>145</ele>
        <time>2021-09-05T14:25:51Z</time>
      </trkpt>
      <trkpt lat="44.52189" lon="1.38451">
        <ele>144.9</ele>
        <time>2021-09-05T14:25:53Z</time>
      </trkpt>
      <trkpt lat="44.52186" lon="1.38446">
        <ele>144.8</ele>
        <time>2021-09-05T14:25:54Z</time>
      </trkpt>
      <trkpt lat="44.52182" lon="1.38441">
        <ele>144.7</ele>
        <time>2021-09-05T14:25:55Z</time>
      </trkpt>
      <trkpt lat="44.52176" lon="1.38433">
        <ele>144.6</ele>
        <time>2021-09-05T14:25:57Z</time>
      </trkpt>
      <trkpt lat="44.52172" lon="1.38427">
        <ele>144.5</ele>
        <time>2021-09-05T14:25:58Z</time>
      </trkpt>
      <trkpt lat="44.52167" lon="1.3842">
        <ele>144.4</ele>
        <time>2021-09-05T14:26:00Z</time>
      </trkpt>
      <trkpt lat="44.52163" lon="1.38415">
        <ele>144.4</ele>
        <time>2021-09-05T14:26:01Z</time>
      </trkpt>
      <trkpt lat="44.5216" lon="1.38411">
        <ele>144.3</ele>
        <time>2021-09-05T14:26:02Z</time>
      </trkpt>
      <trkpt lat="44.52155" lon="1.38404">
        <ele>144.3</ele>
        <time>2021-09-05T14:26:03Z</time>
      </trkpt>
      <trkpt lat="44.52151" lon="1.38399">
        <ele>144.2</ele>
        <time>2021-09-05T14:26:04Z</time>
      </trkpt>
      <trkpt lat="44.52147" lon="1.38395">
        <ele>144.2</ele>
        <time>2021-09-05T14:26:06Z</time>
      </trkpt>
      <trkpt lat="44.5214" lon="1.38387">
        <ele>144.1</ele>
        <time>2021-09-05T14:26:07Z</time>
      </trkpt>
      <trkpt lat="44.52136" lon="1.38383">
        <ele>144.1</ele>
        <time>2021-09-05T14:26:09Z</time>
      </trkpt>
      <trkpt lat="44.52133" lon="1.38381">
        <ele>144</ele>
        <time>2021-09-05T14:26:10Z</time>
      </trkpt>
      <trkpt lat="44.52127" lon="1.38376">
        <ele>144</ele>
        <time>2021-09-05T14:26:11Z</time>
      </trkpt>
      <trkpt lat="44.52119" lon="1.38371">
        <ele>143.9</ele>
        <time>2021-09-05T14:26:13Z</time>
      </trkpt>
      <trkpt lat="44.5211" lon="1.38366">
        <ele>143.8</ele>
        <time>2021-09-05T14:26:15Z</time>
      </trkpt>
      <trkpt lat="44.52105" lon="1.38364">
        <ele>143.7</ele>
        <time>2021-09-05T14:26:17Z</time>
      </trkpt>
      <trkpt lat="44.52096" lon="1.3836">
        <ele>143.7</ele>
        <time>2021-09-05T14:26:19Z</time>
      </trkpt>
      <trkpt lat="44.52092" lon="1.38358">
        <ele>143.6</ele>
        <time>2021-09-05T14:26:20Z</time>
      </trkpt>
      <trkpt lat="44.52087" lon="1.38356">
        <ele>143.6</ele>
        <time>2021-09-05T14:26:21Z</time>
      </trkpt>
      <trkpt lat="44.52082" lon="1.38354">
        <ele>143.5</ele>
        <time>2021-09-05T14:26:22Z</time>
      </trkpt>
      <trkpt lat="44.52077" lon="1.38352">
        <ele>143.5</ele>
        <time>2021-09-05T14:26:24Z</time>
      </trkpt>
      <trkpt lat="44.52072" lon="1.38351">
        <ele>143.5</ele>
        <time>2021-09-05T14:26:25Z</time>
      </trkpt>
      <trkpt lat="44.52064" lon="1.38348">
        <ele>143.4</ele>
        <time>2021-09-05T14:26:26Z</time>
      </trkpt>
      <trkpt lat="44.52059" lon="1.38346">
        <ele>143.3</ele>
        <time>2021-09-05T14:26:28Z</time>
      </trkpt>
      <trkpt lat="44.5205" lon="1.38343">
        <ele>143.2</ele>
        <time>2021-09-05T14:26:30Z</time>
      </trkpt>
      <trkpt lat="44.52041" lon="1.38339">
        <ele>143.2</ele>
        <time>2021-09-05T14:26:32Z</time>
      </trkpt>
      <trkpt lat="44.52035" lon="1.38337">
        <ele>143.1</ele>
        <time>2021-09-05T14:26:33Z</time>
      </trkpt>
      <trkpt lat="44.5203" lon="1.38335">
        <ele>143.1</ele>
        <time>2021-09-05T14:26:35Z</time>
      </trkpt>
      <trkpt lat="44.52025" lon="1.38333">
        <ele>143.1</ele>
        <time>2021-09-05T14:26:36Z</time>
      </trkpt>
      <trkpt lat="44.5202" lon="1.38331">
        <ele>143</ele>
        <time>2021-09-05T14:26:37Z</time>
      </trkpt>
      <trkpt lat="44.52013" lon="1.38329">
        <ele>143</ele>
        <time>2021-09-05T14:26:39Z</time>
      </trkpt>
      <trkpt lat="44.52006" lon="1.38327">
        <ele>143</ele>
        <time>2021-09-05T14:26:40Z</time>
      </trkpt>
      <trkpt lat="44.52002" lon="1.38325">
        <ele>142.9</ele>
        <time>2021-09-05T14:26:41Z</time>
      </trkpt>
      <trkpt lat="44.51997" lon="1.38324">
        <ele>142.9</ele>
        <time>2021-09-05T14:26:43Z</time>
      </trkpt>
      <trkpt lat="44.51987" lon="1.3832">
        <ele>142.9</ele>
        <time>2021-09-05T14:26:45Z</time>
      </trkpt>
      <trkpt lat="44.51978" lon="1.38317">
        <ele>142.9</ele>
        <time>2021-09-05T14:26:47Z</time>
      </trkpt>
      <trkpt lat="44.51969" lon="1.38314">
        <ele>142.8</ele>
        <time>2021-09-05T14:26:48Z</time>
      </trkpt>
      <trkpt lat="44.51964" lon="1.38312">
        <ele>142.8</ele>
        <time>2021-09-05T14:26:50Z</time>
      </trkpt>
      <trkpt lat="44.51955" lon="1.38309">
        <ele>142.8</ele>
        <time>2021-09-05T14:26:52Z</time>
      </trkpt>
      <trkpt lat="44.51951" lon="1.38307">
        <ele>142.8</ele>
        <time>2021-09-05T14:26:53Z</time>
      </trkpt>
      <trkpt lat="44.51946" lon="1.38305">
        <ele>142.7</ele>
        <time>2021-09-05T14:26:54Z</time>
      </trkpt>
      <trkpt lat="44.51941" lon="1.38303">
        <ele>142.7</ele>
        <time>2021-09-05T14:26:55Z</time>
      </trkpt>
      <trkpt lat="44.51936" lon="1.38302">
        <ele>142.7</ele>
        <time>2021-09-05T14:26:56Z</time>
      </trkpt>
      <trkpt lat="44.5193" lon="1.38301">
        <ele>142.7</ele>
        <time>2021-09-05T14:26:57Z</time>
      </trkpt>
      <trkpt lat="44.51923" lon="1.38301">
        <ele>142.6</ele>
        <time>2021-09-05T14:26:59Z</time>
      </trkpt>
      <trkpt lat="44.51913" lon="1.38299">
        <ele>142.5</ele>
        <time>2021-09-05T14:27:01Z</time>
      </trkpt>
      <trkpt lat="44.51903" lon="1.38298">
        <ele>142.5</ele>
        <time>2021-09-05T14:27:03Z</time>
      </trkpt>
      <trkpt lat="44.51898" lon="1.38298">
        <ele>142.5</ele>
        <time>2021-09-05T14:27:05Z</time>
      </trkpt>
      <trkpt lat="44.51893" lon="1.38297">
        <ele>142.6</ele>
        <time>2021-09-05T14:27:06Z</time>
      </trkpt>
      <trkpt lat="44.51887" lon="1.38296">
        <ele>142.6</ele>
        <time>2021-09-05T14:27:08Z</time>
      </trkpt>
      <trkpt lat="44.51881" lon="1.38295">
        <ele>142.6</ele>
        <time>2021-09-05T14:27:09Z</time>
      </trkpt>
      <trkpt lat="44.51875" lon="1.38294">
        <ele>142.6</ele>
        <time>2021-09-05T14:27:10Z</time>
      </trkpt>
      <trkpt lat="44.51868" lon="1.38291">
        <ele>142.6</ele>
        <time>2021-09-05T14:27:12Z</time>
      </trkpt>
      <trkpt lat="44.51859" lon="1.38287">
        <ele>142.5</ele>
        <time>2021-09-05T14:27:13Z</time>
      </trkpt>
      <trkpt lat="44.51854" lon="1.38286">
        <ele>142.5</ele>
        <time>2021-09-05T14:27:15Z</time>
      </trkpt>
      <trkpt lat="44.5185" lon="1.38284">
        <ele>142.5</ele>
        <time>2021-09-05T14:27:16Z</time>
      </trkpt>
      <trkpt lat="44.51844" lon="1.3828">
        <ele>142.5</ele>
        <time>2021-09-05T14:27:17Z</time>
      </trkpt>
      <trkpt lat="44.5184" lon="1.38278">
        <ele>142.5</ele>
        <time>2021-09-05T14:27:19Z</time>
      </trkpt>
      <trkpt lat="44.51833" lon="1.38275">
        <ele>142.5</ele>
        <time>2021-09-05T14:27:20Z</time>
      </trkpt>
      <trkpt lat="44.51829" lon="1.38272">
        <ele>142.5</ele>
        <time>2021-09-05T14:27:21Z</time>
      </trkpt>
      <trkpt lat="44.51824" lon="1.3827">
        <ele>142.5</ele>
        <time>2021-09-05T14:27:22Z</time>
      </trkpt>
      <trkpt lat="44.51819" lon="1.38268">
        <ele>142.5</ele>
        <time>2021-09-05T14:27:23Z</time>
      </trkpt>
      <trkpt lat="44.51814" lon="1.38263">
        <ele>142.5</ele>
        <time>2021-09-05T14:27:25Z</time>
      </trkpt>
      <trkpt lat="44.5181" lon="1.3826">
        <ele>142.5</ele>
        <time>2021-09-05T14:27:26Z</time>
      </trkpt>
      <trkpt lat="44.51804" lon="1.38256">
        <ele>142.5</ele>
        <time>2021-09-05T14:27:28Z</time>
      </trkpt>
      <trkpt lat="44.51799" lon="1.38251">
        <ele>142.5</ele>
        <time>2021-09-05T14:27:29Z</time>
      </trkpt>
      <trkpt lat="44.51794" lon="1.38248">
        <ele>142.5</ele>
        <time>2021-09-05T14:27:31Z</time>
      </trkpt>
      <trkpt lat="44.51788" lon="1.38243">
        <ele>142.5</ele>
        <time>2021-09-05T14:27:32Z</time>
      </trkpt>
      <trkpt lat="44.51784" lon="1.38241">
        <ele>142.5</ele>
        <time>2021-09-05T14:27:33Z</time>
      </trkpt>
      <trkpt lat="44.51779" lon="1.38238">
        <ele>142.5</ele>
        <time>2021-09-05T14:27:35Z</time>
      </trkpt>
      <trkpt lat="44.51772" lon="1.38235">
        <ele>142.5</ele>
        <time>2021-09-05T14:27:37Z</time>
      </trkpt>
      <trkpt lat="44.51769" lon="1.38232">
        <ele>142.5</ele>
        <time>2021-09-05T14:27:38Z</time>
      </trkpt>
      <trkpt lat="44.51764" lon="1.38228">
        <ele>142.4</ele>
        <time>2021-09-05T14:27:39Z</time>
      </trkpt>
      <trkpt lat="44.5176" lon="1.38225">
        <ele>142.4</ele>
        <time>2021-09-05T14:27:40Z</time>
      </trkpt>
      <trkpt lat="44.51755" lon="1.38221">
        <ele>142.3</ele>
        <time>2021-09-05T14:27:42Z</time>
      </trkpt>
      <trkpt lat="44.51747" lon="1.38217">
        <ele>142.2</ele>
        <time>2021-09-05T14:27:44Z</time>
      </trkpt>
      <trkpt lat="44.51743" lon="1.38213">
        <ele>142.2</ele>
        <time>2021-09-05T14:27:45Z</time>
      </trkpt>
      <trkpt lat="44.51739" lon="1.38209">
        <ele>142.1</ele>
        <time>2021-09-05T14:27:46Z</time>
      </trkpt>
      <trkpt lat="44.51735" lon="1.38205">
        <ele>142.1</ele>
        <time>2021-09-05T14:27:47Z</time>
      </trkpt>
      <trkpt lat="44.5173" lon="1.38202">
        <ele>142</ele>
        <time>2021-09-05T14:27:48Z</time>
      </trkpt>
      <trkpt lat="44.51724" lon="1.38199">
        <ele>142</ele>
        <time>2021-09-05T14:27:50Z</time>
      </trkpt>
      <trkpt lat="44.5172" lon="1.38196">
        <ele>142</ele>
        <time>2021-09-05T14:27:51Z</time>
      </trkpt>
      <trkpt lat="44.51714" lon="1.38192">
        <ele>141.9</ele>
        <time>2021-09-05T14:27:52Z</time>
      </trkpt>
      <trkpt lat="44.51709" lon="1.38189">
        <ele>141.9</ele>
        <time>2021-09-05T14:27:54Z</time>
      </trkpt>
      <trkpt lat="44.51703" lon="1.38185">
        <ele>141.9</ele>
        <time>2021-09-05T14:27:55Z</time>
      </trkpt>
      <trkpt lat="44.517" lon="1.38183">
        <ele>141.9</ele>
        <time>2021-09-05T14:27:56Z</time>
      </trkpt>
      <trkpt lat="44.51695" lon="1.38178">
        <ele>141.9</ele>
        <time>2021-09-05T14:27:58Z</time>
      </trkpt>
      <trkpt lat="44.51692" lon="1.38175">
        <ele>141.9</ele>
        <time>2021-09-05T14:27:59Z</time>
      </trkpt>
      <trkpt lat="44.51688" lon="1.38174">
        <ele>141.9</ele>
        <time>2021-09-05T14:28:00Z</time>
      </trkpt>
      <trkpt lat="44.51683" lon="1.3817">
        <ele>141.9</ele>
        <time>2021-09-05T14:28:02Z</time>
      </trkpt>
      <trkpt lat="44.51679" lon="1.38166">
        <ele>141.9</ele>
        <time>2021-09-05T14:28:04Z</time>
      </trkpt>
      <trkpt lat="44.51677" lon="1.38164">
        <ele>141.9</ele>
        <time>2021-09-05T14:28:05Z</time>
      </trkpt>
      <trkpt lat="44.51674" lon="1.38162">
        <ele>141.9</ele>
        <time>2021-09-05T14:28:07Z</time>
      </trkpt>
      <trkpt lat="44.51671" lon="1.38159">
        <ele>142</ele>
        <time>2021-09-05T14:28:08Z</time>
      </trkpt>
      <trkpt lat="44.51669" lon="1.38157">
        <ele>142</ele>
        <time>2021-09-05T14:28:10Z</time>
      </trkpt>
      <trkpt lat="44.51664" lon="1.38155">
        <ele>142</ele>
        <time>2021-09-05T14:28:11Z</time>
      </trkpt>
      <trkpt lat="44.51661" lon="1.38152">
        <ele>142</ele>
        <time>2021-09-05T14:28:12Z</time>
      </trkpt>
      <trkpt lat="44.51658" lon="1.3815">
        <ele>142</ele>
        <time>2021-09-05T14:28:14Z</time>
      </trkpt>
      <trkpt lat="44.51655" lon="1.38147">
        <ele>142</ele>
        <time>2021-09-05T14:28:15Z</time>
      </trkpt>
      <trkpt lat="44.5165" lon="1.38143">
        <ele>142</ele>
        <time>2021-09-05T14:28:17Z</time>
      </trkpt>
      <trkpt lat="44.51642" lon="1.38138">
        <ele>142</ele>
        <time>2021-09-05T14:28:19Z</time>
      </trkpt>
      <trkpt lat="44.51635" lon="1.38131">
        <ele>141.9</ele>
        <time>2021-09-05T14:28:20Z</time>
      </trkpt>
      <trkpt lat="44.51632" lon="1.38129">
        <ele>141.9</ele>
        <time>2021-09-05T14:28:22Z</time>
      </trkpt>
      <trkpt lat="44.51624" lon="1.38126">
        <ele>141.9</ele>
        <time>2021-09-05T14:28:24Z</time>
      </trkpt>
      <trkpt lat="44.51617" lon="1.38122">
        <ele>141.8</ele>
        <time>2021-09-05T14:28:25Z</time>
      </trkpt>
      <trkpt lat="44.51612" lon="1.38119">
        <ele>141.8</ele>
        <time>2021-09-05T14:28:26Z</time>
      </trkpt>
      <trkpt lat="44.51607" lon="1.38118">
        <ele>141.8</ele>
        <time>2021-09-05T14:28:28Z</time>
      </trkpt>
      <trkpt lat="44.51603" lon="1.38116">
        <ele>141.7</ele>
        <time>2021-09-05T14:28:29Z</time>
      </trkpt>
      <trkpt lat="44.51594" lon="1.38113">
        <ele>141.7</ele>
        <time>2021-09-05T14:28:31Z</time>
      </trkpt>
      <trkpt lat="44.51585" lon="1.3811">
        <ele>141.6</ele>
        <time>2021-09-05T14:28:33Z</time>
      </trkpt>
      <trkpt lat="44.51576" lon="1.38107">
        <ele>141.6</ele>
        <time>2021-09-05T14:28:35Z</time>
      </trkpt>
      <trkpt lat="44.51566" lon="1.38104">
        <ele>141.5</ele>
        <time>2021-09-05T14:28:37Z</time>
      </trkpt>
      <trkpt lat="44.51562" lon="1.38103">
        <ele>141.5</ele>
        <time>2021-09-05T14:28:38Z</time>
      </trkpt>
      <trkpt lat="44.51552" lon="1.38101">
        <ele>141.5</ele>
        <time>2021-09-05T14:28:40Z</time>
      </trkpt>
      <trkpt lat="44.5155" lon="1.381">
        <ele>141.5</ele>
        <time>2021-09-05T14:28:41Z</time>
      </trkpt>
      <trkpt lat="44.51541" lon="1.38097">
        <ele>141.4</ele>
        <time>2021-09-05T14:28:43Z</time>
      </trkpt>
      <trkpt lat="44.51535" lon="1.38098">
        <ele>141.4</ele>
        <time>2021-09-05T14:28:44Z</time>
      </trkpt>
      <trkpt lat="44.51529" lon="1.38097">
        <ele>141.3</ele>
        <time>2021-09-05T14:28:46Z</time>
      </trkpt>
      <trkpt lat="44.51523" lon="1.38099">
        <ele>141.3</ele>
        <time>2021-09-05T14:28:47Z</time>
      </trkpt>
      <trkpt lat="44.5152" lon="1.381">
        <ele>141.2</ele>
        <time>2021-09-05T14:28:48Z</time>
      </trkpt>
      <trkpt lat="44.51515" lon="1.38102">
        <ele>141.1</ele>
        <time>2021-09-05T14:28:49Z</time>
      </trkpt>
      <trkpt lat="44.51508" lon="1.38105">
        <ele>141</ele>
        <time>2021-09-05T14:28:51Z</time>
      </trkpt>
      <trkpt lat="44.51504" lon="1.38106">
        <ele>140.9</ele>
        <time>2021-09-05T14:28:53Z</time>
      </trkpt>
      <trkpt lat="44.51498" lon="1.38108">
        <ele>140.8</ele>
        <time>2021-09-05T14:28:54Z</time>
      </trkpt>
      <trkpt lat="44.51493" lon="1.3811">
        <ele>140.7</ele>
        <time>2021-09-05T14:28:55Z</time>
      </trkpt>
      <trkpt lat="44.51486" lon="1.38112">
        <ele>140.6</ele>
        <time>2021-09-05T14:28:57Z</time>
      </trkpt>
      <trkpt lat="44.51482" lon="1.38114">
        <ele>140.6</ele>
        <time>2021-09-05T14:28:58Z</time>
      </trkpt>
      <trkpt lat="44.51477" lon="1.38116">
        <ele>140.5</ele>
        <time>2021-09-05T14:28:59Z</time>
      </trkpt>
      <trkpt lat="44.5147" lon="1.38118">
        <ele>140.4</ele>
        <time>2021-09-05T14:29:00Z</time>
      </trkpt>
      <trkpt lat="44.51463" lon="1.3812">
        <ele>140.3</ele>
        <time>2021-09-05T14:29:02Z</time>
      </trkpt>
      <trkpt lat="44.51458" lon="1.38122">
        <ele>140.2</ele>
        <time>2021-09-05T14:29:03Z</time>
      </trkpt>
      <trkpt lat="44.51454" lon="1.38124">
        <ele>140.2</ele>
        <time>2021-09-05T14:29:04Z</time>
      </trkpt>
      <trkpt lat="44.51449" lon="1.38125">
        <ele>140.1</ele>
        <time>2021-09-05T14:29:05Z</time>
      </trkpt>
      <trkpt lat="44.51444" lon="1.38126">
        <ele>140.1</ele>
        <time>2021-09-05T14:29:07Z</time>
      </trkpt>
      <trkpt lat="44.5144" lon="1.38128">
        <ele>140</ele>
        <time>2021-09-05T14:29:08Z</time>
      </trkpt>
      <trkpt lat="44.51431" lon="1.3813">
        <ele>139.9</ele>
        <time>2021-09-05T14:29:10Z</time>
      </trkpt>
      <trkpt lat="44.51421" lon="1.38135">
        <ele>139.7</ele>
        <time>2021-09-05T14:29:12Z</time>
      </trkpt>
      <trkpt lat="44.51411" lon="1.38137">
        <ele>139.6</ele>
        <time>2021-09-05T14:29:14Z</time>
      </trkpt>
      <trkpt lat="44.51406" lon="1.38136">
        <ele>139.5</ele>
        <time>2021-09-05T14:29:16Z</time>
      </trkpt>
      <trkpt lat="44.51401" lon="1.38137">
        <ele>139.4</ele>
        <time>2021-09-05T14:29:17Z</time>
      </trkpt>
      <trkpt lat="44.51396" lon="1.38139">
        <ele>139.3</ele>
        <time>2021-09-05T14:29:19Z</time>
      </trkpt>
      <trkpt lat="44.51393" lon="1.38139">
        <ele>139.3</ele>
        <time>2021-09-05T14:29:20Z</time>
      </trkpt>
      <trkpt lat="44.51387" lon="1.38137">
        <ele>139.2</ele>
        <time>2021-09-05T14:29:22Z</time>
      </trkpt>
      <trkpt lat="44.51383" lon="1.38137">
        <ele>139.1</ele>
        <time>2021-09-05T14:29:23Z</time>
      </trkpt>
      <trkpt lat="44.51379" lon="1.38137">
        <ele>139</ele>
        <time>2021-09-05T14:29:24Z</time>
      </trkpt>
      <trkpt lat="44.51374" lon="1.38139">
        <ele>138.9</ele>
        <time>2021-09-05T14:29:25Z</time>
      </trkpt>
      <trkpt lat="44.51368" lon="1.38138">
        <ele>138.8</ele>
        <time>2021-09-05T14:29:27Z</time>
      </trkpt>
      <trkpt lat="44.51364" lon="1.38139">
        <ele>138.8</ele>
        <time>2021-09-05T14:29:28Z</time>
      </trkpt>
      <trkpt lat="44.51359" lon="1.38139">
        <ele>138.7</ele>
        <time>2021-09-05T14:29:29Z</time>
      </trkpt>
      <trkpt lat="44.51354" lon="1.38138">
        <ele>138.6</ele>
        <time>2021-09-05T14:29:30Z</time>
      </trkpt>
      <trkpt lat="44.51349" lon="1.38138">
        <ele>138.5</ele>
        <time>2021-09-05T14:29:32Z</time>
      </trkpt>
      <trkpt lat="44.51345" lon="1.38138">
        <ele>138.4</ele>
        <time>2021-09-05T14:29:33Z</time>
      </trkpt>
      <trkpt lat="44.5134" lon="1.38138">
        <ele>138.4</ele>
        <time>2021-09-05T14:29:34Z</time>
      </trkpt>
      <trkpt lat="44.51335" lon="1.38138">
        <ele>138.3</ele>
        <time>2021-09-05T14:29:36Z</time>
      </trkpt>
      <trkpt lat="44.51327" lon="1.38138">
        <ele>138.2</ele>
        <time>2021-09-05T14:29:37Z</time>
      </trkpt>
      <trkpt lat="44.51321" lon="1.38138">
        <ele>138.1</ele>
        <time>2021-09-05T14:29:38Z</time>
      </trkpt>
      <trkpt lat="44.51316" lon="1.38138">
        <ele>138</ele>
        <time>2021-09-05T14:29:40Z</time>
      </trkpt>
      <trkpt lat="44.51307" lon="1.38137">
        <ele>137.9</ele>
        <time>2021-09-05T14:29:42Z</time>
      </trkpt>
      <trkpt lat="44.51298" lon="1.38133">
        <ele>137.7</ele>
        <time>2021-09-05T14:29:44Z</time>
      </trkpt>
      <trkpt lat="44.51283" lon="1.38127">
        <ele>137.4</ele>
        <time>2021-09-05T14:29:46Z</time>
      </trkpt>
      <trkpt lat="44.51279" lon="1.38125">
        <ele>137.4</ele>
        <time>2021-09-05T14:29:48Z</time>
      </trkpt>
      <trkpt lat="44.51269" lon="1.38121">
        <ele>137.2</ele>
        <time>2021-09-05T14:29:50Z</time>
      </trkpt>
      <trkpt lat="44.5126" lon="1.38116">
        <ele>137</ele>
        <time>2021-09-05T14:29:52Z</time>
      </trkpt>
      <trkpt lat="44.5125" lon="1.38111">
        <ele>136.8</ele>
        <time>2021-09-05T14:29:54Z</time>
      </trkpt>
      <trkpt lat="44.51245" lon="1.38108">
        <ele>136.7</ele>
        <time>2021-09-05T14:29:55Z</time>
      </trkpt>
      <trkpt lat="44.51236" lon="1.38102">
        <ele>136.5</ele>
        <time>2021-09-05T14:29:57Z</time>
      </trkpt>
      <trkpt lat="44.51228" lon="1.381">
        <ele>136.4</ele>
        <time>2021-09-05T14:29:58Z</time>
      </trkpt>
      <trkpt lat="44.51223" lon="1.38098">
        <ele>136.3</ele>
        <time>2021-09-05T14:29:59Z</time>
      </trkpt>
      <trkpt lat="44.51213" lon="1.38095">
        <ele>136.1</ele>
        <time>2021-09-05T14:30:02Z</time>
      </trkpt>
      <trkpt lat="44.51206" lon="1.38091">
        <ele>136</ele>
        <time>2021-09-05T14:30:03Z</time>
      </trkpt>
      <trkpt lat="44.51201" lon="1.38088">
        <ele>135.9</ele>
        <time>2021-09-05T14:30:04Z</time>
      </trkpt>
      <trkpt lat="44.51196" lon="1.38086">
        <ele>135.8</ele>
        <time>2021-09-05T14:30:06Z</time>
      </trkpt>
      <trkpt lat="44.51186" lon="1.38081">
        <ele>135.6</ele>
        <time>2021-09-05T14:30:08Z</time>
      </trkpt>
      <trkpt lat="44.5118" lon="1.3808">
        <ele>135.5</ele>
        <time>2021-09-05T14:30:09Z</time>
      </trkpt>
      <trkpt lat="44.51174" lon="1.38079">
        <ele>135.4</ele>
        <time>2021-09-05T14:30:11Z</time>
      </trkpt>
      <trkpt lat="44.51169" lon="1.38078">
        <ele>135.4</ele>
        <time>2021-09-05T14:30:12Z</time>
      </trkpt>
      <trkpt lat="44.51165" lon="1.38077">
        <ele>135.3</ele>
        <time>2021-09-05T14:30:14Z</time>
      </trkpt>
      <trkpt lat="44.51159" lon="1.38076">
        <ele>135.3</ele>
        <time>2021-09-05T14:30:15Z</time>
      </trkpt>
      <trkpt lat="44.51155" lon="1.38075">
        <ele>135.2</ele>
        <time>2021-09-05T14:30:17Z</time>
      </trkpt>
      <trkpt lat="44.51151" lon="1.38073">
        <ele>135.2</ele>
        <time>2021-09-05T14:30:18Z</time>
      </trkpt>
      <trkpt lat="44.51147" lon="1.38072">
        <ele>135.2</ele>
        <time>2021-09-05T14:30:19Z</time>
      </trkpt>
      <trkpt lat="44.51139" lon="1.38068">
        <ele>135.1</ele>
        <time>2021-09-05T14:30:21Z</time>
      </trkpt>
      <trkpt lat="44.51133" lon="1.38065">
        <ele>135.1</ele>
        <time>2021-09-05T14:30:22Z</time>
      </trkpt>
      <trkpt lat="44.51127" lon="1.38061">
        <ele>135.1</ele>
        <time>2021-09-05T14:30:23Z</time>
      </trkpt>
      <trkpt lat="44.51122" lon="1.38058">
        <ele>135.1</ele>
        <time>2021-09-05T14:30:25Z</time>
      </trkpt>
      <trkpt lat="44.51115" lon="1.38051">
        <ele>135.1</ele>
        <time>2021-09-05T14:30:27Z</time>
      </trkpt>
      <trkpt lat="44.51109" lon="1.38047">
        <ele>135.1</ele>
        <time>2021-09-05T14:30:29Z</time>
      </trkpt>
      <trkpt lat="44.51102" lon="1.38041">
        <ele>135.1</ele>
        <time>2021-09-05T14:30:31Z</time>
      </trkpt>
      <trkpt lat="44.51099" lon="1.38039">
        <ele>135.2</ele>
        <time>2021-09-05T14:30:32Z</time>
      </trkpt>
      <trkpt lat="44.51093" lon="1.38034">
        <ele>135.2</ele>
        <time>2021-09-05T14:30:33Z</time>
      </trkpt>
      <trkpt lat="44.51092" lon="1.38027">
        <ele>135.3</ele>
        <time>2021-09-05T14:30:35Z</time>
      </trkpt>
      <trkpt lat="44.51093" lon="1.38016">
        <ele>135.3</ele>
        <time>2021-09-05T14:30:37Z</time>
      </trkpt>
      <trkpt lat="44.51093" lon="1.38012">
        <ele>135.3</ele>
        <time>2021-09-05T14:30:39Z</time>
      </trkpt>
      <trkpt lat="44.51094" lon="1.38001">
        <ele>135.5</ele>
        <time>2021-09-05T14:30:41Z</time>
      </trkpt>
      <trkpt lat="44.51095" lon="1.37995">
        <ele>135.7</ele>
        <time>2021-09-05T14:30:42Z</time>
      </trkpt>
      <trkpt lat="44.51096" lon="1.3799">
        <ele>135.9</ele>
        <time>2021-09-05T14:30:43Z</time>
      </trkpt>
      <trkpt lat="44.51098" lon="1.37985">
        <ele>136.1</ele>
        <time>2021-09-05T14:30:45Z</time>
      </trkpt>
      <trkpt lat="44.51099" lon="1.37983">
        <ele>136.2</ele>
        <time>2021-09-05T14:30:46Z</time>
      </trkpt>
      <trkpt lat="44.51101" lon="1.37978">
        <ele>136.4</ele>
        <time>2021-09-05T14:30:47Z</time>
      </trkpt>
      <trkpt lat="44.51103" lon="1.37974">
        <ele>136.6</ele>
        <time>2021-09-05T14:30:48Z</time>
      </trkpt>
      <trkpt lat="44.51104" lon="1.37972">
        <ele>136.6</ele>
        <time>2021-09-05T14:30:49Z</time>
      </trkpt>
      <trkpt lat="44.51106" lon="1.3797">
        <ele>136.8</ele>
        <time>2021-09-05T14:30:50Z</time>
      </trkpt>
      <trkpt lat="44.51107" lon="1.37967">
        <ele>136.9</ele>
        <time>2021-09-05T14:30:52Z</time>
      </trkpt>
      <trkpt lat="44.51109" lon="1.37962">
        <ele>137.1</ele>
        <time>2021-09-05T14:30:54Z</time>
      </trkpt>
      <trkpt lat="44.51111" lon="1.37956">
        <ele>137.3</ele>
        <time>2021-09-05T14:30:56Z</time>
      </trkpt>
      <trkpt lat="44.51113" lon="1.37952">
        <ele>137.4</ele>
        <time>2021-09-05T14:30:58Z</time>
      </trkpt>
      <trkpt lat="44.51115" lon="1.37947">
        <ele>137.6</ele>
        <time>2021-09-05T14:30:59Z</time>
      </trkpt>
      <trkpt lat="44.51116" lon="1.37943">
        <ele>137.7</ele>
        <time>2021-09-05T14:31:00Z</time>
      </trkpt>
      <trkpt lat="44.51118" lon="1.37941">
        <ele>137.8</ele>
        <time>2021-09-05T14:31:01Z</time>
      </trkpt>
      <trkpt lat="44.5112" lon="1.37938">
        <ele>138</ele>
        <time>2021-09-05T14:31:02Z</time>
      </trkpt>
      <trkpt lat="44.51121" lon="1.37934">
        <ele>138.1</ele>
        <time>2021-09-05T14:31:04Z</time>
      </trkpt>
      <trkpt lat="44.51123" lon="1.37929">
        <ele>138.3</ele>
        <time>2021-09-05T14:31:05Z</time>
      </trkpt>
      <trkpt lat="44.51125" lon="1.37925">
        <ele>138.4</ele>
        <time>2021-09-05T14:31:07Z</time>
      </trkpt>
      <trkpt lat="44.51127" lon="1.37919">
        <ele>138.6</ele>
        <time>2021-09-05T14:31:08Z</time>
      </trkpt>
      <trkpt lat="44.51128" lon="1.37915">
        <ele>138.7</ele>
        <time>2021-09-05T14:31:10Z</time>
      </trkpt>
      <trkpt lat="44.5113" lon="1.37911">
        <ele>138.8</ele>
        <time>2021-09-05T14:31:11Z</time>
      </trkpt>
      <trkpt lat="44.51132" lon="1.37905">
        <ele>139</ele>
        <time>2021-09-05T14:31:13Z</time>
      </trkpt>
      <trkpt lat="44.51134" lon="1.37899">
        <ele>139.1</ele>
        <time>2021-09-05T14:31:14Z</time>
      </trkpt>
      <trkpt lat="44.51135" lon="1.37896">
        <ele>139.2</ele>
        <time>2021-09-05T14:31:15Z</time>
      </trkpt>
      <trkpt lat="44.51136" lon="1.37891">
        <ele>139.4</ele>
        <time>2021-09-05T14:31:17Z</time>
      </trkpt>
      <trkpt lat="44.51137" lon="1.37889">
        <ele>139.4</ele>
        <time>2021-09-05T14:31:18Z</time>
      </trkpt>
      <trkpt lat="44.5114" lon="1.37882">
        <ele>139.6</ele>
        <time>2021-09-05T14:31:20Z</time>
      </trkpt>
      <trkpt lat="44.5114" lon="1.37878">
        <ele>139.7</ele>
        <time>2021-09-05T14:31:21Z</time>
      </trkpt>
      <trkpt lat="44.51142" lon="1.37872">
        <ele>139.8</ele>
        <time>2021-09-05T14:31:23Z</time>
      </trkpt>
      <trkpt lat="44.51144" lon="1.37864">
        <ele>140</ele>
        <time>2021-09-05T14:31:24Z</time>
      </trkpt>
      <trkpt lat="44.51145" lon="1.37861">
        <ele>140.1</ele>
        <time>2021-09-05T14:31:25Z</time>
      </trkpt>
      <trkpt lat="44.51147" lon="1.37854">
        <ele>140.3</ele>
        <time>2021-09-05T14:31:27Z</time>
      </trkpt>
      <trkpt lat="44.51147" lon="1.37852">
        <ele>140.3</ele>
        <time>2021-09-05T14:31:28Z</time>
      </trkpt>
      <trkpt lat="44.51148" lon="1.37849">
        <ele>140.4</ele>
        <time>2021-09-05T14:31:29Z</time>
      </trkpt>
      <trkpt lat="44.5115" lon="1.37845">
        <ele>140.6</ele>
        <time>2021-09-05T14:31:30Z</time>
      </trkpt>
      <trkpt lat="44.51152" lon="1.37839">
        <ele>140.8</ele>
        <time>2021-09-05T14:31:32Z</time>
      </trkpt>
      <trkpt lat="44.51152" lon="1.37836">
        <ele>140.9</ele>
        <time>2021-09-05T14:31:33Z</time>
      </trkpt>
      <trkpt lat="44.51154" lon="1.37832">
        <ele>141</ele>
        <time>2021-09-05T14:31:34Z</time>
      </trkpt>
      <trkpt lat="44.51155" lon="1.37827">
        <ele>141.2</ele>
        <time>2021-09-05T14:31:36Z</time>
      </trkpt>
      <trkpt lat="44.51156" lon="1.37823">
        <ele>141.3</ele>
        <time>2021-09-05T14:31:37Z</time>
      </trkpt>
      <trkpt lat="44.51158" lon="1.37818">
        <ele>141.5</ele>
        <time>2021-09-05T14:31:39Z</time>
      </trkpt>
      <trkpt lat="44.51159" lon="1.37811">
        <ele>141.7</ele>
        <time>2021-09-05T14:31:40Z</time>
      </trkpt>
      <trkpt lat="44.5116" lon="1.37807">
        <ele>141.9</ele>
        <time>2021-09-05T14:31:42Z</time>
      </trkpt>
      <trkpt lat="44.51161" lon="1.37806">
        <ele>141.9</ele>
        <time>2021-09-05T14:31:43Z</time>
      </trkpt>
      <trkpt lat="44.51162" lon="1.37801">
        <ele>142.1</ele>
        <time>2021-09-05T14:31:45Z</time>
      </trkpt>
      <trkpt lat="44.51163" lon="1.37796">
        <ele>142.4</ele>
        <time>2021-09-05T14:31:46Z</time>
      </trkpt>
      <trkpt lat="44.51164" lon="1.37792">
        <ele>142.5</ele>
        <time>2021-09-05T14:31:47Z</time>
      </trkpt>
      <trkpt lat="44.51166" lon="1.37787">
        <ele>142.8</ele>
        <time>2021-09-05T14:31:50Z</time>
      </trkpt>
      <trkpt lat="44.51168" lon="1.37782">
        <ele>143</ele>
        <time>2021-09-05T14:31:51Z</time>
      </trkpt>
      <trkpt lat="44.51171" lon="1.37778">
        <ele>143.3</ele>
        <time>2021-09-05T14:31:53Z</time>
      </trkpt>
      <trkpt lat="44.51172" lon="1.37774">
        <ele>143.5</ele>
        <time>2021-09-05T14:31:54Z</time>
      </trkpt>
      <trkpt lat="44.51175" lon="1.37771">
        <ele>143.7</ele>
        <time>2021-09-05T14:31:55Z</time>
      </trkpt>
      <trkpt lat="44.51177" lon="1.37769">
        <ele>143.9</ele>
        <time>2021-09-05T14:31:56Z</time>
      </trkpt>
      <trkpt lat="44.51179" lon="1.37767">
        <ele>144.1</ele>
        <time>2021-09-05T14:31:58Z</time>
      </trkpt>
      <trkpt lat="44.51181" lon="1.37764">
        <ele>144.5</ele>
        <time>2021-09-05T14:31:59Z</time>
      </trkpt>
      <trkpt lat="44.51184" lon="1.3776">
        <ele>144.8</ele>
        <time>2021-09-05T14:32:01Z</time>
      </trkpt>
      <trkpt lat="44.51185" lon="1.37759">
        <ele>145</ele>
        <time>2021-09-05T14:32:02Z</time>
      </trkpt>
      <trkpt lat="44.51187" lon="1.37757">
        <ele>145.2</ele>
        <time>2021-09-05T14:32:03Z</time>
      </trkpt>
      <trkpt lat="44.51188" lon="1.37755">
        <ele>145.4</ele>
        <time>2021-09-05T14:32:05Z</time>
      </trkpt>
      <trkpt lat="44.51191" lon="1.37753">
        <ele>145.7</ele>
        <time>2021-09-05T14:32:06Z</time>
      </trkpt>
      <trkpt lat="44.51192" lon="1.37752">
        <ele>145.9</ele>
        <time>2021-09-05T14:32:07Z</time>
      </trkpt>
      <trkpt lat="44.51194" lon="1.3775">
        <ele>146.1</ele>
        <time>2021-09-05T14:32:09Z</time>
      </trkpt>
      <trkpt lat="44.51196" lon="1.37748">
        <ele>146.4</ele>
        <time>2021-09-05T14:32:11Z</time>
      </trkpt>
      <trkpt lat="44.51198" lon="1.37745">
        <ele>146.7</ele>
        <time>2021-09-05T14:32:13Z</time>
      </trkpt>
      <trkpt lat="44.51198" lon="1.37743">
        <ele>146.8</ele>
        <time>2021-09-05T14:32:14Z</time>
      </trkpt>
      <trkpt lat="44.51199" lon="1.37742">
        <ele>147</ele>
        <time>2021-09-05T14:32:15Z</time>
      </trkpt>
      <trkpt lat="44.51201" lon="1.37741">
        <ele>147.2</ele>
        <time>2021-09-05T14:32:17Z</time>
      </trkpt>
      <trkpt lat="44.51202" lon="1.3774">
        <ele>147.4</ele>
        <time>2021-09-05T14:32:18Z</time>
      </trkpt>
      <trkpt lat="44.51203" lon="1.37739">
        <ele>147.5</ele>
        <time>2021-09-05T14:32:19Z</time>
      </trkpt>
      <trkpt lat="44.51204" lon="1.37737">
        <ele>147.7</ele>
        <time>2021-09-05T14:32:20Z</time>
      </trkpt>
      <trkpt lat="44.51206" lon="1.37734">
        <ele>148</ele>
        <time>2021-09-05T14:32:22Z</time>
      </trkpt>
      <trkpt lat="44.51207" lon="1.37732">
        <ele>148.2</ele>
        <time>2021-09-05T14:32:23Z</time>
      </trkpt>
      <trkpt lat="44.51209" lon="1.37729">
        <ele>148.7</ele>
        <time>2021-09-05T14:32:25Z</time>
      </trkpt>
      <trkpt lat="44.51213" lon="1.37727">
        <ele>149.2</ele>
        <time>2021-09-05T14:32:27Z</time>
      </trkpt>
      <trkpt lat="44.51213" lon="1.37726">
        <ele>149.3</ele>
        <time>2021-09-05T14:32:28Z</time>
      </trkpt>
      <trkpt lat="44.51214" lon="1.37724">
        <ele>149.5</ele>
        <time>2021-09-05T14:32:29Z</time>
      </trkpt>
      <trkpt lat="44.51215" lon="1.37723">
        <ele>149.7</ele>
        <time>2021-09-05T14:32:31Z</time>
      </trkpt>
      <trkpt lat="44.51215" lon="1.37722">
        <ele>149.8</ele>
        <time>2021-09-05T14:32:33Z</time>
      </trkpt>
      <trkpt lat="44.51216" lon="1.3772">
        <ele>150</ele>
        <time>2021-09-05T14:32:34Z</time>
      </trkpt>
      <trkpt lat="44.51217" lon="1.37719">
        <ele>150.2</ele>
        <time>2021-09-05T14:32:36Z</time>
      </trkpt>
      <trkpt lat="44.51217" lon="1.37717">
        <ele>150.4</ele>
        <time>2021-09-05T14:32:38Z</time>
      </trkpt>
      <trkpt lat="44.51218" lon="1.37716">
        <ele>150.6</ele>
        <time>2021-09-05T14:32:39Z</time>
      </trkpt>
      <trkpt lat="44.51219" lon="1.37711">
        <ele>151.2</ele>
        <time>2021-09-05T14:32:41Z</time>
      </trkpt>
      <trkpt lat="44.51219" lon="1.37708">
        <ele>151.4</ele>
        <time>2021-09-05T14:32:44Z</time>
      </trkpt>
      <trkpt lat="44.51219" lon="1.37706">
        <ele>151.7</ele>
        <time>2021-09-05T14:32:45Z</time>
      </trkpt>
      <trkpt lat="44.51219" lon="1.37703">
        <ele>152</ele>
        <time>2021-09-05T14:32:46Z</time>
      </trkpt>
      <trkpt lat="44.5122" lon="1.377">
        <ele>152.3</ele>
        <time>2021-09-05T14:32:48Z</time>
      </trkpt>
      <trkpt lat="44.51219" lon="1.37695">
        <ele>152.8</ele>
        <time>2021-09-05T14:32:50Z</time>
      </trkpt>
      <trkpt lat="44.51218" lon="1.37691">
        <ele>153.2</ele>
        <time>2021-09-05T14:32:52Z</time>
      </trkpt>
      <trkpt lat="44.51217" lon="1.37687">
        <ele>153.6</ele>
        <time>2021-09-05T14:32:53Z</time>
      </trkpt>
      <trkpt lat="44.51216" lon="1.37685">
        <ele>153.8</ele>
        <time>2021-09-05T14:32:55Z</time>
      </trkpt>
      <trkpt lat="44.51214" lon="1.37682">
        <ele>154.3</ele>
        <time>2021-09-05T14:32:56Z</time>
      </trkpt>
      <trkpt lat="44.51212" lon="1.37679">
        <ele>154.6</ele>
        <time>2021-09-05T14:32:58Z</time>
      </trkpt>
      <trkpt lat="44.51212" lon="1.37678">
        <ele>154.7</ele>
        <time>2021-09-05T14:33:00Z</time>
      </trkpt>
      <trkpt lat="44.51211" lon="1.37674">
        <ele>155</ele>
        <time>2021-09-05T14:33:01Z</time>
      </trkpt>
      <trkpt lat="44.51211" lon="1.37673">
        <ele>155.2</ele>
        <time>2021-09-05T14:33:03Z</time>
      </trkpt>
      <trkpt lat="44.51212" lon="1.3767">
        <ele>155.6</ele>
        <time>2021-09-05T14:33:04Z</time>
      </trkpt>
      <trkpt lat="44.51212" lon="1.37668">
        <ele>155.7</ele>
        <time>2021-09-05T14:33:06Z</time>
      </trkpt>
      <trkpt lat="44.51214" lon="1.37666">
        <ele>155.9</ele>
        <time>2021-09-05T14:33:08Z</time>
      </trkpt>
      <trkpt lat="44.51214" lon="1.37665">
        <ele>156</ele>
        <time>2021-09-05T14:33:10Z</time>
      </trkpt>
      <trkpt lat="44.51213" lon="1.37661">
        <ele>156.3</ele>
        <time>2021-09-05T14:33:12Z</time>
      </trkpt>
      <trkpt lat="44.51213" lon="1.37659">
        <ele>156.4</ele>
        <time>2021-09-05T14:33:14Z</time>
      </trkpt>
      <trkpt lat="44.51212" lon="1.37655">
        <ele>156.8</ele>
        <time>2021-09-05T14:33:16Z</time>
      </trkpt>
      <trkpt lat="44.51211" lon="1.37654">
        <ele>156.9</ele>
        <time>2021-09-05T14:33:18Z</time>
      </trkpt>
      <trkpt lat="44.51212" lon="1.37649">
        <ele>157.2</ele>
        <time>2021-09-05T14:33:20Z</time>
      </trkpt>
      <trkpt lat="44.51212" lon="1.37646">
        <ele>157.4</ele>
        <time>2021-09-05T14:33:21Z</time>
      </trkpt>
      <trkpt lat="44.51211" lon="1.3764">
        <ele>157.7</ele>
        <time>2021-09-05T14:33:23Z</time>
      </trkpt>
      <trkpt lat="44.5121" lon="1.37634">
        <ele>158.1</ele>
        <time>2021-09-05T14:33:25Z</time>
      </trkpt>
      <trkpt lat="44.51208" lon="1.37629">
        <ele>158.4</ele>
        <time>2021-09-05T14:33:26Z</time>
      </trkpt>
      <trkpt lat="44.51208" lon="1.37628">
        <ele>158.5</ele>
        <time>2021-09-05T14:33:27Z</time>
      </trkpt>
      <trkpt lat="44.51206" lon="1.37622">
        <ele>158.8</ele>
        <time>2021-09-05T14:33:29Z</time>
      </trkpt>
      <trkpt lat="44.51205" lon="1.37615">
        <ele>159.2</ele>
        <time>2021-09-05T14:33:31Z</time>
      </trkpt>
      <trkpt lat="44.51205" lon="1.3761">
        <ele>159.2</ele>
        <time>2021-09-05T14:33:33Z</time>
      </trkpt>
      <trkpt lat="44.51207" lon="1.37604">
        <ele>159.1</ele>
        <time>2021-09-05T14:33:35Z</time>
      </trkpt>
      <trkpt lat="44.51208" lon="1.37603">
        <ele>159.1</ele>
        <time>2021-09-05T14:33:36Z</time>
      </trkpt>
      <trkpt lat="44.51209" lon="1.37601">
        <ele>159</ele>
        <time>2021-09-05T14:33:37Z</time>
      </trkpt>
      <trkpt lat="44.5121" lon="1.37598">
        <ele>159</ele>
        <time>2021-09-05T14:33:38Z</time>
      </trkpt>
      <trkpt lat="44.51211" lon="1.37596">
        <ele>158.9</ele>
        <time>2021-09-05T14:33:40Z</time>
      </trkpt>
      <trkpt lat="44.51211" lon="1.37594">
        <ele>158.9</ele>
        <time>2021-09-05T14:33:42Z</time>
      </trkpt>
      <trkpt lat="44.51212" lon="1.37593">
        <ele>158.8</ele>
        <time>2021-09-05T14:33:44Z</time>
      </trkpt>
      <trkpt lat="44.51212" lon="1.37592">
        <ele>158.8</ele>
        <time>2021-09-05T14:33:45Z</time>
      </trkpt>
      <trkpt lat="44.51213" lon="1.3759">
        <ele>158.7</ele>
        <time>2021-09-05T14:33:48Z</time>
      </trkpt>
      <trkpt lat="44.51217" lon="1.3759">
        <ele>159.8</ele>
        <time>2021-09-05T14:33:52Z</time>
      </trkpt>
      <trkpt lat="44.51217" lon="1.3759">
        <ele>160.3</ele>
        <time>2021-09-05T14:33:53Z</time>
      </trkpt>
      <trkpt lat="44.51218" lon="1.37592">
        <ele>161.8</ele>
        <time>2021-09-05T14:33:54Z</time>
      </trkpt>
      <trkpt lat="44.5122" lon="1.37593">
        <ele>162.3</ele>
        <time>2021-09-05T14:33:56Z</time>
      </trkpt>
      <trkpt lat="44.51223" lon="1.37597">
        <ele>163.4</ele>
        <time>2021-09-05T14:33:58Z</time>
      </trkpt>
      <trkpt lat="44.51224" lon="1.37598">
        <ele>163.9</ele>
        <time>2021-09-05T14:33:59Z</time>
      </trkpt>
      <trkpt lat="44.51225" lon="1.37602">
        <ele>164.9</ele>
        <time>2021-09-05T14:34:01Z</time>
      </trkpt>
      <trkpt lat="44.51226" lon="1.37607">
        <ele>165.3</ele>
        <time>2021-09-05T14:34:03Z</time>
      </trkpt>
      <trkpt lat="44.51228" lon="1.37611">
        <ele>166.4</ele>
        <time>2021-09-05T14:34:06Z</time>
      </trkpt>
      <trkpt lat="44.51229" lon="1.37612">
        <ele>166.4</ele>
        <time>2021-09-05T14:34:07Z</time>
      </trkpt>
      <trkpt lat="44.51229" lon="1.37612">
        <ele>166.5</ele>
        <time>2021-09-05T14:34:08Z</time>
      </trkpt>
      <trkpt lat="44.51229" lon="1.37612">
        <ele>166.5</ele>
        <time>2021-09-05T14:34:10Z</time>
      </trkpt>
      <trkpt lat="44.5123" lon="1.37613">
        <ele>166.6</ele>
        <time>2021-09-05T14:34:12Z</time>
      </trkpt>
      <trkpt lat="44.5123" lon="1.37613">
        <ele>166.6</ele>
        <time>2021-09-05T14:34:14Z</time>
      </trkpt>
      <trkpt lat="44.51231" lon="1.37613">
        <ele>166.7</ele>
        <time>2021-09-05T14:34:15Z</time>
      </trkpt>
      <trkpt lat="44.51231" lon="1.37614">
        <ele>166.7</ele>
        <time>2021-09-05T14:34:17Z</time>
      </trkpt>
      <trkpt lat="44.51232" lon="1.37614">
        <ele>166.8</ele>
        <time>2021-09-05T14:34:18Z</time>
      </trkpt>
      <trkpt lat="44.51232" lon="1.37612">
        <ele>166.9</ele>
        <time>2021-09-05T14:34:19Z</time>
      </trkpt>
      <trkpt lat="44.51232" lon="1.3761">
        <ele>167</ele>
        <time>2021-09-05T14:34:20Z</time>
      </trkpt>
      <trkpt lat="44.51232" lon="1.37606">
        <ele>167.2</ele>
        <time>2021-09-05T14:34:22Z</time>
      </trkpt>
      <trkpt lat="44.51232" lon="1.37603">
        <ele>167.4</ele>
        <time>2021-09-05T14:34:24Z</time>
      </trkpt>
      <trkpt lat="44.51232" lon="1.37601">
        <ele>167.6</ele>
        <time>2021-09-05T14:34:25Z</time>
      </trkpt>
      <trkpt lat="44.51233" lon="1.37597">
        <ele>167.8</ele>
        <time>2021-09-05T14:34:27Z</time>
      </trkpt>
      <trkpt lat="44.51234" lon="1.37593">
        <ele>168</ele>
        <time>2021-09-05T14:34:29Z</time>
      </trkpt>
      <trkpt lat="44.51234" lon="1.37592">
        <ele>168.1</ele>
        <time>2021-09-05T14:34:30Z</time>
      </trkpt>
      <trkpt lat="44.51236" lon="1.37587">
        <ele>168.3</ele>
        <time>2021-09-05T14:34:32Z</time>
      </trkpt>
      <trkpt lat="44.51237" lon="1.37583">
        <ele>168.6</ele>
        <time>2021-09-05T14:34:34Z</time>
      </trkpt>
      <trkpt lat="44.51237" lon="1.37582">
        <ele>168.7</ele>
        <time>2021-09-05T14:34:35Z</time>
      </trkpt>
      <trkpt lat="44.51238" lon="1.3758">
        <ele>168.8</ele>
        <time>2021-09-05T14:34:36Z</time>
      </trkpt>
      <trkpt lat="44.51239" lon="1.37577">
        <ele>169</ele>
        <time>2021-09-05T14:34:37Z</time>
      </trkpt>
      <trkpt lat="44.5124" lon="1.37575">
        <ele>169.2</ele>
        <time>2021-09-05T14:34:38Z</time>
      </trkpt>
      <trkpt lat="44.51241" lon="1.37573">
        <ele>169.3</ele>
        <time>2021-09-05T14:34:39Z</time>
      </trkpt>
      <trkpt lat="44.51243" lon="1.37569">
        <ele>169.7</ele>
        <time>2021-09-05T14:34:41Z</time>
      </trkpt>
      <trkpt lat="44.51244" lon="1.37568">
        <ele>169.8</ele>
        <time>2021-09-05T14:34:43Z</time>
      </trkpt>
      <trkpt lat="44.51245" lon="1.37566">
        <ele>169.9</ele>
        <time>2021-09-05T14:34:45Z</time>
      </trkpt>
      <trkpt lat="44.51245" lon="1.37565">
        <ele>170.1</ele>
        <time>2021-09-05T14:34:46Z</time>
      </trkpt>
      <trkpt lat="44.51246" lon="1.37562">
        <ele>170.3</ele>
        <time>2021-09-05T14:34:48Z</time>
      </trkpt>
      <trkpt lat="44.51248" lon="1.37557">
        <ele>170.7</ele>
        <time>2021-09-05T14:34:50Z</time>
      </trkpt>
      <trkpt lat="44.51249" lon="1.37553">
        <ele>171</ele>
        <time>2021-09-05T14:34:52Z</time>
      </trkpt>
      <trkpt lat="44.51251" lon="1.37548">
        <ele>171.5</ele>
        <time>2021-09-05T14:34:55Z</time>
      </trkpt>
      <trkpt lat="44.51252" lon="1.37547">
        <ele>171.7</ele>
        <time>2021-09-05T14:34:56Z</time>
      </trkpt>
      <trkpt lat="44.51253" lon="1.37544">
        <ele>172</ele>
        <time>2021-09-05T14:34:58Z</time>
      </trkpt>
      <trkpt lat="44.51255" lon="1.37541">
        <ele>172.3</ele>
        <time>2021-09-05T14:34:59Z</time>
      </trkpt>
      <trkpt lat="44.51257" lon="1.37538">
        <ele>172.6</ele>
        <time>2021-09-05T14:35:01Z</time>
      </trkpt>
      <trkpt lat="44.51257" lon="1.37536">
        <ele>172.8</ele>
        <time>2021-09-05T14:35:03Z</time>
      </trkpt>
      <trkpt lat="44.51258" lon="1.37535">
        <ele>172.9</ele>
        <time>2021-09-05T14:35:04Z</time>
      </trkpt>
      <trkpt lat="44.51259" lon="1.37534">
        <ele>173.1</ele>
        <time>2021-09-05T14:35:05Z</time>
      </trkpt>
      <trkpt lat="44.51261" lon="1.37532">
        <ele>173.4</ele>
        <time>2021-09-05T14:35:07Z</time>
      </trkpt>
      <trkpt lat="44.51264" lon="1.37529">
        <ele>173.9</ele>
        <time>2021-09-05T14:35:09Z</time>
      </trkpt>
      <trkpt lat="44.51264" lon="1.37528">
        <ele>174</ele>
        <time>2021-09-05T14:35:10Z</time>
      </trkpt>
      <trkpt lat="44.51265" lon="1.37527">
        <ele>174.1</ele>
        <time>2021-09-05T14:35:11Z</time>
      </trkpt>
      <trkpt lat="44.51267" lon="1.37525">
        <ele>174.5</ele>
        <time>2021-09-05T14:35:13Z</time>
      </trkpt>
      <trkpt lat="44.51268" lon="1.37524">
        <ele>174.6</ele>
        <time>2021-09-05T14:35:14Z</time>
      </trkpt>
      <trkpt lat="44.5127" lon="1.37522">
        <ele>175</ele>
        <time>2021-09-05T14:35:16Z</time>
      </trkpt>
      <trkpt lat="44.51271" lon="1.37521">
        <ele>175.1</ele>
        <time>2021-09-05T14:35:17Z</time>
      </trkpt>
      <trkpt lat="44.51272" lon="1.3752">
        <ele>175.4</ele>
        <time>2021-09-05T14:35:19Z</time>
      </trkpt>
      <trkpt lat="44.51274" lon="1.37518">
        <ele>175.7</ele>
        <time>2021-09-05T14:35:21Z</time>
      </trkpt>
      <trkpt lat="44.51277" lon="1.37517">
        <ele>176.1</ele>
        <time>2021-09-05T14:35:23Z</time>
      </trkpt>
      <trkpt lat="44.51278" lon="1.37516">
        <ele>176.3</ele>
        <time>2021-09-05T14:35:24Z</time>
      </trkpt>
      <trkpt lat="44.51279" lon="1.37515">
        <ele>176.5</ele>
        <time>2021-09-05T14:35:25Z</time>
      </trkpt>
      <trkpt lat="44.5128" lon="1.37514">
        <ele>176.6</ele>
        <time>2021-09-05T14:35:26Z</time>
      </trkpt>
      <trkpt lat="44.51282" lon="1.37512">
        <ele>176.9</ele>
        <time>2021-09-05T14:35:27Z</time>
      </trkpt>
      <trkpt lat="44.51282" lon="1.37511">
        <ele>177.1</ele>
        <time>2021-09-05T14:35:29Z</time>
      </trkpt>
      <trkpt lat="44.51283" lon="1.3751">
        <ele>177.2</ele>
        <time>2021-09-05T14:35:30Z</time>
      </trkpt>
      <trkpt lat="44.51286" lon="1.37508">
        <ele>177.7</ele>
        <time>2021-09-05T14:35:32Z</time>
      </trkpt>
      <trkpt lat="44.51288" lon="1.37506">
        <ele>178.1</ele>
        <time>2021-09-05T14:35:33Z</time>
      </trkpt>
      <trkpt lat="44.51289" lon="1.37505">
        <ele>178.2</ele>
        <time>2021-09-05T14:35:35Z</time>
      </trkpt>
      <trkpt lat="44.5129" lon="1.37504">
        <ele>178.4</ele>
        <time>2021-09-05T14:35:36Z</time>
      </trkpt>
      <trkpt lat="44.5129" lon="1.37503">
        <ele>178.5</ele>
        <time>2021-09-05T14:35:37Z</time>
      </trkpt>
      <trkpt lat="44.51291" lon="1.37501">
        <ele>178.7</ele>
        <time>2021-09-05T14:35:39Z</time>
      </trkpt>
      <trkpt lat="44.51291" lon="1.37501">
        <ele>178.7</ele>
        <time>2021-09-05T14:35:41Z</time>
      </trkpt>
      <trkpt lat="44.51291" lon="1.37501">
        <ele>178.7</ele>
        <time>2021-09-05T14:35:42Z</time>
      </trkpt>
      <trkpt lat="44.51291" lon="1.37501">
        <ele>178.7</ele>
        <time>2021-09-05T14:35:43Z</time>
      </trkpt>
      <trkpt lat="44.51291" lon="1.375">
        <ele>178.8</ele>
        <time>2021-09-05T14:35:45Z</time>
      </trkpt>
      <trkpt lat="44.51301" lon="1.37488">
        <ele>180.8</ele>
        <time>2021-09-05T14:36:00Z</time>
      </trkpt>
      <trkpt lat="44.51306" lon="1.37484">
        <ele>181.6</ele>
        <time>2021-09-05T14:36:02Z</time>
      </trkpt>
      <trkpt lat="44.51306" lon="1.37484">
        <ele>181.8</ele>
        <time>2021-09-05T14:36:03Z</time>
      </trkpt>
      <trkpt lat="44.51307" lon="1.37483">
        <ele>181.9</ele>
        <time>2021-09-05T14:36:04Z</time>
      </trkpt>
      <trkpt lat="44.51307" lon="1.37483">
        <ele>181.9</ele>
        <time>2021-09-05T14:36:06Z</time>
      </trkpt>
      <trkpt lat="44.51307" lon="1.37482">
        <ele>182</ele>
        <time>2021-09-05T14:36:07Z</time>
      </trkpt>
      <trkpt lat="44.51307" lon="1.37482">
        <ele>182</ele>
        <time>2021-09-05T14:36:09Z</time>
      </trkpt>
      <trkpt lat="44.51308" lon="1.37482">
        <ele>182.1</ele>
        <time>2021-09-05T14:36:10Z</time>
      </trkpt>
      <trkpt lat="44.51309" lon="1.3748">
        <ele>182.5</ele>
        <time>2021-09-05T14:36:11Z</time>
      </trkpt>
      <trkpt lat="44.51311" lon="1.37478">
        <ele>182.8</ele>
        <time>2021-09-05T14:36:13Z</time>
      </trkpt>
      <trkpt lat="44.51312" lon="1.37476">
        <ele>183.1</ele>
        <time>2021-09-05T14:36:14Z</time>
      </trkpt>
      <trkpt lat="44.51312" lon="1.37475">
        <ele>183.3</ele>
        <time>2021-09-05T14:36:15Z</time>
      </trkpt>
      <trkpt lat="44.51316" lon="1.37469">
        <ele>184.4</ele>
        <time>2021-09-05T14:36:17Z</time>
      </trkpt>
      <trkpt lat="44.51319" lon="1.37464">
        <ele>185.3</ele>
        <time>2021-09-05T14:36:19Z</time>
      </trkpt>
      <trkpt lat="44.51321" lon="1.37459">
        <ele>186.2</ele>
        <time>2021-09-05T14:36:21Z</time>
      </trkpt>
      <trkpt lat="44.51324" lon="1.37454">
        <ele>187.2</ele>
        <time>2021-09-05T14:36:36Z</time>
      </trkpt>
      <trkpt lat="44.51327" lon="1.37449">
        <ele>188.1</ele>
        <time>2021-09-05T14:36:37Z</time>
      </trkpt>
      <trkpt lat="44.51327" lon="1.37448">
        <ele>188.3</ele>
        <time>2021-09-05T14:36:38Z</time>
      </trkpt>
      <trkpt lat="44.51328" lon="1.37447">
        <ele>188.4</ele>
        <time>2021-09-05T14:36:40Z</time>
      </trkpt>
      <trkpt lat="44.51328" lon="1.37446">
        <ele>188.6</ele>
        <time>2021-09-05T14:36:41Z</time>
      </trkpt>
      <trkpt lat="44.5133" lon="1.37445">
        <ele>189</ele>
        <time>2021-09-05T14:36:43Z</time>
      </trkpt>
      <trkpt lat="44.51333" lon="1.37442">
        <ele>189.8</ele>
        <time>2021-09-05T14:36:44Z</time>
      </trkpt>
      <trkpt lat="44.51334" lon="1.3744">
        <ele>190.1</ele>
        <time>2021-09-05T14:36:45Z</time>
      </trkpt>
      <trkpt lat="44.51335" lon="1.3744">
        <ele>190.2</ele>
        <time>2021-09-05T14:36:46Z</time>
      </trkpt>
      <trkpt lat="44.51335" lon="1.37438">
        <ele>190.4</ele>
        <time>2021-09-05T14:36:48Z</time>
      </trkpt>
      <trkpt lat="44.51335" lon="1.37437">
        <ele>190.5</ele>
        <time>2021-09-05T14:36:49Z</time>
      </trkpt>
      <trkpt lat="44.51336" lon="1.37437">
        <ele>190.6</ele>
        <time>2021-09-05T14:36:50Z</time>
      </trkpt>
      <trkpt lat="44.51336" lon="1.37436">
        <ele>190.7</ele>
        <time>2021-09-05T14:36:52Z</time>
      </trkpt>
      <trkpt lat="44.51336" lon="1.37436">
        <ele>190.8</ele>
        <time>2021-09-05T14:36:53Z</time>
      </trkpt>
      <trkpt lat="44.51336" lon="1.37435">
        <ele>190.8</ele>
        <time>2021-09-05T14:36:55Z</time>
      </trkpt>
      <trkpt lat="44.5134" lon="1.37429">
        <ele>191.9</ele>
        <time>2021-09-05T14:37:01Z</time>
      </trkpt>
      <trkpt lat="44.51342" lon="1.37426">
        <ele>192.6</ele>
        <time>2021-09-05T14:37:02Z</time>
      </trkpt>
      <trkpt lat="44.51343" lon="1.37424">
        <ele>192.8</ele>
        <time>2021-09-05T14:37:03Z</time>
      </trkpt>
      <trkpt lat="44.51343" lon="1.37423">
        <ele>193</ele>
        <time>2021-09-05T14:37:04Z</time>
      </trkpt>
      <trkpt lat="44.51344" lon="1.37421">
        <ele>193.2</ele>
        <time>2021-09-05T14:37:06Z</time>
      </trkpt>
      <trkpt lat="44.51345" lon="1.37419">
        <ele>193.5</ele>
        <time>2021-09-05T14:37:07Z</time>
      </trkpt>
      <trkpt lat="44.51345" lon="1.37418">
        <ele>193.7</ele>
        <time>2021-09-05T14:37:08Z</time>
      </trkpt>
      <trkpt lat="44.51346" lon="1.37417">
        <ele>193.9</ele>
        <time>2021-09-05T14:37:10Z</time>
      </trkpt>
      <trkpt lat="44.51347" lon="1.37416">
        <ele>194</ele>
        <time>2021-09-05T14:37:11Z</time>
      </trkpt>
      <trkpt lat="44.51347" lon="1.37414">
        <ele>194.2</ele>
        <time>2021-09-05T14:37:12Z</time>
      </trkpt>
      <trkpt lat="44.51348" lon="1.37412">
        <ele>194.5</ele>
        <time>2021-09-05T14:37:13Z</time>
      </trkpt>
      <trkpt lat="44.51349" lon="1.37411">
        <ele>194.6</ele>
        <time>2021-09-05T14:37:14Z</time>
      </trkpt>
      <trkpt lat="44.51349" lon="1.37409">
        <ele>194.8</ele>
        <time>2021-09-05T14:37:16Z</time>
      </trkpt>
      <trkpt lat="44.5135" lon="1.37407">
        <ele>195</ele>
        <time>2021-09-05T14:37:17Z</time>
      </trkpt>
      <trkpt lat="44.51351" lon="1.37402">
        <ele>195.5</ele>
        <time>2021-09-05T14:37:19Z</time>
      </trkpt>
      <trkpt lat="44.51351" lon="1.374">
        <ele>195.7</ele>
        <time>2021-09-05T14:37:20Z</time>
      </trkpt>
      <trkpt lat="44.51352" lon="1.37395">
        <ele>196.1</ele>
        <time>2021-09-05T14:37:21Z</time>
      </trkpt>
      <trkpt lat="44.51353" lon="1.37392">
        <ele>196.3</ele>
        <time>2021-09-05T14:37:22Z</time>
      </trkpt>
      <trkpt lat="44.51354" lon="1.37389">
        <ele>196.5</ele>
        <time>2021-09-05T14:37:24Z</time>
      </trkpt>
      <trkpt lat="44.51354" lon="1.37387">
        <ele>196.8</ele>
        <time>2021-09-05T14:37:25Z</time>
      </trkpt>
      <trkpt lat="44.51355" lon="1.37384">
        <ele>197</ele>
        <time>2021-09-05T14:37:26Z</time>
      </trkpt>
      <trkpt lat="44.51356" lon="1.37381">
        <ele>197.2</ele>
        <time>2021-09-05T14:37:29Z</time>
      </trkpt>
      <trkpt lat="44.51357" lon="1.37378">
        <ele>197.4</ele>
        <time>2021-09-05T14:37:30Z</time>
      </trkpt>
      <trkpt lat="44.51357" lon="1.37375">
        <ele>197.6</ele>
        <time>2021-09-05T14:37:40Z</time>
      </trkpt>
      <trkpt lat="44.51358" lon="1.37372">
        <ele>197.8</ele>
        <time>2021-09-05T14:37:41Z</time>
      </trkpt>
      <trkpt lat="44.51359" lon="1.3737">
        <ele>197.9</ele>
        <time>2021-09-05T14:37:42Z</time>
      </trkpt>
      <trkpt lat="44.5136" lon="1.37364">
        <ele>198.3</ele>
        <time>2021-09-05T14:37:44Z</time>
      </trkpt>
      <trkpt lat="44.5136" lon="1.3736">
        <ele>198.5</ele>
        <time>2021-09-05T14:37:45Z</time>
      </trkpt>
      <trkpt lat="44.51361" lon="1.37357">
        <ele>198.7</ele>
        <time>2021-09-05T14:37:46Z</time>
      </trkpt>
      <trkpt lat="44.51362" lon="1.37356">
        <ele>198.8</ele>
        <time>2021-09-05T14:37:47Z</time>
      </trkpt>
      <trkpt lat="44.51363" lon="1.37354">
        <ele>198.9</ele>
        <time>2021-09-05T14:37:49Z</time>
      </trkpt>
      <trkpt lat="44.51364" lon="1.37353">
        <ele>199</ele>
        <time>2021-09-05T14:37:50Z</time>
      </trkpt>
      <trkpt lat="44.51365" lon="1.37351">
        <ele>199.1</ele>
        <time>2021-09-05T14:37:51Z</time>
      </trkpt>
      <trkpt lat="44.51366" lon="1.3735">
        <ele>199.3</ele>
        <time>2021-09-05T14:37:52Z</time>
      </trkpt>
      <trkpt lat="44.51367" lon="1.37348">
        <ele>199.4</ele>
        <time>2021-09-05T14:37:54Z</time>
      </trkpt>
      <trkpt lat="44.51368" lon="1.37346">
        <ele>199.6</ele>
        <time>2021-09-05T14:37:55Z</time>
      </trkpt>
      <trkpt lat="44.51369" lon="1.37345">
        <ele>199.7</ele>
        <time>2021-09-05T14:37:56Z</time>
      </trkpt>
      <trkpt lat="44.5137" lon="1.37344">
        <ele>199.7</ele>
        <time>2021-09-05T14:37:58Z</time>
      </trkpt>
      <trkpt lat="44.5137" lon="1.37344">
        <ele>199.8</ele>
        <time>2021-09-05T14:37:59Z</time>
      </trkpt>
      <trkpt lat="44.51373" lon="1.37341">
        <ele>200.1</ele>
        <time>2021-09-05T14:38:01Z</time>
      </trkpt>
      <trkpt lat="44.51374" lon="1.3734">
        <ele>200.2</ele>
        <time>2021-09-05T14:38:03Z</time>
      </trkpt>
      <trkpt lat="44.51376" lon="1.37337">
        <ele>200.5</ele>
        <time>2021-09-05T14:38:05Z</time>
      </trkpt>
      <trkpt lat="44.51378" lon="1.37334">
        <ele>200.8</ele>
        <time>2021-09-05T14:38:06Z</time>
      </trkpt>
      <trkpt lat="44.51378" lon="1.37333">
        <ele>200.9</ele>
        <time>2021-09-05T14:38:07Z</time>
      </trkpt>
      <trkpt lat="44.51379" lon="1.37332">
        <ele>201.1</ele>
        <time>2021-09-05T14:38:09Z</time>
      </trkpt>
      <trkpt lat="44.5138" lon="1.3733">
        <ele>201.2</ele>
        <time>2021-09-05T14:38:10Z</time>
      </trkpt>
      <trkpt lat="44.5138" lon="1.37329">
        <ele>201.3</ele>
        <time>2021-09-05T14:38:12Z</time>
      </trkpt>
      <trkpt lat="44.51382" lon="1.37326">
        <ele>201.7</ele>
        <time>2021-09-05T14:38:13Z</time>
      </trkpt>
      <trkpt lat="44.51383" lon="1.37325">
        <ele>201.8</ele>
        <time>2021-09-05T14:38:15Z</time>
      </trkpt>
      <trkpt lat="44.51384" lon="1.37324">
        <ele>201.9</ele>
        <time>2021-09-05T14:38:16Z</time>
      </trkpt>
      <trkpt lat="44.51385" lon="1.37323">
        <ele>202.1</ele>
        <time>2021-09-05T14:38:18Z</time>
      </trkpt>
      <trkpt lat="44.51386" lon="1.37322">
        <ele>202.2</ele>
        <time>2021-09-05T14:38:19Z</time>
      </trkpt>
      <trkpt lat="44.51387" lon="1.37321">
        <ele>202.5</ele>
        <time>2021-09-05T14:38:20Z</time>
      </trkpt>
      <trkpt lat="44.51388" lon="1.3732">
        <ele>202.6</ele>
        <time>2021-09-05T14:38:21Z</time>
      </trkpt>
      <trkpt lat="44.51389" lon="1.37319">
        <ele>202.8</ele>
        <time>2021-09-05T14:38:22Z</time>
      </trkpt>
      <trkpt lat="44.51392" lon="1.37315">
        <ele>203.3</ele>
        <time>2021-09-05T14:38:24Z</time>
      </trkpt>
      <trkpt lat="44.51393" lon="1.37314">
        <ele>203.5</ele>
        <time>2021-09-05T14:38:26Z</time>
      </trkpt>
      <trkpt lat="44.51394" lon="1.37313">
        <ele>203.7</ele>
        <time>2021-09-05T14:38:27Z</time>
      </trkpt>
      <trkpt lat="44.51395" lon="1.37312">
        <ele>203.8</ele>
        <time>2021-09-05T14:38:28Z</time>
      </trkpt>
      <trkpt lat="44.51398" lon="1.37309">
        <ele>204.3</ele>
        <time>2021-09-05T14:38:30Z</time>
      </trkpt>
      <trkpt lat="44.51399" lon="1.37309">
        <ele>204.4</ele>
        <time>2021-09-05T14:38:32Z</time>
      </trkpt>
      <trkpt lat="44.51399" lon="1.37308">
        <ele>204.4</ele>
        <time>2021-09-05T14:38:33Z</time>
      </trkpt>
      <trkpt lat="44.514" lon="1.37308">
        <ele>204.5</ele>
        <time>2021-09-05T14:38:34Z</time>
      </trkpt>
      <trkpt lat="44.514" lon="1.37307">
        <ele>204.7</ele>
        <time>2021-09-05T14:38:36Z</time>
      </trkpt>
      <trkpt lat="44.51401" lon="1.37306">
        <ele>204.8</ele>
        <time>2021-09-05T14:38:37Z</time>
      </trkpt>
      <trkpt lat="44.51403" lon="1.37304">
        <ele>205</ele>
        <time>2021-09-05T14:38:39Z</time>
      </trkpt>
      <trkpt lat="44.51403" lon="1.37304">
        <ele>205.1</ele>
        <time>2021-09-05T14:38:40Z</time>
      </trkpt>
      <trkpt lat="44.51404" lon="1.37303">
        <ele>205.2</ele>
        <time>2021-09-05T14:38:42Z</time>
      </trkpt>
      <trkpt lat="44.51404" lon="1.37303">
        <ele>205.2</ele>
        <time>2021-09-05T14:38:44Z</time>
      </trkpt>
      <trkpt lat="44.51405" lon="1.37302">
        <ele>205.3</ele>
        <time>2021-09-05T14:38:45Z</time>
      </trkpt>
      <trkpt lat="44.51406" lon="1.37302">
        <ele>205.4</ele>
        <time>2021-09-05T14:38:46Z</time>
      </trkpt>
      <trkpt lat="44.51409" lon="1.37301">
        <ele>205.8</ele>
        <time>2021-09-05T14:38:48Z</time>
      </trkpt>
      <trkpt lat="44.51411" lon="1.373">
        <ele>206.1</ele>
        <time>2021-09-05T14:38:50Z</time>
      </trkpt>
      <trkpt lat="44.51414" lon="1.37299">
        <ele>206.4</ele>
        <time>2021-09-05T14:38:52Z</time>
      </trkpt>
      <trkpt lat="44.51416" lon="1.37298">
        <ele>206.7</ele>
        <time>2021-09-05T14:38:53Z</time>
      </trkpt>
      <trkpt lat="44.51418" lon="1.37298">
        <ele>206.8</ele>
        <time>2021-09-05T14:38:54Z</time>
      </trkpt>
      <trkpt lat="44.51421" lon="1.37296">
        <ele>207.2</ele>
        <time>2021-09-05T14:38:56Z</time>
      </trkpt>
      <trkpt lat="44.51421" lon="1.37296">
        <ele>207.3</ele>
        <time>2021-09-05T14:38:57Z</time>
      </trkpt>
      <trkpt lat="44.51422" lon="1.37295">
        <ele>207.4</ele>
        <time>2021-09-05T14:38:58Z</time>
      </trkpt>
      <trkpt lat="44.51424" lon="1.37294">
        <ele>207.6</ele>
        <time>2021-09-05T14:38:59Z</time>
      </trkpt>
      <trkpt lat="44.51425" lon="1.37293">
        <ele>207.8</ele>
        <time>2021-09-05T14:39:01Z</time>
      </trkpt>
      <trkpt lat="44.51427" lon="1.37292">
        <ele>208</ele>
        <time>2021-09-05T14:39:02Z</time>
      </trkpt>
      <trkpt lat="44.51429" lon="1.37291">
        <ele>208.2</ele>
        <time>2021-09-05T14:39:03Z</time>
      </trkpt>
      <trkpt lat="44.5143" lon="1.3729">
        <ele>208.4</ele>
        <time>2021-09-05T14:39:05Z</time>
      </trkpt>
      <trkpt lat="44.5143" lon="1.37289">
        <ele>208.5</ele>
        <time>2021-09-05T14:39:06Z</time>
      </trkpt>
      <trkpt lat="44.51431" lon="1.37289">
        <ele>208.6</ele>
        <time>2021-09-05T14:39:07Z</time>
      </trkpt>
      <trkpt lat="44.51432" lon="1.37288">
        <ele>208.7</ele>
        <time>2021-09-05T14:39:08Z</time>
      </trkpt>
      <trkpt lat="44.51433" lon="1.37287">
        <ele>208.8</ele>
        <time>2021-09-05T14:39:10Z</time>
      </trkpt>
      <trkpt lat="44.51433" lon="1.37287">
        <ele>208.9</ele>
        <time>2021-09-05T14:39:11Z</time>
      </trkpt>
      <trkpt lat="44.51435" lon="1.37286">
        <ele>209.2</ele>
        <time>2021-09-05T14:39:12Z</time>
      </trkpt>
      <trkpt lat="44.51436" lon="1.37286">
        <ele>209.3</ele>
        <time>2021-09-05T14:39:14Z</time>
      </trkpt>
      <trkpt lat="44.51436" lon="1.37286">
        <ele>209.3</ele>
        <time>2021-09-05T14:39:15Z</time>
      </trkpt>
      <trkpt lat="44.51438" lon="1.37285">
        <ele>209.5</ele>
        <time>2021-09-05T14:39:16Z</time>
      </trkpt>
      <trkpt lat="44.51439" lon="1.37285">
        <ele>209.7</ele>
        <time>2021-09-05T14:39:18Z</time>
      </trkpt>
      <trkpt lat="44.5144" lon="1.37284">
        <ele>209.9</ele>
        <time>2021-09-05T14:39:19Z</time>
      </trkpt>
      <trkpt lat="44.51441" lon="1.37284">
        <ele>210</ele>
        <time>2021-09-05T14:39:20Z</time>
      </trkpt>
      <trkpt lat="44.51441" lon="1.37284">
        <ele>210</ele>
        <time>2021-09-05T14:39:22Z</time>
      </trkpt>
      <trkpt lat="44.51442" lon="1.37283">
        <ele>210.1</ele>
        <time>2021-09-05T14:39:23Z</time>
      </trkpt>
      <trkpt lat="44.51442" lon="1.37283">
        <ele>210.2</ele>
        <time>2021-09-05T14:39:24Z</time>
      </trkpt>
      <trkpt lat="44.51442" lon="1.37283">
        <ele>210.2</ele>
        <time>2021-09-05T14:39:26Z</time>
      </trkpt>
      <trkpt lat="44.51443" lon="1.37282">
        <ele>210.3</ele>
        <time>2021-09-05T14:39:27Z</time>
      </trkpt>
      <trkpt lat="44.51443" lon="1.37282">
        <ele>210.3</ele>
        <time>2021-09-05T14:39:29Z</time>
      </trkpt>
      <trkpt lat="44.51445" lon="1.37281">
        <ele>210.6</ele>
        <time>2021-09-05T14:39:32Z</time>
      </trkpt>
      <trkpt lat="44.51449" lon="1.37277">
        <ele>211.3</ele>
        <time>2021-09-05T14:39:33Z</time>
      </trkpt>
      <trkpt lat="44.51451" lon="1.37275">
        <ele>211.6</ele>
        <time>2021-09-05T14:39:35Z</time>
      </trkpt>
      <trkpt lat="44.51452" lon="1.37274">
        <ele>211.8</ele>
        <time>2021-09-05T14:39:36Z</time>
      </trkpt>
      <trkpt lat="44.51453" lon="1.37274">
        <ele>212</ele>
        <time>2021-09-05T14:39:37Z</time>
      </trkpt>
      <trkpt lat="44.51457" lon="1.37273">
        <ele>212.4</ele>
        <time>2021-09-05T14:39:39Z</time>
      </trkpt>
      <trkpt lat="44.51459" lon="1.37271">
        <ele>212.7</ele>
        <time>2021-09-05T14:39:40Z</time>
      </trkpt>
      <trkpt lat="44.51459" lon="1.37271">
        <ele>212.8</ele>
        <time>2021-09-05T14:39:42Z</time>
      </trkpt>
      <trkpt lat="44.5146" lon="1.3727">
        <ele>212.9</ele>
        <time>2021-09-05T14:39:43Z</time>
      </trkpt>
      <trkpt lat="44.51462" lon="1.37269">
        <ele>213.1</ele>
        <time>2021-09-05T14:39:44Z</time>
      </trkpt>
      <trkpt lat="44.51462" lon="1.37269">
        <ele>213.2</ele>
        <time>2021-09-05T14:39:46Z</time>
      </trkpt>
      <trkpt lat="44.51463" lon="1.37268">
        <ele>213.3</ele>
        <time>2021-09-05T14:39:47Z</time>
      </trkpt>
      <trkpt lat="44.51464" lon="1.37268">
        <ele>213.4</ele>
        <time>2021-09-05T14:39:48Z</time>
      </trkpt>
      <trkpt lat="44.51465" lon="1.37267">
        <ele>213.6</ele>
        <time>2021-09-05T14:39:49Z</time>
      </trkpt>
      <trkpt lat="44.51468" lon="1.37266">
        <ele>213.8</ele>
        <time>2021-09-05T14:39:51Z</time>
      </trkpt>
      <trkpt lat="44.51468" lon="1.37266">
        <ele>213.9</ele>
        <time>2021-09-05T14:39:52Z</time>
      </trkpt>
      <trkpt lat="44.5147" lon="1.37265">
        <ele>214.1</ele>
        <time>2021-09-05T14:39:53Z</time>
      </trkpt>
      <trkpt lat="44.51472" lon="1.37264">
        <ele>214.3</ele>
        <time>2021-09-05T14:39:54Z</time>
      </trkpt>
      <trkpt lat="44.51474" lon="1.37264">
        <ele>214.6</ele>
        <time>2021-09-05T14:39:56Z</time>
      </trkpt>
      <trkpt lat="44.51476" lon="1.37264">
        <ele>214.8</ele>
        <time>2021-09-05T14:39:58Z</time>
      </trkpt>
      <trkpt lat="44.51477" lon="1.37264">
        <ele>214.9</ele>
        <time>2021-09-05T14:39:59Z</time>
      </trkpt>
      <trkpt lat="44.51478" lon="1.37264">
        <ele>215.1</ele>
        <time>2021-09-05T14:40:00Z</time>
      </trkpt>
      <trkpt lat="44.51481" lon="1.37265">
        <ele>215.4</ele>
        <time>2021-09-05T14:40:02Z</time>
      </trkpt>
      <trkpt lat="44.51482" lon="1.37265">
        <ele>215.6</ele>
        <time>2021-09-05T14:40:03Z</time>
      </trkpt>
      <trkpt lat="44.51484" lon="1.37263">
        <ele>215.8</ele>
        <time>2021-09-05T14:40:04Z</time>
      </trkpt>
      <trkpt lat="44.51487" lon="1.37261">
        <ele>216.2</ele>
        <time>2021-09-05T14:40:06Z</time>
      </trkpt>
      <trkpt lat="44.51489" lon="1.37261">
        <ele>216.5</ele>
        <time>2021-09-05T14:40:07Z</time>
      </trkpt>
      <trkpt lat="44.5149" lon="1.37261">
        <ele>216.6</ele>
        <time>2021-09-05T14:40:09Z</time>
      </trkpt>
      <trkpt lat="44.51491" lon="1.37261">
        <ele>216.8</ele>
        <time>2021-09-05T14:40:10Z</time>
      </trkpt>
      <trkpt lat="44.51492" lon="1.37261">
        <ele>216.9</ele>
        <time>2021-09-05T14:40:11Z</time>
      </trkpt>
      <trkpt lat="44.51493" lon="1.37261">
        <ele>216.9</ele>
        <time>2021-09-05T14:40:12Z</time>
      </trkpt>
      <trkpt lat="44.51493" lon="1.3726">
        <ele>216.9</ele>
        <time>2021-09-05T14:40:14Z</time>
      </trkpt>
      <trkpt lat="44.51493" lon="1.3726">
        <ele>216.9</ele>
        <time>2021-09-05T14:40:16Z</time>
      </trkpt>
      <trkpt lat="44.51493" lon="1.3726">
        <ele>217</ele>
        <time>2021-09-05T14:40:17Z</time>
      </trkpt>
      <trkpt lat="44.51493" lon="1.3726">
        <ele>217</ele>
        <time>2021-09-05T14:40:18Z</time>
      </trkpt>
      <trkpt lat="44.51493" lon="1.3726">
        <ele>217</ele>
        <time>2021-09-05T14:40:20Z</time>
      </trkpt>
      <trkpt lat="44.51493" lon="1.3726">
        <ele>217</ele>
        <time>2021-09-05T14:40:21Z</time>
      </trkpt>
      <trkpt lat="44.51512" lon="1.37259">
        <ele>219.4</ele>
        <time>2021-09-05T14:40:32Z</time>
      </trkpt>
      <trkpt lat="44.51513" lon="1.37259">
        <ele>219.6</ele>
        <time>2021-09-05T14:40:34Z</time>
      </trkpt>
      <trkpt lat="44.51514" lon="1.37259">
        <ele>219.7</ele>
        <time>2021-09-05T14:40:35Z</time>
      </trkpt>
      <trkpt lat="44.51515" lon="1.37259">
        <ele>219.8</ele>
        <time>2021-09-05T14:40:36Z</time>
      </trkpt>
      <trkpt lat="44.51517" lon="1.37259">
        <ele>220</ele>
        <time>2021-09-05T14:40:37Z</time>
      </trkpt>
      <trkpt lat="44.51517" lon="1.37259">
        <ele>220.2</ele>
        <time>2021-09-05T14:40:39Z</time>
      </trkpt>
      <trkpt lat="44.51518" lon="1.37259">
        <ele>220.3</ele>
        <time>2021-09-05T14:40:40Z</time>
      </trkpt>
      <trkpt lat="44.51519" lon="1.37259">
        <ele>220.4</ele>
        <time>2021-09-05T14:40:41Z</time>
      </trkpt>
      <trkpt lat="44.51522" lon="1.37259">
        <ele>220.8</ele>
        <time>2021-09-05T14:40:43Z</time>
      </trkpt>
      <trkpt lat="44.51524" lon="1.37259">
        <ele>221</ele>
        <time>2021-09-05T14:40:45Z</time>
      </trkpt>
      <trkpt lat="44.51525" lon="1.3726">
        <ele>221.1</ele>
        <time>2021-09-05T14:40:46Z</time>
      </trkpt>
      <trkpt lat="44.51525" lon="1.3726">
        <ele>221.1</ele>
        <time>2021-09-05T14:40:47Z</time>
      </trkpt>
      <trkpt lat="44.51528" lon="1.3726">
        <ele>221.4</ele>
        <time>2021-09-05T14:40:49Z</time>
      </trkpt>
      <trkpt lat="44.5153" lon="1.3726">
        <ele>221.6</ele>
        <time>2021-09-05T14:40:50Z</time>
      </trkpt>
      <trkpt lat="44.51534" lon="1.3726">
        <ele>222</ele>
        <time>2021-09-05T14:40:52Z</time>
      </trkpt>
      <trkpt lat="44.51537" lon="1.37261">
        <ele>222.3</ele>
        <time>2021-09-05T14:40:53Z</time>
      </trkpt>
      <trkpt lat="44.5154" lon="1.37262">
        <ele>222.6</ele>
        <time>2021-09-05T14:40:54Z</time>
      </trkpt>
      <trkpt lat="44.51542" lon="1.37263">
        <ele>222.7</ele>
        <time>2021-09-05T14:40:55Z</time>
      </trkpt>
      <trkpt lat="44.51543" lon="1.37263">
        <ele>222.9</ele>
        <time>2021-09-05T14:40:56Z</time>
      </trkpt>
      <trkpt lat="44.51545" lon="1.37264">
        <ele>223</ele>
        <time>2021-09-05T14:40:57Z</time>
      </trkpt>
      <trkpt lat="44.51547" lon="1.37265">
        <ele>223.2</ele>
        <time>2021-09-05T14:40:59Z</time>
      </trkpt>
      <trkpt lat="44.51549" lon="1.37266">
        <ele>223.5</ele>
        <time>2021-09-05T14:41:00Z</time>
      </trkpt>
      <trkpt lat="44.5155" lon="1.37266">
        <ele>223.5</ele>
        <time>2021-09-05T14:41:01Z</time>
      </trkpt>
      <trkpt lat="44.51551" lon="1.37267">
        <ele>223.6</ele>
        <time>2021-09-05T14:41:02Z</time>
      </trkpt>
      <trkpt lat="44.51553" lon="1.37269">
        <ele>223.8</ele>
        <time>2021-09-05T14:41:03Z</time>
      </trkpt>
      <trkpt lat="44.51554" lon="1.3727">
        <ele>223.9</ele>
        <time>2021-09-05T14:41:04Z</time>
      </trkpt>
      <trkpt lat="44.51555" lon="1.3727">
        <ele>224</ele>
        <time>2021-09-05T14:41:06Z</time>
      </trkpt>
      <trkpt lat="44.51556" lon="1.3727">
        <ele>224.1</ele>
        <time>2021-09-05T14:41:07Z</time>
      </trkpt>
      <trkpt lat="44.51556" lon="1.3727">
        <ele>224.1</ele>
        <time>2021-09-05T14:41:08Z</time>
      </trkpt>
      <trkpt lat="44.51558" lon="1.37271">
        <ele>224.2</ele>
        <time>2021-09-05T14:41:09Z</time>
      </trkpt>
      <trkpt lat="44.51559" lon="1.37272">
        <ele>224.3</ele>
        <time>2021-09-05T14:41:11Z</time>
      </trkpt>
      <trkpt lat="44.51561" lon="1.37273">
        <ele>224.5</ele>
        <time>2021-09-05T14:41:12Z</time>
      </trkpt>
      <trkpt lat="44.51566" lon="1.37275">
        <ele>224.8</ele>
        <time>2021-09-05T14:41:14Z</time>
      </trkpt>
      <trkpt lat="44.51567" lon="1.37275">
        <ele>224.9</ele>
        <time>2021-09-05T14:41:15Z</time>
      </trkpt>
      <trkpt lat="44.51568" lon="1.37276">
        <ele>225</ele>
        <time>2021-09-05T14:41:16Z</time>
      </trkpt>
      <trkpt lat="44.51571" lon="1.37278">
        <ele>225.2</ele>
        <time>2021-09-05T14:41:17Z</time>
      </trkpt>
      <trkpt lat="44.51574" lon="1.3728">
        <ele>225.3</ele>
        <time>2021-09-05T14:41:19Z</time>
      </trkpt>
      <trkpt lat="44.51577" lon="1.37281">
        <ele>225.5</ele>
        <time>2021-09-05T14:41:20Z</time>
      </trkpt>
      <trkpt lat="44.51579" lon="1.37283">
        <ele>225.6</ele>
        <time>2021-09-05T14:41:21Z</time>
      </trkpt>
      <trkpt lat="44.51582" lon="1.37285">
        <ele>225.7</ele>
        <time>2021-09-05T14:41:23Z</time>
      </trkpt>
      <trkpt lat="44.51585" lon="1.37286">
        <ele>225.8</ele>
        <time>2021-09-05T14:41:24Z</time>
      </trkpt>
      <trkpt lat="44.51585" lon="1.37287">
        <ele>225.8</ele>
        <time>2021-09-05T14:41:25Z</time>
      </trkpt>
      <trkpt lat="44.51589" lon="1.37288">
        <ele>225.9</ele>
        <time>2021-09-05T14:41:26Z</time>
      </trkpt>
      <trkpt lat="44.51593" lon="1.37289">
        <ele>226.1</ele>
        <time>2021-09-05T14:41:28Z</time>
      </trkpt>
      <trkpt lat="44.51595" lon="1.37289">
        <ele>226.1</ele>
        <time>2021-09-05T14:41:29Z</time>
      </trkpt>
      <trkpt lat="44.516" lon="1.37292">
        <ele>226.2</ele>
        <time>2021-09-05T14:41:31Z</time>
      </trkpt>
      <trkpt lat="44.51603" lon="1.37293">
        <ele>226.3</ele>
        <time>2021-09-05T14:41:32Z</time>
      </trkpt>
      <trkpt lat="44.51607" lon="1.37294">
        <ele>226.4</ele>
        <time>2021-09-05T14:41:34Z</time>
      </trkpt>
      <trkpt lat="44.51609" lon="1.37294">
        <ele>226.5</ele>
        <time>2021-09-05T14:41:35Z</time>
      </trkpt>
      <trkpt lat="44.51612" lon="1.37294">
        <ele>226.6</ele>
        <time>2021-09-05T14:41:36Z</time>
      </trkpt>
      <trkpt lat="44.51616" lon="1.37295">
        <ele>226.7</ele>
        <time>2021-09-05T14:41:38Z</time>
      </trkpt>
      <trkpt lat="44.51619" lon="1.37296">
        <ele>226.8</ele>
        <time>2021-09-05T14:41:39Z</time>
      </trkpt>
      <trkpt lat="44.51622" lon="1.37297">
        <ele>226.9</ele>
        <time>2021-09-05T14:41:40Z</time>
      </trkpt>
      <trkpt lat="44.51624" lon="1.37297">
        <ele>226.9</ele>
        <time>2021-09-05T14:41:42Z</time>
      </trkpt>
      <trkpt lat="44.51627" lon="1.37298">
        <ele>227</ele>
        <time>2021-09-05T14:41:43Z</time>
      </trkpt>
      <trkpt lat="44.51631" lon="1.373">
        <ele>227.1</ele>
        <time>2021-09-05T14:41:44Z</time>
      </trkpt>
      <trkpt lat="44.51633" lon="1.37301">
        <ele>227.1</ele>
        <time>2021-09-05T14:41:45Z</time>
      </trkpt>
      <trkpt lat="44.51637" lon="1.37303">
        <ele>227.2</ele>
        <time>2021-09-05T14:41:47Z</time>
      </trkpt>
      <trkpt lat="44.51641" lon="1.37304">
        <ele>227.3</ele>
        <time>2021-09-05T14:41:48Z</time>
      </trkpt>
      <trkpt lat="44.51644" lon="1.37305">
        <ele>227.3</ele>
        <time>2021-09-05T14:41:49Z</time>
      </trkpt>
      <trkpt lat="44.51647" lon="1.37307">
        <ele>227.4</ele>
        <time>2021-09-05T14:41:50Z</time>
      </trkpt>
      <trkpt lat="44.5165" lon="1.37308">
        <ele>227.4</ele>
        <time>2021-09-05T14:41:52Z</time>
      </trkpt>
      <trkpt lat="44.51654" lon="1.3731">
        <ele>227.4</ele>
        <time>2021-09-05T14:41:53Z</time>
      </trkpt>
      <trkpt lat="44.51661" lon="1.37314">
        <ele>227.4</ele>
        <time>2021-09-05T14:41:55Z</time>
      </trkpt>
      <trkpt lat="44.51665" lon="1.37316">
        <ele>227.3</ele>
        <time>2021-09-05T14:41:56Z</time>
      </trkpt>
      <trkpt lat="44.51669" lon="1.37318">
        <ele>227.3</ele>
        <time>2021-09-05T14:41:57Z</time>
      </trkpt>
      <trkpt lat="44.51673" lon="1.37322">
        <ele>227.2</ele>
        <time>2021-09-05T14:41:58Z</time>
      </trkpt>
      <trkpt lat="44.51676" lon="1.37325">
        <ele>227.2</ele>
        <time>2021-09-05T14:42:00Z</time>
      </trkpt>
      <trkpt lat="44.51681" lon="1.37329">
        <ele>227.3</ele>
        <time>2021-09-05T14:42:01Z</time>
      </trkpt>
      <trkpt lat="44.51684" lon="1.37332">
        <ele>227.3</ele>
        <time>2021-09-05T14:42:02Z</time>
      </trkpt>
      <trkpt lat="44.51688" lon="1.37335">
        <ele>227.4</ele>
        <time>2021-09-05T14:42:04Z</time>
      </trkpt>
      <trkpt lat="44.51694" lon="1.3734">
        <ele>227.6</ele>
        <time>2021-09-05T14:42:05Z</time>
      </trkpt>
      <trkpt lat="44.51697" lon="1.37343">
        <ele>227.7</ele>
        <time>2021-09-05T14:42:06Z</time>
      </trkpt>
      <trkpt lat="44.51701" lon="1.37346">
        <ele>227.8</ele>
        <time>2021-09-05T14:42:08Z</time>
      </trkpt>
      <trkpt lat="44.51706" lon="1.37351">
        <ele>228</ele>
        <time>2021-09-05T14:42:10Z</time>
      </trkpt>
      <trkpt lat="44.51711" lon="1.37355">
        <ele>228.1</ele>
        <time>2021-09-05T14:42:11Z</time>
      </trkpt>
      <trkpt lat="44.51715" lon="1.37358">
        <ele>228.2</ele>
        <time>2021-09-05T14:42:12Z</time>
      </trkpt>
      <trkpt lat="44.51721" lon="1.37361">
        <ele>228.3</ele>
        <time>2021-09-05T14:42:14Z</time>
      </trkpt>
      <trkpt lat="44.51727" lon="1.37366">
        <ele>228.5</ele>
        <time>2021-09-05T14:42:15Z</time>
      </trkpt>
      <trkpt lat="44.51732" lon="1.3737">
        <ele>228.7</ele>
        <time>2021-09-05T14:42:17Z</time>
      </trkpt>
      <trkpt lat="44.51736" lon="1.37373">
        <ele>228.8</ele>
        <time>2021-09-05T14:42:18Z</time>
      </trkpt>
      <trkpt lat="44.51739" lon="1.37376">
        <ele>228.9</ele>
        <time>2021-09-05T14:42:19Z</time>
      </trkpt>
      <trkpt lat="44.51742" lon="1.37379">
        <ele>228.9</ele>
        <time>2021-09-05T14:42:20Z</time>
      </trkpt>
      <trkpt lat="44.51746" lon="1.37382">
        <ele>229</ele>
        <time>2021-09-05T14:42:22Z</time>
      </trkpt>
      <trkpt lat="44.5175" lon="1.37385">
        <ele>229.1</ele>
        <time>2021-09-05T14:42:23Z</time>
      </trkpt>
      <trkpt lat="44.51756" lon="1.37387">
        <ele>229.1</ele>
        <time>2021-09-05T14:42:24Z</time>
      </trkpt>
      <trkpt lat="44.51763" lon="1.37391">
        <ele>229.2</ele>
        <time>2021-09-05T14:42:26Z</time>
      </trkpt>
      <trkpt lat="44.51768" lon="1.37393">
        <ele>229.2</ele>
        <time>2021-09-05T14:42:27Z</time>
      </trkpt>
      <trkpt lat="44.51775" lon="1.37394">
        <ele>229.2</ele>
        <time>2021-09-05T14:42:29Z</time>
      </trkpt>
      <trkpt lat="44.51782" lon="1.37396">
        <ele>229.2</ele>
        <time>2021-09-05T14:42:31Z</time>
      </trkpt>
      <trkpt lat="44.51787" lon="1.37396">
        <ele>229.1</ele>
        <time>2021-09-05T14:42:33Z</time>
      </trkpt>
      <trkpt lat="44.51794" lon="1.37395">
        <ele>229.1</ele>
        <time>2021-09-05T14:42:34Z</time>
      </trkpt>
      <trkpt lat="44.51799" lon="1.37394">
        <ele>229</ele>
        <time>2021-09-05T14:42:35Z</time>
      </trkpt>
      <trkpt lat="44.51803" lon="1.37391">
        <ele>229</ele>
        <time>2021-09-05T14:42:37Z</time>
      </trkpt>
      <trkpt lat="44.51812" lon="1.37386">
        <ele>229</ele>
        <time>2021-09-05T14:42:38Z</time>
      </trkpt>
      <trkpt lat="44.51817" lon="1.37383">
        <ele>229</ele>
        <time>2021-09-05T14:42:39Z</time>
      </trkpt>
      <trkpt lat="44.51821" lon="1.3738">
        <ele>229.1</ele>
        <time>2021-09-05T14:42:41Z</time>
      </trkpt>
      <trkpt lat="44.51827" lon="1.37375">
        <ele>229.3</ele>
        <time>2021-09-05T14:42:43Z</time>
      </trkpt>
      <trkpt lat="44.5183" lon="1.37371">
        <ele>229.4</ele>
        <time>2021-09-05T14:42:44Z</time>
      </trkpt>
      <trkpt lat="44.51837" lon="1.37368">
        <ele>229.6</ele>
        <time>2021-09-05T14:42:45Z</time>
      </trkpt>
      <trkpt lat="44.51841" lon="1.37366">
        <ele>229.9</ele>
        <time>2021-09-05T14:42:46Z</time>
      </trkpt>
      <trkpt lat="44.51845" lon="1.37362">
        <ele>230.1</ele>
        <time>2021-09-05T14:42:47Z</time>
      </trkpt>
      <trkpt lat="44.5185" lon="1.3736">
        <ele>230.3</ele>
        <time>2021-09-05T14:42:48Z</time>
      </trkpt>
      <trkpt lat="44.51854" lon="1.37358">
        <ele>230.6</ele>
        <time>2021-09-05T14:42:49Z</time>
      </trkpt>
      <trkpt lat="44.51859" lon="1.37355">
        <ele>231</ele>
        <time>2021-09-05T14:42:51Z</time>
      </trkpt>
      <trkpt lat="44.51864" lon="1.37351">
        <ele>231.3</ele>
        <time>2021-09-05T14:42:52Z</time>
      </trkpt>
      <trkpt lat="44.51868" lon="1.37348">
        <ele>231.6</ele>
        <time>2021-09-05T14:42:53Z</time>
      </trkpt>
      <trkpt lat="44.51872" lon="1.37346">
        <ele>231.9</ele>
        <time>2021-09-05T14:42:54Z</time>
      </trkpt>
      <trkpt lat="44.51875" lon="1.37343">
        <ele>232.1</ele>
        <time>2021-09-05T14:42:55Z</time>
      </trkpt>
      <trkpt lat="44.5188" lon="1.3734">
        <ele>232.4</ele>
        <time>2021-09-05T14:42:57Z</time>
      </trkpt>
      <trkpt lat="44.51884" lon="1.37337">
        <ele>232.7</ele>
        <time>2021-09-05T14:42:58Z</time>
      </trkpt>
      <trkpt lat="44.51888" lon="1.37333">
        <ele>233</ele>
        <time>2021-09-05T14:42:59Z</time>
      </trkpt>
      <trkpt lat="44.51892" lon="1.37331">
        <ele>233.2</ele>
        <time>2021-09-05T14:43:01Z</time>
      </trkpt>
      <trkpt lat="44.51896" lon="1.3733">
        <ele>233.4</ele>
        <time>2021-09-05T14:43:02Z</time>
      </trkpt>
      <trkpt lat="44.51899" lon="1.37328">
        <ele>233.5</ele>
        <time>2021-09-05T14:43:03Z</time>
      </trkpt>
      <trkpt lat="44.51903" lon="1.37327">
        <ele>233.7</ele>
        <time>2021-09-05T14:43:04Z</time>
      </trkpt>
      <trkpt lat="44.51908" lon="1.37325">
        <ele>233.9</ele>
        <time>2021-09-05T14:43:06Z</time>
      </trkpt>
      <trkpt lat="44.51911" lon="1.37324">
        <ele>234</ele>
        <time>2021-09-05T14:43:08Z</time>
      </trkpt>
      <trkpt lat="44.51915" lon="1.37321">
        <ele>234.2</ele>
        <time>2021-09-05T14:43:09Z</time>
      </trkpt>
      <trkpt lat="44.51921" lon="1.37319">
        <ele>234.4</ele>
        <time>2021-09-05T14:43:11Z</time>
      </trkpt>
      <trkpt lat="44.51924" lon="1.37318">
        <ele>234.6</ele>
        <time>2021-09-05T14:43:12Z</time>
      </trkpt>
      <trkpt lat="44.5193" lon="1.37315">
        <ele>234.8</ele>
        <time>2021-09-05T14:43:14Z</time>
      </trkpt>
      <trkpt lat="44.51933" lon="1.37313">
        <ele>234.9</ele>
        <time>2021-09-05T14:43:15Z</time>
      </trkpt>
      <trkpt lat="44.51938" lon="1.37311">
        <ele>235.1</ele>
        <time>2021-09-05T14:43:16Z</time>
      </trkpt>
      <trkpt lat="44.51942" lon="1.37309">
        <ele>235.2</ele>
        <time>2021-09-05T14:43:18Z</time>
      </trkpt>
      <trkpt lat="44.51946" lon="1.37307">
        <ele>235.3</ele>
        <time>2021-09-05T14:43:19Z</time>
      </trkpt>
      <trkpt lat="44.5195" lon="1.37307">
        <ele>235.4</ele>
        <time>2021-09-05T14:43:20Z</time>
      </trkpt>
      <trkpt lat="44.51953" lon="1.37306">
        <ele>235.5</ele>
        <time>2021-09-05T14:43:22Z</time>
      </trkpt>
      <trkpt lat="44.51956" lon="1.37305">
        <ele>235.5</ele>
        <time>2021-09-05T14:43:23Z</time>
      </trkpt>
      <trkpt lat="44.51959" lon="1.37304">
        <ele>235.6</ele>
        <time>2021-09-05T14:43:24Z</time>
      </trkpt>
      <trkpt lat="44.51965" lon="1.37301">
        <ele>235.6</ele>
        <time>2021-09-05T14:43:26Z</time>
      </trkpt>
      <trkpt lat="44.51967" lon="1.373">
        <ele>235.6</ele>
        <time>2021-09-05T14:43:27Z</time>
      </trkpt>
      <trkpt lat="44.51971" lon="1.37298">
        <ele>235.6</ele>
        <time>2021-09-05T14:43:29Z</time>
      </trkpt>
      <trkpt lat="44.51977" lon="1.37297">
        <ele>235.6</ele>
        <time>2021-09-05T14:43:30Z</time>
      </trkpt>
      <trkpt lat="44.51981" lon="1.37296">
        <ele>235.6</ele>
        <time>2021-09-05T14:43:31Z</time>
      </trkpt>
      <trkpt lat="44.51986" lon="1.37294">
        <ele>235.6</ele>
        <time>2021-09-05T14:43:32Z</time>
      </trkpt>
      <trkpt lat="44.51991" lon="1.37293">
        <ele>235.5</ele>
        <time>2021-09-05T14:43:34Z</time>
      </trkpt>
      <trkpt lat="44.51997" lon="1.37292">
        <ele>235.5</ele>
        <time>2021-09-05T14:43:35Z</time>
      </trkpt>
      <trkpt lat="44.52002" lon="1.37292">
        <ele>235.4</ele>
        <time>2021-09-05T14:43:37Z</time>
      </trkpt>
      <trkpt lat="44.52008" lon="1.37293">
        <ele>235.3</ele>
        <time>2021-09-05T14:43:38Z</time>
      </trkpt>
      <trkpt lat="44.52016" lon="1.37292">
        <ele>235.1</ele>
        <time>2021-09-05T14:43:40Z</time>
      </trkpt>
      <trkpt lat="44.52022" lon="1.37292">
        <ele>234.9</ele>
        <time>2021-09-05T14:43:41Z</time>
      </trkpt>
      <trkpt lat="44.52033" lon="1.37291">
        <ele>234.7</ele>
        <time>2021-09-05T14:43:42Z</time>
      </trkpt>
      <trkpt lat="44.52039" lon="1.3729">
        <ele>234.6</ele>
        <time>2021-09-05T14:43:44Z</time>
      </trkpt>
      <trkpt lat="44.52044" lon="1.3729">
        <ele>234.4</ele>
        <time>2021-09-05T14:43:45Z</time>
      </trkpt>
      <trkpt lat="44.52055" lon="1.37288">
        <ele>234</ele>
        <time>2021-09-05T14:43:47Z</time>
      </trkpt>
      <trkpt lat="44.52065" lon="1.37284">
        <ele>233.5</ele>
        <time>2021-09-05T14:43:48Z</time>
      </trkpt>
      <trkpt lat="44.52075" lon="1.37279">
        <ele>233</ele>
        <time>2021-09-05T14:43:51Z</time>
      </trkpt>
      <trkpt lat="44.52079" lon="1.37276">
        <ele>232.8</ele>
        <time>2021-09-05T14:43:52Z</time>
      </trkpt>
      <trkpt lat="44.52094" lon="1.37268">
        <ele>232.4</ele>
        <time>2021-09-05T14:43:54Z</time>
      </trkpt>
      <trkpt lat="44.52099" lon="1.37265">
        <ele>232.2</ele>
        <time>2021-09-05T14:43:56Z</time>
      </trkpt>
      <trkpt lat="44.52104" lon="1.37262">
        <ele>232.1</ele>
        <time>2021-09-05T14:43:57Z</time>
      </trkpt>
      <trkpt lat="44.52109" lon="1.37259">
        <ele>231.9</ele>
        <time>2021-09-05T14:43:58Z</time>
      </trkpt>
      <trkpt lat="44.52118" lon="1.37253">
        <ele>231.6</ele>
        <time>2021-09-05T14:43:59Z</time>
      </trkpt>
      <trkpt lat="44.52128" lon="1.37247">
        <ele>231.3</ele>
        <time>2021-09-05T14:44:01Z</time>
      </trkpt>
      <trkpt lat="44.52133" lon="1.37244">
        <ele>231.1</ele>
        <time>2021-09-05T14:44:03Z</time>
      </trkpt>
      <trkpt lat="44.52143" lon="1.3724">
        <ele>230.8</ele>
        <time>2021-09-05T14:44:04Z</time>
      </trkpt>
      <trkpt lat="44.52148" lon="1.37238">
        <ele>230.6</ele>
        <time>2021-09-05T14:44:06Z</time>
      </trkpt>
      <trkpt lat="44.52152" lon="1.37236">
        <ele>230.5</ele>
        <time>2021-09-05T14:44:07Z</time>
      </trkpt>
      <trkpt lat="44.52155" lon="1.37234">
        <ele>230.3</ele>
        <time>2021-09-05T14:44:08Z</time>
      </trkpt>
      <trkpt lat="44.52159" lon="1.37232">
        <ele>230.1</ele>
        <time>2021-09-05T14:44:09Z</time>
      </trkpt>
      <trkpt lat="44.5217" lon="1.37226">
        <ele>229.5</ele>
        <time>2021-09-05T14:44:11Z</time>
      </trkpt>
      <trkpt lat="44.52176" lon="1.37223">
        <ele>229.2</ele>
        <time>2021-09-05T14:44:12Z</time>
      </trkpt>
      <trkpt lat="44.52195" lon="1.37218">
        <ele>228.3</ele>
        <time>2021-09-05T14:44:14Z</time>
      </trkpt>
      <trkpt lat="44.52206" lon="1.37213">
        <ele>227.9</ele>
        <time>2021-09-05T14:44:16Z</time>
      </trkpt>
      <trkpt lat="44.52212" lon="1.3721">
        <ele>227.8</ele>
        <time>2021-09-05T14:44:18Z</time>
      </trkpt>
      <trkpt lat="44.52227" lon="1.37203">
        <ele>227.9</ele>
        <time>2021-09-05T14:44:20Z</time>
      </trkpt>
      <trkpt lat="44.52235" lon="1.37198">
        <ele>228.1</ele>
        <time>2021-09-05T14:44:22Z</time>
      </trkpt>
      <trkpt lat="44.5224" lon="1.37195">
        <ele>228.3</ele>
        <time>2021-09-05T14:44:23Z</time>
      </trkpt>
      <trkpt lat="44.52248" lon="1.37189">
        <ele>228.7</ele>
        <time>2021-09-05T14:44:26Z</time>
      </trkpt>
      <trkpt lat="44.52252" lon="1.37187">
        <ele>228.8</ele>
        <time>2021-09-05T14:44:27Z</time>
      </trkpt>
      <trkpt lat="44.52259" lon="1.37183">
        <ele>229.2</ele>
        <time>2021-09-05T14:44:29Z</time>
      </trkpt>
      <trkpt lat="44.52266" lon="1.37178">
        <ele>229.7</ele>
        <time>2021-09-05T14:44:30Z</time>
      </trkpt>
      <trkpt lat="44.52272" lon="1.37175">
        <ele>230.1</ele>
        <time>2021-09-05T14:44:32Z</time>
      </trkpt>
      <trkpt lat="44.52276" lon="1.37174">
        <ele>230.4</ele>
        <time>2021-09-05T14:44:33Z</time>
      </trkpt>
      <trkpt lat="44.52278" lon="1.37172">
        <ele>230.6</ele>
        <time>2021-09-05T14:44:34Z</time>
      </trkpt>
      <trkpt lat="44.52282" lon="1.37168">
        <ele>231</ele>
        <time>2021-09-05T14:44:36Z</time>
      </trkpt>
      <trkpt lat="44.52287" lon="1.37163">
        <ele>231.4</ele>
        <time>2021-09-05T14:44:37Z</time>
      </trkpt>
      <trkpt lat="44.52289" lon="1.37162">
        <ele>231.6</ele>
        <time>2021-09-05T14:44:38Z</time>
      </trkpt>
      <trkpt lat="44.52292" lon="1.3716">
        <ele>231.8</ele>
        <time>2021-09-05T14:44:40Z</time>
      </trkpt>
      <trkpt lat="44.52296" lon="1.37158">
        <ele>232.2</ele>
        <time>2021-09-05T14:44:41Z</time>
      </trkpt>
      <trkpt lat="44.52299" lon="1.37155">
        <ele>232.4</ele>
        <time>2021-09-05T14:44:42Z</time>
      </trkpt>
      <trkpt lat="44.52301" lon="1.37152">
        <ele>232.6</ele>
        <time>2021-09-05T14:44:43Z</time>
      </trkpt>
      <trkpt lat="44.52302" lon="1.37151">
        <ele>232.8</ele>
        <time>2021-09-05T14:44:45Z</time>
      </trkpt>
      <trkpt lat="44.52305" lon="1.37147">
        <ele>233.1</ele>
        <time>2021-09-05T14:44:46Z</time>
      </trkpt>
      <trkpt lat="44.52308" lon="1.37145">
        <ele>233.5</ele>
        <time>2021-09-05T14:44:47Z</time>
      </trkpt>
      <trkpt lat="44.52312" lon="1.37142">
        <ele>233.9</ele>
        <time>2021-09-05T14:44:49Z</time>
      </trkpt>
      <trkpt lat="44.52313" lon="1.37141">
        <ele>234.1</ele>
        <time>2021-09-05T14:44:50Z</time>
      </trkpt>
      <trkpt lat="44.52315" lon="1.37139">
        <ele>234.4</ele>
        <time>2021-09-05T14:44:51Z</time>
      </trkpt>
      <trkpt lat="44.52318" lon="1.37137">
        <ele>234.7</ele>
        <time>2021-09-05T14:44:53Z</time>
      </trkpt>
      <trkpt lat="44.52322" lon="1.37136">
        <ele>235.2</ele>
        <time>2021-09-05T14:44:54Z</time>
      </trkpt>
      <trkpt lat="44.52323" lon="1.37135">
        <ele>235.3</ele>
        <time>2021-09-05T14:44:55Z</time>
      </trkpt>
      <trkpt lat="44.52325" lon="1.37134">
        <ele>235.6</ele>
        <time>2021-09-05T14:44:56Z</time>
      </trkpt>
      <trkpt lat="44.52328" lon="1.37133">
        <ele>235.9</ele>
        <time>2021-09-05T14:44:58Z</time>
      </trkpt>
      <trkpt lat="44.52331" lon="1.37133">
        <ele>236.2</ele>
        <time>2021-09-05T14:44:59Z</time>
      </trkpt>
      <trkpt lat="44.52332" lon="1.37132">
        <ele>236.4</ele>
        <time>2021-09-05T14:45:00Z</time>
      </trkpt>
      <trkpt lat="44.52336" lon="1.37132">
        <ele>236.8</ele>
        <time>2021-09-05T14:45:02Z</time>
      </trkpt>
      <trkpt lat="44.5234" lon="1.37131">
        <ele>237.2</ele>
        <time>2021-09-05T14:45:04Z</time>
      </trkpt>
      <trkpt lat="44.52342" lon="1.37131">
        <ele>237.4</ele>
        <time>2021-09-05T14:45:05Z</time>
      </trkpt>
      <trkpt lat="44.52344" lon="1.37131">
        <ele>237.6</ele>
        <time>2021-09-05T14:45:06Z</time>
      </trkpt>
      <trkpt lat="44.52347" lon="1.3713">
        <ele>238</ele>
        <time>2021-09-05T14:45:07Z</time>
      </trkpt>
      <trkpt lat="44.52348" lon="1.3713">
        <ele>238.1</ele>
        <time>2021-09-05T14:45:08Z</time>
      </trkpt>
      <trkpt lat="44.5235" lon="1.37129">
        <ele>238.3</ele>
        <time>2021-09-05T14:45:09Z</time>
      </trkpt>
      <trkpt lat="44.52355" lon="1.37127">
        <ele>238.8</ele>
        <time>2021-09-05T14:45:11Z</time>
      </trkpt>
      <trkpt lat="44.52358" lon="1.37126">
        <ele>239</ele>
        <time>2021-09-05T14:45:13Z</time>
      </trkpt>
      <trkpt lat="44.52361" lon="1.37125">
        <ele>239.4</ele>
        <time>2021-09-05T14:45:14Z</time>
      </trkpt>
      <trkpt lat="44.52362" lon="1.37125">
        <ele>239.5</ele>
        <time>2021-09-05T14:45:15Z</time>
      </trkpt>
      <trkpt lat="44.52366" lon="1.37123">
        <ele>239.8</ele>
        <time>2021-09-05T14:45:17Z</time>
      </trkpt>
      <trkpt lat="44.52367" lon="1.37122">
        <ele>239.9</ele>
        <time>2021-09-05T14:45:18Z</time>
      </trkpt>
      <trkpt lat="44.5237" lon="1.3712">
        <ele>240.2</ele>
        <time>2021-09-05T14:45:19Z</time>
      </trkpt>
      <trkpt lat="44.5237" lon="1.3712">
        <ele>240.3</ele>
        <time>2021-09-05T14:45:20Z</time>
      </trkpt>
      <trkpt lat="44.52371" lon="1.37119">
        <ele>240.3</ele>
        <time>2021-09-05T14:45:22Z</time>
      </trkpt>
      <trkpt lat="44.52371" lon="1.37119">
        <ele>240.3</ele>
        <time>2021-09-05T14:45:24Z</time>
      </trkpt>
      <trkpt lat="44.52371" lon="1.3712">
        <ele>240.3</ele>
        <time>2021-09-05T14:45:26Z</time>
      </trkpt>
      <trkpt lat="44.52371" lon="1.3712">
        <ele>240.3</ele>
        <time>2021-09-05T14:45:27Z</time>
      </trkpt>
      <trkpt lat="44.52371" lon="1.3712">
        <ele>240.3</ele>
        <time>2021-09-05T14:45:28Z</time>
      </trkpt>
      <trkpt lat="44.52371" lon="1.3712">
        <ele>240.4</ele>
        <time>2021-09-05T14:45:30Z</time>
      </trkpt>
      <trkpt lat="44.52372" lon="1.3712">
        <ele>240.4</ele>
        <time>2021-09-05T14:45:32Z</time>
      </trkpt>
      <trkpt lat="44.52374" lon="1.37118">
        <ele>240.6</ele>
        <time>2021-09-05T14:48:16Z</time>
      </trkpt>
      <trkpt lat="44.52377" lon="1.37116">
        <ele>240.8</ele>
        <time>2021-09-05T14:48:17Z</time>
      </trkpt>
      <trkpt lat="44.52378" lon="1.37114">
        <ele>240.9</ele>
        <time>2021-09-05T14:48:18Z</time>
      </trkpt>
      <trkpt lat="44.52378" lon="1.37112">
        <ele>241.1</ele>
        <time>2021-09-05T14:48:19Z</time>
      </trkpt>
      <trkpt lat="44.52382" lon="1.37108">
        <ele>241.5</ele>
        <time>2021-09-05T14:48:21Z</time>
      </trkpt>
      <trkpt lat="44.52384" lon="1.37104">
        <ele>241.9</ele>
        <time>2021-09-05T14:48:23Z</time>
      </trkpt>
      <trkpt lat="44.52386" lon="1.37101">
        <ele>242.2</ele>
        <time>2021-09-05T14:48:24Z</time>
      </trkpt>
      <trkpt lat="44.52389" lon="1.37097">
        <ele>242.6</ele>
        <time>2021-09-05T14:48:25Z</time>
      </trkpt>
      <trkpt lat="44.5239" lon="1.37096">
        <ele>242.8</ele>
        <time>2021-09-05T14:48:26Z</time>
      </trkpt>
      <trkpt lat="44.52392" lon="1.37092">
        <ele>243.2</ele>
        <time>2021-09-05T14:48:28Z</time>
      </trkpt>
      <trkpt lat="44.52394" lon="1.37089">
        <ele>243.5</ele>
        <time>2021-09-05T14:48:30Z</time>
      </trkpt>
      <trkpt lat="44.52396" lon="1.37086">
        <ele>243.8</ele>
        <time>2021-09-05T14:48:31Z</time>
      </trkpt>
      <trkpt lat="44.52399" lon="1.37084">
        <ele>244.1</ele>
        <time>2021-09-05T14:48:32Z</time>
      </trkpt>
      <trkpt lat="44.52401" lon="1.37081">
        <ele>244.5</ele>
        <time>2021-09-05T14:48:34Z</time>
      </trkpt>
      <trkpt lat="44.52402" lon="1.3708">
        <ele>244.6</ele>
        <time>2021-09-05T14:48:35Z</time>
      </trkpt>
      <trkpt lat="44.52405" lon="1.37076">
        <ele>245.1</ele>
        <time>2021-09-05T14:48:36Z</time>
      </trkpt>
      <trkpt lat="44.52406" lon="1.37074">
        <ele>245.2</ele>
        <time>2021-09-05T14:48:37Z</time>
      </trkpt>
      <trkpt lat="44.52408" lon="1.3707">
        <ele>245.6</ele>
        <time>2021-09-05T14:48:38Z</time>
      </trkpt>
      <trkpt lat="44.5241" lon="1.37066">
        <ele>245.8</ele>
        <time>2021-09-05T14:48:40Z</time>
      </trkpt>
      <trkpt lat="44.52412" lon="1.37063">
        <ele>246</ele>
        <time>2021-09-05T14:48:41Z</time>
      </trkpt>
      <trkpt lat="44.52413" lon="1.37058">
        <ele>246.3</ele>
        <time>2021-09-05T14:48:43Z</time>
      </trkpt>
      <trkpt lat="44.52414" lon="1.37055">
        <ele>246.5</ele>
        <time>2021-09-05T14:48:44Z</time>
      </trkpt>
      <trkpt lat="44.52416" lon="1.37051">
        <ele>246.7</ele>
        <time>2021-09-05T14:48:46Z</time>
      </trkpt>
      <trkpt lat="44.52418" lon="1.37046">
        <ele>247</ele>
        <time>2021-09-05T14:48:47Z</time>
      </trkpt>
      <trkpt lat="44.5242" lon="1.37042">
        <ele>247.3</ele>
        <time>2021-09-05T14:48:49Z</time>
      </trkpt>
      <trkpt lat="44.5242" lon="1.37041">
        <ele>247.3</ele>
        <time>2021-09-05T14:48:50Z</time>
      </trkpt>
      <trkpt lat="44.52422" lon="1.37038">
        <ele>247.5</ele>
        <time>2021-09-05T14:48:51Z</time>
      </trkpt>
      <trkpt lat="44.52424" lon="1.37032">
        <ele>247.9</ele>
        <time>2021-09-05T14:48:53Z</time>
      </trkpt>
      <trkpt lat="44.52425" lon="1.3703">
        <ele>248</ele>
        <time>2021-09-05T14:48:54Z</time>
      </trkpt>
      <trkpt lat="44.52426" lon="1.37028">
        <ele>248.1</ele>
        <time>2021-09-05T14:48:55Z</time>
      </trkpt>
      <trkpt lat="44.52427" lon="1.37024">
        <ele>248.4</ele>
        <time>2021-09-05T14:48:56Z</time>
      </trkpt>
      <trkpt lat="44.52428" lon="1.37022">
        <ele>248.5</ele>
        <time>2021-09-05T14:48:57Z</time>
      </trkpt>
      <trkpt lat="44.5243" lon="1.37019">
        <ele>248.7</ele>
        <time>2021-09-05T14:48:58Z</time>
      </trkpt>
      <trkpt lat="44.52431" lon="1.37014">
        <ele>248.9</ele>
        <time>2021-09-05T14:48:59Z</time>
      </trkpt>
      <trkpt lat="44.52433" lon="1.3701">
        <ele>249.2</ele>
        <time>2021-09-05T14:49:01Z</time>
      </trkpt>
      <trkpt lat="44.52434" lon="1.37007">
        <ele>249.3</ele>
        <time>2021-09-05T14:49:02Z</time>
      </trkpt>
      <trkpt lat="44.52435" lon="1.37005">
        <ele>249.5</ele>
        <time>2021-09-05T14:49:04Z</time>
      </trkpt>
      <trkpt lat="44.52437" lon="1.36999">
        <ele>249.8</ele>
        <time>2021-09-05T14:49:06Z</time>
      </trkpt>
      <trkpt lat="44.52439" lon="1.36995">
        <ele>250.1</ele>
        <time>2021-09-05T14:49:07Z</time>
      </trkpt>
      <trkpt lat="44.52439" lon="1.36991">
        <ele>250.3</ele>
        <time>2021-09-05T14:49:09Z</time>
      </trkpt>
      <trkpt lat="44.52441" lon="1.36987">
        <ele>250.6</ele>
        <time>2021-09-05T14:49:10Z</time>
      </trkpt>
      <trkpt lat="44.52442" lon="1.36982">
        <ele>250.9</ele>
        <time>2021-09-05T14:49:11Z</time>
      </trkpt>
      <trkpt lat="44.52443" lon="1.36981">
        <ele>251.1</ele>
        <time>2021-09-05T14:49:12Z</time>
      </trkpt>
      <trkpt lat="44.52445" lon="1.36976">
        <ele>251.5</ele>
        <time>2021-09-05T14:49:14Z</time>
      </trkpt>
      <trkpt lat="44.52447" lon="1.36973">
        <ele>251.7</ele>
        <time>2021-09-05T14:49:15Z</time>
      </trkpt>
      <trkpt lat="44.52448" lon="1.36971">
        <ele>252</ele>
        <time>2021-09-05T14:49:16Z</time>
      </trkpt>
      <trkpt lat="44.52451" lon="1.36967">
        <ele>252.4</ele>
        <time>2021-09-05T14:49:18Z</time>
      </trkpt>
      <trkpt lat="44.52453" lon="1.36965">
        <ele>252.7</ele>
        <time>2021-09-05T14:49:19Z</time>
      </trkpt>
      <trkpt lat="44.52455" lon="1.36962">
        <ele>253</ele>
        <time>2021-09-05T14:49:21Z</time>
      </trkpt>
      <trkpt lat="44.52457" lon="1.36961">
        <ele>253.4</ele>
        <time>2021-09-05T14:49:22Z</time>
      </trkpt>
      <trkpt lat="44.5246" lon="1.36958">
        <ele>253.9</ele>
        <time>2021-09-05T14:49:24Z</time>
      </trkpt>
      <trkpt lat="44.52463" lon="1.36956">
        <ele>254.3</ele>
        <time>2021-09-05T14:49:25Z</time>
      </trkpt>
      <trkpt lat="44.52466" lon="1.36955">
        <ele>254.6</ele>
        <time>2021-09-05T14:49:26Z</time>
      </trkpt>
      <trkpt lat="44.52466" lon="1.36953">
        <ele>254.8</ele>
        <time>2021-09-05T14:49:28Z</time>
      </trkpt>
      <trkpt lat="44.52468" lon="1.36952">
        <ele>255.1</ele>
        <time>2021-09-05T14:49:29Z</time>
      </trkpt>
      <trkpt lat="44.52469" lon="1.36951">
        <ele>255.3</ele>
        <time>2021-09-05T14:49:30Z</time>
      </trkpt>
      <trkpt lat="44.52472" lon="1.3695">
        <ele>255.7</ele>
        <time>2021-09-05T14:49:31Z</time>
      </trkpt>
      <trkpt lat="44.52475" lon="1.36949">
        <ele>256.2</ele>
        <time>2021-09-05T14:49:32Z</time>
      </trkpt>
      <trkpt lat="44.52476" lon="1.36949">
        <ele>256.4</ele>
        <time>2021-09-05T14:49:34Z</time>
      </trkpt>
      <trkpt lat="44.52478" lon="1.36949">
        <ele>256.5</ele>
        <time>2021-09-05T14:49:35Z</time>
      </trkpt>
      <trkpt lat="44.52479" lon="1.36949">
        <ele>256.7</ele>
        <time>2021-09-05T14:49:36Z</time>
      </trkpt>
      <trkpt lat="44.52483" lon="1.36949">
        <ele>257.2</ele>
        <time>2021-09-05T14:49:38Z</time>
      </trkpt>
      <trkpt lat="44.52484" lon="1.36949">
        <ele>257.4</ele>
        <time>2021-09-05T14:49:39Z</time>
      </trkpt>
      <trkpt lat="44.52486" lon="1.36947">
        <ele>257.8</ele>
        <time>2021-09-05T14:49:40Z</time>
      </trkpt>
      <trkpt lat="44.52486" lon="1.36945">
        <ele>257.9</ele>
        <time>2021-09-05T14:49:42Z</time>
      </trkpt>
      <trkpt lat="44.52487" lon="1.36943">
        <ele>257.9</ele>
        <time>2021-09-05T14:49:44Z</time>
      </trkpt>
      <trkpt lat="44.52487" lon="1.36942">
        <ele>257.9</ele>
        <time>2021-09-05T14:49:45Z</time>
      </trkpt>
      <trkpt lat="44.52485" lon="1.36938">
        <ele>258</ele>
        <time>2021-09-05T14:49:46Z</time>
      </trkpt>
      <trkpt lat="44.52484" lon="1.36935">
        <ele>258</ele>
        <time>2021-09-05T14:49:47Z</time>
      </trkpt>
      <trkpt lat="44.52483" lon="1.36934">
        <ele>258.1</ele>
        <time>2021-09-05T14:49:48Z</time>
      </trkpt>
      <trkpt lat="44.52481" lon="1.36929">
        <ele>258.1</ele>
        <time>2021-09-05T14:49:50Z</time>
      </trkpt>
      <trkpt lat="44.52479" lon="1.36925">
        <ele>258.1</ele>
        <time>2021-09-05T14:49:52Z</time>
      </trkpt>
      <trkpt lat="44.52477" lon="1.3692">
        <ele>258.2</ele>
        <time>2021-09-05T14:49:53Z</time>
      </trkpt>
      <trkpt lat="44.52475" lon="1.36917">
        <ele>258.2</ele>
        <time>2021-09-05T14:49:54Z</time>
      </trkpt>
      <trkpt lat="44.52473" lon="1.36912">
        <ele>258.3</ele>
        <time>2021-09-05T14:49:56Z</time>
      </trkpt>
      <trkpt lat="44.52473" lon="1.3691">
        <ele>258.3</ele>
        <time>2021-09-05T14:49:57Z</time>
      </trkpt>
      <trkpt lat="44.5247" lon="1.36904">
        <ele>258.4</ele>
        <time>2021-09-05T14:49:59Z</time>
      </trkpt>
      <trkpt lat="44.5247" lon="1.36902">
        <ele>258.4</ele>
        <time>2021-09-05T14:50:00Z</time>
      </trkpt>
      <trkpt lat="44.52469" lon="1.36901">
        <ele>258.5</ele>
        <time>2021-09-05T14:50:01Z</time>
      </trkpt>
      <trkpt lat="44.52468" lon="1.36896">
        <ele>258.6</ele>
        <time>2021-09-05T14:50:03Z</time>
      </trkpt>
      <trkpt lat="44.52467" lon="1.3689">
        <ele>258.8</ele>
        <time>2021-09-05T14:50:04Z</time>
      </trkpt>
      <trkpt lat="44.52465" lon="1.36884">
        <ele>259</ele>
        <time>2021-09-05T14:50:06Z</time>
      </trkpt>
      <trkpt lat="44.52464" lon="1.36883">
        <ele>259.1</ele>
        <time>2021-09-05T14:50:07Z</time>
      </trkpt>
      <trkpt lat="44.52461" lon="1.36878">
        <ele>259.3</ele>
        <time>2021-09-05T14:50:09Z</time>
      </trkpt>
      <trkpt lat="44.5246" lon="1.36876">
        <ele>259.4</ele>
        <time>2021-09-05T14:50:10Z</time>
      </trkpt>
      <trkpt lat="44.52459" lon="1.36874">
        <ele>259.5</ele>
        <time>2021-09-05T14:50:11Z</time>
      </trkpt>
      <trkpt lat="44.52459" lon="1.36871">
        <ele>259.7</ele>
        <time>2021-09-05T14:50:12Z</time>
      </trkpt>
      <trkpt lat="44.52458" lon="1.36869">
        <ele>259.9</ele>
        <time>2021-09-05T14:50:14Z</time>
      </trkpt>
      <trkpt lat="44.52457" lon="1.36865">
        <ele>260.1</ele>
        <time>2021-09-05T14:50:15Z</time>
      </trkpt>
      <trkpt lat="44.52457" lon="1.36864">
        <ele>260.2</ele>
        <time>2021-09-05T14:50:16Z</time>
      </trkpt>
      <trkpt lat="44.52456" lon="1.36861">
        <ele>260.4</ele>
        <time>2021-09-05T14:50:18Z</time>
      </trkpt>
      <trkpt lat="44.52456" lon="1.36857">
        <ele>260.7</ele>
        <time>2021-09-05T14:50:20Z</time>
      </trkpt>
      <trkpt lat="44.52455" lon="1.36853">
        <ele>261</ele>
        <time>2021-09-05T14:50:21Z</time>
      </trkpt>
      <trkpt lat="44.52454" lon="1.36852">
        <ele>261.1</ele>
        <time>2021-09-05T14:50:22Z</time>
      </trkpt>
      <trkpt lat="44.52453" lon="1.3685">
        <ele>261.2</ele>
        <time>2021-09-05T14:50:23Z</time>
      </trkpt>
      <trkpt lat="44.52453" lon="1.36848">
        <ele>261.4</ele>
        <time>2021-09-05T14:50:24Z</time>
      </trkpt>
      <trkpt lat="44.52451" lon="1.36844">
        <ele>261.7</ele>
        <time>2021-09-05T14:50:26Z</time>
      </trkpt>
      <trkpt lat="44.5245" lon="1.36841">
        <ele>261.9</ele>
        <time>2021-09-05T14:50:27Z</time>
      </trkpt>
      <trkpt lat="44.5245" lon="1.3684">
        <ele>262</ele>
        <time>2021-09-05T14:50:28Z</time>
      </trkpt>
      <trkpt lat="44.52448" lon="1.36839">
        <ele>262.2</ele>
        <time>2021-09-05T14:50:30Z</time>
      </trkpt>
      <trkpt lat="44.52447" lon="1.36836">
        <ele>262.5</ele>
        <time>2021-09-05T14:50:32Z</time>
      </trkpt>
      <trkpt lat="44.52445" lon="1.36834">
        <ele>262.7</ele>
        <time>2021-09-05T14:50:33Z</time>
      </trkpt>
      <trkpt lat="44.52444" lon="1.36832">
        <ele>262.8</ele>
        <time>2021-09-05T14:50:34Z</time>
      </trkpt>
      <trkpt lat="44.52443" lon="1.3683">
        <ele>263</ele>
        <time>2021-09-05T14:50:35Z</time>
      </trkpt>
      <trkpt lat="44.52441" lon="1.36827">
        <ele>263.3</ele>
        <time>2021-09-05T14:50:37Z</time>
      </trkpt>
      <trkpt lat="44.52439" lon="1.36824">
        <ele>263.6</ele>
        <time>2021-09-05T14:50:38Z</time>
      </trkpt>
      <trkpt lat="44.52439" lon="1.36823">
        <ele>263.7</ele>
        <time>2021-09-05T14:50:39Z</time>
      </trkpt>
      <trkpt lat="44.52438" lon="1.36822">
        <ele>263.8</ele>
        <time>2021-09-05T14:50:40Z</time>
      </trkpt>
      <trkpt lat="44.52436" lon="1.3682">
        <ele>264</ele>
        <time>2021-09-05T14:50:41Z</time>
      </trkpt>
      <trkpt lat="44.52434" lon="1.36817">
        <ele>264.3</ele>
        <time>2021-09-05T14:50:42Z</time>
      </trkpt>
      <trkpt lat="44.52433" lon="1.36815">
        <ele>264.5</ele>
        <time>2021-09-05T14:50:43Z</time>
      </trkpt>
      <trkpt lat="44.52433" lon="1.36814">
        <ele>264.6</ele>
        <time>2021-09-05T14:50:45Z</time>
      </trkpt>
      <trkpt lat="44.52431" lon="1.36812">
        <ele>264.8</ele>
        <time>2021-09-05T14:50:46Z</time>
      </trkpt>
      <trkpt lat="44.5243" lon="1.36811">
        <ele>264.9</ele>
        <time>2021-09-05T14:50:47Z</time>
      </trkpt>
      <trkpt lat="44.52429" lon="1.36809">
        <ele>265.1</ele>
        <time>2021-09-05T14:50:48Z</time>
      </trkpt>
      <trkpt lat="44.52427" lon="1.36807">
        <ele>265.4</ele>
        <time>2021-09-05T14:50:50Z</time>
      </trkpt>
      <trkpt lat="44.52427" lon="1.36807">
        <ele>265.4</ele>
        <time>2021-09-05T14:50:51Z</time>
      </trkpt>
      <trkpt lat="44.52427" lon="1.36806">
        <ele>265.5</ele>
        <time>2021-09-05T14:50:52Z</time>
      </trkpt>
      <trkpt lat="44.52427" lon="1.36806">
        <ele>265.5</ele>
        <time>2021-09-05T14:50:54Z</time>
      </trkpt>
      <trkpt lat="44.52426" lon="1.36806">
        <ele>265.6</ele>
        <time>2021-09-05T14:50:55Z</time>
      </trkpt>
      <trkpt lat="44.52426" lon="1.36805">
        <ele>265.6</ele>
        <time>2021-09-05T14:50:56Z</time>
      </trkpt>
      <trkpt lat="44.52426" lon="1.36805">
        <ele>265.6</ele>
        <time>2021-09-05T14:50:57Z</time>
      </trkpt>
      <trkpt lat="44.52425" lon="1.36802">
        <ele>265.9</ele>
        <time>2021-09-05T14:50:59Z</time>
      </trkpt>
      <trkpt lat="44.52424" lon="1.36799">
        <ele>266.3</ele>
        <time>2021-09-05T14:51:00Z</time>
      </trkpt>
      <trkpt lat="44.52422" lon="1.36796">
        <ele>266.6</ele>
        <time>2021-09-05T14:51:01Z</time>
      </trkpt>
      <trkpt lat="44.52421" lon="1.36791">
        <ele>267.1</ele>
        <time>2021-09-05T14:51:02Z</time>
      </trkpt>
      <trkpt lat="44.5242" lon="1.36789">
        <ele>267.3</ele>
        <time>2021-09-05T14:51:03Z</time>
      </trkpt>
      <trkpt lat="44.52418" lon="1.36784">
        <ele>267.8</ele>
        <time>2021-09-05T14:51:06Z</time>
      </trkpt>
      <trkpt lat="44.52416" lon="1.36781">
        <ele>268.3</ele>
        <time>2021-09-05T14:51:07Z</time>
      </trkpt>
      <trkpt lat="44.52415" lon="1.36778">
        <ele>268.5</ele>
        <time>2021-09-05T14:51:08Z</time>
      </trkpt>
      <trkpt lat="44.52415" lon="1.36777">
        <ele>268.7</ele>
        <time>2021-09-05T14:51:09Z</time>
      </trkpt>
      <trkpt lat="44.52414" lon="1.36775">
        <ele>269</ele>
        <time>2021-09-05T14:51:10Z</time>
      </trkpt>
      <trkpt lat="44.52413" lon="1.36773">
        <ele>269.1</ele>
        <time>2021-09-05T14:51:12Z</time>
      </trkpt>
      <trkpt lat="44.52413" lon="1.36772">
        <ele>269.3</ele>
        <time>2021-09-05T14:51:13Z</time>
      </trkpt>
      <trkpt lat="44.52413" lon="1.3677">
        <ele>269.5</ele>
        <time>2021-09-05T14:51:14Z</time>
      </trkpt>
      <trkpt lat="44.52412" lon="1.36769">
        <ele>269.6</ele>
        <time>2021-09-05T14:51:16Z</time>
      </trkpt>
      <trkpt lat="44.52412" lon="1.36767">
        <ele>269.8</ele>
        <time>2021-09-05T14:51:17Z</time>
      </trkpt>
      <trkpt lat="44.52412" lon="1.36766">
        <ele>270</ele>
        <time>2021-09-05T14:51:18Z</time>
      </trkpt>
      <trkpt lat="44.5241" lon="1.36761">
        <ele>270.4</ele>
        <time>2021-09-05T14:51:19Z</time>
      </trkpt>
      <trkpt lat="44.52408" lon="1.36757">
        <ele>271</ele>
        <time>2021-09-05T14:51:21Z</time>
      </trkpt>
      <trkpt lat="44.52407" lon="1.36754">
        <ele>271.4</ele>
        <time>2021-09-05T14:51:23Z</time>
      </trkpt>
      <trkpt lat="44.52406" lon="1.36752">
        <ele>271.6</ele>
        <time>2021-09-05T14:51:24Z</time>
      </trkpt>
      <trkpt lat="44.52405" lon="1.3675">
        <ele>271.9</ele>
        <time>2021-09-05T14:51:25Z</time>
      </trkpt>
      <trkpt lat="44.52404" lon="1.36746">
        <ele>272.3</ele>
        <time>2021-09-05T14:51:26Z</time>
      </trkpt>
      <trkpt lat="44.52404" lon="1.36745">
        <ele>272.4</ele>
        <time>2021-09-05T14:51:27Z</time>
      </trkpt>
      <trkpt lat="44.52404" lon="1.36744">
        <ele>272.5</ele>
        <time>2021-09-05T14:51:29Z</time>
      </trkpt>
      <trkpt lat="44.52403" lon="1.36744">
        <ele>272.5</ele>
        <time>2021-09-05T14:51:30Z</time>
      </trkpt>
      <trkpt lat="44.52403" lon="1.36743">
        <ele>272.6</ele>
        <time>2021-09-05T14:51:31Z</time>
      </trkpt>
      <trkpt lat="44.52403" lon="1.36743">
        <ele>272.6</ele>
        <time>2021-09-05T14:51:32Z</time>
      </trkpt>
      <trkpt lat="44.52403" lon="1.36742">
        <ele>272.7</ele>
        <time>2021-09-05T14:51:33Z</time>
      </trkpt>
      <trkpt lat="44.52403" lon="1.36742">
        <ele>272.7</ele>
        <time>2021-09-05T14:51:34Z</time>
      </trkpt>
      <trkpt lat="44.52402" lon="1.3674">
        <ele>272.9</ele>
        <time>2021-09-05T14:51:35Z</time>
      </trkpt>
      <trkpt lat="44.524" lon="1.36735">
        <ele>273.4</ele>
        <time>2021-09-05T14:51:36Z</time>
      </trkpt>
      <trkpt lat="44.52399" lon="1.36734">
        <ele>273.5</ele>
        <time>2021-09-05T14:51:38Z</time>
      </trkpt>
      <trkpt lat="44.52398" lon="1.36731">
        <ele>273.8</ele>
        <time>2021-09-05T14:51:40Z</time>
      </trkpt>
      <trkpt lat="44.52396" lon="1.36727">
        <ele>274.2</ele>
        <time>2021-09-05T14:51:41Z</time>
      </trkpt>
      <trkpt lat="44.52393" lon="1.36724">
        <ele>274.5</ele>
        <time>2021-09-05T14:51:42Z</time>
      </trkpt>
      <trkpt lat="44.52391" lon="1.36719">
        <ele>274.9</ele>
        <time>2021-09-05T14:51:44Z</time>
      </trkpt>
      <trkpt lat="44.5239" lon="1.36718">
        <ele>274.9</ele>
        <time>2021-09-05T14:51:45Z</time>
      </trkpt>
      <trkpt lat="44.5239" lon="1.36716">
        <ele>275</ele>
        <time>2021-09-05T14:51:46Z</time>
      </trkpt>
      <trkpt lat="44.52389" lon="1.36715">
        <ele>275</ele>
        <time>2021-09-05T14:51:47Z</time>
      </trkpt>
      <trkpt lat="44.52389" lon="1.36714">
        <ele>275.1</ele>
        <time>2021-09-05T14:51:48Z</time>
      </trkpt>
      <trkpt lat="44.52388" lon="1.36712">
        <ele>275.2</ele>
        <time>2021-09-05T14:51:49Z</time>
      </trkpt>
      <trkpt lat="44.52386" lon="1.36708">
        <ele>275.4</ele>
        <time>2021-09-05T14:51:51Z</time>
      </trkpt>
      <trkpt lat="44.52384" lon="1.36705">
        <ele>275.5</ele>
        <time>2021-09-05T14:51:53Z</time>
      </trkpt>
      <trkpt lat="44.52383" lon="1.36704">
        <ele>275.6</ele>
        <time>2021-09-05T14:51:54Z</time>
      </trkpt>
      <trkpt lat="44.52381" lon="1.36701">
        <ele>275.6</ele>
        <time>2021-09-05T14:51:55Z</time>
      </trkpt>
      <trkpt lat="44.5238" lon="1.367">
        <ele>275.7</ele>
        <time>2021-09-05T14:51:56Z</time>
      </trkpt>
      <trkpt lat="44.52379" lon="1.36696">
        <ele>275.7</ele>
        <time>2021-09-05T14:51:58Z</time>
      </trkpt>
      <trkpt lat="44.52377" lon="1.36692">
        <ele>275.8</ele>
        <time>2021-09-05T14:51:59Z</time>
      </trkpt>
      <trkpt lat="44.52376" lon="1.36689">
        <ele>275.9</ele>
        <time>2021-09-05T14:52:00Z</time>
      </trkpt>
      <trkpt lat="44.52373" lon="1.36684">
        <ele>275.9</ele>
        <time>2021-09-05T14:52:02Z</time>
      </trkpt>
      <trkpt lat="44.52372" lon="1.36681">
        <ele>276</ele>
        <time>2021-09-05T14:52:03Z</time>
      </trkpt>
      <trkpt lat="44.5237" lon="1.36677">
        <ele>276</ele>
        <time>2021-09-05T14:52:05Z</time>
      </trkpt>
      <trkpt lat="44.52369" lon="1.36673">
        <ele>276.1</ele>
        <time>2021-09-05T14:52:06Z</time>
      </trkpt>
      <trkpt lat="44.52366" lon="1.36666">
        <ele>276.2</ele>
        <time>2021-09-05T14:52:07Z</time>
      </trkpt>
      <trkpt lat="44.52365" lon="1.36663">
        <ele>276.2</ele>
        <time>2021-09-05T14:52:08Z</time>
      </trkpt>
      <trkpt lat="44.52363" lon="1.36658">
        <ele>276.3</ele>
        <time>2021-09-05T14:52:09Z</time>
      </trkpt>
      <trkpt lat="44.52363" lon="1.36652">
        <ele>276.4</ele>
        <time>2021-09-05T14:52:10Z</time>
      </trkpt>
      <trkpt lat="44.52361" lon="1.36648">
        <ele>276.5</ele>
        <time>2021-09-05T14:52:12Z</time>
      </trkpt>
      <trkpt lat="44.52361" lon="1.36639">
        <ele>276.7</ele>
        <time>2021-09-05T14:52:13Z</time>
      </trkpt>
      <trkpt lat="44.5236" lon="1.36631">
        <ele>276.8</ele>
        <time>2021-09-05T14:52:15Z</time>
      </trkpt>
      <trkpt lat="44.5236" lon="1.36628">
        <ele>276.8</ele>
        <time>2021-09-05T14:52:16Z</time>
      </trkpt>
      <trkpt lat="44.5236" lon="1.36624">
        <ele>276.8</ele>
        <time>2021-09-05T14:52:17Z</time>
      </trkpt>
      <trkpt lat="44.5236" lon="1.3662">
        <ele>276.9</ele>
        <time>2021-09-05T14:52:18Z</time>
      </trkpt>
      <trkpt lat="44.5236" lon="1.36616">
        <ele>276.9</ele>
        <time>2021-09-05T14:52:20Z</time>
      </trkpt>
      <trkpt lat="44.52359" lon="1.36608">
        <ele>277</ele>
        <time>2021-09-05T14:52:21Z</time>
      </trkpt>
      <trkpt lat="44.52358" lon="1.36604">
        <ele>277</ele>
        <time>2021-09-05T14:52:22Z</time>
      </trkpt>
      <trkpt lat="44.52355" lon="1.36596">
        <ele>277.1</ele>
        <time>2021-09-05T14:52:24Z</time>
      </trkpt>
      <trkpt lat="44.52354" lon="1.36593">
        <ele>277.1</ele>
        <time>2021-09-05T14:52:25Z</time>
      </trkpt>
      <trkpt lat="44.52351" lon="1.36589">
        <ele>277</ele>
        <time>2021-09-05T14:52:26Z</time>
      </trkpt>
      <trkpt lat="44.52348" lon="1.36586">
        <ele>277</ele>
        <time>2021-09-05T14:52:28Z</time>
      </trkpt>
      <trkpt lat="44.52346" lon="1.36583">
        <ele>277</ele>
        <time>2021-09-05T14:52:29Z</time>
      </trkpt>
      <trkpt lat="44.52342" lon="1.36578">
        <ele>276.8</ele>
        <time>2021-09-05T14:52:30Z</time>
      </trkpt>
      <trkpt lat="44.52337" lon="1.36573">
        <ele>276.6</ele>
        <time>2021-09-05T14:52:32Z</time>
      </trkpt>
      <trkpt lat="44.52332" lon="1.36567">
        <ele>276.4</ele>
        <time>2021-09-05T14:52:34Z</time>
      </trkpt>
      <trkpt lat="44.52329" lon="1.36564">
        <ele>276.3</ele>
        <time>2021-09-05T14:52:35Z</time>
      </trkpt>
      <trkpt lat="44.52325" lon="1.36559">
        <ele>276.2</ele>
        <time>2021-09-05T14:52:36Z</time>
      </trkpt>
      <trkpt lat="44.5232" lon="1.36553">
        <ele>276.1</ele>
        <time>2021-09-05T14:52:37Z</time>
      </trkpt>
      <trkpt lat="44.52315" lon="1.36548">
        <ele>276</ele>
        <time>2021-09-05T14:52:38Z</time>
      </trkpt>
      <trkpt lat="44.52313" lon="1.36545">
        <ele>276</ele>
        <time>2021-09-05T14:52:39Z</time>
      </trkpt>
      <trkpt lat="44.52309" lon="1.3654">
        <ele>275.9</ele>
        <time>2021-09-05T14:52:41Z</time>
      </trkpt>
      <trkpt lat="44.52306" lon="1.36536">
        <ele>275.7</ele>
        <time>2021-09-05T14:52:42Z</time>
      </trkpt>
      <trkpt lat="44.52302" lon="1.36533">
        <ele>275.6</ele>
        <time>2021-09-05T14:52:43Z</time>
      </trkpt>
      <trkpt lat="44.523" lon="1.36535">
        <ele>275.5</ele>
        <time>2021-09-05T14:52:45Z</time>
      </trkpt>
      <trkpt lat="44.52299" lon="1.36536">
        <ele>275.5</ele>
        <time>2021-09-05T14:52:46Z</time>
      </trkpt>
      <trkpt lat="44.52299" lon="1.36539">
        <ele>275.4</ele>
        <time>2021-09-05T14:52:47Z</time>
      </trkpt>
      <trkpt lat="44.523" lon="1.3654">
        <ele>275.4</ele>
        <time>2021-09-05T14:52:50Z</time>
      </trkpt>
      <trkpt lat="44.523" lon="1.36541">
        <ele>275.4</ele>
        <time>2021-09-05T14:52:51Z</time>
      </trkpt>
      <trkpt lat="44.523" lon="1.36542">
        <ele>275.3</ele>
        <time>2021-09-05T14:52:52Z</time>
      </trkpt>
      <trkpt lat="44.52301" lon="1.36543">
        <ele>275.3</ele>
        <time>2021-09-05T14:52:53Z</time>
      </trkpt>
      <trkpt lat="44.52301" lon="1.36545">
        <ele>275.3</ele>
        <time>2021-09-05T14:52:55Z</time>
      </trkpt>
      <trkpt lat="44.52301" lon="1.36546">
        <ele>275.3</ele>
        <time>2021-09-05T14:52:57Z</time>
      </trkpt>
      <trkpt lat="44.52301" lon="1.36547">
        <ele>275.2</ele>
        <time>2021-09-05T14:52:58Z</time>
      </trkpt>
      <trkpt lat="44.52302" lon="1.36548">
        <ele>275.2</ele>
        <time>2021-09-05T15:00:29Z</time>
      </trkpt>
      <trkpt lat="44.52302" lon="1.36549">
        <ele>275.2</ele>
        <time>2021-09-05T15:00:30Z</time>
      </trkpt>
      <trkpt lat="44.52303" lon="1.36556">
        <ele>275</ele>
        <time>2021-09-05T15:00:32Z</time>
      </trkpt>
      <trkpt lat="44.52303" lon="1.3656">
        <ele>274.8</ele>
        <time>2021-09-05T15:00:33Z</time>
      </trkpt>
      <trkpt lat="44.52301" lon="1.36564">
        <ele>274.7</ele>
        <time>2021-09-05T15:00:35Z</time>
      </trkpt>
      <trkpt lat="44.52301" lon="1.36565">
        <ele>274.6</ele>
        <time>2021-09-05T15:00:36Z</time>
      </trkpt>
      <trkpt lat="44.52299" lon="1.36569">
        <ele>274.4</ele>
        <time>2021-09-05T15:00:37Z</time>
      </trkpt>
      <trkpt lat="44.52298" lon="1.3657">
        <ele>274.3</ele>
        <time>2021-09-05T15:00:38Z</time>
      </trkpt>
      <trkpt lat="44.52295" lon="1.36573">
        <ele>274</ele>
        <time>2021-09-05T15:00:39Z</time>
      </trkpt>
      <trkpt lat="44.52291" lon="1.36576">
        <ele>273.7</ele>
        <time>2021-09-05T15:00:41Z</time>
      </trkpt>
      <trkpt lat="44.52285" lon="1.3658">
        <ele>273.1</ele>
        <time>2021-09-05T15:00:42Z</time>
      </trkpt>
      <trkpt lat="44.52278" lon="1.36586">
        <ele>272.4</ele>
        <time>2021-09-05T15:00:44Z</time>
      </trkpt>
      <trkpt lat="44.52272" lon="1.36589">
        <ele>271.8</ele>
        <time>2021-09-05T15:00:45Z</time>
      </trkpt>
      <trkpt lat="44.52259" lon="1.36593">
        <ele>270.6</ele>
        <time>2021-09-05T15:00:47Z</time>
      </trkpt>
      <trkpt lat="44.5225" lon="1.36598">
        <ele>269.8</ele>
        <time>2021-09-05T15:00:50Z</time>
      </trkpt>
      <trkpt lat="44.52245" lon="1.366">
        <ele>269.4</ele>
        <time>2021-09-05T15:00:51Z</time>
      </trkpt>
      <trkpt lat="44.52235" lon="1.36604">
        <ele>268.5</ele>
        <time>2021-09-05T15:00:53Z</time>
      </trkpt>
      <trkpt lat="44.52224" lon="1.36608">
        <ele>267.7</ele>
        <time>2021-09-05T15:00:55Z</time>
      </trkpt>
      <trkpt lat="44.52214" lon="1.36616">
        <ele>266.6</ele>
        <time>2021-09-05T15:00:56Z</time>
      </trkpt>
      <trkpt lat="44.52209" lon="1.3662">
        <ele>266.1</ele>
        <time>2021-09-05T15:00:57Z</time>
      </trkpt>
      <trkpt lat="44.522" lon="1.36625">
        <ele>265.1</ele>
        <time>2021-09-05T15:01:00Z</time>
      </trkpt>
      <trkpt lat="44.52194" lon="1.36625">
        <ele>264.5</ele>
        <time>2021-09-05T15:01:01Z</time>
      </trkpt>
      <trkpt lat="44.52188" lon="1.36626">
        <ele>263.9</ele>
        <time>2021-09-05T15:01:02Z</time>
      </trkpt>
      <trkpt lat="44.52177" lon="1.36634">
        <ele>262.8</ele>
        <time>2021-09-05T15:01:04Z</time>
      </trkpt>
      <trkpt lat="44.52173" lon="1.36638">
        <ele>262.4</ele>
        <time>2021-09-05T15:01:05Z</time>
      </trkpt>
      <trkpt lat="44.52171" lon="1.36643">
        <ele>262.1</ele>
        <time>2021-09-05T15:01:06Z</time>
      </trkpt>
      <trkpt lat="44.52165" lon="1.36653">
        <ele>261</ele>
        <time>2021-09-05T15:01:08Z</time>
      </trkpt>
      <trkpt lat="44.52161" lon="1.36658">
        <ele>260.4</ele>
        <time>2021-09-05T15:01:09Z</time>
      </trkpt>
      <trkpt lat="44.52159" lon="1.36658">
        <ele>260.1</ele>
        <time>2021-09-05T15:01:10Z</time>
      </trkpt>
      <trkpt lat="44.52147" lon="1.36659">
        <ele>258.5</ele>
        <time>2021-09-05T15:01:12Z</time>
      </trkpt>
      <trkpt lat="44.52137" lon="1.36664">
        <ele>257.3</ele>
        <time>2021-09-05T15:01:14Z</time>
      </trkpt>
      <trkpt lat="44.52126" lon="1.36674">
        <ele>256.1</ele>
        <time>2021-09-05T15:01:16Z</time>
      </trkpt>
      <trkpt lat="44.5212" lon="1.3668">
        <ele>255.5</ele>
        <time>2021-09-05T15:01:17Z</time>
      </trkpt>
      <trkpt lat="44.52108" lon="1.36689">
        <ele>254.3</ele>
        <time>2021-09-05T15:01:18Z</time>
      </trkpt>
      <trkpt lat="44.52102" lon="1.36692">
        <ele>253.8</ele>
        <time>2021-09-05T15:01:19Z</time>
      </trkpt>
      <trkpt lat="44.52096" lon="1.36693">
        <ele>253.3</ele>
        <time>2021-09-05T15:01:21Z</time>
      </trkpt>
      <trkpt lat="44.52091" lon="1.36691">
        <ele>252.9</ele>
        <time>2021-09-05T15:01:23Z</time>
      </trkpt>
      <trkpt lat="44.52088" lon="1.36692">
        <ele>252.5</ele>
        <time>2021-09-05T15:01:24Z</time>
      </trkpt>
      <trkpt lat="44.52084" lon="1.36693">
        <ele>252.2</ele>
        <time>2021-09-05T15:01:25Z</time>
      </trkpt>
      <trkpt lat="44.52081" lon="1.36694">
        <ele>251.7</ele>
        <time>2021-09-05T15:01:26Z</time>
      </trkpt>
      <trkpt lat="44.52076" lon="1.36699">
        <ele>251</ele>
        <time>2021-09-05T15:01:28Z</time>
      </trkpt>
      <trkpt lat="44.52068" lon="1.36707">
        <ele>249.8</ele>
        <time>2021-09-05T15:01:29Z</time>
      </trkpt>
      <trkpt lat="44.52063" lon="1.36709">
        <ele>249.2</ele>
        <time>2021-09-05T15:01:30Z</time>
      </trkpt>
      <trkpt lat="44.52058" lon="1.3671">
        <ele>248.6</ele>
        <time>2021-09-05T15:01:32Z</time>
      </trkpt>
      <trkpt lat="44.52046" lon="1.36713">
        <ele>247.5</ele>
        <time>2021-09-05T15:01:34Z</time>
      </trkpt>
      <trkpt lat="44.52034" lon="1.36715">
        <ele>246.4</ele>
        <time>2021-09-05T15:01:36Z</time>
      </trkpt>
      <trkpt lat="44.52022" lon="1.3672">
        <ele>245.4</ele>
        <time>2021-09-05T15:01:38Z</time>
      </trkpt>
      <trkpt lat="44.52005" lon="1.36731">
        <ele>243.9</ele>
        <time>2021-09-05T15:01:40Z</time>
      </trkpt>
      <trkpt lat="44.51997" lon="1.36734">
        <ele>243.1</ele>
        <time>2021-09-05T15:01:43Z</time>
      </trkpt>
      <trkpt lat="44.51991" lon="1.36734">
        <ele>242.6</ele>
        <time>2021-09-05T15:01:44Z</time>
      </trkpt>
      <trkpt lat="44.51979" lon="1.36738">
        <ele>241.4</ele>
        <time>2021-09-05T15:01:46Z</time>
      </trkpt>
      <trkpt lat="44.51973" lon="1.36741">
        <ele>240.8</ele>
        <time>2021-09-05T15:01:47Z</time>
      </trkpt>
      <trkpt lat="44.51961" lon="1.36739">
        <ele>239.5</ele>
        <time>2021-09-05T15:01:49Z</time>
      </trkpt>
      <trkpt lat="44.51957" lon="1.36738">
        <ele>239</ele>
        <time>2021-09-05T15:01:50Z</time>
      </trkpt>
      <trkpt lat="44.5195" lon="1.36742">
        <ele>238.2</ele>
        <time>2021-09-05T15:01:52Z</time>
      </trkpt>
      <trkpt lat="44.51945" lon="1.36747">
        <ele>237.4</ele>
        <time>2021-09-05T15:01:53Z</time>
      </trkpt>
      <trkpt lat="44.51939" lon="1.36753">
        <ele>236.6</ele>
        <time>2021-09-05T15:01:54Z</time>
      </trkpt>
      <trkpt lat="44.51927" lon="1.36759">
        <ele>235.2</ele>
        <time>2021-09-05T15:01:55Z</time>
      </trkpt>
      <trkpt lat="44.5192" lon="1.36761">
        <ele>234.4</ele>
        <time>2021-09-05T15:01:57Z</time>
      </trkpt>
      <trkpt lat="44.51913" lon="1.36764">
        <ele>233.8</ele>
        <time>2021-09-05T15:01:58Z</time>
      </trkpt>
      <trkpt lat="44.51897" lon="1.3677">
        <ele>232.4</ele>
        <time>2021-09-05T15:02:00Z</time>
      </trkpt>
      <trkpt lat="44.51885" lon="1.36774">
        <ele>231.2</ele>
        <time>2021-09-05T15:02:02Z</time>
      </trkpt>
      <trkpt lat="44.51876" lon="1.36777">
        <ele>229.9</ele>
        <time>2021-09-05T15:02:03Z</time>
      </trkpt>
      <trkpt lat="44.51866" lon="1.36782">
        <ele>228.2</ele>
        <time>2021-09-05T15:02:06Z</time>
      </trkpt>
      <trkpt lat="44.51861" lon="1.36787">
        <ele>226.9</ele>
        <time>2021-09-05T15:02:08Z</time>
      </trkpt>
      <trkpt lat="44.5186" lon="1.36789">
        <ele>226.6</ele>
        <time>2021-09-05T15:02:09Z</time>
      </trkpt>
      <trkpt lat="44.51859" lon="1.36791">
        <ele>226.2</ele>
        <time>2021-09-05T15:02:10Z</time>
      </trkpt>
      <trkpt lat="44.51858" lon="1.36792">
        <ele>225.9</ele>
        <time>2021-09-05T15:02:11Z</time>
      </trkpt>
      <trkpt lat="44.51857" lon="1.36794">
        <ele>225.5</ele>
        <time>2021-09-05T15:02:12Z</time>
      </trkpt>
      <trkpt lat="44.51856" lon="1.36795">
        <ele>225.2</ele>
        <time>2021-09-05T15:02:13Z</time>
      </trkpt>
      <trkpt lat="44.51855" lon="1.36796">
        <ele>224.9</ele>
        <time>2021-09-05T15:02:15Z</time>
      </trkpt>
      <trkpt lat="44.51855" lon="1.36796">
        <ele>224.9</ele>
        <time>2021-09-05T15:02:16Z</time>
      </trkpt>
      <trkpt lat="44.51852" lon="1.36797">
        <ele>224.3</ele>
        <time>2021-09-05T15:02:17Z</time>
      </trkpt>
      <trkpt lat="44.5185" lon="1.36797">
        <ele>223.8</ele>
        <time>2021-09-05T15:02:18Z</time>
      </trkpt>
      <trkpt lat="44.51845" lon="1.36797">
        <ele>222.6</ele>
        <time>2021-09-05T15:02:19Z</time>
      </trkpt>
      <trkpt lat="44.51836" lon="1.36796">
        <ele>220.5</ele>
        <time>2021-09-05T15:02:20Z</time>
      </trkpt>
      <trkpt lat="44.51832" lon="1.36792">
        <ele>219.4</ele>
        <time>2021-09-05T15:02:22Z</time>
      </trkpt>
      <trkpt lat="44.5183" lon="1.36788">
        <ele>218.5</ele>
        <time>2021-09-05T15:02:23Z</time>
      </trkpt>
      <trkpt lat="44.5183" lon="1.36786">
        <ele>218.1</ele>
        <time>2021-09-05T15:02:25Z</time>
      </trkpt>
      <trkpt lat="44.51829" lon="1.36787">
        <ele>217.9</ele>
        <time>2021-09-05T15:02:26Z</time>
      </trkpt>
      <trkpt lat="44.51829" lon="1.36786">
        <ele>217.8</ele>
        <time>2021-09-05T15:02:27Z</time>
      </trkpt>
      <trkpt lat="44.51829" lon="1.36786">
        <ele>217.8</ele>
        <time>2021-09-05T15:02:29Z</time>
      </trkpt>
      <trkpt lat="44.51829" lon="1.36787">
        <ele>217.7</ele>
        <time>2021-09-05T15:02:30Z</time>
      </trkpt>
      <trkpt lat="44.51829" lon="1.36787">
        <ele>217.7</ele>
        <time>2021-09-05T15:02:31Z</time>
      </trkpt>
      <trkpt lat="44.51829" lon="1.36787">
        <ele>217.6</ele>
        <time>2021-09-05T15:02:32Z</time>
      </trkpt>
      <trkpt lat="44.51829" lon="1.36787">
        <ele>217.6</ele>
        <time>2021-09-05T15:02:33Z</time>
      </trkpt>
      <trkpt lat="44.51825" lon="1.3678">
        <ele>215.9</ele>
        <time>2021-09-05T15:02:55Z</time>
      </trkpt>
      <trkpt lat="44.51823" lon="1.36778">
        <ele>215.4</ele>
        <time>2021-09-05T15:02:56Z</time>
      </trkpt>
      <trkpt lat="44.51822" lon="1.36777">
        <ele>215</ele>
        <time>2021-09-05T15:02:58Z</time>
      </trkpt>
      <trkpt lat="44.51817" lon="1.36773">
        <ele>213.8</ele>
        <time>2021-09-05T15:02:59Z</time>
      </trkpt>
      <trkpt lat="44.51809" lon="1.36768">
        <ele>211.9</ele>
        <time>2021-09-05T15:03:00Z</time>
      </trkpt>
      <trkpt lat="44.51804" lon="1.36766">
        <ele>210.6</ele>
        <time>2021-09-05T15:03:01Z</time>
      </trkpt>
      <trkpt lat="44.518" lon="1.36767">
        <ele>209.6</ele>
        <time>2021-09-05T15:03:02Z</time>
      </trkpt>
      <trkpt lat="44.51789" lon="1.36776">
        <ele>206.3</ele>
        <time>2021-09-05T15:03:04Z</time>
      </trkpt>
      <trkpt lat="44.51782" lon="1.3678">
        <ele>204.7</ele>
        <time>2021-09-05T15:03:05Z</time>
      </trkpt>
      <trkpt lat="44.51769" lon="1.36787">
        <ele>202.1</ele>
        <time>2021-09-05T15:03:07Z</time>
      </trkpt>
      <trkpt lat="44.51758" lon="1.36791">
        <ele>200.1</ele>
        <time>2021-09-05T15:03:10Z</time>
      </trkpt>
      <trkpt lat="44.51748" lon="1.36793">
        <ele>197.7</ele>
        <time>2021-09-05T15:03:12Z</time>
      </trkpt>
      <trkpt lat="44.51744" lon="1.36794">
        <ele>196.5</ele>
        <time>2021-09-05T15:03:13Z</time>
      </trkpt>
      <trkpt lat="44.5174" lon="1.36796">
        <ele>195.5</ele>
        <time>2021-09-05T15:03:14Z</time>
      </trkpt>
      <trkpt lat="44.51731" lon="1.36801">
        <ele>192.5</ele>
        <time>2021-09-05T15:03:16Z</time>
      </trkpt>
      <trkpt lat="44.5172" lon="1.36803">
        <ele>189.3</ele>
        <time>2021-09-05T15:03:18Z</time>
      </trkpt>
      <trkpt lat="44.51708" lon="1.36803">
        <ele>186.7</ele>
        <time>2021-09-05T15:03:20Z</time>
      </trkpt>
      <trkpt lat="44.51697" lon="1.36806">
        <ele>184.2</ele>
        <time>2021-09-05T15:03:22Z</time>
      </trkpt>
      <trkpt lat="44.51688" lon="1.3681">
        <ele>182</ele>
        <time>2021-09-05T15:03:24Z</time>
      </trkpt>
      <trkpt lat="44.5168" lon="1.36815">
        <ele>180</ele>
        <time>2021-09-05T15:03:26Z</time>
      </trkpt>
      <trkpt lat="44.51679" lon="1.36816">
        <ele>179.7</ele>
        <time>2021-09-05T15:03:27Z</time>
      </trkpt>
      <trkpt lat="44.5167" lon="1.36818">
        <ele>177.3</ele>
        <time>2021-09-05T15:03:29Z</time>
      </trkpt>
      <trkpt lat="44.51664" lon="1.3682">
        <ele>175.2</ele>
        <time>2021-09-05T15:03:30Z</time>
      </trkpt>
      <trkpt lat="44.51661" lon="1.36822">
        <ele>174.1</ele>
        <time>2021-09-05T15:03:32Z</time>
      </trkpt>
      <trkpt lat="44.51662" lon="1.3682">
        <ele>173.5</ele>
        <time>2021-09-05T15:03:33Z</time>
      </trkpt>
      <trkpt lat="44.51662" lon="1.36818">
        <ele>173</ele>
        <time>2021-09-05T15:03:34Z</time>
      </trkpt>
      <trkpt lat="44.51662" lon="1.36817">
        <ele>172.7</ele>
        <time>2021-09-05T15:03:35Z</time>
      </trkpt>
      <trkpt lat="44.51662" lon="1.36817">
        <ele>172.6</ele>
        <time>2021-09-05T15:03:36Z</time>
      </trkpt>
      <trkpt lat="44.51662" lon="1.36817">
        <ele>172.3</ele>
        <time>2021-09-05T15:03:37Z</time>
      </trkpt>
      <trkpt lat="44.51652" lon="1.36822">
        <ele>168.5</ele>
        <time>2021-09-05T15:03:39Z</time>
      </trkpt>
      <trkpt lat="44.51636" lon="1.3683">
        <ele>164.1</ele>
        <time>2021-09-05T15:03:40Z</time>
      </trkpt>
      <trkpt lat="44.51629" lon="1.36832">
        <ele>162.7</ele>
        <time>2021-09-05T15:03:42Z</time>
      </trkpt>
      <trkpt lat="44.51624" lon="1.36835">
        <ele>161.5</ele>
        <time>2021-09-05T15:03:43Z</time>
      </trkpt>
      <trkpt lat="44.51612" lon="1.3684">
        <ele>159.2</ele>
        <time>2021-09-05T15:03:45Z</time>
      </trkpt>
      <trkpt lat="44.516" lon="1.36848">
        <ele>157</ele>
        <time>2021-09-05T15:03:47Z</time>
      </trkpt>
      <trkpt lat="44.51595" lon="1.36851">
        <ele>156.7</ele>
        <time>2021-09-05T15:03:48Z</time>
      </trkpt>
      <trkpt lat="44.51583" lon="1.36857">
        <ele>155.9</ele>
        <time>2021-09-05T15:03:49Z</time>
      </trkpt>
      <trkpt lat="44.51577" lon="1.3686">
        <ele>155.6</ele>
        <time>2021-09-05T15:03:51Z</time>
      </trkpt>
      <trkpt lat="44.5157" lon="1.36864">
        <ele>155.2</ele>
        <time>2021-09-05T15:03:53Z</time>
      </trkpt>
      <trkpt lat="44.51568" lon="1.36865">
        <ele>155.1</ele>
        <time>2021-09-05T15:03:55Z</time>
      </trkpt>
      <trkpt lat="44.51567" lon="1.36865">
        <ele>155.1</ele>
        <time>2021-09-05T15:03:56Z</time>
      </trkpt>
      <trkpt lat="44.51567" lon="1.36866">
        <ele>155</ele>
        <time>2021-09-05T15:03:57Z</time>
      </trkpt>
      <trkpt lat="44.51566" lon="1.36866">
        <ele>155</ele>
        <time>2021-09-05T15:03:58Z</time>
      </trkpt>
      <trkpt lat="44.51566" lon="1.36867">
        <ele>155</ele>
        <time>2021-09-05T15:04:00Z</time>
      </trkpt>
      <trkpt lat="44.51566" lon="1.36867">
        <ele>155</ele>
        <time>2021-09-05T15:04:02Z</time>
      </trkpt>
      <trkpt lat="44.51565" lon="1.36867">
        <ele>155</ele>
        <time>2021-09-05T15:04:04Z</time>
      </trkpt>
      <trkpt lat="44.51565" lon="1.36868">
        <ele>154.9</ele>
        <time>2021-09-05T15:04:05Z</time>
      </trkpt>
      <trkpt lat="44.51564" lon="1.36868">
        <ele>154.9</ele>
        <time>2021-09-05T15:06:46Z</time>
      </trkpt>
      <trkpt lat="44.51564" lon="1.36868">
        <ele>154.9</ele>
        <time>2021-09-05T15:06:47Z</time>
      </trkpt>
      <trkpt lat="44.5156" lon="1.3687">
        <ele>154.8</ele>
        <time>2021-09-05T15:06:48Z</time>
      </trkpt>
      <trkpt lat="44.51559" lon="1.3687">
        <ele>154.7</ele>
        <time>2021-09-05T15:06:50Z</time>
      </trkpt>
      <trkpt lat="44.51556" lon="1.3687">
        <ele>154.7</ele>
        <time>2021-09-05T15:06:52Z</time>
      </trkpt>
      <trkpt lat="44.51555" lon="1.36871">
        <ele>154.7</ele>
        <time>2021-09-05T15:06:53Z</time>
      </trkpt>
      <trkpt lat="44.51554" lon="1.36871">
        <ele>154.6</ele>
        <time>2021-09-05T15:06:54Z</time>
      </trkpt>
      <trkpt lat="44.51551" lon="1.36873">
        <ele>154.6</ele>
        <time>2021-09-05T15:06:56Z</time>
      </trkpt>
      <trkpt lat="44.51549" lon="1.36873">
        <ele>154.6</ele>
        <time>2021-09-05T15:06:57Z</time>
      </trkpt>
      <trkpt lat="44.51545" lon="1.36875">
        <ele>154.6</ele>
        <time>2021-09-05T15:06:59Z</time>
      </trkpt>
      <trkpt lat="44.51541" lon="1.36877">
        <ele>154.6</ele>
        <time>2021-09-05T15:07:01Z</time>
      </trkpt>
      <trkpt lat="44.51537" lon="1.36879">
        <ele>154.6</ele>
        <time>2021-09-05T15:07:04Z</time>
      </trkpt>
      <trkpt lat="44.51533" lon="1.36881">
        <ele>154.6</ele>
        <time>2021-09-05T15:07:06Z</time>
      </trkpt>
      <trkpt lat="44.51532" lon="1.36883">
        <ele>154.7</ele>
        <time>2021-09-05T15:07:07Z</time>
      </trkpt>
      <trkpt lat="44.51528" lon="1.36885">
        <ele>154.7</ele>
        <time>2021-09-05T15:07:09Z</time>
      </trkpt>
      <trkpt lat="44.51525" lon="1.36887">
        <ele>154.8</ele>
        <time>2021-09-05T15:07:11Z</time>
      </trkpt>
      <trkpt lat="44.51521" lon="1.36889">
        <ele>154.8</ele>
        <time>2021-09-05T15:07:13Z</time>
      </trkpt>
      <trkpt lat="44.51517" lon="1.36892">
        <ele>154.9</ele>
        <time>2021-09-05T15:07:15Z</time>
      </trkpt>
      <trkpt lat="44.51515" lon="1.36894">
        <ele>154.9</ele>
        <time>2021-09-05T15:07:16Z</time>
      </trkpt>
      <trkpt lat="44.5151" lon="1.36897">
        <ele>154.9</ele>
        <time>2021-09-05T15:07:18Z</time>
      </trkpt>
      <trkpt lat="44.51506" lon="1.369">
        <ele>155</ele>
        <time>2021-09-05T15:07:21Z</time>
      </trkpt>
      <trkpt lat="44.51505" lon="1.36901">
        <ele>155</ele>
        <time>2021-09-05T15:07:22Z</time>
      </trkpt>
      <trkpt lat="44.51501" lon="1.36906">
        <ele>155</ele>
        <time>2021-09-05T15:07:24Z</time>
      </trkpt>
      <trkpt lat="44.51499" lon="1.36908">
        <ele>155</ele>
        <time>2021-09-05T15:07:25Z</time>
      </trkpt>
      <trkpt lat="44.51498" lon="1.36909">
        <ele>155.1</ele>
        <time>2021-09-05T15:07:26Z</time>
      </trkpt>
      <trkpt lat="44.51495" lon="1.36911">
        <ele>155.1</ele>
        <time>2021-09-05T15:07:28Z</time>
      </trkpt>
      <trkpt lat="44.51494" lon="1.36912">
        <ele>155.1</ele>
        <time>2021-09-05T15:07:29Z</time>
      </trkpt>
      <trkpt lat="44.51491" lon="1.36914">
        <ele>155.1</ele>
        <time>2021-09-05T15:07:31Z</time>
      </trkpt>
      <trkpt lat="44.51488" lon="1.36917">
        <ele>155</ele>
        <time>2021-09-05T15:07:33Z</time>
      </trkpt>
      <trkpt lat="44.51486" lon="1.36919">
        <ele>155</ele>
        <time>2021-09-05T15:07:34Z</time>
      </trkpt>
      <trkpt lat="44.51482" lon="1.3692">
        <ele>155</ele>
        <time>2021-09-05T15:07:36Z</time>
      </trkpt>
      <trkpt lat="44.51477" lon="1.36922">
        <ele>154.8</ele>
        <time>2021-09-05T15:07:37Z</time>
      </trkpt>
      <trkpt lat="44.51474" lon="1.36922">
        <ele>154.7</ele>
        <time>2021-09-05T15:07:38Z</time>
      </trkpt>
      <trkpt lat="44.51469" lon="1.36925">
        <ele>154.6</ele>
        <time>2021-09-05T15:07:40Z</time>
      </trkpt>
      <trkpt lat="44.51467" lon="1.36925">
        <ele>154.5</ele>
        <time>2021-09-05T15:07:41Z</time>
      </trkpt>
      <trkpt lat="44.51465" lon="1.36926">
        <ele>154.4</ele>
        <time>2021-09-05T15:07:42Z</time>
      </trkpt>
      <trkpt lat="44.51462" lon="1.36928">
        <ele>154.4</ele>
        <time>2021-09-05T15:07:44Z</time>
      </trkpt>
      <trkpt lat="44.51457" lon="1.3693">
        <ele>154.2</ele>
        <time>2021-09-05T15:07:45Z</time>
      </trkpt>
      <trkpt lat="44.51454" lon="1.36932">
        <ele>154.2</ele>
        <time>2021-09-05T15:07:46Z</time>
      </trkpt>
      <trkpt lat="44.5145" lon="1.36933">
        <ele>154</ele>
        <time>2021-09-05T15:07:48Z</time>
      </trkpt>
      <trkpt lat="44.51445" lon="1.36934">
        <ele>153.9</ele>
        <time>2021-09-05T15:07:50Z</time>
      </trkpt>
      <trkpt lat="44.51441" lon="1.36934">
        <ele>153.8</ele>
        <time>2021-09-05T15:07:51Z</time>
      </trkpt>
      <trkpt lat="44.51435" lon="1.36935">
        <ele>153.6</ele>
        <time>2021-09-05T15:07:53Z</time>
      </trkpt>
      <trkpt lat="44.51431" lon="1.36936">
        <ele>153.4</ele>
        <time>2021-09-05T15:07:54Z</time>
      </trkpt>
      <trkpt lat="44.51425" lon="1.36939">
        <ele>153.3</ele>
        <time>2021-09-05T15:07:56Z</time>
      </trkpt>
      <trkpt lat="44.51421" lon="1.3694">
        <ele>153.2</ele>
        <time>2021-09-05T15:07:58Z</time>
      </trkpt>
      <trkpt lat="44.51419" lon="1.36943">
        <ele>153.2</ele>
        <time>2021-09-05T15:07:59Z</time>
      </trkpt>
      <trkpt lat="44.51416" lon="1.36943">
        <ele>153.2</ele>
        <time>2021-09-05T15:08:01Z</time>
      </trkpt>
      <trkpt lat="44.51412" lon="1.36945">
        <ele>153.1</ele>
        <time>2021-09-05T15:08:03Z</time>
      </trkpt>
      <trkpt lat="44.51409" lon="1.36949">
        <ele>153</ele>
        <time>2021-09-05T15:08:04Z</time>
      </trkpt>
      <trkpt lat="44.51407" lon="1.36951">
        <ele>153</ele>
        <time>2021-09-05T15:08:05Z</time>
      </trkpt>
      <trkpt lat="44.51406" lon="1.36953">
        <ele>153</ele>
        <time>2021-09-05T15:08:07Z</time>
      </trkpt>
      <trkpt lat="44.51405" lon="1.36954">
        <ele>153</ele>
        <time>2021-09-05T15:08:09Z</time>
      </trkpt>
      <trkpt lat="44.51407" lon="1.36956">
        <ele>152.9</ele>
        <time>2021-09-05T15:08:11Z</time>
      </trkpt>
      <trkpt lat="44.51407" lon="1.36956">
        <ele>152.9</ele>
        <time>2021-09-05T15:08:14Z</time>
      </trkpt>
      <trkpt lat="44.51407" lon="1.36956">
        <ele>152.9</ele>
        <time>2021-09-05T15:08:15Z</time>
      </trkpt>
      <trkpt lat="44.51407" lon="1.36956">
        <ele>152.9</ele>
        <time>2021-09-05T15:08:16Z</time>
      </trkpt>
      <trkpt lat="44.51407" lon="1.36956">
        <ele>152.9</ele>
        <time>2021-09-05T15:08:17Z</time>
      </trkpt>
      <trkpt lat="44.51408" lon="1.36956">
        <ele>152.9</ele>
        <time>2021-09-05T15:08:18Z</time>
      </trkpt>
      <trkpt lat="44.51404" lon="1.36958">
        <ele>152.9</ele>
        <time>2021-09-05T15:08:33Z</time>
      </trkpt>
      <trkpt lat="44.51401" lon="1.36959">
        <ele>152.8</ele>
        <time>2021-09-05T15:08:34Z</time>
      </trkpt>
      <trkpt lat="44.51398" lon="1.3696">
        <ele>152.8</ele>
        <time>2021-09-05T15:08:35Z</time>
      </trkpt>
      <trkpt lat="44.51393" lon="1.36963">
        <ele>152.7</ele>
        <time>2021-09-05T15:08:37Z</time>
      </trkpt>
      <trkpt lat="44.51387" lon="1.3697">
        <ele>152.6</ele>
        <time>2021-09-05T15:08:38Z</time>
      </trkpt>
      <trkpt lat="44.51382" lon="1.36975">
        <ele>152.5</ele>
        <time>2021-09-05T15:08:40Z</time>
      </trkpt>
      <trkpt lat="44.51378" lon="1.36978">
        <ele>152.5</ele>
        <time>2021-09-05T15:08:41Z</time>
      </trkpt>
      <trkpt lat="44.51375" lon="1.36981">
        <ele>152.4</ele>
        <time>2021-09-05T15:08:43Z</time>
      </trkpt>
      <trkpt lat="44.51369" lon="1.36987">
        <ele>152.3</ele>
        <time>2021-09-05T15:08:44Z</time>
      </trkpt>
      <trkpt lat="44.51365" lon="1.36993">
        <ele>152.2</ele>
        <time>2021-09-05T15:08:46Z</time>
      </trkpt>
      <trkpt lat="44.51361" lon="1.36999">
        <ele>152.1</ele>
        <time>2021-09-05T15:08:47Z</time>
      </trkpt>
      <trkpt lat="44.51357" lon="1.37007">
        <ele>152</ele>
        <time>2021-09-05T15:08:48Z</time>
      </trkpt>
      <trkpt lat="44.51355" lon="1.37012">
        <ele>151.9</ele>
        <time>2021-09-05T15:08:49Z</time>
      </trkpt>
      <trkpt lat="44.5135" lon="1.37019">
        <ele>151.7</ele>
        <time>2021-09-05T15:08:51Z</time>
      </trkpt>
      <trkpt lat="44.51344" lon="1.37024">
        <ele>151.5</ele>
        <time>2021-09-05T15:08:53Z</time>
      </trkpt>
      <trkpt lat="44.51338" lon="1.37032">
        <ele>151.3</ele>
        <time>2021-09-05T15:08:55Z</time>
      </trkpt>
      <trkpt lat="44.51331" lon="1.3704">
        <ele>151.1</ele>
        <time>2021-09-05T15:08:57Z</time>
      </trkpt>
      <trkpt lat="44.51327" lon="1.37044">
        <ele>151.1</ele>
        <time>2021-09-05T15:08:58Z</time>
      </trkpt>
      <trkpt lat="44.51324" lon="1.37049">
        <ele>151</ele>
        <time>2021-09-05T15:08:59Z</time>
      </trkpt>
      <trkpt lat="44.51319" lon="1.37056">
        <ele>150.9</ele>
        <time>2021-09-05T15:09:00Z</time>
      </trkpt>
      <trkpt lat="44.51314" lon="1.37062">
        <ele>150.8</ele>
        <time>2021-09-05T15:09:02Z</time>
      </trkpt>
      <trkpt lat="44.5131" lon="1.37067">
        <ele>150.7</ele>
        <time>2021-09-05T15:09:03Z</time>
      </trkpt>
      <trkpt lat="44.51304" lon="1.37077">
        <ele>150.6</ele>
        <time>2021-09-05T15:09:05Z</time>
      </trkpt>
      <trkpt lat="44.51298" lon="1.37083">
        <ele>150.5</ele>
        <time>2021-09-05T15:09:07Z</time>
      </trkpt>
      <trkpt lat="44.51294" lon="1.37087">
        <ele>150.4</ele>
        <time>2021-09-05T15:09:08Z</time>
      </trkpt>
      <trkpt lat="44.5129" lon="1.37091">
        <ele>150.3</ele>
        <time>2021-09-05T15:09:09Z</time>
      </trkpt>
      <trkpt lat="44.51285" lon="1.37096">
        <ele>150.2</ele>
        <time>2021-09-05T15:09:11Z</time>
      </trkpt>
      <trkpt lat="44.51282" lon="1.37099">
        <ele>150.1</ele>
        <time>2021-09-05T15:09:12Z</time>
      </trkpt>
      <trkpt lat="44.51277" lon="1.37104">
        <ele>150</ele>
        <time>2021-09-05T15:09:13Z</time>
      </trkpt>
      <trkpt lat="44.51271" lon="1.37109">
        <ele>149.8</ele>
        <time>2021-09-05T15:09:15Z</time>
      </trkpt>
      <trkpt lat="44.51267" lon="1.37113">
        <ele>149.6</ele>
        <time>2021-09-05T15:09:16Z</time>
      </trkpt>
      <trkpt lat="44.51263" lon="1.37116">
        <ele>149.5</ele>
        <time>2021-09-05T15:09:17Z</time>
      </trkpt>
      <trkpt lat="44.51255" lon="1.37124">
        <ele>149.2</ele>
        <time>2021-09-05T15:09:19Z</time>
      </trkpt>
      <trkpt lat="44.51251" lon="1.37128">
        <ele>149.1</ele>
        <time>2021-09-05T15:09:20Z</time>
      </trkpt>
      <trkpt lat="44.51242" lon="1.37136">
        <ele>148.8</ele>
        <time>2021-09-05T15:09:21Z</time>
      </trkpt>
      <trkpt lat="44.51238" lon="1.37141">
        <ele>148.6</ele>
        <time>2021-09-05T15:09:23Z</time>
      </trkpt>
      <trkpt lat="44.51233" lon="1.37145">
        <ele>148.3</ele>
        <time>2021-09-05T15:09:24Z</time>
      </trkpt>
      <trkpt lat="44.51224" lon="1.37153">
        <ele>147.7</ele>
        <time>2021-09-05T15:09:26Z</time>
      </trkpt>
      <trkpt lat="44.51213" lon="1.37161">
        <ele>147.1</ele>
        <time>2021-09-05T15:09:28Z</time>
      </trkpt>
      <trkpt lat="44.51203" lon="1.37171">
        <ele>146.6</ele>
        <time>2021-09-05T15:09:30Z</time>
      </trkpt>
      <trkpt lat="44.51192" lon="1.3718">
        <ele>146.2</ele>
        <time>2021-09-05T15:09:32Z</time>
      </trkpt>
      <trkpt lat="44.51182" lon="1.37189">
        <ele>145.8</ele>
        <time>2021-09-05T15:09:34Z</time>
      </trkpt>
      <trkpt lat="44.51172" lon="1.37199">
        <ele>145.4</ele>
        <time>2021-09-05T15:09:35Z</time>
      </trkpt>
      <trkpt lat="44.51167" lon="1.37204">
        <ele>145.2</ele>
        <time>2021-09-05T15:09:37Z</time>
      </trkpt>
      <trkpt lat="44.51157" lon="1.37215">
        <ele>144.6</ele>
        <time>2021-09-05T15:09:39Z</time>
      </trkpt>
      <trkpt lat="44.51148" lon="1.37227">
        <ele>144.3</ele>
        <time>2021-09-05T15:09:41Z</time>
      </trkpt>
      <trkpt lat="44.51143" lon="1.37233">
        <ele>144.1</ele>
        <time>2021-09-05T15:09:42Z</time>
      </trkpt>
      <trkpt lat="44.51129" lon="1.3725">
        <ele>143.9</ele>
        <time>2021-09-05T15:09:44Z</time>
      </trkpt>
      <trkpt lat="44.5112" lon="1.37259">
        <ele>143.7</ele>
        <time>2021-09-05T15:09:47Z</time>
      </trkpt>
      <trkpt lat="44.5111" lon="1.37261">
        <ele>143.3</ele>
        <time>2021-09-05T15:09:49Z</time>
      </trkpt>
      <trkpt lat="44.51102" lon="1.3725">
        <ele>142.9</ele>
        <time>2021-09-05T15:09:50Z</time>
      </trkpt>
      <trkpt lat="44.511" lon="1.37243">
        <ele>142.8</ele>
        <time>2021-09-05T15:09:52Z</time>
      </trkpt>
      <trkpt lat="44.51095" lon="1.37237">
        <ele>142.7</ele>
        <time>2021-09-05T15:09:53Z</time>
      </trkpt>
      <trkpt lat="44.51091" lon="1.37232">
        <ele>142.7</ele>
        <time>2021-09-05T15:09:54Z</time>
      </trkpt>
      <trkpt lat="44.51087" lon="1.37229">
        <ele>142.6</ele>
        <time>2021-09-05T15:09:55Z</time>
      </trkpt>
      <trkpt lat="44.51082" lon="1.37228">
        <ele>142.6</ele>
        <time>2021-09-05T15:09:57Z</time>
      </trkpt>
      <trkpt lat="44.51081" lon="1.37228">
        <ele>142.6</ele>
        <time>2021-09-05T15:09:58Z</time>
      </trkpt>
      <trkpt lat="44.5108" lon="1.37227">
        <ele>142.6</ele>
        <time>2021-09-05T15:10:00Z</time>
      </trkpt>
      <trkpt lat="44.51078" lon="1.37227">
        <ele>142.5</ele>
        <time>2021-09-05T15:10:01Z</time>
      </trkpt>
      <trkpt lat="44.51077" lon="1.37227">
        <ele>142.6</ele>
        <time>2021-09-05T15:10:03Z</time>
      </trkpt>
      <trkpt lat="44.51075" lon="1.37227">
        <ele>142.6</ele>
        <time>2021-09-05T15:10:05Z</time>
      </trkpt>
      <trkpt lat="44.51074" lon="1.37226">
        <ele>142.6</ele>
        <time>2021-09-05T15:10:06Z</time>
      </trkpt>
      <trkpt lat="44.51072" lon="1.37226">
        <ele>142.6</ele>
        <time>2021-09-05T15:10:07Z</time>
      </trkpt>
      <trkpt lat="44.51071" lon="1.37226">
        <ele>142.6</ele>
        <time>2021-09-05T15:10:19Z</time>
      </trkpt>
      <trkpt lat="44.51069" lon="1.37226">
        <ele>142.6</ele>
        <time>2021-09-05T15:10:20Z</time>
      </trkpt>
      <trkpt lat="44.51064" lon="1.37226">
        <ele>142.5</ele>
        <time>2021-09-05T15:10:22Z</time>
      </trkpt>
      <trkpt lat="44.51061" lon="1.37226">
        <ele>142.5</ele>
        <time>2021-09-05T15:10:23Z</time>
      </trkpt>
      <trkpt lat="44.51056" lon="1.37227">
        <ele>142.5</ele>
        <time>2021-09-05T15:10:26Z</time>
      </trkpt>
      <trkpt lat="44.51053" lon="1.37228">
        <ele>142.5</ele>
        <time>2021-09-05T15:10:27Z</time>
      </trkpt>
      <trkpt lat="44.51049" lon="1.37229">
        <ele>142.5</ele>
        <time>2021-09-05T15:10:28Z</time>
      </trkpt>
      <trkpt lat="44.51045" lon="1.3723">
        <ele>142.6</ele>
        <time>2021-09-05T15:10:30Z</time>
      </trkpt>
      <trkpt lat="44.51041" lon="1.37231">
        <ele>142.6</ele>
        <time>2021-09-05T15:10:31Z</time>
      </trkpt>
      <trkpt lat="44.51038" lon="1.37231">
        <ele>142.6</ele>
        <time>2021-09-05T15:10:33Z</time>
      </trkpt>
      <trkpt lat="44.51035" lon="1.37231">
        <ele>142.6</ele>
        <time>2021-09-05T15:10:34Z</time>
      </trkpt>
      <trkpt lat="44.51029" lon="1.3723">
        <ele>142.6</ele>
        <time>2021-09-05T15:10:36Z</time>
      </trkpt>
      <trkpt lat="44.51027" lon="1.37231">
        <ele>142.6</ele>
        <time>2021-09-05T15:10:37Z</time>
      </trkpt>
      <trkpt lat="44.51021" lon="1.37231">
        <ele>142.7</ele>
        <time>2021-09-05T15:10:39Z</time>
      </trkpt>
      <trkpt lat="44.51016" lon="1.37232">
        <ele>142.7</ele>
        <time>2021-09-05T15:10:40Z</time>
      </trkpt>
      <trkpt lat="44.51012" lon="1.37233">
        <ele>142.8</ele>
        <time>2021-09-05T15:10:42Z</time>
      </trkpt>
      <trkpt lat="44.51009" lon="1.37234">
        <ele>142.9</ele>
        <time>2021-09-05T15:10:43Z</time>
      </trkpt>
      <trkpt lat="44.51002" lon="1.37234">
        <ele>143</ele>
        <time>2021-09-05T15:10:45Z</time>
      </trkpt>
      <trkpt lat="44.50998" lon="1.37234">
        <ele>143.1</ele>
        <time>2021-09-05T15:10:46Z</time>
      </trkpt>
      <trkpt lat="44.50995" lon="1.37234">
        <ele>143.2</ele>
        <time>2021-09-05T15:10:47Z</time>
      </trkpt>
      <trkpt lat="44.50988" lon="1.37233">
        <ele>143.3</ele>
        <time>2021-09-05T15:10:49Z</time>
      </trkpt>
      <trkpt lat="44.50985" lon="1.37232">
        <ele>143.4</ele>
        <time>2021-09-05T15:10:50Z</time>
      </trkpt>
      <trkpt lat="44.5098" lon="1.3723">
        <ele>143.5</ele>
        <time>2021-09-05T15:10:52Z</time>
      </trkpt>
      <trkpt lat="44.50977" lon="1.3723">
        <ele>143.5</ele>
        <time>2021-09-05T15:10:53Z</time>
      </trkpt>
      <trkpt lat="44.50973" lon="1.3723">
        <ele>143.6</ele>
        <time>2021-09-05T15:10:54Z</time>
      </trkpt>
      <trkpt lat="44.50971" lon="1.3723">
        <ele>143.6</ele>
        <time>2021-09-05T15:10:55Z</time>
      </trkpt>
      <trkpt lat="44.50968" lon="1.3723">
        <ele>143.7</ele>
        <time>2021-09-05T15:10:57Z</time>
      </trkpt>
      <trkpt lat="44.50967" lon="1.3723">
        <ele>143.7</ele>
        <time>2021-09-05T15:10:58Z</time>
      </trkpt>
      <trkpt lat="44.50967" lon="1.3723">
        <ele>143.7</ele>
        <time>2021-09-05T15:10:59Z</time>
      </trkpt>
      <trkpt lat="44.50967" lon="1.3723">
        <ele>143.7</ele>
        <time>2021-09-05T15:11:00Z</time>
      </trkpt>
      <trkpt lat="44.50967" lon="1.3723">
        <ele>143.7</ele>
        <time>2021-09-05T15:11:01Z</time>
      </trkpt>
      <trkpt lat="44.50967" lon="1.3723">
        <ele>143.7</ele>
        <time>2021-09-05T15:11:03Z</time>
      </trkpt>
      <trkpt lat="44.50967" lon="1.3723">
        <ele>143.7</ele>
        <time>2021-09-05T15:11:04Z</time>
      </trkpt>
      <trkpt lat="44.50968" lon="1.3723">
        <ele>143.7</ele>
        <time>2021-09-05T15:11:06Z</time>
      </trkpt>
      <trkpt lat="44.50968" lon="1.37231">
        <ele>143.7</ele>
        <time>2021-09-05T15:11:07Z</time>
      </trkpt>
      <trkpt lat="44.50968" lon="1.37231">
        <ele>143.7</ele>
        <time>2021-09-05T15:11:08Z</time>
      </trkpt>
      <trkpt lat="44.50968" lon="1.37231">
        <ele>143.7</ele>
        <time>2021-09-05T15:11:10Z</time>
      </trkpt>
      <trkpt lat="44.50958" lon="1.37225">
        <ele>144</ele>
        <time>2021-09-05T15:23:06Z</time>
      </trkpt>
      <trkpt lat="44.50955" lon="1.37225">
        <ele>144.2</ele>
        <time>2021-09-05T15:23:07Z</time>
      </trkpt>
      <trkpt lat="44.50951" lon="1.37224">
        <ele>144.4</ele>
        <time>2021-09-05T15:23:09Z</time>
      </trkpt>
      <trkpt lat="44.5095" lon="1.37223">
        <ele>144.4</ele>
        <time>2021-09-05T15:23:10Z</time>
      </trkpt>
      <trkpt lat="44.50948" lon="1.37223">
        <ele>144.5</ele>
        <time>2021-09-05T15:23:12Z</time>
      </trkpt>
      <trkpt lat="44.50948" lon="1.37222">
        <ele>144.6</ele>
        <time>2021-09-05T15:23:13Z</time>
      </trkpt>
      <trkpt lat="44.50945" lon="1.37221">
        <ele>144.8</ele>
        <time>2021-09-05T15:23:14Z</time>
      </trkpt>
      <trkpt lat="44.50942" lon="1.37222">
        <ele>144.9</ele>
        <time>2021-09-05T15:23:16Z</time>
      </trkpt>
      <trkpt lat="44.50938" lon="1.37221">
        <ele>145.2</ele>
        <time>2021-09-05T15:23:18Z</time>
      </trkpt>
      <trkpt lat="44.50934" lon="1.37221">
        <ele>145.4</ele>
        <time>2021-09-05T15:23:20Z</time>
      </trkpt>
      <trkpt lat="44.50929" lon="1.3722">
        <ele>145.8</ele>
        <time>2021-09-05T15:23:22Z</time>
      </trkpt>
      <trkpt lat="44.50927" lon="1.3722">
        <ele>145.9</ele>
        <time>2021-09-05T15:23:24Z</time>
      </trkpt>
      <trkpt lat="44.50925" lon="1.37219">
        <ele>146</ele>
        <time>2021-09-05T15:23:25Z</time>
      </trkpt>
      <trkpt lat="44.50924" lon="1.37219">
        <ele>146.2</ele>
        <time>2021-09-05T15:23:26Z</time>
      </trkpt>
      <trkpt lat="44.5092" lon="1.37217">
        <ele>146.5</ele>
        <time>2021-09-05T15:23:28Z</time>
      </trkpt>
      <trkpt lat="44.50917" lon="1.37217">
        <ele>146.6</ele>
        <time>2021-09-05T15:23:29Z</time>
      </trkpt>
      <trkpt lat="44.50914" lon="1.37215">
        <ele>146.9</ele>
        <time>2021-09-05T15:23:31Z</time>
      </trkpt>
      <trkpt lat="44.50911" lon="1.37214">
        <ele>147.1</ele>
        <time>2021-09-05T15:23:32Z</time>
      </trkpt>
      <trkpt lat="44.5091" lon="1.37214">
        <ele>147.2</ele>
        <time>2021-09-05T15:23:33Z</time>
      </trkpt>
      <trkpt lat="44.50908" lon="1.37214">
        <ele>147.3</ele>
        <time>2021-09-05T15:23:35Z</time>
      </trkpt>
      <trkpt lat="44.50906" lon="1.37212">
        <ele>147.5</ele>
        <time>2021-09-05T15:23:37Z</time>
      </trkpt>
      <trkpt lat="44.50905" lon="1.37212">
        <ele>147.6</ele>
        <time>2021-09-05T15:23:38Z</time>
      </trkpt>
      <trkpt lat="44.50905" lon="1.3721">
        <ele>147.6</ele>
        <time>2021-09-05T15:23:39Z</time>
      </trkpt>
      <trkpt lat="44.50904" lon="1.37208">
        <ele>147.8</ele>
        <time>2021-09-05T15:23:40Z</time>
      </trkpt>
      <trkpt lat="44.50903" lon="1.37203">
        <ele>147.8</ele>
        <time>2021-09-05T15:23:42Z</time>
      </trkpt>
      <trkpt lat="44.50903" lon="1.372">
        <ele>147.9</ele>
        <time>2021-09-05T15:23:43Z</time>
      </trkpt>
      <trkpt lat="44.50903" lon="1.37195">
        <ele>147.9</ele>
        <time>2021-09-05T15:23:45Z</time>
      </trkpt>
      <trkpt lat="44.50904" lon="1.37189">
        <ele>148</ele>
        <time>2021-09-05T15:23:47Z</time>
      </trkpt>
      <trkpt lat="44.50904" lon="1.37187">
        <ele>148.1</ele>
        <time>2021-09-05T15:23:48Z</time>
      </trkpt>
      <trkpt lat="44.50905" lon="1.37185">
        <ele>148.1</ele>
        <time>2021-09-05T15:23:49Z</time>
      </trkpt>
      <trkpt lat="44.50906" lon="1.37181">
        <ele>148.3</ele>
        <time>2021-09-05T15:23:50Z</time>
      </trkpt>
      <trkpt lat="44.50907" lon="1.37178">
        <ele>148.4</ele>
        <time>2021-09-05T15:23:52Z</time>
      </trkpt>
      <trkpt lat="44.50908" lon="1.37175">
        <ele>148.6</ele>
        <time>2021-09-05T15:23:54Z</time>
      </trkpt>
      <trkpt lat="44.5091" lon="1.3717">
        <ele>148.8</ele>
        <time>2021-09-05T15:23:55Z</time>
      </trkpt>
      <trkpt lat="44.50912" lon="1.37162">
        <ele>149.2</ele>
        <time>2021-09-05T15:23:57Z</time>
      </trkpt>
      <trkpt lat="44.50913" lon="1.37159">
        <ele>149.4</ele>
        <time>2021-09-05T15:23:59Z</time>
      </trkpt>
      <trkpt lat="44.50915" lon="1.37155">
        <ele>149.6</ele>
        <time>2021-09-05T15:24:00Z</time>
      </trkpt>
      <trkpt lat="44.50915" lon="1.37151">
        <ele>149.7</ele>
        <time>2021-09-05T15:24:01Z</time>
      </trkpt>
      <trkpt lat="44.50917" lon="1.37147">
        <ele>149.9</ele>
        <time>2021-09-05T15:24:03Z</time>
      </trkpt>
      <trkpt lat="44.50919" lon="1.37143">
        <ele>150.2</ele>
        <time>2021-09-05T15:24:04Z</time>
      </trkpt>
      <trkpt lat="44.5092" lon="1.3714">
        <ele>150.3</ele>
        <time>2021-09-05T15:24:05Z</time>
      </trkpt>
      <trkpt lat="44.50921" lon="1.37137">
        <ele>150.5</ele>
        <time>2021-09-05T15:24:07Z</time>
      </trkpt>
      <trkpt lat="44.50922" lon="1.37134">
        <ele>150.6</ele>
        <time>2021-09-05T15:24:08Z</time>
      </trkpt>
      <trkpt lat="44.50922" lon="1.3713">
        <ele>150.9</ele>
        <time>2021-09-05T15:24:10Z</time>
      </trkpt>
      <trkpt lat="44.50924" lon="1.37127">
        <ele>151.1</ele>
        <time>2021-09-05T15:24:11Z</time>
      </trkpt>
      <trkpt lat="44.50924" lon="1.37125">
        <ele>151.2</ele>
        <time>2021-09-05T15:24:12Z</time>
      </trkpt>
      <trkpt lat="44.50925" lon="1.37122">
        <ele>151.4</ele>
        <time>2021-09-05T15:24:14Z</time>
      </trkpt>
      <trkpt lat="44.50927" lon="1.37116">
        <ele>151.8</ele>
        <time>2021-09-05T15:24:16Z</time>
      </trkpt>
      <trkpt lat="44.50928" lon="1.37111">
        <ele>152.1</ele>
        <time>2021-09-05T15:24:18Z</time>
      </trkpt>
      <trkpt lat="44.5093" lon="1.37108">
        <ele>152.3</ele>
        <time>2021-09-05T15:24:19Z</time>
      </trkpt>
      <trkpt lat="44.5093" lon="1.37106">
        <ele>152.5</ele>
        <time>2021-09-05T15:24:20Z</time>
      </trkpt>
      <trkpt lat="44.50931" lon="1.37103">
        <ele>152.6</ele>
        <time>2021-09-05T15:24:22Z</time>
      </trkpt>
      <trkpt lat="44.50932" lon="1.37098">
        <ele>152.9</ele>
        <time>2021-09-05T15:24:24Z</time>
      </trkpt>
      <trkpt lat="44.50934" lon="1.37095">
        <ele>153.1</ele>
        <time>2021-09-05T15:24:25Z</time>
      </trkpt>
      <trkpt lat="44.50934" lon="1.37094">
        <ele>153.2</ele>
        <time>2021-09-05T15:24:26Z</time>
      </trkpt>
      <trkpt lat="44.50935" lon="1.37092">
        <ele>153.4</ele>
        <time>2021-09-05T15:24:27Z</time>
      </trkpt>
      <trkpt lat="44.50937" lon="1.37089">
        <ele>153.6</ele>
        <time>2021-09-05T15:24:29Z</time>
      </trkpt>
      <trkpt lat="44.50939" lon="1.37084">
        <ele>153.9</ele>
        <time>2021-09-05T15:24:31Z</time>
      </trkpt>
      <trkpt lat="44.5094" lon="1.37078">
        <ele>154.3</ele>
        <time>2021-09-05T15:24:33Z</time>
      </trkpt>
      <trkpt lat="44.5094" lon="1.37076">
        <ele>154.4</ele>
        <time>2021-09-05T15:24:34Z</time>
      </trkpt>
      <trkpt lat="44.50941" lon="1.37074">
        <ele>154.5</ele>
        <time>2021-09-05T15:24:35Z</time>
      </trkpt>
      <trkpt lat="44.50942" lon="1.37071">
        <ele>154.8</ele>
        <time>2021-09-05T15:24:36Z</time>
      </trkpt>
      <trkpt lat="44.50942" lon="1.37069">
        <ele>154.8</ele>
        <time>2021-09-05T15:24:37Z</time>
      </trkpt>
      <trkpt lat="44.50943" lon="1.37064">
        <ele>155.2</ele>
        <time>2021-09-05T15:24:40Z</time>
      </trkpt>
      <trkpt lat="44.50944" lon="1.37062">
        <ele>155.3</ele>
        <time>2021-09-05T15:24:41Z</time>
      </trkpt>
      <trkpt lat="44.50946" lon="1.37058">
        <ele>155.7</ele>
        <time>2021-09-05T15:24:43Z</time>
      </trkpt>
      <trkpt lat="44.50948" lon="1.37053">
        <ele>156.1</ele>
        <time>2021-09-05T15:24:45Z</time>
      </trkpt>
      <trkpt lat="44.50949" lon="1.3705">
        <ele>156.4</ele>
        <time>2021-09-05T15:24:46Z</time>
      </trkpt>
      <trkpt lat="44.50951" lon="1.37046">
        <ele>156.6</ele>
        <time>2021-09-05T15:24:48Z</time>
      </trkpt>
      <trkpt lat="44.50952" lon="1.37042">
        <ele>156.9</ele>
        <time>2021-09-05T15:24:49Z</time>
      </trkpt>
      <trkpt lat="44.50953" lon="1.37041">
        <ele>157.1</ele>
        <time>2021-09-05T15:24:50Z</time>
      </trkpt>
      <trkpt lat="44.50954" lon="1.37036">
        <ele>157.4</ele>
        <time>2021-09-05T15:24:51Z</time>
      </trkpt>
      <trkpt lat="44.50954" lon="1.37034">
        <ele>157.6</ele>
        <time>2021-09-05T15:24:53Z</time>
      </trkpt>
      <trkpt lat="44.50955" lon="1.37032">
        <ele>157.8</ele>
        <time>2021-09-05T15:24:54Z</time>
      </trkpt>
      <trkpt lat="44.50956" lon="1.37029">
        <ele>158</ele>
        <time>2021-09-05T15:24:55Z</time>
      </trkpt>
      <trkpt lat="44.50957" lon="1.37027">
        <ele>158.2</ele>
        <time>2021-09-05T15:24:57Z</time>
      </trkpt>
      <trkpt lat="44.50958" lon="1.37024">
        <ele>158.5</ele>
        <time>2021-09-05T15:24:59Z</time>
      </trkpt>
      <trkpt lat="44.50958" lon="1.37022">
        <ele>158.6</ele>
        <time>2021-09-05T15:25:00Z</time>
      </trkpt>
      <trkpt lat="44.50959" lon="1.3702">
        <ele>158.8</ele>
        <time>2021-09-05T15:25:01Z</time>
      </trkpt>
      <trkpt lat="44.50959" lon="1.37017">
        <ele>158.9</ele>
        <time>2021-09-05T15:25:02Z</time>
      </trkpt>
      <trkpt lat="44.5096" lon="1.37016">
        <ele>159.1</ele>
        <time>2021-09-05T15:25:03Z</time>
      </trkpt>
      <trkpt lat="44.50961" lon="1.37014">
        <ele>159.3</ele>
        <time>2021-09-05T15:25:05Z</time>
      </trkpt>
      <trkpt lat="44.50962" lon="1.37012">
        <ele>159.4</ele>
        <time>2021-09-05T15:25:06Z</time>
      </trkpt>
      <trkpt lat="44.50964" lon="1.3701">
        <ele>159.6</ele>
        <time>2021-09-05T15:25:08Z</time>
      </trkpt>
      <trkpt lat="44.50965" lon="1.37007">
        <ele>159.9</ele>
        <time>2021-09-05T15:25:10Z</time>
      </trkpt>
      <trkpt lat="44.50966" lon="1.37005">
        <ele>160</ele>
        <time>2021-09-05T15:25:11Z</time>
      </trkpt>
      <trkpt lat="44.50967" lon="1.37003">
        <ele>160.2</ele>
        <time>2021-09-05T15:25:12Z</time>
      </trkpt>
      <trkpt lat="44.50968" lon="1.37001">
        <ele>160.4</ele>
        <time>2021-09-05T15:25:13Z</time>
      </trkpt>
      <trkpt lat="44.50969" lon="1.36998">
        <ele>160.6</ele>
        <time>2021-09-05T15:25:15Z</time>
      </trkpt>
      <trkpt lat="44.5097" lon="1.36997">
        <ele>160.7</ele>
        <time>2021-09-05T15:25:16Z</time>
      </trkpt>
      <trkpt lat="44.5097" lon="1.36994">
        <ele>160.9</ele>
        <time>2021-09-05T15:25:17Z</time>
      </trkpt>
      <trkpt lat="44.50971" lon="1.36992">
        <ele>161</ele>
        <time>2021-09-05T15:25:18Z</time>
      </trkpt>
      <trkpt lat="44.50971" lon="1.36989">
        <ele>161.3</ele>
        <time>2021-09-05T15:25:21Z</time>
      </trkpt>
      <trkpt lat="44.50972" lon="1.36987">
        <ele>161.4</ele>
        <time>2021-09-05T15:25:22Z</time>
      </trkpt>
      <trkpt lat="44.50972" lon="1.36985">
        <ele>161.5</ele>
        <time>2021-09-05T15:25:23Z</time>
      </trkpt>
      <trkpt lat="44.50973" lon="1.36983">
        <ele>161.7</ele>
        <time>2021-09-05T15:25:25Z</time>
      </trkpt>
      <trkpt lat="44.50974" lon="1.36981">
        <ele>161.9</ele>
        <time>2021-09-05T15:25:26Z</time>
      </trkpt>
      <trkpt lat="44.50974" lon="1.3698">
        <ele>162</ele>
        <time>2021-09-05T15:25:27Z</time>
      </trkpt>
      <trkpt lat="44.50976" lon="1.36977">
        <ele>162.3</ele>
        <time>2021-09-05T15:25:29Z</time>
      </trkpt>
      <trkpt lat="44.50976" lon="1.36976">
        <ele>162.4</ele>
        <time>2021-09-05T15:25:31Z</time>
      </trkpt>
      <trkpt lat="44.50977" lon="1.36973">
        <ele>162.7</ele>
        <time>2021-09-05T15:25:32Z</time>
      </trkpt>
      <trkpt lat="44.50978" lon="1.36971">
        <ele>162.9</ele>
        <time>2021-09-05T15:25:33Z</time>
      </trkpt>
      <trkpt lat="44.50978" lon="1.36971">
        <ele>162.9</ele>
        <time>2021-09-05T15:25:34Z</time>
      </trkpt>
      <trkpt lat="44.50978" lon="1.3697">
        <ele>163</ele>
        <time>2021-09-05T15:25:35Z</time>
      </trkpt>
      <trkpt lat="44.5098" lon="1.36967">
        <ele>163.3</ele>
        <time>2021-09-05T15:25:37Z</time>
      </trkpt>
      <trkpt lat="44.50981" lon="1.36964">
        <ele>163.7</ele>
        <time>2021-09-05T15:25:38Z</time>
      </trkpt>
      <trkpt lat="44.50981" lon="1.36963">
        <ele>163.9</ele>
        <time>2021-09-05T15:25:39Z</time>
      </trkpt>
      <trkpt lat="44.50982" lon="1.36961">
        <ele>164.1</ele>
        <time>2021-09-05T15:25:41Z</time>
      </trkpt>
      <trkpt lat="44.50983" lon="1.3696">
        <ele>164.3</ele>
        <time>2021-09-05T15:25:44Z</time>
      </trkpt>
      <trkpt lat="44.50983" lon="1.36958">
        <ele>164.5</ele>
        <time>2021-09-05T15:25:45Z</time>
      </trkpt>
      <trkpt lat="44.50984" lon="1.36957">
        <ele>164.7</ele>
        <time>2021-09-05T15:25:46Z</time>
      </trkpt>
      <trkpt lat="44.50985" lon="1.36953">
        <ele>165.1</ele>
        <time>2021-09-05T15:25:47Z</time>
      </trkpt>
      <trkpt lat="44.50987" lon="1.36949">
        <ele>165.7</ele>
        <time>2021-09-05T15:25:49Z</time>
      </trkpt>
      <trkpt lat="44.50987" lon="1.36948">
        <ele>165.9</ele>
        <time>2021-09-05T15:25:50Z</time>
      </trkpt>
      <trkpt lat="44.50988" lon="1.36947">
        <ele>166.1</ele>
        <time>2021-09-05T15:25:52Z</time>
      </trkpt>
      <trkpt lat="44.50989" lon="1.36946">
        <ele>166.3</ele>
        <time>2021-09-05T15:25:53Z</time>
      </trkpt>
      <trkpt lat="44.5099" lon="1.36945">
        <ele>166.5</ele>
        <time>2021-09-05T15:25:55Z</time>
      </trkpt>
      <trkpt lat="44.5099" lon="1.36943">
        <ele>166.7</ele>
        <time>2021-09-05T15:25:56Z</time>
      </trkpt>
      <trkpt lat="44.50992" lon="1.3694">
        <ele>167.1</ele>
        <time>2021-09-05T15:25:58Z</time>
      </trkpt>
      <trkpt lat="44.50992" lon="1.36938">
        <ele>167.3</ele>
        <time>2021-09-05T15:25:59Z</time>
      </trkpt>
      <trkpt lat="44.50993" lon="1.36936">
        <ele>167.6</ele>
        <time>2021-09-05T15:26:01Z</time>
      </trkpt>
      <trkpt lat="44.50994" lon="1.36935">
        <ele>167.7</ele>
        <time>2021-09-05T15:26:02Z</time>
      </trkpt>
      <trkpt lat="44.50994" lon="1.36933">
        <ele>167.9</ele>
        <time>2021-09-05T15:26:03Z</time>
      </trkpt>
      <trkpt lat="44.50995" lon="1.36931">
        <ele>168.1</ele>
        <time>2021-09-05T15:26:04Z</time>
      </trkpt>
      <trkpt lat="44.50994" lon="1.36931">
        <ele>168.1</ele>
        <time>2021-09-05T15:26:06Z</time>
      </trkpt>
      <trkpt lat="44.50995" lon="1.3693">
        <ele>168.2</ele>
        <time>2021-09-05T15:26:07Z</time>
      </trkpt>
      <trkpt lat="44.50995" lon="1.36928">
        <ele>168.4</ele>
        <time>2021-09-05T15:26:08Z</time>
      </trkpt>
      <trkpt lat="44.50996" lon="1.36926">
        <ele>168.6</ele>
        <time>2021-09-05T15:26:09Z</time>
      </trkpt>
      <trkpt lat="44.50997" lon="1.36925">
        <ele>168.7</ele>
        <time>2021-09-05T15:26:10Z</time>
      </trkpt>
      <trkpt lat="44.50997" lon="1.36924">
        <ele>168.8</ele>
        <time>2021-09-05T15:26:12Z</time>
      </trkpt>
      <trkpt lat="44.50998" lon="1.36923">
        <ele>168.9</ele>
        <time>2021-09-05T15:26:13Z</time>
      </trkpt>
      <trkpt lat="44.50998" lon="1.36923">
        <ele>169</ele>
        <time>2021-09-05T15:26:14Z</time>
      </trkpt>
      <trkpt lat="44.50998" lon="1.36922">
        <ele>169.1</ele>
        <time>2021-09-05T15:26:16Z</time>
      </trkpt>
      <trkpt lat="44.50999" lon="1.36921">
        <ele>169.2</ele>
        <time>2021-09-05T15:26:17Z</time>
      </trkpt>
      <trkpt lat="44.50999" lon="1.36921">
        <ele>169.2</ele>
        <time>2021-09-05T15:26:18Z</time>
      </trkpt>
      <trkpt lat="44.51004" lon="1.36911">
        <ele>170.2</ele>
        <time>2021-09-05T15:26:25Z</time>
      </trkpt>
      <trkpt lat="44.51005" lon="1.36908">
        <ele>170.6</ele>
        <time>2021-09-05T15:26:27Z</time>
      </trkpt>
      <trkpt lat="44.51007" lon="1.36903">
        <ele>171.1</ele>
        <time>2021-09-05T15:26:29Z</time>
      </trkpt>
      <trkpt lat="44.51009" lon="1.36899">
        <ele>171.5</ele>
        <time>2021-09-05T15:26:30Z</time>
      </trkpt>
      <trkpt lat="44.5101" lon="1.36897">
        <ele>171.7</ele>
        <time>2021-09-05T15:26:31Z</time>
      </trkpt>
      <trkpt lat="44.51011" lon="1.36893">
        <ele>172.1</ele>
        <time>2021-09-05T15:26:34Z</time>
      </trkpt>
      <trkpt lat="44.51011" lon="1.36892">
        <ele>172.3</ele>
        <time>2021-09-05T15:26:35Z</time>
      </trkpt>
      <trkpt lat="44.51012" lon="1.3689">
        <ele>172.5</ele>
        <time>2021-09-05T15:26:36Z</time>
      </trkpt>
      <trkpt lat="44.51012" lon="1.36891">
        <ele>172.5</ele>
        <time>2021-09-05T15:26:38Z</time>
      </trkpt>
      <trkpt lat="44.51012" lon="1.36889">
        <ele>172.6</ele>
        <time>2021-09-05T15:26:39Z</time>
      </trkpt>
      <trkpt lat="44.51013" lon="1.36886">
        <ele>173</ele>
        <time>2021-09-05T15:26:41Z</time>
      </trkpt>
      <trkpt lat="44.51015" lon="1.36883">
        <ele>173.4</ele>
        <time>2021-09-05T15:26:43Z</time>
      </trkpt>
      <trkpt lat="44.51016" lon="1.3688">
        <ele>173.8</ele>
        <time>2021-09-05T15:26:44Z</time>
      </trkpt>
      <trkpt lat="44.51016" lon="1.36879">
        <ele>173.9</ele>
        <time>2021-09-05T15:26:46Z</time>
      </trkpt>
      <trkpt lat="44.51017" lon="1.36878">
        <ele>174</ele>
        <time>2021-09-05T15:26:47Z</time>
      </trkpt>
      <trkpt lat="44.51018" lon="1.36876">
        <ele>174.4</ele>
        <time>2021-09-05T15:26:49Z</time>
      </trkpt>
      <trkpt lat="44.51019" lon="1.36872">
        <ele>174.9</ele>
        <time>2021-09-05T15:26:50Z</time>
      </trkpt>
      <trkpt lat="44.5102" lon="1.3687">
        <ele>175.1</ele>
        <time>2021-09-05T15:26:52Z</time>
      </trkpt>
      <trkpt lat="44.5102" lon="1.36869">
        <ele>175.3</ele>
        <time>2021-09-05T15:26:54Z</time>
      </trkpt>
      <trkpt lat="44.51021" lon="1.36869">
        <ele>175.3</ele>
        <time>2021-09-05T15:26:55Z</time>
      </trkpt>
      <trkpt lat="44.51021" lon="1.36869">
        <ele>175.4</ele>
        <time>2021-09-05T15:26:56Z</time>
      </trkpt>
      <trkpt lat="44.51021" lon="1.36868">
        <ele>175.4</ele>
        <time>2021-09-05T15:26:57Z</time>
      </trkpt>
      <trkpt lat="44.51021" lon="1.36868">
        <ele>175.4</ele>
        <time>2021-09-05T15:26:59Z</time>
      </trkpt>
      <trkpt lat="44.51021" lon="1.36868">
        <ele>175.5</ele>
        <time>2021-09-05T15:27:00Z</time>
      </trkpt>
      <trkpt lat="44.51021" lon="1.36868">
        <ele>175.5</ele>
        <time>2021-09-05T15:27:02Z</time>
      </trkpt>
      <trkpt lat="44.51031" lon="1.36852">
        <ele>178</ele>
        <time>2021-09-05T15:27:15Z</time>
      </trkpt>
      <trkpt lat="44.51032" lon="1.36851">
        <ele>178.2</ele>
        <time>2021-09-05T15:27:16Z</time>
      </trkpt>
      <trkpt lat="44.51033" lon="1.3685">
        <ele>178.4</ele>
        <time>2021-09-05T15:27:17Z</time>
      </trkpt>
      <trkpt lat="44.51034" lon="1.36848">
        <ele>178.6</ele>
        <time>2021-09-05T15:27:19Z</time>
      </trkpt>
      <trkpt lat="44.51034" lon="1.36848">
        <ele>178.7</ele>
        <time>2021-09-05T15:27:20Z</time>
      </trkpt>
      <trkpt lat="44.51035" lon="1.36847">
        <ele>178.8</ele>
        <time>2021-09-05T15:27:21Z</time>
      </trkpt>
      <trkpt lat="44.51035" lon="1.36847">
        <ele>178.9</ele>
        <time>2021-09-05T15:27:23Z</time>
      </trkpt>
      <trkpt lat="44.51035" lon="1.36846">
        <ele>179</ele>
        <time>2021-09-05T15:27:24Z</time>
      </trkpt>
      <trkpt lat="44.51036" lon="1.36846">
        <ele>179</ele>
        <time>2021-09-05T15:27:25Z</time>
      </trkpt>
      <trkpt lat="44.51038" lon="1.36844">
        <ele>179.4</ele>
        <time>2021-09-05T15:27:27Z</time>
      </trkpt>
      <trkpt lat="44.51043" lon="1.36838">
        <ele>180.6</ele>
        <time>2021-09-05T15:27:29Z</time>
      </trkpt>
      <trkpt lat="44.51044" lon="1.36837">
        <ele>180.8</ele>
        <time>2021-09-05T15:27:30Z</time>
      </trkpt>
      <trkpt lat="44.51045" lon="1.36837">
        <ele>180.9</ele>
        <time>2021-09-05T15:27:31Z</time>
      </trkpt>
      <trkpt lat="44.51045" lon="1.36836">
        <ele>180.9</ele>
        <time>2021-09-05T15:27:32Z</time>
      </trkpt>
      <trkpt lat="44.51045" lon="1.36836">
        <ele>181</ele>
        <time>2021-09-05T15:27:34Z</time>
      </trkpt>
      <trkpt lat="44.51045" lon="1.36836">
        <ele>181</ele>
        <time>2021-09-05T15:27:36Z</time>
      </trkpt>
      <trkpt lat="44.51045" lon="1.36836">
        <ele>181</ele>
        <time>2021-09-05T15:27:37Z</time>
      </trkpt>
      <trkpt lat="44.51048" lon="1.36834">
        <ele>181.5</ele>
        <time>2021-09-05T15:27:40Z</time>
      </trkpt>
      <trkpt lat="44.51051" lon="1.36832">
        <ele>182.2</ele>
        <time>2021-09-05T15:27:41Z</time>
      </trkpt>
      <trkpt lat="44.51054" lon="1.3683">
        <ele>182.8</ele>
        <time>2021-09-05T15:27:42Z</time>
      </trkpt>
      <trkpt lat="44.51055" lon="1.3683">
        <ele>183.1</ele>
        <time>2021-09-05T15:27:44Z</time>
      </trkpt>
      <trkpt lat="44.51056" lon="1.3683">
        <ele>183.1</ele>
        <time>2021-09-05T15:27:45Z</time>
      </trkpt>
      <trkpt lat="44.51056" lon="1.3683">
        <ele>183.1</ele>
        <time>2021-09-05T15:27:47Z</time>
      </trkpt>
      <trkpt lat="44.51056" lon="1.3683">
        <ele>183.2</ele>
        <time>2021-09-05T15:27:48Z</time>
      </trkpt>
      <trkpt lat="44.51056" lon="1.3683">
        <ele>183.2</ele>
        <time>2021-09-05T15:27:49Z</time>
      </trkpt>
      <trkpt lat="44.51056" lon="1.36829">
        <ele>183.2</ele>
        <time>2021-09-05T15:27:51Z</time>
      </trkpt>
      <trkpt lat="44.51062" lon="1.36829">
        <ele>184.3</ele>
        <time>2021-09-05T15:27:53Z</time>
      </trkpt>
      <trkpt lat="44.51065" lon="1.36828">
        <ele>184.8</ele>
        <time>2021-09-05T15:27:54Z</time>
      </trkpt>
      <trkpt lat="44.51066" lon="1.36828">
        <ele>185.1</ele>
        <time>2021-09-05T15:27:55Z</time>
      </trkpt>
      <trkpt lat="44.51071" lon="1.36829">
        <ele>185.9</ele>
        <time>2021-09-05T15:28:02Z</time>
      </trkpt>
      <trkpt lat="44.51075" lon="1.36826">
        <ele>186.5</ele>
        <time>2021-09-05T15:28:04Z</time>
      </trkpt>
      <trkpt lat="44.51077" lon="1.36824">
        <ele>187</ele>
        <time>2021-09-05T15:28:05Z</time>
      </trkpt>
      <trkpt lat="44.51078" lon="1.36824">
        <ele>187.1</ele>
        <time>2021-09-05T15:28:06Z</time>
      </trkpt>
      <trkpt lat="44.51079" lon="1.36823">
        <ele>187.3</ele>
        <time>2021-09-05T15:28:07Z</time>
      </trkpt>
      <trkpt lat="44.51081" lon="1.36822">
        <ele>187.7</ele>
        <time>2021-09-05T15:28:10Z</time>
      </trkpt>
      <trkpt lat="44.51082" lon="1.36823">
        <ele>187.7</ele>
        <time>2021-09-05T15:28:11Z</time>
      </trkpt>
      <trkpt lat="44.51085" lon="1.36822">
        <ele>188.2</ele>
        <time>2021-09-05T15:28:13Z</time>
      </trkpt>
      <trkpt lat="44.51086" lon="1.36821">
        <ele>188.5</ele>
        <time>2021-09-05T15:28:15Z</time>
      </trkpt>
      <trkpt lat="44.51087" lon="1.3682">
        <ele>188.8</ele>
        <time>2021-09-05T15:28:16Z</time>
      </trkpt>
      <trkpt lat="44.51088" lon="1.36819">
        <ele>189</ele>
        <time>2021-09-05T15:28:17Z</time>
      </trkpt>
      <trkpt lat="44.5109" lon="1.36818">
        <ele>189.2</ele>
        <time>2021-09-05T15:28:18Z</time>
      </trkpt>
      <trkpt lat="44.51091" lon="1.36817">
        <ele>189.5</ele>
        <time>2021-09-05T15:28:19Z</time>
      </trkpt>
      <trkpt lat="44.51092" lon="1.36815">
        <ele>189.8</ele>
        <time>2021-09-05T15:28:20Z</time>
      </trkpt>
      <trkpt lat="44.51094" lon="1.36813">
        <ele>190.1</ele>
        <time>2021-09-05T15:28:21Z</time>
      </trkpt>
      <trkpt lat="44.51094" lon="1.36812">
        <ele>190.2</ele>
        <time>2021-09-05T15:28:23Z</time>
      </trkpt>
      <trkpt lat="44.51095" lon="1.36811">
        <ele>190.4</ele>
        <time>2021-09-05T15:28:24Z</time>
      </trkpt>
      <trkpt lat="44.51096" lon="1.36811">
        <ele>190.6</ele>
        <time>2021-09-05T15:28:25Z</time>
      </trkpt>
      <trkpt lat="44.51098" lon="1.3681">
        <ele>190.8</ele>
        <time>2021-09-05T15:28:26Z</time>
      </trkpt>
      <trkpt lat="44.51099" lon="1.3681">
        <ele>191</ele>
        <time>2021-09-05T15:28:28Z</time>
      </trkpt>
      <trkpt lat="44.511" lon="1.36809">
        <ele>191.2</ele>
        <time>2021-09-05T15:28:29Z</time>
      </trkpt>
      <trkpt lat="44.51101" lon="1.36809">
        <ele>191.3</ele>
        <time>2021-09-05T15:28:30Z</time>
      </trkpt>
      <trkpt lat="44.51102" lon="1.36808">
        <ele>191.4</ele>
        <time>2021-09-05T15:28:32Z</time>
      </trkpt>
      <trkpt lat="44.51103" lon="1.36808">
        <ele>191.6</ele>
        <time>2021-09-05T15:28:33Z</time>
      </trkpt>
      <trkpt lat="44.51103" lon="1.36807">
        <ele>191.7</ele>
        <time>2021-09-05T15:28:35Z</time>
      </trkpt>
      <trkpt lat="44.51104" lon="1.36806">
        <ele>191.9</ele>
        <time>2021-09-05T15:28:36Z</time>
      </trkpt>
      <trkpt lat="44.51105" lon="1.36805">
        <ele>192</ele>
        <time>2021-09-05T15:28:37Z</time>
      </trkpt>
      <trkpt lat="44.51106" lon="1.36805">
        <ele>192.2</ele>
        <time>2021-09-05T15:28:38Z</time>
      </trkpt>
      <trkpt lat="44.51107" lon="1.36803">
        <ele>192.4</ele>
        <time>2021-09-05T15:28:40Z</time>
      </trkpt>
      <trkpt lat="44.51108" lon="1.36802">
        <ele>192.6</ele>
        <time>2021-09-05T15:28:41Z</time>
      </trkpt>
      <trkpt lat="44.51109" lon="1.36802">
        <ele>192.7</ele>
        <time>2021-09-05T15:28:42Z</time>
      </trkpt>
      <trkpt lat="44.5111" lon="1.36801">
        <ele>192.9</ele>
        <time>2021-09-05T15:28:44Z</time>
      </trkpt>
      <trkpt lat="44.51111" lon="1.368">
        <ele>193</ele>
        <time>2021-09-05T15:28:45Z</time>
      </trkpt>
      <trkpt lat="44.51112" lon="1.36799">
        <ele>193.1</ele>
        <time>2021-09-05T15:28:46Z</time>
      </trkpt>
      <trkpt lat="44.51113" lon="1.36799">
        <ele>193.3</ele>
        <time>2021-09-05T15:28:47Z</time>
      </trkpt>
      <trkpt lat="44.51114" lon="1.36798">
        <ele>193.4</ele>
        <time>2021-09-05T15:28:49Z</time>
      </trkpt>
      <trkpt lat="44.51114" lon="1.36797">
        <ele>193.5</ele>
        <time>2021-09-05T15:28:50Z</time>
      </trkpt>
      <trkpt lat="44.51115" lon="1.36797">
        <ele>193.6</ele>
        <time>2021-09-05T15:28:51Z</time>
      </trkpt>
      <trkpt lat="44.51116" lon="1.36796">
        <ele>193.8</ele>
        <time>2021-09-05T15:28:52Z</time>
      </trkpt>
      <trkpt lat="44.51116" lon="1.36795">
        <ele>193.8</ele>
        <time>2021-09-05T15:28:54Z</time>
      </trkpt>
      <trkpt lat="44.51117" lon="1.36795">
        <ele>194</ele>
        <time>2021-09-05T15:28:55Z</time>
      </trkpt>
      <trkpt lat="44.51118" lon="1.36794">
        <ele>194.1</ele>
        <time>2021-09-05T15:28:56Z</time>
      </trkpt>
      <trkpt lat="44.51119" lon="1.36794">
        <ele>194.2</ele>
        <time>2021-09-05T15:28:57Z</time>
      </trkpt>
      <trkpt lat="44.5112" lon="1.36793">
        <ele>194.3</ele>
        <time>2021-09-05T15:28:59Z</time>
      </trkpt>
      <trkpt lat="44.5112" lon="1.36792">
        <ele>194.4</ele>
        <time>2021-09-05T15:29:00Z</time>
      </trkpt>
      <trkpt lat="44.51121" lon="1.36792">
        <ele>194.6</ele>
        <time>2021-09-05T15:29:01Z</time>
      </trkpt>
      <trkpt lat="44.51123" lon="1.36791">
        <ele>194.8</ele>
        <time>2021-09-05T15:29:02Z</time>
      </trkpt>
      <trkpt lat="44.51124" lon="1.3679">
        <ele>194.9</ele>
        <time>2021-09-05T15:29:03Z</time>
      </trkpt>
      <trkpt lat="44.51125" lon="1.36789">
        <ele>195.1</ele>
        <time>2021-09-05T15:29:05Z</time>
      </trkpt>
      <trkpt lat="44.51125" lon="1.36788">
        <ele>195.3</ele>
        <time>2021-09-05T15:29:07Z</time>
      </trkpt>
      <trkpt lat="44.51126" lon="1.36787">
        <ele>195.4</ele>
        <time>2021-09-05T15:29:08Z</time>
      </trkpt>
      <trkpt lat="44.51127" lon="1.36786">
        <ele>195.6</ele>
        <time>2021-09-05T15:29:09Z</time>
      </trkpt>
      <trkpt lat="44.51128" lon="1.36785">
        <ele>195.8</ele>
        <time>2021-09-05T15:29:11Z</time>
      </trkpt>
      <trkpt lat="44.51129" lon="1.36784">
        <ele>196.1</ele>
        <time>2021-09-05T15:29:12Z</time>
      </trkpt>
      <trkpt lat="44.51131" lon="1.36783">
        <ele>196.4</ele>
        <time>2021-09-05T15:29:13Z</time>
      </trkpt>
      <trkpt lat="44.51132" lon="1.36782">
        <ele>196.6</ele>
        <time>2021-09-05T15:29:15Z</time>
      </trkpt>
      <trkpt lat="44.51132" lon="1.36781">
        <ele>196.8</ele>
        <time>2021-09-05T15:29:16Z</time>
      </trkpt>
      <trkpt lat="44.51133" lon="1.36779">
        <ele>197</ele>
        <time>2021-09-05T15:29:17Z</time>
      </trkpt>
      <trkpt lat="44.51134" lon="1.36779">
        <ele>197.2</ele>
        <time>2021-09-05T15:29:18Z</time>
      </trkpt>
      <trkpt lat="44.51135" lon="1.36778">
        <ele>197.3</ele>
        <time>2021-09-05T15:29:19Z</time>
      </trkpt>
      <trkpt lat="44.51135" lon="1.36777">
        <ele>197.5</ele>
        <time>2021-09-05T15:29:21Z</time>
      </trkpt>
      <trkpt lat="44.51136" lon="1.36775">
        <ele>197.7</ele>
        <time>2021-09-05T15:29:22Z</time>
      </trkpt>
      <trkpt lat="44.51136" lon="1.36775">
        <ele>197.8</ele>
        <time>2021-09-05T15:29:24Z</time>
      </trkpt>
      <trkpt lat="44.51136" lon="1.36774">
        <ele>197.9</ele>
        <time>2021-09-05T15:29:25Z</time>
      </trkpt>
      <trkpt lat="44.51137" lon="1.36775">
        <ele>198</ele>
        <time>2021-09-05T15:29:26Z</time>
      </trkpt>
      <trkpt lat="44.51138" lon="1.36774">
        <ele>198.2</ele>
        <time>2021-09-05T15:29:27Z</time>
      </trkpt>
      <trkpt lat="44.51139" lon="1.36773">
        <ele>198.3</ele>
        <time>2021-09-05T15:29:29Z</time>
      </trkpt>
      <trkpt lat="44.5114" lon="1.36772">
        <ele>198.6</ele>
        <time>2021-09-05T15:29:30Z</time>
      </trkpt>
      <trkpt lat="44.5114" lon="1.3677">
        <ele>198.8</ele>
        <time>2021-09-05T15:29:32Z</time>
      </trkpt>
      <trkpt lat="44.51142" lon="1.36769">
        <ele>199</ele>
        <time>2021-09-05T15:29:33Z</time>
      </trkpt>
      <trkpt lat="44.51142" lon="1.36768">
        <ele>199.2</ele>
        <time>2021-09-05T15:29:34Z</time>
      </trkpt>
      <trkpt lat="44.51143" lon="1.36767">
        <ele>199.3</ele>
        <time>2021-09-05T15:29:35Z</time>
      </trkpt>
      <trkpt lat="44.51144" lon="1.36767">
        <ele>199.5</ele>
        <time>2021-09-05T15:29:37Z</time>
      </trkpt>
      <trkpt lat="44.51145" lon="1.36767">
        <ele>199.7</ele>
        <time>2021-09-05T15:29:38Z</time>
      </trkpt>
      <trkpt lat="44.51146" lon="1.36765">
        <ele>199.9</ele>
        <time>2021-09-05T15:29:40Z</time>
      </trkpt>
      <trkpt lat="44.51147" lon="1.36763">
        <ele>200.2</ele>
        <time>2021-09-05T15:29:41Z</time>
      </trkpt>
      <trkpt lat="44.51148" lon="1.36762">
        <ele>200.3</ele>
        <time>2021-09-05T15:29:42Z</time>
      </trkpt>
      <trkpt lat="44.51149" lon="1.36761">
        <ele>200.5</ele>
        <time>2021-09-05T15:29:43Z</time>
      </trkpt>
      <trkpt lat="44.51149" lon="1.3676">
        <ele>200.6</ele>
        <time>2021-09-05T15:29:44Z</time>
      </trkpt>
      <trkpt lat="44.5115" lon="1.3676">
        <ele>200.8</ele>
        <time>2021-09-05T15:29:46Z</time>
      </trkpt>
      <trkpt lat="44.51151" lon="1.36759">
        <ele>201</ele>
        <time>2021-09-05T15:29:47Z</time>
      </trkpt>
      <trkpt lat="44.51152" lon="1.36758">
        <ele>201.1</ele>
        <time>2021-09-05T15:29:48Z</time>
      </trkpt>
      <trkpt lat="44.51153" lon="1.36757">
        <ele>201.3</ele>
        <time>2021-09-05T15:29:49Z</time>
      </trkpt>
      <trkpt lat="44.51154" lon="1.36756">
        <ele>201.4</ele>
        <time>2021-09-05T15:29:50Z</time>
      </trkpt>
      <trkpt lat="44.51155" lon="1.36756">
        <ele>201.6</ele>
        <time>2021-09-05T15:29:52Z</time>
      </trkpt>
      <trkpt lat="44.51156" lon="1.36755">
        <ele>201.7</ele>
        <time>2021-09-05T15:29:53Z</time>
      </trkpt>
      <trkpt lat="44.51157" lon="1.36754">
        <ele>201.9</ele>
        <time>2021-09-05T15:29:54Z</time>
      </trkpt>
      <trkpt lat="44.51157" lon="1.36754">
        <ele>202</ele>
        <time>2021-09-05T15:29:55Z</time>
      </trkpt>
      <trkpt lat="44.51158" lon="1.36752">
        <ele>202.2</ele>
        <time>2021-09-05T15:29:56Z</time>
      </trkpt>
      <trkpt lat="44.51159" lon="1.36751">
        <ele>202.3</ele>
        <time>2021-09-05T15:29:58Z</time>
      </trkpt>
      <trkpt lat="44.51159" lon="1.36751">
        <ele>202.4</ele>
        <time>2021-09-05T15:29:59Z</time>
      </trkpt>
      <trkpt lat="44.51159" lon="1.3675">
        <ele>202.5</ele>
        <time>2021-09-05T15:30:00Z</time>
      </trkpt>
      <trkpt lat="44.5116" lon="1.3675">
        <ele>202.6</ele>
        <time>2021-09-05T15:30:01Z</time>
      </trkpt>
      <trkpt lat="44.5116" lon="1.36749">
        <ele>202.7</ele>
        <time>2021-09-05T15:30:03Z</time>
      </trkpt>
      <trkpt lat="44.5116" lon="1.36749">
        <ele>202.7</ele>
        <time>2021-09-05T15:30:05Z</time>
      </trkpt>
      <trkpt lat="44.5116" lon="1.36748">
        <ele>202.8</ele>
        <time>2021-09-05T15:30:06Z</time>
      </trkpt>
      <trkpt lat="44.51161" lon="1.36746">
        <ele>203.1</ele>
        <time>2021-09-05T15:30:07Z</time>
      </trkpt>
      <trkpt lat="44.51161" lon="1.36745">
        <ele>203.2</ele>
        <time>2021-09-05T15:30:08Z</time>
      </trkpt>
      <trkpt lat="44.51162" lon="1.36744">
        <ele>203.3</ele>
        <time>2021-09-05T15:30:10Z</time>
      </trkpt>
      <trkpt lat="44.51162" lon="1.36743">
        <ele>203.4</ele>
        <time>2021-09-05T15:30:11Z</time>
      </trkpt>
      <trkpt lat="44.51163" lon="1.36742">
        <ele>203.5</ele>
        <time>2021-09-05T15:30:12Z</time>
      </trkpt>
      <trkpt lat="44.51163" lon="1.36742">
        <ele>203.6</ele>
        <time>2021-09-05T15:30:13Z</time>
      </trkpt>
      <trkpt lat="44.51164" lon="1.36741">
        <ele>203.7</ele>
        <time>2021-09-05T15:30:14Z</time>
      </trkpt>
      <trkpt lat="44.51165" lon="1.3674">
        <ele>203.8</ele>
        <time>2021-09-05T15:30:16Z</time>
      </trkpt>
      <trkpt lat="44.51165" lon="1.36739">
        <ele>204</ele>
        <time>2021-09-05T15:30:18Z</time>
      </trkpt>
      <trkpt lat="44.51166" lon="1.36738">
        <ele>204.1</ele>
        <time>2021-09-05T15:30:19Z</time>
      </trkpt>
      <trkpt lat="44.51166" lon="1.36737">
        <ele>204.2</ele>
        <time>2021-09-05T15:30:20Z</time>
      </trkpt>
      <trkpt lat="44.51167" lon="1.36736">
        <ele>204.4</ele>
        <time>2021-09-05T15:30:21Z</time>
      </trkpt>
      <trkpt lat="44.51167" lon="1.36735">
        <ele>204.5</ele>
        <time>2021-09-05T15:30:22Z</time>
      </trkpt>
      <trkpt lat="44.51168" lon="1.36734">
        <ele>204.5</ele>
        <time>2021-09-05T15:30:23Z</time>
      </trkpt>
      <trkpt lat="44.51168" lon="1.36734">
        <ele>204.6</ele>
        <time>2021-09-05T15:30:25Z</time>
      </trkpt>
      <trkpt lat="44.51169" lon="1.36733">
        <ele>204.7</ele>
        <time>2021-09-05T15:30:26Z</time>
      </trkpt>
      <trkpt lat="44.51169" lon="1.36732">
        <ele>204.9</ele>
        <time>2021-09-05T15:30:27Z</time>
      </trkpt>
      <trkpt lat="44.5117" lon="1.36731">
        <ele>205</ele>
        <time>2021-09-05T15:30:28Z</time>
      </trkpt>
      <trkpt lat="44.5117" lon="1.36731">
        <ele>205.1</ele>
        <time>2021-09-05T15:30:30Z</time>
      </trkpt>
      <trkpt lat="44.51171" lon="1.3673">
        <ele>205.2</ele>
        <time>2021-09-05T15:30:31Z</time>
      </trkpt>
      <trkpt lat="44.51172" lon="1.36729">
        <ele>205.4</ele>
        <time>2021-09-05T15:30:32Z</time>
      </trkpt>
      <trkpt lat="44.51173" lon="1.36727">
        <ele>205.5</ele>
        <time>2021-09-05T15:30:33Z</time>
      </trkpt>
      <trkpt lat="44.51173" lon="1.36727">
        <ele>205.7</ele>
        <time>2021-09-05T15:30:34Z</time>
      </trkpt>
      <trkpt lat="44.51174" lon="1.36726">
        <ele>205.8</ele>
        <time>2021-09-05T15:30:36Z</time>
      </trkpt>
      <trkpt lat="44.51174" lon="1.36725">
        <ele>205.9</ele>
        <time>2021-09-05T15:30:37Z</time>
      </trkpt>
      <trkpt lat="44.51175" lon="1.36724">
        <ele>206</ele>
        <time>2021-09-05T15:30:38Z</time>
      </trkpt>
      <trkpt lat="44.51175" lon="1.36724">
        <ele>206.1</ele>
        <time>2021-09-05T15:30:40Z</time>
      </trkpt>
      <trkpt lat="44.51176" lon="1.36723">
        <ele>206.2</ele>
        <time>2021-09-05T15:30:41Z</time>
      </trkpt>
      <trkpt lat="44.51176" lon="1.36722">
        <ele>206.4</ele>
        <time>2021-09-05T15:30:42Z</time>
      </trkpt>
      <trkpt lat="44.51177" lon="1.3672">
        <ele>206.5</ele>
        <time>2021-09-05T15:30:44Z</time>
      </trkpt>
      <trkpt lat="44.51178" lon="1.36719">
        <ele>206.7</ele>
        <time>2021-09-05T15:30:46Z</time>
      </trkpt>
      <trkpt lat="44.51178" lon="1.36718">
        <ele>206.9</ele>
        <time>2021-09-05T15:30:47Z</time>
      </trkpt>
      <trkpt lat="44.51179" lon="1.36717">
        <ele>207</ele>
        <time>2021-09-05T15:30:49Z</time>
      </trkpt>
      <trkpt lat="44.5118" lon="1.36717">
        <ele>207.1</ele>
        <time>2021-09-05T15:30:50Z</time>
      </trkpt>
      <trkpt lat="44.5118" lon="1.36716">
        <ele>207.2</ele>
        <time>2021-09-05T15:30:51Z</time>
      </trkpt>
      <trkpt lat="44.51181" lon="1.36715">
        <ele>207.4</ele>
        <time>2021-09-05T15:30:53Z</time>
      </trkpt>
      <trkpt lat="44.51182" lon="1.36714">
        <ele>207.6</ele>
        <time>2021-09-05T15:30:54Z</time>
      </trkpt>
      <trkpt lat="44.51183" lon="1.36713">
        <ele>207.7</ele>
        <time>2021-09-05T15:30:55Z</time>
      </trkpt>
      <trkpt lat="44.51183" lon="1.36712">
        <ele>207.8</ele>
        <time>2021-09-05T15:30:57Z</time>
      </trkpt>
      <trkpt lat="44.51184" lon="1.3671">
        <ele>208</ele>
        <time>2021-09-05T15:30:58Z</time>
      </trkpt>
      <trkpt lat="44.51184" lon="1.3671">
        <ele>208.1</ele>
        <time>2021-09-05T15:30:59Z</time>
      </trkpt>
      <trkpt lat="44.51184" lon="1.36709">
        <ele>208.2</ele>
        <time>2021-09-05T15:31:01Z</time>
      </trkpt>
      <trkpt lat="44.51185" lon="1.36708">
        <ele>208.3</ele>
        <time>2021-09-05T15:31:02Z</time>
      </trkpt>
      <trkpt lat="44.51185" lon="1.36707">
        <ele>208.4</ele>
        <time>2021-09-05T15:31:03Z</time>
      </trkpt>
      <trkpt lat="44.51186" lon="1.36706">
        <ele>208.5</ele>
        <time>2021-09-05T15:31:05Z</time>
      </trkpt>
      <trkpt lat="44.51186" lon="1.36705">
        <ele>208.6</ele>
        <time>2021-09-05T15:31:07Z</time>
      </trkpt>
      <trkpt lat="44.51187" lon="1.36705">
        <ele>208.7</ele>
        <time>2021-09-05T15:31:08Z</time>
      </trkpt>
      <trkpt lat="44.51187" lon="1.36705">
        <ele>208.7</ele>
        <time>2021-09-05T15:31:09Z</time>
      </trkpt>
      <trkpt lat="44.51186" lon="1.36705">
        <ele>208.7</ele>
        <time>2021-09-05T15:31:11Z</time>
      </trkpt>
      <trkpt lat="44.51186" lon="1.36705">
        <ele>208.7</ele>
        <time>2021-09-05T15:31:12Z</time>
      </trkpt>
      <trkpt lat="44.51186" lon="1.36704">
        <ele>208.8</ele>
        <time>2021-09-05T15:31:14Z</time>
      </trkpt>
      <trkpt lat="44.51187" lon="1.36704">
        <ele>208.9</ele>
        <time>2021-09-05T15:31:15Z</time>
      </trkpt>
      <trkpt lat="44.51187" lon="1.36703">
        <ele>208.9</ele>
        <time>2021-09-05T15:31:16Z</time>
      </trkpt>
      <trkpt lat="44.51187" lon="1.36703">
        <ele>209</ele>
        <time>2021-09-05T15:31:17Z</time>
      </trkpt>
      <trkpt lat="44.51187" lon="1.36702">
        <ele>209</ele>
        <time>2021-09-05T15:31:18Z</time>
      </trkpt>
      <trkpt lat="44.51188" lon="1.36702">
        <ele>209.1</ele>
        <time>2021-09-05T15:31:19Z</time>
      </trkpt>
      <trkpt lat="44.51188" lon="1.36701">
        <ele>209.2</ele>
        <time>2021-09-05T15:31:21Z</time>
      </trkpt>
      <trkpt lat="44.51189" lon="1.36699">
        <ele>209.4</ele>
        <time>2021-09-05T15:31:22Z</time>
      </trkpt>
      <trkpt lat="44.5119" lon="1.36698">
        <ele>209.6</ele>
        <time>2021-09-05T15:31:23Z</time>
      </trkpt>
      <trkpt lat="44.51191" lon="1.36697">
        <ele>209.7</ele>
        <time>2021-09-05T15:31:24Z</time>
      </trkpt>
      <trkpt lat="44.51192" lon="1.36696">
        <ele>209.9</ele>
        <time>2021-09-05T15:31:25Z</time>
      </trkpt>
      <trkpt lat="44.51192" lon="1.36694">
        <ele>210</ele>
        <time>2021-09-05T15:31:26Z</time>
      </trkpt>
      <trkpt lat="44.51193" lon="1.36693">
        <ele>210.2</ele>
        <time>2021-09-05T15:31:28Z</time>
      </trkpt>
      <trkpt lat="44.51193" lon="1.36692">
        <ele>210.3</ele>
        <time>2021-09-05T15:31:30Z</time>
      </trkpt>
      <trkpt lat="44.51194" lon="1.3669">
        <ele>210.5</ele>
        <time>2021-09-05T15:31:31Z</time>
      </trkpt>
      <trkpt lat="44.51194" lon="1.36689">
        <ele>210.6</ele>
        <time>2021-09-05T15:31:32Z</time>
      </trkpt>
      <trkpt lat="44.51195" lon="1.36689">
        <ele>210.7</ele>
        <time>2021-09-05T15:31:33Z</time>
      </trkpt>
      <trkpt lat="44.51195" lon="1.36688">
        <ele>210.8</ele>
        <time>2021-09-05T15:31:36Z</time>
      </trkpt>
      <trkpt lat="44.51195" lon="1.36688">
        <ele>210.8</ele>
        <time>2021-09-05T15:31:38Z</time>
      </trkpt>
      <trkpt lat="44.51195" lon="1.36688">
        <ele>210.8</ele>
        <time>2021-09-05T15:31:40Z</time>
      </trkpt>
      <trkpt lat="44.51195" lon="1.36689">
        <ele>210.9</ele>
        <time>2021-09-05T15:31:41Z</time>
      </trkpt>
      <trkpt lat="44.51195" lon="1.36689">
        <ele>211</ele>
        <time>2021-09-05T15:31:43Z</time>
      </trkpt>
      <trkpt lat="44.51195" lon="1.36689">
        <ele>211</ele>
        <time>2021-09-05T15:31:45Z</time>
      </trkpt>
      <trkpt lat="44.51195" lon="1.36689">
        <ele>211</ele>
        <time>2021-09-05T15:31:47Z</time>
      </trkpt>
      <trkpt lat="44.51195" lon="1.36689">
        <ele>211</ele>
        <time>2021-09-05T15:31:48Z</time>
      </trkpt>
      <trkpt lat="44.51196" lon="1.36686">
        <ele>211.4</ele>
        <time>2021-09-05T15:32:11Z</time>
      </trkpt>
      <trkpt lat="44.51197" lon="1.36685">
        <ele>211.5</ele>
        <time>2021-09-05T15:32:12Z</time>
      </trkpt>
      <trkpt lat="44.51197" lon="1.36684">
        <ele>211.7</ele>
        <time>2021-09-05T15:32:13Z</time>
      </trkpt>
      <trkpt lat="44.51198" lon="1.36682">
        <ele>212</ele>
        <time>2021-09-05T15:32:15Z</time>
      </trkpt>
      <trkpt lat="44.51199" lon="1.3668">
        <ele>212.1</ele>
        <time>2021-09-05T15:32:16Z</time>
      </trkpt>
      <trkpt lat="44.51199" lon="1.36679">
        <ele>212.3</ele>
        <time>2021-09-05T15:32:18Z</time>
      </trkpt>
      <trkpt lat="44.512" lon="1.36678">
        <ele>212.4</ele>
        <time>2021-09-05T15:32:19Z</time>
      </trkpt>
      <trkpt lat="44.512" lon="1.36677">
        <ele>212.6</ele>
        <time>2021-09-05T15:32:20Z</time>
      </trkpt>
      <trkpt lat="44.512" lon="1.36675">
        <ele>212.7</ele>
        <time>2021-09-05T15:32:21Z</time>
      </trkpt>
      <trkpt lat="44.51201" lon="1.36674">
        <ele>212.9</ele>
        <time>2021-09-05T15:32:22Z</time>
      </trkpt>
      <trkpt lat="44.51201" lon="1.36673">
        <ele>213</ele>
        <time>2021-09-05T15:32:24Z</time>
      </trkpt>
      <trkpt lat="44.51202" lon="1.36672">
        <ele>213.2</ele>
        <time>2021-09-05T15:32:25Z</time>
      </trkpt>
      <trkpt lat="44.51202" lon="1.3667">
        <ele>213.3</ele>
        <time>2021-09-05T15:32:26Z</time>
      </trkpt>
      <trkpt lat="44.51203" lon="1.36669">
        <ele>213.6</ele>
        <time>2021-09-05T15:32:28Z</time>
      </trkpt>
      <trkpt lat="44.51203" lon="1.36668">
        <ele>213.7</ele>
        <time>2021-09-05T15:32:29Z</time>
      </trkpt>
      <trkpt lat="44.51204" lon="1.36666">
        <ele>213.9</ele>
        <time>2021-09-05T15:32:30Z</time>
      </trkpt>
      <trkpt lat="44.51204" lon="1.36665">
        <ele>214</ele>
        <time>2021-09-05T15:32:31Z</time>
      </trkpt>
      <trkpt lat="44.51205" lon="1.36664">
        <ele>214.1</ele>
        <time>2021-09-05T15:32:33Z</time>
      </trkpt>
      <trkpt lat="44.51205" lon="1.36663">
        <ele>214.3</ele>
        <time>2021-09-05T15:32:34Z</time>
      </trkpt>
      <trkpt lat="44.51206" lon="1.36662">
        <ele>214.4</ele>
        <time>2021-09-05T15:32:35Z</time>
      </trkpt>
      <trkpt lat="44.51206" lon="1.3666">
        <ele>214.7</ele>
        <time>2021-09-05T15:32:37Z</time>
      </trkpt>
      <trkpt lat="44.51207" lon="1.36659">
        <ele>214.7</ele>
        <time>2021-09-05T15:32:38Z</time>
      </trkpt>
      <trkpt lat="44.51207" lon="1.36658">
        <ele>214.8</ele>
        <time>2021-09-05T15:32:40Z</time>
      </trkpt>
      <trkpt lat="44.51207" lon="1.36657">
        <ele>214.9</ele>
        <time>2021-09-05T15:32:41Z</time>
      </trkpt>
      <trkpt lat="44.51208" lon="1.36656">
        <ele>215.1</ele>
        <time>2021-09-05T15:32:42Z</time>
      </trkpt>
      <trkpt lat="44.51209" lon="1.36655">
        <ele>215.2</ele>
        <time>2021-09-05T15:32:43Z</time>
      </trkpt>
      <trkpt lat="44.51209" lon="1.36654">
        <ele>215.4</ele>
        <time>2021-09-05T15:32:44Z</time>
      </trkpt>
      <trkpt lat="44.5121" lon="1.36652">
        <ele>215.5</ele>
        <time>2021-09-05T15:32:46Z</time>
      </trkpt>
      <trkpt lat="44.51211" lon="1.36651">
        <ele>215.7</ele>
        <time>2021-09-05T15:32:47Z</time>
      </trkpt>
      <trkpt lat="44.51212" lon="1.3665">
        <ele>215.8</ele>
        <time>2021-09-05T15:32:48Z</time>
      </trkpt>
      <trkpt lat="44.51212" lon="1.36649">
        <ele>216</ele>
        <time>2021-09-05T15:32:49Z</time>
      </trkpt>
      <trkpt lat="44.51213" lon="1.36648">
        <ele>216.1</ele>
        <time>2021-09-05T15:32:51Z</time>
      </trkpt>
      <trkpt lat="44.51213" lon="1.36646">
        <ele>216.2</ele>
        <time>2021-09-05T15:32:52Z</time>
      </trkpt>
      <trkpt lat="44.51213" lon="1.36645">
        <ele>216.3</ele>
        <time>2021-09-05T15:32:53Z</time>
      </trkpt>
      <trkpt lat="44.51214" lon="1.36643">
        <ele>216.5</ele>
        <time>2021-09-05T15:32:55Z</time>
      </trkpt>
      <trkpt lat="44.51215" lon="1.36641">
        <ele>216.6</ele>
        <time>2021-09-05T15:32:56Z</time>
      </trkpt>
      <trkpt lat="44.51215" lon="1.36639">
        <ele>216.8</ele>
        <time>2021-09-05T15:32:57Z</time>
      </trkpt>
      <trkpt lat="44.51216" lon="1.36638">
        <ele>217</ele>
        <time>2021-09-05T15:32:59Z</time>
      </trkpt>
      <trkpt lat="44.51216" lon="1.36636">
        <ele>217.1</ele>
        <time>2021-09-05T15:33:01Z</time>
      </trkpt>
      <trkpt lat="44.51217" lon="1.36635">
        <ele>217.2</ele>
        <time>2021-09-05T15:33:02Z</time>
      </trkpt>
      <trkpt lat="44.51217" lon="1.36634">
        <ele>217.3</ele>
        <time>2021-09-05T15:33:03Z</time>
      </trkpt>
      <trkpt lat="44.51217" lon="1.36632">
        <ele>217.4</ele>
        <time>2021-09-05T15:33:05Z</time>
      </trkpt>
      <trkpt lat="44.51218" lon="1.36631">
        <ele>217.6</ele>
        <time>2021-09-05T15:33:06Z</time>
      </trkpt>
      <trkpt lat="44.51218" lon="1.3663">
        <ele>217.7</ele>
        <time>2021-09-05T15:33:07Z</time>
      </trkpt>
      <trkpt lat="44.51219" lon="1.36628">
        <ele>217.8</ele>
        <time>2021-09-05T15:33:10Z</time>
      </trkpt>
      <trkpt lat="44.51219" lon="1.36627">
        <ele>217.9</ele>
        <time>2021-09-05T15:33:12Z</time>
      </trkpt>
      <trkpt lat="44.51219" lon="1.36626">
        <ele>218</ele>
        <time>2021-09-05T15:33:14Z</time>
      </trkpt>
      <trkpt lat="44.5122" lon="1.36624">
        <ele>218.1</ele>
        <time>2021-09-05T15:33:15Z</time>
      </trkpt>
      <trkpt lat="44.5122" lon="1.36623">
        <ele>218.3</ele>
        <time>2021-09-05T15:33:17Z</time>
      </trkpt>
      <trkpt lat="44.51221" lon="1.36621">
        <ele>218.4</ele>
        <time>2021-09-05T15:33:19Z</time>
      </trkpt>
      <trkpt lat="44.51221" lon="1.3662">
        <ele>218.5</ele>
        <time>2021-09-05T15:33:20Z</time>
      </trkpt>
      <trkpt lat="44.51221" lon="1.36619">
        <ele>218.6</ele>
        <time>2021-09-05T15:33:21Z</time>
      </trkpt>
      <trkpt lat="44.51222" lon="1.36618">
        <ele>218.7</ele>
        <time>2021-09-05T15:33:22Z</time>
      </trkpt>
      <trkpt lat="44.51222" lon="1.36617">
        <ele>218.8</ele>
        <time>2021-09-05T15:33:23Z</time>
      </trkpt>
      <trkpt lat="44.51222" lon="1.36617">
        <ele>218.8</ele>
        <time>2021-09-05T15:33:25Z</time>
      </trkpt>
      <trkpt lat="44.51222" lon="1.36616">
        <ele>218.9</ele>
        <time>2021-09-05T15:33:26Z</time>
      </trkpt>
      <trkpt lat="44.51222" lon="1.36616">
        <ele>218.9</ele>
        <time>2021-09-05T15:33:28Z</time>
      </trkpt>
      <trkpt lat="44.51222" lon="1.36616">
        <ele>218.9</ele>
        <time>2021-09-05T15:33:29Z</time>
      </trkpt>
      <trkpt lat="44.51222" lon="1.36616">
        <ele>219</ele>
        <time>2021-09-05T15:33:30Z</time>
      </trkpt>
      <trkpt lat="44.51222" lon="1.36616">
        <ele>219</ele>
        <time>2021-09-05T15:33:31Z</time>
      </trkpt>
      <trkpt lat="44.51222" lon="1.36616">
        <ele>219</ele>
        <time>2021-09-05T15:33:33Z</time>
      </trkpt>
      <trkpt lat="44.51222" lon="1.36616">
        <ele>219</ele>
        <time>2021-09-05T15:33:34Z</time>
      </trkpt>
      <trkpt lat="44.51222" lon="1.36616">
        <ele>219</ele>
        <time>2021-09-05T15:33:36Z</time>
      </trkpt>
      <trkpt lat="44.51222" lon="1.36616">
        <ele>219</ele>
        <time>2021-09-05T15:33:37Z</time>
      </trkpt>
      <trkpt lat="44.51222" lon="1.36616">
        <ele>219</ele>
        <time>2021-09-05T15:33:38Z</time>
      </trkpt>
      <trkpt lat="44.51222" lon="1.36611">
        <ele>219.4</ele>
        <time>2021-09-05T15:33:42Z</time>
      </trkpt>
      <trkpt lat="44.51223" lon="1.36608">
        <ele>219.7</ele>
        <time>2021-09-05T15:33:44Z</time>
      </trkpt>
      <trkpt lat="44.51223" lon="1.36607">
        <ele>219.8</ele>
        <time>2021-09-05T15:33:45Z</time>
      </trkpt>
      <trkpt lat="44.51224" lon="1.36605">
        <ele>220</ele>
        <time>2021-09-05T15:33:46Z</time>
      </trkpt>
      <trkpt lat="44.51225" lon="1.36603">
        <ele>220.1</ele>
        <time>2021-09-05T15:33:47Z</time>
      </trkpt>
      <trkpt lat="44.51225" lon="1.36602">
        <ele>220.3</ele>
        <time>2021-09-05T15:33:48Z</time>
      </trkpt>
      <trkpt lat="44.51226" lon="1.36601">
        <ele>220.3</ele>
        <time>2021-09-05T15:33:49Z</time>
      </trkpt>
      <trkpt lat="44.51227" lon="1.366">
        <ele>220.5</ele>
        <time>2021-09-05T15:33:51Z</time>
      </trkpt>
      <trkpt lat="44.51227" lon="1.36598">
        <ele>220.6</ele>
        <time>2021-09-05T15:33:53Z</time>
      </trkpt>
      <trkpt lat="44.51227" lon="1.36597">
        <ele>220.7</ele>
        <time>2021-09-05T15:33:54Z</time>
      </trkpt>
      <trkpt lat="44.51228" lon="1.36596">
        <ele>220.8</ele>
        <time>2021-09-05T15:33:55Z</time>
      </trkpt>
      <trkpt lat="44.51229" lon="1.36595">
        <ele>220.9</ele>
        <time>2021-09-05T15:33:57Z</time>
      </trkpt>
      <trkpt lat="44.51229" lon="1.36594">
        <ele>221</ele>
        <time>2021-09-05T15:33:58Z</time>
      </trkpt>
      <trkpt lat="44.5123" lon="1.36593">
        <ele>221.1</ele>
        <time>2021-09-05T15:33:59Z</time>
      </trkpt>
      <trkpt lat="44.5123" lon="1.36592">
        <ele>221.3</ele>
        <time>2021-09-05T15:34:00Z</time>
      </trkpt>
      <trkpt lat="44.51231" lon="1.36591">
        <ele>221.4</ele>
        <time>2021-09-05T15:34:01Z</time>
      </trkpt>
      <trkpt lat="44.51231" lon="1.36589">
        <ele>221.5</ele>
        <time>2021-09-05T15:34:03Z</time>
      </trkpt>
      <trkpt lat="44.51232" lon="1.36588">
        <ele>221.6</ele>
        <time>2021-09-05T15:34:04Z</time>
      </trkpt>
      <trkpt lat="44.51233" lon="1.36586">
        <ele>221.8</ele>
        <time>2021-09-05T15:34:05Z</time>
      </trkpt>
      <trkpt lat="44.51233" lon="1.36585">
        <ele>221.9</ele>
        <time>2021-09-05T15:34:06Z</time>
      </trkpt>
      <trkpt lat="44.51234" lon="1.36583">
        <ele>222</ele>
        <time>2021-09-05T15:34:07Z</time>
      </trkpt>
      <trkpt lat="44.51234" lon="1.36581">
        <ele>222.2</ele>
        <time>2021-09-05T15:34:09Z</time>
      </trkpt>
      <trkpt lat="44.51234" lon="1.36579">
        <ele>222.4</ele>
        <time>2021-09-05T15:34:11Z</time>
      </trkpt>
      <trkpt lat="44.51235" lon="1.36578">
        <ele>222.5</ele>
        <time>2021-09-05T15:34:12Z</time>
      </trkpt>
      <trkpt lat="44.51235" lon="1.36575">
        <ele>222.8</ele>
        <time>2021-09-05T15:34:14Z</time>
      </trkpt>
      <trkpt lat="44.51235" lon="1.36574">
        <ele>222.9</ele>
        <time>2021-09-05T15:34:16Z</time>
      </trkpt>
      <trkpt lat="44.51235" lon="1.36572">
        <ele>223</ele>
        <time>2021-09-05T15:34:17Z</time>
      </trkpt>
      <trkpt lat="44.51236" lon="1.3657">
        <ele>223.1</ele>
        <time>2021-09-05T15:34:19Z</time>
      </trkpt>
      <trkpt lat="44.51236" lon="1.36568">
        <ele>223.3</ele>
        <time>2021-09-05T15:34:20Z</time>
      </trkpt>
      <trkpt lat="44.51236" lon="1.36567">
        <ele>223.4</ele>
        <time>2021-09-05T15:34:21Z</time>
      </trkpt>
      <trkpt lat="44.51237" lon="1.36565">
        <ele>223.6</ele>
        <time>2021-09-05T15:34:23Z</time>
      </trkpt>
      <trkpt lat="44.51237" lon="1.36563">
        <ele>223.7</ele>
        <time>2021-09-05T15:34:24Z</time>
      </trkpt>
      <trkpt lat="44.51238" lon="1.36562">
        <ele>223.9</ele>
        <time>2021-09-05T15:34:25Z</time>
      </trkpt>
      <trkpt lat="44.51238" lon="1.36559">
        <ele>224.1</ele>
        <time>2021-09-05T15:34:27Z</time>
      </trkpt>
      <trkpt lat="44.51239" lon="1.36558">
        <ele>224.2</ele>
        <time>2021-09-05T15:34:28Z</time>
      </trkpt>
      <trkpt lat="44.51239" lon="1.36557">
        <ele>224.4</ele>
        <time>2021-09-05T15:34:30Z</time>
      </trkpt>
      <trkpt lat="44.51239" lon="1.36557">
        <ele>224.4</ele>
        <time>2021-09-05T15:34:32Z</time>
      </trkpt>
      <trkpt lat="44.51239" lon="1.36557">
        <ele>224.4</ele>
        <time>2021-09-05T15:34:33Z</time>
      </trkpt>
      <trkpt lat="44.51239" lon="1.36558">
        <ele>224.5</ele>
        <time>2021-09-05T15:34:34Z</time>
      </trkpt>
      <trkpt lat="44.51239" lon="1.36559">
        <ele>224.6</ele>
        <time>2021-09-05T15:34:36Z</time>
      </trkpt>
      <trkpt lat="44.51238" lon="1.36559">
        <ele>224.6</ele>
        <time>2021-09-05T15:34:38Z</time>
      </trkpt>
      <trkpt lat="44.51238" lon="1.36559">
        <ele>224.6</ele>
        <time>2021-09-05T15:34:40Z</time>
      </trkpt>
      <trkpt lat="44.51238" lon="1.36559">
        <ele>224.6</ele>
        <time>2021-09-05T15:34:41Z</time>
      </trkpt>
      <trkpt lat="44.51238" lon="1.36558">
        <ele>224.7</ele>
        <time>2021-09-05T15:34:44Z</time>
      </trkpt>
      <trkpt lat="44.5124" lon="1.36552">
        <ele>225.3</ele>
        <time>2021-09-05T15:34:49Z</time>
      </trkpt>
      <trkpt lat="44.51241" lon="1.3655">
        <ele>225.5</ele>
        <time>2021-09-05T15:34:51Z</time>
      </trkpt>
      <trkpt lat="44.51242" lon="1.36549">
        <ele>225.6</ele>
        <time>2021-09-05T15:34:52Z</time>
      </trkpt>
      <trkpt lat="44.51242" lon="1.36547">
        <ele>225.8</ele>
        <time>2021-09-05T15:34:54Z</time>
      </trkpt>
      <trkpt lat="44.51243" lon="1.36546">
        <ele>225.9</ele>
        <time>2021-09-05T15:34:55Z</time>
      </trkpt>
      <trkpt lat="44.51243" lon="1.36544">
        <ele>226.1</ele>
        <time>2021-09-05T15:34:58Z</time>
      </trkpt>
      <trkpt lat="44.51243" lon="1.36543">
        <ele>226.1</ele>
        <time>2021-09-05T15:35:00Z</time>
      </trkpt>
      <trkpt lat="44.51243" lon="1.36543">
        <ele>226.2</ele>
        <time>2021-09-05T15:35:01Z</time>
      </trkpt>
      <trkpt lat="44.51244" lon="1.36542">
        <ele>226.3</ele>
        <time>2021-09-05T15:35:02Z</time>
      </trkpt>
      <trkpt lat="44.51244" lon="1.36541">
        <ele>226.3</ele>
        <time>2021-09-05T15:35:03Z</time>
      </trkpt>
      <trkpt lat="44.51244" lon="1.3654">
        <ele>226.4</ele>
        <time>2021-09-05T15:35:04Z</time>
      </trkpt>
      <trkpt lat="44.51244" lon="1.36539">
        <ele>226.5</ele>
        <time>2021-09-05T15:35:06Z</time>
      </trkpt>
      <trkpt lat="44.51244" lon="1.36538">
        <ele>226.5</ele>
        <time>2021-09-05T15:35:08Z</time>
      </trkpt>
      <trkpt lat="44.51244" lon="1.36537">
        <ele>226.6</ele>
        <time>2021-09-05T15:35:09Z</time>
      </trkpt>
      <trkpt lat="44.51245" lon="1.36535">
        <ele>226.8</ele>
        <time>2021-09-05T15:35:11Z</time>
      </trkpt>
      <trkpt lat="44.51246" lon="1.36533">
        <ele>226.9</ele>
        <time>2021-09-05T15:35:13Z</time>
      </trkpt>
      <trkpt lat="44.51246" lon="1.36531">
        <ele>227.1</ele>
        <time>2021-09-05T15:35:14Z</time>
      </trkpt>
      <trkpt lat="44.51247" lon="1.3653">
        <ele>227.2</ele>
        <time>2021-09-05T15:35:15Z</time>
      </trkpt>
      <trkpt lat="44.51247" lon="1.36528">
        <ele>227.4</ele>
        <time>2021-09-05T15:35:17Z</time>
      </trkpt>
      <trkpt lat="44.51247" lon="1.36526">
        <ele>227.5</ele>
        <time>2021-09-05T15:35:18Z</time>
      </trkpt>
      <trkpt lat="44.51248" lon="1.36526">
        <ele>227.6</ele>
        <time>2021-09-05T15:35:19Z</time>
      </trkpt>
      <trkpt lat="44.51248" lon="1.36526">
        <ele>227.6</ele>
        <time>2021-09-05T15:35:21Z</time>
      </trkpt>
      <trkpt lat="44.51248" lon="1.36526">
        <ele>227.6</ele>
        <time>2021-09-05T15:35:22Z</time>
      </trkpt>
      <trkpt lat="44.51248" lon="1.36526">
        <ele>227.7</ele>
        <time>2021-09-05T15:35:24Z</time>
      </trkpt>
      <trkpt lat="44.51248" lon="1.36527">
        <ele>227.7</ele>
        <time>2021-09-05T15:35:25Z</time>
      </trkpt>
      <trkpt lat="44.51248" lon="1.36526">
        <ele>227.8</ele>
        <time>2021-09-05T15:35:27Z</time>
      </trkpt>
      <trkpt lat="44.51248" lon="1.36525">
        <ele>227.9</ele>
        <time>2021-09-05T15:35:28Z</time>
      </trkpt>
      <trkpt lat="44.51249" lon="1.36524">
        <ele>228</ele>
        <time>2021-09-05T15:35:29Z</time>
      </trkpt>
      <trkpt lat="44.51249" lon="1.36522">
        <ele>228.1</ele>
        <time>2021-09-05T15:35:30Z</time>
      </trkpt>
      <trkpt lat="44.5125" lon="1.3652">
        <ele>228.4</ele>
        <time>2021-09-05T15:35:31Z</time>
      </trkpt>
      <trkpt lat="44.51251" lon="1.36519">
        <ele>228.5</ele>
        <time>2021-09-05T15:35:33Z</time>
      </trkpt>
      <trkpt lat="44.51251" lon="1.36518">
        <ele>228.6</ele>
        <time>2021-09-05T15:35:34Z</time>
      </trkpt>
      <trkpt lat="44.51252" lon="1.36517">
        <ele>228.8</ele>
        <time>2021-09-05T15:35:35Z</time>
      </trkpt>
      <trkpt lat="44.51253" lon="1.36515">
        <ele>229</ele>
        <time>2021-09-05T15:35:36Z</time>
      </trkpt>
      <trkpt lat="44.51253" lon="1.36513">
        <ele>229.2</ele>
        <time>2021-09-05T15:35:38Z</time>
      </trkpt>
      <trkpt lat="44.51253" lon="1.36511">
        <ele>229.4</ele>
        <time>2021-09-05T15:35:39Z</time>
      </trkpt>
      <trkpt lat="44.51254" lon="1.3651">
        <ele>229.5</ele>
        <time>2021-09-05T15:35:40Z</time>
      </trkpt>
      <trkpt lat="44.51254" lon="1.36507">
        <ele>229.8</ele>
        <time>2021-09-05T15:35:41Z</time>
      </trkpt>
      <trkpt lat="44.51255" lon="1.36506">
        <ele>229.9</ele>
        <time>2021-09-05T15:35:43Z</time>
      </trkpt>
      <trkpt lat="44.51255" lon="1.36505">
        <ele>230</ele>
        <time>2021-09-05T15:35:44Z</time>
      </trkpt>
      <trkpt lat="44.51255" lon="1.36504">
        <ele>230.1</ele>
        <time>2021-09-05T15:35:45Z</time>
      </trkpt>
      <trkpt lat="44.51255" lon="1.36503">
        <ele>230.2</ele>
        <time>2021-09-05T15:35:47Z</time>
      </trkpt>
      <trkpt lat="44.51255" lon="1.36502">
        <ele>230.3</ele>
        <time>2021-09-05T15:35:48Z</time>
      </trkpt>
      <trkpt lat="44.51256" lon="1.365">
        <ele>230.5</ele>
        <time>2021-09-05T15:35:49Z</time>
      </trkpt>
      <trkpt lat="44.51257" lon="1.36498">
        <ele>230.7</ele>
        <time>2021-09-05T15:35:50Z</time>
      </trkpt>
      <trkpt lat="44.51257" lon="1.36498">
        <ele>230.8</ele>
        <time>2021-09-05T15:35:52Z</time>
      </trkpt>
      <trkpt lat="44.51258" lon="1.36497">
        <ele>230.9</ele>
        <time>2021-09-05T15:35:53Z</time>
      </trkpt>
      <trkpt lat="44.51258" lon="1.36496">
        <ele>231</ele>
        <time>2021-09-05T15:35:54Z</time>
      </trkpt>
      <trkpt lat="44.51259" lon="1.36495">
        <ele>231.1</ele>
        <time>2021-09-05T15:35:56Z</time>
      </trkpt>
      <trkpt lat="44.51259" lon="1.36493">
        <ele>231.3</ele>
        <time>2021-09-05T15:35:57Z</time>
      </trkpt>
      <trkpt lat="44.5126" lon="1.36492">
        <ele>231.4</ele>
        <time>2021-09-05T15:35:59Z</time>
      </trkpt>
      <trkpt lat="44.5126" lon="1.3649">
        <ele>231.6</ele>
        <time>2021-09-05T15:36:00Z</time>
      </trkpt>
      <trkpt lat="44.51261" lon="1.36489">
        <ele>231.7</ele>
        <time>2021-09-05T15:36:01Z</time>
      </trkpt>
      <trkpt lat="44.51261" lon="1.36487">
        <ele>231.9</ele>
        <time>2021-09-05T15:36:03Z</time>
      </trkpt>
      <trkpt lat="44.51261" lon="1.36486">
        <ele>231.9</ele>
        <time>2021-09-05T15:36:04Z</time>
      </trkpt>
      <trkpt lat="44.51261" lon="1.36484">
        <ele>231.9</ele>
        <time>2021-09-05T15:36:05Z</time>
      </trkpt>
      <trkpt lat="44.51262" lon="1.36482">
        <ele>232.2</ele>
        <time>2021-09-05T15:36:07Z</time>
      </trkpt>
      <trkpt lat="44.51262" lon="1.36482">
        <ele>232.2</ele>
        <time>2021-09-05T15:36:08Z</time>
      </trkpt>
      <trkpt lat="44.51262" lon="1.36482">
        <ele>232.2</ele>
        <time>2021-09-05T15:36:10Z</time>
      </trkpt>
      <trkpt lat="44.51262" lon="1.36482">
        <ele>232.2</ele>
        <time>2021-09-05T15:36:12Z</time>
      </trkpt>
      <trkpt lat="44.51261" lon="1.36483">
        <ele>232.2</ele>
        <time>2021-09-05T15:36:13Z</time>
      </trkpt>
      <trkpt lat="44.51261" lon="1.36483">
        <ele>232.2</ele>
        <time>2021-09-05T15:36:15Z</time>
      </trkpt>
      <trkpt lat="44.51261" lon="1.36483">
        <ele>232.2</ele>
        <time>2021-09-05T15:36:18Z</time>
      </trkpt>
      <trkpt lat="44.51261" lon="1.36483">
        <ele>232.2</ele>
        <time>2021-09-05T15:36:19Z</time>
      </trkpt>
      <trkpt lat="44.51261" lon="1.36484">
        <ele>232.2</ele>
        <time>2021-09-05T15:36:21Z</time>
      </trkpt>
      <trkpt lat="44.51262" lon="1.36478">
        <ele>232.4</ele>
        <time>2021-09-05T15:36:43Z</time>
      </trkpt>
      <trkpt lat="44.51263" lon="1.36474">
        <ele>232.7</ele>
        <time>2021-09-05T15:36:45Z</time>
      </trkpt>
      <trkpt lat="44.51264" lon="1.36473">
        <ele>232.7</ele>
        <time>2021-09-05T15:36:46Z</time>
      </trkpt>
      <trkpt lat="44.51264" lon="1.36471">
        <ele>232.6</ele>
        <time>2021-09-05T15:36:47Z</time>
      </trkpt>
      <trkpt lat="44.51264" lon="1.3647">
        <ele>232.8</ele>
        <time>2021-09-05T15:36:48Z</time>
      </trkpt>
      <trkpt lat="44.51264" lon="1.36468">
        <ele>232.8</ele>
        <time>2021-09-05T15:36:50Z</time>
      </trkpt>
      <trkpt lat="44.51265" lon="1.36467">
        <ele>232.8</ele>
        <time>2021-09-05T15:36:51Z</time>
      </trkpt>
      <trkpt lat="44.51266" lon="1.36465">
        <ele>233.1</ele>
        <time>2021-09-05T15:36:52Z</time>
      </trkpt>
      <trkpt lat="44.51266" lon="1.36463">
        <ele>233.1</ele>
        <time>2021-09-05T15:36:54Z</time>
      </trkpt>
      <trkpt lat="44.51266" lon="1.36461">
        <ele>233.2</ele>
        <time>2021-09-05T15:36:55Z</time>
      </trkpt>
      <trkpt lat="44.51267" lon="1.36458">
        <ele>233.3</ele>
        <time>2021-09-05T15:36:57Z</time>
      </trkpt>
      <trkpt lat="44.51267" lon="1.36456">
        <ele>233.5</ele>
        <time>2021-09-05T15:36:58Z</time>
      </trkpt>
      <trkpt lat="44.51268" lon="1.36455">
        <ele>233.5</ele>
        <time>2021-09-05T15:36:59Z</time>
      </trkpt>
      <trkpt lat="44.51268" lon="1.36453">
        <ele>233.6</ele>
        <time>2021-09-05T15:37:00Z</time>
      </trkpt>
      <trkpt lat="44.51268" lon="1.3645">
        <ele>233.6</ele>
        <time>2021-09-05T15:37:02Z</time>
      </trkpt>
      <trkpt lat="44.51269" lon="1.36448">
        <ele>233.8</ele>
        <time>2021-09-05T15:37:04Z</time>
      </trkpt>
      <trkpt lat="44.51269" lon="1.36446">
        <ele>233.8</ele>
        <time>2021-09-05T15:37:05Z</time>
      </trkpt>
      <trkpt lat="44.5127" lon="1.36444">
        <ele>234</ele>
        <time>2021-09-05T15:37:06Z</time>
      </trkpt>
      <trkpt lat="44.5127" lon="1.36442">
        <ele>234</ele>
        <time>2021-09-05T15:37:08Z</time>
      </trkpt>
      <trkpt lat="44.51271" lon="1.36439">
        <ele>234.2</ele>
        <time>2021-09-05T15:37:10Z</time>
      </trkpt>
      <trkpt lat="44.51271" lon="1.36437">
        <ele>234.2</ele>
        <time>2021-09-05T15:37:11Z</time>
      </trkpt>
      <trkpt lat="44.51271" lon="1.36436">
        <ele>234.4</ele>
        <time>2021-09-05T15:37:12Z</time>
      </trkpt>
      <trkpt lat="44.51272" lon="1.36434">
        <ele>234.4</ele>
        <time>2021-09-05T15:37:14Z</time>
      </trkpt>
      <trkpt lat="44.51272" lon="1.36433">
        <ele>234.4</ele>
        <time>2021-09-05T15:37:15Z</time>
      </trkpt>
      <trkpt lat="44.51272" lon="1.36432">
        <ele>234.5</ele>
        <time>2021-09-05T15:37:16Z</time>
      </trkpt>
      <trkpt lat="44.51272" lon="1.3643">
        <ele>234.5</ele>
        <time>2021-09-05T15:37:17Z</time>
      </trkpt>
      <trkpt lat="44.51273" lon="1.36429">
        <ele>234.5</ele>
        <time>2021-09-05T15:37:18Z</time>
      </trkpt>
      <trkpt lat="44.51273" lon="1.36427">
        <ele>234.7</ele>
        <time>2021-09-05T15:37:20Z</time>
      </trkpt>
      <trkpt lat="44.51274" lon="1.36426">
        <ele>234.7</ele>
        <time>2021-09-05T15:37:21Z</time>
      </trkpt>
      <trkpt lat="44.51274" lon="1.36425">
        <ele>234.7</ele>
        <time>2021-09-05T15:37:22Z</time>
      </trkpt>
      <trkpt lat="44.51275" lon="1.36424">
        <ele>234.7</ele>
        <time>2021-09-05T15:37:24Z</time>
      </trkpt>
      <trkpt lat="44.51275" lon="1.36423">
        <ele>234.8</ele>
        <time>2021-09-05T15:37:25Z</time>
      </trkpt>
      <trkpt lat="44.51276" lon="1.36422">
        <ele>234.8</ele>
        <time>2021-09-05T15:37:26Z</time>
      </trkpt>
      <trkpt lat="44.51276" lon="1.3642">
        <ele>234.9</ele>
        <time>2021-09-05T15:37:27Z</time>
      </trkpt>
      <trkpt lat="44.51277" lon="1.36418">
        <ele>235</ele>
        <time>2021-09-05T15:37:29Z</time>
      </trkpt>
      <trkpt lat="44.51278" lon="1.36415">
        <ele>235</ele>
        <time>2021-09-05T15:37:31Z</time>
      </trkpt>
      <trkpt lat="44.51278" lon="1.36413">
        <ele>235.1</ele>
        <time>2021-09-05T15:37:32Z</time>
      </trkpt>
      <trkpt lat="44.51279" lon="1.36412">
        <ele>235.1</ele>
        <time>2021-09-05T15:37:33Z</time>
      </trkpt>
      <trkpt lat="44.51279" lon="1.36409">
        <ele>235.2</ele>
        <time>2021-09-05T15:37:35Z</time>
      </trkpt>
      <trkpt lat="44.5128" lon="1.36408">
        <ele>235.2</ele>
        <time>2021-09-05T15:37:36Z</time>
      </trkpt>
      <trkpt lat="44.5128" lon="1.36407">
        <ele>235.2</ele>
        <time>2021-09-05T15:37:37Z</time>
      </trkpt>
      <trkpt lat="44.51281" lon="1.36405">
        <ele>235.3</ele>
        <time>2021-09-05T15:37:38Z</time>
      </trkpt>
      <trkpt lat="44.51281" lon="1.36402">
        <ele>235.3</ele>
        <time>2021-09-05T15:37:39Z</time>
      </trkpt>
      <trkpt lat="44.51282" lon="1.36401">
        <ele>235.4</ele>
        <time>2021-09-05T15:37:41Z</time>
      </trkpt>
      <trkpt lat="44.51282" lon="1.36399">
        <ele>235.5</ele>
        <time>2021-09-05T15:37:42Z</time>
      </trkpt>
      <trkpt lat="44.51283" lon="1.36397">
        <ele>235.6</ele>
        <time>2021-09-05T15:37:44Z</time>
      </trkpt>
      <trkpt lat="44.51283" lon="1.36396">
        <ele>235.6</ele>
        <time>2021-09-05T15:37:45Z</time>
      </trkpt>
      <trkpt lat="44.51284" lon="1.36393">
        <ele>235.7</ele>
        <time>2021-09-05T15:37:47Z</time>
      </trkpt>
      <trkpt lat="44.51284" lon="1.36392">
        <ele>235.7</ele>
        <time>2021-09-05T15:37:48Z</time>
      </trkpt>
      <trkpt lat="44.51286" lon="1.3639">
        <ele>235.7</ele>
        <time>2021-09-05T15:37:50Z</time>
      </trkpt>
      <trkpt lat="44.51286" lon="1.36388">
        <ele>235.8</ele>
        <time>2021-09-05T15:37:52Z</time>
      </trkpt>
      <trkpt lat="44.51287" lon="1.36386">
        <ele>235.8</ele>
        <time>2021-09-05T15:37:53Z</time>
      </trkpt>
      <trkpt lat="44.51287" lon="1.36384">
        <ele>235.9</ele>
        <time>2021-09-05T15:37:54Z</time>
      </trkpt>
      <trkpt lat="44.51288" lon="1.36382">
        <ele>235.9</ele>
        <time>2021-09-05T15:37:55Z</time>
      </trkpt>
      <trkpt lat="44.51288" lon="1.36381">
        <ele>235.9</ele>
        <time>2021-09-05T15:37:56Z</time>
      </trkpt>
      <trkpt lat="44.51288" lon="1.36378">
        <ele>236.1</ele>
        <time>2021-09-05T15:37:58Z</time>
      </trkpt>
      <trkpt lat="44.51289" lon="1.36375">
        <ele>236.1</ele>
        <time>2021-09-05T15:38:00Z</time>
      </trkpt>
      <trkpt lat="44.5129" lon="1.36374">
        <ele>236.1</ele>
        <time>2021-09-05T15:38:02Z</time>
      </trkpt>
      <trkpt lat="44.51291" lon="1.36372">
        <ele>236.1</ele>
        <time>2021-09-05T15:38:03Z</time>
      </trkpt>
      <trkpt lat="44.51291" lon="1.36371">
        <ele>236.3</ele>
        <time>2021-09-05T15:38:04Z</time>
      </trkpt>
      <trkpt lat="44.51292" lon="1.3637">
        <ele>236.3</ele>
        <time>2021-09-05T15:38:05Z</time>
      </trkpt>
      <trkpt lat="44.51293" lon="1.36368">
        <ele>236.3</ele>
        <time>2021-09-05T15:38:07Z</time>
      </trkpt>
      <trkpt lat="44.51294" lon="1.36366">
        <ele>236.4</ele>
        <time>2021-09-05T15:38:08Z</time>
      </trkpt>
      <trkpt lat="44.51295" lon="1.36364">
        <ele>236.4</ele>
        <time>2021-09-05T15:38:10Z</time>
      </trkpt>
      <trkpt lat="44.51296" lon="1.36362">
        <ele>236.5</ele>
        <time>2021-09-05T15:38:11Z</time>
      </trkpt>
      <trkpt lat="44.51296" lon="1.36359">
        <ele>236.5</ele>
        <time>2021-09-05T15:38:12Z</time>
      </trkpt>
      <trkpt lat="44.51297" lon="1.36358">
        <ele>236.5</ele>
        <time>2021-09-05T15:38:14Z</time>
      </trkpt>
      <trkpt lat="44.51297" lon="1.36356">
        <ele>236.5</ele>
        <time>2021-09-05T15:38:15Z</time>
      </trkpt>
      <trkpt lat="44.51297" lon="1.36354">
        <ele>236.6</ele>
        <time>2021-09-05T15:38:17Z</time>
      </trkpt>
      <trkpt lat="44.51297" lon="1.36354">
        <ele>236.6</ele>
        <time>2021-09-05T15:38:18Z</time>
      </trkpt>
      <trkpt lat="44.51297" lon="1.36353">
        <ele>236.6</ele>
        <time>2021-09-05T15:38:20Z</time>
      </trkpt>
      <trkpt lat="44.51297" lon="1.36353">
        <ele>236.6</ele>
        <time>2021-09-05T15:38:22Z</time>
      </trkpt>
      <trkpt lat="44.51296" lon="1.36354">
        <ele>236.6</ele>
        <time>2021-09-05T15:38:23Z</time>
      </trkpt>
      <trkpt lat="44.51296" lon="1.36355">
        <ele>236.5</ele>
        <time>2021-09-05T15:38:24Z</time>
      </trkpt>
      <trkpt lat="44.51296" lon="1.36356">
        <ele>236.5</ele>
        <time>2021-09-05T15:38:25Z</time>
      </trkpt>
      <trkpt lat="44.51296" lon="1.36356">
        <ele>236.5</ele>
        <time>2021-09-05T15:38:27Z</time>
      </trkpt>
      <trkpt lat="44.51296" lon="1.36357">
        <ele>236.5</ele>
        <time>2021-09-05T15:38:28Z</time>
      </trkpt>
      <trkpt lat="44.51296" lon="1.36357">
        <ele>236.5</ele>
        <time>2021-09-05T15:38:29Z</time>
      </trkpt>
      <trkpt lat="44.51295" lon="1.36357">
        <ele>236.5</ele>
        <time>2021-09-05T15:38:31Z</time>
      </trkpt>
      <trkpt lat="44.51295" lon="1.36357">
        <ele>236.5</ele>
        <time>2021-09-05T15:38:33Z</time>
      </trkpt>
      <trkpt lat="44.51297" lon="1.36352">
        <ele>236.7</ele>
        <time>2021-09-05T15:39:22Z</time>
      </trkpt>
      <trkpt lat="44.51298" lon="1.3635">
        <ele>236.7</ele>
        <time>2021-09-05T15:39:23Z</time>
      </trkpt>
      <trkpt lat="44.51299" lon="1.36348">
        <ele>236.7</ele>
        <time>2021-09-05T15:39:24Z</time>
      </trkpt>
      <trkpt lat="44.51302" lon="1.36344">
        <ele>236.9</ele>
        <time>2021-09-05T15:39:26Z</time>
      </trkpt>
      <trkpt lat="44.51304" lon="1.3634">
        <ele>237</ele>
        <time>2021-09-05T15:39:28Z</time>
      </trkpt>
      <trkpt lat="44.51305" lon="1.36336">
        <ele>237</ele>
        <time>2021-09-05T15:39:30Z</time>
      </trkpt>
      <trkpt lat="44.51305" lon="1.36335">
        <ele>237</ele>
        <time>2021-09-05T15:39:31Z</time>
      </trkpt>
      <trkpt lat="44.51306" lon="1.36332">
        <ele>236.9</ele>
        <time>2021-09-05T15:39:32Z</time>
      </trkpt>
      <trkpt lat="44.51307" lon="1.36329">
        <ele>237.1</ele>
        <time>2021-09-05T15:39:34Z</time>
      </trkpt>
      <trkpt lat="44.51309" lon="1.36324">
        <ele>237</ele>
        <time>2021-09-05T15:39:35Z</time>
      </trkpt>
      <trkpt lat="44.51309" lon="1.36322">
        <ele>237</ele>
        <time>2021-09-05T15:39:36Z</time>
      </trkpt>
      <trkpt lat="44.5131" lon="1.36318">
        <ele>237.1</ele>
        <time>2021-09-05T15:39:37Z</time>
      </trkpt>
      <trkpt lat="44.51313" lon="1.36314">
        <ele>237.2</ele>
        <time>2021-09-05T15:39:39Z</time>
      </trkpt>
      <trkpt lat="44.51314" lon="1.36309">
        <ele>237.1</ele>
        <time>2021-09-05T15:39:40Z</time>
      </trkpt>
      <trkpt lat="44.51315" lon="1.36305">
        <ele>237</ele>
        <time>2021-09-05T15:39:42Z</time>
      </trkpt>
      <trkpt lat="44.51316" lon="1.36301">
        <ele>237</ele>
        <time>2021-09-05T15:39:43Z</time>
      </trkpt>
      <trkpt lat="44.51318" lon="1.36297">
        <ele>236.9</ele>
        <time>2021-09-05T15:39:44Z</time>
      </trkpt>
      <trkpt lat="44.51319" lon="1.36292">
        <ele>236.9</ele>
        <time>2021-09-05T15:39:45Z</time>
      </trkpt>
      <trkpt lat="44.5132" lon="1.36288">
        <ele>236.7</ele>
        <time>2021-09-05T15:39:46Z</time>
      </trkpt>
      <trkpt lat="44.51323" lon="1.36282">
        <ele>236.6</ele>
        <time>2021-09-05T15:39:48Z</time>
      </trkpt>
      <trkpt lat="44.51324" lon="1.3628">
        <ele>236.4</ele>
        <time>2021-09-05T15:39:49Z</time>
      </trkpt>
      <trkpt lat="44.51325" lon="1.36275">
        <ele>236.4</ele>
        <time>2021-09-05T15:39:51Z</time>
      </trkpt>
      <trkpt lat="44.51326" lon="1.36273">
        <ele>236.3</ele>
        <time>2021-09-05T15:39:52Z</time>
      </trkpt>
      <trkpt lat="44.51327" lon="1.36267">
        <ele>236.1</ele>
        <time>2021-09-05T15:39:53Z</time>
      </trkpt>
      <trkpt lat="44.51329" lon="1.36264">
        <ele>236.2</ele>
        <time>2021-09-05T15:39:54Z</time>
      </trkpt>
      <trkpt lat="44.51331" lon="1.36258">
        <ele>236.2</ele>
        <time>2021-09-05T15:39:56Z</time>
      </trkpt>
      <trkpt lat="44.51333" lon="1.36254">
        <ele>236.1</ele>
        <time>2021-09-05T15:39:57Z</time>
      </trkpt>
      <trkpt lat="44.51335" lon="1.36248">
        <ele>236.1</ele>
        <time>2021-09-05T15:39:58Z</time>
      </trkpt>
      <trkpt lat="44.51338" lon="1.3624">
        <ele>235.9</ele>
        <time>2021-09-05T15:40:00Z</time>
      </trkpt>
      <trkpt lat="44.5134" lon="1.36235">
        <ele>235.6</ele>
        <time>2021-09-05T15:40:01Z</time>
      </trkpt>
      <trkpt lat="44.51342" lon="1.36228">
        <ele>235.4</ele>
        <time>2021-09-05T15:40:03Z</time>
      </trkpt>
      <trkpt lat="44.51345" lon="1.3622">
        <ele>235.1</ele>
        <time>2021-09-05T15:40:04Z</time>
      </trkpt>
      <trkpt lat="44.51347" lon="1.36213">
        <ele>234.9</ele>
        <time>2021-09-05T15:40:05Z</time>
      </trkpt>
      <trkpt lat="44.5135" lon="1.36204">
        <ele>234.8</ele>
        <time>2021-09-05T15:40:06Z</time>
      </trkpt>
      <trkpt lat="44.51354" lon="1.36195">
        <ele>234.6</ele>
        <time>2021-09-05T15:40:07Z</time>
      </trkpt>
      <trkpt lat="44.5136" lon="1.36179">
        <ele>234.2</ele>
        <time>2021-09-05T15:40:09Z</time>
      </trkpt>
      <trkpt lat="44.51365" lon="1.36164">
        <ele>233.5</ele>
        <time>2021-09-05T15:40:11Z</time>
      </trkpt>
      <trkpt lat="44.51369" lon="1.36148">
        <ele>232.9</ele>
        <time>2021-09-05T15:40:13Z</time>
      </trkpt>
      <trkpt lat="44.51371" lon="1.36131">
        <ele>232.6</ele>
        <time>2021-09-05T15:40:15Z</time>
      </trkpt>
      <trkpt lat="44.51373" lon="1.36115">
        <ele>232.4</ele>
        <time>2021-09-05T15:40:17Z</time>
      </trkpt>
      <trkpt lat="44.51373" lon="1.36108">
        <ele>232.4</ele>
        <time>2021-09-05T15:40:18Z</time>
      </trkpt>
      <trkpt lat="44.51374" lon="1.36101">
        <ele>232.5</ele>
        <time>2021-09-05T15:40:20Z</time>
      </trkpt>
      <trkpt lat="44.51375" lon="1.36088">
        <ele>233</ele>
        <time>2021-09-05T15:40:21Z</time>
      </trkpt>
      <trkpt lat="44.51376" lon="1.36077">
        <ele>233.4</ele>
        <time>2021-09-05T15:40:23Z</time>
      </trkpt>
      <trkpt lat="44.51377" lon="1.36067">
        <ele>234.2</ele>
        <time>2021-09-05T15:40:25Z</time>
      </trkpt>
      <trkpt lat="44.51376" lon="1.36059">
        <ele>234.7</ele>
        <time>2021-09-05T15:40:27Z</time>
      </trkpt>
      <trkpt lat="44.51375" lon="1.36052">
        <ele>235</ele>
        <time>2021-09-05T15:40:29Z</time>
      </trkpt>
      <trkpt lat="44.51374" lon="1.36044">
        <ele>235.5</ele>
        <time>2021-09-05T15:40:31Z</time>
      </trkpt>
      <trkpt lat="44.51374" lon="1.36041">
        <ele>235.8</ele>
        <time>2021-09-05T15:40:32Z</time>
      </trkpt>
      <trkpt lat="44.51374" lon="1.3604">
        <ele>235.8</ele>
        <time>2021-09-05T15:40:33Z</time>
      </trkpt>
      <trkpt lat="44.51374" lon="1.36035">
        <ele>236.1</ele>
        <time>2021-09-05T15:40:35Z</time>
      </trkpt>
      <trkpt lat="44.51373" lon="1.36031">
        <ele>236.4</ele>
        <time>2021-09-05T15:40:36Z</time>
      </trkpt>
      <trkpt lat="44.51374" lon="1.36025">
        <ele>236.7</ele>
        <time>2021-09-05T15:40:37Z</time>
      </trkpt>
      <trkpt lat="44.51373" lon="1.36023">
        <ele>237</ele>
        <time>2021-09-05T15:40:38Z</time>
      </trkpt>
      <trkpt lat="44.51374" lon="1.36018">
        <ele>237.3</ele>
        <time>2021-09-05T15:40:39Z</time>
      </trkpt>
      <trkpt lat="44.51373" lon="1.36017">
        <ele>237.3</ele>
        <time>2021-09-05T15:40:40Z</time>
      </trkpt>
      <trkpt lat="44.51374" lon="1.36014">
        <ele>237.6</ele>
        <time>2021-09-05T15:40:41Z</time>
      </trkpt>
      <trkpt lat="44.51374" lon="1.36011">
        <ele>238</ele>
        <time>2021-09-05T15:40:43Z</time>
      </trkpt>
      <trkpt lat="44.51374" lon="1.36006">
        <ele>238.2</ele>
        <time>2021-09-05T15:40:45Z</time>
      </trkpt>
      <trkpt lat="44.51375" lon="1.36003">
        <ele>238.5</ele>
        <time>2021-09-05T15:40:46Z</time>
      </trkpt>
      <trkpt lat="44.51374" lon="1.36">
        <ele>238.5</ele>
        <time>2021-09-05T15:40:48Z</time>
      </trkpt>
      <trkpt lat="44.51374" lon="1.35995">
        <ele>238.8</ele>
        <time>2021-09-05T15:40:49Z</time>
      </trkpt>
      <trkpt lat="44.51374" lon="1.35993">
        <ele>239</ele>
        <time>2021-09-05T15:40:50Z</time>
      </trkpt>
      <trkpt lat="44.51374" lon="1.35989">
        <ele>239.3</ele>
        <time>2021-09-05T15:40:52Z</time>
      </trkpt>
      <trkpt lat="44.51374" lon="1.35987">
        <ele>239.3</ele>
        <time>2021-09-05T15:40:53Z</time>
      </trkpt>
      <trkpt lat="44.51375" lon="1.35983">
        <ele>239.6</ele>
        <time>2021-09-05T15:40:54Z</time>
      </trkpt>
      <trkpt lat="44.51374" lon="1.35982">
        <ele>239.8</ele>
        <time>2021-09-05T15:40:55Z</time>
      </trkpt>
      <trkpt lat="44.51374" lon="1.35979">
        <ele>239.8</ele>
        <time>2021-09-05T15:40:56Z</time>
      </trkpt>
      <trkpt lat="44.51374" lon="1.35976">
        <ele>240.1</ele>
        <time>2021-09-05T15:40:58Z</time>
      </trkpt>
      <trkpt lat="44.51375" lon="1.35973">
        <ele>240.4</ele>
        <time>2021-09-05T15:40:59Z</time>
      </trkpt>
      <trkpt lat="44.51374" lon="1.3597">
        <ele>240.3</ele>
        <time>2021-09-05T15:41:01Z</time>
      </trkpt>
      <trkpt lat="44.51373" lon="1.35966">
        <ele>240.6</ele>
        <time>2021-09-05T15:41:02Z</time>
      </trkpt>
      <trkpt lat="44.51373" lon="1.35965">
        <ele>240.6</ele>
        <time>2021-09-05T15:41:03Z</time>
      </trkpt>
      <trkpt lat="44.51372" lon="1.3596">
        <ele>240.9</ele>
        <time>2021-09-05T15:41:05Z</time>
      </trkpt>
      <trkpt lat="44.51372" lon="1.35959">
        <ele>241.1</ele>
        <time>2021-09-05T15:41:06Z</time>
      </trkpt>
      <trkpt lat="44.51372" lon="1.35956">
        <ele>241.1</ele>
        <time>2021-09-05T15:41:07Z</time>
      </trkpt>
      <trkpt lat="44.51372" lon="1.35954">
        <ele>241.4</ele>
        <time>2021-09-05T15:41:08Z</time>
      </trkpt>
      <trkpt lat="44.51371" lon="1.3595">
        <ele>241.7</ele>
        <time>2021-09-05T15:41:10Z</time>
      </trkpt>
      <trkpt lat="44.51371" lon="1.35949">
        <ele>241.7</ele>
        <time>2021-09-05T15:41:11Z</time>
      </trkpt>
      <trkpt lat="44.51371" lon="1.35947">
        <ele>241.9</ele>
        <time>2021-09-05T15:41:12Z</time>
      </trkpt>
      <trkpt lat="44.51371" lon="1.35945">
        <ele>241.9</ele>
        <time>2021-09-05T15:41:13Z</time>
      </trkpt>
      <trkpt lat="44.5137" lon="1.35942">
        <ele>242.2</ele>
        <time>2021-09-05T15:41:15Z</time>
      </trkpt>
      <trkpt lat="44.5137" lon="1.3594">
        <ele>242.2</ele>
        <time>2021-09-05T15:41:16Z</time>
      </trkpt>
      <trkpt lat="44.51369" lon="1.35938">
        <ele>242.5</ele>
        <time>2021-09-05T15:41:17Z</time>
      </trkpt>
      <trkpt lat="44.51369" lon="1.35936">
        <ele>242.5</ele>
        <time>2021-09-05T15:41:18Z</time>
      </trkpt>
      <trkpt lat="44.5137" lon="1.35934">
        <ele>242.8</ele>
        <time>2021-09-05T15:41:20Z</time>
      </trkpt>
      <trkpt lat="44.51369" lon="1.35934">
        <ele>242.8</ele>
        <time>2021-09-05T15:41:21Z</time>
      </trkpt>
      <trkpt lat="44.51369" lon="1.35933">
        <ele>242.8</ele>
        <time>2021-09-05T15:41:22Z</time>
      </trkpt>
      <trkpt lat="44.51369" lon="1.35933">
        <ele>242.8</ele>
        <time>2021-09-05T15:41:23Z</time>
      </trkpt>
      <trkpt lat="44.51369" lon="1.35932">
        <ele>242.8</ele>
        <time>2021-09-05T15:41:25Z</time>
      </trkpt>
      <trkpt lat="44.51369" lon="1.35931">
        <ele>242.8</ele>
        <time>2021-09-05T15:41:26Z</time>
      </trkpt>
      <trkpt lat="44.51369" lon="1.35932">
        <ele>242.8</ele>
        <time>2021-09-05T15:41:28Z</time>
      </trkpt>
      <trkpt lat="44.5137" lon="1.35933">
        <ele>242.8</ele>
        <time>2021-09-05T15:41:30Z</time>
      </trkpt>
      <trkpt lat="44.5137" lon="1.35933">
        <ele>242.8</ele>
        <time>2021-09-05T15:41:33Z</time>
      </trkpt>
      <trkpt lat="44.5137" lon="1.35934">
        <ele>242.8</ele>
        <time>2021-09-05T15:41:35Z</time>
      </trkpt>
      <trkpt lat="44.5137" lon="1.35934">
        <ele>242.8</ele>
        <time>2021-09-05T15:41:37Z</time>
      </trkpt>
      <trkpt lat="44.5137" lon="1.35929">
        <ele>243.1</ele>
        <time>2021-09-05T15:42:43Z</time>
      </trkpt>
      <trkpt lat="44.5137" lon="1.35927">
        <ele>243.1</ele>
        <time>2021-09-05T15:42:44Z</time>
      </trkpt>
      <trkpt lat="44.5137" lon="1.35924">
        <ele>243.4</ele>
        <time>2021-09-05T15:42:45Z</time>
      </trkpt>
      <trkpt lat="44.5137" lon="1.3592">
        <ele>243.7</ele>
        <time>2021-09-05T15:42:46Z</time>
      </trkpt>
      <trkpt lat="44.5137" lon="1.35918">
        <ele>243.7</ele>
        <time>2021-09-05T15:42:47Z</time>
      </trkpt>
      <trkpt lat="44.5137" lon="1.35911">
        <ele>244.2</ele>
        <time>2021-09-05T15:42:49Z</time>
      </trkpt>
      <trkpt lat="44.51369" lon="1.35909">
        <ele>244.5</ele>
        <time>2021-09-05T15:42:50Z</time>
      </trkpt>
      <trkpt lat="44.51369" lon="1.35906">
        <ele>244.5</ele>
        <time>2021-09-05T15:42:51Z</time>
      </trkpt>
      <trkpt lat="44.51369" lon="1.35903">
        <ele>244.8</ele>
        <time>2021-09-05T15:42:52Z</time>
      </trkpt>
      <trkpt lat="44.51368" lon="1.35898">
        <ele>245.1</ele>
        <time>2021-09-05T15:42:54Z</time>
      </trkpt>
      <trkpt lat="44.51367" lon="1.35893">
        <ele>245.4</ele>
        <time>2021-09-05T15:42:56Z</time>
      </trkpt>
      <trkpt lat="44.51366" lon="1.35891">
        <ele>245.7</ele>
        <time>2021-09-05T15:42:57Z</time>
      </trkpt>
      <trkpt lat="44.51366" lon="1.35887">
        <ele>246.1</ele>
        <time>2021-09-05T15:42:59Z</time>
      </trkpt>
      <trkpt lat="44.51366" lon="1.35886">
        <ele>246.1</ele>
        <time>2021-09-05T15:43:00Z</time>
      </trkpt>
      <trkpt lat="44.51365" lon="1.35883">
        <ele>246.1</ele>
        <time>2021-09-05T15:43:01Z</time>
      </trkpt>
      <trkpt lat="44.51365" lon="1.3588">
        <ele>246.5</ele>
        <time>2021-09-05T15:43:03Z</time>
      </trkpt>
      <trkpt lat="44.51364" lon="1.35874">
        <ele>247.1</ele>
        <time>2021-09-05T15:43:05Z</time>
      </trkpt>
      <trkpt lat="44.51364" lon="1.35871">
        <ele>247.1</ele>
        <time>2021-09-05T15:43:06Z</time>
      </trkpt>
      <trkpt lat="44.51364" lon="1.35867">
        <ele>247.4</ele>
        <time>2021-09-05T15:43:08Z</time>
      </trkpt>
      <trkpt lat="44.51364" lon="1.35865">
        <ele>247.6</ele>
        <time>2021-09-05T15:43:09Z</time>
      </trkpt>
      <trkpt lat="44.51364" lon="1.35861">
        <ele>247.9</ele>
        <time>2021-09-05T15:43:11Z</time>
      </trkpt>
      <trkpt lat="44.51364" lon="1.3586">
        <ele>247.9</ele>
        <time>2021-09-05T15:43:12Z</time>
      </trkpt>
      <trkpt lat="44.51364" lon="1.35855">
        <ele>248.2</ele>
        <time>2021-09-05T15:43:13Z</time>
      </trkpt>
      <trkpt lat="44.51364" lon="1.35853">
        <ele>248.2</ele>
        <time>2021-09-05T15:43:14Z</time>
      </trkpt>
      <trkpt lat="44.51364" lon="1.3585">
        <ele>248.5</ele>
        <time>2021-09-05T15:43:15Z</time>
      </trkpt>
      <trkpt lat="44.51364" lon="1.35845">
        <ele>248.7</ele>
        <time>2021-09-05T15:43:17Z</time>
      </trkpt>
      <trkpt lat="44.51364" lon="1.3584">
        <ele>249.3</ele>
        <time>2021-09-05T15:43:18Z</time>
      </trkpt>
      <trkpt lat="44.51364" lon="1.35839">
        <ele>249.3</ele>
        <time>2021-09-05T15:43:19Z</time>
      </trkpt>
      <trkpt lat="44.51363" lon="1.35834">
        <ele>249.6</ele>
        <time>2021-09-05T15:43:21Z</time>
      </trkpt>
      <trkpt lat="44.51363" lon="1.35833">
        <ele>249.6</ele>
        <time>2021-09-05T15:43:22Z</time>
      </trkpt>
      <trkpt lat="44.51363" lon="1.35828">
        <ele>249.9</ele>
        <time>2021-09-05T15:43:23Z</time>
      </trkpt>
      <trkpt lat="44.51363" lon="1.35827">
        <ele>250.1</ele>
        <time>2021-09-05T15:43:24Z</time>
      </trkpt>
      <trkpt lat="44.51363" lon="1.35821">
        <ele>250.4</ele>
        <time>2021-09-05T15:43:26Z</time>
      </trkpt>
      <trkpt lat="44.51362" lon="1.35819">
        <ele>250.4</ele>
        <time>2021-09-05T15:43:27Z</time>
      </trkpt>
      <trkpt lat="44.51362" lon="1.35817">
        <ele>250.6</ele>
        <time>2021-09-05T15:43:28Z</time>
      </trkpt>
      <trkpt lat="44.51362" lon="1.35814">
        <ele>250.6</ele>
        <time>2021-09-05T15:43:29Z</time>
      </trkpt>
      <trkpt lat="44.51362" lon="1.35812">
        <ele>250.9</ele>
        <time>2021-09-05T15:43:30Z</time>
      </trkpt>
      <trkpt lat="44.51362" lon="1.35809">
        <ele>251.1</ele>
        <time>2021-09-05T15:43:31Z</time>
      </trkpt>
      <trkpt lat="44.51362" lon="1.35806">
        <ele>251.1</ele>
        <time>2021-09-05T15:43:33Z</time>
      </trkpt>
      <trkpt lat="44.51362" lon="1.35802">
        <ele>251.4</ele>
        <time>2021-09-05T15:43:34Z</time>
      </trkpt>
      <trkpt lat="44.51362" lon="1.35801">
        <ele>251.6</ele>
        <time>2021-09-05T15:43:35Z</time>
      </trkpt>
      <trkpt lat="44.51361" lon="1.35796">
        <ele>251.8</ele>
        <time>2021-09-05T15:43:36Z</time>
      </trkpt>
      <trkpt lat="44.51361" lon="1.35794">
        <ele>251.8</ele>
        <time>2021-09-05T15:43:37Z</time>
      </trkpt>
      <trkpt lat="44.51361" lon="1.35791">
        <ele>252</ele>
        <time>2021-09-05T15:43:38Z</time>
      </trkpt>
      <trkpt lat="44.51361" lon="1.35788">
        <ele>252.2</ele>
        <time>2021-09-05T15:43:40Z</time>
      </trkpt>
      <trkpt lat="44.51361" lon="1.35783">
        <ele>252.4</ele>
        <time>2021-09-05T15:43:41Z</time>
      </trkpt>
      <trkpt lat="44.51361" lon="1.35781">
        <ele>252.5</ele>
        <time>2021-09-05T15:43:42Z</time>
      </trkpt>
      <trkpt lat="44.5136" lon="1.35778">
        <ele>252.6</ele>
        <time>2021-09-05T15:43:43Z</time>
      </trkpt>
      <trkpt lat="44.5136" lon="1.35775">
        <ele>252.8</ele>
        <time>2021-09-05T15:43:45Z</time>
      </trkpt>
      <trkpt lat="44.5136" lon="1.3577">
        <ele>252.9</ele>
        <time>2021-09-05T15:43:46Z</time>
      </trkpt>
      <trkpt lat="44.5136" lon="1.35769">
        <ele>252.9</ele>
        <time>2021-09-05T15:43:47Z</time>
      </trkpt>
      <trkpt lat="44.5136" lon="1.35766">
        <ele>253.1</ele>
        <time>2021-09-05T15:43:48Z</time>
      </trkpt>
      <trkpt lat="44.5136" lon="1.35763">
        <ele>253.2</ele>
        <time>2021-09-05T15:43:49Z</time>
      </trkpt>
      <trkpt lat="44.5136" lon="1.35758">
        <ele>253.5</ele>
        <time>2021-09-05T15:43:51Z</time>
      </trkpt>
      <trkpt lat="44.5136" lon="1.35753">
        <ele>253.7</ele>
        <time>2021-09-05T15:43:53Z</time>
      </trkpt>
      <trkpt lat="44.5136" lon="1.35752">
        <ele>253.7</ele>
        <time>2021-09-05T15:43:54Z</time>
      </trkpt>
      <trkpt lat="44.5136" lon="1.35747">
        <ele>253.9</ele>
        <time>2021-09-05T15:43:55Z</time>
      </trkpt>
      <trkpt lat="44.5136" lon="1.35746">
        <ele>254</ele>
        <time>2021-09-05T15:43:56Z</time>
      </trkpt>
      <trkpt lat="44.5136" lon="1.35743">
        <ele>254.2</ele>
        <time>2021-09-05T15:43:57Z</time>
      </trkpt>
      <trkpt lat="44.51359" lon="1.3574">
        <ele>254.4</ele>
        <time>2021-09-05T15:43:59Z</time>
      </trkpt>
      <trkpt lat="44.51359" lon="1.35735">
        <ele>254.6</ele>
        <time>2021-09-05T15:44:00Z</time>
      </trkpt>
      <trkpt lat="44.51359" lon="1.35734">
        <ele>254.6</ele>
        <time>2021-09-05T15:44:01Z</time>
      </trkpt>
      <trkpt lat="44.51358" lon="1.35729">
        <ele>254.8</ele>
        <time>2021-09-05T15:44:02Z</time>
      </trkpt>
      <trkpt lat="44.51358" lon="1.35727">
        <ele>255</ele>
        <time>2021-09-05T15:44:03Z</time>
      </trkpt>
      <trkpt lat="44.51358" lon="1.35724">
        <ele>255</ele>
        <time>2021-09-05T15:44:04Z</time>
      </trkpt>
      <trkpt lat="44.51358" lon="1.35722">
        <ele>255.2</ele>
        <time>2021-09-05T15:44:05Z</time>
      </trkpt>
      <trkpt lat="44.51359" lon="1.35716">
        <ele>255.3</ele>
        <time>2021-09-05T15:44:07Z</time>
      </trkpt>
      <trkpt lat="44.51359" lon="1.35714">
        <ele>255.5</ele>
        <time>2021-09-05T15:44:08Z</time>
      </trkpt>
      <trkpt lat="44.51359" lon="1.35712">
        <ele>255.5</ele>
        <time>2021-09-05T15:44:09Z</time>
      </trkpt>
      <trkpt lat="44.51359" lon="1.35706">
        <ele>255.8</ele>
        <time>2021-09-05T15:44:11Z</time>
      </trkpt>
      <trkpt lat="44.51359" lon="1.35704">
        <ele>255.8</ele>
        <time>2021-09-05T15:44:12Z</time>
      </trkpt>
      <trkpt lat="44.51359" lon="1.35702">
        <ele>256</ele>
        <time>2021-09-05T15:44:13Z</time>
      </trkpt>
      <trkpt lat="44.51359" lon="1.35696">
        <ele>256.1</ele>
        <time>2021-09-05T15:44:15Z</time>
      </trkpt>
      <trkpt lat="44.51359" lon="1.35694">
        <ele>256.2</ele>
        <time>2021-09-05T15:44:16Z</time>
      </trkpt>
      <trkpt lat="44.51359" lon="1.35692">
        <ele>256.2</ele>
        <time>2021-09-05T15:44:17Z</time>
      </trkpt>
      <trkpt lat="44.51359" lon="1.35685">
        <ele>256.4</ele>
        <time>2021-09-05T15:44:19Z</time>
      </trkpt>
      <trkpt lat="44.51359" lon="1.35682">
        <ele>256.4</ele>
        <time>2021-09-05T15:44:20Z</time>
      </trkpt>
      <trkpt lat="44.51359" lon="1.35679">
        <ele>256.5</ele>
        <time>2021-09-05T15:44:21Z</time>
      </trkpt>
      <trkpt lat="44.5136" lon="1.35674">
        <ele>256.5</ele>
        <time>2021-09-05T15:44:23Z</time>
      </trkpt>
      <trkpt lat="44.5136" lon="1.3567">
        <ele>256.5</ele>
        <time>2021-09-05T15:44:24Z</time>
      </trkpt>
      <trkpt lat="44.51361" lon="1.35667">
        <ele>256.5</ele>
        <time>2021-09-05T15:44:25Z</time>
      </trkpt>
      <trkpt lat="44.51361" lon="1.35663">
        <ele>256.5</ele>
        <time>2021-09-05T15:44:27Z</time>
      </trkpt>
      <trkpt lat="44.51361" lon="1.35659">
        <ele>256.5</ele>
        <time>2021-09-05T15:44:28Z</time>
      </trkpt>
      <trkpt lat="44.51361" lon="1.35654">
        <ele>256.5</ele>
        <time>2021-09-05T15:44:29Z</time>
      </trkpt>
      <trkpt lat="44.51361" lon="1.35649">
        <ele>256.4</ele>
        <time>2021-09-05T15:44:31Z</time>
      </trkpt>
      <trkpt lat="44.51361" lon="1.35646">
        <ele>256.4</ele>
        <time>2021-09-05T15:44:32Z</time>
      </trkpt>
      <trkpt lat="44.51361" lon="1.35643">
        <ele>256.4</ele>
        <time>2021-09-05T15:44:34Z</time>
      </trkpt>
      <trkpt lat="44.51361" lon="1.35638">
        <ele>256.3</ele>
        <time>2021-09-05T15:44:35Z</time>
      </trkpt>
      <trkpt lat="44.51362" lon="1.35634">
        <ele>256.5</ele>
        <time>2021-09-05T15:44:36Z</time>
      </trkpt>
      <trkpt lat="44.51362" lon="1.35631">
        <ele>256.5</ele>
        <time>2021-09-05T15:44:37Z</time>
      </trkpt>
      <trkpt lat="44.51362" lon="1.35627">
        <ele>256.5</ele>
        <time>2021-09-05T15:44:39Z</time>
      </trkpt>
      <trkpt lat="44.51362" lon="1.35622">
        <ele>256.5</ele>
        <time>2021-09-05T15:44:40Z</time>
      </trkpt>
      <trkpt lat="44.51362" lon="1.3562">
        <ele>256.5</ele>
        <time>2021-09-05T15:44:41Z</time>
      </trkpt>
      <trkpt lat="44.51363" lon="1.35617">
        <ele>256.5</ele>
        <time>2021-09-05T15:44:42Z</time>
      </trkpt>
      <trkpt lat="44.51363" lon="1.35613">
        <ele>256.5</ele>
        <time>2021-09-05T15:44:44Z</time>
      </trkpt>
      <trkpt lat="44.51363" lon="1.35609">
        <ele>256.5</ele>
        <time>2021-09-05T15:44:45Z</time>
      </trkpt>
      <trkpt lat="44.51363" lon="1.35602">
        <ele>256.5</ele>
        <time>2021-09-05T15:44:47Z</time>
      </trkpt>
      <trkpt lat="44.51364" lon="1.35595">
        <ele>256.4</ele>
        <time>2021-09-05T15:44:49Z</time>
      </trkpt>
      <trkpt lat="44.51365" lon="1.35589">
        <ele>256.5</ele>
        <time>2021-09-05T15:44:51Z</time>
      </trkpt>
      <trkpt lat="44.51367" lon="1.35583">
        <ele>256.4</ele>
        <time>2021-09-05T15:44:52Z</time>
      </trkpt>
      <trkpt lat="44.51369" lon="1.35575">
        <ele>256.4</ele>
        <time>2021-09-05T15:44:54Z</time>
      </trkpt>
      <trkpt lat="44.5137" lon="1.35569">
        <ele>256.1</ele>
        <time>2021-09-05T15:44:55Z</time>
      </trkpt>
      <trkpt lat="44.51373" lon="1.35562">
        <ele>256.2</ele>
        <time>2021-09-05T15:44:57Z</time>
      </trkpt>
      <trkpt lat="44.51374" lon="1.35555">
        <ele>256.1</ele>
        <time>2021-09-05T15:44:58Z</time>
      </trkpt>
      <trkpt lat="44.51375" lon="1.35548">
        <ele>256.1</ele>
        <time>2021-09-05T15:44:59Z</time>
      </trkpt>
      <trkpt lat="44.51376" lon="1.3554">
        <ele>255.8</ele>
        <time>2021-09-05T15:45:01Z</time>
      </trkpt>
      <trkpt lat="44.51377" lon="1.35528">
        <ele>255.7</ele>
        <time>2021-09-05T15:45:02Z</time>
      </trkpt>
      <trkpt lat="44.51378" lon="1.3552">
        <ele>255.5</ele>
        <time>2021-09-05T15:45:03Z</time>
      </trkpt>
      <trkpt lat="44.5138" lon="1.35509">
        <ele>255.5</ele>
        <time>2021-09-05T15:45:04Z</time>
      </trkpt>
      <trkpt lat="44.51381" lon="1.35501">
        <ele>255.6</ele>
        <time>2021-09-05T15:45:05Z</time>
      </trkpt>
      <trkpt lat="44.51383" lon="1.35486">
        <ele>255.7</ele>
        <time>2021-09-05T15:45:07Z</time>
      </trkpt>
      <trkpt lat="44.51384" lon="1.35478">
        <ele>255.8</ele>
        <time>2021-09-05T15:45:08Z</time>
      </trkpt>
      <trkpt lat="44.51385" lon="1.35471">
        <ele>255.9</ele>
        <time>2021-09-05T15:45:09Z</time>
      </trkpt>
      <trkpt lat="44.51385" lon="1.35465">
        <ele>255.9</ele>
        <time>2021-09-05T15:45:10Z</time>
      </trkpt>
      <trkpt lat="44.51385" lon="1.35458">
        <ele>256</ele>
        <time>2021-09-05T15:45:12Z</time>
      </trkpt>
      <trkpt lat="44.51386" lon="1.35446">
        <ele>256.4</ele>
        <time>2021-09-05T15:45:13Z</time>
      </trkpt>
      <trkpt lat="44.51386" lon="1.3544">
        <ele>256.7</ele>
        <time>2021-09-05T15:45:14Z</time>
      </trkpt>
      <trkpt lat="44.51386" lon="1.35429">
        <ele>257</ele>
        <time>2021-09-05T15:45:17Z</time>
      </trkpt>
      <trkpt lat="44.51386" lon="1.3542">
        <ele>257.3</ele>
        <time>2021-09-05T15:45:18Z</time>
      </trkpt>
      <trkpt lat="44.51385" lon="1.35417">
        <ele>257.5</ele>
        <time>2021-09-05T15:45:19Z</time>
      </trkpt>
      <trkpt lat="44.51384" lon="1.35409">
        <ele>257.9</ele>
        <time>2021-09-05T15:45:21Z</time>
      </trkpt>
      <trkpt lat="44.51384" lon="1.35405">
        <ele>258.1</ele>
        <time>2021-09-05T15:45:23Z</time>
      </trkpt>
      <trkpt lat="44.51384" lon="1.35403">
        <ele>258.2</ele>
        <time>2021-09-05T15:45:24Z</time>
      </trkpt>
      <trkpt lat="44.51382" lon="1.35398">
        <ele>258.3</ele>
        <time>2021-09-05T15:45:25Z</time>
      </trkpt>
      <trkpt lat="44.5138" lon="1.35393">
        <ele>258.7</ele>
        <time>2021-09-05T15:45:27Z</time>
      </trkpt>
      <trkpt lat="44.51379" lon="1.35388">
        <ele>258.9</ele>
        <time>2021-09-05T15:45:28Z</time>
      </trkpt>
      <trkpt lat="44.51378" lon="1.35387">
        <ele>258.9</ele>
        <time>2021-09-05T15:45:29Z</time>
      </trkpt>
      <trkpt lat="44.51377" lon="1.35384">
        <ele>259.2</ele>
        <time>2021-09-05T15:45:31Z</time>
      </trkpt>
      <trkpt lat="44.51376" lon="1.35379">
        <ele>259.5</ele>
        <time>2021-09-05T15:45:32Z</time>
      </trkpt>
      <trkpt lat="44.51375" lon="1.35374">
        <ele>259.8</ele>
        <time>2021-09-05T15:45:34Z</time>
      </trkpt>
      <trkpt lat="44.51373" lon="1.35372">
        <ele>260</ele>
        <time>2021-09-05T15:45:35Z</time>
      </trkpt>
      <trkpt lat="44.51372" lon="1.35369">
        <ele>260</ele>
        <time>2021-09-05T15:45:37Z</time>
      </trkpt>
      <trkpt lat="44.5137" lon="1.35364">
        <ele>260.1</ele>
        <time>2021-09-05T15:45:38Z</time>
      </trkpt>
      <trkpt lat="44.51369" lon="1.35362">
        <ele>260.5</ele>
        <time>2021-09-05T15:45:39Z</time>
      </trkpt>
      <trkpt lat="44.51366" lon="1.35357">
        <ele>260.6</ele>
        <time>2021-09-05T15:45:41Z</time>
      </trkpt>
      <trkpt lat="44.51366" lon="1.35355">
        <ele>260.6</ele>
        <time>2021-09-05T15:45:43Z</time>
      </trkpt>
      <trkpt lat="44.51365" lon="1.35354">
        <ele>260.9</ele>
        <time>2021-09-05T15:45:44Z</time>
      </trkpt>
      <trkpt lat="44.51364" lon="1.35349">
        <ele>260.9</ele>
        <time>2021-09-05T15:45:45Z</time>
      </trkpt>
      <trkpt lat="44.51364" lon="1.35348">
        <ele>260.9</ele>
        <time>2021-09-05T15:45:46Z</time>
      </trkpt>
      <trkpt lat="44.51364" lon="1.35346">
        <ele>261.2</ele>
        <time>2021-09-05T15:45:47Z</time>
      </trkpt>
      <trkpt lat="44.51364" lon="1.35345">
        <ele>261.3</ele>
        <time>2021-09-05T15:45:49Z</time>
      </trkpt>
      <trkpt lat="44.51364" lon="1.35343">
        <ele>261.3</ele>
        <time>2021-09-05T15:45:50Z</time>
      </trkpt>
      <trkpt lat="44.51363" lon="1.35344">
        <ele>261.3</ele>
        <time>2021-09-05T15:45:51Z</time>
      </trkpt>
      <trkpt lat="44.51362" lon="1.35345">
        <ele>261.3</ele>
        <time>2021-09-05T15:45:52Z</time>
      </trkpt>
      <trkpt lat="44.51361" lon="1.35346">
        <ele>260.9</ele>
        <time>2021-09-05T15:45:54Z</time>
      </trkpt>
      <trkpt lat="44.5136" lon="1.35347">
        <ele>260.7</ele>
        <time>2021-09-05T15:45:55Z</time>
      </trkpt>
      <trkpt lat="44.51359" lon="1.35348">
        <ele>260.7</ele>
        <time>2021-09-05T15:45:57Z</time>
      </trkpt>
      <trkpt lat="44.51358" lon="1.35349">
        <ele>260.3</ele>
        <time>2021-09-05T15:45:59Z</time>
      </trkpt>
      <trkpt lat="44.51357" lon="1.3535">
        <ele>260.3</ele>
        <time>2021-09-05T15:46:00Z</time>
      </trkpt>
      <trkpt lat="44.51356" lon="1.35351">
        <ele>260.3</ele>
        <time>2021-09-05T15:46:02Z</time>
      </trkpt>
      <trkpt lat="44.51355" lon="1.35352">
        <ele>259.7</ele>
        <time>2021-09-05T15:46:03Z</time>
      </trkpt>
      <trkpt lat="44.51354" lon="1.35352">
        <ele>259.7</ele>
        <time>2021-09-05T15:46:04Z</time>
      </trkpt>
      <trkpt lat="44.51353" lon="1.35353">
        <ele>259.7</ele>
        <time>2021-09-05T15:46:05Z</time>
      </trkpt>
      <trkpt lat="44.51352" lon="1.35354">
        <ele>259.3</ele>
        <time>2021-09-05T15:46:28Z</time>
      </trkpt>
      <trkpt lat="44.51351" lon="1.35355">
        <ele>259.1</ele>
        <time>2021-09-05T15:46:30Z</time>
      </trkpt>
      <trkpt lat="44.5135" lon="1.35356">
        <ele>259.1</ele>
        <time>2021-09-05T15:46:31Z</time>
      </trkpt>
      <trkpt lat="44.51344" lon="1.35359">
        <ele>258.2</ele>
        <time>2021-09-05T15:46:33Z</time>
      </trkpt>
      <trkpt lat="44.51341" lon="1.35361">
        <ele>257.6</ele>
        <time>2021-09-05T15:46:34Z</time>
      </trkpt>
      <trkpt lat="44.5134" lon="1.35366">
        <ele>256.9</ele>
        <time>2021-09-05T15:46:36Z</time>
      </trkpt>
      <trkpt lat="44.51338" lon="1.35367">
        <ele>256.9</ele>
        <time>2021-09-05T15:46:38Z</time>
      </trkpt>
      <trkpt lat="44.51337" lon="1.35367">
        <ele>256.3</ele>
        <time>2021-09-05T15:46:39Z</time>
      </trkpt>
      <trkpt lat="44.51337" lon="1.35368">
        <ele>256.7</ele>
        <time>2021-09-05T15:46:41Z</time>
      </trkpt>
      <trkpt lat="44.51339" lon="1.35369">
        <ele>256.7</ele>
        <time>2021-09-05T15:46:43Z</time>
      </trkpt>
      <trkpt lat="44.51339" lon="1.35368">
        <ele>256.7</ele>
        <time>2021-09-05T15:46:45Z</time>
      </trkpt>
      <trkpt lat="44.51339" lon="1.35368">
        <ele>256.9</ele>
        <time>2021-09-05T15:46:46Z</time>
      </trkpt>
      <trkpt lat="44.51339" lon="1.35367">
        <ele>256.9</ele>
        <time>2021-09-05T15:46:48Z</time>
      </trkpt>
      <trkpt lat="44.51338" lon="1.35367">
        <ele>256.9</ele>
        <time>2021-09-05T15:46:49Z</time>
      </trkpt>
      <trkpt lat="44.51338" lon="1.35367">
        <ele>256.9</ele>
        <time>2021-09-05T15:46:50Z</time>
      </trkpt>
      <trkpt lat="44.51338" lon="1.35367">
        <ele>256.9</ele>
        <time>2021-09-05T15:46:51Z</time>
      </trkpt>
      <trkpt lat="44.51337" lon="1.35367">
        <ele>256.9</ele>
        <time>2021-09-05T15:46:53Z</time>
      </trkpt>
      <trkpt lat="44.51336" lon="1.35369">
        <ele>256.2</ele>
        <time>2021-09-05T15:46:54Z</time>
      </trkpt>
      <trkpt lat="44.51337" lon="1.35371">
        <ele>256.7</ele>
        <time>2021-09-05T15:46:56Z</time>
      </trkpt>
      <trkpt lat="44.51339" lon="1.35372">
        <ele>256.6</ele>
        <time>2021-09-05T15:46:57Z</time>
      </trkpt>
      <trkpt lat="44.51344" lon="1.3538">
        <ele>257.3</ele>
        <time>2021-09-05T15:47:00Z</time>
      </trkpt>
      <trkpt lat="44.51351" lon="1.35395">
        <ele>256.9</ele>
        <time>2021-09-05T15:47:01Z</time>
      </trkpt>
      <trkpt lat="44.51359" lon="1.3541">
        <ele>257</ele>
        <time>2021-09-05T15:47:03Z</time>
      </trkpt>
      <trkpt lat="44.51364" lon="1.35416">
        <ele>256.8</ele>
        <time>2021-09-05T15:47:04Z</time>
      </trkpt>
      <trkpt lat="44.5137" lon="1.35421">
        <ele>257</ele>
        <time>2021-09-05T15:47:05Z</time>
      </trkpt>
      <trkpt lat="44.51375" lon="1.35432">
        <ele>256.9</ele>
        <time>2021-09-05T15:47:07Z</time>
      </trkpt>
      <trkpt lat="44.51375" lon="1.35439">
        <ele>256.6</ele>
        <time>2021-09-05T15:47:09Z</time>
      </trkpt>
      <trkpt lat="44.51375" lon="1.35455">
        <ele>256.2</ele>
        <time>2021-09-05T15:47:10Z</time>
      </trkpt>
      <trkpt lat="44.51373" lon="1.3547">
        <ele>255.9</ele>
        <time>2021-09-05T15:47:12Z</time>
      </trkpt>
      <trkpt lat="44.51371" lon="1.35478">
        <ele>255.9</ele>
        <time>2021-09-05T15:47:14Z</time>
      </trkpt>
      <trkpt lat="44.51369" lon="1.35491">
        <ele>255.8</ele>
        <time>2021-09-05T15:47:15Z</time>
      </trkpt>
      <trkpt lat="44.51368" lon="1.35496">
        <ele>255.8</ele>
        <time>2021-09-05T15:47:16Z</time>
      </trkpt>
      <trkpt lat="44.51366" lon="1.35501">
        <ele>255.6</ele>
        <time>2021-09-05T15:47:17Z</time>
      </trkpt>
      <trkpt lat="44.51364" lon="1.35505">
        <ele>255.6</ele>
        <time>2021-09-05T15:47:19Z</time>
      </trkpt>
      <trkpt lat="44.51358" lon="1.35515">
        <ele>255.5</ele>
        <time>2021-09-05T15:47:20Z</time>
      </trkpt>
      <trkpt lat="44.51356" lon="1.3552">
        <ele>255.6</ele>
        <time>2021-09-05T15:47:21Z</time>
      </trkpt>
      <trkpt lat="44.5135" lon="1.35532">
        <ele>255.6</ele>
        <time>2021-09-05T15:47:23Z</time>
      </trkpt>
      <trkpt lat="44.51343" lon="1.35536">
        <ele>255.4</ele>
        <time>2021-09-05T15:47:25Z</time>
      </trkpt>
      <trkpt lat="44.51334" lon="1.35542">
        <ele>255.4</ele>
        <time>2021-09-05T15:47:26Z</time>
      </trkpt>
      <trkpt lat="44.51329" lon="1.35545">
        <ele>255.3</ele>
        <time>2021-09-05T15:47:27Z</time>
      </trkpt>
      <trkpt lat="44.51323" lon="1.35555">
        <ele>255.4</ele>
        <time>2021-09-05T15:47:29Z</time>
      </trkpt>
      <trkpt lat="44.51321" lon="1.35566">
        <ele>255.6</ele>
        <time>2021-09-05T15:47:31Z</time>
      </trkpt>
      <trkpt lat="44.51321" lon="1.35571">
        <ele>255.7</ele>
        <time>2021-09-05T15:47:33Z</time>
      </trkpt>
      <trkpt lat="44.51322" lon="1.35576">
        <ele>255.8</ele>
        <time>2021-09-05T15:47:34Z</time>
      </trkpt>
      <trkpt lat="44.51323" lon="1.35583">
        <ele>255.8</ele>
        <time>2021-09-05T15:47:35Z</time>
      </trkpt>
      <trkpt lat="44.51323" lon="1.35588">
        <ele>255.8</ele>
        <time>2021-09-05T15:47:36Z</time>
      </trkpt>
      <trkpt lat="44.51324" lon="1.35592">
        <ele>255.8</ele>
        <time>2021-09-05T15:47:37Z</time>
      </trkpt>
      <trkpt lat="44.51325" lon="1.35595">
        <ele>256</ele>
        <time>2021-09-05T15:47:39Z</time>
      </trkpt>
      <trkpt lat="44.51328" lon="1.35598">
        <ele>256.1</ele>
        <time>2021-09-05T15:47:41Z</time>
      </trkpt>
      <trkpt lat="44.5133" lon="1.35599">
        <ele>256.1</ele>
        <time>2021-09-05T15:47:42Z</time>
      </trkpt>
      <trkpt lat="44.51331" lon="1.35599">
        <ele>256.2</ele>
        <time>2021-09-05T15:47:43Z</time>
      </trkpt>
      <trkpt lat="44.51333" lon="1.35601">
        <ele>256.2</ele>
        <time>2021-09-05T15:47:45Z</time>
      </trkpt>
      <trkpt lat="44.51333" lon="1.35602">
        <ele>256.2</ele>
        <time>2021-09-05T15:47:47Z</time>
      </trkpt>
      <trkpt lat="44.51334" lon="1.35603">
        <ele>256.2</ele>
        <time>2021-09-05T15:47:48Z</time>
      </trkpt>
      <trkpt lat="44.51333" lon="1.35607">
        <ele>256.2</ele>
        <time>2021-09-05T15:47:49Z</time>
      </trkpt>
      <trkpt lat="44.51333" lon="1.35613">
        <ele>256.1</ele>
        <time>2021-09-05T15:47:52Z</time>
      </trkpt>
      <trkpt lat="44.51333" lon="1.35619">
        <ele>256.1</ele>
        <time>2021-09-05T15:47:54Z</time>
      </trkpt>
      <trkpt lat="44.51332" lon="1.35624">
        <ele>256.1</ele>
        <time>2021-09-05T15:47:55Z</time>
      </trkpt>
      <trkpt lat="44.51332" lon="1.35628">
        <ele>256.2</ele>
        <time>2021-09-05T15:47:56Z</time>
      </trkpt>
      <trkpt lat="44.51332" lon="1.35634">
        <ele>256.3</ele>
        <time>2021-09-05T15:47:58Z</time>
      </trkpt>
      <trkpt lat="44.51331" lon="1.35639">
        <ele>256.2</ele>
        <time>2021-09-05T15:48:00Z</time>
      </trkpt>
      <trkpt lat="44.51329" lon="1.35643">
        <ele>256.2</ele>
        <time>2021-09-05T15:48:01Z</time>
      </trkpt>
      <trkpt lat="44.51328" lon="1.35647">
        <ele>256.3</ele>
        <time>2021-09-05T15:48:02Z</time>
      </trkpt>
      <trkpt lat="44.51326" lon="1.35651">
        <ele>256.1</ele>
        <time>2021-09-05T15:48:03Z</time>
      </trkpt>
      <trkpt lat="44.51323" lon="1.35657">
        <ele>255.9</ele>
        <time>2021-09-05T15:48:05Z</time>
      </trkpt>
      <trkpt lat="44.51321" lon="1.35663">
        <ele>255.6</ele>
        <time>2021-09-05T15:48:07Z</time>
      </trkpt>
      <trkpt lat="44.5132" lon="1.35667">
        <ele>255.5</ele>
        <time>2021-09-05T15:48:08Z</time>
      </trkpt>
      <trkpt lat="44.51319" lon="1.35674">
        <ele>255.3</ele>
        <time>2021-09-05T15:48:10Z</time>
      </trkpt>
      <trkpt lat="44.51317" lon="1.35681">
        <ele>254.8</ele>
        <time>2021-09-05T15:48:11Z</time>
      </trkpt>
      <trkpt lat="44.51316" lon="1.35684">
        <ele>254.6</ele>
        <time>2021-09-05T15:48:12Z</time>
      </trkpt>
      <trkpt lat="44.51316" lon="1.35689">
        <ele>254.5</ele>
        <time>2021-09-05T15:48:14Z</time>
      </trkpt>
      <trkpt lat="44.51316" lon="1.35692">
        <ele>254.3</ele>
        <time>2021-09-05T15:48:15Z</time>
      </trkpt>
      <trkpt lat="44.51315" lon="1.35696">
        <ele>253.7</ele>
        <time>2021-09-05T15:48:17Z</time>
      </trkpt>
      <trkpt lat="44.51315" lon="1.357">
        <ele>253.6</ele>
        <time>2021-09-05T15:48:18Z</time>
      </trkpt>
      <trkpt lat="44.51316" lon="1.35705">
        <ele>253.4</ele>
        <time>2021-09-05T15:48:19Z</time>
      </trkpt>
      <trkpt lat="44.51316" lon="1.3571">
        <ele>253.6</ele>
        <time>2021-09-05T15:48:20Z</time>
      </trkpt>
      <trkpt lat="44.51316" lon="1.35719">
        <ele>253.2</ele>
        <time>2021-09-05T15:48:22Z</time>
      </trkpt>
      <trkpt lat="44.51316" lon="1.35726">
        <ele>252.9</ele>
        <time>2021-09-05T15:48:23Z</time>
      </trkpt>
      <trkpt lat="44.51314" lon="1.35738">
        <ele>252</ele>
        <time>2021-09-05T15:48:25Z</time>
      </trkpt>
      <trkpt lat="44.51314" lon="1.35748">
        <ele>251.7</ele>
        <time>2021-09-05T15:48:26Z</time>
      </trkpt>
      <trkpt lat="44.5131" lon="1.35767">
        <ele>250.5</ele>
        <time>2021-09-05T15:48:27Z</time>
      </trkpt>
      <trkpt lat="44.51307" lon="1.35786">
        <ele>248.8</ele>
        <time>2021-09-05T15:48:29Z</time>
      </trkpt>
      <trkpt lat="44.51308" lon="1.35804">
        <ele>247.8</ele>
        <time>2021-09-05T15:48:32Z</time>
      </trkpt>
      <trkpt lat="44.51308" lon="1.35821">
        <ele>247</ele>
        <time>2021-09-05T15:48:33Z</time>
      </trkpt>
      <trkpt lat="44.51308" lon="1.3583">
        <ele>246.7</ele>
        <time>2021-09-05T15:48:34Z</time>
      </trkpt>
      <trkpt lat="44.51308" lon="1.35855">
        <ele>245.5</ele>
        <time>2021-09-05T15:48:37Z</time>
      </trkpt>
      <trkpt lat="44.51306" lon="1.35872">
        <ele>244.2</ele>
        <time>2021-09-05T15:48:39Z</time>
      </trkpt>
      <trkpt lat="44.51304" lon="1.35889">
        <ele>243.1</ele>
        <time>2021-09-05T15:48:41Z</time>
      </trkpt>
      <trkpt lat="44.51304" lon="1.35915">
        <ele>241.5</ele>
        <time>2021-09-05T15:48:44Z</time>
      </trkpt>
      <trkpt lat="44.51304" lon="1.35931">
        <ele>240.2</ele>
        <time>2021-09-05T15:48:46Z</time>
      </trkpt>
      <trkpt lat="44.51305" lon="1.35936">
        <ele>239.9</ele>
        <time>2021-09-05T15:48:48Z</time>
      </trkpt>
      <trkpt lat="44.51307" lon="1.35942">
        <ele>239.8</ele>
        <time>2021-09-05T15:48:49Z</time>
      </trkpt>
      <trkpt lat="44.51309" lon="1.35946">
        <ele>239.5</ele>
        <time>2021-09-05T15:48:51Z</time>
      </trkpt>
      <trkpt lat="44.51311" lon="1.35948">
        <ele>239.5</ele>
        <time>2021-09-05T15:48:52Z</time>
      </trkpt>
      <trkpt lat="44.51313" lon="1.35951">
        <ele>239.7</ele>
        <time>2021-09-05T15:48:54Z</time>
      </trkpt>
      <trkpt lat="44.51315" lon="1.35953">
        <ele>239.4</ele>
        <time>2021-09-05T15:48:55Z</time>
      </trkpt>
      <trkpt lat="44.51316" lon="1.35954">
        <ele>239.6</ele>
        <time>2021-09-05T15:48:56Z</time>
      </trkpt>
      <trkpt lat="44.51319" lon="1.35955">
        <ele>239.8</ele>
        <time>2021-09-05T15:48:57Z</time>
      </trkpt>
      <trkpt lat="44.51322" lon="1.35956">
        <ele>239.8</ele>
        <time>2021-09-05T15:48:58Z</time>
      </trkpt>
      <trkpt lat="44.51324" lon="1.35959">
        <ele>239.8</ele>
        <time>2021-09-05T15:49:00Z</time>
      </trkpt>
      <trkpt lat="44.51325" lon="1.35964">
        <ele>239.7</ele>
        <time>2021-09-05T15:49:01Z</time>
      </trkpt>
      <trkpt lat="44.51326" lon="1.35966">
        <ele>239.4</ele>
        <time>2021-09-05T15:49:02Z</time>
      </trkpt>
      <trkpt lat="44.51325" lon="1.35973">
        <ele>239</ele>
        <time>2021-09-05T15:49:03Z</time>
      </trkpt>
      <trkpt lat="44.51326" lon="1.35979">
        <ele>238.3</ele>
        <time>2021-09-05T15:49:04Z</time>
      </trkpt>
      <trkpt lat="44.51329" lon="1.35985">
        <ele>238.3</ele>
        <time>2021-09-05T15:49:05Z</time>
      </trkpt>
      <trkpt lat="44.51335" lon="1.35988">
        <ele>238.5</ele>
        <time>2021-09-05T15:49:07Z</time>
      </trkpt>
      <trkpt lat="44.51338" lon="1.3599">
        <ele>238.8</ele>
        <time>2021-09-05T15:49:08Z</time>
      </trkpt>
      <trkpt lat="44.51342" lon="1.35995">
        <ele>238.5</ele>
        <time>2021-09-05T15:49:09Z</time>
      </trkpt>
      <trkpt lat="44.51348" lon="1.36002">
        <ele>238.7</ele>
        <time>2021-09-05T15:49:11Z</time>
      </trkpt>
      <trkpt lat="44.51349" lon="1.36008">
        <ele>238.3</ele>
        <time>2021-09-05T15:49:12Z</time>
      </trkpt>
      <trkpt lat="44.5135" lon="1.36018">
        <ele>238.1</ele>
        <time>2021-09-05T15:49:13Z</time>
      </trkpt>
      <trkpt lat="44.51354" lon="1.36033">
        <ele>237.6</ele>
        <time>2021-09-05T15:49:15Z</time>
      </trkpt>
      <trkpt lat="44.51357" lon="1.3604">
        <ele>237.2</ele>
        <time>2021-09-05T15:49:16Z</time>
      </trkpt>
      <trkpt lat="44.51365" lon="1.36053">
        <ele>236.6</ele>
        <time>2021-09-05T15:49:19Z</time>
      </trkpt>
      <trkpt lat="44.51371" lon="1.36066">
        <ele>235.8</ele>
        <time>2021-09-05T15:49:20Z</time>
      </trkpt>
      <trkpt lat="44.51371" lon="1.36083">
        <ele>234.8</ele>
        <time>2021-09-05T15:49:22Z</time>
      </trkpt>
      <trkpt lat="44.51367" lon="1.36092">
        <ele>234.5</ele>
        <time>2021-09-05T15:49:23Z</time>
      </trkpt>
      <trkpt lat="44.51358" lon="1.3611">
        <ele>234.3</ele>
        <time>2021-09-05T15:49:25Z</time>
      </trkpt>
      <trkpt lat="44.51355" lon="1.36118">
        <ele>234.3</ele>
        <time>2021-09-05T15:49:26Z</time>
      </trkpt>
      <trkpt lat="44.51354" lon="1.36127">
        <ele>234.3</ele>
        <time>2021-09-05T15:49:28Z</time>
      </trkpt>
      <trkpt lat="44.51356" lon="1.36141">
        <ele>234.5</ele>
        <time>2021-09-05T15:49:29Z</time>
      </trkpt>
      <trkpt lat="44.51354" lon="1.36153">
        <ele>234.7</ele>
        <time>2021-09-05T15:49:31Z</time>
      </trkpt>
      <trkpt lat="44.51352" lon="1.36161">
        <ele>235.1</ele>
        <time>2021-09-05T15:49:34Z</time>
      </trkpt>
      <trkpt lat="44.51351" lon="1.36164">
        <ele>235.2</ele>
        <time>2021-09-05T15:49:35Z</time>
      </trkpt>
      <trkpt lat="44.5135" lon="1.36169">
        <ele>235.4</ele>
        <time>2021-09-05T15:49:36Z</time>
      </trkpt>
      <trkpt lat="44.51347" lon="1.36174">
        <ele>235.6</ele>
        <time>2021-09-05T15:49:37Z</time>
      </trkpt>
      <trkpt lat="44.51346" lon="1.36176">
        <ele>235.7</ele>
        <time>2021-09-05T15:49:38Z</time>
      </trkpt>
      <trkpt lat="44.51338" lon="1.3618">
        <ele>235.7</ele>
        <time>2021-09-05T15:49:40Z</time>
      </trkpt>
      <trkpt lat="44.51333" lon="1.36184">
        <ele>235.6</ele>
        <time>2021-09-05T15:49:41Z</time>
      </trkpt>
      <trkpt lat="44.51329" lon="1.36187">
        <ele>235.4</ele>
        <time>2021-09-05T15:49:43Z</time>
      </trkpt>
      <trkpt lat="44.51326" lon="1.36187">
        <ele>235.1</ele>
        <time>2021-09-05T15:49:44Z</time>
      </trkpt>
      <trkpt lat="44.51325" lon="1.36188">
        <ele>235.2</ele>
        <time>2021-09-05T15:49:45Z</time>
      </trkpt>
      <trkpt lat="44.51323" lon="1.36188">
        <ele>235</ele>
        <time>2021-09-05T15:49:46Z</time>
      </trkpt>
      <trkpt lat="44.51322" lon="1.3619">
        <ele>235</ele>
        <time>2021-09-05T15:49:49Z</time>
      </trkpt>
      <trkpt lat="44.51322" lon="1.3619">
        <ele>235</ele>
        <time>2021-09-05T15:49:51Z</time>
      </trkpt>
      <trkpt lat="44.51322" lon="1.3619">
        <ele>235</ele>
        <time>2021-09-05T15:49:52Z</time>
      </trkpt>
      <trkpt lat="44.51322" lon="1.3619">
        <ele>235</ele>
        <time>2021-09-05T15:49:53Z</time>
      </trkpt>
      <trkpt lat="44.51322" lon="1.3619">
        <ele>235</ele>
        <time>2021-09-05T15:49:55Z</time>
      </trkpt>
      <trkpt lat="44.51322" lon="1.3619">
        <ele>235</ele>
        <time>2021-09-05T15:49:57Z</time>
      </trkpt>
      <trkpt lat="44.51319" lon="1.36192">
        <ele>234.7</ele>
        <time>2021-09-05T15:49:58Z</time>
      </trkpt>
      <trkpt lat="44.51315" lon="1.36196">
        <ele>234.5</ele>
        <time>2021-09-05T15:49:59Z</time>
      </trkpt>
      <trkpt lat="44.51313" lon="1.36202">
        <ele>234.7</ele>
        <time>2021-09-05T15:50:00Z</time>
      </trkpt>
      <trkpt lat="44.51312" lon="1.36205">
        <ele>234.6</ele>
        <time>2021-09-05T15:50:01Z</time>
      </trkpt>
      <trkpt lat="44.51312" lon="1.36205">
        <ele>234.6</ele>
        <time>2021-09-05T15:50:03Z</time>
      </trkpt>
      <trkpt lat="44.51312" lon="1.36205">
        <ele>234.6</ele>
        <time>2021-09-05T15:50:04Z</time>
      </trkpt>
      <trkpt lat="44.51312" lon="1.36205">
        <ele>234.4</ele>
        <time>2021-09-05T15:50:06Z</time>
      </trkpt>
      <trkpt lat="44.51312" lon="1.36205">
        <ele>234.4</ele>
        <time>2021-09-05T15:50:07Z</time>
      </trkpt>
      <trkpt lat="44.51312" lon="1.36205">
        <ele>234.6</ele>
        <time>2021-09-05T15:50:08Z</time>
      </trkpt>
      <trkpt lat="44.51312" lon="1.36206">
        <ele>234.6</ele>
        <time>2021-09-05T15:50:09Z</time>
      </trkpt>
      <trkpt lat="44.51312" lon="1.36209">
        <ele>234.6</ele>
        <time>2021-09-05T15:50:11Z</time>
      </trkpt>
      <trkpt lat="44.51311" lon="1.36211">
        <ele>234.8</ele>
        <time>2021-09-05T15:50:13Z</time>
      </trkpt>
      <trkpt lat="44.51311" lon="1.36211">
        <ele>234.8</ele>
        <time>2021-09-05T15:50:13Z</time>
      </trkpt>
      <trkpt lat="44.5131" lon="1.36217">
        <ele>235</ele>
        <time>2021-09-05T15:50:14Z</time>
      </trkpt>
      <trkpt lat="44.51309" lon="1.36221">
        <ele>234.9</ele>
        <time>2021-09-05T15:50:15Z</time>
      </trkpt>
      <trkpt lat="44.51308" lon="1.36226">
        <ele>235.1</ele>
        <time>2021-09-05T15:50:16Z</time>
      </trkpt>
      <trkpt lat="44.51308" lon="1.36227">
        <ele>235.3</ele>
        <time>2021-09-05T15:50:17Z</time>
      </trkpt>
      <trkpt lat="44.51305" lon="1.36231">
        <ele>235.1</ele>
        <time>2021-09-05T15:50:18Z</time>
      </trkpt>
      <trkpt lat="44.51301" lon="1.36236">
        <ele>234.9</ele>
        <time>2021-09-05T15:50:20Z</time>
      </trkpt>
      <trkpt lat="44.51301" lon="1.36243">
        <ele>235</ele>
        <time>2021-09-05T15:50:22Z</time>
      </trkpt>
      <trkpt lat="44.51301" lon="1.36245">
        <ele>235.1</ele>
        <time>2021-09-05T15:50:23Z</time>
      </trkpt>
      <trkpt lat="44.51301" lon="1.36247">
        <ele>235.1</ele>
        <time>2021-09-05T15:50:24Z</time>
      </trkpt>
      <trkpt lat="44.51299" lon="1.36251">
        <ele>234.8</ele>
        <time>2021-09-05T15:50:25Z</time>
      </trkpt>
      <trkpt lat="44.51298" lon="1.36252">
        <ele>235</ele>
        <time>2021-09-05T15:50:26Z</time>
      </trkpt>
      <trkpt lat="44.51298" lon="1.36258">
        <ele>235.1</ele>
        <time>2021-09-05T15:50:27Z</time>
      </trkpt>
      <trkpt lat="44.51298" lon="1.3626">
        <ele>235.1</ele>
        <time>2021-09-05T15:50:28Z</time>
      </trkpt>
      <trkpt lat="44.51299" lon="1.36267">
        <ele>235.5</ele>
        <time>2021-09-05T15:50:30Z</time>
      </trkpt>
      <trkpt lat="44.51299" lon="1.36269">
        <ele>235.7</ele>
        <time>2021-09-05T15:50:31Z</time>
      </trkpt>
      <trkpt lat="44.51299" lon="1.36272">
        <ele>235.7</ele>
        <time>2021-09-05T15:50:32Z</time>
      </trkpt>
      <trkpt lat="44.51299" lon="1.36274">
        <ele>235.9</ele>
        <time>2021-09-05T15:50:33Z</time>
      </trkpt>
      <trkpt lat="44.51299" lon="1.36277">
        <ele>235.9</ele>
        <time>2021-09-05T15:50:35Z</time>
      </trkpt>
      <trkpt lat="44.51298" lon="1.36282">
        <ele>236.2</ele>
        <time>2021-09-05T15:50:36Z</time>
      </trkpt>
      <trkpt lat="44.51297" lon="1.36283">
        <ele>236.5</ele>
        <time>2021-09-05T15:50:37Z</time>
      </trkpt>
      <trkpt lat="44.51296" lon="1.36288">
        <ele>236.4</ele>
        <time>2021-09-05T15:50:39Z</time>
      </trkpt>
      <trkpt lat="44.51295" lon="1.36289">
        <ele>236.4</ele>
        <time>2021-09-05T15:50:40Z</time>
      </trkpt>
      <trkpt lat="44.51294" lon="1.36293">
        <ele>236.7</ele>
        <time>2021-09-05T15:50:41Z</time>
      </trkpt>
      <trkpt lat="44.51293" lon="1.36298">
        <ele>236.6</ele>
        <time>2021-09-05T15:50:42Z</time>
      </trkpt>
      <trkpt lat="44.51293" lon="1.363">
        <ele>236.7</ele>
        <time>2021-09-05T15:50:43Z</time>
      </trkpt>
      <trkpt lat="44.51291" lon="1.36305">
        <ele>236.6</ele>
        <time>2021-09-05T15:50:45Z</time>
      </trkpt>
      <trkpt lat="44.51289" lon="1.36307">
        <ele>236.6</ele>
        <time>2021-09-05T15:50:46Z</time>
      </trkpt>
      <trkpt lat="44.51286" lon="1.3631">
        <ele>236.5</ele>
        <time>2021-09-05T15:50:48Z</time>
      </trkpt>
      <trkpt lat="44.51283" lon="1.36312">
        <ele>236.2</ele>
        <time>2021-09-05T15:50:49Z</time>
      </trkpt>
      <trkpt lat="44.5128" lon="1.36315">
        <ele>236</ele>
        <time>2021-09-05T15:50:50Z</time>
      </trkpt>
      <trkpt lat="44.51277" lon="1.36317">
        <ele>235.9</ele>
        <time>2021-09-05T15:50:51Z</time>
      </trkpt>
      <trkpt lat="44.51273" lon="1.36321">
        <ele>235.4</ele>
        <time>2021-09-05T15:50:53Z</time>
      </trkpt>
      <trkpt lat="44.5127" lon="1.36324">
        <ele>235.4</ele>
        <time>2021-09-05T15:50:54Z</time>
      </trkpt>
      <trkpt lat="44.51269" lon="1.36326">
        <ele>235.4</ele>
        <time>2021-09-05T15:50:55Z</time>
      </trkpt>
      <trkpt lat="44.51269" lon="1.36327">
        <ele>235.4</ele>
        <time>2021-09-05T15:50:56Z</time>
      </trkpt>
      <trkpt lat="44.51267" lon="1.3633">
        <ele>235.6</ele>
        <time>2021-09-05T15:50:58Z</time>
      </trkpt>
      <trkpt lat="44.51266" lon="1.36333">
        <ele>235.3</ele>
        <time>2021-09-05T15:50:59Z</time>
      </trkpt>
      <trkpt lat="44.51265" lon="1.36335">
        <ele>235.6</ele>
        <time>2021-09-05T15:51:00Z</time>
      </trkpt>
      <trkpt lat="44.51264" lon="1.36337">
        <ele>235.6</ele>
        <time>2021-09-05T15:51:01Z</time>
      </trkpt>
      <trkpt lat="44.51261" lon="1.3634">
        <ele>235.6</ele>
        <time>2021-09-05T15:51:03Z</time>
      </trkpt>
      <trkpt lat="44.51258" lon="1.36344">
        <ele>235.5</ele>
        <time>2021-09-05T15:51:04Z</time>
      </trkpt>
      <trkpt lat="44.51257" lon="1.36346">
        <ele>235.2</ele>
        <time>2021-09-05T15:51:05Z</time>
      </trkpt>
      <trkpt lat="44.51255" lon="1.3635">
        <ele>235.5</ele>
        <time>2021-09-05T15:51:07Z</time>
      </trkpt>
      <trkpt lat="44.51254" lon="1.36352">
        <ele>235.4</ele>
        <time>2021-09-05T15:51:08Z</time>
      </trkpt>
      <trkpt lat="44.51254" lon="1.36355">
        <ele>235.6</ele>
        <time>2021-09-05T15:51:09Z</time>
      </trkpt>
      <trkpt lat="44.51254" lon="1.36356">
        <ele>235.6</ele>
        <time>2021-09-05T15:51:10Z</time>
      </trkpt>
      <trkpt lat="44.51254" lon="1.36357">
        <ele>235.6</ele>
        <time>2021-09-05T15:51:11Z</time>
      </trkpt>
      <trkpt lat="44.51254" lon="1.36358">
        <ele>235.8</ele>
        <time>2021-09-05T15:51:13Z</time>
      </trkpt>
      <trkpt lat="44.51255" lon="1.36359">
        <ele>236</ele>
        <time>2021-09-05T15:51:15Z</time>
      </trkpt>
      <trkpt lat="44.51255" lon="1.36361">
        <ele>236</ele>
        <time>2021-09-05T15:51:16Z</time>
      </trkpt>
      <trkpt lat="44.51255" lon="1.36362">
        <ele>236</ele>
        <time>2021-09-05T15:51:18Z</time>
      </trkpt>
      <trkpt lat="44.51255" lon="1.36363">
        <ele>236</ele>
        <time>2021-09-05T15:51:22Z</time>
      </trkpt>
      <trkpt lat="44.51255" lon="1.36364">
        <ele>236.1</ele>
        <time>2021-09-05T15:51:23Z</time>
      </trkpt>
      <trkpt lat="44.51255" lon="1.36365">
        <ele>236.1</ele>
        <time>2021-09-05T15:51:24Z</time>
      </trkpt>
      <trkpt lat="44.51256" lon="1.36368">
        <ele>236.3</ele>
        <time>2021-09-05T15:51:26Z</time>
      </trkpt>
      <trkpt lat="44.51258" lon="1.36373">
        <ele>236.5</ele>
        <time>2021-09-05T15:51:27Z</time>
      </trkpt>
      <trkpt lat="44.51259" lon="1.36377">
        <ele>236.6</ele>
        <time>2021-09-05T15:51:28Z</time>
      </trkpt>
      <trkpt lat="44.51255" lon="1.3638">
        <ele>236.4</ele>
        <time>2021-09-05T15:51:30Z</time>
      </trkpt>
      <trkpt lat="44.51255" lon="1.36384">
        <ele>236.5</ele>
        <time>2021-09-05T15:51:31Z</time>
      </trkpt>
      <trkpt lat="44.51254" lon="1.36388">
        <ele>236.5</ele>
        <time>2021-09-05T15:51:32Z</time>
      </trkpt>
      <trkpt lat="44.51254" lon="1.36389">
        <ele>236.5</ele>
        <time>2021-09-05T15:51:33Z</time>
      </trkpt>
      <trkpt lat="44.51252" lon="1.36394">
        <ele>236.5</ele>
        <time>2021-09-05T15:51:35Z</time>
      </trkpt>
      <trkpt lat="44.51252" lon="1.36395">
        <ele>236.5</ele>
        <time>2021-09-05T15:51:36Z</time>
      </trkpt>
      <trkpt lat="44.51252" lon="1.36395">
        <ele>236.5</ele>
        <time>2021-09-05T15:51:38Z</time>
      </trkpt>
      <trkpt lat="44.51252" lon="1.36394">
        <ele>236.5</ele>
        <time>2021-09-05T15:51:39Z</time>
      </trkpt>
      <trkpt lat="44.51252" lon="1.36394">
        <ele>236.5</ele>
        <time>2021-09-05T15:51:41Z</time>
      </trkpt>
      <trkpt lat="44.51252" lon="1.36395">
        <ele>236.5</ele>
        <time>2021-09-05T15:51:43Z</time>
      </trkpt>
      <trkpt lat="44.51252" lon="1.36395">
        <ele>236.5</ele>
        <time>2021-09-05T15:51:44Z</time>
      </trkpt>
      <trkpt lat="44.51252" lon="1.36395">
        <ele>236.5</ele>
        <time>2021-09-05T15:51:46Z</time>
      </trkpt>
      <trkpt lat="44.51247" lon="1.36397">
        <ele>236.4</ele>
        <time>2021-09-05T15:51:51Z</time>
      </trkpt>
      <trkpt lat="44.51244" lon="1.36398">
        <ele>236.3</ele>
        <time>2021-09-05T15:51:53Z</time>
      </trkpt>
      <trkpt lat="44.5124" lon="1.364">
        <ele>236.2</ele>
        <time>2021-09-05T15:51:54Z</time>
      </trkpt>
      <trkpt lat="44.51237" lon="1.36405">
        <ele>236</ele>
        <time>2021-09-05T15:51:55Z</time>
      </trkpt>
      <trkpt lat="44.51235" lon="1.3641">
        <ele>235.9</ele>
        <time>2021-09-05T15:51:56Z</time>
      </trkpt>
      <trkpt lat="44.51228" lon="1.36413">
        <ele>235.4</ele>
        <time>2021-09-05T15:51:57Z</time>
      </trkpt>
      <trkpt lat="44.51219" lon="1.3642">
        <ele>234.7</ele>
        <time>2021-09-05T15:51:59Z</time>
      </trkpt>
      <trkpt lat="44.51217" lon="1.36427">
        <ele>234.2</ele>
        <time>2021-09-05T15:52:00Z</time>
      </trkpt>
      <trkpt lat="44.51215" lon="1.36436">
        <ele>234.3</ele>
        <time>2021-09-05T15:52:02Z</time>
      </trkpt>
      <trkpt lat="44.51212" lon="1.36437">
        <ele>234.1</ele>
        <time>2021-09-05T15:52:03Z</time>
      </trkpt>
      <trkpt lat="44.51209" lon="1.36439">
        <ele>233.9</ele>
        <time>2021-09-05T15:52:05Z</time>
      </trkpt>
      <trkpt lat="44.51208" lon="1.36439">
        <ele>233.7</ele>
        <time>2021-09-05T15:52:06Z</time>
      </trkpt>
      <trkpt lat="44.51207" lon="1.36439">
        <ele>233.7</ele>
        <time>2021-09-05T15:52:08Z</time>
      </trkpt>
      <trkpt lat="44.51207" lon="1.36439">
        <ele>233.7</ele>
        <time>2021-09-05T15:52:09Z</time>
      </trkpt>
      <trkpt lat="44.51206" lon="1.36438">
        <ele>233.7</ele>
        <time>2021-09-05T15:52:10Z</time>
      </trkpt>
      <trkpt lat="44.51206" lon="1.36438">
        <ele>233.7</ele>
        <time>2021-09-05T15:52:11Z</time>
      </trkpt>
      <trkpt lat="44.51205" lon="1.36438">
        <ele>233.6</ele>
        <time>2021-09-05T15:52:12Z</time>
      </trkpt>
      <trkpt lat="44.51201" lon="1.36437">
        <ele>233.4</ele>
        <time>2021-09-05T15:52:13Z</time>
      </trkpt>
      <trkpt lat="44.51196" lon="1.3643">
        <ele>232.8</ele>
        <time>2021-09-05T15:52:15Z</time>
      </trkpt>
      <trkpt lat="44.51185" lon="1.36421">
        <ele>231.4</ele>
        <time>2021-09-05T15:52:17Z</time>
      </trkpt>
      <trkpt lat="44.51175" lon="1.36413">
        <ele>229.3</ele>
        <time>2021-09-05T15:52:19Z</time>
      </trkpt>
      <trkpt lat="44.51171" lon="1.36408">
        <ele>227.8</ele>
        <time>2021-09-05T15:52:21Z</time>
      </trkpt>
      <trkpt lat="44.51166" lon="1.36406">
        <ele>226.7</ele>
        <time>2021-09-05T15:52:22Z</time>
      </trkpt>
      <trkpt lat="44.51161" lon="1.36404">
        <ele>225.5</ele>
        <time>2021-09-05T15:52:23Z</time>
      </trkpt>
      <trkpt lat="44.51158" lon="1.36406">
        <ele>224.9</ele>
        <time>2021-09-05T15:52:24Z</time>
      </trkpt>
      <trkpt lat="44.51154" lon="1.36407">
        <ele>224.8</ele>
        <time>2021-09-05T15:52:25Z</time>
      </trkpt>
      <trkpt lat="44.51149" lon="1.36406">
        <ele>223.3</ele>
        <time>2021-09-05T15:52:26Z</time>
      </trkpt>
      <trkpt lat="44.51147" lon="1.364">
        <ele>222.3</ele>
        <time>2021-09-05T15:52:28Z</time>
      </trkpt>
      <trkpt lat="44.51147" lon="1.36398">
        <ele>222.3</ele>
        <time>2021-09-05T15:52:29Z</time>
      </trkpt>
      <trkpt lat="44.51148" lon="1.36395">
        <ele>222.3</ele>
        <time>2021-09-05T15:52:30Z</time>
      </trkpt>
      <trkpt lat="44.51145" lon="1.36393">
        <ele>221.3</ele>
        <time>2021-09-05T15:52:32Z</time>
      </trkpt>
      <trkpt lat="44.51143" lon="1.36394">
        <ele>221.2</ele>
        <time>2021-09-05T15:52:33Z</time>
      </trkpt>
      <trkpt lat="44.5114" lon="1.36398">
        <ele>220.7</ele>
        <time>2021-09-05T15:52:34Z</time>
      </trkpt>
      <trkpt lat="44.51136" lon="1.36401">
        <ele>220.7</ele>
        <time>2021-09-05T15:52:35Z</time>
      </trkpt>
      <trkpt lat="44.51127" lon="1.36406">
        <ele>219.8</ele>
        <time>2021-09-05T15:52:37Z</time>
      </trkpt>
      <trkpt lat="44.51125" lon="1.36406">
        <ele>219.4</ele>
        <time>2021-09-05T15:52:38Z</time>
      </trkpt>
      <trkpt lat="44.51114" lon="1.36405">
        <ele>218.1</ele>
        <time>2021-09-05T15:52:40Z</time>
      </trkpt>
      <trkpt lat="44.51101" lon="1.36406">
        <ele>215.7</ele>
        <time>2021-09-05T15:52:41Z</time>
      </trkpt>
      <trkpt lat="44.51081" lon="1.36405">
        <ele>212.9</ele>
        <time>2021-09-05T15:52:44Z</time>
      </trkpt>
      <trkpt lat="44.51067" lon="1.36406">
        <ele>210.9</ele>
        <time>2021-09-05T15:52:47Z</time>
      </trkpt>
      <trkpt lat="44.51054" lon="1.36409">
        <ele>210</ele>
        <time>2021-09-05T15:52:48Z</time>
      </trkpt>
      <trkpt lat="44.51044" lon="1.36406">
        <ele>208.8</ele>
        <time>2021-09-05T15:52:51Z</time>
      </trkpt>
      <trkpt lat="44.51037" lon="1.36401">
        <ele>207.7</ele>
        <time>2021-09-05T15:52:52Z</time>
      </trkpt>
      <trkpt lat="44.51033" lon="1.36398">
        <ele>207.4</ele>
        <time>2021-09-05T15:52:54Z</time>
      </trkpt>
      <trkpt lat="44.51024" lon="1.36393">
        <ele>205.8</ele>
        <time>2021-09-05T15:52:55Z</time>
      </trkpt>
      <trkpt lat="44.5101" lon="1.36392">
        <ele>204.8</ele>
        <time>2021-09-05T15:52:57Z</time>
      </trkpt>
      <trkpt lat="44.51003" lon="1.36392">
        <ele>204</ele>
        <time>2021-09-05T15:52:58Z</time>
      </trkpt>
      <trkpt lat="44.50991" lon="1.36391">
        <ele>202.9</ele>
        <time>2021-09-05T15:53:00Z</time>
      </trkpt>
      <trkpt lat="44.50986" lon="1.36393">
        <ele>202.7</ele>
        <time>2021-09-05T15:53:02Z</time>
      </trkpt>
      <trkpt lat="44.50982" lon="1.36396">
        <ele>202.6</ele>
        <time>2021-09-05T15:53:03Z</time>
      </trkpt>
      <trkpt lat="44.50976" lon="1.364">
        <ele>202.6</ele>
        <time>2021-09-05T15:53:04Z</time>
      </trkpt>
      <trkpt lat="44.50965" lon="1.36408">
        <ele>202.1</ele>
        <time>2021-09-05T15:53:06Z</time>
      </trkpt>
      <trkpt lat="44.50954" lon="1.36412">
        <ele>201.2</ele>
        <time>2021-09-05T15:53:07Z</time>
      </trkpt>
      <trkpt lat="44.50947" lon="1.3641">
        <ele>200.5</ele>
        <time>2021-09-05T15:53:09Z</time>
      </trkpt>
      <trkpt lat="44.50942" lon="1.36408">
        <ele>199.8</ele>
        <time>2021-09-05T15:53:11Z</time>
      </trkpt>
      <trkpt lat="44.50926" lon="1.36413">
        <ele>197.9</ele>
        <time>2021-09-05T15:53:13Z</time>
      </trkpt>
      <trkpt lat="44.50919" lon="1.36417">
        <ele>197</ele>
        <time>2021-09-05T15:53:15Z</time>
      </trkpt>
      <trkpt lat="44.50914" lon="1.36422">
        <ele>196.1</ele>
        <time>2021-09-05T15:53:16Z</time>
      </trkpt>
      <trkpt lat="44.50913" lon="1.36426">
        <ele>196</ele>
        <time>2021-09-05T15:53:18Z</time>
      </trkpt>
      <trkpt lat="44.50901" lon="1.3643">
        <ele>194.5</ele>
        <time>2021-09-05T15:53:20Z</time>
      </trkpt>
      <trkpt lat="44.50889" lon="1.36426">
        <ele>193</ele>
        <time>2021-09-05T15:53:21Z</time>
      </trkpt>
      <trkpt lat="44.5088" lon="1.36416">
        <ele>191.8</ele>
        <time>2021-09-05T15:53:23Z</time>
      </trkpt>
      <trkpt lat="44.50875" lon="1.36411">
        <ele>191.4</ele>
        <time>2021-09-05T15:53:25Z</time>
      </trkpt>
      <trkpt lat="44.50865" lon="1.36404">
        <ele>189.4</ele>
        <time>2021-09-05T15:53:27Z</time>
      </trkpt>
      <trkpt lat="44.50861" lon="1.36401">
        <ele>188.7</ele>
        <time>2021-09-05T15:53:28Z</time>
      </trkpt>
      <trkpt lat="44.50856" lon="1.36394">
        <ele>187.5</ele>
        <time>2021-09-05T15:53:29Z</time>
      </trkpt>
      <trkpt lat="44.50854" lon="1.3639">
        <ele>187.5</ele>
        <time>2021-09-05T15:53:31Z</time>
      </trkpt>
      <trkpt lat="44.5085" lon="1.36386">
        <ele>186.9</ele>
        <time>2021-09-05T15:53:32Z</time>
      </trkpt>
      <trkpt lat="44.50839" lon="1.36383">
        <ele>185.2</ele>
        <time>2021-09-05T15:53:33Z</time>
      </trkpt>
      <trkpt lat="44.50827" lon="1.36381">
        <ele>183.8</ele>
        <time>2021-09-05T15:53:35Z</time>
      </trkpt>
      <trkpt lat="44.50816" lon="1.36382">
        <ele>182.6</ele>
        <time>2021-09-05T15:53:37Z</time>
      </trkpt>
      <trkpt lat="44.50811" lon="1.36384">
        <ele>182.3</ele>
        <time>2021-09-05T15:53:39Z</time>
      </trkpt>
      <trkpt lat="44.50808" lon="1.36383">
        <ele>182</ele>
        <time>2021-09-05T15:53:40Z</time>
      </trkpt>
      <trkpt lat="44.50803" lon="1.36382">
        <ele>181.3</ele>
        <time>2021-09-05T15:53:41Z</time>
      </trkpt>
      <trkpt lat="44.50794" lon="1.36384">
        <ele>180.3</ele>
        <time>2021-09-05T15:53:42Z</time>
      </trkpt>
      <trkpt lat="44.50789" lon="1.36382">
        <ele>179.7</ele>
        <time>2021-09-05T15:53:44Z</time>
      </trkpt>
      <trkpt lat="44.50783" lon="1.3638">
        <ele>179.4</ele>
        <time>2021-09-05T15:53:45Z</time>
      </trkpt>
      <trkpt lat="44.50776" lon="1.36378">
        <ele>178.3</ele>
        <time>2021-09-05T15:53:46Z</time>
      </trkpt>
      <trkpt lat="44.50772" lon="1.36377">
        <ele>178</ele>
        <time>2021-09-05T15:53:47Z</time>
      </trkpt>
      <trkpt lat="44.50767" lon="1.36375">
        <ele>177.5</ele>
        <time>2021-09-05T15:53:48Z</time>
      </trkpt>
      <trkpt lat="44.50755" lon="1.3637">
        <ele>176.4</ele>
        <time>2021-09-05T15:53:51Z</time>
      </trkpt>
      <trkpt lat="44.50744" lon="1.3637">
        <ele>175.4</ele>
        <time>2021-09-05T15:53:52Z</time>
      </trkpt>
      <trkpt lat="44.50732" lon="1.3637">
        <ele>174.4</ele>
        <time>2021-09-05T15:53:54Z</time>
      </trkpt>
      <trkpt lat="44.50719" lon="1.36372">
        <ele>173.2</ele>
        <time>2021-09-05T15:53:56Z</time>
      </trkpt>
      <trkpt lat="44.50708" lon="1.36368">
        <ele>172.5</ele>
        <time>2021-09-05T15:53:58Z</time>
      </trkpt>
      <trkpt lat="44.50703" lon="1.36365">
        <ele>171.9</ele>
        <time>2021-09-05T15:53:59Z</time>
      </trkpt>
      <trkpt lat="44.50693" lon="1.36361">
        <ele>170.9</ele>
        <time>2021-09-05T15:54:02Z</time>
      </trkpt>
      <trkpt lat="44.50686" lon="1.36356">
        <ele>170.1</ele>
        <time>2021-09-05T15:54:04Z</time>
      </trkpt>
      <trkpt lat="44.50678" lon="1.3635">
        <ele>168.9</ele>
        <time>2021-09-05T15:54:06Z</time>
      </trkpt>
      <trkpt lat="44.50674" lon="1.36346">
        <ele>168.4</ele>
        <time>2021-09-05T15:54:07Z</time>
      </trkpt>
      <trkpt lat="44.5067" lon="1.36344">
        <ele>168</ele>
        <time>2021-09-05T15:54:08Z</time>
      </trkpt>
      <trkpt lat="44.50667" lon="1.36347">
        <ele>167.6</ele>
        <time>2021-09-05T15:54:09Z</time>
      </trkpt>
      <trkpt lat="44.50662" lon="1.36351">
        <ele>166.7</ele>
        <time>2021-09-05T15:54:10Z</time>
      </trkpt>
      <trkpt lat="44.50661" lon="1.36356">
        <ele>166.3</ele>
        <time>2021-09-05T15:54:12Z</time>
      </trkpt>
      <trkpt lat="44.50657" lon="1.36359">
        <ele>165.8</ele>
        <time>2021-09-05T15:54:14Z</time>
      </trkpt>
      <trkpt lat="44.50654" lon="1.36365">
        <ele>165.4</ele>
        <time>2021-09-05T15:54:15Z</time>
      </trkpt>
      <trkpt lat="44.50655" lon="1.36368">
        <ele>165.9</ele>
        <time>2021-09-05T15:54:16Z</time>
      </trkpt>
      <trkpt lat="44.50657" lon="1.3637">
        <ele>165.9</ele>
        <time>2021-09-05T15:54:18Z</time>
      </trkpt>
      <trkpt lat="44.50656" lon="1.36371">
        <ele>165.9</ele>
        <time>2021-09-05T15:54:19Z</time>
      </trkpt>
      <trkpt lat="44.50655" lon="1.36372">
        <ele>165.9</ele>
        <time>2021-09-05T15:54:20Z</time>
      </trkpt>
      <trkpt lat="44.50654" lon="1.36374">
        <ele>165.5</ele>
        <time>2021-09-05T15:54:22Z</time>
      </trkpt>
      <trkpt lat="44.50651" lon="1.36378">
        <ele>165.2</ele>
        <time>2021-09-05T15:54:23Z</time>
      </trkpt>
      <trkpt lat="44.50649" lon="1.36382">
        <ele>165.3</ele>
        <time>2021-09-05T15:54:24Z</time>
      </trkpt>
      <trkpt lat="44.50645" lon="1.36384">
        <ele>164.4</ele>
        <time>2021-09-05T15:54:25Z</time>
      </trkpt>
      <trkpt lat="44.50641" lon="1.36382">
        <ele>163.9</ele>
        <time>2021-09-05T15:54:27Z</time>
      </trkpt>
      <trkpt lat="44.50629" lon="1.36386">
        <ele>162.2</ele>
        <time>2021-09-05T15:54:29Z</time>
      </trkpt>
      <trkpt lat="44.50626" lon="1.36392">
        <ele>161.9</ele>
        <time>2021-09-05T15:54:30Z</time>
      </trkpt>
      <trkpt lat="44.50622" lon="1.36396">
        <ele>161.6</ele>
        <time>2021-09-05T15:54:31Z</time>
      </trkpt>
      <trkpt lat="44.50621" lon="1.36401">
        <ele>161.7</ele>
        <time>2021-09-05T15:54:32Z</time>
      </trkpt>
      <trkpt lat="44.50617" lon="1.36407">
        <ele>160.9</ele>
        <time>2021-09-05T15:54:34Z</time>
      </trkpt>
      <trkpt lat="44.50613" lon="1.36409">
        <ele>160.3</ele>
        <time>2021-09-05T15:54:36Z</time>
      </trkpt>
      <trkpt lat="44.50604" lon="1.36415">
        <ele>158.9</ele>
        <time>2021-09-05T15:54:38Z</time>
      </trkpt>
      <trkpt lat="44.506" lon="1.36428">
        <ele>158.7</ele>
        <time>2021-09-05T15:54:40Z</time>
      </trkpt>
      <trkpt lat="44.50597" lon="1.36434">
        <ele>158.6</ele>
        <time>2021-09-05T15:54:41Z</time>
      </trkpt>
      <trkpt lat="44.50595" lon="1.36441">
        <ele>158.3</ele>
        <time>2021-09-05T15:54:42Z</time>
      </trkpt>
      <trkpt lat="44.50594" lon="1.36444">
        <ele>158.5</ele>
        <time>2021-09-05T15:54:44Z</time>
      </trkpt>
      <trkpt lat="44.50591" lon="1.36447">
        <ele>158.2</ele>
        <time>2021-09-05T15:54:45Z</time>
      </trkpt>
      <trkpt lat="44.50588" lon="1.36449">
        <ele>157.8</ele>
        <time>2021-09-05T15:54:46Z</time>
      </trkpt>
      <trkpt lat="44.50588" lon="1.36451">
        <ele>157.9</ele>
        <time>2021-09-05T15:54:47Z</time>
      </trkpt>
      <trkpt lat="44.50586" lon="1.36449">
        <ele>157.3</ele>
        <time>2021-09-05T15:54:49Z</time>
      </trkpt>
      <trkpt lat="44.50584" lon="1.36449">
        <ele>156.8</ele>
        <time>2021-09-05T15:54:51Z</time>
      </trkpt>
      <trkpt lat="44.50582" lon="1.36449">
        <ele>156.8</ele>
        <time>2021-09-05T15:54:53Z</time>
      </trkpt>
      <trkpt lat="44.5058" lon="1.36449">
        <ele>156.4</ele>
        <time>2021-09-05T15:54:54Z</time>
      </trkpt>
      <trkpt lat="44.50579" lon="1.36449">
        <ele>156.4</ele>
        <time>2021-09-05T15:54:55Z</time>
      </trkpt>
      <trkpt lat="44.50577" lon="1.36449">
        <ele>155.9</ele>
        <time>2021-09-05T15:54:57Z</time>
      </trkpt>
      <trkpt lat="44.50575" lon="1.36449">
        <ele>155.9</ele>
        <time>2021-09-05T15:58:16Z</time>
      </trkpt>
      <trkpt lat="44.50573" lon="1.36449">
        <ele>155.5</ele>
        <time>2021-09-05T15:58:17Z</time>
      </trkpt>
      <trkpt lat="44.50567" lon="1.36447">
        <ele>154.8</ele>
        <time>2021-09-05T15:58:18Z</time>
      </trkpt>
      <trkpt lat="44.50562" lon="1.36446">
        <ele>154.2</ele>
        <time>2021-09-05T15:58:19Z</time>
      </trkpt>
      <trkpt lat="44.50557" lon="1.36445">
        <ele>153.8</ele>
        <time>2021-09-05T15:58:20Z</time>
      </trkpt>
      <trkpt lat="44.50552" lon="1.36444">
        <ele>153</ele>
        <time>2021-09-05T15:58:21Z</time>
      </trkpt>
      <trkpt lat="44.50547" lon="1.36443">
        <ele>152.4</ele>
        <time>2021-09-05T15:58:22Z</time>
      </trkpt>
      <trkpt lat="44.50535" lon="1.3644">
        <ele>151.4</ele>
        <time>2021-09-05T15:58:24Z</time>
      </trkpt>
      <trkpt lat="44.5053" lon="1.36438">
        <ele>150.7</ele>
        <time>2021-09-05T15:58:25Z</time>
      </trkpt>
      <trkpt lat="44.50526" lon="1.36436">
        <ele>149.9</ele>
        <time>2021-09-05T15:58:26Z</time>
      </trkpt>
      <trkpt lat="44.50515" lon="1.36432">
        <ele>149</ele>
        <time>2021-09-05T15:58:28Z</time>
      </trkpt>
      <trkpt lat="44.50505" lon="1.36428">
        <ele>148.1</ele>
        <time>2021-09-05T15:58:30Z</time>
      </trkpt>
      <trkpt lat="44.505" lon="1.36426">
        <ele>147.4</ele>
        <time>2021-09-05T15:58:32Z</time>
      </trkpt>
      <trkpt lat="44.50489" lon="1.36421">
        <ele>146.1</ele>
        <time>2021-09-05T15:58:33Z</time>
      </trkpt>
      <trkpt lat="44.50483" lon="1.36419">
        <ele>145.6</ele>
        <time>2021-09-05T15:58:34Z</time>
      </trkpt>
      <trkpt lat="44.50478" lon="1.36416">
        <ele>144.9</ele>
        <time>2021-09-05T15:58:36Z</time>
      </trkpt>
      <trkpt lat="44.50468" lon="1.36411">
        <ele>143.2</ele>
        <time>2021-09-05T15:58:37Z</time>
      </trkpt>
      <trkpt lat="44.50462" lon="1.36409">
        <ele>142.8</ele>
        <time>2021-09-05T15:58:39Z</time>
      </trkpt>
      <trkpt lat="44.50451" lon="1.36407">
        <ele>141.8</ele>
        <time>2021-09-05T15:58:41Z</time>
      </trkpt>
      <trkpt lat="44.50438" lon="1.36406">
        <ele>141.2</ele>
        <time>2021-09-05T15:58:43Z</time>
      </trkpt>
      <trkpt lat="44.50434" lon="1.36407">
        <ele>140.9</ele>
        <time>2021-09-05T15:58:45Z</time>
      </trkpt>
      <trkpt lat="44.50432" lon="1.36407">
        <ele>140.6</ele>
        <time>2021-09-05T15:58:47Z</time>
      </trkpt>
      <trkpt lat="44.50431" lon="1.36406">
        <ele>140.8</ele>
        <time>2021-09-05T15:58:50Z</time>
      </trkpt>
      <trkpt lat="44.50431" lon="1.36405">
        <ele>140.7</ele>
        <time>2021-09-05T15:58:52Z</time>
      </trkpt>
      <trkpt lat="44.5043" lon="1.36404">
        <ele>140.7</ele>
        <time>2021-09-05T15:58:53Z</time>
      </trkpt>
      <trkpt lat="44.5043" lon="1.36402">
        <ele>140.7</ele>
        <time>2021-09-05T15:58:54Z</time>
      </trkpt>
      <trkpt lat="44.50429" lon="1.36401">
        <ele>140.9</ele>
        <time>2021-09-05T15:58:56Z</time>
      </trkpt>
      <trkpt lat="44.50429" lon="1.364">
        <ele>140.9</ele>
        <time>2021-09-05T15:59:56Z</time>
      </trkpt>
      <trkpt lat="44.50428" lon="1.36398">
        <ele>140.9</ele>
        <time>2021-09-05T15:59:57Z</time>
      </trkpt>
      <trkpt lat="44.50427" lon="1.36396">
        <ele>141</ele>
        <time>2021-09-05T15:59:58Z</time>
      </trkpt>
      <trkpt lat="44.50425" lon="1.36391">
        <ele>141.2</ele>
        <time>2021-09-05T16:00:00Z</time>
      </trkpt>
      <trkpt lat="44.50424" lon="1.36388">
        <ele>141.6</ele>
        <time>2021-09-05T16:00:01Z</time>
      </trkpt>
      <trkpt lat="44.50423" lon="1.36385">
        <ele>141.6</ele>
        <time>2021-09-05T16:00:03Z</time>
      </trkpt>
      <trkpt lat="44.50421" lon="1.36381">
        <ele>141.8</ele>
        <time>2021-09-05T16:00:04Z</time>
      </trkpt>
      <trkpt lat="44.50421" lon="1.3638">
        <ele>142.3</ele>
        <time>2021-09-05T16:00:05Z</time>
      </trkpt>
      <trkpt lat="44.5042" lon="1.36375">
        <ele>142.7</ele>
        <time>2021-09-05T16:00:06Z</time>
      </trkpt>
      <trkpt lat="44.50419" lon="1.36374">
        <ele>142.7</ele>
        <time>2021-09-05T16:00:07Z</time>
      </trkpt>
      <trkpt lat="44.50419" lon="1.36372">
        <ele>142.7</ele>
        <time>2021-09-05T16:00:08Z</time>
      </trkpt>
      <trkpt lat="44.50418" lon="1.36372">
        <ele>142.7</ele>
        <time>2021-09-05T16:00:10Z</time>
      </trkpt>
      <trkpt lat="44.50418" lon="1.36372">
        <ele>142.7</ele>
        <time>2021-09-05T16:00:12Z</time>
      </trkpt>
      <trkpt lat="44.50418" lon="1.36372">
        <ele>142.7</ele>
        <time>2021-09-05T16:00:13Z</time>
      </trkpt>
      <trkpt lat="44.50418" lon="1.36373">
        <ele>142.7</ele>
        <time>2021-09-05T16:00:14Z</time>
      </trkpt>
      <trkpt lat="44.50418" lon="1.36373">
        <ele>142.7</ele>
        <time>2021-09-05T16:00:16Z</time>
      </trkpt>
      <trkpt lat="44.50418" lon="1.36373">
        <ele>142.7</ele>
        <time>2021-09-05T16:00:18Z</time>
      </trkpt>
      <trkpt lat="44.50418" lon="1.36373">
        <ele>142.7</ele>
        <time>2021-09-05T16:00:19Z</time>
      </trkpt>
      <trkpt lat="44.50419" lon="1.36373">
        <ele>142.7</ele>
        <time>2021-09-05T16:00:20Z</time>
      </trkpt>
      <trkpt lat="44.50415" lon="1.36372">
        <ele>142.6</ele>
        <time>2021-09-05T16:00:31Z</time>
      </trkpt>
      <trkpt lat="44.50412" lon="1.36374">
        <ele>142.5</ele>
        <time>2021-09-05T16:00:32Z</time>
      </trkpt>
      <trkpt lat="44.50407" lon="1.36377">
        <ele>141.9</ele>
        <time>2021-09-05T16:00:34Z</time>
      </trkpt>
      <trkpt lat="44.50403" lon="1.36379">
        <ele>141.8</ele>
        <time>2021-09-05T16:00:35Z</time>
      </trkpt>
      <trkpt lat="44.504" lon="1.36381">
        <ele>141.7</ele>
        <time>2021-09-05T16:00:36Z</time>
      </trkpt>
      <trkpt lat="44.50397" lon="1.36382">
        <ele>141.2</ele>
        <time>2021-09-05T16:00:37Z</time>
      </trkpt>
      <trkpt lat="44.50391" lon="1.36383">
        <ele>141.2</ele>
        <time>2021-09-05T16:00:39Z</time>
      </trkpt>
      <trkpt lat="44.50388" lon="1.36384">
        <ele>141.2</ele>
        <time>2021-09-05T16:00:40Z</time>
      </trkpt>
      <trkpt lat="44.50385" lon="1.36384">
        <ele>141.1</ele>
        <time>2021-09-05T16:00:42Z</time>
      </trkpt>
      <trkpt lat="44.50381" lon="1.36384">
        <ele>141.1</ele>
        <time>2021-09-05T16:00:43Z</time>
      </trkpt>
      <trkpt lat="44.50378" lon="1.36383">
        <ele>141.1</ele>
        <time>2021-09-05T16:00:44Z</time>
      </trkpt>
      <trkpt lat="44.50374" lon="1.36383">
        <ele>141.1</ele>
        <time>2021-09-05T16:00:46Z</time>
      </trkpt>
      <trkpt lat="44.50371" lon="1.36382">
        <ele>141.2</ele>
        <time>2021-09-05T16:00:47Z</time>
      </trkpt>
      <trkpt lat="44.5037" lon="1.36382">
        <ele>141.2</ele>
        <time>2021-09-05T16:00:48Z</time>
      </trkpt>
      <trkpt lat="44.50368" lon="1.36381">
        <ele>141.2</ele>
        <time>2021-09-05T16:00:49Z</time>
      </trkpt>
      <trkpt lat="44.50367" lon="1.36381">
        <ele>141.2</ele>
        <time>2021-09-05T16:00:51Z</time>
      </trkpt>
      <trkpt lat="44.50366" lon="1.36381">
        <ele>141.2</ele>
        <time>2021-09-05T16:00:52Z</time>
      </trkpt>
      <trkpt lat="44.50365" lon="1.36381">
        <ele>141.2</ele>
        <time>2021-09-05T16:00:54Z</time>
      </trkpt>
      <trkpt lat="44.50364" lon="1.36381">
        <ele>141.2</ele>
        <time>2021-09-05T16:00:57Z</time>
      </trkpt>
      <trkpt lat="44.50364" lon="1.36382">
        <ele>141.2</ele>
        <time>2021-09-05T16:00:58Z</time>
      </trkpt>
      <trkpt lat="44.50364" lon="1.36382">
        <ele>141.2</ele>
        <time>2021-09-05T16:01:01Z</time>
      </trkpt>
      <trkpt lat="44.50364" lon="1.36382">
        <ele>141.2</ele>
        <time>2021-09-05T16:01:02Z</time>
      </trkpt>
      <trkpt lat="44.50364" lon="1.36382">
        <ele>141.2</ele>
        <time>2021-09-05T16:01:04Z</time>
      </trkpt>
      <trkpt lat="44.50368" lon="1.36396">
        <ele>139.8</ele>
        <time>2021-09-05T16:03:54Z</time>
      </trkpt>
      <trkpt lat="44.50369" lon="1.36402">
        <ele>138.9</ele>
        <time>2021-09-05T16:03:56Z</time>
      </trkpt>
      <trkpt lat="44.50371" lon="1.36408">
        <ele>138.5</ele>
        <time>2021-09-05T16:03:57Z</time>
      </trkpt>
      <trkpt lat="44.50373" lon="1.36411">
        <ele>138.5</ele>
        <time>2021-09-05T16:03:59Z</time>
      </trkpt>
      <trkpt lat="44.50375" lon="1.36413">
        <ele>138.1</ele>
        <time>2021-09-05T16:04:00Z</time>
      </trkpt>
      <trkpt lat="44.50378" lon="1.36418">
        <ele>137.7</ele>
        <time>2021-09-05T16:04:01Z</time>
      </trkpt>
      <trkpt lat="44.50381" lon="1.36422">
        <ele>137.3</ele>
        <time>2021-09-05T16:04:02Z</time>
      </trkpt>
      <trkpt lat="44.50384" lon="1.36426">
        <ele>137</ele>
        <time>2021-09-05T16:04:04Z</time>
      </trkpt>
      <trkpt lat="44.50386" lon="1.36428">
        <ele>136.9</ele>
        <time>2021-09-05T16:04:05Z</time>
      </trkpt>
      <trkpt lat="44.50388" lon="1.36433">
        <ele>136.8</ele>
        <time>2021-09-05T16:04:06Z</time>
      </trkpt>
      <trkpt lat="44.50389" lon="1.36435">
        <ele>136.9</ele>
        <time>2021-09-05T16:04:07Z</time>
      </trkpt>
      <trkpt lat="44.50391" lon="1.36439">
        <ele>136.9</ele>
        <time>2021-09-05T16:04:08Z</time>
      </trkpt>
      <trkpt lat="44.50394" lon="1.36443">
        <ele>137.1</ele>
        <time>2021-09-05T16:04:10Z</time>
      </trkpt>
      <trkpt lat="44.50396" lon="1.36446">
        <ele>137.3</ele>
        <time>2021-09-05T16:04:11Z</time>
      </trkpt>
      <trkpt lat="44.50398" lon="1.3645">
        <ele>137.7</ele>
        <time>2021-09-05T16:04:12Z</time>
      </trkpt>
      <trkpt lat="44.504" lon="1.36453">
        <ele>137.7</ele>
        <time>2021-09-05T16:04:13Z</time>
      </trkpt>
      <trkpt lat="44.50403" lon="1.36457">
        <ele>138</ele>
        <time>2021-09-05T16:04:15Z</time>
      </trkpt>
      <trkpt lat="44.50405" lon="1.36461">
        <ele>138.3</ele>
        <time>2021-09-05T16:04:17Z</time>
      </trkpt>
      <trkpt lat="44.50407" lon="1.36465">
        <ele>138.6</ele>
        <time>2021-09-05T16:04:18Z</time>
      </trkpt>
      <trkpt lat="44.50406" lon="1.36467">
        <ele>138.6</ele>
        <time>2021-09-05T16:04:19Z</time>
      </trkpt>
      <trkpt lat="44.50405" lon="1.36472">
        <ele>138.6</ele>
        <time>2021-09-05T16:04:21Z</time>
      </trkpt>
      <trkpt lat="44.50403" lon="1.36477">
        <ele>138.5</ele>
        <time>2021-09-05T16:04:24Z</time>
      </trkpt>
      <trkpt lat="44.50401" lon="1.36481">
        <ele>138.5</ele>
        <time>2021-09-05T16:04:25Z</time>
      </trkpt>
      <trkpt lat="44.504" lon="1.36485">
        <ele>138.5</ele>
        <time>2021-09-05T16:04:27Z</time>
      </trkpt>
      <trkpt lat="44.50399" lon="1.36486">
        <ele>138.5</ele>
        <time>2021-09-05T16:04:28Z</time>
      </trkpt>
      <trkpt lat="44.50396" lon="1.36494">
        <ele>138.5</ele>
        <time>2021-09-05T16:04:30Z</time>
      </trkpt>
      <trkpt lat="44.50395" lon="1.36497">
        <ele>138.5</ele>
        <time>2021-09-05T16:04:32Z</time>
      </trkpt>
      <trkpt lat="44.50393" lon="1.36501">
        <ele>138.5</ele>
        <time>2021-09-05T16:04:33Z</time>
      </trkpt>
      <trkpt lat="44.50391" lon="1.36505">
        <ele>138.5</ele>
        <time>2021-09-05T16:04:35Z</time>
      </trkpt>
      <trkpt lat="44.5039" lon="1.3651">
        <ele>138.4</ele>
        <time>2021-09-05T16:04:36Z</time>
      </trkpt>
      <trkpt lat="44.5039" lon="1.36513">
        <ele>138.4</ele>
        <time>2021-09-05T16:04:37Z</time>
      </trkpt>
      <trkpt lat="44.50388" lon="1.36517">
        <ele>138.4</ele>
        <time>2021-09-05T16:04:39Z</time>
      </trkpt>
      <trkpt lat="44.50386" lon="1.36522">
        <ele>138.4</ele>
        <time>2021-09-05T16:04:40Z</time>
      </trkpt>
      <trkpt lat="44.50385" lon="1.36523">
        <ele>138.4</ele>
        <time>2021-09-05T16:04:41Z</time>
      </trkpt>
      <trkpt lat="44.50384" lon="1.36526">
        <ele>138.4</ele>
        <time>2021-09-05T16:04:42Z</time>
      </trkpt>
      <trkpt lat="44.50384" lon="1.3653">
        <ele>138.4</ele>
        <time>2021-09-05T16:04:44Z</time>
      </trkpt>
      <trkpt lat="44.50382" lon="1.36534">
        <ele>138.4</ele>
        <time>2021-09-05T16:04:46Z</time>
      </trkpt>
      <trkpt lat="44.50382" lon="1.36539">
        <ele>138.3</ele>
        <time>2021-09-05T16:04:47Z</time>
      </trkpt>
      <trkpt lat="44.50381" lon="1.36544">
        <ele>138.3</ele>
        <time>2021-09-05T16:04:48Z</time>
      </trkpt>
      <trkpt lat="44.50381" lon="1.36546">
        <ele>138.3</ele>
        <time>2021-09-05T16:04:49Z</time>
      </trkpt>
      <trkpt lat="44.5038" lon="1.36551">
        <ele>138.3</ele>
        <time>2021-09-05T16:04:51Z</time>
      </trkpt>
      <trkpt lat="44.50378" lon="1.36558">
        <ele>138.2</ele>
        <time>2021-09-05T16:04:53Z</time>
      </trkpt>
      <trkpt lat="44.50378" lon="1.36562">
        <ele>138.2</ele>
        <time>2021-09-05T16:04:55Z</time>
      </trkpt>
      <trkpt lat="44.50377" lon="1.36567">
        <ele>138.1</ele>
        <time>2021-09-05T16:04:56Z</time>
      </trkpt>
      <trkpt lat="44.50376" lon="1.36571">
        <ele>138</ele>
        <time>2021-09-05T16:04:57Z</time>
      </trkpt>
      <trkpt lat="44.50375" lon="1.36577">
        <ele>137.9</ele>
        <time>2021-09-05T16:04:59Z</time>
      </trkpt>
      <trkpt lat="44.50374" lon="1.36583">
        <ele>137.8</ele>
        <time>2021-09-05T16:05:00Z</time>
      </trkpt>
      <trkpt lat="44.50373" lon="1.36588">
        <ele>137.7</ele>
        <time>2021-09-05T16:05:01Z</time>
      </trkpt>
      <trkpt lat="44.50371" lon="1.36594">
        <ele>137.6</ele>
        <time>2021-09-05T16:05:03Z</time>
      </trkpt>
      <trkpt lat="44.50369" lon="1.36602">
        <ele>137.4</ele>
        <time>2021-09-05T16:05:04Z</time>
      </trkpt>
      <trkpt lat="44.50367" lon="1.36609">
        <ele>137.3</ele>
        <time>2021-09-05T16:05:05Z</time>
      </trkpt>
      <trkpt lat="44.50366" lon="1.36615">
        <ele>137.2</ele>
        <time>2021-09-05T16:05:07Z</time>
      </trkpt>
      <trkpt lat="44.50364" lon="1.36625">
        <ele>137</ele>
        <time>2021-09-05T16:05:09Z</time>
      </trkpt>
      <trkpt lat="44.50361" lon="1.36632">
        <ele>136.9</ele>
        <time>2021-09-05T16:05:10Z</time>
      </trkpt>
      <trkpt lat="44.50359" lon="1.36637">
        <ele>136.8</ele>
        <time>2021-09-05T16:05:11Z</time>
      </trkpt>
      <trkpt lat="44.50358" lon="1.36642">
        <ele>136.7</ele>
        <time>2021-09-05T16:05:12Z</time>
      </trkpt>
      <trkpt lat="44.50356" lon="1.36651">
        <ele>136.6</ele>
        <time>2021-09-05T16:05:14Z</time>
      </trkpt>
      <trkpt lat="44.50354" lon="1.36658">
        <ele>136.6</ele>
        <time>2021-09-05T16:05:15Z</time>
      </trkpt>
      <trkpt lat="44.50352" lon="1.36662">
        <ele>136.5</ele>
        <time>2021-09-05T16:05:16Z</time>
      </trkpt>
      <trkpt lat="44.50351" lon="1.36666">
        <ele>136.5</ele>
        <time>2021-09-05T16:05:17Z</time>
      </trkpt>
      <trkpt lat="44.50349" lon="1.36672">
        <ele>136.5</ele>
        <time>2021-09-05T16:05:19Z</time>
      </trkpt>
      <trkpt lat="44.50347" lon="1.36678">
        <ele>136.5</ele>
        <time>2021-09-05T16:05:20Z</time>
      </trkpt>
      <trkpt lat="44.50345" lon="1.36683">
        <ele>136.5</ele>
        <time>2021-09-05T16:05:22Z</time>
      </trkpt>
      <trkpt lat="44.50344" lon="1.36687">
        <ele>136.5</ele>
        <time>2021-09-05T16:05:23Z</time>
      </trkpt>
      <trkpt lat="44.50343" lon="1.36691">
        <ele>136.5</ele>
        <time>2021-09-05T16:05:24Z</time>
      </trkpt>
      <trkpt lat="44.50339" lon="1.36703">
        <ele>136.6</ele>
        <time>2021-09-05T16:05:26Z</time>
      </trkpt>
      <trkpt lat="44.50339" lon="1.36709">
        <ele>136.6</ele>
        <time>2021-09-05T16:05:29Z</time>
      </trkpt>
      <trkpt lat="44.50339" lon="1.36715">
        <ele>136.6</ele>
        <time>2021-09-05T16:05:30Z</time>
      </trkpt>
      <trkpt lat="44.50341" lon="1.36721">
        <ele>137.1</ele>
        <time>2021-09-05T16:05:32Z</time>
      </trkpt>
      <trkpt lat="44.50342" lon="1.36725">
        <ele>137.3</ele>
        <time>2021-09-05T16:05:34Z</time>
      </trkpt>
      <trkpt lat="44.50343" lon="1.36726">
        <ele>137.4</ele>
        <time>2021-09-05T16:05:35Z</time>
      </trkpt>
      <trkpt lat="44.50345" lon="1.3673">
        <ele>137.7</ele>
        <time>2021-09-05T16:05:37Z</time>
      </trkpt>
      <trkpt lat="44.50349" lon="1.36734">
        <ele>138.1</ele>
        <time>2021-09-05T16:05:38Z</time>
      </trkpt>
      <trkpt lat="44.50353" lon="1.3674">
        <ele>138.6</ele>
        <time>2021-09-05T16:05:41Z</time>
      </trkpt>
      <trkpt lat="44.50354" lon="1.36741">
        <ele>138.7</ele>
        <time>2021-09-05T16:05:42Z</time>
      </trkpt>
      <trkpt lat="44.50355" lon="1.36743">
        <ele>138.8</ele>
        <time>2021-09-05T16:05:43Z</time>
      </trkpt>
      <trkpt lat="44.50358" lon="1.36745">
        <ele>139.1</ele>
        <time>2021-09-05T16:05:45Z</time>
      </trkpt>
      <trkpt lat="44.50361" lon="1.3675">
        <ele>139.4</ele>
        <time>2021-09-05T16:05:47Z</time>
      </trkpt>
      <trkpt lat="44.50363" lon="1.36753">
        <ele>139.7</ele>
        <time>2021-09-05T16:05:48Z</time>
      </trkpt>
      <trkpt lat="44.50365" lon="1.36755">
        <ele>139.9</ele>
        <time>2021-09-05T16:05:49Z</time>
      </trkpt>
      <trkpt lat="44.50367" lon="1.36759">
        <ele>140.2</ele>
        <time>2021-09-05T16:05:51Z</time>
      </trkpt>
      <trkpt lat="44.5037" lon="1.36763">
        <ele>140.5</ele>
        <time>2021-09-05T16:05:53Z</time>
      </trkpt>
      <trkpt lat="44.50373" lon="1.36767">
        <ele>140.8</ele>
        <time>2021-09-05T16:05:55Z</time>
      </trkpt>
      <trkpt lat="44.50375" lon="1.36769">
        <ele>141</ele>
        <time>2021-09-05T16:05:56Z</time>
      </trkpt>
      <trkpt lat="44.50377" lon="1.36773">
        <ele>141.2</ele>
        <time>2021-09-05T16:05:57Z</time>
      </trkpt>
      <trkpt lat="44.5038" lon="1.36778">
        <ele>141.6</ele>
        <time>2021-09-05T16:05:59Z</time>
      </trkpt>
      <trkpt lat="44.50381" lon="1.3678">
        <ele>141.7</ele>
        <time>2021-09-05T16:06:00Z</time>
      </trkpt>
      <trkpt lat="44.50382" lon="1.36783">
        <ele>141.9</ele>
        <time>2021-09-05T16:06:01Z</time>
      </trkpt>
      <trkpt lat="44.50384" lon="1.36787">
        <ele>142.2</ele>
        <time>2021-09-05T16:06:03Z</time>
      </trkpt>
      <trkpt lat="44.50386" lon="1.3679">
        <ele>142.4</ele>
        <time>2021-09-05T16:06:04Z</time>
      </trkpt>
      <trkpt lat="44.50389" lon="1.36794">
        <ele>142.6</ele>
        <time>2021-09-05T16:06:07Z</time>
      </trkpt>
      <trkpt lat="44.50391" lon="1.36799">
        <ele>142.9</ele>
        <time>2021-09-05T16:06:08Z</time>
      </trkpt>
      <trkpt lat="44.50392" lon="1.36803">
        <ele>143.1</ele>
        <time>2021-09-05T16:06:09Z</time>
      </trkpt>
      <trkpt lat="44.50393" lon="1.36804">
        <ele>143.1</ele>
        <time>2021-09-05T16:06:10Z</time>
      </trkpt>
      <trkpt lat="44.50394" lon="1.36809">
        <ele>143.3</ele>
        <time>2021-09-05T16:06:12Z</time>
      </trkpt>
      <trkpt lat="44.50396" lon="1.36811">
        <ele>143.4</ele>
        <time>2021-09-05T16:06:13Z</time>
      </trkpt>
      <trkpt lat="44.50397" lon="1.36813">
        <ele>143.6</ele>
        <time>2021-09-05T16:06:15Z</time>
      </trkpt>
      <trkpt lat="44.50399" lon="1.36818">
        <ele>143.8</ele>
        <time>2021-09-05T16:06:16Z</time>
      </trkpt>
      <trkpt lat="44.504" lon="1.3682">
        <ele>143.8</ele>
        <time>2021-09-05T16:06:17Z</time>
      </trkpt>
      <trkpt lat="44.50402" lon="1.36823">
        <ele>144</ele>
        <time>2021-09-05T16:06:18Z</time>
      </trkpt>
      <trkpt lat="44.50404" lon="1.36828">
        <ele>144.2</ele>
        <time>2021-09-05T16:06:20Z</time>
      </trkpt>
      <trkpt lat="44.50405" lon="1.36832">
        <ele>144.3</ele>
        <time>2021-09-05T16:06:21Z</time>
      </trkpt>
      <trkpt lat="44.50406" lon="1.36833">
        <ele>144.4</ele>
        <time>2021-09-05T16:06:22Z</time>
      </trkpt>
      <trkpt lat="44.50409" lon="1.36839">
        <ele>144.5</ele>
        <time>2021-09-05T16:06:24Z</time>
      </trkpt>
      <trkpt lat="44.5041" lon="1.36842">
        <ele>144.6</ele>
        <time>2021-09-05T16:06:25Z</time>
      </trkpt>
      <trkpt lat="44.50411" lon="1.36845">
        <ele>144.7</ele>
        <time>2021-09-05T16:06:26Z</time>
      </trkpt>
      <trkpt lat="44.50413" lon="1.36848">
        <ele>144.8</ele>
        <time>2021-09-05T16:06:27Z</time>
      </trkpt>
      <trkpt lat="44.50417" lon="1.36853">
        <ele>144.9</ele>
        <time>2021-09-05T16:06:29Z</time>
      </trkpt>
      <trkpt lat="44.50419" lon="1.36856">
        <ele>145</ele>
        <time>2021-09-05T16:06:30Z</time>
      </trkpt>
      <trkpt lat="44.5042" lon="1.36858">
        <ele>145</ele>
        <time>2021-09-05T16:06:31Z</time>
      </trkpt>
      <trkpt lat="44.50424" lon="1.36863">
        <ele>145.1</ele>
        <time>2021-09-05T16:06:33Z</time>
      </trkpt>
      <trkpt lat="44.50426" lon="1.36866">
        <ele>145.1</ele>
        <time>2021-09-05T16:06:34Z</time>
      </trkpt>
      <trkpt lat="44.50431" lon="1.3687">
        <ele>145.1</ele>
        <time>2021-09-05T16:06:37Z</time>
      </trkpt>
      <trkpt lat="44.50432" lon="1.36874">
        <ele>145.2</ele>
        <time>2021-09-05T16:06:38Z</time>
      </trkpt>
      <trkpt lat="44.50435" lon="1.36877">
        <ele>145.2</ele>
        <time>2021-09-05T16:06:39Z</time>
      </trkpt>
      <trkpt lat="44.50438" lon="1.36881">
        <ele>145.2</ele>
        <time>2021-09-05T16:06:40Z</time>
      </trkpt>
      <trkpt lat="44.50441" lon="1.36885">
        <ele>145.2</ele>
        <time>2021-09-05T16:06:42Z</time>
      </trkpt>
      <trkpt lat="44.50446" lon="1.3689">
        <ele>145.3</ele>
        <time>2021-09-05T16:06:43Z</time>
      </trkpt>
      <trkpt lat="44.50448" lon="1.36895">
        <ele>145.3</ele>
        <time>2021-09-05T16:06:45Z</time>
      </trkpt>
      <trkpt lat="44.50452" lon="1.36899">
        <ele>145.3</ele>
        <time>2021-09-05T16:06:46Z</time>
      </trkpt>
      <trkpt lat="44.50455" lon="1.36902">
        <ele>145.3</ele>
        <time>2021-09-05T16:06:47Z</time>
      </trkpt>
      <trkpt lat="44.50457" lon="1.36906">
        <ele>145.4</ele>
        <time>2021-09-05T16:06:49Z</time>
      </trkpt>
      <trkpt lat="44.50459" lon="1.36909">
        <ele>145.4</ele>
        <time>2021-09-05T16:06:50Z</time>
      </trkpt>
      <trkpt lat="44.50463" lon="1.36914">
        <ele>145.5</ele>
        <time>2021-09-05T16:06:51Z</time>
      </trkpt>
      <trkpt lat="44.50467" lon="1.36917">
        <ele>145.5</ele>
        <time>2021-09-05T16:06:52Z</time>
      </trkpt>
      <trkpt lat="44.50472" lon="1.36921">
        <ele>145.6</ele>
        <time>2021-09-05T16:06:54Z</time>
      </trkpt>
      <trkpt lat="44.50475" lon="1.36925">
        <ele>145.6</ele>
        <time>2021-09-05T16:06:55Z</time>
      </trkpt>
      <trkpt lat="44.50479" lon="1.36929">
        <ele>145.6</ele>
        <time>2021-09-05T16:06:56Z</time>
      </trkpt>
      <trkpt lat="44.50484" lon="1.36934">
        <ele>145.7</ele>
        <time>2021-09-05T16:06:57Z</time>
      </trkpt>
      <trkpt lat="44.50489" lon="1.36938">
        <ele>145.7</ele>
        <time>2021-09-05T16:06:59Z</time>
      </trkpt>
      <trkpt lat="44.50491" lon="1.36942">
        <ele>145.7</ele>
        <time>2021-09-05T16:07:00Z</time>
      </trkpt>
      <trkpt lat="44.50496" lon="1.36947">
        <ele>145.7</ele>
        <time>2021-09-05T16:07:01Z</time>
      </trkpt>
      <trkpt lat="44.505" lon="1.3695">
        <ele>145.7</ele>
        <time>2021-09-05T16:07:03Z</time>
      </trkpt>
      <trkpt lat="44.50504" lon="1.36955">
        <ele>145.7</ele>
        <time>2021-09-05T16:07:04Z</time>
      </trkpt>
      <trkpt lat="44.50507" lon="1.36958">
        <ele>145.8</ele>
        <time>2021-09-05T16:07:05Z</time>
      </trkpt>
      <trkpt lat="44.5051" lon="1.36962">
        <ele>145.8</ele>
        <time>2021-09-05T16:07:07Z</time>
      </trkpt>
      <trkpt lat="44.50514" lon="1.36966">
        <ele>145.8</ele>
        <time>2021-09-05T16:07:08Z</time>
      </trkpt>
      <trkpt lat="44.50517" lon="1.36969">
        <ele>145.8</ele>
        <time>2021-09-05T16:07:10Z</time>
      </trkpt>
      <trkpt lat="44.50521" lon="1.36971">
        <ele>145.8</ele>
        <time>2021-09-05T16:07:11Z</time>
      </trkpt>
      <trkpt lat="44.50526" lon="1.36976">
        <ele>145.9</ele>
        <time>2021-09-05T16:07:12Z</time>
      </trkpt>
      <trkpt lat="44.50529" lon="1.36978">
        <ele>145.9</ele>
        <time>2021-09-05T16:07:13Z</time>
      </trkpt>
      <trkpt lat="44.50535" lon="1.36981">
        <ele>146</ele>
        <time>2021-09-05T16:07:15Z</time>
      </trkpt>
      <trkpt lat="44.50538" lon="1.36982">
        <ele>146</ele>
        <time>2021-09-05T16:07:16Z</time>
      </trkpt>
      <trkpt lat="44.50541" lon="1.36984">
        <ele>146</ele>
        <time>2021-09-05T16:07:18Z</time>
      </trkpt>
      <trkpt lat="44.50544" lon="1.36986">
        <ele>146.1</ele>
        <time>2021-09-05T16:07:19Z</time>
      </trkpt>
      <trkpt lat="44.50549" lon="1.36989">
        <ele>146.2</ele>
        <time>2021-09-05T16:07:20Z</time>
      </trkpt>
      <trkpt lat="44.50552" lon="1.3699">
        <ele>146.2</ele>
        <time>2021-09-05T16:07:21Z</time>
      </trkpt>
      <trkpt lat="44.50555" lon="1.36992">
        <ele>146.3</ele>
        <time>2021-09-05T16:07:23Z</time>
      </trkpt>
      <trkpt lat="44.50558" lon="1.36994">
        <ele>146.3</ele>
        <time>2021-09-05T16:07:25Z</time>
      </trkpt>
      <trkpt lat="44.50562" lon="1.36997">
        <ele>146.4</ele>
        <time>2021-09-05T16:07:26Z</time>
      </trkpt>
      <trkpt lat="44.50566" lon="1.36999">
        <ele>146.5</ele>
        <time>2021-09-05T16:07:27Z</time>
      </trkpt>
      <trkpt lat="44.50569" lon="1.37001">
        <ele>146.5</ele>
        <time>2021-09-05T16:07:28Z</time>
      </trkpt>
      <trkpt lat="44.50574" lon="1.37002">
        <ele>146.6</ele>
        <time>2021-09-05T16:07:31Z</time>
      </trkpt>
      <trkpt lat="44.50578" lon="1.37005">
        <ele>146.7</ele>
        <time>2021-09-05T16:07:32Z</time>
      </trkpt>
      <trkpt lat="44.50581" lon="1.37007">
        <ele>146.8</ele>
        <time>2021-09-05T16:07:33Z</time>
      </trkpt>
      <trkpt lat="44.50585" lon="1.3701">
        <ele>146.8</ele>
        <time>2021-09-05T16:07:34Z</time>
      </trkpt>
      <trkpt lat="44.50588" lon="1.37012">
        <ele>146.9</ele>
        <time>2021-09-05T16:07:36Z</time>
      </trkpt>
      <trkpt lat="44.50589" lon="1.37012">
        <ele>146.9</ele>
        <time>2021-09-05T16:07:37Z</time>
      </trkpt>
      <trkpt lat="44.50593" lon="1.37014">
        <ele>147</ele>
        <time>2021-09-05T16:07:38Z</time>
      </trkpt>
      <trkpt lat="44.50597" lon="1.37016">
        <ele>147.1</ele>
        <time>2021-09-05T16:07:40Z</time>
      </trkpt>
      <trkpt lat="44.50602" lon="1.37019">
        <ele>147.2</ele>
        <time>2021-09-05T16:07:41Z</time>
      </trkpt>
      <trkpt lat="44.50605" lon="1.37022">
        <ele>147.3</ele>
        <time>2021-09-05T16:07:43Z</time>
      </trkpt>
      <trkpt lat="44.50609" lon="1.37024">
        <ele>147.3</ele>
        <time>2021-09-05T16:07:44Z</time>
      </trkpt>
      <trkpt lat="44.50611" lon="1.37025">
        <ele>147.4</ele>
        <time>2021-09-05T16:07:45Z</time>
      </trkpt>
      <trkpt lat="44.50614" lon="1.37027">
        <ele>147.4</ele>
        <time>2021-09-05T16:07:46Z</time>
      </trkpt>
      <trkpt lat="44.50617" lon="1.37029">
        <ele>147.4</ele>
        <time>2021-09-05T16:07:47Z</time>
      </trkpt>
      <trkpt lat="44.50622" lon="1.37032">
        <ele>147.5</ele>
        <time>2021-09-05T16:07:49Z</time>
      </trkpt>
      <trkpt lat="44.50625" lon="1.37035">
        <ele>147.6</ele>
        <time>2021-09-05T16:07:51Z</time>
      </trkpt>
      <trkpt lat="44.50632" lon="1.37039">
        <ele>147.7</ele>
        <time>2021-09-05T16:07:53Z</time>
      </trkpt>
      <trkpt lat="44.50634" lon="1.37042">
        <ele>147.7</ele>
        <time>2021-09-05T16:07:54Z</time>
      </trkpt>
      <trkpt lat="44.50637" lon="1.37046">
        <ele>147.8</ele>
        <time>2021-09-05T16:07:55Z</time>
      </trkpt>
      <trkpt lat="44.5064" lon="1.37055">
        <ele>147.9</ele>
        <time>2021-09-05T16:07:57Z</time>
      </trkpt>
      <trkpt lat="44.50641" lon="1.37062">
        <ele>147.9</ele>
        <time>2021-09-05T16:07:59Z</time>
      </trkpt>
      <trkpt lat="44.50639" lon="1.37069">
        <ele>147.9</ele>
        <time>2021-09-05T16:08:00Z</time>
      </trkpt>
      <trkpt lat="44.50636" lon="1.37075">
        <ele>147.9</ele>
        <time>2021-09-05T16:08:01Z</time>
      </trkpt>
      <trkpt lat="44.50632" lon="1.37081">
        <ele>147.9</ele>
        <time>2021-09-05T16:08:03Z</time>
      </trkpt>
      <trkpt lat="44.5063" lon="1.37087">
        <ele>147.9</ele>
        <time>2021-09-05T16:08:05Z</time>
      </trkpt>
      <trkpt lat="44.50628" lon="1.37093">
        <ele>147.9</ele>
        <time>2021-09-05T16:08:06Z</time>
      </trkpt>
      <trkpt lat="44.50627" lon="1.37098">
        <ele>147.9</ele>
        <time>2021-09-05T16:08:07Z</time>
      </trkpt>
      <trkpt lat="44.50624" lon="1.37103">
        <ele>147.9</ele>
        <time>2021-09-05T16:08:09Z</time>
      </trkpt>
      <trkpt lat="44.50622" lon="1.37108">
        <ele>147.9</ele>
        <time>2021-09-05T16:08:10Z</time>
      </trkpt>
      <trkpt lat="44.5062" lon="1.37114">
        <ele>147.9</ele>
        <time>2021-09-05T16:08:12Z</time>
      </trkpt>
      <trkpt lat="44.50617" lon="1.3712">
        <ele>147.9</ele>
        <time>2021-09-05T16:08:13Z</time>
      </trkpt>
      <trkpt lat="44.50615" lon="1.37125">
        <ele>147.9</ele>
        <time>2021-09-05T16:08:15Z</time>
      </trkpt>
      <trkpt lat="44.50613" lon="1.37129">
        <ele>147.9</ele>
        <time>2021-09-05T16:08:16Z</time>
      </trkpt>
      <trkpt lat="44.50611" lon="1.37134">
        <ele>147.9</ele>
        <time>2021-09-05T16:08:17Z</time>
      </trkpt>
      <trkpt lat="44.50609" lon="1.37141">
        <ele>147.9</ele>
        <time>2021-09-05T16:08:19Z</time>
      </trkpt>
      <trkpt lat="44.50607" lon="1.37144">
        <ele>147.9</ele>
        <time>2021-09-05T16:08:20Z</time>
      </trkpt>
      <trkpt lat="44.50605" lon="1.37148">
        <ele>147.9</ele>
        <time>2021-09-05T16:08:22Z</time>
      </trkpt>
      <trkpt lat="44.50604" lon="1.37154">
        <ele>147.9</ele>
        <time>2021-09-05T16:08:23Z</time>
      </trkpt>
      <trkpt lat="44.50602" lon="1.37159">
        <ele>147.9</ele>
        <time>2021-09-05T16:08:25Z</time>
      </trkpt>
      <trkpt lat="44.50598" lon="1.37166">
        <ele>148</ele>
        <time>2021-09-05T16:08:27Z</time>
      </trkpt>
      <trkpt lat="44.50596" lon="1.37172">
        <ele>148</ele>
        <time>2021-09-05T16:08:28Z</time>
      </trkpt>
      <trkpt lat="44.50594" lon="1.37176">
        <ele>148</ele>
        <time>2021-09-05T16:08:30Z</time>
      </trkpt>
      <trkpt lat="44.50592" lon="1.37182">
        <ele>148</ele>
        <time>2021-09-05T16:08:31Z</time>
      </trkpt>
      <trkpt lat="44.5059" lon="1.37187">
        <ele>147.9</ele>
        <time>2021-09-05T16:08:32Z</time>
      </trkpt>
      <trkpt lat="44.50589" lon="1.37192">
        <ele>147.9</ele>
        <time>2021-09-05T16:08:33Z</time>
      </trkpt>
      <trkpt lat="44.50586" lon="1.37196">
        <ele>147.9</ele>
        <time>2021-09-05T16:08:35Z</time>
      </trkpt>
      <trkpt lat="44.50585" lon="1.372">
        <ele>147.8</ele>
        <time>2021-09-05T16:08:36Z</time>
      </trkpt>
      <trkpt lat="44.50582" lon="1.37206">
        <ele>147.8</ele>
        <time>2021-09-05T16:08:37Z</time>
      </trkpt>
      <trkpt lat="44.5058" lon="1.37211">
        <ele>147.7</ele>
        <time>2021-09-05T16:08:38Z</time>
      </trkpt>
      <trkpt lat="44.50578" lon="1.37215">
        <ele>147.7</ele>
        <time>2021-09-05T16:08:40Z</time>
      </trkpt>
      <trkpt lat="44.50575" lon="1.37222">
        <ele>147.6</ele>
        <time>2021-09-05T16:08:41Z</time>
      </trkpt>
      <trkpt lat="44.50574" lon="1.37227">
        <ele>147.6</ele>
        <time>2021-09-05T16:08:43Z</time>
      </trkpt>
      <trkpt lat="44.50571" lon="1.37233">
        <ele>147.5</ele>
        <time>2021-09-05T16:08:44Z</time>
      </trkpt>
      <trkpt lat="44.50569" lon="1.37238">
        <ele>147.5</ele>
        <time>2021-09-05T16:08:45Z</time>
      </trkpt>
      <trkpt lat="44.50567" lon="1.37242">
        <ele>147.4</ele>
        <time>2021-09-05T16:08:46Z</time>
      </trkpt>
      <trkpt lat="44.50566" lon="1.37247">
        <ele>147.3</ele>
        <time>2021-09-05T16:08:47Z</time>
      </trkpt>
      <trkpt lat="44.50564" lon="1.37252">
        <ele>147.2</ele>
        <time>2021-09-05T16:08:48Z</time>
      </trkpt>
      <trkpt lat="44.50562" lon="1.37256">
        <ele>147.1</ele>
        <time>2021-09-05T16:08:49Z</time>
      </trkpt>
      <trkpt lat="44.5056" lon="1.37261">
        <ele>146.9</ele>
        <time>2021-09-05T16:08:50Z</time>
      </trkpt>
      <trkpt lat="44.50557" lon="1.37269">
        <ele>146.6</ele>
        <time>2021-09-05T16:08:52Z</time>
      </trkpt>
      <trkpt lat="44.50555" lon="1.37274">
        <ele>146.4</ele>
        <time>2021-09-05T16:08:53Z</time>
      </trkpt>
      <trkpt lat="44.50552" lon="1.37279">
        <ele>146.3</ele>
        <time>2021-09-05T16:08:54Z</time>
      </trkpt>
      <trkpt lat="44.5055" lon="1.37286">
        <ele>146</ele>
        <time>2021-09-05T16:08:56Z</time>
      </trkpt>
      <trkpt lat="44.50545" lon="1.37299">
        <ele>145.5</ele>
        <time>2021-09-05T16:08:57Z</time>
      </trkpt>
      <trkpt lat="44.5054" lon="1.37312">
        <ele>144.8</ele>
        <time>2021-09-05T16:08:59Z</time>
      </trkpt>
      <trkpt lat="44.50537" lon="1.37318">
        <ele>144.5</ele>
        <time>2021-09-05T16:09:01Z</time>
      </trkpt>
      <trkpt lat="44.50534" lon="1.37326">
        <ele>144.1</ele>
        <time>2021-09-05T16:09:02Z</time>
      </trkpt>
      <trkpt lat="44.50525" lon="1.37349">
        <ele>142.7</ele>
        <time>2021-09-05T16:09:04Z</time>
      </trkpt>
      <trkpt lat="44.50519" lon="1.37366">
        <ele>141.7</ele>
        <time>2021-09-05T16:09:07Z</time>
      </trkpt>
      <trkpt lat="44.50512" lon="1.37384">
        <ele>140.6</ele>
        <time>2021-09-05T16:09:08Z</time>
      </trkpt>
      <trkpt lat="44.50506" lon="1.374">
        <ele>139.8</ele>
        <time>2021-09-05T16:09:10Z</time>
      </trkpt>
      <trkpt lat="44.50504" lon="1.37405">
        <ele>139.5</ele>
        <time>2021-09-05T16:09:12Z</time>
      </trkpt>
      <trkpt lat="44.50502" lon="1.3741">
        <ele>139.2</ele>
        <time>2021-09-05T16:09:13Z</time>
      </trkpt>
      <trkpt lat="44.50501" lon="1.37411">
        <ele>138.7</ele>
        <time>2021-09-05T16:09:15Z</time>
      </trkpt>
      <trkpt lat="44.50501" lon="1.37412">
        <ele>138.7</ele>
        <time>2021-09-05T16:09:16Z</time>
      </trkpt>
      <trkpt lat="44.50501" lon="1.37415">
        <ele>138.6</ele>
        <time>2021-09-05T16:09:19Z</time>
      </trkpt>
      <trkpt lat="44.50505" lon="1.37419">
        <ele>138.3</ele>
        <time>2021-09-05T16:09:20Z</time>
      </trkpt>
      <trkpt lat="44.50508" lon="1.37422">
        <ele>138.1</ele>
        <time>2021-09-05T16:09:22Z</time>
      </trkpt>
      <trkpt lat="44.50513" lon="1.37425">
        <ele>137.8</ele>
        <time>2021-09-05T16:09:23Z</time>
      </trkpt>
      <trkpt lat="44.50518" lon="1.37428">
        <ele>137.5</ele>
        <time>2021-09-05T16:09:24Z</time>
      </trkpt>
      <trkpt lat="44.50522" lon="1.3743">
        <ele>137.3</ele>
        <time>2021-09-05T16:09:25Z</time>
      </trkpt>
      <trkpt lat="44.50534" lon="1.37433">
        <ele>136.7</ele>
        <time>2021-09-05T16:09:28Z</time>
      </trkpt>
      <trkpt lat="44.50545" lon="1.37436">
        <ele>136.2</ele>
        <time>2021-09-05T16:09:30Z</time>
      </trkpt>
      <trkpt lat="44.50556" lon="1.37439">
        <ele>135.7</ele>
        <time>2021-09-05T16:09:31Z</time>
      </trkpt>
      <trkpt lat="44.50562" lon="1.37441">
        <ele>135.4</ele>
        <time>2021-09-05T16:09:33Z</time>
      </trkpt>
      <trkpt lat="44.50573" lon="1.37446">
        <ele>135.1</ele>
        <time>2021-09-05T16:09:34Z</time>
      </trkpt>
      <trkpt lat="44.50578" lon="1.37449">
        <ele>134.9</ele>
        <time>2021-09-05T16:09:35Z</time>
      </trkpt>
      <trkpt lat="44.50584" lon="1.37453">
        <ele>134.8</ele>
        <time>2021-09-05T16:09:37Z</time>
      </trkpt>
      <trkpt lat="44.50589" lon="1.37457">
        <ele>134.7</ele>
        <time>2021-09-05T16:09:38Z</time>
      </trkpt>
      <trkpt lat="44.50599" lon="1.37464">
        <ele>134.5</ele>
        <time>2021-09-05T16:09:39Z</time>
      </trkpt>
      <trkpt lat="44.50609" lon="1.37471">
        <ele>134.3</ele>
        <time>2021-09-05T16:09:41Z</time>
      </trkpt>
      <trkpt lat="44.50614" lon="1.37474">
        <ele>134.2</ele>
        <time>2021-09-05T16:09:43Z</time>
      </trkpt>
      <trkpt lat="44.50625" lon="1.37481">
        <ele>134.1</ele>
        <time>2021-09-05T16:09:45Z</time>
      </trkpt>
      <trkpt lat="44.50636" lon="1.37488">
        <ele>134</ele>
        <time>2021-09-05T16:09:47Z</time>
      </trkpt>
      <trkpt lat="44.50641" lon="1.37492">
        <ele>133.9</ele>
        <time>2021-09-05T16:09:48Z</time>
      </trkpt>
      <trkpt lat="44.50652" lon="1.37498">
        <ele>133.9</ele>
        <time>2021-09-05T16:09:50Z</time>
      </trkpt>
      <trkpt lat="44.50662" lon="1.37505">
        <ele>133.8</ele>
        <time>2021-09-05T16:09:51Z</time>
      </trkpt>
      <trkpt lat="44.50667" lon="1.37509">
        <ele>133.8</ele>
        <time>2021-09-05T16:09:53Z</time>
      </trkpt>
      <trkpt lat="44.5068" lon="1.3752">
        <ele>133.8</ele>
        <time>2021-09-05T16:09:55Z</time>
      </trkpt>
      <trkpt lat="44.50687" lon="1.37529">
        <ele>133.7</ele>
        <time>2021-09-05T16:09:57Z</time>
      </trkpt>
      <trkpt lat="44.50691" lon="1.37534">
        <ele>133.7</ele>
        <time>2021-09-05T16:09:58Z</time>
      </trkpt>
      <trkpt lat="44.50699" lon="1.37543">
        <ele>133.6</ele>
        <time>2021-09-05T16:10:01Z</time>
      </trkpt>
      <trkpt lat="44.50702" lon="1.37548">
        <ele>133.6</ele>
        <time>2021-09-05T16:10:02Z</time>
      </trkpt>
      <trkpt lat="44.50709" lon="1.37557">
        <ele>133.5</ele>
        <time>2021-09-05T16:10:03Z</time>
      </trkpt>
      <trkpt lat="44.50712" lon="1.37561">
        <ele>133.4</ele>
        <time>2021-09-05T16:10:04Z</time>
      </trkpt>
      <trkpt lat="44.50719" lon="1.37571">
        <ele>133.3</ele>
        <time>2021-09-05T16:10:07Z</time>
      </trkpt>
      <trkpt lat="44.50723" lon="1.37575">
        <ele>133.3</ele>
        <time>2021-09-05T16:10:08Z</time>
      </trkpt>
      <trkpt lat="44.5073" lon="1.37585">
        <ele>133.2</ele>
        <time>2021-09-05T16:10:09Z</time>
      </trkpt>
      <trkpt lat="44.50734" lon="1.37589">
        <ele>133.2</ele>
        <time>2021-09-05T16:10:10Z</time>
      </trkpt>
      <trkpt lat="44.50741" lon="1.37598">
        <ele>133.1</ele>
        <time>2021-09-05T16:10:13Z</time>
      </trkpt>
      <trkpt lat="44.50745" lon="1.37602">
        <ele>133.1</ele>
        <time>2021-09-05T16:10:14Z</time>
      </trkpt>
      <trkpt lat="44.50751" lon="1.3761">
        <ele>133.2</ele>
        <time>2021-09-05T16:10:16Z</time>
      </trkpt>
      <trkpt lat="44.50754" lon="1.37614">
        <ele>133.2</ele>
        <time>2021-09-05T16:10:17Z</time>
      </trkpt>
      <trkpt lat="44.5076" lon="1.37622">
        <ele>133.3</ele>
        <time>2021-09-05T16:10:19Z</time>
      </trkpt>
      <trkpt lat="44.50765" lon="1.37628">
        <ele>133.4</ele>
        <time>2021-09-05T16:10:20Z</time>
      </trkpt>
      <trkpt lat="44.50768" lon="1.37634">
        <ele>133.4</ele>
        <time>2021-09-05T16:10:21Z</time>
      </trkpt>
      <trkpt lat="44.5077" lon="1.37638">
        <ele>133.5</ele>
        <time>2021-09-05T16:10:22Z</time>
      </trkpt>
      <trkpt lat="44.50773" lon="1.37645">
        <ele>133.5</ele>
        <time>2021-09-05T16:10:24Z</time>
      </trkpt>
      <trkpt lat="44.50775" lon="1.37649">
        <ele>133.5</ele>
        <time>2021-09-05T16:10:25Z</time>
      </trkpt>
      <trkpt lat="44.50776" lon="1.37656">
        <ele>133.3</ele>
        <time>2021-09-05T16:10:27Z</time>
      </trkpt>
      <trkpt lat="44.50775" lon="1.37656">
        <ele>133.3</ele>
        <time>2021-09-05T16:10:28Z</time>
      </trkpt>
      <trkpt lat="44.50774" lon="1.37657">
        <ele>133.3</ele>
        <time>2021-09-05T16:10:30Z</time>
      </trkpt>
      <trkpt lat="44.50772" lon="1.37661">
        <ele>133.2</ele>
        <time>2021-09-05T16:10:32Z</time>
      </trkpt>
      <trkpt lat="44.50768" lon="1.37667">
        <ele>133.1</ele>
        <time>2021-09-05T16:10:33Z</time>
      </trkpt>
      <trkpt lat="44.50763" lon="1.37672">
        <ele>133</ele>
        <time>2021-09-05T16:10:35Z</time>
      </trkpt>
      <trkpt lat="44.50761" lon="1.37676">
        <ele>132.9</ele>
        <time>2021-09-05T16:10:37Z</time>
      </trkpt>
      <trkpt lat="44.5076" lon="1.37682">
        <ele>132.8</ele>
        <time>2021-09-05T16:10:38Z</time>
      </trkpt>
      <trkpt lat="44.5076" lon="1.37691">
        <ele>132.8</ele>
        <time>2021-09-05T16:10:40Z</time>
      </trkpt>
      <trkpt lat="44.50759" lon="1.37697">
        <ele>132.7</ele>
        <time>2021-09-05T16:10:41Z</time>
      </trkpt>
      <trkpt lat="44.50756" lon="1.377">
        <ele>132.7</ele>
        <time>2021-09-05T16:10:42Z</time>
      </trkpt>
      <trkpt lat="44.50752" lon="1.37704">
        <ele>132.6</ele>
        <time>2021-09-05T16:10:43Z</time>
      </trkpt>
      <trkpt lat="44.50747" lon="1.37711">
        <ele>132.5</ele>
        <time>2021-09-05T16:10:45Z</time>
      </trkpt>
      <trkpt lat="44.50744" lon="1.37715">
        <ele>132.5</ele>
        <time>2021-09-05T16:10:46Z</time>
      </trkpt>
      <trkpt lat="44.50741" lon="1.37719">
        <ele>132.5</ele>
        <time>2021-09-05T16:10:47Z</time>
      </trkpt>
      <trkpt lat="44.50736" lon="1.37724">
        <ele>132.5</ele>
        <time>2021-09-05T16:10:48Z</time>
      </trkpt>
      <trkpt lat="44.50733" lon="1.37729">
        <ele>132.5</ele>
        <time>2021-09-05T16:10:50Z</time>
      </trkpt>
      <trkpt lat="44.5073" lon="1.37736">
        <ele>132.5</ele>
        <time>2021-09-05T16:10:51Z</time>
      </trkpt>
      <trkpt lat="44.50726" lon="1.37741">
        <ele>132.5</ele>
        <time>2021-09-05T16:10:52Z</time>
      </trkpt>
      <trkpt lat="44.50722" lon="1.37748">
        <ele>132.5</ele>
        <time>2021-09-05T16:10:54Z</time>
      </trkpt>
      <trkpt lat="44.50717" lon="1.37753">
        <ele>132.6</ele>
        <time>2021-09-05T16:10:55Z</time>
      </trkpt>
      <trkpt lat="44.50712" lon="1.37759">
        <ele>132.7</ele>
        <time>2021-09-05T16:10:56Z</time>
      </trkpt>
      <trkpt lat="44.50706" lon="1.37768">
        <ele>132.8</ele>
        <time>2021-09-05T16:10:59Z</time>
      </trkpt>
      <trkpt lat="44.50703" lon="1.37773">
        <ele>133</ele>
        <time>2021-09-05T16:11:00Z</time>
      </trkpt>
      <trkpt lat="44.50698" lon="1.37778">
        <ele>133.1</ele>
        <time>2021-09-05T16:11:01Z</time>
      </trkpt>
      <trkpt lat="44.50694" lon="1.37785">
        <ele>133.1</ele>
        <time>2021-09-05T16:11:02Z</time>
      </trkpt>
      <trkpt lat="44.50691" lon="1.37789">
        <ele>133.2</ele>
        <time>2021-09-05T16:11:03Z</time>
      </trkpt>
      <trkpt lat="44.50687" lon="1.37795">
        <ele>133.2</ele>
        <time>2021-09-05T16:11:05Z</time>
      </trkpt>
      <trkpt lat="44.50683" lon="1.37801">
        <ele>133.3</ele>
        <time>2021-09-05T16:11:06Z</time>
      </trkpt>
      <trkpt lat="44.50679" lon="1.37804">
        <ele>133.3</ele>
        <time>2021-09-05T16:11:07Z</time>
      </trkpt>
      <trkpt lat="44.50676" lon="1.37809">
        <ele>133.4</ele>
        <time>2021-09-05T16:11:08Z</time>
      </trkpt>
      <trkpt lat="44.5067" lon="1.37818">
        <ele>133.6</ele>
        <time>2021-09-05T16:11:10Z</time>
      </trkpt>
      <trkpt lat="44.50667" lon="1.37822">
        <ele>133.7</ele>
        <time>2021-09-05T16:11:12Z</time>
      </trkpt>
      <trkpt lat="44.50662" lon="1.37829">
        <ele>133.8</ele>
        <time>2021-09-05T16:11:13Z</time>
      </trkpt>
      <trkpt lat="44.50658" lon="1.37835">
        <ele>134</ele>
        <time>2021-09-05T16:11:15Z</time>
      </trkpt>
      <trkpt lat="44.50655" lon="1.37839">
        <ele>134.1</ele>
        <time>2021-09-05T16:11:16Z</time>
      </trkpt>
      <trkpt lat="44.50652" lon="1.37844">
        <ele>134.2</ele>
        <time>2021-09-05T16:11:17Z</time>
      </trkpt>
      <trkpt lat="44.50649" lon="1.37848">
        <ele>134.3</ele>
        <time>2021-09-05T16:11:18Z</time>
      </trkpt>
      <trkpt lat="44.50646" lon="1.37852">
        <ele>134.4</ele>
        <time>2021-09-05T16:11:20Z</time>
      </trkpt>
      <trkpt lat="44.50643" lon="1.37857">
        <ele>134.5</ele>
        <time>2021-09-05T16:11:21Z</time>
      </trkpt>
      <trkpt lat="44.50639" lon="1.37862">
        <ele>134.6</ele>
        <time>2021-09-05T16:11:23Z</time>
      </trkpt>
      <trkpt lat="44.50633" lon="1.37865">
        <ele>134.8</ele>
        <time>2021-09-05T16:11:24Z</time>
      </trkpt>
      <trkpt lat="44.50628" lon="1.37868">
        <ele>135</ele>
        <time>2021-09-05T16:11:26Z</time>
      </trkpt>
      <trkpt lat="44.50623" lon="1.37873">
        <ele>135.2</ele>
        <time>2021-09-05T16:11:28Z</time>
      </trkpt>
      <trkpt lat="44.5062" lon="1.37877">
        <ele>135.3</ele>
        <time>2021-09-05T16:11:29Z</time>
      </trkpt>
      <trkpt lat="44.50618" lon="1.37881">
        <ele>135.4</ele>
        <time>2021-09-05T16:11:30Z</time>
      </trkpt>
      <trkpt lat="44.50613" lon="1.37889">
        <ele>135.7</ele>
        <time>2021-09-05T16:11:32Z</time>
      </trkpt>
      <trkpt lat="44.5061" lon="1.37892">
        <ele>135.8</ele>
        <time>2021-09-05T16:11:33Z</time>
      </trkpt>
      <trkpt lat="44.50607" lon="1.37896">
        <ele>135.9</ele>
        <time>2021-09-05T16:11:34Z</time>
      </trkpt>
      <trkpt lat="44.50604" lon="1.37903">
        <ele>136.1</ele>
        <time>2021-09-05T16:11:35Z</time>
      </trkpt>
      <trkpt lat="44.50602" lon="1.37907">
        <ele>136.2</ele>
        <time>2021-09-05T16:11:37Z</time>
      </trkpt>
      <trkpt lat="44.506" lon="1.37912">
        <ele>136.3</ele>
        <time>2021-09-05T16:11:38Z</time>
      </trkpt>
      <trkpt lat="44.50598" lon="1.37916">
        <ele>136.4</ele>
        <time>2021-09-05T16:11:39Z</time>
      </trkpt>
      <trkpt lat="44.50595" lon="1.37924">
        <ele>136.6</ele>
        <time>2021-09-05T16:11:40Z</time>
      </trkpt>
      <trkpt lat="44.5059" lon="1.37927">
        <ele>136.8</ele>
        <time>2021-09-05T16:11:42Z</time>
      </trkpt>
      <trkpt lat="44.50587" lon="1.37928">
        <ele>136.8</ele>
        <time>2021-09-05T16:11:43Z</time>
      </trkpt>
      <trkpt lat="44.50583" lon="1.37932">
        <ele>137.1</ele>
        <time>2021-09-05T16:11:44Z</time>
      </trkpt>
      <trkpt lat="44.50579" lon="1.37936">
        <ele>137.2</ele>
        <time>2021-09-05T16:11:46Z</time>
      </trkpt>
      <trkpt lat="44.50575" lon="1.3794">
        <ele>137.4</ele>
        <time>2021-09-05T16:11:47Z</time>
      </trkpt>
      <trkpt lat="44.50573" lon="1.37942">
        <ele>137.5</ele>
        <time>2021-09-05T16:11:48Z</time>
      </trkpt>
      <trkpt lat="44.5057" lon="1.37944">
        <ele>137.6</ele>
        <time>2021-09-05T16:11:49Z</time>
      </trkpt>
      <trkpt lat="44.50568" lon="1.37946">
        <ele>137.6</ele>
        <time>2021-09-05T16:11:50Z</time>
      </trkpt>
      <trkpt lat="44.50568" lon="1.3795">
        <ele>137.8</ele>
        <time>2021-09-05T16:11:52Z</time>
      </trkpt>
      <trkpt lat="44.50565" lon="1.37953">
        <ele>137.9</ele>
        <time>2021-09-05T16:11:53Z</time>
      </trkpt>
      <trkpt lat="44.50564" lon="1.37955">
        <ele>138</ele>
        <time>2021-09-05T16:11:54Z</time>
      </trkpt>
      <trkpt lat="44.50563" lon="1.37957">
        <ele>138</ele>
        <time>2021-09-05T16:11:55Z</time>
      </trkpt>
      <trkpt lat="44.5056" lon="1.3796">
        <ele>138.2</ele>
        <time>2021-09-05T16:11:57Z</time>
      </trkpt>
      <trkpt lat="44.50558" lon="1.37966">
        <ele>138.4</ele>
        <time>2021-09-05T16:11:59Z</time>
      </trkpt>
      <trkpt lat="44.50556" lon="1.37967">
        <ele>138.5</ele>
        <time>2021-09-05T16:12:00Z</time>
      </trkpt>
      <trkpt lat="44.50554" lon="1.3797">
        <ele>138.6</ele>
        <time>2021-09-05T16:12:01Z</time>
      </trkpt>
      <trkpt lat="44.50552" lon="1.37974">
        <ele>138.8</ele>
        <time>2021-09-05T16:12:02Z</time>
      </trkpt>
      <trkpt lat="44.50551" lon="1.37975">
        <ele>138.8</ele>
        <time>2021-09-05T16:12:03Z</time>
      </trkpt>
      <trkpt lat="44.50549" lon="1.37977">
        <ele>138.9</ele>
        <time>2021-09-05T16:12:05Z</time>
      </trkpt>
      <trkpt lat="44.50548" lon="1.37978">
        <ele>139</ele>
        <time>2021-09-05T16:12:06Z</time>
      </trkpt>
      <trkpt lat="44.50546" lon="1.37982">
        <ele>139.1</ele>
        <time>2021-09-05T16:12:07Z</time>
      </trkpt>
      <trkpt lat="44.50545" lon="1.37983">
        <ele>139.2</ele>
        <time>2021-09-05T16:12:08Z</time>
      </trkpt>
      <trkpt lat="44.50541" lon="1.37988">
        <ele>139.4</ele>
        <time>2021-09-05T16:12:10Z</time>
      </trkpt>
      <trkpt lat="44.5054" lon="1.3799">
        <ele>139.5</ele>
        <time>2021-09-05T16:12:12Z</time>
      </trkpt>
      <trkpt lat="44.50539" lon="1.37993">
        <ele>139.6</ele>
        <time>2021-09-05T16:12:13Z</time>
      </trkpt>
      <trkpt lat="44.50538" lon="1.37995">
        <ele>139.7</ele>
        <time>2021-09-05T16:12:14Z</time>
      </trkpt>
      <trkpt lat="44.50535" lon="1.37998">
        <ele>139.8</ele>
        <time>2021-09-05T16:12:15Z</time>
      </trkpt>
      <trkpt lat="44.50533" lon="1.38001">
        <ele>139.9</ele>
        <time>2021-09-05T16:12:16Z</time>
      </trkpt>
      <trkpt lat="44.50532" lon="1.38004">
        <ele>140</ele>
        <time>2021-09-05T16:12:18Z</time>
      </trkpt>
      <trkpt lat="44.50528" lon="1.38007">
        <ele>140.2</ele>
        <time>2021-09-05T16:12:19Z</time>
      </trkpt>
      <trkpt lat="44.50527" lon="1.38008">
        <ele>140.3</ele>
        <time>2021-09-05T16:12:20Z</time>
      </trkpt>
      <trkpt lat="44.50525" lon="1.38011">
        <ele>140.4</ele>
        <time>2021-09-05T16:12:21Z</time>
      </trkpt>
      <trkpt lat="44.50523" lon="1.38014">
        <ele>140.5</ele>
        <time>2021-09-05T16:12:22Z</time>
      </trkpt>
      <trkpt lat="44.50522" lon="1.38016">
        <ele>140.5</ele>
        <time>2021-09-05T16:12:23Z</time>
      </trkpt>
      <trkpt lat="44.50519" lon="1.3802">
        <ele>140.7</ele>
        <time>2021-09-05T16:12:25Z</time>
      </trkpt>
      <trkpt lat="44.50516" lon="1.38024">
        <ele>140.8</ele>
        <time>2021-09-05T16:12:26Z</time>
      </trkpt>
      <trkpt lat="44.50515" lon="1.38026">
        <ele>140.9</ele>
        <time>2021-09-05T16:12:27Z</time>
      </trkpt>
      <trkpt lat="44.50513" lon="1.38029">
        <ele>140.9</ele>
        <time>2021-09-05T16:12:28Z</time>
      </trkpt>
      <trkpt lat="44.5051" lon="1.38033">
        <ele>141</ele>
        <time>2021-09-05T16:12:30Z</time>
      </trkpt>
      <trkpt lat="44.50508" lon="1.38036">
        <ele>141.1</ele>
        <time>2021-09-05T16:12:32Z</time>
      </trkpt>
      <trkpt lat="44.50505" lon="1.38041">
        <ele>141.1</ele>
        <time>2021-09-05T16:12:33Z</time>
      </trkpt>
      <trkpt lat="44.50503" lon="1.38044">
        <ele>141.1</ele>
        <time>2021-09-05T16:12:35Z</time>
      </trkpt>
      <trkpt lat="44.50499" lon="1.38049">
        <ele>141.2</ele>
        <time>2021-09-05T16:12:36Z</time>
      </trkpt>
      <trkpt lat="44.50497" lon="1.38052">
        <ele>141.2</ele>
        <time>2021-09-05T16:12:38Z</time>
      </trkpt>
      <trkpt lat="44.50493" lon="1.38054">
        <ele>141.1</ele>
        <time>2021-09-05T16:12:39Z</time>
      </trkpt>
      <trkpt lat="44.50489" lon="1.3806">
        <ele>141.1</ele>
        <time>2021-09-05T16:12:41Z</time>
      </trkpt>
      <trkpt lat="44.50488" lon="1.38063">
        <ele>141.1</ele>
        <time>2021-09-05T16:12:42Z</time>
      </trkpt>
      <trkpt lat="44.50486" lon="1.38067">
        <ele>141</ele>
        <time>2021-09-05T16:12:43Z</time>
      </trkpt>
      <trkpt lat="44.50482" lon="1.38073">
        <ele>140.9</ele>
        <time>2021-09-05T16:12:45Z</time>
      </trkpt>
      <trkpt lat="44.50479" lon="1.38078">
        <ele>140.8</ele>
        <time>2021-09-05T16:12:47Z</time>
      </trkpt>
      <trkpt lat="44.50474" lon="1.38082">
        <ele>140.6</ele>
        <time>2021-09-05T16:12:48Z</time>
      </trkpt>
      <trkpt lat="44.5047" lon="1.38089">
        <ele>140.4</ele>
        <time>2021-09-05T16:12:49Z</time>
      </trkpt>
      <trkpt lat="44.50467" lon="1.38092">
        <ele>140.3</ele>
        <time>2021-09-05T16:12:51Z</time>
      </trkpt>
      <trkpt lat="44.50465" lon="1.38097">
        <ele>140.1</ele>
        <time>2021-09-05T16:12:52Z</time>
      </trkpt>
      <trkpt lat="44.50461" lon="1.38102">
        <ele>139.8</ele>
        <time>2021-09-05T16:12:53Z</time>
      </trkpt>
      <trkpt lat="44.50456" lon="1.38107">
        <ele>139.5</ele>
        <time>2021-09-05T16:12:54Z</time>
      </trkpt>
      <trkpt lat="44.50452" lon="1.38111">
        <ele>139.3</ele>
        <time>2021-09-05T16:12:55Z</time>
      </trkpt>
      <trkpt lat="44.50445" lon="1.38121">
        <ele>138.9</ele>
        <time>2021-09-05T16:12:57Z</time>
      </trkpt>
      <trkpt lat="44.50442" lon="1.38126">
        <ele>138.7</ele>
        <time>2021-09-05T16:12:58Z</time>
      </trkpt>
      <trkpt lat="44.50438" lon="1.38131">
        <ele>138.5</ele>
        <time>2021-09-05T16:12:59Z</time>
      </trkpt>
      <trkpt lat="44.50431" lon="1.3814">
        <ele>138.2</ele>
        <time>2021-09-05T16:13:02Z</time>
      </trkpt>
      <trkpt lat="44.50423" lon="1.3815">
        <ele>137.9</ele>
        <time>2021-09-05T16:13:04Z</time>
      </trkpt>
      <trkpt lat="44.50413" lon="1.38157">
        <ele>137.6</ele>
        <time>2021-09-05T16:13:05Z</time>
      </trkpt>
      <trkpt lat="44.50403" lon="1.38166">
        <ele>137.4</ele>
        <time>2021-09-05T16:13:07Z</time>
      </trkpt>
      <trkpt lat="44.50392" lon="1.38174">
        <ele>137.2</ele>
        <time>2021-09-05T16:13:10Z</time>
      </trkpt>
      <trkpt lat="44.5038" lon="1.38183">
        <ele>136.9</ele>
        <time>2021-09-05T16:13:11Z</time>
      </trkpt>
      <trkpt lat="44.50367" lon="1.38191">
        <ele>136.6</ele>
        <time>2021-09-05T16:13:13Z</time>
      </trkpt>
      <trkpt lat="44.5036" lon="1.38195">
        <ele>136.6</ele>
        <time>2021-09-05T16:13:14Z</time>
      </trkpt>
      <trkpt lat="44.50346" lon="1.38203">
        <ele>136.6</ele>
        <time>2021-09-05T16:13:17Z</time>
      </trkpt>
      <trkpt lat="44.50333" lon="1.3821">
        <ele>136.9</ele>
        <time>2021-09-05T16:13:19Z</time>
      </trkpt>
      <trkpt lat="44.5032" lon="1.38217">
        <ele>137.4</ele>
        <time>2021-09-05T16:13:20Z</time>
      </trkpt>
      <trkpt lat="44.50314" lon="1.3822">
        <ele>137.7</ele>
        <time>2021-09-05T16:13:22Z</time>
      </trkpt>
      <trkpt lat="44.50302" lon="1.38226">
        <ele>138.2</ele>
        <time>2021-09-05T16:13:24Z</time>
      </trkpt>
      <trkpt lat="44.50289" lon="1.38233">
        <ele>138.9</ele>
        <time>2021-09-05T16:13:25Z</time>
      </trkpt>
      <trkpt lat="44.50277" lon="1.3824">
        <ele>139.6</ele>
        <time>2021-09-05T16:13:28Z</time>
      </trkpt>
      <trkpt lat="44.50264" lon="1.38247">
        <ele>140.2</ele>
        <time>2021-09-05T16:13:29Z</time>
      </trkpt>
      <trkpt lat="44.50252" lon="1.38253">
        <ele>140.8</ele>
        <time>2021-09-05T16:13:32Z</time>
      </trkpt>
      <trkpt lat="44.50241" lon="1.38261">
        <ele>141.4</ele>
        <time>2021-09-05T16:13:34Z</time>
      </trkpt>
      <trkpt lat="44.50235" lon="1.38264">
        <ele>141.7</ele>
        <time>2021-09-05T16:13:35Z</time>
      </trkpt>
      <trkpt lat="44.50223" lon="1.38269">
        <ele>142.2</ele>
        <time>2021-09-05T16:13:36Z</time>
      </trkpt>
      <trkpt lat="44.50212" lon="1.38275">
        <ele>142.7</ele>
        <time>2021-09-05T16:13:39Z</time>
      </trkpt>
      <trkpt lat="44.50202" lon="1.3828">
        <ele>143.1</ele>
        <time>2021-09-05T16:13:40Z</time>
      </trkpt>
      <trkpt lat="44.50196" lon="1.38283">
        <ele>143.3</ele>
        <time>2021-09-05T16:13:41Z</time>
      </trkpt>
      <trkpt lat="44.50186" lon="1.38288">
        <ele>143.5</ele>
        <time>2021-09-05T16:13:44Z</time>
      </trkpt>
      <trkpt lat="44.50181" lon="1.38291">
        <ele>143.6</ele>
        <time>2021-09-05T16:13:45Z</time>
      </trkpt>
      <trkpt lat="44.50164" lon="1.383">
        <ele>143.8</ele>
        <time>2021-09-05T16:13:47Z</time>
      </trkpt>
      <trkpt lat="44.50153" lon="1.38307">
        <ele>143.9</ele>
        <time>2021-09-05T16:13:49Z</time>
      </trkpt>
      <trkpt lat="44.50137" lon="1.38316">
        <ele>143.9</ele>
        <time>2021-09-05T16:13:52Z</time>
      </trkpt>
      <trkpt lat="44.50132" lon="1.38319">
        <ele>143.9</ele>
        <time>2021-09-05T16:13:54Z</time>
      </trkpt>
      <trkpt lat="44.5012" lon="1.38325">
        <ele>144</ele>
        <time>2021-09-05T16:13:56Z</time>
      </trkpt>
      <trkpt lat="44.50109" lon="1.38331">
        <ele>143.9</ele>
        <time>2021-09-05T16:13:57Z</time>
      </trkpt>
      <trkpt lat="44.50103" lon="1.38334">
        <ele>143.9</ele>
        <time>2021-09-05T16:13:58Z</time>
      </trkpt>
      <trkpt lat="44.50098" lon="1.38338">
        <ele>143.9</ele>
        <time>2021-09-05T16:14:00Z</time>
      </trkpt>
      <trkpt lat="44.50087" lon="1.38343">
        <ele>143.9</ele>
        <time>2021-09-05T16:14:02Z</time>
      </trkpt>
      <trkpt lat="44.50076" lon="1.38349">
        <ele>143.9</ele>
        <time>2021-09-05T16:14:03Z</time>
      </trkpt>
      <trkpt lat="44.50066" lon="1.38356">
        <ele>143.8</ele>
        <time>2021-09-05T16:14:06Z</time>
      </trkpt>
      <trkpt lat="44.50056" lon="1.38365">
        <ele>143.8</ele>
        <time>2021-09-05T16:14:08Z</time>
      </trkpt>
      <trkpt lat="44.50051" lon="1.38368">
        <ele>143.9</ele>
        <time>2021-09-05T16:14:09Z</time>
      </trkpt>
      <trkpt lat="44.5004" lon="1.38373">
        <ele>143.9</ele>
        <time>2021-09-05T16:14:10Z</time>
      </trkpt>
      <trkpt lat="44.50035" lon="1.38376">
        <ele>143.9</ele>
        <time>2021-09-05T16:14:12Z</time>
      </trkpt>
      <trkpt lat="44.50024" lon="1.38381">
        <ele>143.8</ele>
        <time>2021-09-05T16:14:14Z</time>
      </trkpt>
      <trkpt lat="44.50013" lon="1.38384">
        <ele>143.7</ele>
        <time>2021-09-05T16:14:16Z</time>
      </trkpt>
      <trkpt lat="44.50007" lon="1.38385">
        <ele>143.7</ele>
        <time>2021-09-05T16:14:17Z</time>
      </trkpt>
      <trkpt lat="44.49996" lon="1.38391">
        <ele>143.6</ele>
        <time>2021-09-05T16:14:18Z</time>
      </trkpt>
      <trkpt lat="44.49991" lon="1.38393">
        <ele>143.6</ele>
        <time>2021-09-05T16:14:20Z</time>
      </trkpt>
      <trkpt lat="44.49979" lon="1.38399">
        <ele>143.5</ele>
        <time>2021-09-05T16:14:21Z</time>
      </trkpt>
      <trkpt lat="44.49966" lon="1.38405">
        <ele>143.5</ele>
        <time>2021-09-05T16:14:23Z</time>
      </trkpt>
      <trkpt lat="44.4996" lon="1.38408">
        <ele>143.5</ele>
        <time>2021-09-05T16:14:25Z</time>
      </trkpt>
      <trkpt lat="44.49952" lon="1.38412">
        <ele>143.5</ele>
        <time>2021-09-05T16:14:26Z</time>
      </trkpt>
      <trkpt lat="44.49945" lon="1.38416">
        <ele>143.6</ele>
        <time>2021-09-05T16:14:27Z</time>
      </trkpt>
      <trkpt lat="44.4993" lon="1.38425">
        <ele>143.8</ele>
        <time>2021-09-05T16:14:28Z</time>
      </trkpt>
      <trkpt lat="44.49922" lon="1.38429">
        <ele>144</ele>
        <time>2021-09-05T16:14:30Z</time>
      </trkpt>
      <trkpt lat="44.49914" lon="1.38433">
        <ele>144.2</ele>
        <time>2021-09-05T16:14:31Z</time>
      </trkpt>
      <trkpt lat="44.49907" lon="1.38437">
        <ele>144.5</ele>
        <time>2021-09-05T16:14:32Z</time>
      </trkpt>
      <trkpt lat="44.499" lon="1.38441">
        <ele>144.8</ele>
        <time>2021-09-05T16:14:33Z</time>
      </trkpt>
      <trkpt lat="44.49887" lon="1.38448">
        <ele>145.3</ele>
        <time>2021-09-05T16:14:34Z</time>
      </trkpt>
      <trkpt lat="44.4988" lon="1.38451">
        <ele>145.6</ele>
        <time>2021-09-05T16:14:35Z</time>
      </trkpt>
      <trkpt lat="44.49874" lon="1.38455">
        <ele>145.9</ele>
        <time>2021-09-05T16:14:37Z</time>
      </trkpt>
      <trkpt lat="44.49862" lon="1.38461">
        <ele>146.5</ele>
        <time>2021-09-05T16:14:38Z</time>
      </trkpt>
      <trkpt lat="44.49852" lon="1.38467">
        <ele>147</ele>
        <time>2021-09-05T16:14:40Z</time>
      </trkpt>
      <trkpt lat="44.49847" lon="1.3847">
        <ele>147.3</ele>
        <time>2021-09-05T16:14:41Z</time>
      </trkpt>
      <trkpt lat="44.49842" lon="1.38472">
        <ele>147.5</ele>
        <time>2021-09-05T16:14:43Z</time>
      </trkpt>
      <trkpt lat="44.49836" lon="1.38476">
        <ele>147.9</ele>
        <time>2021-09-05T16:14:45Z</time>
      </trkpt>
      <trkpt lat="44.49827" lon="1.38482">
        <ele>148.4</ele>
        <time>2021-09-05T16:14:47Z</time>
      </trkpt>
      <trkpt lat="44.49824" lon="1.38484">
        <ele>148.6</ele>
        <time>2021-09-05T16:14:49Z</time>
      </trkpt>
      <trkpt lat="44.49821" lon="1.38485">
        <ele>148.7</ele>
        <time>2021-09-05T16:14:50Z</time>
      </trkpt>
      <trkpt lat="44.49816" lon="1.38487">
        <ele>148.8</ele>
        <time>2021-09-05T16:14:51Z</time>
      </trkpt>
      <trkpt lat="44.49811" lon="1.38489">
        <ele>149</ele>
        <time>2021-09-05T16:14:53Z</time>
      </trkpt>
      <trkpt lat="44.49809" lon="1.3849">
        <ele>149</ele>
        <time>2021-09-05T16:14:54Z</time>
      </trkpt>
      <trkpt lat="44.49806" lon="1.38491">
        <ele>149.1</ele>
        <time>2021-09-05T16:14:56Z</time>
      </trkpt>
      <trkpt lat="44.49802" lon="1.38493">
        <ele>149.2</ele>
        <time>2021-09-05T16:14:57Z</time>
      </trkpt>
      <trkpt lat="44.49798" lon="1.38496">
        <ele>149.3</ele>
        <time>2021-09-05T16:14:58Z</time>
      </trkpt>
      <trkpt lat="44.49794" lon="1.38499">
        <ele>149.4</ele>
        <time>2021-09-05T16:15:00Z</time>
      </trkpt>
      <trkpt lat="44.49789" lon="1.38502">
        <ele>149.5</ele>
        <time>2021-09-05T16:15:02Z</time>
      </trkpt>
      <trkpt lat="44.49787" lon="1.38504">
        <ele>149.5</ele>
        <time>2021-09-05T16:15:03Z</time>
      </trkpt>
      <trkpt lat="44.49782" lon="1.38506">
        <ele>149.6</ele>
        <time>2021-09-05T16:15:05Z</time>
      </trkpt>
      <trkpt lat="44.49778" lon="1.38508">
        <ele>149.6</ele>
        <time>2021-09-05T16:15:07Z</time>
      </trkpt>
      <trkpt lat="44.49775" lon="1.38509">
        <ele>149.6</ele>
        <time>2021-09-05T16:15:08Z</time>
      </trkpt>
      <trkpt lat="44.49769" lon="1.38512">
        <ele>149.7</ele>
        <time>2021-09-05T16:15:10Z</time>
      </trkpt>
      <trkpt lat="44.49764" lon="1.38516">
        <ele>149.7</ele>
        <time>2021-09-05T16:15:12Z</time>
      </trkpt>
      <trkpt lat="44.49761" lon="1.38519">
        <ele>149.7</ele>
        <time>2021-09-05T16:15:13Z</time>
      </trkpt>
      <trkpt lat="44.49758" lon="1.3852">
        <ele>149.7</ele>
        <time>2021-09-05T16:15:14Z</time>
      </trkpt>
      <trkpt lat="44.49755" lon="1.38522">
        <ele>149.7</ele>
        <time>2021-09-05T16:15:15Z</time>
      </trkpt>
      <trkpt lat="44.49752" lon="1.38524">
        <ele>149.6</ele>
        <time>2021-09-05T16:15:16Z</time>
      </trkpt>
      <trkpt lat="44.49746" lon="1.38528">
        <ele>149.6</ele>
        <time>2021-09-05T16:15:18Z</time>
      </trkpt>
      <trkpt lat="44.49742" lon="1.38529">
        <ele>149.6</ele>
        <time>2021-09-05T16:15:19Z</time>
      </trkpt>
      <trkpt lat="44.49737" lon="1.38532">
        <ele>149.6</ele>
        <time>2021-09-05T16:15:21Z</time>
      </trkpt>
      <trkpt lat="44.49732" lon="1.38534">
        <ele>149.6</ele>
        <time>2021-09-05T16:15:22Z</time>
      </trkpt>
      <trkpt lat="44.49728" lon="1.38537">
        <ele>149.6</ele>
        <time>2021-09-05T16:15:24Z</time>
      </trkpt>
      <trkpt lat="44.49723" lon="1.38541">
        <ele>149.5</ele>
        <time>2021-09-05T16:15:26Z</time>
      </trkpt>
      <trkpt lat="44.49719" lon="1.38543">
        <ele>149.5</ele>
        <time>2021-09-05T16:15:28Z</time>
      </trkpt>
      <trkpt lat="44.49717" lon="1.38543">
        <ele>149.5</ele>
        <time>2021-09-05T16:15:29Z</time>
      </trkpt>
      <trkpt lat="44.49717" lon="1.38544">
        <ele>149.5</ele>
        <time>2021-09-05T16:15:30Z</time>
      </trkpt>
      <trkpt lat="44.49716" lon="1.38545">
        <ele>149.5</ele>
        <time>2021-09-05T16:15:32Z</time>
      </trkpt>
      <trkpt lat="44.49715" lon="1.38547">
        <ele>149.5</ele>
        <time>2021-09-05T16:15:34Z</time>
      </trkpt>
      <trkpt lat="44.49714" lon="1.38548">
        <ele>149.5</ele>
        <time>2021-09-05T16:15:35Z</time>
      </trkpt>
      <trkpt lat="44.49714" lon="1.38549">
        <ele>149.5</ele>
        <time>2021-09-05T16:15:37Z</time>
      </trkpt>
      <trkpt lat="44.49713" lon="1.38551">
        <ele>149.5</ele>
        <time>2021-09-05T16:15:38Z</time>
      </trkpt>
      <trkpt lat="44.49712" lon="1.38558">
        <ele>149.5</ele>
        <time>2021-09-05T16:15:39Z</time>
      </trkpt>
      <trkpt lat="44.49709" lon="1.38564">
        <ele>149.5</ele>
        <time>2021-09-05T16:15:40Z</time>
      </trkpt>
      <trkpt lat="44.49704" lon="1.38571">
        <ele>149.5</ele>
        <time>2021-09-05T16:15:42Z</time>
      </trkpt>
      <trkpt lat="44.49702" lon="1.38576">
        <ele>149.5</ele>
        <time>2021-09-05T16:15:43Z</time>
      </trkpt>
      <trkpt lat="44.49701" lon="1.38583">
        <ele>149.5</ele>
        <time>2021-09-05T16:15:45Z</time>
      </trkpt>
      <trkpt lat="44.49699" lon="1.38587">
        <ele>149.5</ele>
        <time>2021-09-05T16:15:46Z</time>
      </trkpt>
      <trkpt lat="44.49699" lon="1.38592">
        <ele>149.5</ele>
        <time>2021-09-05T16:15:47Z</time>
      </trkpt>
      <trkpt lat="44.497" lon="1.38595">
        <ele>149.5</ele>
        <time>2021-09-05T16:15:48Z</time>
      </trkpt>
      <trkpt lat="44.49703" lon="1.38596">
        <ele>149.5</ele>
        <time>2021-09-05T16:15:50Z</time>
      </trkpt>
      <trkpt lat="44.49705" lon="1.38596">
        <ele>149.5</ele>
        <time>2021-09-05T16:15:51Z</time>
      </trkpt>
      <trkpt lat="44.49706" lon="1.38594">
        <ele>149.5</ele>
        <time>2021-09-05T16:15:53Z</time>
      </trkpt>
      <trkpt lat="44.49707" lon="1.38593">
        <ele>149.5</ele>
        <time>2021-09-05T16:15:54Z</time>
      </trkpt>
      <trkpt lat="44.4971" lon="1.38591">
        <ele>149.5</ele>
        <time>2021-09-05T16:15:56Z</time>
      </trkpt>
      <trkpt lat="44.49715" lon="1.38592">
        <ele>149.5</ele>
        <time>2021-09-05T16:15:57Z</time>
      </trkpt>
      <trkpt lat="44.49714" lon="1.38591">
        <ele>149.5</ele>
        <time>2021-09-05T16:15:59Z</time>
      </trkpt>
      <trkpt lat="44.49715" lon="1.3859">
        <ele>149.5</ele>
        <time>2021-09-05T16:16:01Z</time>
      </trkpt>
      <trkpt lat="44.49717" lon="1.38588">
        <ele>149.5</ele>
        <time>2021-09-05T16:16:03Z</time>
      </trkpt>
      <trkpt lat="44.49715" lon="1.38584">
        <ele>149.5</ele>
        <time>2021-09-05T16:16:04Z</time>
      </trkpt>
      <trkpt lat="44.49713" lon="1.38585">
        <ele>149.5</ele>
        <time>2021-09-05T16:16:06Z</time>
      </trkpt>
      <trkpt lat="44.49712" lon="1.38585">
        <ele>149.5</ele>
        <time>2021-09-05T16:16:07Z</time>
      </trkpt>
      <trkpt lat="44.49711" lon="1.38585">
        <ele>149.5</ele>
        <time>2021-09-05T16:16:08Z</time>
      </trkpt>
      <trkpt lat="44.49711" lon="1.38585">
        <ele>149.5</ele>
        <time>2021-09-05T16:16:09Z</time>
      </trkpt>
      <trkpt lat="44.49711" lon="1.38585">
        <ele>149.5</ele>
        <time>2021-09-05T16:16:10Z</time>
      </trkpt>
      <trkpt lat="44.49711" lon="1.38585">
        <ele>149.5</ele>
        <time>2021-09-05T16:16:12Z</time>
      </trkpt>
      <trkpt lat="44.4971" lon="1.38585">
        <ele>149.5</ele>
        <time>2021-09-05T16:16:13Z</time>
      </trkpt>
      <trkpt lat="44.49709" lon="1.38586">
        <ele>149.5</ele>
        <time>2021-09-05T16:16:15Z</time>
      </trkpt>
      <trkpt lat="44.49708" lon="1.38587">
        <ele>149.5</ele>
        <time>2021-09-05T16:16:16Z</time>
      </trkpt>
      <trkpt lat="44.49706" lon="1.38588">
        <ele>149.5</ele>
        <time>2021-09-05T16:16:17Z</time>
      </trkpt>
      <trkpt lat="44.49706" lon="1.38588">
        <ele>149.5</ele>
        <time>2021-09-05T16:16:17Z</time>
      </trkpt>
      <trkpt lat="44.49703" lon="1.3859">
        <ele>149.5</ele>
        <time>2021-09-05T16:16:18Z</time>
      </trkpt>
      <trkpt lat="44.49701" lon="1.38593">
        <ele>149.5</ele>
        <time>2021-09-05T16:16:19Z</time>
      </trkpt>
      <trkpt lat="44.49698" lon="1.386">
        <ele>149.6</ele>
        <time>2021-09-05T16:16:21Z</time>
      </trkpt>
      <trkpt lat="44.49697" lon="1.38607">
        <ele>149.6</ele>
        <time>2021-09-05T16:16:23Z</time>
      </trkpt>
      <trkpt lat="44.49695" lon="1.38613">
        <ele>149.6</ele>
        <time>2021-09-05T16:16:26Z</time>
      </trkpt>
      <trkpt lat="44.49694" lon="1.38618">
        <ele>149.6</ele>
        <time>2021-09-05T16:16:27Z</time>
      </trkpt>
      <trkpt lat="44.49693" lon="1.38625">
        <ele>149.6</ele>
        <time>2021-09-05T16:16:29Z</time>
      </trkpt>
      <trkpt lat="44.49692" lon="1.38628">
        <ele>149.6</ele>
        <time>2021-09-05T16:16:30Z</time>
      </trkpt>
      <trkpt lat="44.49692" lon="1.38634">
        <ele>149.6</ele>
        <time>2021-09-05T16:16:32Z</time>
      </trkpt>
      <trkpt lat="44.49691" lon="1.38639">
        <ele>149.6</ele>
        <time>2021-09-05T16:16:34Z</time>
      </trkpt>
      <trkpt lat="44.49691" lon="1.38641">
        <ele>149.6</ele>
        <time>2021-09-05T16:16:35Z</time>
      </trkpt>
      <trkpt lat="44.4969" lon="1.38647">
        <ele>149.7</ele>
        <time>2021-09-05T16:16:36Z</time>
      </trkpt>
      <trkpt lat="44.4969" lon="1.38653">
        <ele>149.8</ele>
        <time>2021-09-05T16:16:38Z</time>
      </trkpt>
      <trkpt lat="44.49691" lon="1.3866">
        <ele>150</ele>
        <time>2021-09-05T16:16:40Z</time>
      </trkpt>
      <trkpt lat="44.49692" lon="1.38662">
        <ele>150</ele>
        <time>2021-09-05T16:16:41Z</time>
      </trkpt>
      <trkpt lat="44.49692" lon="1.38664">
        <ele>150.1</ele>
        <time>2021-09-05T16:16:42Z</time>
      </trkpt>
      <trkpt lat="44.49692" lon="1.38668">
        <ele>150.1</ele>
        <time>2021-09-05T16:16:43Z</time>
      </trkpt>
      <trkpt lat="44.49693" lon="1.38674">
        <ele>150.3</ele>
        <time>2021-09-05T16:16:45Z</time>
      </trkpt>
      <trkpt lat="44.49695" lon="1.38676">
        <ele>150.3</ele>
        <time>2021-09-05T16:16:46Z</time>
      </trkpt>
      <trkpt lat="44.49695" lon="1.38681">
        <ele>150.5</ele>
        <time>2021-09-05T16:16:48Z</time>
      </trkpt>
      <trkpt lat="44.49697" lon="1.38685">
        <ele>150.6</ele>
        <time>2021-09-05T16:16:49Z</time>
      </trkpt>
      <trkpt lat="44.49697" lon="1.3869">
        <ele>150.7</ele>
        <time>2021-09-05T16:16:51Z</time>
      </trkpt>
      <trkpt lat="44.49696" lon="1.38695">
        <ele>150.8</ele>
        <time>2021-09-05T16:16:53Z</time>
      </trkpt>
      <trkpt lat="44.49695" lon="1.38697">
        <ele>150.9</ele>
        <time>2021-09-05T16:16:54Z</time>
      </trkpt>
      <trkpt lat="44.49693" lon="1.38699">
        <ele>151</ele>
        <time>2021-09-05T16:16:56Z</time>
      </trkpt>
      <trkpt lat="44.49694" lon="1.38699">
        <ele>151</ele>
        <time>2021-09-05T16:16:58Z</time>
      </trkpt>
      <trkpt lat="44.49694" lon="1.38699">
        <ele>151</ele>
        <time>2021-09-05T16:16:59Z</time>
      </trkpt>
      <trkpt lat="44.49694" lon="1.38699">
        <ele>151</ele>
        <time>2021-09-05T16:17:00Z</time>
      </trkpt>
      <trkpt lat="44.49695" lon="1.38699">
        <ele>151</ele>
        <time>2021-09-05T16:17:03Z</time>
      </trkpt>
      <trkpt lat="44.49695" lon="1.38699">
        <ele>151</ele>
        <time>2021-09-05T16:17:05Z</time>
      </trkpt>
      <trkpt lat="44.49695" lon="1.38699">
        <ele>151</ele>
        <time>2021-09-05T16:17:06Z</time>
      </trkpt>
      <trkpt lat="44.49695" lon="1.38699">
        <ele>151</ele>
        <time>2021-09-05T16:17:07Z</time>
      </trkpt>
    </trkseg>
  </trk>
</gpx>